<?xml version="1.0" encoding="UTF-8" standalone="no" ?>
<gpx xmlns="http://www.topografix.com/GPX/1/1" xmlns:xsi="http://www.w3.org/2001/XMLSchema-instance" xsi:schemaLocation="http://www.topografix.com/GPX/1/1 http://www.topografix.com/GPX/1/1/gpx.xsd" version="1.1" creator="VisuGPX - https://www.visugpx.com">
  <metadata>
    <name>rando st sulpice et cameyrac 14 km</name>
  </metadata>
  <trk>
    <name><![CDATA[rando st sulpice et cameyrac 14 km_1]]></name>
    <trkseg>
      <trkpt lat="44.91027" lon="-0.39135">
        <ele>19.4</ele>
        <time>2020-09-10T08:46:52Z</time>
      </trkpt>
      <trkpt lat="44.91039" lon="-0.39136">
        <ele>19.5</ele>
        <time>2020-09-10T08:46:55Z</time>
      </trkpt>
      <trkpt lat="44.91033" lon="-0.39136">
        <ele>19.5</ele>
        <time>2020-09-10T08:46:56Z</time>
      </trkpt>
      <trkpt lat="44.91028" lon="-0.39133">
        <ele>19.5</ele>
        <time>2020-09-10T08:46:57Z</time>
      </trkpt>
      <trkpt lat="44.91027" lon="-0.39134">
        <ele>19.5</ele>
        <time>2020-09-10T08:46:58Z</time>
      </trkpt>
      <trkpt lat="44.91028" lon="-0.39135">
        <ele>19.5</ele>
        <time>2020-09-10T08:47:00Z</time>
      </trkpt>
      <trkpt lat="44.91028" lon="-0.39135">
        <ele>19.5</ele>
        <time>2020-09-10T08:47:01Z</time>
      </trkpt>
      <trkpt lat="44.91028" lon="-0.39135">
        <ele>19.5</ele>
        <time>2020-09-10T08:47:03Z</time>
      </trkpt>
      <trkpt lat="44.91028" lon="-0.39135">
        <ele>19.5</ele>
        <time>2020-09-10T08:47:05Z</time>
      </trkpt>
      <trkpt lat="44.91028" lon="-0.39135">
        <ele>19.5</ele>
        <time>2020-09-10T08:47:07Z</time>
      </trkpt>
      <trkpt lat="44.91028" lon="-0.39135">
        <ele>19.5</ele>
        <time>2020-09-10T08:47:08Z</time>
      </trkpt>
      <trkpt lat="44.91028" lon="-0.39135">
        <ele>19.5</ele>
        <time>2020-09-10T08:47:10Z</time>
      </trkpt>
      <trkpt lat="44.91028" lon="-0.39135">
        <ele>19.5</ele>
        <time>2020-09-10T08:47:12Z</time>
      </trkpt>
      <trkpt lat="44.91028" lon="-0.39135">
        <ele>19.5</ele>
        <time>2020-09-10T08:47:14Z</time>
      </trkpt>
      <trkpt lat="44.91028" lon="-0.39135">
        <ele>19.5</ele>
        <time>2020-09-10T08:47:16Z</time>
      </trkpt>
      <trkpt lat="44.91028" lon="-0.39135">
        <ele>19.5</ele>
        <time>2020-09-10T08:47:17Z</time>
      </trkpt>
      <trkpt lat="44.91028" lon="-0.39135">
        <ele>19.5</ele>
        <time>2020-09-10T08:47:18Z</time>
      </trkpt>
      <trkpt lat="44.91028" lon="-0.39135">
        <ele>19.5</ele>
        <time>2020-09-10T08:47:20Z</time>
      </trkpt>
      <trkpt lat="44.91028" lon="-0.39135">
        <ele>19.5</ele>
        <time>2020-09-10T08:47:21Z</time>
      </trkpt>
      <trkpt lat="44.91028" lon="-0.39135">
        <ele>19.5</ele>
        <time>2020-09-10T08:47:23Z</time>
      </trkpt>
      <trkpt lat="44.91028" lon="-0.39135">
        <ele>19.5</ele>
        <time>2020-09-10T08:47:25Z</time>
      </trkpt>
      <trkpt lat="44.91028" lon="-0.39134">
        <ele>19.5</ele>
        <time>2020-09-10T08:47:27Z</time>
      </trkpt>
      <trkpt lat="44.91028" lon="-0.39132">
        <ele>19.5</ele>
        <time>2020-09-10T08:47:28Z</time>
      </trkpt>
      <trkpt lat="44.91029" lon="-0.39129">
        <ele>19.5</ele>
        <time>2020-09-10T08:47:30Z</time>
      </trkpt>
      <trkpt lat="44.91029" lon="-0.39128">
        <ele>19.5</ele>
        <time>2020-09-10T08:47:31Z</time>
      </trkpt>
      <trkpt lat="44.91029" lon="-0.39127">
        <ele>19.5</ele>
        <time>2020-09-10T08:47:32Z</time>
      </trkpt>
      <trkpt lat="44.91029" lon="-0.39126">
        <ele>19.5</ele>
        <time>2020-09-10T08:47:33Z</time>
      </trkpt>
      <trkpt lat="44.91029" lon="-0.39124">
        <ele>19.5</ele>
        <time>2020-09-10T08:47:35Z</time>
      </trkpt>
      <trkpt lat="44.91029" lon="-0.39122">
        <ele>19.5</ele>
        <time>2020-09-10T08:47:36Z</time>
      </trkpt>
      <trkpt lat="44.91029" lon="-0.3912">
        <ele>19.5</ele>
        <time>2020-09-10T08:47:37Z</time>
      </trkpt>
      <trkpt lat="44.91029" lon="-0.39118">
        <ele>19.5</ele>
        <time>2020-09-10T08:47:38Z</time>
      </trkpt>
      <trkpt lat="44.91029" lon="-0.39117">
        <ele>19.5</ele>
        <time>2020-09-10T08:47:40Z</time>
      </trkpt>
      <trkpt lat="44.91029" lon="-0.39117">
        <ele>19.5</ele>
        <time>2020-09-10T08:47:41Z</time>
      </trkpt>
      <trkpt lat="44.91029" lon="-0.39117">
        <ele>19.5</ele>
        <time>2020-09-10T08:47:42Z</time>
      </trkpt>
      <trkpt lat="44.9103" lon="-0.39117">
        <ele>19.5</ele>
        <time>2020-09-10T08:47:43Z</time>
      </trkpt>
      <trkpt lat="44.9103" lon="-0.39116">
        <ele>19.5</ele>
        <time>2020-09-10T08:47:44Z</time>
      </trkpt>
      <trkpt lat="44.9103" lon="-0.39116">
        <ele>19.5</ele>
        <time>2020-09-10T08:47:45Z</time>
      </trkpt>
      <trkpt lat="44.9103" lon="-0.39116">
        <ele>19.5</ele>
        <time>2020-09-10T08:47:46Z</time>
      </trkpt>
      <trkpt lat="44.9103" lon="-0.39116">
        <ele>19.5</ele>
        <time>2020-09-10T08:47:48Z</time>
      </trkpt>
      <trkpt lat="44.9103" lon="-0.39116">
        <ele>19.5</ele>
        <time>2020-09-10T08:47:49Z</time>
      </trkpt>
      <trkpt lat="44.9103" lon="-0.39115">
        <ele>19.5</ele>
        <time>2020-09-10T08:47:50Z</time>
      </trkpt>
      <trkpt lat="44.9103" lon="-0.39115">
        <ele>19.5</ele>
        <time>2020-09-10T08:47:51Z</time>
      </trkpt>
      <trkpt lat="44.91029" lon="-0.39112">
        <ele>19.5</ele>
        <time>2020-09-10T08:47:52Z</time>
      </trkpt>
      <trkpt lat="44.91028" lon="-0.3911">
        <ele>19.5</ele>
        <time>2020-09-10T08:47:54Z</time>
      </trkpt>
      <trkpt lat="44.91029" lon="-0.39108">
        <ele>19.5</ele>
        <time>2020-09-10T08:47:55Z</time>
      </trkpt>
      <trkpt lat="44.91029" lon="-0.39105">
        <ele>19.5</ele>
        <time>2020-09-10T08:47:57Z</time>
      </trkpt>
      <trkpt lat="44.9103" lon="-0.39103">
        <ele>19.5</ele>
        <time>2020-09-10T08:47:58Z</time>
      </trkpt>
      <trkpt lat="44.91032" lon="-0.39101">
        <ele>19.5</ele>
        <time>2020-09-10T08:47:59Z</time>
      </trkpt>
      <trkpt lat="44.91032" lon="-0.39101">
        <ele>19.5</ele>
        <time>2020-09-10T08:48:00Z</time>
      </trkpt>
      <trkpt lat="44.91034" lon="-0.391">
        <ele>19.5</ele>
        <time>2020-09-10T08:48:02Z</time>
      </trkpt>
      <trkpt lat="44.91035" lon="-0.391">
        <ele>19.5</ele>
        <time>2020-09-10T08:48:03Z</time>
      </trkpt>
      <trkpt lat="44.91036" lon="-0.39098">
        <ele>19.5</ele>
        <time>2020-09-10T08:48:05Z</time>
      </trkpt>
      <trkpt lat="44.91036" lon="-0.39097">
        <ele>19.5</ele>
        <time>2020-09-10T08:48:06Z</time>
      </trkpt>
      <trkpt lat="44.91036" lon="-0.39096">
        <ele>19.5</ele>
        <time>2020-09-10T08:48:07Z</time>
      </trkpt>
      <trkpt lat="44.91036" lon="-0.39095">
        <ele>19.5</ele>
        <time>2020-09-10T08:48:08Z</time>
      </trkpt>
      <trkpt lat="44.91037" lon="-0.39094">
        <ele>19.5</ele>
        <time>2020-09-10T08:48:09Z</time>
      </trkpt>
      <trkpt lat="44.91037" lon="-0.39094">
        <ele>19.5</ele>
        <time>2020-09-10T08:48:10Z</time>
      </trkpt>
      <trkpt lat="44.91036" lon="-0.39093">
        <ele>19.5</ele>
        <time>2020-09-10T08:48:12Z</time>
      </trkpt>
      <trkpt lat="44.91036" lon="-0.39093">
        <ele>19.5</ele>
        <time>2020-09-10T08:48:13Z</time>
      </trkpt>
      <trkpt lat="44.91036" lon="-0.39092">
        <ele>19.5</ele>
        <time>2020-09-10T08:48:15Z</time>
      </trkpt>
      <trkpt lat="44.91036" lon="-0.39092">
        <ele>19.5</ele>
        <time>2020-09-10T08:48:16Z</time>
      </trkpt>
      <trkpt lat="44.91036" lon="-0.39092">
        <ele>19.5</ele>
        <time>2020-09-10T08:48:17Z</time>
      </trkpt>
      <trkpt lat="44.91036" lon="-0.39091">
        <ele>19.5</ele>
        <time>2020-09-10T08:48:19Z</time>
      </trkpt>
      <trkpt lat="44.91035" lon="-0.39091">
        <ele>19.5</ele>
        <time>2020-09-10T08:48:20Z</time>
      </trkpt>
      <trkpt lat="44.91034" lon="-0.3909">
        <ele>19.5</ele>
        <time>2020-09-10T08:48:21Z</time>
      </trkpt>
      <trkpt lat="44.91034" lon="-0.3909">
        <ele>19.5</ele>
        <time>2020-09-10T08:48:23Z</time>
      </trkpt>
      <trkpt lat="44.91032" lon="-0.3909">
        <ele>19.6</ele>
        <time>2020-09-10T08:48:24Z</time>
      </trkpt>
      <trkpt lat="44.9103" lon="-0.3909">
        <ele>19.6</ele>
        <time>2020-09-10T08:48:26Z</time>
      </trkpt>
      <trkpt lat="44.91029" lon="-0.3909">
        <ele>19.6</ele>
        <time>2020-09-10T08:48:27Z</time>
      </trkpt>
      <trkpt lat="44.91028" lon="-0.3909">
        <ele>19.6</ele>
        <time>2020-09-10T08:48:28Z</time>
      </trkpt>
      <trkpt lat="44.91027" lon="-0.39089">
        <ele>19.6</ele>
        <time>2020-09-10T08:48:29Z</time>
      </trkpt>
      <trkpt lat="44.91026" lon="-0.39089">
        <ele>19.6</ele>
        <time>2020-09-10T08:48:30Z</time>
      </trkpt>
      <trkpt lat="44.91024" lon="-0.39088">
        <ele>19.6</ele>
        <time>2020-09-10T08:48:32Z</time>
      </trkpt>
      <trkpt lat="44.91024" lon="-0.39088">
        <ele>19.6</ele>
        <time>2020-09-10T08:48:33Z</time>
      </trkpt>
      <trkpt lat="44.91026" lon="-0.39089">
        <ele>19.6</ele>
        <time>2020-09-10T08:48:35Z</time>
      </trkpt>
      <trkpt lat="44.91026" lon="-0.3909">
        <ele>19.6</ele>
        <time>2020-09-10T08:48:36Z</time>
      </trkpt>
      <trkpt lat="44.91026" lon="-0.3909">
        <ele>19.6</ele>
        <time>2020-09-10T08:48:38Z</time>
      </trkpt>
      <trkpt lat="44.91025" lon="-0.3909">
        <ele>19.6</ele>
        <time>2020-09-10T08:48:39Z</time>
      </trkpt>
      <trkpt lat="44.91025" lon="-0.39091">
        <ele>19.6</ele>
        <time>2020-09-10T08:48:40Z</time>
      </trkpt>
      <trkpt lat="44.91024" lon="-0.39091">
        <ele>19.6</ele>
        <time>2020-09-10T08:48:41Z</time>
      </trkpt>
      <trkpt lat="44.91023" lon="-0.39091">
        <ele>19.6</ele>
        <time>2020-09-10T08:48:43Z</time>
      </trkpt>
      <trkpt lat="44.91021" lon="-0.39092">
        <ele>19.6</ele>
        <time>2020-09-10T08:48:44Z</time>
      </trkpt>
      <trkpt lat="44.91018" lon="-0.39093">
        <ele>19.6</ele>
        <time>2020-09-10T08:48:45Z</time>
      </trkpt>
      <trkpt lat="44.91016" lon="-0.39094">
        <ele>19.6</ele>
        <time>2020-09-10T08:48:46Z</time>
      </trkpt>
      <trkpt lat="44.91015" lon="-0.39093">
        <ele>19.6</ele>
        <time>2020-09-10T08:48:47Z</time>
      </trkpt>
      <trkpt lat="44.91013" lon="-0.39093">
        <ele>19.6</ele>
        <time>2020-09-10T08:48:48Z</time>
      </trkpt>
      <trkpt lat="44.91012" lon="-0.39092">
        <ele>19.6</ele>
        <time>2020-09-10T08:48:49Z</time>
      </trkpt>
      <trkpt lat="44.91011" lon="-0.39091">
        <ele>19.6</ele>
        <time>2020-09-10T08:48:50Z</time>
      </trkpt>
      <trkpt lat="44.9101" lon="-0.39091">
        <ele>19.6</ele>
        <time>2020-09-10T08:48:52Z</time>
      </trkpt>
      <trkpt lat="44.91009" lon="-0.3909">
        <ele>19.6</ele>
        <time>2020-09-10T08:48:53Z</time>
      </trkpt>
      <trkpt lat="44.91009" lon="-0.39087">
        <ele>19.6</ele>
        <time>2020-09-10T08:48:54Z</time>
      </trkpt>
      <trkpt lat="44.91009" lon="-0.39086">
        <ele>19.6</ele>
        <time>2020-09-10T08:48:55Z</time>
      </trkpt>
      <trkpt lat="44.91009" lon="-0.39086">
        <ele>19.6</ele>
        <time>2020-09-10T08:48:56Z</time>
      </trkpt>
      <trkpt lat="44.91009" lon="-0.39086">
        <ele>19.6</ele>
        <time>2020-09-10T08:48:58Z</time>
      </trkpt>
      <trkpt lat="44.9101" lon="-0.39086">
        <ele>19.6</ele>
        <time>2020-09-10T08:48:59Z</time>
      </trkpt>
      <trkpt lat="44.9101" lon="-0.39086">
        <ele>19.6</ele>
        <time>2020-09-10T08:49:00Z</time>
      </trkpt>
      <trkpt lat="44.9101" lon="-0.39086">
        <ele>19.6</ele>
        <time>2020-09-10T08:49:02Z</time>
      </trkpt>
      <trkpt lat="44.9101" lon="-0.39087">
        <ele>19.6</ele>
        <time>2020-09-10T08:49:04Z</time>
      </trkpt>
      <trkpt lat="44.9101" lon="-0.39087">
        <ele>19.6</ele>
        <time>2020-09-10T08:49:05Z</time>
      </trkpt>
      <trkpt lat="44.9101" lon="-0.39087">
        <ele>19.6</ele>
        <time>2020-09-10T08:49:07Z</time>
      </trkpt>
      <trkpt lat="44.9101" lon="-0.39087">
        <ele>19.6</ele>
        <time>2020-09-10T08:49:09Z</time>
      </trkpt>
      <trkpt lat="44.9101" lon="-0.39087">
        <ele>19.6</ele>
        <time>2020-09-10T08:49:10Z</time>
      </trkpt>
      <trkpt lat="44.9101" lon="-0.39088">
        <ele>19.6</ele>
        <time>2020-09-10T08:49:11Z</time>
      </trkpt>
      <trkpt lat="44.9101" lon="-0.39088">
        <ele>19.6</ele>
        <time>2020-09-10T08:49:12Z</time>
      </trkpt>
      <trkpt lat="44.9101" lon="-0.39088">
        <ele>19.6</ele>
        <time>2020-09-10T08:49:13Z</time>
      </trkpt>
      <trkpt lat="44.9101" lon="-0.39088">
        <ele>19.6</ele>
        <time>2020-09-10T08:49:14Z</time>
      </trkpt>
      <trkpt lat="44.9101" lon="-0.39088">
        <ele>19.6</ele>
        <time>2020-09-10T08:49:15Z</time>
      </trkpt>
      <trkpt lat="44.9101" lon="-0.39089">
        <ele>19.6</ele>
        <time>2020-09-10T08:49:17Z</time>
      </trkpt>
      <trkpt lat="44.9101" lon="-0.39089">
        <ele>19.6</ele>
        <time>2020-09-10T08:49:19Z</time>
      </trkpt>
      <trkpt lat="44.9101" lon="-0.39089">
        <ele>19.6</ele>
        <time>2020-09-10T08:49:20Z</time>
      </trkpt>
      <trkpt lat="44.9101" lon="-0.39089">
        <ele>19.6</ele>
        <time>2020-09-10T08:49:22Z</time>
      </trkpt>
      <trkpt lat="44.9101" lon="-0.39089">
        <ele>19.6</ele>
        <time>2020-09-10T08:49:23Z</time>
      </trkpt>
      <trkpt lat="44.9101" lon="-0.39089">
        <ele>19.6</ele>
        <time>2020-09-10T08:49:24Z</time>
      </trkpt>
      <trkpt lat="44.9101" lon="-0.3909">
        <ele>19.6</ele>
        <time>2020-09-10T08:49:26Z</time>
      </trkpt>
      <trkpt lat="44.9101" lon="-0.3909">
        <ele>19.6</ele>
        <time>2020-09-10T08:49:28Z</time>
      </trkpt>
      <trkpt lat="44.9101" lon="-0.3909">
        <ele>19.6</ele>
        <time>2020-09-10T08:49:29Z</time>
      </trkpt>
      <trkpt lat="44.9101" lon="-0.3909">
        <ele>19.6</ele>
        <time>2020-09-10T08:49:30Z</time>
      </trkpt>
      <trkpt lat="44.9101" lon="-0.3909">
        <ele>19.6</ele>
        <time>2020-09-10T08:49:32Z</time>
      </trkpt>
      <trkpt lat="44.91011" lon="-0.39091">
        <ele>19.6</ele>
        <time>2020-09-10T08:49:33Z</time>
      </trkpt>
      <trkpt lat="44.91011" lon="-0.39091">
        <ele>19.6</ele>
        <time>2020-09-10T08:49:34Z</time>
      </trkpt>
      <trkpt lat="44.91012" lon="-0.39092">
        <ele>19.6</ele>
        <time>2020-09-10T08:49:36Z</time>
      </trkpt>
      <trkpt lat="44.91013" lon="-0.39093">
        <ele>19.6</ele>
        <time>2020-09-10T08:49:37Z</time>
      </trkpt>
      <trkpt lat="44.91013" lon="-0.39094">
        <ele>19.6</ele>
        <time>2020-09-10T08:49:38Z</time>
      </trkpt>
      <trkpt lat="44.91014" lon="-0.39094">
        <ele>19.6</ele>
        <time>2020-09-10T08:49:39Z</time>
      </trkpt>
      <trkpt lat="44.91015" lon="-0.39094">
        <ele>19.6</ele>
        <time>2020-09-10T08:49:40Z</time>
      </trkpt>
      <trkpt lat="44.91014" lon="-0.39093">
        <ele>19.6</ele>
        <time>2020-09-10T08:49:41Z</time>
      </trkpt>
      <trkpt lat="44.91015" lon="-0.39093">
        <ele>19.6</ele>
        <time>2020-09-10T08:49:42Z</time>
      </trkpt>
      <trkpt lat="44.91015" lon="-0.39093">
        <ele>19.6</ele>
        <time>2020-09-10T08:49:43Z</time>
      </trkpt>
      <trkpt lat="44.91015" lon="-0.39093">
        <ele>19.6</ele>
        <time>2020-09-10T08:49:45Z</time>
      </trkpt>
      <trkpt lat="44.91013" lon="-0.39093">
        <ele>19.6</ele>
        <time>2020-09-10T08:49:46Z</time>
      </trkpt>
      <trkpt lat="44.91013" lon="-0.39093">
        <ele>19.6</ele>
        <time>2020-09-10T08:49:48Z</time>
      </trkpt>
      <trkpt lat="44.91013" lon="-0.39092">
        <ele>19.6</ele>
        <time>2020-09-10T08:49:49Z</time>
      </trkpt>
      <trkpt lat="44.91013" lon="-0.39092">
        <ele>19.6</ele>
        <time>2020-09-10T08:49:50Z</time>
      </trkpt>
      <trkpt lat="44.91013" lon="-0.39092">
        <ele>19.6</ele>
        <time>2020-09-10T08:49:51Z</time>
      </trkpt>
      <trkpt lat="44.91014" lon="-0.39092">
        <ele>19.6</ele>
        <time>2020-09-10T08:49:54Z</time>
      </trkpt>
      <trkpt lat="44.91014" lon="-0.39091">
        <ele>19.6</ele>
        <time>2020-09-10T08:49:56Z</time>
      </trkpt>
      <trkpt lat="44.91015" lon="-0.39091">
        <ele>19.6</ele>
        <time>2020-09-10T08:49:57Z</time>
      </trkpt>
      <trkpt lat="44.91015" lon="-0.39091">
        <ele>19.6</ele>
        <time>2020-09-10T08:49:58Z</time>
      </trkpt>
      <trkpt lat="44.91016" lon="-0.39092">
        <ele>19.6</ele>
        <time>2020-09-10T08:50:00Z</time>
      </trkpt>
      <trkpt lat="44.91017" lon="-0.39093">
        <ele>19.6</ele>
        <time>2020-09-10T08:50:01Z</time>
      </trkpt>
      <trkpt lat="44.91018" lon="-0.39093">
        <ele>19.6</ele>
        <time>2020-09-10T08:50:02Z</time>
      </trkpt>
      <trkpt lat="44.91019" lon="-0.39093">
        <ele>19.6</ele>
        <time>2020-09-10T08:50:04Z</time>
      </trkpt>
      <trkpt lat="44.91018" lon="-0.39092">
        <ele>19.6</ele>
        <time>2020-09-10T08:50:06Z</time>
      </trkpt>
      <trkpt lat="44.9102" lon="-0.39092">
        <ele>19.6</ele>
        <time>2020-09-10T08:50:07Z</time>
      </trkpt>
      <trkpt lat="44.9102" lon="-0.39093">
        <ele>19.6</ele>
        <time>2020-09-10T08:50:09Z</time>
      </trkpt>
      <trkpt lat="44.9102" lon="-0.39091">
        <ele>19.6</ele>
        <time>2020-09-10T08:50:11Z</time>
      </trkpt>
      <trkpt lat="44.91021" lon="-0.39092">
        <ele>19.6</ele>
        <time>2020-09-10T08:50:13Z</time>
      </trkpt>
      <trkpt lat="44.91021" lon="-0.39093">
        <ele>19.6</ele>
        <time>2020-09-10T08:50:15Z</time>
      </trkpt>
      <trkpt lat="44.91023" lon="-0.39093">
        <ele>19.6</ele>
        <time>2020-09-10T08:50:17Z</time>
      </trkpt>
      <trkpt lat="44.91023" lon="-0.39093">
        <ele>19.6</ele>
        <time>2020-09-10T08:50:19Z</time>
      </trkpt>
      <trkpt lat="44.91024" lon="-0.39095">
        <ele>19.6</ele>
        <time>2020-09-10T08:50:20Z</time>
      </trkpt>
      <trkpt lat="44.91025" lon="-0.39096">
        <ele>19.6</ele>
        <time>2020-09-10T08:50:21Z</time>
      </trkpt>
      <trkpt lat="44.91025" lon="-0.39097">
        <ele>19.6</ele>
        <time>2020-09-10T08:50:23Z</time>
      </trkpt>
      <trkpt lat="44.91025" lon="-0.39098">
        <ele>19.6</ele>
        <time>2020-09-10T08:50:24Z</time>
      </trkpt>
      <trkpt lat="44.91024" lon="-0.39099">
        <ele>19.6</ele>
        <time>2020-09-10T08:50:25Z</time>
      </trkpt>
      <trkpt lat="44.91026" lon="-0.391">
        <ele>19.6</ele>
        <time>2020-09-10T08:50:26Z</time>
      </trkpt>
      <trkpt lat="44.91026" lon="-0.39103">
        <ele>19.6</ele>
        <time>2020-09-10T08:50:28Z</time>
      </trkpt>
      <trkpt lat="44.91026" lon="-0.39105">
        <ele>19.6</ele>
        <time>2020-09-10T08:50:29Z</time>
      </trkpt>
      <trkpt lat="44.91026" lon="-0.39107">
        <ele>19.6</ele>
        <time>2020-09-10T08:50:30Z</time>
      </trkpt>
      <trkpt lat="44.91026" lon="-0.3911">
        <ele>19.6</ele>
        <time>2020-09-10T08:50:32Z</time>
      </trkpt>
      <trkpt lat="44.91027" lon="-0.39112">
        <ele>19.6</ele>
        <time>2020-09-10T08:50:33Z</time>
      </trkpt>
      <trkpt lat="44.91028" lon="-0.39113">
        <ele>19.6</ele>
        <time>2020-09-10T08:50:34Z</time>
      </trkpt>
      <trkpt lat="44.91029" lon="-0.39114">
        <ele>19.6</ele>
        <time>2020-09-10T08:50:35Z</time>
      </trkpt>
      <trkpt lat="44.91031" lon="-0.39114">
        <ele>19.6</ele>
        <time>2020-09-10T08:50:36Z</time>
      </trkpt>
      <trkpt lat="44.91032" lon="-0.39119">
        <ele>19.6</ele>
        <time>2020-09-10T08:50:38Z</time>
      </trkpt>
      <trkpt lat="44.91032" lon="-0.3912">
        <ele>19.6</ele>
        <time>2020-09-10T08:50:39Z</time>
      </trkpt>
      <trkpt lat="44.91031" lon="-0.39123">
        <ele>19.6</ele>
        <time>2020-09-10T08:50:41Z</time>
      </trkpt>
      <trkpt lat="44.91031" lon="-0.39123">
        <ele>19.6</ele>
        <time>2020-09-10T08:50:42Z</time>
      </trkpt>
      <trkpt lat="44.9103" lon="-0.39123">
        <ele>19.6</ele>
        <time>2020-09-10T08:50:43Z</time>
      </trkpt>
      <trkpt lat="44.9103" lon="-0.39122">
        <ele>19.6</ele>
        <time>2020-09-10T08:50:45Z</time>
      </trkpt>
      <trkpt lat="44.9103" lon="-0.39121">
        <ele>19.6</ele>
        <time>2020-09-10T08:50:47Z</time>
      </trkpt>
      <trkpt lat="44.9103" lon="-0.39121">
        <ele>19.6</ele>
        <time>2020-09-10T08:50:48Z</time>
      </trkpt>
      <trkpt lat="44.9103" lon="-0.39121">
        <ele>19.6</ele>
        <time>2020-09-10T08:50:50Z</time>
      </trkpt>
      <trkpt lat="44.91031" lon="-0.39121">
        <ele>19.6</ele>
        <time>2020-09-10T08:50:51Z</time>
      </trkpt>
      <trkpt lat="44.91031" lon="-0.39122">
        <ele>19.6</ele>
        <time>2020-09-10T08:50:53Z</time>
      </trkpt>
      <trkpt lat="44.9103" lon="-0.39121">
        <ele>19.6</ele>
        <time>2020-09-10T08:50:55Z</time>
      </trkpt>
      <trkpt lat="44.91029" lon="-0.39119">
        <ele>19.6</ele>
        <time>2020-09-10T08:50:57Z</time>
      </trkpt>
      <trkpt lat="44.91029" lon="-0.39118">
        <ele>19.6</ele>
        <time>2020-09-10T08:50:58Z</time>
      </trkpt>
      <trkpt lat="44.91029" lon="-0.39116">
        <ele>19.6</ele>
        <time>2020-09-10T08:51:00Z</time>
      </trkpt>
      <trkpt lat="44.91029" lon="-0.39115">
        <ele>19.6</ele>
        <time>2020-09-10T08:51:01Z</time>
      </trkpt>
      <trkpt lat="44.91028" lon="-0.39113">
        <ele>19.6</ele>
        <time>2020-09-10T08:51:02Z</time>
      </trkpt>
      <trkpt lat="44.91027" lon="-0.39112">
        <ele>19.6</ele>
        <time>2020-09-10T08:51:03Z</time>
      </trkpt>
      <trkpt lat="44.91025" lon="-0.39114">
        <ele>19.6</ele>
        <time>2020-09-10T08:51:05Z</time>
      </trkpt>
      <trkpt lat="44.91024" lon="-0.39112">
        <ele>19.6</ele>
        <time>2020-09-10T08:51:06Z</time>
      </trkpt>
      <trkpt lat="44.91023" lon="-0.39111">
        <ele>19.6</ele>
        <time>2020-09-10T08:51:07Z</time>
      </trkpt>
      <trkpt lat="44.91022" lon="-0.3911">
        <ele>19.6</ele>
        <time>2020-09-10T08:51:08Z</time>
      </trkpt>
      <trkpt lat="44.9102" lon="-0.39114">
        <ele>19.6</ele>
        <time>2020-09-10T08:51:10Z</time>
      </trkpt>
      <trkpt lat="44.91017" lon="-0.39114">
        <ele>19.6</ele>
        <time>2020-09-10T08:51:11Z</time>
      </trkpt>
      <trkpt lat="44.91015" lon="-0.39113">
        <ele>19.6</ele>
        <time>2020-09-10T08:51:13Z</time>
      </trkpt>
      <trkpt lat="44.91014" lon="-0.39112">
        <ele>19.5</ele>
        <time>2020-09-10T08:51:14Z</time>
      </trkpt>
      <trkpt lat="44.91013" lon="-0.39111">
        <ele>19.5</ele>
        <time>2020-09-10T08:51:15Z</time>
      </trkpt>
      <trkpt lat="44.9101" lon="-0.39108">
        <ele>19.5</ele>
        <time>2020-09-10T08:51:16Z</time>
      </trkpt>
      <trkpt lat="44.91009" lon="-0.39107">
        <ele>19.5</ele>
        <time>2020-09-10T08:51:17Z</time>
      </trkpt>
      <trkpt lat="44.91006" lon="-0.39104">
        <ele>19.5</ele>
        <time>2020-09-10T08:51:19Z</time>
      </trkpt>
      <trkpt lat="44.91006" lon="-0.39103">
        <ele>19.5</ele>
        <time>2020-09-10T08:51:20Z</time>
      </trkpt>
      <trkpt lat="44.91004" lon="-0.39101">
        <ele>19.5</ele>
        <time>2020-09-10T08:51:21Z</time>
      </trkpt>
      <trkpt lat="44.91004" lon="-0.39099">
        <ele>19.5</ele>
        <time>2020-09-10T08:51:23Z</time>
      </trkpt>
      <trkpt lat="44.91003" lon="-0.39098">
        <ele>19.5</ele>
        <time>2020-09-10T08:51:24Z</time>
      </trkpt>
      <trkpt lat="44.91003" lon="-0.39096">
        <ele>19.5</ele>
        <time>2020-09-10T08:51:25Z</time>
      </trkpt>
      <trkpt lat="44.91002" lon="-0.39094">
        <ele>19.5</ele>
        <time>2020-09-10T08:51:26Z</time>
      </trkpt>
      <trkpt lat="44.91002" lon="-0.39092">
        <ele>19.5</ele>
        <time>2020-09-10T08:51:27Z</time>
      </trkpt>
      <trkpt lat="44.91001" lon="-0.39089">
        <ele>19.5</ele>
        <time>2020-09-10T08:51:29Z</time>
      </trkpt>
      <trkpt lat="44.91" lon="-0.39087">
        <ele>19.5</ele>
        <time>2020-09-10T08:51:30Z</time>
      </trkpt>
      <trkpt lat="44.91" lon="-0.39085">
        <ele>19.4</ele>
        <time>2020-09-10T08:51:31Z</time>
      </trkpt>
      <trkpt lat="44.91" lon="-0.3908">
        <ele>19.4</ele>
        <time>2020-09-10T08:51:32Z</time>
      </trkpt>
      <trkpt lat="44.91" lon="-0.39079">
        <ele>19.4</ele>
        <time>2020-09-10T08:51:33Z</time>
      </trkpt>
      <trkpt lat="44.91" lon="-0.39076">
        <ele>19.4</ele>
        <time>2020-09-10T08:51:34Z</time>
      </trkpt>
      <trkpt lat="44.90999" lon="-0.39072">
        <ele>19.3</ele>
        <time>2020-09-10T08:51:36Z</time>
      </trkpt>
      <trkpt lat="44.90999" lon="-0.3907">
        <ele>19.3</ele>
        <time>2020-09-10T08:51:37Z</time>
      </trkpt>
      <trkpt lat="44.90999" lon="-0.39068">
        <ele>19.3</ele>
        <time>2020-09-10T08:51:38Z</time>
      </trkpt>
      <trkpt lat="44.90998" lon="-0.39066">
        <ele>19.3</ele>
        <time>2020-09-10T08:51:39Z</time>
      </trkpt>
      <trkpt lat="44.90998" lon="-0.39064">
        <ele>19.2</ele>
        <time>2020-09-10T08:51:41Z</time>
      </trkpt>
      <trkpt lat="44.90999" lon="-0.39063">
        <ele>19.2</ele>
        <time>2020-09-10T08:51:42Z</time>
      </trkpt>
      <trkpt lat="44.90999" lon="-0.39063">
        <ele>19.2</ele>
        <time>2020-09-10T08:51:43Z</time>
      </trkpt>
      <trkpt lat="44.90999" lon="-0.39062">
        <ele>19.2</ele>
        <time>2020-09-10T08:51:45Z</time>
      </trkpt>
      <trkpt lat="44.90998" lon="-0.3906">
        <ele>19.2</ele>
        <time>2020-09-10T08:51:46Z</time>
      </trkpt>
      <trkpt lat="44.90998" lon="-0.39058">
        <ele>19.2</ele>
        <time>2020-09-10T08:51:47Z</time>
      </trkpt>
      <trkpt lat="44.90997" lon="-0.39055">
        <ele>19.1</ele>
        <time>2020-09-10T08:51:48Z</time>
      </trkpt>
      <trkpt lat="44.90997" lon="-0.39052">
        <ele>19.1</ele>
        <time>2020-09-10T08:51:50Z</time>
      </trkpt>
      <trkpt lat="44.90997" lon="-0.3905">
        <ele>19.1</ele>
        <time>2020-09-10T08:51:51Z</time>
      </trkpt>
      <trkpt lat="44.90997" lon="-0.39048">
        <ele>19.1</ele>
        <time>2020-09-10T08:51:52Z</time>
      </trkpt>
      <trkpt lat="44.90999" lon="-0.39044">
        <ele>19</ele>
        <time>2020-09-10T08:51:54Z</time>
      </trkpt>
      <trkpt lat="44.91" lon="-0.39042">
        <ele>19</ele>
        <time>2020-09-10T08:51:55Z</time>
      </trkpt>
      <trkpt lat="44.91001" lon="-0.39041">
        <ele>19</ele>
        <time>2020-09-10T08:51:56Z</time>
      </trkpt>
      <trkpt lat="44.91001" lon="-0.39039">
        <ele>18.9</ele>
        <time>2020-09-10T08:51:57Z</time>
      </trkpt>
      <trkpt lat="44.91002" lon="-0.39038">
        <ele>18.9</ele>
        <time>2020-09-10T08:51:58Z</time>
      </trkpt>
      <trkpt lat="44.91002" lon="-0.39036">
        <ele>18.9</ele>
        <time>2020-09-10T08:52:00Z</time>
      </trkpt>
      <trkpt lat="44.91003" lon="-0.39037">
        <ele>18.9</ele>
        <time>2020-09-10T08:52:01Z</time>
      </trkpt>
      <trkpt lat="44.91004" lon="-0.39038">
        <ele>18.9</ele>
        <time>2020-09-10T08:52:03Z</time>
      </trkpt>
      <trkpt lat="44.91005" lon="-0.3904">
        <ele>18.9</ele>
        <time>2020-09-10T08:52:05Z</time>
      </trkpt>
      <trkpt lat="44.91005" lon="-0.39041">
        <ele>18.8</ele>
        <time>2020-09-10T08:52:06Z</time>
      </trkpt>
      <trkpt lat="44.91005" lon="-0.39042">
        <ele>18.8</ele>
        <time>2020-09-10T08:52:08Z</time>
      </trkpt>
      <trkpt lat="44.91005" lon="-0.39042">
        <ele>18.8</ele>
        <time>2020-09-10T08:52:09Z</time>
      </trkpt>
      <trkpt lat="44.91005" lon="-0.39041">
        <ele>18.8</ele>
        <time>2020-09-10T08:52:10Z</time>
      </trkpt>
      <trkpt lat="44.91005" lon="-0.39039">
        <ele>18.8</ele>
        <time>2020-09-10T08:52:11Z</time>
      </trkpt>
      <trkpt lat="44.91004" lon="-0.39038">
        <ele>18.8</ele>
        <time>2020-09-10T08:52:12Z</time>
      </trkpt>
      <trkpt lat="44.91002" lon="-0.39028">
        <ele>18.7</ele>
        <time>2020-09-10T08:52:14Z</time>
      </trkpt>
      <trkpt lat="44.91002" lon="-0.39027">
        <ele>18.6</ele>
        <time>2020-09-10T08:52:15Z</time>
      </trkpt>
      <trkpt lat="44.91002" lon="-0.39026">
        <ele>18.6</ele>
        <time>2020-09-10T08:52:16Z</time>
      </trkpt>
      <trkpt lat="44.91002" lon="-0.39025">
        <ele>18.6</ele>
        <time>2020-09-10T08:52:17Z</time>
      </trkpt>
      <trkpt lat="44.91002" lon="-0.39023">
        <ele>18.6</ele>
        <time>2020-09-10T08:52:18Z</time>
      </trkpt>
      <trkpt lat="44.91001" lon="-0.3902">
        <ele>18.5</ele>
        <time>2020-09-10T08:52:19Z</time>
      </trkpt>
      <trkpt lat="44.91001" lon="-0.39018">
        <ele>18.5</ele>
        <time>2020-09-10T08:52:20Z</time>
      </trkpt>
      <trkpt lat="44.91001" lon="-0.39017">
        <ele>18.5</ele>
        <time>2020-09-10T08:52:22Z</time>
      </trkpt>
      <trkpt lat="44.91002" lon="-0.39017">
        <ele>18.5</ele>
        <time>2020-09-10T08:52:23Z</time>
      </trkpt>
      <trkpt lat="44.91002" lon="-0.39016">
        <ele>18.5</ele>
        <time>2020-09-10T08:52:24Z</time>
      </trkpt>
      <trkpt lat="44.91003" lon="-0.39014">
        <ele>18.5</ele>
        <time>2020-09-10T08:52:25Z</time>
      </trkpt>
      <trkpt lat="44.91003" lon="-0.39013">
        <ele>18.5</ele>
        <time>2020-09-10T08:52:26Z</time>
      </trkpt>
      <trkpt lat="44.91003" lon="-0.39012">
        <ele>18.4</ele>
        <time>2020-09-10T08:52:27Z</time>
      </trkpt>
      <trkpt lat="44.91003" lon="-0.39008">
        <ele>18.4</ele>
        <time>2020-09-10T08:52:29Z</time>
      </trkpt>
      <trkpt lat="44.91002" lon="-0.39007">
        <ele>18.4</ele>
        <time>2020-09-10T08:52:30Z</time>
      </trkpt>
      <trkpt lat="44.91002" lon="-0.39005">
        <ele>18.4</ele>
        <time>2020-09-10T08:52:31Z</time>
      </trkpt>
      <trkpt lat="44.91002" lon="-0.39003">
        <ele>18.3</ele>
        <time>2020-09-10T08:52:32Z</time>
      </trkpt>
      <trkpt lat="44.91002" lon="-0.39">
        <ele>18.3</ele>
        <time>2020-09-10T08:52:34Z</time>
      </trkpt>
      <trkpt lat="44.91001" lon="-0.38998">
        <ele>18.3</ele>
        <time>2020-09-10T08:52:35Z</time>
      </trkpt>
      <trkpt lat="44.91001" lon="-0.38996">
        <ele>18.3</ele>
        <time>2020-09-10T08:52:36Z</time>
      </trkpt>
      <trkpt lat="44.91001" lon="-0.38994">
        <ele>18.3</ele>
        <time>2020-09-10T08:52:37Z</time>
      </trkpt>
      <trkpt lat="44.91001" lon="-0.38991">
        <ele>18.2</ele>
        <time>2020-09-10T08:52:39Z</time>
      </trkpt>
      <trkpt lat="44.91001" lon="-0.3899">
        <ele>18.2</ele>
        <time>2020-09-10T08:52:40Z</time>
      </trkpt>
      <trkpt lat="44.91" lon="-0.38989">
        <ele>18.2</ele>
        <time>2020-09-10T08:52:41Z</time>
      </trkpt>
      <trkpt lat="44.91" lon="-0.38988">
        <ele>18.2</ele>
        <time>2020-09-10T08:52:42Z</time>
      </trkpt>
      <trkpt lat="44.90999" lon="-0.38986">
        <ele>18.2</ele>
        <time>2020-09-10T08:52:44Z</time>
      </trkpt>
      <trkpt lat="44.90998" lon="-0.38984">
        <ele>18.1</ele>
        <time>2020-09-10T08:52:45Z</time>
      </trkpt>
      <trkpt lat="44.90997" lon="-0.38982">
        <ele>18.1</ele>
        <time>2020-09-10T08:52:46Z</time>
      </trkpt>
      <trkpt lat="44.90997" lon="-0.3898">
        <ele>18.1</ele>
        <time>2020-09-10T08:52:48Z</time>
      </trkpt>
      <trkpt lat="44.90996" lon="-0.38979">
        <ele>18.1</ele>
        <time>2020-09-10T08:52:49Z</time>
      </trkpt>
      <trkpt lat="44.90996" lon="-0.38975">
        <ele>18</ele>
        <time>2020-09-10T08:52:50Z</time>
      </trkpt>
      <trkpt lat="44.90995" lon="-0.38972">
        <ele>18</ele>
        <time>2020-09-10T08:52:51Z</time>
      </trkpt>
      <trkpt lat="44.90995" lon="-0.3897">
        <ele>18</ele>
        <time>2020-09-10T08:52:53Z</time>
      </trkpt>
      <trkpt lat="44.90995" lon="-0.38969">
        <ele>18</ele>
        <time>2020-09-10T08:52:54Z</time>
      </trkpt>
      <trkpt lat="44.90995" lon="-0.38967">
        <ele>17.9</ele>
        <time>2020-09-10T08:52:55Z</time>
      </trkpt>
      <trkpt lat="44.90995" lon="-0.38966">
        <ele>17.9</ele>
        <time>2020-09-10T08:52:56Z</time>
      </trkpt>
      <trkpt lat="44.90994" lon="-0.38964">
        <ele>17.9</ele>
        <time>2020-09-10T08:52:57Z</time>
      </trkpt>
      <trkpt lat="44.90994" lon="-0.38961">
        <ele>17.9</ele>
        <time>2020-09-10T08:52:59Z</time>
      </trkpt>
      <trkpt lat="44.90993" lon="-0.38958">
        <ele>17.8</ele>
        <time>2020-09-10T08:53:00Z</time>
      </trkpt>
      <trkpt lat="44.90993" lon="-0.38956">
        <ele>17.8</ele>
        <time>2020-09-10T08:53:01Z</time>
      </trkpt>
      <trkpt lat="44.90992" lon="-0.38955">
        <ele>17.8</ele>
        <time>2020-09-10T08:53:02Z</time>
      </trkpt>
      <trkpt lat="44.90992" lon="-0.38953">
        <ele>17.8</ele>
        <time>2020-09-10T08:53:03Z</time>
      </trkpt>
      <trkpt lat="44.90991" lon="-0.38951">
        <ele>17.8</ele>
        <time>2020-09-10T08:53:04Z</time>
      </trkpt>
      <trkpt lat="44.9099" lon="-0.38948">
        <ele>17.7</ele>
        <time>2020-09-10T08:53:06Z</time>
      </trkpt>
      <trkpt lat="44.90989" lon="-0.38946">
        <ele>17.7</ele>
        <time>2020-09-10T08:53:07Z</time>
      </trkpt>
      <trkpt lat="44.90989" lon="-0.38944">
        <ele>17.7</ele>
        <time>2020-09-10T08:53:08Z</time>
      </trkpt>
      <trkpt lat="44.90987" lon="-0.3894">
        <ele>17.7</ele>
        <time>2020-09-10T08:53:09Z</time>
      </trkpt>
      <trkpt lat="44.90987" lon="-0.38939">
        <ele>17.7</ele>
        <time>2020-09-10T08:53:10Z</time>
      </trkpt>
      <trkpt lat="44.90986" lon="-0.38936">
        <ele>17.7</ele>
        <time>2020-09-10T08:53:11Z</time>
      </trkpt>
      <trkpt lat="44.90985" lon="-0.38933">
        <ele>17.7</ele>
        <time>2020-09-10T08:53:13Z</time>
      </trkpt>
      <trkpt lat="44.90984" lon="-0.38929">
        <ele>17.7</ele>
        <time>2020-09-10T08:53:14Z</time>
      </trkpt>
      <trkpt lat="44.90983" lon="-0.38928">
        <ele>17.6</ele>
        <time>2020-09-10T08:53:15Z</time>
      </trkpt>
      <trkpt lat="44.90983" lon="-0.38926">
        <ele>17.6</ele>
        <time>2020-09-10T08:53:16Z</time>
      </trkpt>
      <trkpt lat="44.90982" lon="-0.38922">
        <ele>17.6</ele>
        <time>2020-09-10T08:53:18Z</time>
      </trkpt>
      <trkpt lat="44.90981" lon="-0.3892">
        <ele>17.6</ele>
        <time>2020-09-10T08:53:19Z</time>
      </trkpt>
      <trkpt lat="44.90981" lon="-0.38916">
        <ele>17.6</ele>
        <time>2020-09-10T08:53:21Z</time>
      </trkpt>
      <trkpt lat="44.9098" lon="-0.38915">
        <ele>17.6</ele>
        <time>2020-09-10T08:53:22Z</time>
      </trkpt>
      <trkpt lat="44.9098" lon="-0.38913">
        <ele>17.6</ele>
        <time>2020-09-10T08:53:23Z</time>
      </trkpt>
      <trkpt lat="44.9098" lon="-0.38912">
        <ele>17.6</ele>
        <time>2020-09-10T08:53:25Z</time>
      </trkpt>
      <trkpt lat="44.9098" lon="-0.3891">
        <ele>17.6</ele>
        <time>2020-09-10T08:53:26Z</time>
      </trkpt>
      <trkpt lat="44.9098" lon="-0.38908">
        <ele>17.6</ele>
        <time>2020-09-10T08:53:27Z</time>
      </trkpt>
      <trkpt lat="44.90979" lon="-0.38907">
        <ele>17.6</ele>
        <time>2020-09-10T08:53:28Z</time>
      </trkpt>
      <trkpt lat="44.90979" lon="-0.38905">
        <ele>17.6</ele>
        <time>2020-09-10T08:53:29Z</time>
      </trkpt>
      <trkpt lat="44.9098" lon="-0.38906">
        <ele>17.6</ele>
        <time>2020-09-10T08:53:30Z</time>
      </trkpt>
      <trkpt lat="44.9098" lon="-0.38902">
        <ele>17.6</ele>
        <time>2020-09-10T08:53:32Z</time>
      </trkpt>
      <trkpt lat="44.90979" lon="-0.389">
        <ele>17.6</ele>
        <time>2020-09-10T08:53:33Z</time>
      </trkpt>
      <trkpt lat="44.90979" lon="-0.38899">
        <ele>17.6</ele>
        <time>2020-09-10T08:53:34Z</time>
      </trkpt>
      <trkpt lat="44.9098" lon="-0.38898">
        <ele>17.6</ele>
        <time>2020-09-10T08:53:35Z</time>
      </trkpt>
      <trkpt lat="44.90982" lon="-0.38896">
        <ele>17.6</ele>
        <time>2020-09-10T08:53:36Z</time>
      </trkpt>
      <trkpt lat="44.90983" lon="-0.38894">
        <ele>17.6</ele>
        <time>2020-09-10T08:53:38Z</time>
      </trkpt>
      <trkpt lat="44.90984" lon="-0.3889">
        <ele>17.6</ele>
        <time>2020-09-10T08:53:39Z</time>
      </trkpt>
      <trkpt lat="44.90985" lon="-0.38888">
        <ele>17.6</ele>
        <time>2020-09-10T08:53:40Z</time>
      </trkpt>
      <trkpt lat="44.90986" lon="-0.38886">
        <ele>17.6</ele>
        <time>2020-09-10T08:53:42Z</time>
      </trkpt>
      <trkpt lat="44.90987" lon="-0.38885">
        <ele>17.6</ele>
        <time>2020-09-10T08:53:43Z</time>
      </trkpt>
      <trkpt lat="44.90989" lon="-0.38885">
        <ele>17.6</ele>
        <time>2020-09-10T08:53:44Z</time>
      </trkpt>
      <trkpt lat="44.9099" lon="-0.38884">
        <ele>17.6</ele>
        <time>2020-09-10T08:53:45Z</time>
      </trkpt>
      <trkpt lat="44.90988" lon="-0.38884">
        <ele>17.6</ele>
        <time>2020-09-10T08:53:47Z</time>
      </trkpt>
      <trkpt lat="44.90988" lon="-0.38885">
        <ele>17.6</ele>
        <time>2020-09-10T08:53:48Z</time>
      </trkpt>
      <trkpt lat="44.90987" lon="-0.38885">
        <ele>17.6</ele>
        <time>2020-09-10T08:53:49Z</time>
      </trkpt>
      <trkpt lat="44.90984" lon="-0.38887">
        <ele>17.6</ele>
        <time>2020-09-10T08:53:50Z</time>
      </trkpt>
      <trkpt lat="44.90983" lon="-0.38888">
        <ele>17.6</ele>
        <time>2020-09-10T08:53:51Z</time>
      </trkpt>
      <trkpt lat="44.90982" lon="-0.3889">
        <ele>17.6</ele>
        <time>2020-09-10T08:53:52Z</time>
      </trkpt>
      <trkpt lat="44.90979" lon="-0.38893">
        <ele>17.7</ele>
        <time>2020-09-10T08:53:54Z</time>
      </trkpt>
      <trkpt lat="44.90976" lon="-0.38897">
        <ele>17.7</ele>
        <time>2020-09-10T08:53:56Z</time>
      </trkpt>
      <trkpt lat="44.90975" lon="-0.38902">
        <ele>17.7</ele>
        <time>2020-09-10T08:53:57Z</time>
      </trkpt>
      <trkpt lat="44.90974" lon="-0.38903">
        <ele>17.7</ele>
        <time>2020-09-10T08:53:58Z</time>
      </trkpt>
      <trkpt lat="44.90973" lon="-0.38907">
        <ele>17.8</ele>
        <time>2020-09-10T08:53:59Z</time>
      </trkpt>
      <trkpt lat="44.90972" lon="-0.38908">
        <ele>17.8</ele>
        <time>2020-09-10T08:54:00Z</time>
      </trkpt>
      <trkpt lat="44.90969" lon="-0.38913">
        <ele>17.8</ele>
        <time>2020-09-10T08:54:02Z</time>
      </trkpt>
      <trkpt lat="44.90968" lon="-0.38915">
        <ele>17.8</ele>
        <time>2020-09-10T08:54:03Z</time>
      </trkpt>
      <trkpt lat="44.90967" lon="-0.38916">
        <ele>17.8</ele>
        <time>2020-09-10T08:54:04Z</time>
      </trkpt>
      <trkpt lat="44.90966" lon="-0.38919">
        <ele>17.8</ele>
        <time>2020-09-10T08:54:05Z</time>
      </trkpt>
      <trkpt lat="44.90965" lon="-0.38921">
        <ele>17.9</ele>
        <time>2020-09-10T08:54:07Z</time>
      </trkpt>
      <trkpt lat="44.90964" lon="-0.38924">
        <ele>17.9</ele>
        <time>2020-09-10T08:54:08Z</time>
      </trkpt>
      <trkpt lat="44.90964" lon="-0.38926">
        <ele>17.9</ele>
        <time>2020-09-10T08:54:09Z</time>
      </trkpt>
      <trkpt lat="44.90963" lon="-0.3893">
        <ele>18</ele>
        <time>2020-09-10T08:54:11Z</time>
      </trkpt>
      <trkpt lat="44.90963" lon="-0.38931">
        <ele>18</ele>
        <time>2020-09-10T08:54:12Z</time>
      </trkpt>
      <trkpt lat="44.90963" lon="-0.38933">
        <ele>18</ele>
        <time>2020-09-10T08:54:13Z</time>
      </trkpt>
      <trkpt lat="44.90962" lon="-0.38935">
        <ele>18</ele>
        <time>2020-09-10T08:54:15Z</time>
      </trkpt>
      <trkpt lat="44.90961" lon="-0.38937">
        <ele>18</ele>
        <time>2020-09-10T08:54:16Z</time>
      </trkpt>
      <trkpt lat="44.9096" lon="-0.38939">
        <ele>18.1</ele>
        <time>2020-09-10T08:54:17Z</time>
      </trkpt>
      <trkpt lat="44.90959" lon="-0.38941">
        <ele>18.1</ele>
        <time>2020-09-10T08:54:18Z</time>
      </trkpt>
      <trkpt lat="44.90959" lon="-0.38942">
        <ele>18.1</ele>
        <time>2020-09-10T08:54:19Z</time>
      </trkpt>
      <trkpt lat="44.90958" lon="-0.38944">
        <ele>18.1</ele>
        <time>2020-09-10T08:54:20Z</time>
      </trkpt>
      <trkpt lat="44.90958" lon="-0.38944">
        <ele>18.1</ele>
        <time>2020-09-10T08:54:21Z</time>
      </trkpt>
      <trkpt lat="44.90957" lon="-0.38945">
        <ele>18.2</ele>
        <time>2020-09-10T08:54:22Z</time>
      </trkpt>
      <trkpt lat="44.90956" lon="-0.38946">
        <ele>18.2</ele>
        <time>2020-09-10T08:54:23Z</time>
      </trkpt>
      <trkpt lat="44.90955" lon="-0.38948">
        <ele>18.2</ele>
        <time>2020-09-10T08:54:24Z</time>
      </trkpt>
      <trkpt lat="44.90954" lon="-0.38949">
        <ele>18.2</ele>
        <time>2020-09-10T08:54:25Z</time>
      </trkpt>
      <trkpt lat="44.90954" lon="-0.3895">
        <ele>18.2</ele>
        <time>2020-09-10T08:54:26Z</time>
      </trkpt>
      <trkpt lat="44.90953" lon="-0.38952">
        <ele>18.2</ele>
        <time>2020-09-10T08:54:28Z</time>
      </trkpt>
      <trkpt lat="44.90952" lon="-0.38954">
        <ele>18.3</ele>
        <time>2020-09-10T08:54:29Z</time>
      </trkpt>
      <trkpt lat="44.90951" lon="-0.38955">
        <ele>18.3</ele>
        <time>2020-09-10T08:54:30Z</time>
      </trkpt>
      <trkpt lat="44.9095" lon="-0.38956">
        <ele>18.3</ele>
        <time>2020-09-10T08:54:31Z</time>
      </trkpt>
      <trkpt lat="44.90949" lon="-0.38957">
        <ele>18.3</ele>
        <time>2020-09-10T08:54:32Z</time>
      </trkpt>
      <trkpt lat="44.90949" lon="-0.38958">
        <ele>18.3</ele>
        <time>2020-09-10T08:54:33Z</time>
      </trkpt>
      <trkpt lat="44.90948" lon="-0.38959">
        <ele>18.3</ele>
        <time>2020-09-10T08:54:34Z</time>
      </trkpt>
      <trkpt lat="44.90947" lon="-0.3896">
        <ele>18.4</ele>
        <time>2020-09-10T08:54:35Z</time>
      </trkpt>
      <trkpt lat="44.90946" lon="-0.38962">
        <ele>18.4</ele>
        <time>2020-09-10T08:54:37Z</time>
      </trkpt>
      <trkpt lat="44.90945" lon="-0.38962">
        <ele>18.4</ele>
        <time>2020-09-10T08:54:38Z</time>
      </trkpt>
      <trkpt lat="44.90945" lon="-0.38963">
        <ele>18.4</ele>
        <time>2020-09-10T08:54:39Z</time>
      </trkpt>
      <trkpt lat="44.90943" lon="-0.38964">
        <ele>18.4</ele>
        <time>2020-09-10T08:54:41Z</time>
      </trkpt>
      <trkpt lat="44.90942" lon="-0.38966">
        <ele>18.5</ele>
        <time>2020-09-10T08:54:42Z</time>
      </trkpt>
      <trkpt lat="44.90941" lon="-0.38967">
        <ele>18.5</ele>
        <time>2020-09-10T08:54:43Z</time>
      </trkpt>
      <trkpt lat="44.90941" lon="-0.38968">
        <ele>18.5</ele>
        <time>2020-09-10T08:54:44Z</time>
      </trkpt>
      <trkpt lat="44.9094" lon="-0.38969">
        <ele>18.5</ele>
        <time>2020-09-10T08:54:45Z</time>
      </trkpt>
      <trkpt lat="44.90939" lon="-0.38969">
        <ele>18.5</ele>
        <time>2020-09-10T08:54:46Z</time>
      </trkpt>
      <trkpt lat="44.90937" lon="-0.3897">
        <ele>18.6</ele>
        <time>2020-09-10T08:54:48Z</time>
      </trkpt>
      <trkpt lat="44.90937" lon="-0.38972">
        <ele>18.6</ele>
        <time>2020-09-10T08:54:49Z</time>
      </trkpt>
      <trkpt lat="44.90936" lon="-0.38973">
        <ele>18.6</ele>
        <time>2020-09-10T08:54:50Z</time>
      </trkpt>
      <trkpt lat="44.90935" lon="-0.38973">
        <ele>18.6</ele>
        <time>2020-09-10T08:54:52Z</time>
      </trkpt>
      <trkpt lat="44.90934" lon="-0.38975">
        <ele>18.6</ele>
        <time>2020-09-10T08:54:53Z</time>
      </trkpt>
      <trkpt lat="44.90933" lon="-0.38976">
        <ele>18.7</ele>
        <time>2020-09-10T08:54:54Z</time>
      </trkpt>
      <trkpt lat="44.90932" lon="-0.38978">
        <ele>18.7</ele>
        <time>2020-09-10T08:54:55Z</time>
      </trkpt>
      <trkpt lat="44.90931" lon="-0.3898">
        <ele>18.7</ele>
        <time>2020-09-10T08:54:57Z</time>
      </trkpt>
      <trkpt lat="44.90932" lon="-0.3898">
        <ele>18.7</ele>
        <time>2020-09-10T08:54:58Z</time>
      </trkpt>
      <trkpt lat="44.90931" lon="-0.38981">
        <ele>18.7</ele>
        <time>2020-09-10T08:54:59Z</time>
      </trkpt>
      <trkpt lat="44.90929" lon="-0.38982">
        <ele>18.8</ele>
        <time>2020-09-10T08:55:00Z</time>
      </trkpt>
      <trkpt lat="44.90926" lon="-0.38984">
        <ele>18.9</ele>
        <time>2020-09-10T08:55:01Z</time>
      </trkpt>
      <trkpt lat="44.90925" lon="-0.38984">
        <ele>18.9</ele>
        <time>2020-09-10T08:55:02Z</time>
      </trkpt>
      <trkpt lat="44.90923" lon="-0.38985">
        <ele>18.9</ele>
        <time>2020-09-10T08:55:03Z</time>
      </trkpt>
      <trkpt lat="44.90921" lon="-0.38986">
        <ele>19</ele>
        <time>2020-09-10T08:55:05Z</time>
      </trkpt>
      <trkpt lat="44.9092" lon="-0.38987">
        <ele>19</ele>
        <time>2020-09-10T08:55:06Z</time>
      </trkpt>
      <trkpt lat="44.90919" lon="-0.38988">
        <ele>19.1</ele>
        <time>2020-09-10T08:55:07Z</time>
      </trkpt>
      <trkpt lat="44.90917" lon="-0.3899">
        <ele>19.1</ele>
        <time>2020-09-10T08:55:09Z</time>
      </trkpt>
      <trkpt lat="44.90916" lon="-0.3899">
        <ele>19.2</ele>
        <time>2020-09-10T08:55:10Z</time>
      </trkpt>
      <trkpt lat="44.90915" lon="-0.38991">
        <ele>19.2</ele>
        <time>2020-09-10T08:55:11Z</time>
      </trkpt>
      <trkpt lat="44.90914" lon="-0.38992">
        <ele>19.2</ele>
        <time>2020-09-10T08:55:12Z</time>
      </trkpt>
      <trkpt lat="44.90913" lon="-0.38993">
        <ele>19.2</ele>
        <time>2020-09-10T08:55:13Z</time>
      </trkpt>
      <trkpt lat="44.90912" lon="-0.38993">
        <ele>19.3</ele>
        <time>2020-09-10T08:55:14Z</time>
      </trkpt>
      <trkpt lat="44.90911" lon="-0.38995">
        <ele>19.3</ele>
        <time>2020-09-10T08:55:15Z</time>
      </trkpt>
      <trkpt lat="44.90909" lon="-0.38997">
        <ele>19.4</ele>
        <time>2020-09-10T08:55:17Z</time>
      </trkpt>
      <trkpt lat="44.90907" lon="-0.38999">
        <ele>19.4</ele>
        <time>2020-09-10T08:55:18Z</time>
      </trkpt>
      <trkpt lat="44.90906" lon="-0.39">
        <ele>19.4</ele>
        <time>2020-09-10T08:55:19Z</time>
      </trkpt>
      <trkpt lat="44.90905" lon="-0.39002">
        <ele>19.5</ele>
        <time>2020-09-10T08:55:21Z</time>
      </trkpt>
      <trkpt lat="44.90904" lon="-0.39003">
        <ele>19.5</ele>
        <time>2020-09-10T08:55:22Z</time>
      </trkpt>
      <trkpt lat="44.90902" lon="-0.39004">
        <ele>19.6</ele>
        <time>2020-09-10T08:55:23Z</time>
      </trkpt>
      <trkpt lat="44.90901" lon="-0.39003">
        <ele>19.6</ele>
        <time>2020-09-10T08:55:24Z</time>
      </trkpt>
      <trkpt lat="44.90899" lon="-0.39005">
        <ele>19.7</ele>
        <time>2020-09-10T08:55:25Z</time>
      </trkpt>
      <trkpt lat="44.90898" lon="-0.39006">
        <ele>19.7</ele>
        <time>2020-09-10T08:55:26Z</time>
      </trkpt>
      <trkpt lat="44.90897" lon="-0.39007">
        <ele>19.7</ele>
        <time>2020-09-10T08:55:27Z</time>
      </trkpt>
      <trkpt lat="44.90894" lon="-0.39008">
        <ele>19.8</ele>
        <time>2020-09-10T08:55:28Z</time>
      </trkpt>
      <trkpt lat="44.90893" lon="-0.39009">
        <ele>19.8</ele>
        <time>2020-09-10T08:55:29Z</time>
      </trkpt>
      <trkpt lat="44.90891" lon="-0.3901">
        <ele>19.8</ele>
        <time>2020-09-10T08:55:30Z</time>
      </trkpt>
      <trkpt lat="44.90889" lon="-0.3901">
        <ele>19.9</ele>
        <time>2020-09-10T08:55:32Z</time>
      </trkpt>
      <trkpt lat="44.90887" lon="-0.39009">
        <ele>20</ele>
        <time>2020-09-10T08:55:33Z</time>
      </trkpt>
      <trkpt lat="44.90886" lon="-0.39009">
        <ele>20</ele>
        <time>2020-09-10T08:55:34Z</time>
      </trkpt>
      <trkpt lat="44.90883" lon="-0.3901">
        <ele>20.1</ele>
        <time>2020-09-10T08:55:35Z</time>
      </trkpt>
      <trkpt lat="44.90882" lon="-0.39011">
        <ele>20.1</ele>
        <time>2020-09-10T08:55:36Z</time>
      </trkpt>
      <trkpt lat="44.90881" lon="-0.39012">
        <ele>20.1</ele>
        <time>2020-09-10T08:55:37Z</time>
      </trkpt>
      <trkpt lat="44.90879" lon="-0.39012">
        <ele>20.2</ele>
        <time>2020-09-10T08:55:38Z</time>
      </trkpt>
      <trkpt lat="44.90878" lon="-0.39013">
        <ele>20.2</ele>
        <time>2020-09-10T08:55:39Z</time>
      </trkpt>
      <trkpt lat="44.90877" lon="-0.39014">
        <ele>20.3</ele>
        <time>2020-09-10T08:55:40Z</time>
      </trkpt>
      <trkpt lat="44.90877" lon="-0.39015">
        <ele>20.3</ele>
        <time>2020-09-10T08:55:41Z</time>
      </trkpt>
      <trkpt lat="44.90876" lon="-0.39015">
        <ele>20.3</ele>
        <time>2020-09-10T08:55:43Z</time>
      </trkpt>
      <trkpt lat="44.90874" lon="-0.39016">
        <ele>20.4</ele>
        <time>2020-09-10T08:55:44Z</time>
      </trkpt>
      <trkpt lat="44.90874" lon="-0.39017">
        <ele>20.4</ele>
        <time>2020-09-10T08:55:45Z</time>
      </trkpt>
      <trkpt lat="44.90874" lon="-0.39017">
        <ele>20.4</ele>
        <time>2020-09-10T08:55:46Z</time>
      </trkpt>
      <trkpt lat="44.90874" lon="-0.39017">
        <ele>20.4</ele>
        <time>2020-09-10T08:55:48Z</time>
      </trkpt>
      <trkpt lat="44.90873" lon="-0.39018">
        <ele>20.4</ele>
        <time>2020-09-10T08:55:49Z</time>
      </trkpt>
      <trkpt lat="44.90872" lon="-0.39018">
        <ele>20.4</ele>
        <time>2020-09-10T08:55:50Z</time>
      </trkpt>
      <trkpt lat="44.90871" lon="-0.39019">
        <ele>20.5</ele>
        <time>2020-09-10T08:55:52Z</time>
      </trkpt>
      <trkpt lat="44.9087" lon="-0.3902">
        <ele>20.5</ele>
        <time>2020-09-10T08:55:53Z</time>
      </trkpt>
      <trkpt lat="44.90869" lon="-0.3902">
        <ele>20.6</ele>
        <time>2020-09-10T08:55:54Z</time>
      </trkpt>
      <trkpt lat="44.90868" lon="-0.39021">
        <ele>20.6</ele>
        <time>2020-09-10T08:55:55Z</time>
      </trkpt>
      <trkpt lat="44.90866" lon="-0.39022">
        <ele>20.7</ele>
        <time>2020-09-10T08:55:56Z</time>
      </trkpt>
      <trkpt lat="44.90865" lon="-0.39023">
        <ele>20.7</ele>
        <time>2020-09-10T08:55:57Z</time>
      </trkpt>
      <trkpt lat="44.90864" lon="-0.39023">
        <ele>20.7</ele>
        <time>2020-09-10T08:55:58Z</time>
      </trkpt>
      <trkpt lat="44.90863" lon="-0.39025">
        <ele>20.8</ele>
        <time>2020-09-10T08:56:00Z</time>
      </trkpt>
      <trkpt lat="44.9086" lon="-0.39027">
        <ele>20.8</ele>
        <time>2020-09-10T08:56:02Z</time>
      </trkpt>
      <trkpt lat="44.90859" lon="-0.39028">
        <ele>20.9</ele>
        <time>2020-09-10T08:56:03Z</time>
      </trkpt>
      <trkpt lat="44.9086" lon="-0.39028">
        <ele>20.9</ele>
        <time>2020-09-10T08:56:04Z</time>
      </trkpt>
      <trkpt lat="44.90858" lon="-0.3903">
        <ele>20.9</ele>
        <time>2020-09-10T08:56:05Z</time>
      </trkpt>
      <trkpt lat="44.90857" lon="-0.3903">
        <ele>21</ele>
        <time>2020-09-10T08:56:07Z</time>
      </trkpt>
      <trkpt lat="44.90855" lon="-0.39031">
        <ele>21</ele>
        <time>2020-09-10T08:56:08Z</time>
      </trkpt>
      <trkpt lat="44.90854" lon="-0.39031">
        <ele>21</ele>
        <time>2020-09-10T08:56:10Z</time>
      </trkpt>
      <trkpt lat="44.90852" lon="-0.39032">
        <ele>21.1</ele>
        <time>2020-09-10T08:56:11Z</time>
      </trkpt>
      <trkpt lat="44.90851" lon="-0.39032">
        <ele>21.1</ele>
        <time>2020-09-10T08:56:12Z</time>
      </trkpt>
      <trkpt lat="44.90848" lon="-0.39031">
        <ele>21.2</ele>
        <time>2020-09-10T08:56:14Z</time>
      </trkpt>
      <trkpt lat="44.90847" lon="-0.39031">
        <ele>21.2</ele>
        <time>2020-09-10T08:56:15Z</time>
      </trkpt>
      <trkpt lat="44.90846" lon="-0.3903">
        <ele>21.2</ele>
        <time>2020-09-10T08:56:17Z</time>
      </trkpt>
      <trkpt lat="44.90844" lon="-0.3903">
        <ele>21.2</ele>
        <time>2020-09-10T08:56:19Z</time>
      </trkpt>
      <trkpt lat="44.90844" lon="-0.3903">
        <ele>21.3</ele>
        <time>2020-09-10T08:56:20Z</time>
      </trkpt>
      <trkpt lat="44.90844" lon="-0.3903">
        <ele>21.3</ele>
        <time>2020-09-10T08:56:22Z</time>
      </trkpt>
      <trkpt lat="44.90844" lon="-0.3903">
        <ele>21.3</ele>
        <time>2020-09-10T08:56:23Z</time>
      </trkpt>
      <trkpt lat="44.90844" lon="-0.39032">
        <ele>21.3</ele>
        <time>2020-09-10T08:56:25Z</time>
      </trkpt>
      <trkpt lat="44.90843" lon="-0.39033">
        <ele>21.3</ele>
        <time>2020-09-10T08:56:26Z</time>
      </trkpt>
      <trkpt lat="44.90842" lon="-0.39036">
        <ele>21.4</ele>
        <time>2020-09-10T08:56:27Z</time>
      </trkpt>
      <trkpt lat="44.90842" lon="-0.39037">
        <ele>21.4</ele>
        <time>2020-09-10T08:56:29Z</time>
      </trkpt>
      <trkpt lat="44.90841" lon="-0.39038">
        <ele>21.4</ele>
        <time>2020-09-10T08:56:30Z</time>
      </trkpt>
      <trkpt lat="44.9084" lon="-0.3904">
        <ele>21.4</ele>
        <time>2020-09-10T08:56:31Z</time>
      </trkpt>
      <trkpt lat="44.9084" lon="-0.39042">
        <ele>21.5</ele>
        <time>2020-09-10T08:56:33Z</time>
      </trkpt>
      <trkpt lat="44.90839" lon="-0.39042">
        <ele>21.5</ele>
        <time>2020-09-10T08:56:34Z</time>
      </trkpt>
      <trkpt lat="44.90838" lon="-0.39043">
        <ele>21.5</ele>
        <time>2020-09-10T08:56:35Z</time>
      </trkpt>
      <trkpt lat="44.90836" lon="-0.39045">
        <ele>21.6</ele>
        <time>2020-09-10T08:56:37Z</time>
      </trkpt>
      <trkpt lat="44.90834" lon="-0.39047">
        <ele>21.7</ele>
        <time>2020-09-10T08:56:38Z</time>
      </trkpt>
      <trkpt lat="44.90834" lon="-0.39047">
        <ele>21.7</ele>
        <time>2020-09-10T08:56:39Z</time>
      </trkpt>
      <trkpt lat="44.90832" lon="-0.39049">
        <ele>21.7</ele>
        <time>2020-09-10T08:56:41Z</time>
      </trkpt>
      <trkpt lat="44.9083" lon="-0.3905">
        <ele>21.8</ele>
        <time>2020-09-10T08:56:42Z</time>
      </trkpt>
      <trkpt lat="44.90829" lon="-0.39051">
        <ele>21.8</ele>
        <time>2020-09-10T08:56:43Z</time>
      </trkpt>
      <trkpt lat="44.90828" lon="-0.39051">
        <ele>21.9</ele>
        <time>2020-09-10T08:56:44Z</time>
      </trkpt>
      <trkpt lat="44.90826" lon="-0.39053">
        <ele>21.9</ele>
        <time>2020-09-10T08:56:46Z</time>
      </trkpt>
      <trkpt lat="44.90825" lon="-0.39054">
        <ele>22</ele>
        <time>2020-09-10T08:56:48Z</time>
      </trkpt>
      <trkpt lat="44.90824" lon="-0.39055">
        <ele>22</ele>
        <time>2020-09-10T08:56:49Z</time>
      </trkpt>
      <trkpt lat="44.90822" lon="-0.39056">
        <ele>22.1</ele>
        <time>2020-09-10T08:56:51Z</time>
      </trkpt>
      <trkpt lat="44.90821" lon="-0.39057">
        <ele>22.1</ele>
        <time>2020-09-10T08:56:52Z</time>
      </trkpt>
      <trkpt lat="44.90819" lon="-0.39059">
        <ele>22.2</ele>
        <time>2020-09-10T08:56:54Z</time>
      </trkpt>
      <trkpt lat="44.90817" lon="-0.39059">
        <ele>22.2</ele>
        <time>2020-09-10T08:56:55Z</time>
      </trkpt>
      <trkpt lat="44.90816" lon="-0.3906">
        <ele>22.3</ele>
        <time>2020-09-10T08:56:56Z</time>
      </trkpt>
      <trkpt lat="44.90815" lon="-0.39061">
        <ele>22.3</ele>
        <time>2020-09-10T08:56:57Z</time>
      </trkpt>
      <trkpt lat="44.90814" lon="-0.39062">
        <ele>22.4</ele>
        <time>2020-09-10T08:56:59Z</time>
      </trkpt>
      <trkpt lat="44.90812" lon="-0.39063">
        <ele>22.4</ele>
        <time>2020-09-10T08:57:00Z</time>
      </trkpt>
      <trkpt lat="44.90811" lon="-0.39063">
        <ele>22.5</ele>
        <time>2020-09-10T08:57:01Z</time>
      </trkpt>
      <trkpt lat="44.9081" lon="-0.39064">
        <ele>22.5</ele>
        <time>2020-09-10T08:57:02Z</time>
      </trkpt>
      <trkpt lat="44.90808" lon="-0.39065">
        <ele>22.6</ele>
        <time>2020-09-10T08:57:03Z</time>
      </trkpt>
      <trkpt lat="44.90807" lon="-0.39066">
        <ele>22.7</ele>
        <time>2020-09-10T08:57:04Z</time>
      </trkpt>
      <trkpt lat="44.90805" lon="-0.39067">
        <ele>22.7</ele>
        <time>2020-09-10T08:57:06Z</time>
      </trkpt>
      <trkpt lat="44.90804" lon="-0.39068">
        <ele>22.8</ele>
        <time>2020-09-10T08:57:08Z</time>
      </trkpt>
      <trkpt lat="44.90802" lon="-0.39069">
        <ele>22.9</ele>
        <time>2020-09-10T08:57:09Z</time>
      </trkpt>
      <trkpt lat="44.908" lon="-0.39071">
        <ele>23</ele>
        <time>2020-09-10T08:57:10Z</time>
      </trkpt>
      <trkpt lat="44.90799" lon="-0.39072">
        <ele>23</ele>
        <time>2020-09-10T08:57:11Z</time>
      </trkpt>
      <trkpt lat="44.90797" lon="-0.39073">
        <ele>23.1</ele>
        <time>2020-09-10T08:57:12Z</time>
      </trkpt>
      <trkpt lat="44.90796" lon="-0.39074">
        <ele>23.1</ele>
        <time>2020-09-10T08:57:13Z</time>
      </trkpt>
      <trkpt lat="44.90795" lon="-0.39075">
        <ele>23.2</ele>
        <time>2020-09-10T08:57:14Z</time>
      </trkpt>
      <trkpt lat="44.90794" lon="-0.39075">
        <ele>23.2</ele>
        <time>2020-09-10T08:57:15Z</time>
      </trkpt>
      <trkpt lat="44.90793" lon="-0.39076">
        <ele>23.2</ele>
        <time>2020-09-10T08:57:16Z</time>
      </trkpt>
      <trkpt lat="44.90792" lon="-0.39077">
        <ele>23.3</ele>
        <time>2020-09-10T08:57:18Z</time>
      </trkpt>
      <trkpt lat="44.90791" lon="-0.39078">
        <ele>23.3</ele>
        <time>2020-09-10T08:57:19Z</time>
      </trkpt>
      <trkpt lat="44.90791" lon="-0.39078">
        <ele>23.3</ele>
        <time>2020-09-10T08:57:20Z</time>
      </trkpt>
      <trkpt lat="44.9079" lon="-0.39079">
        <ele>23.4</ele>
        <time>2020-09-10T08:57:21Z</time>
      </trkpt>
      <trkpt lat="44.90788" lon="-0.3908">
        <ele>23.5</ele>
        <time>2020-09-10T08:57:22Z</time>
      </trkpt>
      <trkpt lat="44.90787" lon="-0.3908">
        <ele>23.5</ele>
        <time>2020-09-10T08:57:23Z</time>
      </trkpt>
      <trkpt lat="44.90786" lon="-0.39081">
        <ele>23.6</ele>
        <time>2020-09-10T08:57:24Z</time>
      </trkpt>
      <trkpt lat="44.90784" lon="-0.39082">
        <ele>23.7</ele>
        <time>2020-09-10T08:57:26Z</time>
      </trkpt>
      <trkpt lat="44.90782" lon="-0.39083">
        <ele>23.8</ele>
        <time>2020-09-10T08:57:27Z</time>
      </trkpt>
      <trkpt lat="44.90781" lon="-0.39084">
        <ele>23.8</ele>
        <time>2020-09-10T08:57:28Z</time>
      </trkpt>
      <trkpt lat="44.90778" lon="-0.39084">
        <ele>23.9</ele>
        <time>2020-09-10T08:57:30Z</time>
      </trkpt>
      <trkpt lat="44.90777" lon="-0.39085">
        <ele>24</ele>
        <time>2020-09-10T08:57:31Z</time>
      </trkpt>
      <trkpt lat="44.90776" lon="-0.39085">
        <ele>24.1</ele>
        <time>2020-09-10T08:57:32Z</time>
      </trkpt>
      <trkpt lat="44.90772" lon="-0.39086">
        <ele>24.3</ele>
        <time>2020-09-10T08:57:33Z</time>
      </trkpt>
      <trkpt lat="44.90771" lon="-0.39087">
        <ele>24.4</ele>
        <time>2020-09-10T08:57:34Z</time>
      </trkpt>
      <trkpt lat="44.90768" lon="-0.39087">
        <ele>24.5</ele>
        <time>2020-09-10T08:57:36Z</time>
      </trkpt>
      <trkpt lat="44.90768" lon="-0.39087">
        <ele>24.5</ele>
        <time>2020-09-10T08:57:37Z</time>
      </trkpt>
      <trkpt lat="44.90767" lon="-0.39087">
        <ele>24.6</ele>
        <time>2020-09-10T08:57:38Z</time>
      </trkpt>
      <trkpt lat="44.90764" lon="-0.39088">
        <ele>24.7</ele>
        <time>2020-09-10T08:57:39Z</time>
      </trkpt>
      <trkpt lat="44.90763" lon="-0.39088">
        <ele>24.8</ele>
        <time>2020-09-10T08:57:40Z</time>
      </trkpt>
      <trkpt lat="44.90761" lon="-0.39089">
        <ele>24.9</ele>
        <time>2020-09-10T08:57:41Z</time>
      </trkpt>
      <trkpt lat="44.9076" lon="-0.39089">
        <ele>24.9</ele>
        <time>2020-09-10T08:57:43Z</time>
      </trkpt>
      <trkpt lat="44.90759" lon="-0.3909">
        <ele>25</ele>
        <time>2020-09-10T08:57:44Z</time>
      </trkpt>
      <trkpt lat="44.90757" lon="-0.39091">
        <ele>25.1</ele>
        <time>2020-09-10T08:57:45Z</time>
      </trkpt>
      <trkpt lat="44.90756" lon="-0.39092">
        <ele>25.1</ele>
        <time>2020-09-10T08:57:46Z</time>
      </trkpt>
      <trkpt lat="44.90754" lon="-0.39093">
        <ele>25.2</ele>
        <time>2020-09-10T08:57:47Z</time>
      </trkpt>
      <trkpt lat="44.90753" lon="-0.39094">
        <ele>25.2</ele>
        <time>2020-09-10T08:57:48Z</time>
      </trkpt>
      <trkpt lat="44.90752" lon="-0.39094">
        <ele>25.3</ele>
        <time>2020-09-10T08:57:49Z</time>
      </trkpt>
      <trkpt lat="44.90751" lon="-0.39095">
        <ele>25.3</ele>
        <time>2020-09-10T08:57:51Z</time>
      </trkpt>
      <trkpt lat="44.9075" lon="-0.39096">
        <ele>25.3</ele>
        <time>2020-09-10T08:57:52Z</time>
      </trkpt>
      <trkpt lat="44.9075" lon="-0.39096">
        <ele>25.4</ele>
        <time>2020-09-10T08:57:53Z</time>
      </trkpt>
      <trkpt lat="44.90748" lon="-0.39097">
        <ele>25.4</ele>
        <time>2020-09-10T08:57:54Z</time>
      </trkpt>
      <trkpt lat="44.90747" lon="-0.39098">
        <ele>25.4</ele>
        <time>2020-09-10T08:57:56Z</time>
      </trkpt>
      <trkpt lat="44.90747" lon="-0.39098">
        <ele>25.4</ele>
        <time>2020-09-10T08:57:57Z</time>
      </trkpt>
      <trkpt lat="44.90746" lon="-0.39099">
        <ele>25.5</ele>
        <time>2020-09-10T08:57:58Z</time>
      </trkpt>
      <trkpt lat="44.90745" lon="-0.391">
        <ele>25.5</ele>
        <time>2020-09-10T08:57:59Z</time>
      </trkpt>
      <trkpt lat="44.90744" lon="-0.391">
        <ele>25.5</ele>
        <time>2020-09-10T08:58:00Z</time>
      </trkpt>
      <trkpt lat="44.90743" lon="-0.39101">
        <ele>25.5</ele>
        <time>2020-09-10T08:58:02Z</time>
      </trkpt>
      <trkpt lat="44.90742" lon="-0.39101">
        <ele>25.5</ele>
        <time>2020-09-10T08:58:03Z</time>
      </trkpt>
      <trkpt lat="44.90742" lon="-0.39101">
        <ele>25.5</ele>
        <time>2020-09-10T08:58:04Z</time>
      </trkpt>
      <trkpt lat="44.90741" lon="-0.39101">
        <ele>25.6</ele>
        <time>2020-09-10T08:58:05Z</time>
      </trkpt>
      <trkpt lat="44.90741" lon="-0.39101">
        <ele>25.6</ele>
        <time>2020-09-10T08:58:06Z</time>
      </trkpt>
      <trkpt lat="44.90739" lon="-0.39102">
        <ele>25.6</ele>
        <time>2020-09-10T08:58:07Z</time>
      </trkpt>
      <trkpt lat="44.90738" lon="-0.39103">
        <ele>25.6</ele>
        <time>2020-09-10T08:58:08Z</time>
      </trkpt>
      <trkpt lat="44.90737" lon="-0.39103">
        <ele>25.7</ele>
        <time>2020-09-10T08:58:09Z</time>
      </trkpt>
      <trkpt lat="44.90737" lon="-0.39104">
        <ele>25.7</ele>
        <time>2020-09-10T08:58:10Z</time>
      </trkpt>
      <trkpt lat="44.90734" lon="-0.39106">
        <ele>25.8</ele>
        <time>2020-09-10T08:58:12Z</time>
      </trkpt>
      <trkpt lat="44.90733" lon="-0.39107">
        <ele>25.8</ele>
        <time>2020-09-10T08:58:13Z</time>
      </trkpt>
      <trkpt lat="44.90731" lon="-0.39108">
        <ele>25.9</ele>
        <time>2020-09-10T08:58:14Z</time>
      </trkpt>
      <trkpt lat="44.90729" lon="-0.39109">
        <ele>25.9</ele>
        <time>2020-09-10T08:58:15Z</time>
      </trkpt>
      <trkpt lat="44.90729" lon="-0.3911">
        <ele>26</ele>
        <time>2020-09-10T08:58:16Z</time>
      </trkpt>
      <trkpt lat="44.90727" lon="-0.39111">
        <ele>26</ele>
        <time>2020-09-10T08:58:18Z</time>
      </trkpt>
      <trkpt lat="44.90726" lon="-0.39112">
        <ele>26.1</ele>
        <time>2020-09-10T08:58:19Z</time>
      </trkpt>
      <trkpt lat="44.90723" lon="-0.39114">
        <ele>26.2</ele>
        <time>2020-09-10T08:58:20Z</time>
      </trkpt>
      <trkpt lat="44.90722" lon="-0.39115">
        <ele>26.2</ele>
        <time>2020-09-10T08:58:21Z</time>
      </trkpt>
      <trkpt lat="44.90721" lon="-0.39116">
        <ele>26.3</ele>
        <time>2020-09-10T08:58:22Z</time>
      </trkpt>
      <trkpt lat="44.90719" lon="-0.39116">
        <ele>26.3</ele>
        <time>2020-09-10T08:58:23Z</time>
      </trkpt>
      <trkpt lat="44.90718" lon="-0.39116">
        <ele>26.3</ele>
        <time>2020-09-10T08:58:24Z</time>
      </trkpt>
      <trkpt lat="44.90717" lon="-0.39117">
        <ele>26.4</ele>
        <time>2020-09-10T08:58:25Z</time>
      </trkpt>
      <trkpt lat="44.90717" lon="-0.39117">
        <ele>26.4</ele>
        <time>2020-09-10T08:58:27Z</time>
      </trkpt>
      <trkpt lat="44.90716" lon="-0.39117">
        <ele>26.4</ele>
        <time>2020-09-10T08:58:28Z</time>
      </trkpt>
      <trkpt lat="44.90716" lon="-0.39118">
        <ele>26.4</ele>
        <time>2020-09-10T08:58:29Z</time>
      </trkpt>
      <trkpt lat="44.90715" lon="-0.39118">
        <ele>26.4</ele>
        <time>2020-09-10T08:58:30Z</time>
      </trkpt>
      <trkpt lat="44.90714" lon="-0.39119">
        <ele>26.5</ele>
        <time>2020-09-10T08:58:31Z</time>
      </trkpt>
      <trkpt lat="44.90713" lon="-0.39119">
        <ele>26.5</ele>
        <time>2020-09-10T08:58:32Z</time>
      </trkpt>
      <trkpt lat="44.90712" lon="-0.39118">
        <ele>26.5</ele>
        <time>2020-09-10T08:58:33Z</time>
      </trkpt>
      <trkpt lat="44.90711" lon="-0.39119">
        <ele>26.6</ele>
        <time>2020-09-10T08:58:35Z</time>
      </trkpt>
      <trkpt lat="44.9071" lon="-0.39119">
        <ele>26.6</ele>
        <time>2020-09-10T08:58:37Z</time>
      </trkpt>
      <trkpt lat="44.90709" lon="-0.3912">
        <ele>26.7</ele>
        <time>2020-09-10T08:58:38Z</time>
      </trkpt>
      <trkpt lat="44.90708" lon="-0.39121">
        <ele>26.7</ele>
        <time>2020-09-10T08:58:39Z</time>
      </trkpt>
      <trkpt lat="44.90707" lon="-0.39122">
        <ele>26.7</ele>
        <time>2020-09-10T08:58:40Z</time>
      </trkpt>
      <trkpt lat="44.90705" lon="-0.39124">
        <ele>26.8</ele>
        <time>2020-09-10T08:58:41Z</time>
      </trkpt>
      <trkpt lat="44.90704" lon="-0.39125">
        <ele>26.8</ele>
        <time>2020-09-10T08:58:43Z</time>
      </trkpt>
      <trkpt lat="44.90704" lon="-0.39125">
        <ele>26.8</ele>
        <time>2020-09-10T08:58:44Z</time>
      </trkpt>
      <trkpt lat="44.90703" lon="-0.39125">
        <ele>26.8</ele>
        <time>2020-09-10T08:58:45Z</time>
      </trkpt>
      <trkpt lat="44.90703" lon="-0.39125">
        <ele>26.8</ele>
        <time>2020-09-10T08:58:46Z</time>
      </trkpt>
      <trkpt lat="44.90703" lon="-0.39126">
        <ele>26.8</ele>
        <time>2020-09-10T08:58:48Z</time>
      </trkpt>
      <trkpt lat="44.90702" lon="-0.39126">
        <ele>26.9</ele>
        <time>2020-09-10T08:58:49Z</time>
      </trkpt>
      <trkpt lat="44.90701" lon="-0.39127">
        <ele>26.9</ele>
        <time>2020-09-10T08:58:50Z</time>
      </trkpt>
      <trkpt lat="44.907" lon="-0.39128">
        <ele>26.9</ele>
        <time>2020-09-10T08:58:51Z</time>
      </trkpt>
      <trkpt lat="44.90697" lon="-0.39131">
        <ele>27</ele>
        <time>2020-09-10T08:58:53Z</time>
      </trkpt>
      <trkpt lat="44.90696" lon="-0.39132">
        <ele>27</ele>
        <time>2020-09-10T08:58:54Z</time>
      </trkpt>
      <trkpt lat="44.90695" lon="-0.39133">
        <ele>27</ele>
        <time>2020-09-10T08:58:55Z</time>
      </trkpt>
      <trkpt lat="44.90695" lon="-0.39133">
        <ele>27.1</ele>
        <time>2020-09-10T08:58:56Z</time>
      </trkpt>
      <trkpt lat="44.90694" lon="-0.39135">
        <ele>27.1</ele>
        <time>2020-09-10T08:58:57Z</time>
      </trkpt>
      <trkpt lat="44.90694" lon="-0.39136">
        <ele>27.1</ele>
        <time>2020-09-10T08:58:59Z</time>
      </trkpt>
      <trkpt lat="44.90693" lon="-0.39137">
        <ele>27.1</ele>
        <time>2020-09-10T08:59:00Z</time>
      </trkpt>
      <trkpt lat="44.90692" lon="-0.39138">
        <ele>27.2</ele>
        <time>2020-09-10T08:59:01Z</time>
      </trkpt>
      <trkpt lat="44.90691" lon="-0.39139">
        <ele>27.2</ele>
        <time>2020-09-10T08:59:02Z</time>
      </trkpt>
      <trkpt lat="44.9069" lon="-0.3914">
        <ele>27.2</ele>
        <time>2020-09-10T08:59:03Z</time>
      </trkpt>
      <trkpt lat="44.90689" lon="-0.39141">
        <ele>27.3</ele>
        <time>2020-09-10T08:59:04Z</time>
      </trkpt>
      <trkpt lat="44.90688" lon="-0.39142">
        <ele>27.3</ele>
        <time>2020-09-10T08:59:06Z</time>
      </trkpt>
      <trkpt lat="44.90687" lon="-0.39143">
        <ele>27.3</ele>
        <time>2020-09-10T08:59:07Z</time>
      </trkpt>
      <trkpt lat="44.90686" lon="-0.39144">
        <ele>27.3</ele>
        <time>2020-09-10T08:59:08Z</time>
      </trkpt>
      <trkpt lat="44.90685" lon="-0.39145">
        <ele>27.4</ele>
        <time>2020-09-10T08:59:10Z</time>
      </trkpt>
      <trkpt lat="44.90684" lon="-0.39146">
        <ele>27.4</ele>
        <time>2020-09-10T08:59:11Z</time>
      </trkpt>
      <trkpt lat="44.90682" lon="-0.39148">
        <ele>27.5</ele>
        <time>2020-09-10T08:59:13Z</time>
      </trkpt>
      <trkpt lat="44.90681" lon="-0.39149">
        <ele>27.5</ele>
        <time>2020-09-10T08:59:14Z</time>
      </trkpt>
      <trkpt lat="44.9068" lon="-0.3915">
        <ele>27.5</ele>
        <time>2020-09-10T08:59:15Z</time>
      </trkpt>
      <trkpt lat="44.90679" lon="-0.39151">
        <ele>27.5</ele>
        <time>2020-09-10T08:59:16Z</time>
      </trkpt>
      <trkpt lat="44.90677" lon="-0.39152">
        <ele>27.6</ele>
        <time>2020-09-10T08:59:17Z</time>
      </trkpt>
      <trkpt lat="44.90677" lon="-0.3915">
        <ele>27.6</ele>
        <time>2020-09-10T08:59:18Z</time>
      </trkpt>
      <trkpt lat="44.90674" lon="-0.39154">
        <ele>27.7</ele>
        <time>2020-09-10T08:59:20Z</time>
      </trkpt>
      <trkpt lat="44.90672" lon="-0.39158">
        <ele>27.7</ele>
        <time>2020-09-10T08:59:21Z</time>
      </trkpt>
      <trkpt lat="44.9067" lon="-0.39162">
        <ele>27.8</ele>
        <time>2020-09-10T08:59:22Z</time>
      </trkpt>
      <trkpt lat="44.90669" lon="-0.39163">
        <ele>27.8</ele>
        <time>2020-09-10T08:59:23Z</time>
      </trkpt>
      <trkpt lat="44.90667" lon="-0.39166">
        <ele>27.8</ele>
        <time>2020-09-10T08:59:25Z</time>
      </trkpt>
      <trkpt lat="44.90667" lon="-0.39167">
        <ele>27.8</ele>
        <time>2020-09-10T08:59:26Z</time>
      </trkpt>
      <trkpt lat="44.90666" lon="-0.39169">
        <ele>27.9</ele>
        <time>2020-09-10T08:59:27Z</time>
      </trkpt>
      <trkpt lat="44.90665" lon="-0.3917">
        <ele>27.9</ele>
        <time>2020-09-10T08:59:28Z</time>
      </trkpt>
      <trkpt lat="44.90664" lon="-0.39171">
        <ele>27.9</ele>
        <time>2020-09-10T08:59:29Z</time>
      </trkpt>
      <trkpt lat="44.90663" lon="-0.39172">
        <ele>27.9</ele>
        <time>2020-09-10T08:59:30Z</time>
      </trkpt>
      <trkpt lat="44.90663" lon="-0.39173">
        <ele>27.9</ele>
        <time>2020-09-10T08:59:31Z</time>
      </trkpt>
      <trkpt lat="44.90661" lon="-0.39174">
        <ele>27.9</ele>
        <time>2020-09-10T08:59:33Z</time>
      </trkpt>
      <trkpt lat="44.9066" lon="-0.39175">
        <ele>27.9</ele>
        <time>2020-09-10T08:59:34Z</time>
      </trkpt>
      <trkpt lat="44.9066" lon="-0.39176">
        <ele>28</ele>
        <time>2020-09-10T08:59:35Z</time>
      </trkpt>
      <trkpt lat="44.90659" lon="-0.39177">
        <ele>28</ele>
        <time>2020-09-10T08:59:36Z</time>
      </trkpt>
      <trkpt lat="44.90659" lon="-0.39177">
        <ele>28</ele>
        <time>2020-09-10T08:59:37Z</time>
      </trkpt>
      <trkpt lat="44.90659" lon="-0.39177">
        <ele>28</ele>
        <time>2020-09-10T08:59:39Z</time>
      </trkpt>
      <trkpt lat="44.90658" lon="-0.39178">
        <ele>28</ele>
        <time>2020-09-10T08:59:40Z</time>
      </trkpt>
      <trkpt lat="44.90657" lon="-0.3918">
        <ele>28</ele>
        <time>2020-09-10T08:59:41Z</time>
      </trkpt>
      <trkpt lat="44.90657" lon="-0.3918">
        <ele>28</ele>
        <time>2020-09-10T08:59:42Z</time>
      </trkpt>
      <trkpt lat="44.90656" lon="-0.39181">
        <ele>28</ele>
        <time>2020-09-10T08:59:43Z</time>
      </trkpt>
      <trkpt lat="44.90655" lon="-0.39182">
        <ele>28.1</ele>
        <time>2020-09-10T08:59:44Z</time>
      </trkpt>
      <trkpt lat="44.90654" lon="-0.39184">
        <ele>28.1</ele>
        <time>2020-09-10T08:59:45Z</time>
      </trkpt>
      <trkpt lat="44.90653" lon="-0.39185">
        <ele>28.1</ele>
        <time>2020-09-10T08:59:47Z</time>
      </trkpt>
      <trkpt lat="44.90651" lon="-0.39186">
        <ele>28.1</ele>
        <time>2020-09-10T08:59:48Z</time>
      </trkpt>
      <trkpt lat="44.9065" lon="-0.39187">
        <ele>28.1</ele>
        <time>2020-09-10T08:59:49Z</time>
      </trkpt>
      <trkpt lat="44.90648" lon="-0.39189">
        <ele>28.2</ele>
        <time>2020-09-10T08:59:50Z</time>
      </trkpt>
      <trkpt lat="44.90647" lon="-0.3919">
        <ele>28.2</ele>
        <time>2020-09-10T08:59:51Z</time>
      </trkpt>
      <trkpt lat="44.90646" lon="-0.39191">
        <ele>28.2</ele>
        <time>2020-09-10T08:59:52Z</time>
      </trkpt>
      <trkpt lat="44.90645" lon="-0.39192">
        <ele>28.2</ele>
        <time>2020-09-10T08:59:54Z</time>
      </trkpt>
      <trkpt lat="44.90643" lon="-0.39193">
        <ele>28.2</ele>
        <time>2020-09-10T08:59:55Z</time>
      </trkpt>
      <trkpt lat="44.90642" lon="-0.39193">
        <ele>28.3</ele>
        <time>2020-09-10T08:59:56Z</time>
      </trkpt>
      <trkpt lat="44.90639" lon="-0.39196">
        <ele>28.4</ele>
        <time>2020-09-10T08:59:58Z</time>
      </trkpt>
      <trkpt lat="44.90639" lon="-0.39197">
        <ele>28.5</ele>
        <time>2020-09-10T08:59:59Z</time>
      </trkpt>
      <trkpt lat="44.90638" lon="-0.39199">
        <ele>28.5</ele>
        <time>2020-09-10T09:00:00Z</time>
      </trkpt>
      <trkpt lat="44.90636" lon="-0.39201">
        <ele>28.7</ele>
        <time>2020-09-10T09:00:02Z</time>
      </trkpt>
      <trkpt lat="44.90636" lon="-0.39202">
        <ele>28.7</ele>
        <time>2020-09-10T09:00:03Z</time>
      </trkpt>
      <trkpt lat="44.90635" lon="-0.39202">
        <ele>28.8</ele>
        <time>2020-09-10T09:00:04Z</time>
      </trkpt>
      <trkpt lat="44.90633" lon="-0.39203">
        <ele>28.9</ele>
        <time>2020-09-10T09:00:05Z</time>
      </trkpt>
      <trkpt lat="44.90632" lon="-0.39204">
        <ele>29</ele>
        <time>2020-09-10T09:00:06Z</time>
      </trkpt>
      <trkpt lat="44.90632" lon="-0.39204">
        <ele>29</ele>
        <time>2020-09-10T09:00:07Z</time>
      </trkpt>
      <trkpt lat="44.90631" lon="-0.39205">
        <ele>29.1</ele>
        <time>2020-09-10T09:00:08Z</time>
      </trkpt>
      <trkpt lat="44.90629" lon="-0.39206">
        <ele>29.2</ele>
        <time>2020-09-10T09:00:10Z</time>
      </trkpt>
      <trkpt lat="44.90628" lon="-0.39207">
        <ele>29.3</ele>
        <time>2020-09-10T09:00:11Z</time>
      </trkpt>
      <trkpt lat="44.90626" lon="-0.39209">
        <ele>29.2</ele>
        <time>2020-09-10T09:00:12Z</time>
      </trkpt>
      <trkpt lat="44.90625" lon="-0.39211">
        <ele>29.2</ele>
        <time>2020-09-10T09:00:13Z</time>
      </trkpt>
      <trkpt lat="44.90624" lon="-0.39212">
        <ele>29.1</ele>
        <time>2020-09-10T09:00:15Z</time>
      </trkpt>
      <trkpt lat="44.90623" lon="-0.39213">
        <ele>29.1</ele>
        <time>2020-09-10T09:00:16Z</time>
      </trkpt>
      <trkpt lat="44.90621" lon="-0.39214">
        <ele>29</ele>
        <time>2020-09-10T09:00:17Z</time>
      </trkpt>
      <trkpt lat="44.9062" lon="-0.39215">
        <ele>29</ele>
        <time>2020-09-10T09:00:18Z</time>
      </trkpt>
      <trkpt lat="44.90619" lon="-0.39216">
        <ele>29</ele>
        <time>2020-09-10T09:00:19Z</time>
      </trkpt>
      <trkpt lat="44.90618" lon="-0.39217">
        <ele>28.9</ele>
        <time>2020-09-10T09:00:20Z</time>
      </trkpt>
      <trkpt lat="44.90617" lon="-0.39218">
        <ele>28.9</ele>
        <time>2020-09-10T09:00:21Z</time>
      </trkpt>
      <trkpt lat="44.90616" lon="-0.39218">
        <ele>28.8</ele>
        <time>2020-09-10T09:00:22Z</time>
      </trkpt>
      <trkpt lat="44.90614" lon="-0.39219">
        <ele>28.8</ele>
        <time>2020-09-10T09:00:23Z</time>
      </trkpt>
      <trkpt lat="44.90613" lon="-0.3922">
        <ele>28.7</ele>
        <time>2020-09-10T09:00:25Z</time>
      </trkpt>
      <trkpt lat="44.90612" lon="-0.39221">
        <ele>28.7</ele>
        <time>2020-09-10T09:00:26Z</time>
      </trkpt>
      <trkpt lat="44.90611" lon="-0.39221">
        <ele>28.7</ele>
        <time>2020-09-10T09:00:27Z</time>
      </trkpt>
      <trkpt lat="44.9061" lon="-0.39222">
        <ele>28.6</ele>
        <time>2020-09-10T09:00:28Z</time>
      </trkpt>
      <trkpt lat="44.9061" lon="-0.39222">
        <ele>28.6</ele>
        <time>2020-09-10T09:00:29Z</time>
      </trkpt>
      <trkpt lat="44.90609" lon="-0.39223">
        <ele>28.6</ele>
        <time>2020-09-10T09:00:30Z</time>
      </trkpt>
      <trkpt lat="44.90608" lon="-0.39223">
        <ele>28.6</ele>
        <time>2020-09-10T09:00:31Z</time>
      </trkpt>
      <trkpt lat="44.90606" lon="-0.39224">
        <ele>28.5</ele>
        <time>2020-09-10T09:00:33Z</time>
      </trkpt>
      <trkpt lat="44.90605" lon="-0.39226">
        <ele>28.5</ele>
        <time>2020-09-10T09:00:34Z</time>
      </trkpt>
      <trkpt lat="44.90604" lon="-0.39227">
        <ele>28.4</ele>
        <time>2020-09-10T09:00:35Z</time>
      </trkpt>
      <trkpt lat="44.90603" lon="-0.39228">
        <ele>28.4</ele>
        <time>2020-09-10T09:00:36Z</time>
      </trkpt>
      <trkpt lat="44.90602" lon="-0.39229">
        <ele>28.3</ele>
        <time>2020-09-10T09:00:37Z</time>
      </trkpt>
      <trkpt lat="44.90601" lon="-0.3923">
        <ele>28.3</ele>
        <time>2020-09-10T09:00:39Z</time>
      </trkpt>
      <trkpt lat="44.906" lon="-0.3923">
        <ele>28.3</ele>
        <time>2020-09-10T09:00:40Z</time>
      </trkpt>
      <trkpt lat="44.90599" lon="-0.39231">
        <ele>28.2</ele>
        <time>2020-09-10T09:00:41Z</time>
      </trkpt>
      <trkpt lat="44.90598" lon="-0.39232">
        <ele>28.2</ele>
        <time>2020-09-10T09:00:42Z</time>
      </trkpt>
      <trkpt lat="44.90597" lon="-0.39233">
        <ele>28.2</ele>
        <time>2020-09-10T09:00:43Z</time>
      </trkpt>
      <trkpt lat="44.90595" lon="-0.39234">
        <ele>28.1</ele>
        <time>2020-09-10T09:00:44Z</time>
      </trkpt>
      <trkpt lat="44.90594" lon="-0.39235">
        <ele>28.1</ele>
        <time>2020-09-10T09:00:45Z</time>
      </trkpt>
      <trkpt lat="44.90593" lon="-0.39236">
        <ele>28</ele>
        <time>2020-09-10T09:00:46Z</time>
      </trkpt>
      <trkpt lat="44.90591" lon="-0.39239">
        <ele>27.9</ele>
        <time>2020-09-10T09:00:48Z</time>
      </trkpt>
      <trkpt lat="44.9059" lon="-0.39239">
        <ele>27.9</ele>
        <time>2020-09-10T09:00:49Z</time>
      </trkpt>
      <trkpt lat="44.90587" lon="-0.39239">
        <ele>27.8</ele>
        <time>2020-09-10T09:00:51Z</time>
      </trkpt>
      <trkpt lat="44.90586" lon="-0.39239">
        <ele>27.8</ele>
        <time>2020-09-10T09:00:52Z</time>
      </trkpt>
      <trkpt lat="44.90584" lon="-0.39239">
        <ele>27.7</ele>
        <time>2020-09-10T09:00:53Z</time>
      </trkpt>
      <trkpt lat="44.90582" lon="-0.39238">
        <ele>27.7</ele>
        <time>2020-09-10T09:00:54Z</time>
      </trkpt>
      <trkpt lat="44.9058" lon="-0.39235">
        <ele>27.6</ele>
        <time>2020-09-10T09:00:55Z</time>
      </trkpt>
      <trkpt lat="44.9058" lon="-0.39233">
        <ele>27.5</ele>
        <time>2020-09-10T09:00:56Z</time>
      </trkpt>
      <trkpt lat="44.90579" lon="-0.3923">
        <ele>27.4</ele>
        <time>2020-09-10T09:00:57Z</time>
      </trkpt>
      <trkpt lat="44.90578" lon="-0.39227">
        <ele>27.4</ele>
        <time>2020-09-10T09:00:59Z</time>
      </trkpt>
      <trkpt lat="44.90577" lon="-0.39225">
        <ele>27.3</ele>
        <time>2020-09-10T09:01:00Z</time>
      </trkpt>
      <trkpt lat="44.90577" lon="-0.39222">
        <ele>27.2</ele>
        <time>2020-09-10T09:01:02Z</time>
      </trkpt>
      <trkpt lat="44.90576" lon="-0.39219">
        <ele>27.1</ele>
        <time>2020-09-10T09:01:03Z</time>
      </trkpt>
      <trkpt lat="44.90575" lon="-0.39218">
        <ele>27.1</ele>
        <time>2020-09-10T09:01:04Z</time>
      </trkpt>
      <trkpt lat="44.90574" lon="-0.39216">
        <ele>27</ele>
        <time>2020-09-10T09:01:06Z</time>
      </trkpt>
      <trkpt lat="44.90573" lon="-0.39214">
        <ele>27</ele>
        <time>2020-09-10T09:01:07Z</time>
      </trkpt>
      <trkpt lat="44.90571" lon="-0.39212">
        <ele>26.9</ele>
        <time>2020-09-10T09:01:08Z</time>
      </trkpt>
      <trkpt lat="44.9057" lon="-0.3921">
        <ele>26.8</ele>
        <time>2020-09-10T09:01:10Z</time>
      </trkpt>
      <trkpt lat="44.90569" lon="-0.39208">
        <ele>26.8</ele>
        <time>2020-09-10T09:01:11Z</time>
      </trkpt>
      <trkpt lat="44.90569" lon="-0.39207">
        <ele>26.7</ele>
        <time>2020-09-10T09:01:13Z</time>
      </trkpt>
      <trkpt lat="44.90568" lon="-0.39205">
        <ele>26.6</ele>
        <time>2020-09-10T09:01:14Z</time>
      </trkpt>
      <trkpt lat="44.90567" lon="-0.39204">
        <ele>26.6</ele>
        <time>2020-09-10T09:01:16Z</time>
      </trkpt>
      <trkpt lat="44.90566" lon="-0.39202">
        <ele>26.5</ele>
        <time>2020-09-10T09:01:17Z</time>
      </trkpt>
      <trkpt lat="44.90565" lon="-0.392">
        <ele>26.5</ele>
        <time>2020-09-10T09:01:18Z</time>
      </trkpt>
      <trkpt lat="44.90564" lon="-0.39199">
        <ele>26.4</ele>
        <time>2020-09-10T09:01:19Z</time>
      </trkpt>
      <trkpt lat="44.90564" lon="-0.39197">
        <ele>26.3</ele>
        <time>2020-09-10T09:01:20Z</time>
      </trkpt>
      <trkpt lat="44.90563" lon="-0.39194">
        <ele>26.3</ele>
        <time>2020-09-10T09:01:22Z</time>
      </trkpt>
      <trkpt lat="44.90562" lon="-0.39193">
        <ele>26.2</ele>
        <time>2020-09-10T09:01:23Z</time>
      </trkpt>
      <trkpt lat="44.90562" lon="-0.39191">
        <ele>26.2</ele>
        <time>2020-09-10T09:01:25Z</time>
      </trkpt>
      <trkpt lat="44.90561" lon="-0.39189">
        <ele>26.1</ele>
        <time>2020-09-10T09:01:26Z</time>
      </trkpt>
      <trkpt lat="44.9056" lon="-0.39187">
        <ele>26</ele>
        <time>2020-09-10T09:01:27Z</time>
      </trkpt>
      <trkpt lat="44.90559" lon="-0.39185">
        <ele>26</ele>
        <time>2020-09-10T09:01:28Z</time>
      </trkpt>
      <trkpt lat="44.90558" lon="-0.39182">
        <ele>25.9</ele>
        <time>2020-09-10T09:01:30Z</time>
      </trkpt>
      <trkpt lat="44.90556" lon="-0.3918">
        <ele>25.8</ele>
        <time>2020-09-10T09:01:31Z</time>
      </trkpt>
      <trkpt lat="44.90554" lon="-0.39177">
        <ele>25.7</ele>
        <time>2020-09-10T09:01:33Z</time>
      </trkpt>
      <trkpt lat="44.90553" lon="-0.39176">
        <ele>25.6</ele>
        <time>2020-09-10T09:01:34Z</time>
      </trkpt>
      <trkpt lat="44.90552" lon="-0.39173">
        <ele>25.5</ele>
        <time>2020-09-10T09:01:36Z</time>
      </trkpt>
      <trkpt lat="44.9055" lon="-0.3917">
        <ele>25.4</ele>
        <time>2020-09-10T09:01:37Z</time>
      </trkpt>
      <trkpt lat="44.90549" lon="-0.39169">
        <ele>25.4</ele>
        <time>2020-09-10T09:01:38Z</time>
      </trkpt>
      <trkpt lat="44.90548" lon="-0.39167">
        <ele>25.3</ele>
        <time>2020-09-10T09:01:39Z</time>
      </trkpt>
      <trkpt lat="44.90547" lon="-0.39166">
        <ele>25.3</ele>
        <time>2020-09-10T09:01:40Z</time>
      </trkpt>
      <trkpt lat="44.90547" lon="-0.39164">
        <ele>25.2</ele>
        <time>2020-09-10T09:01:41Z</time>
      </trkpt>
      <trkpt lat="44.90545" lon="-0.39163">
        <ele>25.2</ele>
        <time>2020-09-10T09:01:42Z</time>
      </trkpt>
      <trkpt lat="44.90545" lon="-0.39161">
        <ele>25.1</ele>
        <time>2020-09-10T09:01:43Z</time>
      </trkpt>
      <trkpt lat="44.90544" lon="-0.39159">
        <ele>25</ele>
        <time>2020-09-10T09:01:44Z</time>
      </trkpt>
      <trkpt lat="44.90542" lon="-0.39157">
        <ele>24.9</ele>
        <time>2020-09-10T09:01:46Z</time>
      </trkpt>
      <trkpt lat="44.90542" lon="-0.39156">
        <ele>24.9</ele>
        <time>2020-09-10T09:01:47Z</time>
      </trkpt>
      <trkpt lat="44.90541" lon="-0.39155">
        <ele>24.9</ele>
        <time>2020-09-10T09:01:48Z</time>
      </trkpt>
      <trkpt lat="44.90541" lon="-0.39153">
        <ele>24.8</ele>
        <time>2020-09-10T09:01:49Z</time>
      </trkpt>
      <trkpt lat="44.9054" lon="-0.39151">
        <ele>24.7</ele>
        <time>2020-09-10T09:01:51Z</time>
      </trkpt>
      <trkpt lat="44.90539" lon="-0.39149">
        <ele>24.7</ele>
        <time>2020-09-10T09:01:52Z</time>
      </trkpt>
      <trkpt lat="44.90538" lon="-0.39147">
        <ele>24.6</ele>
        <time>2020-09-10T09:01:53Z</time>
      </trkpt>
      <trkpt lat="44.90537" lon="-0.39145">
        <ele>24.5</ele>
        <time>2020-09-10T09:01:55Z</time>
      </trkpt>
      <trkpt lat="44.90536" lon="-0.39143">
        <ele>24.4</ele>
        <time>2020-09-10T09:01:56Z</time>
      </trkpt>
      <trkpt lat="44.90535" lon="-0.39141">
        <ele>24.4</ele>
        <time>2020-09-10T09:01:57Z</time>
      </trkpt>
      <trkpt lat="44.90535" lon="-0.39139">
        <ele>24.3</ele>
        <time>2020-09-10T09:01:58Z</time>
      </trkpt>
      <trkpt lat="44.90535" lon="-0.39138">
        <ele>24.3</ele>
        <time>2020-09-10T09:02:00Z</time>
      </trkpt>
      <trkpt lat="44.90534" lon="-0.39134">
        <ele>24.2</ele>
        <time>2020-09-10T09:02:01Z</time>
      </trkpt>
      <trkpt lat="44.90534" lon="-0.39133">
        <ele>24.1</ele>
        <time>2020-09-10T09:02:02Z</time>
      </trkpt>
      <trkpt lat="44.90534" lon="-0.39132">
        <ele>24.1</ele>
        <time>2020-09-10T09:02:03Z</time>
      </trkpt>
      <trkpt lat="44.90534" lon="-0.39131">
        <ele>24.1</ele>
        <time>2020-09-10T09:02:04Z</time>
      </trkpt>
      <trkpt lat="44.90535" lon="-0.3913">
        <ele>24</ele>
        <time>2020-09-10T09:02:06Z</time>
      </trkpt>
      <trkpt lat="44.90534" lon="-0.39127">
        <ele>24</ele>
        <time>2020-09-10T09:02:07Z</time>
      </trkpt>
      <trkpt lat="44.90534" lon="-0.39125">
        <ele>23.9</ele>
        <time>2020-09-10T09:02:08Z</time>
      </trkpt>
      <trkpt lat="44.90534" lon="-0.39123">
        <ele>23.8</ele>
        <time>2020-09-10T09:02:09Z</time>
      </trkpt>
      <trkpt lat="44.90534" lon="-0.39121">
        <ele>23.8</ele>
        <time>2020-09-10T09:02:11Z</time>
      </trkpt>
      <trkpt lat="44.90534" lon="-0.39119">
        <ele>23.7</ele>
        <time>2020-09-10T09:02:12Z</time>
      </trkpt>
      <trkpt lat="44.90534" lon="-0.39114">
        <ele>23.6</ele>
        <time>2020-09-10T09:02:14Z</time>
      </trkpt>
      <trkpt lat="44.90534" lon="-0.39112">
        <ele>23.6</ele>
        <time>2020-09-10T09:02:15Z</time>
      </trkpt>
      <trkpt lat="44.90534" lon="-0.3911">
        <ele>23.5</ele>
        <time>2020-09-10T09:02:16Z</time>
      </trkpt>
      <trkpt lat="44.90534" lon="-0.39108">
        <ele>23.5</ele>
        <time>2020-09-10T09:02:18Z</time>
      </trkpt>
      <trkpt lat="44.90534" lon="-0.39107">
        <ele>23.5</ele>
        <time>2020-09-10T09:02:19Z</time>
      </trkpt>
      <trkpt lat="44.90534" lon="-0.39105">
        <ele>23.4</ele>
        <time>2020-09-10T09:02:20Z</time>
      </trkpt>
      <trkpt lat="44.90534" lon="-0.39103">
        <ele>23.4</ele>
        <time>2020-09-10T09:02:21Z</time>
      </trkpt>
      <trkpt lat="44.90534" lon="-0.391">
        <ele>23.3</ele>
        <time>2020-09-10T09:02:23Z</time>
      </trkpt>
      <trkpt lat="44.90534" lon="-0.39098">
        <ele>23.3</ele>
        <time>2020-09-10T09:02:24Z</time>
      </trkpt>
      <trkpt lat="44.90534" lon="-0.39096">
        <ele>23.3</ele>
        <time>2020-09-10T09:02:25Z</time>
      </trkpt>
      <trkpt lat="44.90533" lon="-0.39093">
        <ele>23.2</ele>
        <time>2020-09-10T09:02:26Z</time>
      </trkpt>
      <trkpt lat="44.90533" lon="-0.39091">
        <ele>23.2</ele>
        <time>2020-09-10T09:02:28Z</time>
      </trkpt>
      <trkpt lat="44.90533" lon="-0.39087">
        <ele>23.1</ele>
        <time>2020-09-10T09:02:29Z</time>
      </trkpt>
      <trkpt lat="44.90533" lon="-0.39086">
        <ele>23.1</ele>
        <time>2020-09-10T09:02:30Z</time>
      </trkpt>
      <trkpt lat="44.90532" lon="-0.39082">
        <ele>23.1</ele>
        <time>2020-09-10T09:02:32Z</time>
      </trkpt>
      <trkpt lat="44.90532" lon="-0.3908">
        <ele>23.1</ele>
        <time>2020-09-10T09:02:33Z</time>
      </trkpt>
      <trkpt lat="44.90531" lon="-0.39077">
        <ele>23</ele>
        <time>2020-09-10T09:02:35Z</time>
      </trkpt>
      <trkpt lat="44.90531" lon="-0.39075">
        <ele>23</ele>
        <time>2020-09-10T09:02:36Z</time>
      </trkpt>
      <trkpt lat="44.9053" lon="-0.39071">
        <ele>23</ele>
        <time>2020-09-10T09:02:38Z</time>
      </trkpt>
      <trkpt lat="44.9053" lon="-0.3907">
        <ele>23</ele>
        <time>2020-09-10T09:02:39Z</time>
      </trkpt>
      <trkpt lat="44.90529" lon="-0.39067">
        <ele>22.9</ele>
        <time>2020-09-10T09:02:40Z</time>
      </trkpt>
      <trkpt lat="44.90529" lon="-0.39065">
        <ele>22.9</ele>
        <time>2020-09-10T09:02:41Z</time>
      </trkpt>
      <trkpt lat="44.90529" lon="-0.39063">
        <ele>22.9</ele>
        <time>2020-09-10T09:02:42Z</time>
      </trkpt>
      <trkpt lat="44.90528" lon="-0.39059">
        <ele>22.9</ele>
        <time>2020-09-10T09:02:44Z</time>
      </trkpt>
      <trkpt lat="44.90527" lon="-0.39056">
        <ele>22.9</ele>
        <time>2020-09-10T09:02:45Z</time>
      </trkpt>
      <trkpt lat="44.90527" lon="-0.39055">
        <ele>22.9</ele>
        <time>2020-09-10T09:02:46Z</time>
      </trkpt>
      <trkpt lat="44.90526" lon="-0.39051">
        <ele>22.9</ele>
        <time>2020-09-10T09:02:47Z</time>
      </trkpt>
      <trkpt lat="44.90526" lon="-0.39049">
        <ele>22.9</ele>
        <time>2020-09-10T09:02:49Z</time>
      </trkpt>
      <trkpt lat="44.90526" lon="-0.39048">
        <ele>22.9</ele>
        <time>2020-09-10T09:02:50Z</time>
      </trkpt>
      <trkpt lat="44.90526" lon="-0.39046">
        <ele>22.9</ele>
        <time>2020-09-10T09:02:51Z</time>
      </trkpt>
      <trkpt lat="44.90526" lon="-0.39044">
        <ele>22.9</ele>
        <time>2020-09-10T09:02:52Z</time>
      </trkpt>
      <trkpt lat="44.90525" lon="-0.39042">
        <ele>22.9</ele>
        <time>2020-09-10T09:02:53Z</time>
      </trkpt>
      <trkpt lat="44.90525" lon="-0.39041">
        <ele>22.9</ele>
        <time>2020-09-10T09:02:54Z</time>
      </trkpt>
      <trkpt lat="44.90525" lon="-0.39039">
        <ele>22.9</ele>
        <time>2020-09-10T09:02:56Z</time>
      </trkpt>
      <trkpt lat="44.90525" lon="-0.39036">
        <ele>22.9</ele>
        <time>2020-09-10T09:02:57Z</time>
      </trkpt>
      <trkpt lat="44.90525" lon="-0.39034">
        <ele>22.9</ele>
        <time>2020-09-10T09:02:58Z</time>
      </trkpt>
      <trkpt lat="44.90525" lon="-0.39033">
        <ele>22.9</ele>
        <time>2020-09-10T09:02:59Z</time>
      </trkpt>
      <trkpt lat="44.90525" lon="-0.39032">
        <ele>22.9</ele>
        <time>2020-09-10T09:03:01Z</time>
      </trkpt>
      <trkpt lat="44.90525" lon="-0.3903">
        <ele>22.9</ele>
        <time>2020-09-10T09:03:02Z</time>
      </trkpt>
      <trkpt lat="44.90526" lon="-0.39029">
        <ele>23</ele>
        <time>2020-09-10T09:03:04Z</time>
      </trkpt>
      <trkpt lat="44.90526" lon="-0.39027">
        <ele>23</ele>
        <time>2020-09-10T09:03:05Z</time>
      </trkpt>
      <trkpt lat="44.90526" lon="-0.39025">
        <ele>23</ele>
        <time>2020-09-10T09:03:06Z</time>
      </trkpt>
      <trkpt lat="44.90525" lon="-0.39023">
        <ele>23</ele>
        <time>2020-09-10T09:03:08Z</time>
      </trkpt>
      <trkpt lat="44.90525" lon="-0.3902">
        <ele>23.1</ele>
        <time>2020-09-10T09:03:09Z</time>
      </trkpt>
      <trkpt lat="44.90525" lon="-0.39019">
        <ele>23.1</ele>
        <time>2020-09-10T09:03:10Z</time>
      </trkpt>
      <trkpt lat="44.90525" lon="-0.39017">
        <ele>23.1</ele>
        <time>2020-09-10T09:03:12Z</time>
      </trkpt>
      <trkpt lat="44.90524" lon="-0.39015">
        <ele>23.2</ele>
        <time>2020-09-10T09:03:13Z</time>
      </trkpt>
      <trkpt lat="44.90523" lon="-0.39013">
        <ele>23.2</ele>
        <time>2020-09-10T09:03:14Z</time>
      </trkpt>
      <trkpt lat="44.90523" lon="-0.39012">
        <ele>23.2</ele>
        <time>2020-09-10T09:03:15Z</time>
      </trkpt>
      <trkpt lat="44.90523" lon="-0.3901">
        <ele>23.3</ele>
        <time>2020-09-10T09:03:16Z</time>
      </trkpt>
      <trkpt lat="44.90522" lon="-0.39009">
        <ele>23.3</ele>
        <time>2020-09-10T09:03:17Z</time>
      </trkpt>
      <trkpt lat="44.90521" lon="-0.39007">
        <ele>23.4</ele>
        <time>2020-09-10T09:03:18Z</time>
      </trkpt>
      <trkpt lat="44.9052" lon="-0.39005">
        <ele>23.4</ele>
        <time>2020-09-10T09:03:19Z</time>
      </trkpt>
      <trkpt lat="44.90519" lon="-0.39002">
        <ele>23.5</ele>
        <time>2020-09-10T09:03:21Z</time>
      </trkpt>
      <trkpt lat="44.90518" lon="-0.39">
        <ele>23.5</ele>
        <time>2020-09-10T09:03:22Z</time>
      </trkpt>
      <trkpt lat="44.90517" lon="-0.38997">
        <ele>23.6</ele>
        <time>2020-09-10T09:03:23Z</time>
      </trkpt>
      <trkpt lat="44.90515" lon="-0.38995">
        <ele>23.7</ele>
        <time>2020-09-10T09:03:25Z</time>
      </trkpt>
      <trkpt lat="44.90513" lon="-0.38991">
        <ele>23.8</ele>
        <time>2020-09-10T09:03:27Z</time>
      </trkpt>
      <trkpt lat="44.90513" lon="-0.38988">
        <ele>23.9</ele>
        <time>2020-09-10T09:03:28Z</time>
      </trkpt>
      <trkpt lat="44.90512" lon="-0.38986">
        <ele>24</ele>
        <time>2020-09-10T09:03:29Z</time>
      </trkpt>
      <trkpt lat="44.90512" lon="-0.38983">
        <ele>24.1</ele>
        <time>2020-09-10T09:03:30Z</time>
      </trkpt>
      <trkpt lat="44.90512" lon="-0.38982">
        <ele>24.1</ele>
        <time>2020-09-10T09:03:31Z</time>
      </trkpt>
      <trkpt lat="44.90512" lon="-0.3898">
        <ele>24.1</ele>
        <time>2020-09-10T09:03:32Z</time>
      </trkpt>
      <trkpt lat="44.90512" lon="-0.38978">
        <ele>24.2</ele>
        <time>2020-09-10T09:03:33Z</time>
      </trkpt>
      <trkpt lat="44.90513" lon="-0.38977">
        <ele>24.3</ele>
        <time>2020-09-10T09:03:34Z</time>
      </trkpt>
      <trkpt lat="44.90513" lon="-0.38976">
        <ele>24.3</ele>
        <time>2020-09-10T09:03:35Z</time>
      </trkpt>
      <trkpt lat="44.90513" lon="-0.38973">
        <ele>24.4</ele>
        <time>2020-09-10T09:03:37Z</time>
      </trkpt>
      <trkpt lat="44.90513" lon="-0.38972">
        <ele>24.4</ele>
        <time>2020-09-10T09:03:38Z</time>
      </trkpt>
      <trkpt lat="44.90513" lon="-0.38971">
        <ele>24.4</ele>
        <time>2020-09-10T09:03:39Z</time>
      </trkpt>
      <trkpt lat="44.90513" lon="-0.38971">
        <ele>24.5</ele>
        <time>2020-09-10T09:03:40Z</time>
      </trkpt>
      <trkpt lat="44.90513" lon="-0.38969">
        <ele>24.5</ele>
        <time>2020-09-10T09:03:41Z</time>
      </trkpt>
      <trkpt lat="44.90513" lon="-0.38968">
        <ele>24.5</ele>
        <time>2020-09-10T09:03:42Z</time>
      </trkpt>
      <trkpt lat="44.90513" lon="-0.38966">
        <ele>24.6</ele>
        <time>2020-09-10T09:03:44Z</time>
      </trkpt>
      <trkpt lat="44.90512" lon="-0.38964">
        <ele>24.7</ele>
        <time>2020-09-10T09:03:45Z</time>
      </trkpt>
      <trkpt lat="44.90512" lon="-0.38963">
        <ele>24.7</ele>
        <time>2020-09-10T09:03:46Z</time>
      </trkpt>
      <trkpt lat="44.90512" lon="-0.3896">
        <ele>24.8</ele>
        <time>2020-09-10T09:03:47Z</time>
      </trkpt>
      <trkpt lat="44.90512" lon="-0.38959">
        <ele>24.9</ele>
        <time>2020-09-10T09:03:49Z</time>
      </trkpt>
      <trkpt lat="44.90511" lon="-0.38957">
        <ele>24.9</ele>
        <time>2020-09-10T09:03:50Z</time>
      </trkpt>
      <trkpt lat="44.90511" lon="-0.38955">
        <ele>25</ele>
        <time>2020-09-10T09:03:51Z</time>
      </trkpt>
      <trkpt lat="44.9051" lon="-0.38954">
        <ele>25</ele>
        <time>2020-09-10T09:03:52Z</time>
      </trkpt>
      <trkpt lat="44.9051" lon="-0.38953">
        <ele>25</ele>
        <time>2020-09-10T09:03:53Z</time>
      </trkpt>
      <trkpt lat="44.9051" lon="-0.38952">
        <ele>25.1</ele>
        <time>2020-09-10T09:03:54Z</time>
      </trkpt>
      <trkpt lat="44.90509" lon="-0.38949">
        <ele>25.2</ele>
        <time>2020-09-10T09:03:56Z</time>
      </trkpt>
      <trkpt lat="44.90508" lon="-0.38948">
        <ele>25.2</ele>
        <time>2020-09-10T09:03:57Z</time>
      </trkpt>
      <trkpt lat="44.90507" lon="-0.38945">
        <ele>25.3</ele>
        <time>2020-09-10T09:03:58Z</time>
      </trkpt>
      <trkpt lat="44.90506" lon="-0.38944">
        <ele>25.3</ele>
        <time>2020-09-10T09:03:59Z</time>
      </trkpt>
      <trkpt lat="44.90506" lon="-0.38943">
        <ele>25.4</ele>
        <time>2020-09-10T09:04:00Z</time>
      </trkpt>
      <trkpt lat="44.90505" lon="-0.38941">
        <ele>25.4</ele>
        <time>2020-09-10T09:04:01Z</time>
      </trkpt>
      <trkpt lat="44.90505" lon="-0.38939">
        <ele>25.5</ele>
        <time>2020-09-10T09:04:03Z</time>
      </trkpt>
      <trkpt lat="44.90504" lon="-0.38937">
        <ele>25.5</ele>
        <time>2020-09-10T09:04:04Z</time>
      </trkpt>
      <trkpt lat="44.90503" lon="-0.38935">
        <ele>25.6</ele>
        <time>2020-09-10T09:04:05Z</time>
      </trkpt>
      <trkpt lat="44.90503" lon="-0.38933">
        <ele>25.7</ele>
        <time>2020-09-10T09:04:06Z</time>
      </trkpt>
      <trkpt lat="44.90502" lon="-0.3893">
        <ele>25.7</ele>
        <time>2020-09-10T09:04:08Z</time>
      </trkpt>
      <trkpt lat="44.90501" lon="-0.38928">
        <ele>25.8</ele>
        <time>2020-09-10T09:04:09Z</time>
      </trkpt>
      <trkpt lat="44.905" lon="-0.38927">
        <ele>25.9</ele>
        <time>2020-09-10T09:04:10Z</time>
      </trkpt>
      <trkpt lat="44.90499" lon="-0.38924">
        <ele>25.9</ele>
        <time>2020-09-10T09:04:11Z</time>
      </trkpt>
      <trkpt lat="44.90499" lon="-0.38923">
        <ele>26</ele>
        <time>2020-09-10T09:04:13Z</time>
      </trkpt>
      <trkpt lat="44.90499" lon="-0.38922">
        <ele>26</ele>
        <time>2020-09-10T09:04:14Z</time>
      </trkpt>
      <trkpt lat="44.90498" lon="-0.38919">
        <ele>26.1</ele>
        <time>2020-09-10T09:04:15Z</time>
      </trkpt>
      <trkpt lat="44.90498" lon="-0.38918">
        <ele>26.1</ele>
        <time>2020-09-10T09:04:16Z</time>
      </trkpt>
      <trkpt lat="44.90497" lon="-0.38916">
        <ele>26.2</ele>
        <time>2020-09-10T09:04:18Z</time>
      </trkpt>
      <trkpt lat="44.90497" lon="-0.38915">
        <ele>26.2</ele>
        <time>2020-09-10T09:04:19Z</time>
      </trkpt>
      <trkpt lat="44.90496" lon="-0.38914">
        <ele>26.2</ele>
        <time>2020-09-10T09:04:21Z</time>
      </trkpt>
      <trkpt lat="44.90496" lon="-0.38912">
        <ele>26.3</ele>
        <time>2020-09-10T09:04:22Z</time>
      </trkpt>
      <trkpt lat="44.90496" lon="-0.3891">
        <ele>26.3</ele>
        <time>2020-09-10T09:04:23Z</time>
      </trkpt>
      <trkpt lat="44.90495" lon="-0.38909">
        <ele>26.3</ele>
        <time>2020-09-10T09:04:24Z</time>
      </trkpt>
      <trkpt lat="44.90495" lon="-0.38907">
        <ele>26.4</ele>
        <time>2020-09-10T09:04:25Z</time>
      </trkpt>
      <trkpt lat="44.90495" lon="-0.38906">
        <ele>26.4</ele>
        <time>2020-09-10T09:04:26Z</time>
      </trkpt>
      <trkpt lat="44.90495" lon="-0.38904">
        <ele>26.4</ele>
        <time>2020-09-10T09:04:27Z</time>
      </trkpt>
      <trkpt lat="44.90494" lon="-0.38902">
        <ele>26.5</ele>
        <time>2020-09-10T09:04:28Z</time>
      </trkpt>
      <trkpt lat="44.90494" lon="-0.389">
        <ele>26.5</ele>
        <time>2020-09-10T09:04:29Z</time>
      </trkpt>
      <trkpt lat="44.90493" lon="-0.38896">
        <ele>26.6</ele>
        <time>2020-09-10T09:04:30Z</time>
      </trkpt>
      <trkpt lat="44.90493" lon="-0.38895">
        <ele>26.6</ele>
        <time>2020-09-10T09:04:31Z</time>
      </trkpt>
      <trkpt lat="44.90492" lon="-0.38893">
        <ele>26.6</ele>
        <time>2020-09-10T09:04:33Z</time>
      </trkpt>
      <trkpt lat="44.90492" lon="-0.38891">
        <ele>26.7</ele>
        <time>2020-09-10T09:04:34Z</time>
      </trkpt>
      <trkpt lat="44.90491" lon="-0.38889">
        <ele>26.7</ele>
        <time>2020-09-10T09:04:35Z</time>
      </trkpt>
      <trkpt lat="44.90491" lon="-0.38885">
        <ele>26.7</ele>
        <time>2020-09-10T09:04:36Z</time>
      </trkpt>
      <trkpt lat="44.9049" lon="-0.38884">
        <ele>26.7</ele>
        <time>2020-09-10T09:04:38Z</time>
      </trkpt>
      <trkpt lat="44.9049" lon="-0.38882">
        <ele>26.7</ele>
        <time>2020-09-10T09:04:39Z</time>
      </trkpt>
      <trkpt lat="44.9049" lon="-0.38881">
        <ele>26.7</ele>
        <time>2020-09-10T09:04:40Z</time>
      </trkpt>
      <trkpt lat="44.9049" lon="-0.38879">
        <ele>26.8</ele>
        <time>2020-09-10T09:04:41Z</time>
      </trkpt>
      <trkpt lat="44.90489" lon="-0.38875">
        <ele>26.8</ele>
        <time>2020-09-10T09:04:43Z</time>
      </trkpt>
      <trkpt lat="44.90489" lon="-0.38874">
        <ele>26.8</ele>
        <time>2020-09-10T09:04:44Z</time>
      </trkpt>
      <trkpt lat="44.90489" lon="-0.38872">
        <ele>26.8</ele>
        <time>2020-09-10T09:04:45Z</time>
      </trkpt>
      <trkpt lat="44.90489" lon="-0.38869">
        <ele>26.8</ele>
        <time>2020-09-10T09:04:46Z</time>
      </trkpt>
      <trkpt lat="44.90488" lon="-0.38865">
        <ele>26.8</ele>
        <time>2020-09-10T09:04:48Z</time>
      </trkpt>
      <trkpt lat="44.90488" lon="-0.38863">
        <ele>26.8</ele>
        <time>2020-09-10T09:04:49Z</time>
      </trkpt>
      <trkpt lat="44.90487" lon="-0.38861">
        <ele>26.8</ele>
        <time>2020-09-10T09:04:51Z</time>
      </trkpt>
      <trkpt lat="44.90487" lon="-0.38859">
        <ele>26.8</ele>
        <time>2020-09-10T09:04:52Z</time>
      </trkpt>
      <trkpt lat="44.90486" lon="-0.38857">
        <ele>26.8</ele>
        <time>2020-09-10T09:04:53Z</time>
      </trkpt>
      <trkpt lat="44.90485" lon="-0.38856">
        <ele>26.8</ele>
        <time>2020-09-10T09:04:54Z</time>
      </trkpt>
      <trkpt lat="44.90484" lon="-0.38854">
        <ele>26.8</ele>
        <time>2020-09-10T09:04:55Z</time>
      </trkpt>
      <trkpt lat="44.90483" lon="-0.38853">
        <ele>26.8</ele>
        <time>2020-09-10T09:04:57Z</time>
      </trkpt>
      <trkpt lat="44.90483" lon="-0.38851">
        <ele>26.8</ele>
        <time>2020-09-10T09:04:58Z</time>
      </trkpt>
      <trkpt lat="44.90483" lon="-0.3885">
        <ele>26.8</ele>
        <time>2020-09-10T09:04:59Z</time>
      </trkpt>
      <trkpt lat="44.90482" lon="-0.38848">
        <ele>26.8</ele>
        <time>2020-09-10T09:05:00Z</time>
      </trkpt>
      <trkpt lat="44.90481" lon="-0.38847">
        <ele>26.8</ele>
        <time>2020-09-10T09:05:01Z</time>
      </trkpt>
      <trkpt lat="44.90481" lon="-0.38845">
        <ele>26.7</ele>
        <time>2020-09-10T09:05:02Z</time>
      </trkpt>
      <trkpt lat="44.9048" lon="-0.38843">
        <ele>26.7</ele>
        <time>2020-09-10T09:05:03Z</time>
      </trkpt>
      <trkpt lat="44.9048" lon="-0.38842">
        <ele>26.7</ele>
        <time>2020-09-10T09:05:04Z</time>
      </trkpt>
      <trkpt lat="44.9048" lon="-0.3884">
        <ele>26.7</ele>
        <time>2020-09-10T09:05:05Z</time>
      </trkpt>
      <trkpt lat="44.90479" lon="-0.38837">
        <ele>26.7</ele>
        <time>2020-09-10T09:05:07Z</time>
      </trkpt>
      <trkpt lat="44.90479" lon="-0.38836">
        <ele>26.7</ele>
        <time>2020-09-10T09:05:08Z</time>
      </trkpt>
      <trkpt lat="44.90478" lon="-0.38834">
        <ele>26.7</ele>
        <time>2020-09-10T09:05:10Z</time>
      </trkpt>
      <trkpt lat="44.90478" lon="-0.38832">
        <ele>26.7</ele>
        <time>2020-09-10T09:05:11Z</time>
      </trkpt>
      <trkpt lat="44.90478" lon="-0.3883">
        <ele>26.7</ele>
        <time>2020-09-10T09:05:12Z</time>
      </trkpt>
      <trkpt lat="44.90478" lon="-0.38827">
        <ele>26.7</ele>
        <time>2020-09-10T09:05:13Z</time>
      </trkpt>
      <trkpt lat="44.90478" lon="-0.38825">
        <ele>26.7</ele>
        <time>2020-09-10T09:05:15Z</time>
      </trkpt>
      <trkpt lat="44.90478" lon="-0.38822">
        <ele>26.7</ele>
        <time>2020-09-10T09:05:16Z</time>
      </trkpt>
      <trkpt lat="44.90477" lon="-0.38819">
        <ele>26.7</ele>
        <time>2020-09-10T09:05:17Z</time>
      </trkpt>
      <trkpt lat="44.90477" lon="-0.38818">
        <ele>26.7</ele>
        <time>2020-09-10T09:05:19Z</time>
      </trkpt>
      <trkpt lat="44.90477" lon="-0.38817">
        <ele>26.7</ele>
        <time>2020-09-10T09:05:20Z</time>
      </trkpt>
      <trkpt lat="44.90476" lon="-0.38815">
        <ele>26.7</ele>
        <time>2020-09-10T09:05:21Z</time>
      </trkpt>
      <trkpt lat="44.90476" lon="-0.38814">
        <ele>26.7</ele>
        <time>2020-09-10T09:05:22Z</time>
      </trkpt>
      <trkpt lat="44.90476" lon="-0.38813">
        <ele>26.7</ele>
        <time>2020-09-10T09:05:23Z</time>
      </trkpt>
      <trkpt lat="44.90475" lon="-0.3881">
        <ele>26.7</ele>
        <time>2020-09-10T09:05:24Z</time>
      </trkpt>
      <trkpt lat="44.90474" lon="-0.38809">
        <ele>26.7</ele>
        <time>2020-09-10T09:05:25Z</time>
      </trkpt>
      <trkpt lat="44.90474" lon="-0.38807">
        <ele>26.7</ele>
        <time>2020-09-10T09:05:27Z</time>
      </trkpt>
      <trkpt lat="44.90473" lon="-0.38806">
        <ele>26.7</ele>
        <time>2020-09-10T09:05:28Z</time>
      </trkpt>
      <trkpt lat="44.90473" lon="-0.38804">
        <ele>26.7</ele>
        <time>2020-09-10T09:05:29Z</time>
      </trkpt>
      <trkpt lat="44.90472" lon="-0.38803">
        <ele>26.7</ele>
        <time>2020-09-10T09:05:30Z</time>
      </trkpt>
      <trkpt lat="44.90472" lon="-0.38801">
        <ele>26.7</ele>
        <time>2020-09-10T09:05:31Z</time>
      </trkpt>
      <trkpt lat="44.90471" lon="-0.38799">
        <ele>26.7</ele>
        <time>2020-09-10T09:05:32Z</time>
      </trkpt>
      <trkpt lat="44.9047" lon="-0.38796">
        <ele>26.7</ele>
        <time>2020-09-10T09:05:34Z</time>
      </trkpt>
      <trkpt lat="44.9047" lon="-0.38795">
        <ele>26.7</ele>
        <time>2020-09-10T09:05:35Z</time>
      </trkpt>
      <trkpt lat="44.9047" lon="-0.38794">
        <ele>26.7</ele>
        <time>2020-09-10T09:05:36Z</time>
      </trkpt>
      <trkpt lat="44.9047" lon="-0.38791">
        <ele>26.7</ele>
        <time>2020-09-10T09:05:37Z</time>
      </trkpt>
      <trkpt lat="44.9047" lon="-0.38789">
        <ele>26.8</ele>
        <time>2020-09-10T09:05:38Z</time>
      </trkpt>
      <trkpt lat="44.90471" lon="-0.38786">
        <ele>26.8</ele>
        <time>2020-09-10T09:05:40Z</time>
      </trkpt>
      <trkpt lat="44.90471" lon="-0.38785">
        <ele>26.8</ele>
        <time>2020-09-10T09:05:41Z</time>
      </trkpt>
      <trkpt lat="44.90471" lon="-0.38784">
        <ele>26.8</ele>
        <time>2020-09-10T09:05:42Z</time>
      </trkpt>
      <trkpt lat="44.90471" lon="-0.3878">
        <ele>26.8</ele>
        <time>2020-09-10T09:05:44Z</time>
      </trkpt>
      <trkpt lat="44.9047" lon="-0.38778">
        <ele>26.9</ele>
        <time>2020-09-10T09:05:45Z</time>
      </trkpt>
      <trkpt lat="44.9047" lon="-0.38775">
        <ele>26.9</ele>
        <time>2020-09-10T09:05:47Z</time>
      </trkpt>
      <trkpt lat="44.9047" lon="-0.38774">
        <ele>26.9</ele>
        <time>2020-09-10T09:05:48Z</time>
      </trkpt>
      <trkpt lat="44.90469" lon="-0.38771">
        <ele>27</ele>
        <time>2020-09-10T09:05:49Z</time>
      </trkpt>
      <trkpt lat="44.90468" lon="-0.38768">
        <ele>27</ele>
        <time>2020-09-10T09:05:51Z</time>
      </trkpt>
      <trkpt lat="44.90469" lon="-0.38766">
        <ele>27</ele>
        <time>2020-09-10T09:05:52Z</time>
      </trkpt>
      <trkpt lat="44.90468" lon="-0.38765">
        <ele>27</ele>
        <time>2020-09-10T09:05:53Z</time>
      </trkpt>
      <trkpt lat="44.90468" lon="-0.38762">
        <ele>27.1</ele>
        <time>2020-09-10T09:05:55Z</time>
      </trkpt>
      <trkpt lat="44.90468" lon="-0.38761">
        <ele>27.1</ele>
        <time>2020-09-10T09:05:56Z</time>
      </trkpt>
      <trkpt lat="44.90468" lon="-0.3876">
        <ele>27.1</ele>
        <time>2020-09-10T09:05:57Z</time>
      </trkpt>
      <trkpt lat="44.90467" lon="-0.38758">
        <ele>27.1</ele>
        <time>2020-09-10T09:05:58Z</time>
      </trkpt>
      <trkpt lat="44.90468" lon="-0.38756">
        <ele>27.2</ele>
        <time>2020-09-10T09:06:00Z</time>
      </trkpt>
      <trkpt lat="44.90468" lon="-0.38754">
        <ele>27.2</ele>
        <time>2020-09-10T09:06:01Z</time>
      </trkpt>
      <trkpt lat="44.9047" lon="-0.38753">
        <ele>27.2</ele>
        <time>2020-09-10T09:06:02Z</time>
      </trkpt>
      <trkpt lat="44.9047" lon="-0.38752">
        <ele>27.2</ele>
        <time>2020-09-10T09:06:03Z</time>
      </trkpt>
      <trkpt lat="44.9047" lon="-0.38751">
        <ele>27.2</ele>
        <time>2020-09-10T09:06:04Z</time>
      </trkpt>
      <trkpt lat="44.90468" lon="-0.38749">
        <ele>27.2</ele>
        <time>2020-09-10T09:06:06Z</time>
      </trkpt>
      <trkpt lat="44.90467" lon="-0.38749">
        <ele>27.2</ele>
        <time>2020-09-10T09:06:08Z</time>
      </trkpt>
      <trkpt lat="44.90467" lon="-0.38748">
        <ele>27.2</ele>
        <time>2020-09-10T09:06:09Z</time>
      </trkpt>
      <trkpt lat="44.90465" lon="-0.38748">
        <ele>27.3</ele>
        <time>2020-09-10T09:06:10Z</time>
      </trkpt>
      <trkpt lat="44.90464" lon="-0.38749">
        <ele>27.3</ele>
        <time>2020-09-10T09:06:12Z</time>
      </trkpt>
      <trkpt lat="44.90462" lon="-0.38749">
        <ele>27.3</ele>
        <time>2020-09-10T09:06:13Z</time>
      </trkpt>
      <trkpt lat="44.90461" lon="-0.38749">
        <ele>27.3</ele>
        <time>2020-09-10T09:06:14Z</time>
      </trkpt>
      <trkpt lat="44.90461" lon="-0.3875">
        <ele>27.3</ele>
        <time>2020-09-10T09:06:15Z</time>
      </trkpt>
      <trkpt lat="44.90458" lon="-0.38753">
        <ele>27.3</ele>
        <time>2020-09-10T09:06:16Z</time>
      </trkpt>
      <trkpt lat="44.90457" lon="-0.38755">
        <ele>27.4</ele>
        <time>2020-09-10T09:06:18Z</time>
      </trkpt>
      <trkpt lat="44.90456" lon="-0.38757">
        <ele>27.4</ele>
        <time>2020-09-10T09:06:19Z</time>
      </trkpt>
      <trkpt lat="44.90454" lon="-0.38758">
        <ele>27.4</ele>
        <time>2020-09-10T09:06:20Z</time>
      </trkpt>
      <trkpt lat="44.90452" lon="-0.38761">
        <ele>27.4</ele>
        <time>2020-09-10T09:06:21Z</time>
      </trkpt>
      <trkpt lat="44.90451" lon="-0.38762">
        <ele>27.5</ele>
        <time>2020-09-10T09:06:22Z</time>
      </trkpt>
      <trkpt lat="44.90449" lon="-0.38764">
        <ele>27.5</ele>
        <time>2020-09-10T09:06:24Z</time>
      </trkpt>
      <trkpt lat="44.90449" lon="-0.38766">
        <ele>27.5</ele>
        <time>2020-09-10T09:06:25Z</time>
      </trkpt>
      <trkpt lat="44.90448" lon="-0.38768">
        <ele>27.5</ele>
        <time>2020-09-10T09:06:26Z</time>
      </trkpt>
      <trkpt lat="44.90447" lon="-0.38769">
        <ele>27.5</ele>
        <time>2020-09-10T09:06:27Z</time>
      </trkpt>
      <trkpt lat="44.90446" lon="-0.3877">
        <ele>27.5</ele>
        <time>2020-09-10T09:06:28Z</time>
      </trkpt>
      <trkpt lat="44.90444" lon="-0.38772">
        <ele>27.6</ele>
        <time>2020-09-10T09:06:30Z</time>
      </trkpt>
      <trkpt lat="44.90443" lon="-0.38772">
        <ele>27.6</ele>
        <time>2020-09-10T09:06:31Z</time>
      </trkpt>
      <trkpt lat="44.90442" lon="-0.38774">
        <ele>27.6</ele>
        <time>2020-09-10T09:06:32Z</time>
      </trkpt>
      <trkpt lat="44.9044" lon="-0.38774">
        <ele>27.6</ele>
        <time>2020-09-10T09:06:33Z</time>
      </trkpt>
      <trkpt lat="44.90439" lon="-0.38775">
        <ele>27.6</ele>
        <time>2020-09-10T09:06:34Z</time>
      </trkpt>
      <trkpt lat="44.90438" lon="-0.38776">
        <ele>27.7</ele>
        <time>2020-09-10T09:06:35Z</time>
      </trkpt>
      <trkpt lat="44.90437" lon="-0.38777">
        <ele>27.7</ele>
        <time>2020-09-10T09:06:37Z</time>
      </trkpt>
      <trkpt lat="44.90434" lon="-0.38779">
        <ele>27.7</ele>
        <time>2020-09-10T09:06:38Z</time>
      </trkpt>
      <trkpt lat="44.90433" lon="-0.3878">
        <ele>27.7</ele>
        <time>2020-09-10T09:06:40Z</time>
      </trkpt>
      <trkpt lat="44.90432" lon="-0.38781">
        <ele>27.7</ele>
        <time>2020-09-10T09:06:41Z</time>
      </trkpt>
      <trkpt lat="44.90431" lon="-0.38782">
        <ele>27.8</ele>
        <time>2020-09-10T09:06:42Z</time>
      </trkpt>
      <trkpt lat="44.90429" lon="-0.38784">
        <ele>27.8</ele>
        <time>2020-09-10T09:06:44Z</time>
      </trkpt>
      <trkpt lat="44.90429" lon="-0.38784">
        <ele>27.8</ele>
        <time>2020-09-10T09:06:45Z</time>
      </trkpt>
      <trkpt lat="44.90428" lon="-0.38785">
        <ele>27.8</ele>
        <time>2020-09-10T09:06:46Z</time>
      </trkpt>
      <trkpt lat="44.90426" lon="-0.38786">
        <ele>27.8</ele>
        <time>2020-09-10T09:06:47Z</time>
      </trkpt>
      <trkpt lat="44.90425" lon="-0.38788">
        <ele>27.8</ele>
        <time>2020-09-10T09:06:49Z</time>
      </trkpt>
      <trkpt lat="44.90423" lon="-0.38788">
        <ele>27.9</ele>
        <time>2020-09-10T09:06:50Z</time>
      </trkpt>
      <trkpt lat="44.90421" lon="-0.38788">
        <ele>27.9</ele>
        <time>2020-09-10T09:06:51Z</time>
      </trkpt>
      <trkpt lat="44.90418" lon="-0.38789">
        <ele>27.9</ele>
        <time>2020-09-10T09:06:52Z</time>
      </trkpt>
      <trkpt lat="44.90416" lon="-0.3879">
        <ele>27.9</ele>
        <time>2020-09-10T09:06:54Z</time>
      </trkpt>
      <trkpt lat="44.90414" lon="-0.3879">
        <ele>27.9</ele>
        <time>2020-09-10T09:06:56Z</time>
      </trkpt>
      <trkpt lat="44.90413" lon="-0.38791">
        <ele>28</ele>
        <time>2020-09-10T09:06:57Z</time>
      </trkpt>
      <trkpt lat="44.90411" lon="-0.38791">
        <ele>28</ele>
        <time>2020-09-10T09:06:58Z</time>
      </trkpt>
      <trkpt lat="44.9041" lon="-0.38791">
        <ele>28</ele>
        <time>2020-09-10T09:06:59Z</time>
      </trkpt>
      <trkpt lat="44.90407" lon="-0.38792">
        <ele>28</ele>
        <time>2020-09-10T09:07:01Z</time>
      </trkpt>
      <trkpt lat="44.90405" lon="-0.38792">
        <ele>28</ele>
        <time>2020-09-10T09:07:02Z</time>
      </trkpt>
      <trkpt lat="44.90403" lon="-0.38793">
        <ele>28</ele>
        <time>2020-09-10T09:07:04Z</time>
      </trkpt>
      <trkpt lat="44.90401" lon="-0.38793">
        <ele>28.1</ele>
        <time>2020-09-10T09:07:06Z</time>
      </trkpt>
      <trkpt lat="44.904" lon="-0.38793">
        <ele>28.1</ele>
        <time>2020-09-10T09:07:07Z</time>
      </trkpt>
      <trkpt lat="44.90397" lon="-0.38794">
        <ele>28.1</ele>
        <time>2020-09-10T09:07:09Z</time>
      </trkpt>
      <trkpt lat="44.90397" lon="-0.38795">
        <ele>28.1</ele>
        <time>2020-09-10T09:07:10Z</time>
      </trkpt>
      <trkpt lat="44.90395" lon="-0.38796">
        <ele>28.1</ele>
        <time>2020-09-10T09:07:11Z</time>
      </trkpt>
      <trkpt lat="44.90392" lon="-0.38797">
        <ele>28.1</ele>
        <time>2020-09-10T09:07:13Z</time>
      </trkpt>
      <trkpt lat="44.90389" lon="-0.38797">
        <ele>28.2</ele>
        <time>2020-09-10T09:07:15Z</time>
      </trkpt>
      <trkpt lat="44.90389" lon="-0.38797">
        <ele>28.2</ele>
        <time>2020-09-10T09:07:16Z</time>
      </trkpt>
      <trkpt lat="44.90387" lon="-0.38798">
        <ele>28.2</ele>
        <time>2020-09-10T09:07:17Z</time>
      </trkpt>
      <trkpt lat="44.90385" lon="-0.38798">
        <ele>28.2</ele>
        <time>2020-09-10T09:07:18Z</time>
      </trkpt>
      <trkpt lat="44.90384" lon="-0.38798">
        <ele>28.2</ele>
        <time>2020-09-10T09:07:19Z</time>
      </trkpt>
      <trkpt lat="44.90382" lon="-0.38797">
        <ele>28.2</ele>
        <time>2020-09-10T09:07:21Z</time>
      </trkpt>
      <trkpt lat="44.9038" lon="-0.38798">
        <ele>28.2</ele>
        <time>2020-09-10T09:07:22Z</time>
      </trkpt>
      <trkpt lat="44.90378" lon="-0.38798">
        <ele>28.3</ele>
        <time>2020-09-10T09:07:23Z</time>
      </trkpt>
      <trkpt lat="44.90377" lon="-0.38798">
        <ele>28.3</ele>
        <time>2020-09-10T09:07:25Z</time>
      </trkpt>
      <trkpt lat="44.90375" lon="-0.38798">
        <ele>28.3</ele>
        <time>2020-09-10T09:07:26Z</time>
      </trkpt>
      <trkpt lat="44.90373" lon="-0.38799">
        <ele>28.3</ele>
        <time>2020-09-10T09:07:27Z</time>
      </trkpt>
      <trkpt lat="44.90372" lon="-0.38799">
        <ele>28.3</ele>
        <time>2020-09-10T09:07:28Z</time>
      </trkpt>
      <trkpt lat="44.9037" lon="-0.38799">
        <ele>28.3</ele>
        <time>2020-09-10T09:07:30Z</time>
      </trkpt>
      <trkpt lat="44.90369" lon="-0.38799">
        <ele>28.3</ele>
        <time>2020-09-10T09:07:31Z</time>
      </trkpt>
      <trkpt lat="44.90367" lon="-0.38799">
        <ele>28.3</ele>
        <time>2020-09-10T09:07:32Z</time>
      </trkpt>
      <trkpt lat="44.90365" lon="-0.38799">
        <ele>28.3</ele>
        <time>2020-09-10T09:07:34Z</time>
      </trkpt>
      <trkpt lat="44.90365" lon="-0.38799">
        <ele>28.3</ele>
        <time>2020-09-10T09:07:35Z</time>
      </trkpt>
      <trkpt lat="44.90363" lon="-0.38799">
        <ele>28.3</ele>
        <time>2020-09-10T09:07:36Z</time>
      </trkpt>
      <trkpt lat="44.9036" lon="-0.38799">
        <ele>28.4</ele>
        <time>2020-09-10T09:07:38Z</time>
      </trkpt>
      <trkpt lat="44.90359" lon="-0.388">
        <ele>28.4</ele>
        <time>2020-09-10T09:07:39Z</time>
      </trkpt>
      <trkpt lat="44.90358" lon="-0.38801">
        <ele>28.4</ele>
        <time>2020-09-10T09:07:40Z</time>
      </trkpt>
      <trkpt lat="44.90356" lon="-0.38801">
        <ele>28.4</ele>
        <time>2020-09-10T09:07:42Z</time>
      </trkpt>
      <trkpt lat="44.90354" lon="-0.38802">
        <ele>28.4</ele>
        <time>2020-09-10T09:07:43Z</time>
      </trkpt>
      <trkpt lat="44.90352" lon="-0.38802">
        <ele>28.4</ele>
        <time>2020-09-10T09:07:44Z</time>
      </trkpt>
      <trkpt lat="44.90351" lon="-0.38803">
        <ele>28.4</ele>
        <time>2020-09-10T09:07:46Z</time>
      </trkpt>
      <trkpt lat="44.9035" lon="-0.38803">
        <ele>28.4</ele>
        <time>2020-09-10T09:07:47Z</time>
      </trkpt>
      <trkpt lat="44.90349" lon="-0.38803">
        <ele>28.4</ele>
        <time>2020-09-10T09:07:48Z</time>
      </trkpt>
      <trkpt lat="44.90348" lon="-0.38804">
        <ele>28.4</ele>
        <time>2020-09-10T09:07:49Z</time>
      </trkpt>
      <trkpt lat="44.90346" lon="-0.38804">
        <ele>28.4</ele>
        <time>2020-09-10T09:07:51Z</time>
      </trkpt>
      <trkpt lat="44.90345" lon="-0.38804">
        <ele>28.4</ele>
        <time>2020-09-10T09:07:52Z</time>
      </trkpt>
      <trkpt lat="44.90344" lon="-0.38804">
        <ele>28.4</ele>
        <time>2020-09-10T09:07:53Z</time>
      </trkpt>
      <trkpt lat="44.90342" lon="-0.38805">
        <ele>28.5</ele>
        <time>2020-09-10T09:07:55Z</time>
      </trkpt>
      <trkpt lat="44.90341" lon="-0.38805">
        <ele>28.5</ele>
        <time>2020-09-10T09:07:56Z</time>
      </trkpt>
      <trkpt lat="44.90338" lon="-0.38806">
        <ele>28.5</ele>
        <time>2020-09-10T09:07:58Z</time>
      </trkpt>
      <trkpt lat="44.90337" lon="-0.38806">
        <ele>28.5</ele>
        <time>2020-09-10T09:07:59Z</time>
      </trkpt>
      <trkpt lat="44.90335" lon="-0.38807">
        <ele>28.5</ele>
        <time>2020-09-10T09:08:00Z</time>
      </trkpt>
      <trkpt lat="44.90334" lon="-0.38807">
        <ele>28.5</ele>
        <time>2020-09-10T09:08:01Z</time>
      </trkpt>
      <trkpt lat="44.90332" lon="-0.38807">
        <ele>28.5</ele>
        <time>2020-09-10T09:08:03Z</time>
      </trkpt>
      <trkpt lat="44.9033" lon="-0.38808">
        <ele>28.6</ele>
        <time>2020-09-10T09:08:04Z</time>
      </trkpt>
      <trkpt lat="44.90329" lon="-0.38808">
        <ele>28.6</ele>
        <time>2020-09-10T09:08:05Z</time>
      </trkpt>
      <trkpt lat="44.90327" lon="-0.38808">
        <ele>28.6</ele>
        <time>2020-09-10T09:08:07Z</time>
      </trkpt>
      <trkpt lat="44.90325" lon="-0.38809">
        <ele>28.6</ele>
        <time>2020-09-10T09:08:08Z</time>
      </trkpt>
      <trkpt lat="44.90324" lon="-0.38809">
        <ele>28.6</ele>
        <time>2020-09-10T09:08:10Z</time>
      </trkpt>
      <trkpt lat="44.90324" lon="-0.38808">
        <ele>28.6</ele>
        <time>2020-09-10T09:08:11Z</time>
      </trkpt>
      <trkpt lat="44.90322" lon="-0.38809">
        <ele>28.6</ele>
        <time>2020-09-10T09:08:12Z</time>
      </trkpt>
      <trkpt lat="44.90321" lon="-0.38809">
        <ele>28.7</ele>
        <time>2020-09-10T09:08:13Z</time>
      </trkpt>
      <trkpt lat="44.90318" lon="-0.3881">
        <ele>28.7</ele>
        <time>2020-09-10T09:08:14Z</time>
      </trkpt>
      <trkpt lat="44.90318" lon="-0.3881">
        <ele>28.7</ele>
        <time>2020-09-10T09:08:15Z</time>
      </trkpt>
      <trkpt lat="44.90317" lon="-0.3881">
        <ele>28.7</ele>
        <time>2020-09-10T09:08:16Z</time>
      </trkpt>
      <trkpt lat="44.90316" lon="-0.38811">
        <ele>28.7</ele>
        <time>2020-09-10T09:08:17Z</time>
      </trkpt>
      <trkpt lat="44.90315" lon="-0.38811">
        <ele>28.7</ele>
        <time>2020-09-10T09:08:18Z</time>
      </trkpt>
      <trkpt lat="44.90314" lon="-0.38811">
        <ele>28.7</ele>
        <time>2020-09-10T09:08:19Z</time>
      </trkpt>
      <trkpt lat="44.90311" lon="-0.38811">
        <ele>28.7</ele>
        <time>2020-09-10T09:08:21Z</time>
      </trkpt>
      <trkpt lat="44.9031" lon="-0.38811">
        <ele>28.7</ele>
        <time>2020-09-10T09:08:22Z</time>
      </trkpt>
      <trkpt lat="44.90308" lon="-0.38812">
        <ele>28.7</ele>
        <time>2020-09-10T09:08:23Z</time>
      </trkpt>
      <trkpt lat="44.90306" lon="-0.38812">
        <ele>28.7</ele>
        <time>2020-09-10T09:08:25Z</time>
      </trkpt>
      <trkpt lat="44.90304" lon="-0.38812">
        <ele>28.7</ele>
        <time>2020-09-10T09:08:26Z</time>
      </trkpt>
      <trkpt lat="44.90303" lon="-0.38812">
        <ele>28.7</ele>
        <time>2020-09-10T09:08:27Z</time>
      </trkpt>
      <trkpt lat="44.90302" lon="-0.38813">
        <ele>28.8</ele>
        <time>2020-09-10T09:08:29Z</time>
      </trkpt>
      <trkpt lat="44.903" lon="-0.38813">
        <ele>28.8</ele>
        <time>2020-09-10T09:08:30Z</time>
      </trkpt>
      <trkpt lat="44.90298" lon="-0.38813">
        <ele>28.8</ele>
        <time>2020-09-10T09:08:31Z</time>
      </trkpt>
      <trkpt lat="44.90297" lon="-0.38813">
        <ele>28.8</ele>
        <time>2020-09-10T09:08:32Z</time>
      </trkpt>
      <trkpt lat="44.90295" lon="-0.38813">
        <ele>28.8</ele>
        <time>2020-09-10T09:08:33Z</time>
      </trkpt>
      <trkpt lat="44.90294" lon="-0.38813">
        <ele>28.8</ele>
        <time>2020-09-10T09:08:34Z</time>
      </trkpt>
      <trkpt lat="44.90292" lon="-0.38813">
        <ele>28.8</ele>
        <time>2020-09-10T09:08:35Z</time>
      </trkpt>
      <trkpt lat="44.90289" lon="-0.38812">
        <ele>28.8</ele>
        <time>2020-09-10T09:08:37Z</time>
      </trkpt>
      <trkpt lat="44.90288" lon="-0.38812">
        <ele>28.8</ele>
        <time>2020-09-10T09:08:38Z</time>
      </trkpt>
      <trkpt lat="44.90287" lon="-0.38812">
        <ele>28.8</ele>
        <time>2020-09-10T09:08:39Z</time>
      </trkpt>
      <trkpt lat="44.90285" lon="-0.38811">
        <ele>28.8</ele>
        <time>2020-09-10T09:08:41Z</time>
      </trkpt>
      <trkpt lat="44.90283" lon="-0.38811">
        <ele>28.8</ele>
        <time>2020-09-10T09:08:42Z</time>
      </trkpt>
      <trkpt lat="44.90281" lon="-0.3881">
        <ele>28.8</ele>
        <time>2020-09-10T09:08:43Z</time>
      </trkpt>
      <trkpt lat="44.90278" lon="-0.38809">
        <ele>28.9</ele>
        <time>2020-09-10T09:08:44Z</time>
      </trkpt>
      <trkpt lat="44.90277" lon="-0.38809">
        <ele>28.9</ele>
        <time>2020-09-10T09:08:45Z</time>
      </trkpt>
      <trkpt lat="44.90276" lon="-0.38809">
        <ele>28.9</ele>
        <time>2020-09-10T09:08:46Z</time>
      </trkpt>
      <trkpt lat="44.90275" lon="-0.38808">
        <ele>28.9</ele>
        <time>2020-09-10T09:08:47Z</time>
      </trkpt>
      <trkpt lat="44.90274" lon="-0.38807">
        <ele>28.9</ele>
        <time>2020-09-10T09:08:49Z</time>
      </trkpt>
      <trkpt lat="44.90272" lon="-0.38807">
        <ele>28.9</ele>
        <time>2020-09-10T09:08:50Z</time>
      </trkpt>
      <trkpt lat="44.90271" lon="-0.38806">
        <ele>28.9</ele>
        <time>2020-09-10T09:08:51Z</time>
      </trkpt>
      <trkpt lat="44.9027" lon="-0.38805">
        <ele>28.9</ele>
        <time>2020-09-10T09:08:52Z</time>
      </trkpt>
      <trkpt lat="44.90268" lon="-0.38805">
        <ele>28.9</ele>
        <time>2020-09-10T09:08:53Z</time>
      </trkpt>
      <trkpt lat="44.90267" lon="-0.38804">
        <ele>29</ele>
        <time>2020-09-10T09:08:54Z</time>
      </trkpt>
      <trkpt lat="44.90266" lon="-0.38804">
        <ele>29</ele>
        <time>2020-09-10T09:08:55Z</time>
      </trkpt>
      <trkpt lat="44.90265" lon="-0.38804">
        <ele>29</ele>
        <time>2020-09-10T09:08:56Z</time>
      </trkpt>
      <trkpt lat="44.90263" lon="-0.38804">
        <ele>29</ele>
        <time>2020-09-10T09:08:57Z</time>
      </trkpt>
      <trkpt lat="44.90262" lon="-0.38804">
        <ele>29</ele>
        <time>2020-09-10T09:08:59Z</time>
      </trkpt>
      <trkpt lat="44.90261" lon="-0.38804">
        <ele>29</ele>
        <time>2020-09-10T09:09:00Z</time>
      </trkpt>
      <trkpt lat="44.9026" lon="-0.38803">
        <ele>29</ele>
        <time>2020-09-10T09:09:01Z</time>
      </trkpt>
      <trkpt lat="44.90259" lon="-0.38803">
        <ele>29</ele>
        <time>2020-09-10T09:09:02Z</time>
      </trkpt>
      <trkpt lat="44.90258" lon="-0.38803">
        <ele>29</ele>
        <time>2020-09-10T09:09:04Z</time>
      </trkpt>
      <trkpt lat="44.90256" lon="-0.38802">
        <ele>29</ele>
        <time>2020-09-10T09:09:05Z</time>
      </trkpt>
      <trkpt lat="44.90255" lon="-0.38802">
        <ele>29</ele>
        <time>2020-09-10T09:09:06Z</time>
      </trkpt>
      <trkpt lat="44.90253" lon="-0.38802">
        <ele>29</ele>
        <time>2020-09-10T09:09:07Z</time>
      </trkpt>
      <trkpt lat="44.90251" lon="-0.38803">
        <ele>29</ele>
        <time>2020-09-10T09:09:09Z</time>
      </trkpt>
      <trkpt lat="44.9025" lon="-0.38803">
        <ele>29</ele>
        <time>2020-09-10T09:09:10Z</time>
      </trkpt>
      <trkpt lat="44.90249" lon="-0.38803">
        <ele>29</ele>
        <time>2020-09-10T09:09:11Z</time>
      </trkpt>
      <trkpt lat="44.90248" lon="-0.38804">
        <ele>29</ele>
        <time>2020-09-10T09:09:12Z</time>
      </trkpt>
      <trkpt lat="44.90246" lon="-0.38804">
        <ele>29</ele>
        <time>2020-09-10T09:09:13Z</time>
      </trkpt>
      <trkpt lat="44.90244" lon="-0.38805">
        <ele>29</ele>
        <time>2020-09-10T09:09:15Z</time>
      </trkpt>
      <trkpt lat="44.90242" lon="-0.38805">
        <ele>29</ele>
        <time>2020-09-10T09:09:16Z</time>
      </trkpt>
      <trkpt lat="44.90241" lon="-0.38805">
        <ele>29</ele>
        <time>2020-09-10T09:09:17Z</time>
      </trkpt>
      <trkpt lat="44.90238" lon="-0.38804">
        <ele>29</ele>
        <time>2020-09-10T09:09:19Z</time>
      </trkpt>
      <trkpt lat="44.90237" lon="-0.38802">
        <ele>29</ele>
        <time>2020-09-10T09:09:21Z</time>
      </trkpt>
      <trkpt lat="44.90237" lon="-0.388">
        <ele>29</ele>
        <time>2020-09-10T09:09:22Z</time>
      </trkpt>
      <trkpt lat="44.90236" lon="-0.38796">
        <ele>29</ele>
        <time>2020-09-10T09:09:23Z</time>
      </trkpt>
      <trkpt lat="44.90236" lon="-0.38795">
        <ele>29</ele>
        <time>2020-09-10T09:09:24Z</time>
      </trkpt>
      <trkpt lat="44.90235" lon="-0.38791">
        <ele>29</ele>
        <time>2020-09-10T09:09:26Z</time>
      </trkpt>
      <trkpt lat="44.90234" lon="-0.38789">
        <ele>29</ele>
        <time>2020-09-10T09:09:27Z</time>
      </trkpt>
      <trkpt lat="44.90233" lon="-0.38787">
        <ele>29.1</ele>
        <time>2020-09-10T09:09:28Z</time>
      </trkpt>
      <trkpt lat="44.90232" lon="-0.38784">
        <ele>29.1</ele>
        <time>2020-09-10T09:09:29Z</time>
      </trkpt>
      <trkpt lat="44.90231" lon="-0.38783">
        <ele>29.1</ele>
        <time>2020-09-10T09:09:30Z</time>
      </trkpt>
      <trkpt lat="44.90231" lon="-0.38782">
        <ele>29.2</ele>
        <time>2020-09-10T09:09:31Z</time>
      </trkpt>
      <trkpt lat="44.9023" lon="-0.38779">
        <ele>29.2</ele>
        <time>2020-09-10T09:09:32Z</time>
      </trkpt>
      <trkpt lat="44.9023" lon="-0.38778">
        <ele>29.2</ele>
        <time>2020-09-10T09:09:33Z</time>
      </trkpt>
      <trkpt lat="44.90229" lon="-0.38777">
        <ele>29.2</ele>
        <time>2020-09-10T09:09:34Z</time>
      </trkpt>
      <trkpt lat="44.90228" lon="-0.38773">
        <ele>29.3</ele>
        <time>2020-09-10T09:09:36Z</time>
      </trkpt>
      <trkpt lat="44.90228" lon="-0.38772">
        <ele>29.3</ele>
        <time>2020-09-10T09:09:37Z</time>
      </trkpt>
      <trkpt lat="44.90227" lon="-0.3877">
        <ele>29.4</ele>
        <time>2020-09-10T09:09:38Z</time>
      </trkpt>
      <trkpt lat="44.90226" lon="-0.38767">
        <ele>29.4</ele>
        <time>2020-09-10T09:09:40Z</time>
      </trkpt>
      <trkpt lat="44.90225" lon="-0.38766">
        <ele>29.4</ele>
        <time>2020-09-10T09:09:41Z</time>
      </trkpt>
      <trkpt lat="44.90224" lon="-0.38765">
        <ele>29.4</ele>
        <time>2020-09-10T09:09:42Z</time>
      </trkpt>
      <trkpt lat="44.90224" lon="-0.38763">
        <ele>29.5</ele>
        <time>2020-09-10T09:09:43Z</time>
      </trkpt>
      <trkpt lat="44.90223" lon="-0.38761">
        <ele>29.5</ele>
        <time>2020-09-10T09:09:45Z</time>
      </trkpt>
      <trkpt lat="44.90222" lon="-0.38759">
        <ele>29.5</ele>
        <time>2020-09-10T09:09:46Z</time>
      </trkpt>
      <trkpt lat="44.90221" lon="-0.38758">
        <ele>29.5</ele>
        <time>2020-09-10T09:09:47Z</time>
      </trkpt>
      <trkpt lat="44.9022" lon="-0.38755">
        <ele>29.5</ele>
        <time>2020-09-10T09:09:49Z</time>
      </trkpt>
      <trkpt lat="44.90219" lon="-0.38754">
        <ele>29.5</ele>
        <time>2020-09-10T09:09:50Z</time>
      </trkpt>
      <trkpt lat="44.90219" lon="-0.38752">
        <ele>29.5</ele>
        <time>2020-09-10T09:09:51Z</time>
      </trkpt>
      <trkpt lat="44.90218" lon="-0.38751">
        <ele>29.5</ele>
        <time>2020-09-10T09:09:52Z</time>
      </trkpt>
      <trkpt lat="44.90217" lon="-0.38749">
        <ele>29.5</ele>
        <time>2020-09-10T09:09:54Z</time>
      </trkpt>
      <trkpt lat="44.90217" lon="-0.38747">
        <ele>29.5</ele>
        <time>2020-09-10T09:09:55Z</time>
      </trkpt>
      <trkpt lat="44.90216" lon="-0.38746">
        <ele>29.5</ele>
        <time>2020-09-10T09:09:56Z</time>
      </trkpt>
      <trkpt lat="44.90215" lon="-0.38742">
        <ele>29.5</ele>
        <time>2020-09-10T09:09:58Z</time>
      </trkpt>
      <trkpt lat="44.90215" lon="-0.38741">
        <ele>29.5</ele>
        <time>2020-09-10T09:09:59Z</time>
      </trkpt>
      <trkpt lat="44.90215" lon="-0.38739">
        <ele>29.5</ele>
        <time>2020-09-10T09:10:00Z</time>
      </trkpt>
      <trkpt lat="44.90214" lon="-0.38736">
        <ele>29.5</ele>
        <time>2020-09-10T09:10:02Z</time>
      </trkpt>
      <trkpt lat="44.90213" lon="-0.38734">
        <ele>29.5</ele>
        <time>2020-09-10T09:10:03Z</time>
      </trkpt>
      <trkpt lat="44.90213" lon="-0.38733">
        <ele>29.5</ele>
        <time>2020-09-10T09:10:04Z</time>
      </trkpt>
      <trkpt lat="44.90213" lon="-0.38731">
        <ele>29.4</ele>
        <time>2020-09-10T09:10:05Z</time>
      </trkpt>
      <trkpt lat="44.90212" lon="-0.38728">
        <ele>29.4</ele>
        <time>2020-09-10T09:10:06Z</time>
      </trkpt>
      <trkpt lat="44.90211" lon="-0.38727">
        <ele>29.4</ele>
        <time>2020-09-10T09:10:08Z</time>
      </trkpt>
      <trkpt lat="44.90211" lon="-0.38726">
        <ele>29.4</ele>
        <time>2020-09-10T09:10:10Z</time>
      </trkpt>
      <trkpt lat="44.90211" lon="-0.38725">
        <ele>29.4</ele>
        <time>2020-09-10T09:10:11Z</time>
      </trkpt>
      <trkpt lat="44.9021" lon="-0.38724">
        <ele>29.4</ele>
        <time>2020-09-10T09:10:12Z</time>
      </trkpt>
      <trkpt lat="44.9021" lon="-0.38722">
        <ele>29.4</ele>
        <time>2020-09-10T09:10:13Z</time>
      </trkpt>
      <trkpt lat="44.90209" lon="-0.3872">
        <ele>29.4</ele>
        <time>2020-09-10T09:10:15Z</time>
      </trkpt>
      <trkpt lat="44.90208" lon="-0.38719">
        <ele>29.3</ele>
        <time>2020-09-10T09:10:16Z</time>
      </trkpt>
      <trkpt lat="44.90207" lon="-0.38718">
        <ele>29.3</ele>
        <time>2020-09-10T09:10:17Z</time>
      </trkpt>
      <trkpt lat="44.90206" lon="-0.38716">
        <ele>29.3</ele>
        <time>2020-09-10T09:10:19Z</time>
      </trkpt>
      <trkpt lat="44.90205" lon="-0.38715">
        <ele>29.3</ele>
        <time>2020-09-10T09:10:20Z</time>
      </trkpt>
      <trkpt lat="44.90204" lon="-0.38713">
        <ele>29.3</ele>
        <time>2020-09-10T09:10:21Z</time>
      </trkpt>
      <trkpt lat="44.90202" lon="-0.3871">
        <ele>29.3</ele>
        <time>2020-09-10T09:10:23Z</time>
      </trkpt>
      <trkpt lat="44.90201" lon="-0.38708">
        <ele>29.3</ele>
        <time>2020-09-10T09:10:25Z</time>
      </trkpt>
      <trkpt lat="44.902" lon="-0.38706">
        <ele>29.3</ele>
        <time>2020-09-10T09:10:26Z</time>
      </trkpt>
      <trkpt lat="44.90199" lon="-0.38705">
        <ele>29.3</ele>
        <time>2020-09-10T09:10:27Z</time>
      </trkpt>
      <trkpt lat="44.90198" lon="-0.38704">
        <ele>29.3</ele>
        <time>2020-09-10T09:10:28Z</time>
      </trkpt>
      <trkpt lat="44.90197" lon="-0.38703">
        <ele>29.3</ele>
        <time>2020-09-10T09:10:29Z</time>
      </trkpt>
      <trkpt lat="44.90195" lon="-0.387">
        <ele>29.3</ele>
        <time>2020-09-10T09:10:31Z</time>
      </trkpt>
      <trkpt lat="44.90194" lon="-0.38698">
        <ele>29.3</ele>
        <time>2020-09-10T09:10:32Z</time>
      </trkpt>
      <trkpt lat="44.90194" lon="-0.38697">
        <ele>29.3</ele>
        <time>2020-09-10T09:10:33Z</time>
      </trkpt>
      <trkpt lat="44.90193" lon="-0.38696">
        <ele>29.3</ele>
        <time>2020-09-10T09:10:34Z</time>
      </trkpt>
      <trkpt lat="44.90192" lon="-0.38695">
        <ele>29.3</ele>
        <time>2020-09-10T09:10:35Z</time>
      </trkpt>
      <trkpt lat="44.90191" lon="-0.38693">
        <ele>29.3</ele>
        <time>2020-09-10T09:10:36Z</time>
      </trkpt>
      <trkpt lat="44.9019" lon="-0.38692">
        <ele>29.3</ele>
        <time>2020-09-10T09:10:38Z</time>
      </trkpt>
      <trkpt lat="44.90189" lon="-0.38691">
        <ele>29.3</ele>
        <time>2020-09-10T09:10:40Z</time>
      </trkpt>
      <trkpt lat="44.90188" lon="-0.3869">
        <ele>29.3</ele>
        <time>2020-09-10T09:10:41Z</time>
      </trkpt>
      <trkpt lat="44.90187" lon="-0.38689">
        <ele>29.3</ele>
        <time>2020-09-10T09:10:42Z</time>
      </trkpt>
      <trkpt lat="44.90185" lon="-0.38687">
        <ele>29.3</ele>
        <time>2020-09-10T09:10:43Z</time>
      </trkpt>
      <trkpt lat="44.90185" lon="-0.38686">
        <ele>29.3</ele>
        <time>2020-09-10T09:10:44Z</time>
      </trkpt>
      <trkpt lat="44.90184" lon="-0.38685">
        <ele>29.3</ele>
        <time>2020-09-10T09:10:45Z</time>
      </trkpt>
      <trkpt lat="44.90183" lon="-0.38684">
        <ele>29.3</ele>
        <time>2020-09-10T09:10:46Z</time>
      </trkpt>
      <trkpt lat="44.90182" lon="-0.38683">
        <ele>29.3</ele>
        <time>2020-09-10T09:10:47Z</time>
      </trkpt>
      <trkpt lat="44.90181" lon="-0.38682">
        <ele>29.3</ele>
        <time>2020-09-10T09:10:48Z</time>
      </trkpt>
      <trkpt lat="44.90181" lon="-0.3868">
        <ele>29.3</ele>
        <time>2020-09-10T09:10:49Z</time>
      </trkpt>
      <trkpt lat="44.9018" lon="-0.38679">
        <ele>29.3</ele>
        <time>2020-09-10T09:10:51Z</time>
      </trkpt>
      <trkpt lat="44.90179" lon="-0.38678">
        <ele>29.3</ele>
        <time>2020-09-10T09:10:52Z</time>
      </trkpt>
      <trkpt lat="44.90179" lon="-0.38676">
        <ele>29.3</ele>
        <time>2020-09-10T09:10:53Z</time>
      </trkpt>
      <trkpt lat="44.90178" lon="-0.38674">
        <ele>29.3</ele>
        <time>2020-09-10T09:10:55Z</time>
      </trkpt>
      <trkpt lat="44.90176" lon="-0.38672">
        <ele>29.3</ele>
        <time>2020-09-10T09:10:56Z</time>
      </trkpt>
      <trkpt lat="44.90175" lon="-0.38671">
        <ele>29.3</ele>
        <time>2020-09-10T09:10:57Z</time>
      </trkpt>
      <trkpt lat="44.90175" lon="-0.3867">
        <ele>29.3</ele>
        <time>2020-09-10T09:10:58Z</time>
      </trkpt>
      <trkpt lat="44.90174" lon="-0.38668">
        <ele>29.3</ele>
        <time>2020-09-10T09:10:59Z</time>
      </trkpt>
      <trkpt lat="44.90172" lon="-0.38666">
        <ele>29.3</ele>
        <time>2020-09-10T09:11:01Z</time>
      </trkpt>
      <trkpt lat="44.90171" lon="-0.38662">
        <ele>29.2</ele>
        <time>2020-09-10T09:11:03Z</time>
      </trkpt>
      <trkpt lat="44.9017" lon="-0.3866">
        <ele>29.2</ele>
        <time>2020-09-10T09:11:04Z</time>
      </trkpt>
      <trkpt lat="44.90169" lon="-0.38657">
        <ele>29.2</ele>
        <time>2020-09-10T09:11:06Z</time>
      </trkpt>
      <trkpt lat="44.90168" lon="-0.38656">
        <ele>29.2</ele>
        <time>2020-09-10T09:11:07Z</time>
      </trkpt>
      <trkpt lat="44.90166" lon="-0.38653">
        <ele>29.2</ele>
        <time>2020-09-10T09:11:09Z</time>
      </trkpt>
      <trkpt lat="44.90165" lon="-0.38651">
        <ele>29.2</ele>
        <time>2020-09-10T09:11:11Z</time>
      </trkpt>
      <trkpt lat="44.90164" lon="-0.38649">
        <ele>29.2</ele>
        <time>2020-09-10T09:11:12Z</time>
      </trkpt>
      <trkpt lat="44.90163" lon="-0.38649">
        <ele>29.2</ele>
        <time>2020-09-10T09:11:13Z</time>
      </trkpt>
      <trkpt lat="44.90163" lon="-0.38649">
        <ele>29.2</ele>
        <time>2020-09-10T09:11:14Z</time>
      </trkpt>
      <trkpt lat="44.90164" lon="-0.3865">
        <ele>29.2</ele>
        <time>2020-09-10T09:11:16Z</time>
      </trkpt>
      <trkpt lat="44.90164" lon="-0.38651">
        <ele>29.2</ele>
        <time>2020-09-10T09:11:18Z</time>
      </trkpt>
      <trkpt lat="44.90164" lon="-0.38651">
        <ele>29.2</ele>
        <time>2020-09-10T09:11:19Z</time>
      </trkpt>
      <trkpt lat="44.90164" lon="-0.38652">
        <ele>29.2</ele>
        <time>2020-09-10T09:11:20Z</time>
      </trkpt>
      <trkpt lat="44.90164" lon="-0.38652">
        <ele>29.2</ele>
        <time>2020-09-10T09:11:21Z</time>
      </trkpt>
      <trkpt lat="44.90165" lon="-0.38653">
        <ele>29.2</ele>
        <time>2020-09-10T09:11:23Z</time>
      </trkpt>
      <trkpt lat="44.90165" lon="-0.38653">
        <ele>29.2</ele>
        <time>2020-09-10T09:11:24Z</time>
      </trkpt>
      <trkpt lat="44.90165" lon="-0.38654">
        <ele>29.2</ele>
        <time>2020-09-10T09:11:25Z</time>
      </trkpt>
      <trkpt lat="44.90165" lon="-0.38655">
        <ele>29.2</ele>
        <time>2020-09-10T09:11:26Z</time>
      </trkpt>
      <trkpt lat="44.90166" lon="-0.38657">
        <ele>29.2</ele>
        <time>2020-09-10T09:11:27Z</time>
      </trkpt>
      <trkpt lat="44.90166" lon="-0.38659">
        <ele>29.2</ele>
        <time>2020-09-10T09:11:28Z</time>
      </trkpt>
      <trkpt lat="44.90165" lon="-0.38664">
        <ele>29.2</ele>
        <time>2020-09-10T09:11:30Z</time>
      </trkpt>
      <trkpt lat="44.90165" lon="-0.38665">
        <ele>29.2</ele>
        <time>2020-09-10T09:11:31Z</time>
      </trkpt>
      <trkpt lat="44.90164" lon="-0.38668">
        <ele>29.2</ele>
        <time>2020-09-10T09:11:32Z</time>
      </trkpt>
      <trkpt lat="44.90164" lon="-0.38669">
        <ele>29.2</ele>
        <time>2020-09-10T09:11:34Z</time>
      </trkpt>
      <trkpt lat="44.90163" lon="-0.3867">
        <ele>29.2</ele>
        <time>2020-09-10T09:11:35Z</time>
      </trkpt>
      <trkpt lat="44.90163" lon="-0.38672">
        <ele>29.2</ele>
        <time>2020-09-10T09:11:36Z</time>
      </trkpt>
      <trkpt lat="44.90162" lon="-0.38673">
        <ele>29.2</ele>
        <time>2020-09-10T09:11:37Z</time>
      </trkpt>
      <trkpt lat="44.9016" lon="-0.38675">
        <ele>29.2</ele>
        <time>2020-09-10T09:11:39Z</time>
      </trkpt>
      <trkpt lat="44.90159" lon="-0.38677">
        <ele>29.2</ele>
        <time>2020-09-10T09:11:40Z</time>
      </trkpt>
      <trkpt lat="44.90158" lon="-0.38678">
        <ele>29.2</ele>
        <time>2020-09-10T09:11:41Z</time>
      </trkpt>
      <trkpt lat="44.90158" lon="-0.3868">
        <ele>29.3</ele>
        <time>2020-09-10T09:11:42Z</time>
      </trkpt>
      <trkpt lat="44.90157" lon="-0.38682">
        <ele>29.3</ele>
        <time>2020-09-10T09:11:43Z</time>
      </trkpt>
      <trkpt lat="44.90155" lon="-0.38683">
        <ele>29.3</ele>
        <time>2020-09-10T09:11:45Z</time>
      </trkpt>
      <trkpt lat="44.90155" lon="-0.38684">
        <ele>29.3</ele>
        <time>2020-09-10T09:11:46Z</time>
      </trkpt>
      <trkpt lat="44.90154" lon="-0.38686">
        <ele>29.3</ele>
        <time>2020-09-10T09:11:47Z</time>
      </trkpt>
      <trkpt lat="44.90152" lon="-0.38688">
        <ele>29.3</ele>
        <time>2020-09-10T09:11:49Z</time>
      </trkpt>
      <trkpt lat="44.9015" lon="-0.3869">
        <ele>29.3</ele>
        <time>2020-09-10T09:11:50Z</time>
      </trkpt>
      <trkpt lat="44.90149" lon="-0.38691">
        <ele>29.3</ele>
        <time>2020-09-10T09:11:51Z</time>
      </trkpt>
      <trkpt lat="44.90149" lon="-0.38693">
        <ele>29.4</ele>
        <time>2020-09-10T09:11:52Z</time>
      </trkpt>
      <trkpt lat="44.90148" lon="-0.38694">
        <ele>29.4</ele>
        <time>2020-09-10T09:11:53Z</time>
      </trkpt>
      <trkpt lat="44.90146" lon="-0.38696">
        <ele>29.4</ele>
        <time>2020-09-10T09:11:55Z</time>
      </trkpt>
      <trkpt lat="44.90145" lon="-0.38697">
        <ele>29.5</ele>
        <time>2020-09-10T09:11:56Z</time>
      </trkpt>
      <trkpt lat="44.90144" lon="-0.38699">
        <ele>29.5</ele>
        <time>2020-09-10T09:11:57Z</time>
      </trkpt>
      <trkpt lat="44.90143" lon="-0.387">
        <ele>29.5</ele>
        <time>2020-09-10T09:11:59Z</time>
      </trkpt>
      <trkpt lat="44.90142" lon="-0.387">
        <ele>29.5</ele>
        <time>2020-09-10T09:12:00Z</time>
      </trkpt>
      <trkpt lat="44.90141" lon="-0.38701">
        <ele>29.5</ele>
        <time>2020-09-10T09:12:01Z</time>
      </trkpt>
      <trkpt lat="44.90139" lon="-0.38703">
        <ele>29.5</ele>
        <time>2020-09-10T09:12:02Z</time>
      </trkpt>
      <trkpt lat="44.90138" lon="-0.38704">
        <ele>29.5</ele>
        <time>2020-09-10T09:12:03Z</time>
      </trkpt>
      <trkpt lat="44.90137" lon="-0.38705">
        <ele>29.5</ele>
        <time>2020-09-10T09:12:04Z</time>
      </trkpt>
      <trkpt lat="44.90136" lon="-0.38706">
        <ele>29.6</ele>
        <time>2020-09-10T09:12:06Z</time>
      </trkpt>
      <trkpt lat="44.90136" lon="-0.38707">
        <ele>29.6</ele>
        <time>2020-09-10T09:12:07Z</time>
      </trkpt>
      <trkpt lat="44.90135" lon="-0.38708">
        <ele>29.6</ele>
        <time>2020-09-10T09:12:08Z</time>
      </trkpt>
      <trkpt lat="44.90132" lon="-0.3871">
        <ele>29.7</ele>
        <time>2020-09-10T09:12:09Z</time>
      </trkpt>
      <trkpt lat="44.90131" lon="-0.38711">
        <ele>29.7</ele>
        <time>2020-09-10T09:12:11Z</time>
      </trkpt>
      <trkpt lat="44.9013" lon="-0.38711">
        <ele>29.7</ele>
        <time>2020-09-10T09:12:12Z</time>
      </trkpt>
      <trkpt lat="44.90129" lon="-0.38712">
        <ele>29.7</ele>
        <time>2020-09-10T09:12:14Z</time>
      </trkpt>
      <trkpt lat="44.90128" lon="-0.38713">
        <ele>29.7</ele>
        <time>2020-09-10T09:12:15Z</time>
      </trkpt>
      <trkpt lat="44.90126" lon="-0.38714">
        <ele>29.7</ele>
        <time>2020-09-10T09:12:16Z</time>
      </trkpt>
      <trkpt lat="44.90125" lon="-0.38714">
        <ele>29.8</ele>
        <time>2020-09-10T09:12:18Z</time>
      </trkpt>
      <trkpt lat="44.90125" lon="-0.38715">
        <ele>29.8</ele>
        <time>2020-09-10T09:12:19Z</time>
      </trkpt>
      <trkpt lat="44.90123" lon="-0.38716">
        <ele>29.8</ele>
        <time>2020-09-10T09:12:20Z</time>
      </trkpt>
      <trkpt lat="44.90122" lon="-0.38717">
        <ele>29.8</ele>
        <time>2020-09-10T09:12:21Z</time>
      </trkpt>
      <trkpt lat="44.9012" lon="-0.38719">
        <ele>29.9</ele>
        <time>2020-09-10T09:12:22Z</time>
      </trkpt>
      <trkpt lat="44.90119" lon="-0.3872">
        <ele>29.9</ele>
        <time>2020-09-10T09:12:24Z</time>
      </trkpt>
      <trkpt lat="44.90118" lon="-0.3872">
        <ele>29.9</ele>
        <time>2020-09-10T09:12:25Z</time>
      </trkpt>
      <trkpt lat="44.90118" lon="-0.38721">
        <ele>29.9</ele>
        <time>2020-09-10T09:12:26Z</time>
      </trkpt>
      <trkpt lat="44.90116" lon="-0.38722">
        <ele>29.9</ele>
        <time>2020-09-10T09:12:27Z</time>
      </trkpt>
      <trkpt lat="44.90115" lon="-0.38723">
        <ele>29.9</ele>
        <time>2020-09-10T09:12:28Z</time>
      </trkpt>
      <trkpt lat="44.90114" lon="-0.38725">
        <ele>30</ele>
        <time>2020-09-10T09:12:30Z</time>
      </trkpt>
      <trkpt lat="44.90113" lon="-0.38726">
        <ele>30</ele>
        <time>2020-09-10T09:12:31Z</time>
      </trkpt>
      <trkpt lat="44.90112" lon="-0.38727">
        <ele>30</ele>
        <time>2020-09-10T09:12:32Z</time>
      </trkpt>
      <trkpt lat="44.90111" lon="-0.38728">
        <ele>30</ele>
        <time>2020-09-10T09:12:33Z</time>
      </trkpt>
      <trkpt lat="44.9011" lon="-0.38729">
        <ele>30</ele>
        <time>2020-09-10T09:12:35Z</time>
      </trkpt>
      <trkpt lat="44.90109" lon="-0.3873">
        <ele>30.1</ele>
        <time>2020-09-10T09:12:36Z</time>
      </trkpt>
      <trkpt lat="44.90108" lon="-0.38731">
        <ele>30.1</ele>
        <time>2020-09-10T09:12:37Z</time>
      </trkpt>
      <trkpt lat="44.90107" lon="-0.38732">
        <ele>30.1</ele>
        <time>2020-09-10T09:12:38Z</time>
      </trkpt>
      <trkpt lat="44.90106" lon="-0.38733">
        <ele>30.1</ele>
        <time>2020-09-10T09:12:39Z</time>
      </trkpt>
      <trkpt lat="44.90105" lon="-0.38733">
        <ele>30.1</ele>
        <time>2020-09-10T09:12:41Z</time>
      </trkpt>
      <trkpt lat="44.90105" lon="-0.38734">
        <ele>30.1</ele>
        <time>2020-09-10T09:12:42Z</time>
      </trkpt>
      <trkpt lat="44.90104" lon="-0.38735">
        <ele>30.1</ele>
        <time>2020-09-10T09:12:43Z</time>
      </trkpt>
      <trkpt lat="44.90104" lon="-0.38735">
        <ele>30.1</ele>
        <time>2020-09-10T09:12:45Z</time>
      </trkpt>
      <trkpt lat="44.90103" lon="-0.38736">
        <ele>30.1</ele>
        <time>2020-09-10T09:12:47Z</time>
      </trkpt>
      <trkpt lat="44.90103" lon="-0.38737">
        <ele>30.2</ele>
        <time>2020-09-10T09:12:48Z</time>
      </trkpt>
      <trkpt lat="44.90102" lon="-0.38739">
        <ele>30.2</ele>
        <time>2020-09-10T09:12:50Z</time>
      </trkpt>
      <trkpt lat="44.90101" lon="-0.38741">
        <ele>30.2</ele>
        <time>2020-09-10T09:12:51Z</time>
      </trkpt>
      <trkpt lat="44.90101" lon="-0.38742">
        <ele>30.2</ele>
        <time>2020-09-10T09:12:52Z</time>
      </trkpt>
      <trkpt lat="44.901" lon="-0.38743">
        <ele>30.2</ele>
        <time>2020-09-10T09:12:53Z</time>
      </trkpt>
      <trkpt lat="44.90101" lon="-0.38744">
        <ele>30.1</ele>
        <time>2020-09-10T09:12:55Z</time>
      </trkpt>
      <trkpt lat="44.90101" lon="-0.38745">
        <ele>30.1</ele>
        <time>2020-09-10T09:12:56Z</time>
      </trkpt>
      <trkpt lat="44.901" lon="-0.38747">
        <ele>30.2</ele>
        <time>2020-09-10T09:12:58Z</time>
      </trkpt>
      <trkpt lat="44.90099" lon="-0.38748">
        <ele>30.2</ele>
        <time>2020-09-10T09:12:59Z</time>
      </trkpt>
      <trkpt lat="44.90097" lon="-0.3875">
        <ele>30.2</ele>
        <time>2020-09-10T09:13:00Z</time>
      </trkpt>
      <trkpt lat="44.90097" lon="-0.38751">
        <ele>30.2</ele>
        <time>2020-09-10T09:13:02Z</time>
      </trkpt>
      <trkpt lat="44.90096" lon="-0.38752">
        <ele>30.2</ele>
        <time>2020-09-10T09:13:03Z</time>
      </trkpt>
      <trkpt lat="44.90095" lon="-0.38753">
        <ele>30.2</ele>
        <time>2020-09-10T09:13:04Z</time>
      </trkpt>
      <trkpt lat="44.90095" lon="-0.38755">
        <ele>30.2</ele>
        <time>2020-09-10T09:13:05Z</time>
      </trkpt>
      <trkpt lat="44.90094" lon="-0.38756">
        <ele>30.2</ele>
        <time>2020-09-10T09:13:06Z</time>
      </trkpt>
      <trkpt lat="44.90093" lon="-0.38757">
        <ele>30.2</ele>
        <time>2020-09-10T09:13:08Z</time>
      </trkpt>
      <trkpt lat="44.90092" lon="-0.38758">
        <ele>30.2</ele>
        <time>2020-09-10T09:13:09Z</time>
      </trkpt>
      <trkpt lat="44.90091" lon="-0.38759">
        <ele>30.2</ele>
        <time>2020-09-10T09:13:10Z</time>
      </trkpt>
      <trkpt lat="44.90091" lon="-0.38759">
        <ele>30.2</ele>
        <time>2020-09-10T09:13:11Z</time>
      </trkpt>
      <trkpt lat="44.9009" lon="-0.3876">
        <ele>30.2</ele>
        <time>2020-09-10T09:13:12Z</time>
      </trkpt>
      <trkpt lat="44.90089" lon="-0.38761">
        <ele>30.3</ele>
        <time>2020-09-10T09:13:13Z</time>
      </trkpt>
      <trkpt lat="44.90088" lon="-0.38762">
        <ele>30.2</ele>
        <time>2020-09-10T09:13:14Z</time>
      </trkpt>
      <trkpt lat="44.90086" lon="-0.38764">
        <ele>30.3</ele>
        <time>2020-09-10T09:13:15Z</time>
      </trkpt>
      <trkpt lat="44.90085" lon="-0.38764">
        <ele>30.3</ele>
        <time>2020-09-10T09:13:17Z</time>
      </trkpt>
      <trkpt lat="44.90084" lon="-0.38765">
        <ele>30.3</ele>
        <time>2020-09-10T09:13:18Z</time>
      </trkpt>
      <trkpt lat="44.90083" lon="-0.38767">
        <ele>30.3</ele>
        <time>2020-09-10T09:13:19Z</time>
      </trkpt>
      <trkpt lat="44.90082" lon="-0.38768">
        <ele>30.3</ele>
        <time>2020-09-10T09:13:21Z</time>
      </trkpt>
      <trkpt lat="44.90081" lon="-0.38769">
        <ele>30.3</ele>
        <time>2020-09-10T09:13:22Z</time>
      </trkpt>
      <trkpt lat="44.90079" lon="-0.38771">
        <ele>30.3</ele>
        <time>2020-09-10T09:13:23Z</time>
      </trkpt>
      <trkpt lat="44.90078" lon="-0.38772">
        <ele>30.3</ele>
        <time>2020-09-10T09:13:24Z</time>
      </trkpt>
      <trkpt lat="44.90077" lon="-0.38773">
        <ele>30.3</ele>
        <time>2020-09-10T09:13:25Z</time>
      </trkpt>
      <trkpt lat="44.90076" lon="-0.38773">
        <ele>30.3</ele>
        <time>2020-09-10T09:13:26Z</time>
      </trkpt>
      <trkpt lat="44.90075" lon="-0.38774">
        <ele>30.3</ele>
        <time>2020-09-10T09:13:27Z</time>
      </trkpt>
      <trkpt lat="44.90074" lon="-0.38774">
        <ele>30.3</ele>
        <time>2020-09-10T09:13:28Z</time>
      </trkpt>
      <trkpt lat="44.90072" lon="-0.38775">
        <ele>30.3</ele>
        <time>2020-09-10T09:13:30Z</time>
      </trkpt>
      <trkpt lat="44.90071" lon="-0.38775">
        <ele>30.3</ele>
        <time>2020-09-10T09:13:31Z</time>
      </trkpt>
      <trkpt lat="44.90069" lon="-0.38776">
        <ele>30.3</ele>
        <time>2020-09-10T09:13:33Z</time>
      </trkpt>
      <trkpt lat="44.90068" lon="-0.38776">
        <ele>30.3</ele>
        <time>2020-09-10T09:13:34Z</time>
      </trkpt>
      <trkpt lat="44.90065" lon="-0.38778">
        <ele>30.4</ele>
        <time>2020-09-10T09:13:35Z</time>
      </trkpt>
      <trkpt lat="44.90064" lon="-0.38779">
        <ele>30.3</ele>
        <time>2020-09-10T09:13:37Z</time>
      </trkpt>
      <trkpt lat="44.90063" lon="-0.38779">
        <ele>30.4</ele>
        <time>2020-09-10T09:13:38Z</time>
      </trkpt>
      <trkpt lat="44.90062" lon="-0.3878">
        <ele>30.4</ele>
        <time>2020-09-10T09:13:39Z</time>
      </trkpt>
      <trkpt lat="44.90061" lon="-0.38781">
        <ele>30.4</ele>
        <time>2020-09-10T09:13:40Z</time>
      </trkpt>
      <trkpt lat="44.9006" lon="-0.38782">
        <ele>30.4</ele>
        <time>2020-09-10T09:13:41Z</time>
      </trkpt>
      <trkpt lat="44.90059" lon="-0.38783">
        <ele>30.3</ele>
        <time>2020-09-10T09:13:43Z</time>
      </trkpt>
      <trkpt lat="44.90058" lon="-0.38783">
        <ele>30.4</ele>
        <time>2020-09-10T09:13:44Z</time>
      </trkpt>
      <trkpt lat="44.90056" lon="-0.38785">
        <ele>30.5</ele>
        <time>2020-09-10T09:13:45Z</time>
      </trkpt>
      <trkpt lat="44.90054" lon="-0.38786">
        <ele>30.5</ele>
        <time>2020-09-10T09:13:47Z</time>
      </trkpt>
      <trkpt lat="44.90053" lon="-0.38787">
        <ele>30.4</ele>
        <time>2020-09-10T09:13:48Z</time>
      </trkpt>
      <trkpt lat="44.90051" lon="-0.38789">
        <ele>30.4</ele>
        <time>2020-09-10T09:13:50Z</time>
      </trkpt>
      <trkpt lat="44.9005" lon="-0.3879">
        <ele>30.5</ele>
        <time>2020-09-10T09:13:51Z</time>
      </trkpt>
      <trkpt lat="44.90049" lon="-0.38792">
        <ele>30.4</ele>
        <time>2020-09-10T09:13:53Z</time>
      </trkpt>
      <trkpt lat="44.90047" lon="-0.38794">
        <ele>30.5</ele>
        <time>2020-09-10T09:13:55Z</time>
      </trkpt>
      <trkpt lat="44.90046" lon="-0.38795">
        <ele>30.5</ele>
        <time>2020-09-10T09:13:56Z</time>
      </trkpt>
      <trkpt lat="44.90045" lon="-0.38796">
        <ele>30.4</ele>
        <time>2020-09-10T09:13:57Z</time>
      </trkpt>
      <trkpt lat="44.90045" lon="-0.38796">
        <ele>30.5</ele>
        <time>2020-09-10T09:13:58Z</time>
      </trkpt>
      <trkpt lat="44.90044" lon="-0.38798">
        <ele>30.5</ele>
        <time>2020-09-10T09:13:59Z</time>
      </trkpt>
      <trkpt lat="44.90043" lon="-0.388">
        <ele>30.4</ele>
        <time>2020-09-10T09:14:01Z</time>
      </trkpt>
      <trkpt lat="44.90043" lon="-0.38802">
        <ele>30.4</ele>
        <time>2020-09-10T09:14:02Z</time>
      </trkpt>
      <trkpt lat="44.90042" lon="-0.38803">
        <ele>30.5</ele>
        <time>2020-09-10T09:14:04Z</time>
      </trkpt>
      <trkpt lat="44.9004" lon="-0.38804">
        <ele>30.5</ele>
        <time>2020-09-10T09:14:05Z</time>
      </trkpt>
      <trkpt lat="44.9004" lon="-0.38804">
        <ele>30.5</ele>
        <time>2020-09-10T09:14:07Z</time>
      </trkpt>
      <trkpt lat="44.90039" lon="-0.38803">
        <ele>30.5</ele>
        <time>2020-09-10T09:14:08Z</time>
      </trkpt>
      <trkpt lat="44.90038" lon="-0.38802">
        <ele>30.5</ele>
        <time>2020-09-10T09:14:09Z</time>
      </trkpt>
      <trkpt lat="44.90037" lon="-0.388">
        <ele>30.5</ele>
        <time>2020-09-10T09:14:11Z</time>
      </trkpt>
      <trkpt lat="44.90037" lon="-0.38799">
        <ele>30.6</ele>
        <time>2020-09-10T09:14:12Z</time>
      </trkpt>
      <trkpt lat="44.90036" lon="-0.38797">
        <ele>30.6</ele>
        <time>2020-09-10T09:14:14Z</time>
      </trkpt>
      <trkpt lat="44.90035" lon="-0.38796">
        <ele>30.6</ele>
        <time>2020-09-10T09:14:15Z</time>
      </trkpt>
      <trkpt lat="44.90035" lon="-0.38794">
        <ele>30.6</ele>
        <time>2020-09-10T09:14:16Z</time>
      </trkpt>
      <trkpt lat="44.90034" lon="-0.38793">
        <ele>30.6</ele>
        <time>2020-09-10T09:14:18Z</time>
      </trkpt>
      <trkpt lat="44.90033" lon="-0.38792">
        <ele>30.6</ele>
        <time>2020-09-10T09:14:19Z</time>
      </trkpt>
      <trkpt lat="44.90033" lon="-0.38791">
        <ele>30.7</ele>
        <time>2020-09-10T09:14:20Z</time>
      </trkpt>
      <trkpt lat="44.90032" lon="-0.3879">
        <ele>30.7</ele>
        <time>2020-09-10T09:14:21Z</time>
      </trkpt>
      <trkpt lat="44.90031" lon="-0.38788">
        <ele>30.7</ele>
        <time>2020-09-10T09:14:22Z</time>
      </trkpt>
      <trkpt lat="44.9003" lon="-0.38785">
        <ele>30.8</ele>
        <time>2020-09-10T09:14:23Z</time>
      </trkpt>
      <trkpt lat="44.9003" lon="-0.38784">
        <ele>30.8</ele>
        <time>2020-09-10T09:14:25Z</time>
      </trkpt>
      <trkpt lat="44.90029" lon="-0.38783">
        <ele>30.8</ele>
        <time>2020-09-10T09:14:26Z</time>
      </trkpt>
      <trkpt lat="44.90028" lon="-0.38781">
        <ele>30.9</ele>
        <time>2020-09-10T09:14:27Z</time>
      </trkpt>
      <trkpt lat="44.90028" lon="-0.38779">
        <ele>30.9</ele>
        <time>2020-09-10T09:14:28Z</time>
      </trkpt>
      <trkpt lat="44.90027" lon="-0.38778">
        <ele>30.9</ele>
        <time>2020-09-10T09:14:29Z</time>
      </trkpt>
      <trkpt lat="44.90027" lon="-0.38777">
        <ele>30.9</ele>
        <time>2020-09-10T09:14:30Z</time>
      </trkpt>
      <trkpt lat="44.90026" lon="-0.38775">
        <ele>31</ele>
        <time>2020-09-10T09:14:31Z</time>
      </trkpt>
      <trkpt lat="44.90026" lon="-0.38773">
        <ele>31</ele>
        <time>2020-09-10T09:14:33Z</time>
      </trkpt>
      <trkpt lat="44.90025" lon="-0.38772">
        <ele>31</ele>
        <time>2020-09-10T09:14:34Z</time>
      </trkpt>
      <trkpt lat="44.90025" lon="-0.38771">
        <ele>31</ele>
        <time>2020-09-10T09:14:35Z</time>
      </trkpt>
      <trkpt lat="44.90024" lon="-0.3877">
        <ele>31.1</ele>
        <time>2020-09-10T09:14:37Z</time>
      </trkpt>
      <trkpt lat="44.90024" lon="-0.38769">
        <ele>31.1</ele>
        <time>2020-09-10T09:14:38Z</time>
      </trkpt>
      <trkpt lat="44.90024" lon="-0.38768">
        <ele>31.1</ele>
        <time>2020-09-10T09:14:39Z</time>
      </trkpt>
      <trkpt lat="44.90022" lon="-0.38766">
        <ele>31.1</ele>
        <time>2020-09-10T09:14:41Z</time>
      </trkpt>
      <trkpt lat="44.90021" lon="-0.38766">
        <ele>31.2</ele>
        <time>2020-09-10T09:14:42Z</time>
      </trkpt>
      <trkpt lat="44.9002" lon="-0.38766">
        <ele>31.2</ele>
        <time>2020-09-10T09:14:43Z</time>
      </trkpt>
      <trkpt lat="44.90019" lon="-0.38765">
        <ele>31.2</ele>
        <time>2020-09-10T09:14:45Z</time>
      </trkpt>
      <trkpt lat="44.90018" lon="-0.38763">
        <ele>31.2</ele>
        <time>2020-09-10T09:14:46Z</time>
      </trkpt>
      <trkpt lat="44.90018" lon="-0.38762">
        <ele>31.2</ele>
        <time>2020-09-10T09:14:47Z</time>
      </trkpt>
      <trkpt lat="44.90018" lon="-0.3876">
        <ele>31.3</ele>
        <time>2020-09-10T09:14:48Z</time>
      </trkpt>
      <trkpt lat="44.90018" lon="-0.38758">
        <ele>31.3</ele>
        <time>2020-09-10T09:14:49Z</time>
      </trkpt>
      <trkpt lat="44.90018" lon="-0.38757">
        <ele>31.3</ele>
        <time>2020-09-10T09:14:50Z</time>
      </trkpt>
      <trkpt lat="44.90017" lon="-0.38754">
        <ele>31.4</ele>
        <time>2020-09-10T09:14:52Z</time>
      </trkpt>
      <trkpt lat="44.90016" lon="-0.3875">
        <ele>31.4</ele>
        <time>2020-09-10T09:14:53Z</time>
      </trkpt>
      <trkpt lat="44.90016" lon="-0.38749">
        <ele>31.4</ele>
        <time>2020-09-10T09:14:54Z</time>
      </trkpt>
      <trkpt lat="44.90014" lon="-0.38746">
        <ele>31.5</ele>
        <time>2020-09-10T09:14:55Z</time>
      </trkpt>
      <trkpt lat="44.90013" lon="-0.38743">
        <ele>31.5</ele>
        <time>2020-09-10T09:14:56Z</time>
      </trkpt>
      <trkpt lat="44.90012" lon="-0.38742">
        <ele>31.5</ele>
        <time>2020-09-10T09:14:57Z</time>
      </trkpt>
      <trkpt lat="44.90011" lon="-0.3874">
        <ele>31.5</ele>
        <time>2020-09-10T09:14:58Z</time>
      </trkpt>
      <trkpt lat="44.90011" lon="-0.38738">
        <ele>31.5</ele>
        <time>2020-09-10T09:14:59Z</time>
      </trkpt>
      <trkpt lat="44.9001" lon="-0.38737">
        <ele>31.5</ele>
        <time>2020-09-10T09:15:01Z</time>
      </trkpt>
      <trkpt lat="44.90009" lon="-0.38735">
        <ele>31.6</ele>
        <time>2020-09-10T09:15:02Z</time>
      </trkpt>
      <trkpt lat="44.90008" lon="-0.38733">
        <ele>31.6</ele>
        <time>2020-09-10T09:15:03Z</time>
      </trkpt>
      <trkpt lat="44.90008" lon="-0.3873">
        <ele>31.6</ele>
        <time>2020-09-10T09:15:04Z</time>
      </trkpt>
      <trkpt lat="44.90007" lon="-0.38729">
        <ele>31.6</ele>
        <time>2020-09-10T09:15:05Z</time>
      </trkpt>
      <trkpt lat="44.90007" lon="-0.38728">
        <ele>31.6</ele>
        <time>2020-09-10T09:15:06Z</time>
      </trkpt>
      <trkpt lat="44.90006" lon="-0.38727">
        <ele>31.6</ele>
        <time>2020-09-10T09:15:08Z</time>
      </trkpt>
      <trkpt lat="44.90006" lon="-0.38725">
        <ele>31.6</ele>
        <time>2020-09-10T09:15:09Z</time>
      </trkpt>
      <trkpt lat="44.90005" lon="-0.38724">
        <ele>31.7</ele>
        <time>2020-09-10T09:15:10Z</time>
      </trkpt>
      <trkpt lat="44.90004" lon="-0.38721">
        <ele>31.7</ele>
        <time>2020-09-10T09:15:11Z</time>
      </trkpt>
      <trkpt lat="44.90003" lon="-0.3872">
        <ele>31.7</ele>
        <time>2020-09-10T09:15:13Z</time>
      </trkpt>
      <trkpt lat="44.90003" lon="-0.3872">
        <ele>31.7</ele>
        <time>2020-09-10T09:15:14Z</time>
      </trkpt>
      <trkpt lat="44.90002" lon="-0.38718">
        <ele>31.7</ele>
        <time>2020-09-10T09:15:15Z</time>
      </trkpt>
      <trkpt lat="44.90001" lon="-0.38716">
        <ele>31.7</ele>
        <time>2020-09-10T09:15:16Z</time>
      </trkpt>
      <trkpt lat="44.90001" lon="-0.38715">
        <ele>31.7</ele>
        <time>2020-09-10T09:15:17Z</time>
      </trkpt>
      <trkpt lat="44.9" lon="-0.38714">
        <ele>31.7</ele>
        <time>2020-09-10T09:15:18Z</time>
      </trkpt>
      <trkpt lat="44.89999" lon="-0.38713">
        <ele>31.8</ele>
        <time>2020-09-10T09:15:19Z</time>
      </trkpt>
      <trkpt lat="44.89998" lon="-0.38711">
        <ele>31.8</ele>
        <time>2020-09-10T09:15:21Z</time>
      </trkpt>
      <trkpt lat="44.89997" lon="-0.38709">
        <ele>31.8</ele>
        <time>2020-09-10T09:15:22Z</time>
      </trkpt>
      <trkpt lat="44.89996" lon="-0.38708">
        <ele>31.8</ele>
        <time>2020-09-10T09:15:23Z</time>
      </trkpt>
      <trkpt lat="44.89996" lon="-0.38707">
        <ele>31.8</ele>
        <time>2020-09-10T09:15:24Z</time>
      </trkpt>
      <trkpt lat="44.89995" lon="-0.38706">
        <ele>31.8</ele>
        <time>2020-09-10T09:15:25Z</time>
      </trkpt>
      <trkpt lat="44.89994" lon="-0.38704">
        <ele>31.8</ele>
        <time>2020-09-10T09:15:26Z</time>
      </trkpt>
      <trkpt lat="44.89993" lon="-0.38703">
        <ele>31.8</ele>
        <time>2020-09-10T09:15:28Z</time>
      </trkpt>
      <trkpt lat="44.89993" lon="-0.38701">
        <ele>31.8</ele>
        <time>2020-09-10T09:15:29Z</time>
      </trkpt>
      <trkpt lat="44.89992" lon="-0.387">
        <ele>31.8</ele>
        <time>2020-09-10T09:15:30Z</time>
      </trkpt>
      <trkpt lat="44.89991" lon="-0.38699">
        <ele>31.8</ele>
        <time>2020-09-10T09:15:31Z</time>
      </trkpt>
      <trkpt lat="44.8999" lon="-0.38698">
        <ele>31.8</ele>
        <time>2020-09-10T09:15:32Z</time>
      </trkpt>
      <trkpt lat="44.89989" lon="-0.38697">
        <ele>31.8</ele>
        <time>2020-09-10T09:15:33Z</time>
      </trkpt>
      <trkpt lat="44.89988" lon="-0.38697">
        <ele>31.8</ele>
        <time>2020-09-10T09:15:34Z</time>
      </trkpt>
      <trkpt lat="44.89986" lon="-0.38694">
        <ele>31.9</ele>
        <time>2020-09-10T09:15:36Z</time>
      </trkpt>
      <trkpt lat="44.89984" lon="-0.38693">
        <ele>31.9</ele>
        <time>2020-09-10T09:15:37Z</time>
      </trkpt>
      <trkpt lat="44.89983" lon="-0.38692">
        <ele>31.9</ele>
        <time>2020-09-10T09:15:39Z</time>
      </trkpt>
      <trkpt lat="44.89982" lon="-0.38691">
        <ele>31.9</ele>
        <time>2020-09-10T09:15:40Z</time>
      </trkpt>
      <trkpt lat="44.8998" lon="-0.38689">
        <ele>31.9</ele>
        <time>2020-09-10T09:15:42Z</time>
      </trkpt>
      <trkpt lat="44.8998" lon="-0.38689">
        <ele>31.9</ele>
        <time>2020-09-10T09:15:43Z</time>
      </trkpt>
      <trkpt lat="44.89978" lon="-0.38688">
        <ele>32</ele>
        <time>2020-09-10T09:15:44Z</time>
      </trkpt>
      <trkpt lat="44.89977" lon="-0.38687">
        <ele>32</ele>
        <time>2020-09-10T09:15:45Z</time>
      </trkpt>
      <trkpt lat="44.89976" lon="-0.38686">
        <ele>32</ele>
        <time>2020-09-10T09:15:46Z</time>
      </trkpt>
      <trkpt lat="44.89974" lon="-0.38685">
        <ele>32</ele>
        <time>2020-09-10T09:15:48Z</time>
      </trkpt>
      <trkpt lat="44.89974" lon="-0.38684">
        <ele>32</ele>
        <time>2020-09-10T09:15:49Z</time>
      </trkpt>
      <trkpt lat="44.89973" lon="-0.38684">
        <ele>32</ele>
        <time>2020-09-10T09:15:50Z</time>
      </trkpt>
      <trkpt lat="44.89971" lon="-0.38683">
        <ele>32</ele>
        <time>2020-09-10T09:15:51Z</time>
      </trkpt>
      <trkpt lat="44.89971" lon="-0.38683">
        <ele>32</ele>
        <time>2020-09-10T09:15:52Z</time>
      </trkpt>
      <trkpt lat="44.8997" lon="-0.38682">
        <ele>32</ele>
        <time>2020-09-10T09:15:54Z</time>
      </trkpt>
      <trkpt lat="44.89969" lon="-0.38681">
        <ele>32.1</ele>
        <time>2020-09-10T09:15:55Z</time>
      </trkpt>
      <trkpt lat="44.89968" lon="-0.3868">
        <ele>32.1</ele>
        <time>2020-09-10T09:15:56Z</time>
      </trkpt>
      <trkpt lat="44.89967" lon="-0.3868">
        <ele>32.1</ele>
        <time>2020-09-10T09:15:57Z</time>
      </trkpt>
      <trkpt lat="44.89967" lon="-0.38679">
        <ele>32.1</ele>
        <time>2020-09-10T09:15:59Z</time>
      </trkpt>
      <trkpt lat="44.89966" lon="-0.38677">
        <ele>32.1</ele>
        <time>2020-09-10T09:16:00Z</time>
      </trkpt>
      <trkpt lat="44.89964" lon="-0.38676">
        <ele>32.1</ele>
        <time>2020-09-10T09:16:02Z</time>
      </trkpt>
      <trkpt lat="44.89964" lon="-0.38677">
        <ele>32.1</ele>
        <time>2020-09-10T09:16:03Z</time>
      </trkpt>
      <trkpt lat="44.89963" lon="-0.38678">
        <ele>32.1</ele>
        <time>2020-09-10T09:16:04Z</time>
      </trkpt>
      <trkpt lat="44.89962" lon="-0.38682">
        <ele>32.1</ele>
        <time>2020-09-10T09:16:07Z</time>
      </trkpt>
      <trkpt lat="44.89962" lon="-0.38683">
        <ele>32.1</ele>
        <time>2020-09-10T09:16:09Z</time>
      </trkpt>
      <trkpt lat="44.89963" lon="-0.38683">
        <ele>32.1</ele>
        <time>2020-09-10T09:16:11Z</time>
      </trkpt>
      <trkpt lat="44.89963" lon="-0.38685">
        <ele>32.1</ele>
        <time>2020-09-10T09:16:12Z</time>
      </trkpt>
      <trkpt lat="44.89962" lon="-0.38686">
        <ele>32.1</ele>
        <time>2020-09-10T09:16:14Z</time>
      </trkpt>
      <trkpt lat="44.89962" lon="-0.38688">
        <ele>32.1</ele>
        <time>2020-09-10T09:16:17Z</time>
      </trkpt>
      <trkpt lat="44.89961" lon="-0.38689">
        <ele>32.1</ele>
        <time>2020-09-10T09:16:18Z</time>
      </trkpt>
      <trkpt lat="44.89961" lon="-0.38689">
        <ele>32.1</ele>
        <time>2020-09-10T09:16:20Z</time>
      </trkpt>
      <trkpt lat="44.89961" lon="-0.3869">
        <ele>32.1</ele>
        <time>2020-09-10T09:16:22Z</time>
      </trkpt>
      <trkpt lat="44.89961" lon="-0.3869">
        <ele>32.1</ele>
        <time>2020-09-10T09:16:23Z</time>
      </trkpt>
      <trkpt lat="44.89961" lon="-0.3869">
        <ele>32.1</ele>
        <time>2020-09-10T09:16:25Z</time>
      </trkpt>
      <trkpt lat="44.89962" lon="-0.3869">
        <ele>32.1</ele>
        <time>2020-09-10T09:16:26Z</time>
      </trkpt>
      <trkpt lat="44.89962" lon="-0.3869">
        <ele>32.1</ele>
        <time>2020-09-10T09:16:28Z</time>
      </trkpt>
      <trkpt lat="44.89962" lon="-0.3869">
        <ele>32.1</ele>
        <time>2020-09-10T09:16:29Z</time>
      </trkpt>
      <trkpt lat="44.89962" lon="-0.3869">
        <ele>32.1</ele>
        <time>2020-09-10T09:16:31Z</time>
      </trkpt>
      <trkpt lat="44.89962" lon="-0.3869">
        <ele>32.1</ele>
        <time>2020-09-10T09:16:33Z</time>
      </trkpt>
      <trkpt lat="44.89962" lon="-0.3869">
        <ele>32.1</ele>
        <time>2020-09-10T09:16:35Z</time>
      </trkpt>
      <trkpt lat="44.89962" lon="-0.3869">
        <ele>32.1</ele>
        <time>2020-09-10T09:16:36Z</time>
      </trkpt>
      <trkpt lat="44.89964" lon="-0.38688">
        <ele>32.1</ele>
        <time>2020-09-10T09:16:38Z</time>
      </trkpt>
      <trkpt lat="44.89966" lon="-0.38684">
        <ele>32.1</ele>
        <time>2020-09-10T09:16:40Z</time>
      </trkpt>
      <trkpt lat="44.89963" lon="-0.38688">
        <ele>32.1</ele>
        <time>2020-09-10T09:16:42Z</time>
      </trkpt>
      <trkpt lat="44.89963" lon="-0.3869">
        <ele>32.1</ele>
        <time>2020-09-10T09:16:44Z</time>
      </trkpt>
      <trkpt lat="44.89963" lon="-0.38691">
        <ele>32.1</ele>
        <time>2020-09-10T09:16:45Z</time>
      </trkpt>
      <trkpt lat="44.89964" lon="-0.38693">
        <ele>32.1</ele>
        <time>2020-09-10T09:16:47Z</time>
      </trkpt>
      <trkpt lat="44.89964" lon="-0.38693">
        <ele>32.1</ele>
        <time>2020-09-10T09:16:48Z</time>
      </trkpt>
      <trkpt lat="44.89964" lon="-0.38692">
        <ele>32.1</ele>
        <time>2020-09-10T09:16:49Z</time>
      </trkpt>
      <trkpt lat="44.89965" lon="-0.3869">
        <ele>32.1</ele>
        <time>2020-09-10T09:16:51Z</time>
      </trkpt>
      <trkpt lat="44.89966" lon="-0.3869">
        <ele>32.1</ele>
        <time>2020-09-10T09:16:52Z</time>
      </trkpt>
      <trkpt lat="44.89966" lon="-0.38688">
        <ele>32.1</ele>
        <time>2020-09-10T09:16:54Z</time>
      </trkpt>
      <trkpt lat="44.89966" lon="-0.38687">
        <ele>32.1</ele>
        <time>2020-09-10T09:16:55Z</time>
      </trkpt>
      <trkpt lat="44.89966" lon="-0.38687">
        <ele>32.1</ele>
        <time>2020-09-10T09:16:56Z</time>
      </trkpt>
      <trkpt lat="44.89966" lon="-0.38685">
        <ele>32.1</ele>
        <time>2020-09-10T09:16:57Z</time>
      </trkpt>
      <trkpt lat="44.89966" lon="-0.38684">
        <ele>32.1</ele>
        <time>2020-09-10T09:16:59Z</time>
      </trkpt>
      <trkpt lat="44.89966" lon="-0.38684">
        <ele>32.1</ele>
        <time>2020-09-10T09:17:00Z</time>
      </trkpt>
      <trkpt lat="44.89966" lon="-0.38685">
        <ele>32.1</ele>
        <time>2020-09-10T09:17:01Z</time>
      </trkpt>
      <trkpt lat="44.89963" lon="-0.38684">
        <ele>32.1</ele>
        <time>2020-09-10T09:17:02Z</time>
      </trkpt>
      <trkpt lat="44.89962" lon="-0.38684">
        <ele>32.2</ele>
        <time>2020-09-10T09:17:04Z</time>
      </trkpt>
      <trkpt lat="44.89961" lon="-0.38683">
        <ele>32.2</ele>
        <time>2020-09-10T09:17:05Z</time>
      </trkpt>
      <trkpt lat="44.89959" lon="-0.38682">
        <ele>32.2</ele>
        <time>2020-09-10T09:17:07Z</time>
      </trkpt>
      <trkpt lat="44.89959" lon="-0.38681">
        <ele>32.2</ele>
        <time>2020-09-10T09:17:08Z</time>
      </trkpt>
      <trkpt lat="44.89958" lon="-0.3868">
        <ele>32.2</ele>
        <time>2020-09-10T09:17:09Z</time>
      </trkpt>
      <trkpt lat="44.89957" lon="-0.38679">
        <ele>32.2</ele>
        <time>2020-09-10T09:17:10Z</time>
      </trkpt>
      <trkpt lat="44.89957" lon="-0.38677">
        <ele>32.2</ele>
        <time>2020-09-10T09:17:11Z</time>
      </trkpt>
      <trkpt lat="44.89955" lon="-0.38675">
        <ele>32.3</ele>
        <time>2020-09-10T09:17:12Z</time>
      </trkpt>
      <trkpt lat="44.89954" lon="-0.38674">
        <ele>32.3</ele>
        <time>2020-09-10T09:17:13Z</time>
      </trkpt>
      <trkpt lat="44.89953" lon="-0.38669">
        <ele>32.3</ele>
        <time>2020-09-10T09:17:15Z</time>
      </trkpt>
      <trkpt lat="44.89953" lon="-0.38668">
        <ele>32.3</ele>
        <time>2020-09-10T09:17:16Z</time>
      </trkpt>
      <trkpt lat="44.89952" lon="-0.38664">
        <ele>32.4</ele>
        <time>2020-09-10T09:17:17Z</time>
      </trkpt>
      <trkpt lat="44.89952" lon="-0.38659">
        <ele>32.4</ele>
        <time>2020-09-10T09:17:19Z</time>
      </trkpt>
      <trkpt lat="44.89952" lon="-0.38658">
        <ele>32.4</ele>
        <time>2020-09-10T09:17:20Z</time>
      </trkpt>
      <trkpt lat="44.89952" lon="-0.38655">
        <ele>32.4</ele>
        <time>2020-09-10T09:17:21Z</time>
      </trkpt>
      <trkpt lat="44.89952" lon="-0.38653">
        <ele>32.4</ele>
        <time>2020-09-10T09:17:23Z</time>
      </trkpt>
      <trkpt lat="44.89952" lon="-0.3865">
        <ele>32.4</ele>
        <time>2020-09-10T09:17:24Z</time>
      </trkpt>
      <trkpt lat="44.89952" lon="-0.38649">
        <ele>32.4</ele>
        <time>2020-09-10T09:17:25Z</time>
      </trkpt>
      <trkpt lat="44.89951" lon="-0.38647">
        <ele>32.4</ele>
        <time>2020-09-10T09:17:26Z</time>
      </trkpt>
      <trkpt lat="44.89951" lon="-0.38645">
        <ele>32.4</ele>
        <time>2020-09-10T09:17:27Z</time>
      </trkpt>
      <trkpt lat="44.8995" lon="-0.38643">
        <ele>32.4</ele>
        <time>2020-09-10T09:17:29Z</time>
      </trkpt>
      <trkpt lat="44.8995" lon="-0.38641">
        <ele>32.4</ele>
        <time>2020-09-10T09:17:30Z</time>
      </trkpt>
      <trkpt lat="44.8995" lon="-0.38639">
        <ele>32.4</ele>
        <time>2020-09-10T09:17:31Z</time>
      </trkpt>
      <trkpt lat="44.89949" lon="-0.38638">
        <ele>32.4</ele>
        <time>2020-09-10T09:17:32Z</time>
      </trkpt>
      <trkpt lat="44.89949" lon="-0.38636">
        <ele>32.4</ele>
        <time>2020-09-10T09:17:33Z</time>
      </trkpt>
      <trkpt lat="44.89948" lon="-0.38635">
        <ele>32.4</ele>
        <time>2020-09-10T09:17:35Z</time>
      </trkpt>
      <trkpt lat="44.89948" lon="-0.38635">
        <ele>32.4</ele>
        <time>2020-09-10T09:17:36Z</time>
      </trkpt>
      <trkpt lat="44.89948" lon="-0.38635">
        <ele>32.4</ele>
        <time>2020-09-10T09:17:37Z</time>
      </trkpt>
      <trkpt lat="44.89948" lon="-0.38636">
        <ele>32.4</ele>
        <time>2020-09-10T09:17:38Z</time>
      </trkpt>
      <trkpt lat="44.89948" lon="-0.38635">
        <ele>32.4</ele>
        <time>2020-09-10T09:17:39Z</time>
      </trkpt>
      <trkpt lat="44.89947" lon="-0.38633">
        <ele>32.4</ele>
        <time>2020-09-10T09:17:41Z</time>
      </trkpt>
      <trkpt lat="44.89947" lon="-0.38632">
        <ele>32.4</ele>
        <time>2020-09-10T09:17:43Z</time>
      </trkpt>
      <trkpt lat="44.89946" lon="-0.38629">
        <ele>32.4</ele>
        <time>2020-09-10T09:17:44Z</time>
      </trkpt>
      <trkpt lat="44.89944" lon="-0.38629">
        <ele>32.4</ele>
        <time>2020-09-10T09:17:45Z</time>
      </trkpt>
      <trkpt lat="44.89943" lon="-0.38629">
        <ele>32.4</ele>
        <time>2020-09-10T09:17:46Z</time>
      </trkpt>
      <trkpt lat="44.89941" lon="-0.38628">
        <ele>32.4</ele>
        <time>2020-09-10T09:17:47Z</time>
      </trkpt>
      <trkpt lat="44.8994" lon="-0.38627">
        <ele>32.4</ele>
        <time>2020-09-10T09:17:48Z</time>
      </trkpt>
      <trkpt lat="44.89938" lon="-0.38625">
        <ele>32.4</ele>
        <time>2020-09-10T09:17:50Z</time>
      </trkpt>
      <trkpt lat="44.89938" lon="-0.38624">
        <ele>32.3</ele>
        <time>2020-09-10T09:17:51Z</time>
      </trkpt>
      <trkpt lat="44.89937" lon="-0.38623">
        <ele>32.3</ele>
        <time>2020-09-10T09:17:52Z</time>
      </trkpt>
      <trkpt lat="44.89936" lon="-0.38622">
        <ele>32.3</ele>
        <time>2020-09-10T09:17:53Z</time>
      </trkpt>
      <trkpt lat="44.89935" lon="-0.38619">
        <ele>32.3</ele>
        <time>2020-09-10T09:17:54Z</time>
      </trkpt>
      <trkpt lat="44.89935" lon="-0.38619">
        <ele>32.3</ele>
        <time>2020-09-10T09:17:55Z</time>
      </trkpt>
      <trkpt lat="44.89934" lon="-0.38618">
        <ele>32.3</ele>
        <time>2020-09-10T09:17:56Z</time>
      </trkpt>
      <trkpt lat="44.89933" lon="-0.38616">
        <ele>32.3</ele>
        <time>2020-09-10T09:17:57Z</time>
      </trkpt>
      <trkpt lat="44.89932" lon="-0.38615">
        <ele>32.2</ele>
        <time>2020-09-10T09:17:59Z</time>
      </trkpt>
      <trkpt lat="44.89931" lon="-0.38614">
        <ele>32.2</ele>
        <time>2020-09-10T09:18:00Z</time>
      </trkpt>
      <trkpt lat="44.8993" lon="-0.38613">
        <ele>32.2</ele>
        <time>2020-09-10T09:18:01Z</time>
      </trkpt>
      <trkpt lat="44.8993" lon="-0.38612">
        <ele>32.2</ele>
        <time>2020-09-10T09:18:02Z</time>
      </trkpt>
      <trkpt lat="44.89929" lon="-0.3861">
        <ele>32.1</ele>
        <time>2020-09-10T09:18:03Z</time>
      </trkpt>
      <trkpt lat="44.89928" lon="-0.38608">
        <ele>32.1</ele>
        <time>2020-09-10T09:18:04Z</time>
      </trkpt>
      <trkpt lat="44.89927" lon="-0.38607">
        <ele>32.1</ele>
        <time>2020-09-10T09:18:05Z</time>
      </trkpt>
      <trkpt lat="44.89927" lon="-0.38605">
        <ele>32.1</ele>
        <time>2020-09-10T09:18:06Z</time>
      </trkpt>
      <trkpt lat="44.89926" lon="-0.38603">
        <ele>32.1</ele>
        <time>2020-09-10T09:18:08Z</time>
      </trkpt>
      <trkpt lat="44.89925" lon="-0.386">
        <ele>32</ele>
        <time>2020-09-10T09:18:09Z</time>
      </trkpt>
      <trkpt lat="44.89924" lon="-0.38598">
        <ele>32</ele>
        <time>2020-09-10T09:18:10Z</time>
      </trkpt>
      <trkpt lat="44.89923" lon="-0.38597">
        <ele>31.9</ele>
        <time>2020-09-10T09:18:11Z</time>
      </trkpt>
      <trkpt lat="44.89923" lon="-0.38596">
        <ele>31.9</ele>
        <time>2020-09-10T09:18:12Z</time>
      </trkpt>
      <trkpt lat="44.89922" lon="-0.38594">
        <ele>31.9</ele>
        <time>2020-09-10T09:18:13Z</time>
      </trkpt>
      <trkpt lat="44.89921" lon="-0.38591">
        <ele>31.8</ele>
        <time>2020-09-10T09:18:15Z</time>
      </trkpt>
      <trkpt lat="44.8992" lon="-0.3859">
        <ele>31.8</ele>
        <time>2020-09-10T09:18:16Z</time>
      </trkpt>
      <trkpt lat="44.89919" lon="-0.38588">
        <ele>31.7</ele>
        <time>2020-09-10T09:18:17Z</time>
      </trkpt>
      <trkpt lat="44.89917" lon="-0.38584">
        <ele>31.6</ele>
        <time>2020-09-10T09:18:19Z</time>
      </trkpt>
      <trkpt lat="44.89916" lon="-0.38583">
        <ele>31.6</ele>
        <time>2020-09-10T09:18:21Z</time>
      </trkpt>
      <trkpt lat="44.89915" lon="-0.38583">
        <ele>31.6</ele>
        <time>2020-09-10T09:18:22Z</time>
      </trkpt>
      <trkpt lat="44.89914" lon="-0.38584">
        <ele>31.6</ele>
        <time>2020-09-10T09:18:23Z</time>
      </trkpt>
      <trkpt lat="44.89913" lon="-0.38587">
        <ele>31.7</ele>
        <time>2020-09-10T09:18:25Z</time>
      </trkpt>
      <trkpt lat="44.89913" lon="-0.38589">
        <ele>31.7</ele>
        <time>2020-09-10T09:18:27Z</time>
      </trkpt>
      <trkpt lat="44.89912" lon="-0.38591">
        <ele>31.8</ele>
        <time>2020-09-10T09:18:28Z</time>
      </trkpt>
      <trkpt lat="44.8991" lon="-0.38595">
        <ele>31.9</ele>
        <time>2020-09-10T09:18:30Z</time>
      </trkpt>
      <trkpt lat="44.8991" lon="-0.38595">
        <ele>31.9</ele>
        <time>2020-09-10T09:18:31Z</time>
      </trkpt>
      <trkpt lat="44.89909" lon="-0.38597">
        <ele>31.9</ele>
        <time>2020-09-10T09:18:32Z</time>
      </trkpt>
      <trkpt lat="44.89908" lon="-0.38598">
        <ele>31.9</ele>
        <time>2020-09-10T09:18:34Z</time>
      </trkpt>
      <trkpt lat="44.89907" lon="-0.386">
        <ele>31.9</ele>
        <time>2020-09-10T09:18:35Z</time>
      </trkpt>
      <trkpt lat="44.89906" lon="-0.38601">
        <ele>31.9</ele>
        <time>2020-09-10T09:18:36Z</time>
      </trkpt>
      <trkpt lat="44.89905" lon="-0.38604">
        <ele>32</ele>
        <time>2020-09-10T09:18:37Z</time>
      </trkpt>
      <trkpt lat="44.89904" lon="-0.38606">
        <ele>32</ele>
        <time>2020-09-10T09:18:38Z</time>
      </trkpt>
      <trkpt lat="44.89903" lon="-0.38607">
        <ele>32.1</ele>
        <time>2020-09-10T09:18:39Z</time>
      </trkpt>
      <trkpt lat="44.89902" lon="-0.3861">
        <ele>32.1</ele>
        <time>2020-09-10T09:18:40Z</time>
      </trkpt>
      <trkpt lat="44.89902" lon="-0.38612">
        <ele>32.2</ele>
        <time>2020-09-10T09:18:42Z</time>
      </trkpt>
      <trkpt lat="44.89901" lon="-0.38614">
        <ele>32.2</ele>
        <time>2020-09-10T09:18:43Z</time>
      </trkpt>
      <trkpt lat="44.899" lon="-0.38616">
        <ele>32.3</ele>
        <time>2020-09-10T09:18:44Z</time>
      </trkpt>
      <trkpt lat="44.89899" lon="-0.38618">
        <ele>32.2</ele>
        <time>2020-09-10T09:18:46Z</time>
      </trkpt>
      <trkpt lat="44.89898" lon="-0.38619">
        <ele>32.2</ele>
        <time>2020-09-10T09:18:47Z</time>
      </trkpt>
      <trkpt lat="44.89898" lon="-0.3862">
        <ele>32.3</ele>
        <time>2020-09-10T09:18:48Z</time>
      </trkpt>
      <trkpt lat="44.89896" lon="-0.38621">
        <ele>32.3</ele>
        <time>2020-09-10T09:18:49Z</time>
      </trkpt>
      <trkpt lat="44.89895" lon="-0.38621">
        <ele>32.3</ele>
        <time>2020-09-10T09:18:51Z</time>
      </trkpt>
      <trkpt lat="44.89894" lon="-0.38622">
        <ele>32.3</ele>
        <time>2020-09-10T09:18:52Z</time>
      </trkpt>
      <trkpt lat="44.89892" lon="-0.38624">
        <ele>32.3</ele>
        <time>2020-09-10T09:18:55Z</time>
      </trkpt>
      <trkpt lat="44.89892" lon="-0.38625">
        <ele>32.3</ele>
        <time>2020-09-10T09:18:56Z</time>
      </trkpt>
      <trkpt lat="44.89891" lon="-0.38626">
        <ele>32.4</ele>
        <time>2020-09-10T09:18:57Z</time>
      </trkpt>
      <trkpt lat="44.8989" lon="-0.38627">
        <ele>32.4</ele>
        <time>2020-09-10T09:18:58Z</time>
      </trkpt>
      <trkpt lat="44.89889" lon="-0.38628">
        <ele>32.4</ele>
        <time>2020-09-10T09:18:59Z</time>
      </trkpt>
      <trkpt lat="44.89889" lon="-0.38629">
        <ele>32.4</ele>
        <time>2020-09-10T09:19:00Z</time>
      </trkpt>
      <trkpt lat="44.89888" lon="-0.3863">
        <ele>32.4</ele>
        <time>2020-09-10T09:19:01Z</time>
      </trkpt>
      <trkpt lat="44.89887" lon="-0.38631">
        <ele>32.4</ele>
        <time>2020-09-10T09:19:02Z</time>
      </trkpt>
      <trkpt lat="44.89886" lon="-0.38632">
        <ele>32.3</ele>
        <time>2020-09-10T09:19:04Z</time>
      </trkpt>
      <trkpt lat="44.89885" lon="-0.38633">
        <ele>32.4</ele>
        <time>2020-09-10T09:19:05Z</time>
      </trkpt>
      <trkpt lat="44.89884" lon="-0.38634">
        <ele>32.4</ele>
        <time>2020-09-10T09:19:07Z</time>
      </trkpt>
      <trkpt lat="44.89883" lon="-0.38636">
        <ele>32.4</ele>
        <time>2020-09-10T09:19:08Z</time>
      </trkpt>
      <trkpt lat="44.89881" lon="-0.38637">
        <ele>32.4</ele>
        <time>2020-09-10T09:19:10Z</time>
      </trkpt>
      <trkpt lat="44.89881" lon="-0.38638">
        <ele>32.3</ele>
        <time>2020-09-10T09:19:11Z</time>
      </trkpt>
      <trkpt lat="44.8988" lon="-0.38638">
        <ele>32.3</ele>
        <time>2020-09-10T09:19:12Z</time>
      </trkpt>
      <trkpt lat="44.89878" lon="-0.38639">
        <ele>32.3</ele>
        <time>2020-09-10T09:19:13Z</time>
      </trkpt>
      <trkpt lat="44.89877" lon="-0.38641">
        <ele>32.3</ele>
        <time>2020-09-10T09:19:15Z</time>
      </trkpt>
      <trkpt lat="44.89875" lon="-0.38641">
        <ele>32.3</ele>
        <time>2020-09-10T09:19:16Z</time>
      </trkpt>
      <trkpt lat="44.89874" lon="-0.38642">
        <ele>32.2</ele>
        <time>2020-09-10T09:19:17Z</time>
      </trkpt>
      <trkpt lat="44.89872" lon="-0.38643">
        <ele>32.3</ele>
        <time>2020-09-10T09:19:19Z</time>
      </trkpt>
      <trkpt lat="44.89871" lon="-0.38645">
        <ele>32.2</ele>
        <time>2020-09-10T09:19:20Z</time>
      </trkpt>
      <trkpt lat="44.89869" lon="-0.38645">
        <ele>32.2</ele>
        <time>2020-09-10T09:19:21Z</time>
      </trkpt>
      <trkpt lat="44.89867" lon="-0.38647">
        <ele>32.1</ele>
        <time>2020-09-10T09:19:22Z</time>
      </trkpt>
      <trkpt lat="44.89866" lon="-0.38647">
        <ele>32.1</ele>
        <time>2020-09-10T09:19:23Z</time>
      </trkpt>
      <trkpt lat="44.89865" lon="-0.38648">
        <ele>32.1</ele>
        <time>2020-09-10T09:19:24Z</time>
      </trkpt>
      <trkpt lat="44.89865" lon="-0.38649">
        <ele>32.1</ele>
        <time>2020-09-10T09:19:26Z</time>
      </trkpt>
      <trkpt lat="44.89864" lon="-0.38649">
        <ele>32.1</ele>
        <time>2020-09-10T09:19:27Z</time>
      </trkpt>
      <trkpt lat="44.89863" lon="-0.3865">
        <ele>32</ele>
        <time>2020-09-10T09:19:28Z</time>
      </trkpt>
      <trkpt lat="44.89862" lon="-0.38651">
        <ele>32</ele>
        <time>2020-09-10T09:19:29Z</time>
      </trkpt>
      <trkpt lat="44.8986" lon="-0.38652">
        <ele>32</ele>
        <time>2020-09-10T09:19:30Z</time>
      </trkpt>
      <trkpt lat="44.89859" lon="-0.38653">
        <ele>31.9</ele>
        <time>2020-09-10T09:19:31Z</time>
      </trkpt>
      <trkpt lat="44.89858" lon="-0.38654">
        <ele>31.9</ele>
        <time>2020-09-10T09:19:32Z</time>
      </trkpt>
      <trkpt lat="44.89857" lon="-0.38655">
        <ele>31.9</ele>
        <time>2020-09-10T09:19:33Z</time>
      </trkpt>
      <trkpt lat="44.89855" lon="-0.38657">
        <ele>31.8</ele>
        <time>2020-09-10T09:19:34Z</time>
      </trkpt>
      <trkpt lat="44.89854" lon="-0.38657">
        <ele>31.8</ele>
        <time>2020-09-10T09:19:36Z</time>
      </trkpt>
      <trkpt lat="44.89853" lon="-0.38658">
        <ele>31.7</ele>
        <time>2020-09-10T09:19:37Z</time>
      </trkpt>
      <trkpt lat="44.89852" lon="-0.38659">
        <ele>31.7</ele>
        <time>2020-09-10T09:19:38Z</time>
      </trkpt>
      <trkpt lat="44.89852" lon="-0.3866">
        <ele>31.7</ele>
        <time>2020-09-10T09:19:39Z</time>
      </trkpt>
      <trkpt lat="44.8985" lon="-0.38661">
        <ele>31.6</ele>
        <time>2020-09-10T09:19:40Z</time>
      </trkpt>
      <trkpt lat="44.8985" lon="-0.38663">
        <ele>31.6</ele>
        <time>2020-09-10T09:19:41Z</time>
      </trkpt>
      <trkpt lat="44.89849" lon="-0.38663">
        <ele>31.6</ele>
        <time>2020-09-10T09:19:42Z</time>
      </trkpt>
      <trkpt lat="44.89847" lon="-0.38666">
        <ele>31.5</ele>
        <time>2020-09-10T09:19:44Z</time>
      </trkpt>
      <trkpt lat="44.89846" lon="-0.38667">
        <ele>31.5</ele>
        <time>2020-09-10T09:19:45Z</time>
      </trkpt>
      <trkpt lat="44.89846" lon="-0.38668">
        <ele>31.5</ele>
        <time>2020-09-10T09:19:47Z</time>
      </trkpt>
      <trkpt lat="44.89845" lon="-0.38669">
        <ele>31.5</ele>
        <time>2020-09-10T09:19:48Z</time>
      </trkpt>
      <trkpt lat="44.89844" lon="-0.3867">
        <ele>31.4</ele>
        <time>2020-09-10T09:19:49Z</time>
      </trkpt>
      <trkpt lat="44.89842" lon="-0.38671">
        <ele>31.4</ele>
        <time>2020-09-10T09:19:50Z</time>
      </trkpt>
      <trkpt lat="44.89841" lon="-0.38671">
        <ele>31.3</ele>
        <time>2020-09-10T09:19:51Z</time>
      </trkpt>
      <trkpt lat="44.89839" lon="-0.38673">
        <ele>31.3</ele>
        <time>2020-09-10T09:19:52Z</time>
      </trkpt>
      <trkpt lat="44.89839" lon="-0.38673">
        <ele>31.3</ele>
        <time>2020-09-10T09:19:53Z</time>
      </trkpt>
      <trkpt lat="44.89838" lon="-0.38674">
        <ele>31.2</ele>
        <time>2020-09-10T09:19:54Z</time>
      </trkpt>
      <trkpt lat="44.89836" lon="-0.38675">
        <ele>31.2</ele>
        <time>2020-09-10T09:19:55Z</time>
      </trkpt>
      <trkpt lat="44.89835" lon="-0.38676">
        <ele>31.1</ele>
        <time>2020-09-10T09:19:57Z</time>
      </trkpt>
      <trkpt lat="44.89834" lon="-0.38677">
        <ele>31.1</ele>
        <time>2020-09-10T09:19:58Z</time>
      </trkpt>
      <trkpt lat="44.89834" lon="-0.38677">
        <ele>31.1</ele>
        <time>2020-09-10T09:19:59Z</time>
      </trkpt>
      <trkpt lat="44.89832" lon="-0.38679">
        <ele>31.1</ele>
        <time>2020-09-10T09:20:01Z</time>
      </trkpt>
      <trkpt lat="44.8983" lon="-0.3868">
        <ele>31</ele>
        <time>2020-09-10T09:20:02Z</time>
      </trkpt>
      <trkpt lat="44.89829" lon="-0.38681">
        <ele>31</ele>
        <time>2020-09-10T09:20:03Z</time>
      </trkpt>
      <trkpt lat="44.89829" lon="-0.38682">
        <ele>31</ele>
        <time>2020-09-10T09:20:04Z</time>
      </trkpt>
      <trkpt lat="44.89827" lon="-0.38683">
        <ele>31</ele>
        <time>2020-09-10T09:20:05Z</time>
      </trkpt>
      <trkpt lat="44.89826" lon="-0.38684">
        <ele>31</ele>
        <time>2020-09-10T09:20:06Z</time>
      </trkpt>
      <trkpt lat="44.89826" lon="-0.38684">
        <ele>30.9</ele>
        <time>2020-09-10T09:20:08Z</time>
      </trkpt>
      <trkpt lat="44.89825" lon="-0.38685">
        <ele>30.9</ele>
        <time>2020-09-10T09:20:09Z</time>
      </trkpt>
      <trkpt lat="44.89823" lon="-0.38686">
        <ele>30.8</ele>
        <time>2020-09-10T09:20:10Z</time>
      </trkpt>
      <trkpt lat="44.89822" lon="-0.38687">
        <ele>30.8</ele>
        <time>2020-09-10T09:20:12Z</time>
      </trkpt>
      <trkpt lat="44.89821" lon="-0.38688">
        <ele>30.9</ele>
        <time>2020-09-10T09:20:13Z</time>
      </trkpt>
      <trkpt lat="44.8982" lon="-0.38689">
        <ele>30.7</ele>
        <time>2020-09-10T09:20:14Z</time>
      </trkpt>
      <trkpt lat="44.89818" lon="-0.38691">
        <ele>30.7</ele>
        <time>2020-09-10T09:20:15Z</time>
      </trkpt>
      <trkpt lat="44.89818" lon="-0.38692">
        <ele>30.7</ele>
        <time>2020-09-10T09:20:16Z</time>
      </trkpt>
      <trkpt lat="44.89817" lon="-0.38693">
        <ele>30.6</ele>
        <time>2020-09-10T09:20:17Z</time>
      </trkpt>
      <trkpt lat="44.89817" lon="-0.38693">
        <ele>30.6</ele>
        <time>2020-09-10T09:20:18Z</time>
      </trkpt>
      <trkpt lat="44.89816" lon="-0.38694">
        <ele>30.6</ele>
        <time>2020-09-10T09:20:19Z</time>
      </trkpt>
      <trkpt lat="44.89814" lon="-0.38696">
        <ele>30.6</ele>
        <time>2020-09-10T09:20:21Z</time>
      </trkpt>
      <trkpt lat="44.89812" lon="-0.38698">
        <ele>30.6</ele>
        <time>2020-09-10T09:20:22Z</time>
      </trkpt>
      <trkpt lat="44.89812" lon="-0.38699">
        <ele>30.6</ele>
        <time>2020-09-10T09:20:24Z</time>
      </trkpt>
      <trkpt lat="44.89811" lon="-0.38699">
        <ele>30.6</ele>
        <time>2020-09-10T09:20:25Z</time>
      </trkpt>
      <trkpt lat="44.8981" lon="-0.387">
        <ele>30.6</ele>
        <time>2020-09-10T09:20:26Z</time>
      </trkpt>
      <trkpt lat="44.89809" lon="-0.38701">
        <ele>30.6</ele>
        <time>2020-09-10T09:20:27Z</time>
      </trkpt>
      <trkpt lat="44.89808" lon="-0.38702">
        <ele>30.5</ele>
        <time>2020-09-10T09:20:28Z</time>
      </trkpt>
      <trkpt lat="44.89808" lon="-0.38702">
        <ele>30.5</ele>
        <time>2020-09-10T09:20:29Z</time>
      </trkpt>
      <trkpt lat="44.89807" lon="-0.38702">
        <ele>30.5</ele>
        <time>2020-09-10T09:20:30Z</time>
      </trkpt>
      <trkpt lat="44.89807" lon="-0.38701">
        <ele>30.5</ele>
        <time>2020-09-10T09:20:32Z</time>
      </trkpt>
      <trkpt lat="44.89807" lon="-0.38701">
        <ele>30.6</ele>
        <time>2020-09-10T09:20:34Z</time>
      </trkpt>
      <trkpt lat="44.89805" lon="-0.38701">
        <ele>30.5</ele>
        <time>2020-09-10T09:20:35Z</time>
      </trkpt>
      <trkpt lat="44.89804" lon="-0.38702">
        <ele>30.6</ele>
        <time>2020-09-10T09:20:36Z</time>
      </trkpt>
      <trkpt lat="44.89803" lon="-0.38703">
        <ele>30.6</ele>
        <time>2020-09-10T09:20:37Z</time>
      </trkpt>
      <trkpt lat="44.89802" lon="-0.38704">
        <ele>30.6</ele>
        <time>2020-09-10T09:20:39Z</time>
      </trkpt>
      <trkpt lat="44.898" lon="-0.38706">
        <ele>30.5</ele>
        <time>2020-09-10T09:20:40Z</time>
      </trkpt>
      <trkpt lat="44.89799" lon="-0.38707">
        <ele>30.6</ele>
        <time>2020-09-10T09:20:42Z</time>
      </trkpt>
      <trkpt lat="44.89797" lon="-0.38708">
        <ele>30.6</ele>
        <time>2020-09-10T09:20:43Z</time>
      </trkpt>
      <trkpt lat="44.89796" lon="-0.38709">
        <ele>30.6</ele>
        <time>2020-09-10T09:20:44Z</time>
      </trkpt>
      <trkpt lat="44.89795" lon="-0.38709">
        <ele>30.6</ele>
        <time>2020-09-10T09:20:45Z</time>
      </trkpt>
      <trkpt lat="44.89795" lon="-0.3871">
        <ele>30.5</ele>
        <time>2020-09-10T09:20:46Z</time>
      </trkpt>
      <trkpt lat="44.89794" lon="-0.38711">
        <ele>30.5</ele>
        <time>2020-09-10T09:20:47Z</time>
      </trkpt>
      <trkpt lat="44.89792" lon="-0.38713">
        <ele>30.6</ele>
        <time>2020-09-10T09:20:49Z</time>
      </trkpt>
      <trkpt lat="44.8979" lon="-0.38714">
        <ele>30.5</ele>
        <time>2020-09-10T09:20:50Z</time>
      </trkpt>
      <trkpt lat="44.89789" lon="-0.38715">
        <ele>30.6</ele>
        <time>2020-09-10T09:20:51Z</time>
      </trkpt>
      <trkpt lat="44.89787" lon="-0.38718">
        <ele>30.6</ele>
        <time>2020-09-10T09:20:52Z</time>
      </trkpt>
      <trkpt lat="44.89786" lon="-0.38719">
        <ele>30.6</ele>
        <time>2020-09-10T09:20:54Z</time>
      </trkpt>
      <trkpt lat="44.89785" lon="-0.3872">
        <ele>30.6</ele>
        <time>2020-09-10T09:20:55Z</time>
      </trkpt>
      <trkpt lat="44.89784" lon="-0.38722">
        <ele>30.6</ele>
        <time>2020-09-10T09:20:57Z</time>
      </trkpt>
      <trkpt lat="44.89783" lon="-0.38722">
        <ele>30.6</ele>
        <time>2020-09-10T09:20:58Z</time>
      </trkpt>
      <trkpt lat="44.89783" lon="-0.38723">
        <ele>30.6</ele>
        <time>2020-09-10T09:20:59Z</time>
      </trkpt>
      <trkpt lat="44.89781" lon="-0.38725">
        <ele>30.6</ele>
        <time>2020-09-10T09:21:00Z</time>
      </trkpt>
      <trkpt lat="44.8978" lon="-0.38726">
        <ele>30.6</ele>
        <time>2020-09-10T09:21:02Z</time>
      </trkpt>
      <trkpt lat="44.89779" lon="-0.38727">
        <ele>30.6</ele>
        <time>2020-09-10T09:21:03Z</time>
      </trkpt>
      <trkpt lat="44.89778" lon="-0.38728">
        <ele>30.6</ele>
        <time>2020-09-10T09:21:04Z</time>
      </trkpt>
      <trkpt lat="44.89778" lon="-0.38728">
        <ele>30.6</ele>
        <time>2020-09-10T09:21:06Z</time>
      </trkpt>
      <trkpt lat="44.89778" lon="-0.38729">
        <ele>30.6</ele>
        <time>2020-09-10T09:21:07Z</time>
      </trkpt>
      <trkpt lat="44.89779" lon="-0.3873">
        <ele>30.6</ele>
        <time>2020-09-10T09:21:09Z</time>
      </trkpt>
      <trkpt lat="44.89779" lon="-0.38731">
        <ele>30.5</ele>
        <time>2020-09-10T09:21:10Z</time>
      </trkpt>
      <trkpt lat="44.8978" lon="-0.38734">
        <ele>30.5</ele>
        <time>2020-09-10T09:21:11Z</time>
      </trkpt>
      <trkpt lat="44.89781" lon="-0.38735">
        <ele>30.5</ele>
        <time>2020-09-10T09:21:12Z</time>
      </trkpt>
      <trkpt lat="44.89781" lon="-0.38736">
        <ele>30.4</ele>
        <time>2020-09-10T09:21:13Z</time>
      </trkpt>
      <trkpt lat="44.89783" lon="-0.38737">
        <ele>30.4</ele>
        <time>2020-09-10T09:21:15Z</time>
      </trkpt>
      <trkpt lat="44.89784" lon="-0.38738">
        <ele>30.3</ele>
        <time>2020-09-10T09:21:16Z</time>
      </trkpt>
      <trkpt lat="44.89785" lon="-0.38739">
        <ele>30.3</ele>
        <time>2020-09-10T09:21:17Z</time>
      </trkpt>
      <trkpt lat="44.89786" lon="-0.38741">
        <ele>30.3</ele>
        <time>2020-09-10T09:21:19Z</time>
      </trkpt>
      <trkpt lat="44.89788" lon="-0.38743">
        <ele>30.2</ele>
        <time>2020-09-10T09:21:20Z</time>
      </trkpt>
      <trkpt lat="44.89789" lon="-0.38744">
        <ele>30.2</ele>
        <time>2020-09-10T09:21:21Z</time>
      </trkpt>
      <trkpt lat="44.8979" lon="-0.38746">
        <ele>30.1</ele>
        <time>2020-09-10T09:21:23Z</time>
      </trkpt>
      <trkpt lat="44.8979" lon="-0.38748">
        <ele>30.1</ele>
        <time>2020-09-10T09:21:24Z</time>
      </trkpt>
      <trkpt lat="44.89791" lon="-0.38749">
        <ele>30.1</ele>
        <time>2020-09-10T09:21:25Z</time>
      </trkpt>
      <trkpt lat="44.89792" lon="-0.38751">
        <ele>30.1</ele>
        <time>2020-09-10T09:21:27Z</time>
      </trkpt>
      <trkpt lat="44.89792" lon="-0.38752">
        <ele>30.1</ele>
        <time>2020-09-10T09:21:28Z</time>
      </trkpt>
      <trkpt lat="44.89792" lon="-0.38753">
        <ele>30.1</ele>
        <time>2020-09-10T09:21:29Z</time>
      </trkpt>
      <trkpt lat="44.89794" lon="-0.38756">
        <ele>30</ele>
        <time>2020-09-10T09:21:31Z</time>
      </trkpt>
      <trkpt lat="44.89794" lon="-0.38757">
        <ele>30</ele>
        <time>2020-09-10T09:21:33Z</time>
      </trkpt>
      <trkpt lat="44.89794" lon="-0.38757">
        <ele>30</ele>
        <time>2020-09-10T09:21:34Z</time>
      </trkpt>
      <trkpt lat="44.89794" lon="-0.38757">
        <ele>30</ele>
        <time>2020-09-10T09:21:35Z</time>
      </trkpt>
      <trkpt lat="44.89794" lon="-0.38758">
        <ele>30</ele>
        <time>2020-09-10T09:21:37Z</time>
      </trkpt>
      <trkpt lat="44.89793" lon="-0.38758">
        <ele>30</ele>
        <time>2020-09-10T09:21:39Z</time>
      </trkpt>
      <trkpt lat="44.89793" lon="-0.38758">
        <ele>30</ele>
        <time>2020-09-10T09:21:41Z</time>
      </trkpt>
      <trkpt lat="44.89793" lon="-0.38758">
        <ele>30</ele>
        <time>2020-09-10T09:21:42Z</time>
      </trkpt>
      <trkpt lat="44.89792" lon="-0.38758">
        <ele>30.1</ele>
        <time>2020-09-10T09:21:44Z</time>
      </trkpt>
      <trkpt lat="44.89791" lon="-0.38758">
        <ele>30.1</ele>
        <time>2020-09-10T09:21:45Z</time>
      </trkpt>
      <trkpt lat="44.8979" lon="-0.38759">
        <ele>30.1</ele>
        <time>2020-09-10T09:21:47Z</time>
      </trkpt>
      <trkpt lat="44.8979" lon="-0.38758">
        <ele>30.1</ele>
        <time>2020-09-10T09:21:49Z</time>
      </trkpt>
      <trkpt lat="44.89789" lon="-0.38758">
        <ele>30.2</ele>
        <time>2020-09-10T09:21:50Z</time>
      </trkpt>
      <trkpt lat="44.89789" lon="-0.38756">
        <ele>30.2</ele>
        <time>2020-09-10T09:21:51Z</time>
      </trkpt>
      <trkpt lat="44.8979" lon="-0.38755">
        <ele>30.1</ele>
        <time>2020-09-10T09:21:52Z</time>
      </trkpt>
      <trkpt lat="44.8979" lon="-0.38755">
        <ele>30.1</ele>
        <time>2020-09-10T09:21:53Z</time>
      </trkpt>
      <trkpt lat="44.8979" lon="-0.38757">
        <ele>30.1</ele>
        <time>2020-09-10T09:21:55Z</time>
      </trkpt>
      <trkpt lat="44.89789" lon="-0.38758">
        <ele>30.2</ele>
        <time>2020-09-10T09:21:56Z</time>
      </trkpt>
      <trkpt lat="44.89787" lon="-0.38759">
        <ele>30.2</ele>
        <time>2020-09-10T09:21:57Z</time>
      </trkpt>
      <trkpt lat="44.89786" lon="-0.3876">
        <ele>30.2</ele>
        <time>2020-09-10T09:21:58Z</time>
      </trkpt>
      <trkpt lat="44.89785" lon="-0.3876">
        <ele>30.2</ele>
        <time>2020-09-10T09:22:00Z</time>
      </trkpt>
      <trkpt lat="44.89782" lon="-0.38762">
        <ele>30.3</ele>
        <time>2020-09-10T09:22:02Z</time>
      </trkpt>
      <trkpt lat="44.89781" lon="-0.38763">
        <ele>30.3</ele>
        <time>2020-09-10T09:22:03Z</time>
      </trkpt>
      <trkpt lat="44.89779" lon="-0.38764">
        <ele>30.4</ele>
        <time>2020-09-10T09:22:04Z</time>
      </trkpt>
      <trkpt lat="44.89777" lon="-0.38764">
        <ele>30.4</ele>
        <time>2020-09-10T09:22:05Z</time>
      </trkpt>
      <trkpt lat="44.89776" lon="-0.38765">
        <ele>30.4</ele>
        <time>2020-09-10T09:22:06Z</time>
      </trkpt>
      <trkpt lat="44.89775" lon="-0.38765">
        <ele>30.5</ele>
        <time>2020-09-10T09:22:08Z</time>
      </trkpt>
      <trkpt lat="44.89773" lon="-0.38766">
        <ele>30.5</ele>
        <time>2020-09-10T09:22:09Z</time>
      </trkpt>
      <trkpt lat="44.89772" lon="-0.38767">
        <ele>30.5</ele>
        <time>2020-09-10T09:22:10Z</time>
      </trkpt>
      <trkpt lat="44.8977" lon="-0.38767">
        <ele>30.6</ele>
        <time>2020-09-10T09:22:11Z</time>
      </trkpt>
      <trkpt lat="44.89769" lon="-0.38768">
        <ele>30.6</ele>
        <time>2020-09-10T09:22:13Z</time>
      </trkpt>
      <trkpt lat="44.89768" lon="-0.38769">
        <ele>30.7</ele>
        <time>2020-09-10T09:22:14Z</time>
      </trkpt>
      <trkpt lat="44.89768" lon="-0.38769">
        <ele>30.7</ele>
        <time>2020-09-10T09:22:15Z</time>
      </trkpt>
      <trkpt lat="44.89766" lon="-0.3877">
        <ele>30.7</ele>
        <time>2020-09-10T09:22:16Z</time>
      </trkpt>
      <trkpt lat="44.89765" lon="-0.38771">
        <ele>30.7</ele>
        <time>2020-09-10T09:22:17Z</time>
      </trkpt>
      <trkpt lat="44.89765" lon="-0.38772">
        <ele>30.8</ele>
        <time>2020-09-10T09:22:19Z</time>
      </trkpt>
      <trkpt lat="44.89764" lon="-0.38772">
        <ele>30.8</ele>
        <time>2020-09-10T09:22:21Z</time>
      </trkpt>
      <trkpt lat="44.89763" lon="-0.38773">
        <ele>30.8</ele>
        <time>2020-09-10T09:22:22Z</time>
      </trkpt>
      <trkpt lat="44.89763" lon="-0.38774">
        <ele>30.8</ele>
        <time>2020-09-10T09:22:23Z</time>
      </trkpt>
      <trkpt lat="44.89762" lon="-0.38775">
        <ele>30.8</ele>
        <time>2020-09-10T09:22:24Z</time>
      </trkpt>
      <trkpt lat="44.89761" lon="-0.38776">
        <ele>30.8</ele>
        <time>2020-09-10T09:22:25Z</time>
      </trkpt>
      <trkpt lat="44.89759" lon="-0.38777">
        <ele>30.9</ele>
        <time>2020-09-10T09:22:26Z</time>
      </trkpt>
      <trkpt lat="44.89758" lon="-0.38778">
        <ele>30.9</ele>
        <time>2020-09-10T09:22:27Z</time>
      </trkpt>
      <trkpt lat="44.89756" lon="-0.3878">
        <ele>31</ele>
        <time>2020-09-10T09:22:29Z</time>
      </trkpt>
      <trkpt lat="44.89755" lon="-0.38781">
        <ele>31</ele>
        <time>2020-09-10T09:22:30Z</time>
      </trkpt>
      <trkpt lat="44.89753" lon="-0.38783">
        <ele>31.1</ele>
        <time>2020-09-10T09:22:32Z</time>
      </trkpt>
      <trkpt lat="44.89752" lon="-0.38784">
        <ele>31.1</ele>
        <time>2020-09-10T09:22:33Z</time>
      </trkpt>
      <trkpt lat="44.89751" lon="-0.38785">
        <ele>31.1</ele>
        <time>2020-09-10T09:22:34Z</time>
      </trkpt>
      <trkpt lat="44.8975" lon="-0.38786">
        <ele>31.1</ele>
        <time>2020-09-10T09:22:35Z</time>
      </trkpt>
      <trkpt lat="44.89749" lon="-0.38787">
        <ele>31.2</ele>
        <time>2020-09-10T09:22:36Z</time>
      </trkpt>
      <trkpt lat="44.89748" lon="-0.38788">
        <ele>31.2</ele>
        <time>2020-09-10T09:22:37Z</time>
      </trkpt>
      <trkpt lat="44.89747" lon="-0.38788">
        <ele>31.2</ele>
        <time>2020-09-10T09:22:39Z</time>
      </trkpt>
      <trkpt lat="44.89746" lon="-0.38789">
        <ele>31.3</ele>
        <time>2020-09-10T09:22:40Z</time>
      </trkpt>
      <trkpt lat="44.89744" lon="-0.38791">
        <ele>31.3</ele>
        <time>2020-09-10T09:22:41Z</time>
      </trkpt>
      <trkpt lat="44.89743" lon="-0.38791">
        <ele>31.4</ele>
        <time>2020-09-10T09:22:43Z</time>
      </trkpt>
      <trkpt lat="44.89742" lon="-0.38792">
        <ele>31.4</ele>
        <time>2020-09-10T09:22:44Z</time>
      </trkpt>
      <trkpt lat="44.89742" lon="-0.38793">
        <ele>31.4</ele>
        <time>2020-09-10T09:22:45Z</time>
      </trkpt>
      <trkpt lat="44.8974" lon="-0.38794">
        <ele>31.5</ele>
        <time>2020-09-10T09:22:46Z</time>
      </trkpt>
      <trkpt lat="44.8974" lon="-0.38794">
        <ele>31.5</ele>
        <time>2020-09-10T09:22:47Z</time>
      </trkpt>
      <trkpt lat="44.89741" lon="-0.38793">
        <ele>31.5</ele>
        <time>2020-09-10T09:22:49Z</time>
      </trkpt>
      <trkpt lat="44.89741" lon="-0.38793">
        <ele>31.4</ele>
        <time>2020-09-10T09:22:50Z</time>
      </trkpt>
      <trkpt lat="44.89742" lon="-0.38792">
        <ele>31.4</ele>
        <time>2020-09-10T09:22:52Z</time>
      </trkpt>
      <trkpt lat="44.89743" lon="-0.38792">
        <ele>31.4</ele>
        <time>2020-09-10T09:22:53Z</time>
      </trkpt>
      <trkpt lat="44.89743" lon="-0.38792">
        <ele>31.4</ele>
        <time>2020-09-10T09:22:55Z</time>
      </trkpt>
      <trkpt lat="44.89741" lon="-0.38794">
        <ele>31.4</ele>
        <time>2020-09-10T09:22:56Z</time>
      </trkpt>
      <trkpt lat="44.8974" lon="-0.38795">
        <ele>31.5</ele>
        <time>2020-09-10T09:22:57Z</time>
      </trkpt>
      <trkpt lat="44.8974" lon="-0.38796">
        <ele>31.5</ele>
        <time>2020-09-10T09:22:58Z</time>
      </trkpt>
      <trkpt lat="44.89738" lon="-0.38798">
        <ele>31.5</ele>
        <time>2020-09-10T09:22:59Z</time>
      </trkpt>
      <trkpt lat="44.89737" lon="-0.38799">
        <ele>31.6</ele>
        <time>2020-09-10T09:23:00Z</time>
      </trkpt>
      <trkpt lat="44.89735" lon="-0.38802">
        <ele>31.6</ele>
        <time>2020-09-10T09:23:02Z</time>
      </trkpt>
      <trkpt lat="44.89734" lon="-0.38803">
        <ele>31.7</ele>
        <time>2020-09-10T09:23:03Z</time>
      </trkpt>
      <trkpt lat="44.89733" lon="-0.38804">
        <ele>31.7</ele>
        <time>2020-09-10T09:23:04Z</time>
      </trkpt>
      <trkpt lat="44.89732" lon="-0.38805">
        <ele>31.7</ele>
        <time>2020-09-10T09:23:05Z</time>
      </trkpt>
      <trkpt lat="44.8973" lon="-0.38808">
        <ele>31.7</ele>
        <time>2020-09-10T09:23:07Z</time>
      </trkpt>
      <trkpt lat="44.89729" lon="-0.38809">
        <ele>31.7</ele>
        <time>2020-09-10T09:23:08Z</time>
      </trkpt>
      <trkpt lat="44.89728" lon="-0.3881">
        <ele>31.8</ele>
        <time>2020-09-10T09:23:09Z</time>
      </trkpt>
      <trkpt lat="44.89726" lon="-0.38813">
        <ele>31.8</ele>
        <time>2020-09-10T09:23:11Z</time>
      </trkpt>
      <trkpt lat="44.89725" lon="-0.38814">
        <ele>31.9</ele>
        <time>2020-09-10T09:23:12Z</time>
      </trkpt>
      <trkpt lat="44.89724" lon="-0.38815">
        <ele>31.9</ele>
        <time>2020-09-10T09:23:14Z</time>
      </trkpt>
      <trkpt lat="44.89723" lon="-0.38816">
        <ele>31.9</ele>
        <time>2020-09-10T09:23:15Z</time>
      </trkpt>
      <trkpt lat="44.89722" lon="-0.38817">
        <ele>32</ele>
        <time>2020-09-10T09:23:16Z</time>
      </trkpt>
      <trkpt lat="44.89722" lon="-0.38817">
        <ele>32</ele>
        <time>2020-09-10T09:23:17Z</time>
      </trkpt>
      <trkpt lat="44.89721" lon="-0.38817">
        <ele>32</ele>
        <time>2020-09-10T09:23:18Z</time>
      </trkpt>
      <trkpt lat="44.8972" lon="-0.38818">
        <ele>32</ele>
        <time>2020-09-10T09:23:19Z</time>
      </trkpt>
      <trkpt lat="44.89719" lon="-0.38818">
        <ele>32.1</ele>
        <time>2020-09-10T09:23:20Z</time>
      </trkpt>
      <trkpt lat="44.89718" lon="-0.38819">
        <ele>32.1</ele>
        <time>2020-09-10T09:23:22Z</time>
      </trkpt>
      <trkpt lat="44.89717" lon="-0.3882">
        <ele>32.1</ele>
        <time>2020-09-10T09:23:24Z</time>
      </trkpt>
      <trkpt lat="44.89717" lon="-0.38821">
        <ele>32.1</ele>
        <time>2020-09-10T09:23:25Z</time>
      </trkpt>
      <trkpt lat="44.89717" lon="-0.38823">
        <ele>32.1</ele>
        <time>2020-09-10T09:23:26Z</time>
      </trkpt>
      <trkpt lat="44.89717" lon="-0.38824">
        <ele>32.1</ele>
        <time>2020-09-10T09:23:27Z</time>
      </trkpt>
      <trkpt lat="44.89718" lon="-0.38825">
        <ele>32.1</ele>
        <time>2020-09-10T09:23:28Z</time>
      </trkpt>
      <trkpt lat="44.8972" lon="-0.38829">
        <ele>32.1</ele>
        <time>2020-09-10T09:23:30Z</time>
      </trkpt>
      <trkpt lat="44.8972" lon="-0.3883">
        <ele>32</ele>
        <time>2020-09-10T09:23:31Z</time>
      </trkpt>
      <trkpt lat="44.89722" lon="-0.38832">
        <ele>32</ele>
        <time>2020-09-10T09:23:32Z</time>
      </trkpt>
      <trkpt lat="44.89722" lon="-0.38833">
        <ele>32</ele>
        <time>2020-09-10T09:23:33Z</time>
      </trkpt>
      <trkpt lat="44.89723" lon="-0.38834">
        <ele>32</ele>
        <time>2020-09-10T09:23:34Z</time>
      </trkpt>
      <trkpt lat="44.89723" lon="-0.38835">
        <ele>31.9</ele>
        <time>2020-09-10T09:23:35Z</time>
      </trkpt>
      <trkpt lat="44.89725" lon="-0.38838">
        <ele>31.9</ele>
        <time>2020-09-10T09:23:37Z</time>
      </trkpt>
      <trkpt lat="44.89726" lon="-0.38839">
        <ele>31.9</ele>
        <time>2020-09-10T09:23:39Z</time>
      </trkpt>
      <trkpt lat="44.89727" lon="-0.3884">
        <ele>31.8</ele>
        <time>2020-09-10T09:23:40Z</time>
      </trkpt>
      <trkpt lat="44.89727" lon="-0.38841">
        <ele>31.8</ele>
        <time>2020-09-10T09:23:41Z</time>
      </trkpt>
      <trkpt lat="44.89728" lon="-0.38842">
        <ele>31.8</ele>
        <time>2020-09-10T09:23:42Z</time>
      </trkpt>
      <trkpt lat="44.89728" lon="-0.38843">
        <ele>31.8</ele>
        <time>2020-09-10T09:23:43Z</time>
      </trkpt>
      <trkpt lat="44.89728" lon="-0.38845">
        <ele>31.8</ele>
        <time>2020-09-10T09:23:44Z</time>
      </trkpt>
      <trkpt lat="44.89729" lon="-0.38846">
        <ele>31.8</ele>
        <time>2020-09-10T09:23:45Z</time>
      </trkpt>
      <trkpt lat="44.89729" lon="-0.38847">
        <ele>31.7</ele>
        <time>2020-09-10T09:23:46Z</time>
      </trkpt>
      <trkpt lat="44.8973" lon="-0.38849">
        <ele>31.7</ele>
        <time>2020-09-10T09:23:48Z</time>
      </trkpt>
      <trkpt lat="44.8973" lon="-0.38852">
        <ele>31.7</ele>
        <time>2020-09-10T09:23:49Z</time>
      </trkpt>
      <trkpt lat="44.8973" lon="-0.38855">
        <ele>31.7</ele>
        <time>2020-09-10T09:23:51Z</time>
      </trkpt>
      <trkpt lat="44.8973" lon="-0.38858">
        <ele>31.7</ele>
        <time>2020-09-10T09:23:52Z</time>
      </trkpt>
      <trkpt lat="44.89731" lon="-0.3886">
        <ele>31.7</ele>
        <time>2020-09-10T09:23:53Z</time>
      </trkpt>
      <trkpt lat="44.89731" lon="-0.38862">
        <ele>31.7</ele>
        <time>2020-09-10T09:23:54Z</time>
      </trkpt>
      <trkpt lat="44.89731" lon="-0.38864">
        <ele>31.7</ele>
        <time>2020-09-10T09:23:56Z</time>
      </trkpt>
      <trkpt lat="44.8973" lon="-0.38866">
        <ele>31.7</ele>
        <time>2020-09-10T09:23:57Z</time>
      </trkpt>
      <trkpt lat="44.89729" lon="-0.38867">
        <ele>31.7</ele>
        <time>2020-09-10T09:23:58Z</time>
      </trkpt>
      <trkpt lat="44.89728" lon="-0.3887">
        <ele>31.8</ele>
        <time>2020-09-10T09:23:59Z</time>
      </trkpt>
      <trkpt lat="44.89727" lon="-0.38872">
        <ele>31.8</ele>
        <time>2020-09-10T09:24:01Z</time>
      </trkpt>
      <trkpt lat="44.89727" lon="-0.38873">
        <ele>31.8</ele>
        <time>2020-09-10T09:24:02Z</time>
      </trkpt>
      <trkpt lat="44.89726" lon="-0.38874">
        <ele>31.8</ele>
        <time>2020-09-10T09:24:03Z</time>
      </trkpt>
      <trkpt lat="44.89726" lon="-0.38875">
        <ele>31.8</ele>
        <time>2020-09-10T09:24:04Z</time>
      </trkpt>
      <trkpt lat="44.89724" lon="-0.38876">
        <ele>31.8</ele>
        <time>2020-09-10T09:24:05Z</time>
      </trkpt>
      <trkpt lat="44.89722" lon="-0.38878">
        <ele>31.9</ele>
        <time>2020-09-10T09:24:06Z</time>
      </trkpt>
      <trkpt lat="44.89721" lon="-0.38879">
        <ele>31.9</ele>
        <time>2020-09-10T09:24:07Z</time>
      </trkpt>
      <trkpt lat="44.8972" lon="-0.38879">
        <ele>31.9</ele>
        <time>2020-09-10T09:24:08Z</time>
      </trkpt>
      <trkpt lat="44.89718" lon="-0.3888">
        <ele>31.9</ele>
        <time>2020-09-10T09:24:10Z</time>
      </trkpt>
      <trkpt lat="44.89717" lon="-0.3888">
        <ele>32</ele>
        <time>2020-09-10T09:24:11Z</time>
      </trkpt>
      <trkpt lat="44.89715" lon="-0.38881">
        <ele>31.9</ele>
        <time>2020-09-10T09:24:12Z</time>
      </trkpt>
      <trkpt lat="44.89714" lon="-0.38882">
        <ele>31.9</ele>
        <time>2020-09-10T09:24:13Z</time>
      </trkpt>
      <trkpt lat="44.89713" lon="-0.38883">
        <ele>32</ele>
        <time>2020-09-10T09:24:14Z</time>
      </trkpt>
      <trkpt lat="44.89711" lon="-0.38884">
        <ele>32</ele>
        <time>2020-09-10T09:24:16Z</time>
      </trkpt>
      <trkpt lat="44.8971" lon="-0.38884">
        <ele>32</ele>
        <time>2020-09-10T09:24:17Z</time>
      </trkpt>
      <trkpt lat="44.89708" lon="-0.38885">
        <ele>32</ele>
        <time>2020-09-10T09:24:18Z</time>
      </trkpt>
      <trkpt lat="44.89707" lon="-0.38886">
        <ele>32.1</ele>
        <time>2020-09-10T09:24:19Z</time>
      </trkpt>
      <trkpt lat="44.89706" lon="-0.38886">
        <ele>32.1</ele>
        <time>2020-09-10T09:24:20Z</time>
      </trkpt>
      <trkpt lat="44.89705" lon="-0.38887">
        <ele>32.1</ele>
        <time>2020-09-10T09:24:21Z</time>
      </trkpt>
      <trkpt lat="44.89702" lon="-0.38888">
        <ele>32.1</ele>
        <time>2020-09-10T09:24:22Z</time>
      </trkpt>
      <trkpt lat="44.89701" lon="-0.38888">
        <ele>32.2</ele>
        <time>2020-09-10T09:24:23Z</time>
      </trkpt>
      <trkpt lat="44.897" lon="-0.38889">
        <ele>32.2</ele>
        <time>2020-09-10T09:24:25Z</time>
      </trkpt>
      <trkpt lat="44.89698" lon="-0.3889">
        <ele>32.2</ele>
        <time>2020-09-10T09:24:26Z</time>
      </trkpt>
      <trkpt lat="44.89697" lon="-0.38891">
        <ele>32.2</ele>
        <time>2020-09-10T09:24:27Z</time>
      </trkpt>
      <trkpt lat="44.89696" lon="-0.38892">
        <ele>32.2</ele>
        <time>2020-09-10T09:24:28Z</time>
      </trkpt>
      <trkpt lat="44.89694" lon="-0.38893">
        <ele>32.3</ele>
        <time>2020-09-10T09:24:30Z</time>
      </trkpt>
      <trkpt lat="44.89693" lon="-0.38894">
        <ele>32.3</ele>
        <time>2020-09-10T09:24:31Z</time>
      </trkpt>
      <trkpt lat="44.89692" lon="-0.38895">
        <ele>32.3</ele>
        <time>2020-09-10T09:24:32Z</time>
      </trkpt>
      <trkpt lat="44.8969" lon="-0.38897">
        <ele>32.3</ele>
        <time>2020-09-10T09:24:33Z</time>
      </trkpt>
      <trkpt lat="44.8969" lon="-0.38897">
        <ele>32.3</ele>
        <time>2020-09-10T09:24:34Z</time>
      </trkpt>
      <trkpt lat="44.89689" lon="-0.38898">
        <ele>32.3</ele>
        <time>2020-09-10T09:24:35Z</time>
      </trkpt>
      <trkpt lat="44.89687" lon="-0.38901">
        <ele>32.3</ele>
        <time>2020-09-10T09:24:38Z</time>
      </trkpt>
      <trkpt lat="44.89685" lon="-0.38902">
        <ele>32.3</ele>
        <time>2020-09-10T09:24:39Z</time>
      </trkpt>
      <trkpt lat="44.89684" lon="-0.38903">
        <ele>32.3</ele>
        <time>2020-09-10T09:24:40Z</time>
      </trkpt>
      <trkpt lat="44.89683" lon="-0.38904">
        <ele>32.4</ele>
        <time>2020-09-10T09:24:41Z</time>
      </trkpt>
      <trkpt lat="44.89681" lon="-0.38906">
        <ele>32.4</ele>
        <time>2020-09-10T09:24:42Z</time>
      </trkpt>
      <trkpt lat="44.8968" lon="-0.38907">
        <ele>32.4</ele>
        <time>2020-09-10T09:24:43Z</time>
      </trkpt>
      <trkpt lat="44.89679" lon="-0.38908">
        <ele>32.4</ele>
        <time>2020-09-10T09:24:44Z</time>
      </trkpt>
      <trkpt lat="44.89678" lon="-0.38909">
        <ele>32.4</ele>
        <time>2020-09-10T09:24:46Z</time>
      </trkpt>
      <trkpt lat="44.89677" lon="-0.38911">
        <ele>32.4</ele>
        <time>2020-09-10T09:24:47Z</time>
      </trkpt>
      <trkpt lat="44.89676" lon="-0.38912">
        <ele>32.4</ele>
        <time>2020-09-10T09:24:48Z</time>
      </trkpt>
      <trkpt lat="44.89675" lon="-0.38912">
        <ele>32.4</ele>
        <time>2020-09-10T09:24:49Z</time>
      </trkpt>
      <trkpt lat="44.89674" lon="-0.38914">
        <ele>32.4</ele>
        <time>2020-09-10T09:24:50Z</time>
      </trkpt>
      <trkpt lat="44.89673" lon="-0.38915">
        <ele>32.4</ele>
        <time>2020-09-10T09:24:51Z</time>
      </trkpt>
      <trkpt lat="44.89671" lon="-0.38916">
        <ele>32.4</ele>
        <time>2020-09-10T09:24:52Z</time>
      </trkpt>
      <trkpt lat="44.8967" lon="-0.38918">
        <ele>32.4</ele>
        <time>2020-09-10T09:24:54Z</time>
      </trkpt>
      <trkpt lat="44.8967" lon="-0.38918">
        <ele>32.4</ele>
        <time>2020-09-10T09:24:55Z</time>
      </trkpt>
      <trkpt lat="44.89668" lon="-0.38919">
        <ele>32.5</ele>
        <time>2020-09-10T09:24:56Z</time>
      </trkpt>
      <trkpt lat="44.89667" lon="-0.3892">
        <ele>32.5</ele>
        <time>2020-09-10T09:24:58Z</time>
      </trkpt>
      <trkpt lat="44.89666" lon="-0.38922">
        <ele>32.5</ele>
        <time>2020-09-10T09:24:59Z</time>
      </trkpt>
      <trkpt lat="44.89665" lon="-0.38923">
        <ele>32.5</ele>
        <time>2020-09-10T09:25:00Z</time>
      </trkpt>
      <trkpt lat="44.89661" lon="-0.38925">
        <ele>32.5</ele>
        <time>2020-09-10T09:25:03Z</time>
      </trkpt>
      <trkpt lat="44.89659" lon="-0.38926">
        <ele>32.5</ele>
        <time>2020-09-10T09:25:04Z</time>
      </trkpt>
      <trkpt lat="44.89658" lon="-0.38927">
        <ele>32.6</ele>
        <time>2020-09-10T09:25:05Z</time>
      </trkpt>
      <trkpt lat="44.89656" lon="-0.38927">
        <ele>32.6</ele>
        <time>2020-09-10T09:25:06Z</time>
      </trkpt>
      <trkpt lat="44.89654" lon="-0.38927">
        <ele>32.6</ele>
        <time>2020-09-10T09:25:08Z</time>
      </trkpt>
      <trkpt lat="44.89653" lon="-0.38927">
        <ele>32.7</ele>
        <time>2020-09-10T09:25:09Z</time>
      </trkpt>
      <trkpt lat="44.89652" lon="-0.38926">
        <ele>32.7</ele>
        <time>2020-09-10T09:25:10Z</time>
      </trkpt>
      <trkpt lat="44.8965" lon="-0.38926">
        <ele>32.7</ele>
        <time>2020-09-10T09:25:11Z</time>
      </trkpt>
      <trkpt lat="44.8965" lon="-0.38926">
        <ele>32.7</ele>
        <time>2020-09-10T09:25:12Z</time>
      </trkpt>
      <trkpt lat="44.89649" lon="-0.38925">
        <ele>32.7</ele>
        <time>2020-09-10T09:25:14Z</time>
      </trkpt>
      <trkpt lat="44.89648" lon="-0.38924">
        <ele>32.7</ele>
        <time>2020-09-10T09:25:15Z</time>
      </trkpt>
      <trkpt lat="44.89647" lon="-0.38922">
        <ele>32.7</ele>
        <time>2020-09-10T09:25:16Z</time>
      </trkpt>
      <trkpt lat="44.89646" lon="-0.38921">
        <ele>32.7</ele>
        <time>2020-09-10T09:25:17Z</time>
      </trkpt>
      <trkpt lat="44.89645" lon="-0.3892">
        <ele>32.8</ele>
        <time>2020-09-10T09:25:19Z</time>
      </trkpt>
      <trkpt lat="44.89645" lon="-0.3892">
        <ele>32.7</ele>
        <time>2020-09-10T09:25:20Z</time>
      </trkpt>
      <trkpt lat="44.89644" lon="-0.38921">
        <ele>32.8</ele>
        <time>2020-09-10T09:25:21Z</time>
      </trkpt>
      <trkpt lat="44.89643" lon="-0.38921">
        <ele>32.8</ele>
        <time>2020-09-10T09:25:22Z</time>
      </trkpt>
      <trkpt lat="44.89641" lon="-0.38923">
        <ele>32.8</ele>
        <time>2020-09-10T09:25:24Z</time>
      </trkpt>
      <trkpt lat="44.8964" lon="-0.38924">
        <ele>32.8</ele>
        <time>2020-09-10T09:25:25Z</time>
      </trkpt>
      <trkpt lat="44.8964" lon="-0.38924">
        <ele>32.8</ele>
        <time>2020-09-10T09:25:26Z</time>
      </trkpt>
      <trkpt lat="44.89639" lon="-0.38926">
        <ele>32.8</ele>
        <time>2020-09-10T09:25:27Z</time>
      </trkpt>
      <trkpt lat="44.89637" lon="-0.38927">
        <ele>32.9</ele>
        <time>2020-09-10T09:25:28Z</time>
      </trkpt>
      <trkpt lat="44.89636" lon="-0.38928">
        <ele>32.9</ele>
        <time>2020-09-10T09:25:29Z</time>
      </trkpt>
      <trkpt lat="44.89635" lon="-0.38929">
        <ele>32.9</ele>
        <time>2020-09-10T09:25:30Z</time>
      </trkpt>
      <trkpt lat="44.89634" lon="-0.3893">
        <ele>32.9</ele>
        <time>2020-09-10T09:25:31Z</time>
      </trkpt>
      <trkpt lat="44.89633" lon="-0.38931">
        <ele>32.9</ele>
        <time>2020-09-10T09:25:32Z</time>
      </trkpt>
      <trkpt lat="44.89632" lon="-0.38932">
        <ele>32.9</ele>
        <time>2020-09-10T09:25:33Z</time>
      </trkpt>
      <trkpt lat="44.8963" lon="-0.38933">
        <ele>32.9</ele>
        <time>2020-09-10T09:25:34Z</time>
      </trkpt>
      <trkpt lat="44.89629" lon="-0.38933">
        <ele>32.9</ele>
        <time>2020-09-10T09:25:36Z</time>
      </trkpt>
      <trkpt lat="44.89628" lon="-0.38934">
        <ele>33</ele>
        <time>2020-09-10T09:25:37Z</time>
      </trkpt>
      <trkpt lat="44.89626" lon="-0.38935">
        <ele>33</ele>
        <time>2020-09-10T09:25:38Z</time>
      </trkpt>
      <trkpt lat="44.89625" lon="-0.38935">
        <ele>33</ele>
        <time>2020-09-10T09:25:39Z</time>
      </trkpt>
      <trkpt lat="44.89624" lon="-0.38936">
        <ele>33</ele>
        <time>2020-09-10T09:25:41Z</time>
      </trkpt>
      <trkpt lat="44.89623" lon="-0.38937">
        <ele>33</ele>
        <time>2020-09-10T09:25:42Z</time>
      </trkpt>
      <trkpt lat="44.89622" lon="-0.38938">
        <ele>33</ele>
        <time>2020-09-10T09:25:43Z</time>
      </trkpt>
      <trkpt lat="44.89621" lon="-0.38939">
        <ele>33</ele>
        <time>2020-09-10T09:25:44Z</time>
      </trkpt>
      <trkpt lat="44.8962" lon="-0.3894">
        <ele>33</ele>
        <time>2020-09-10T09:25:45Z</time>
      </trkpt>
      <trkpt lat="44.89619" lon="-0.38941">
        <ele>33.1</ele>
        <time>2020-09-10T09:25:46Z</time>
      </trkpt>
      <trkpt lat="44.89618" lon="-0.38942">
        <ele>33.1</ele>
        <time>2020-09-10T09:25:48Z</time>
      </trkpt>
      <trkpt lat="44.89616" lon="-0.38943">
        <ele>33.1</ele>
        <time>2020-09-10T09:25:49Z</time>
      </trkpt>
      <trkpt lat="44.89616" lon="-0.38944">
        <ele>33.1</ele>
        <time>2020-09-10T09:25:50Z</time>
      </trkpt>
      <trkpt lat="44.89615" lon="-0.38944">
        <ele>33.1</ele>
        <time>2020-09-10T09:25:51Z</time>
      </trkpt>
      <trkpt lat="44.89614" lon="-0.38945">
        <ele>33.1</ele>
        <time>2020-09-10T09:25:52Z</time>
      </trkpt>
      <trkpt lat="44.89611" lon="-0.38946">
        <ele>33.2</ele>
        <time>2020-09-10T09:25:53Z</time>
      </trkpt>
      <trkpt lat="44.8961" lon="-0.38947">
        <ele>33.2</ele>
        <time>2020-09-10T09:25:55Z</time>
      </trkpt>
      <trkpt lat="44.89609" lon="-0.38947">
        <ele>33.2</ele>
        <time>2020-09-10T09:25:56Z</time>
      </trkpt>
      <trkpt lat="44.89608" lon="-0.38947">
        <ele>33.2</ele>
        <time>2020-09-10T09:25:57Z</time>
      </trkpt>
      <trkpt lat="44.89607" lon="-0.38948">
        <ele>33.2</ele>
        <time>2020-09-10T09:25:58Z</time>
      </trkpt>
      <trkpt lat="44.89606" lon="-0.38948">
        <ele>33.2</ele>
        <time>2020-09-10T09:25:59Z</time>
      </trkpt>
      <trkpt lat="44.89605" lon="-0.38948">
        <ele>33.2</ele>
        <time>2020-09-10T09:26:00Z</time>
      </trkpt>
      <trkpt lat="44.89604" lon="-0.38949">
        <ele>33.3</ele>
        <time>2020-09-10T09:26:01Z</time>
      </trkpt>
      <trkpt lat="44.89602" lon="-0.3895">
        <ele>33.3</ele>
        <time>2020-09-10T09:26:02Z</time>
      </trkpt>
      <trkpt lat="44.89601" lon="-0.3895">
        <ele>33.3</ele>
        <time>2020-09-10T09:26:03Z</time>
      </trkpt>
      <trkpt lat="44.896" lon="-0.38951">
        <ele>33.3</ele>
        <time>2020-09-10T09:26:04Z</time>
      </trkpt>
      <trkpt lat="44.89598" lon="-0.38952">
        <ele>33.3</ele>
        <time>2020-09-10T09:26:05Z</time>
      </trkpt>
      <trkpt lat="44.89597" lon="-0.38953">
        <ele>33.4</ele>
        <time>2020-09-10T09:26:07Z</time>
      </trkpt>
      <trkpt lat="44.89595" lon="-0.38954">
        <ele>33.4</ele>
        <time>2020-09-10T09:26:08Z</time>
      </trkpt>
      <trkpt lat="44.89594" lon="-0.38954">
        <ele>33.4</ele>
        <time>2020-09-10T09:26:09Z</time>
      </trkpt>
      <trkpt lat="44.89592" lon="-0.38955">
        <ele>33.4</ele>
        <time>2020-09-10T09:26:11Z</time>
      </trkpt>
      <trkpt lat="44.8959" lon="-0.38956">
        <ele>33.4</ele>
        <time>2020-09-10T09:26:12Z</time>
      </trkpt>
      <trkpt lat="44.89588" lon="-0.38957">
        <ele>33.5</ele>
        <time>2020-09-10T09:26:13Z</time>
      </trkpt>
      <trkpt lat="44.89587" lon="-0.38958">
        <ele>33.5</ele>
        <time>2020-09-10T09:26:14Z</time>
      </trkpt>
      <trkpt lat="44.89585" lon="-0.38959">
        <ele>33.5</ele>
        <time>2020-09-10T09:26:15Z</time>
      </trkpt>
      <trkpt lat="44.89584" lon="-0.38959">
        <ele>33.5</ele>
        <time>2020-09-10T09:26:16Z</time>
      </trkpt>
      <trkpt lat="44.89583" lon="-0.3896">
        <ele>33.5</ele>
        <time>2020-09-10T09:26:17Z</time>
      </trkpt>
      <trkpt lat="44.89581" lon="-0.38961">
        <ele>33.6</ele>
        <time>2020-09-10T09:26:19Z</time>
      </trkpt>
      <trkpt lat="44.89581" lon="-0.38961">
        <ele>33.6</ele>
        <time>2020-09-10T09:26:20Z</time>
      </trkpt>
      <trkpt lat="44.8958" lon="-0.38962">
        <ele>33.6</ele>
        <time>2020-09-10T09:26:21Z</time>
      </trkpt>
      <trkpt lat="44.89579" lon="-0.38963">
        <ele>33.6</ele>
        <time>2020-09-10T09:26:22Z</time>
      </trkpt>
      <trkpt lat="44.89578" lon="-0.38963">
        <ele>33.6</ele>
        <time>2020-09-10T09:26:23Z</time>
      </trkpt>
      <trkpt lat="44.89577" lon="-0.38963">
        <ele>33.6</ele>
        <time>2020-09-10T09:26:24Z</time>
      </trkpt>
      <trkpt lat="44.89576" lon="-0.38964">
        <ele>33.7</ele>
        <time>2020-09-10T09:26:25Z</time>
      </trkpt>
      <trkpt lat="44.89575" lon="-0.38964">
        <ele>33.7</ele>
        <time>2020-09-10T09:26:26Z</time>
      </trkpt>
      <trkpt lat="44.89574" lon="-0.38966">
        <ele>33.7</ele>
        <time>2020-09-10T09:26:28Z</time>
      </trkpt>
      <trkpt lat="44.89572" lon="-0.38968">
        <ele>33.7</ele>
        <time>2020-09-10T09:26:29Z</time>
      </trkpt>
      <trkpt lat="44.89571" lon="-0.38968">
        <ele>33.7</ele>
        <time>2020-09-10T09:26:30Z</time>
      </trkpt>
      <trkpt lat="44.8957" lon="-0.38969">
        <ele>33.8</ele>
        <time>2020-09-10T09:26:31Z</time>
      </trkpt>
      <trkpt lat="44.89569" lon="-0.38971">
        <ele>33.8</ele>
        <time>2020-09-10T09:26:32Z</time>
      </trkpt>
      <trkpt lat="44.89569" lon="-0.38972">
        <ele>33.8</ele>
        <time>2020-09-10T09:26:34Z</time>
      </trkpt>
      <trkpt lat="44.89569" lon="-0.38974">
        <ele>33.8</ele>
        <time>2020-09-10T09:26:35Z</time>
      </trkpt>
      <trkpt lat="44.89569" lon="-0.38975">
        <ele>33.8</ele>
        <time>2020-09-10T09:26:36Z</time>
      </trkpt>
      <trkpt lat="44.89569" lon="-0.38976">
        <ele>33.8</ele>
        <time>2020-09-10T09:26:37Z</time>
      </trkpt>
      <trkpt lat="44.89569" lon="-0.38977">
        <ele>33.8</ele>
        <time>2020-09-10T09:26:38Z</time>
      </trkpt>
      <trkpt lat="44.8957" lon="-0.38978">
        <ele>33.8</ele>
        <time>2020-09-10T09:26:39Z</time>
      </trkpt>
      <trkpt lat="44.8957" lon="-0.38981">
        <ele>33.8</ele>
        <time>2020-09-10T09:26:41Z</time>
      </trkpt>
      <trkpt lat="44.8957" lon="-0.38983">
        <ele>33.8</ele>
        <time>2020-09-10T09:26:42Z</time>
      </trkpt>
      <trkpt lat="44.8957" lon="-0.38984">
        <ele>33.8</ele>
        <time>2020-09-10T09:26:43Z</time>
      </trkpt>
      <trkpt lat="44.89569" lon="-0.38985">
        <ele>33.8</ele>
        <time>2020-09-10T09:26:45Z</time>
      </trkpt>
      <trkpt lat="44.89569" lon="-0.38986">
        <ele>33.8</ele>
        <time>2020-09-10T09:26:46Z</time>
      </trkpt>
      <trkpt lat="44.89566" lon="-0.38987">
        <ele>33.8</ele>
        <time>2020-09-10T09:26:47Z</time>
      </trkpt>
      <trkpt lat="44.89565" lon="-0.38988">
        <ele>33.8</ele>
        <time>2020-09-10T09:26:49Z</time>
      </trkpt>
      <trkpt lat="44.89563" lon="-0.38989">
        <ele>33.8</ele>
        <time>2020-09-10T09:26:51Z</time>
      </trkpt>
      <trkpt lat="44.89562" lon="-0.38989">
        <ele>33.8</ele>
        <time>2020-09-10T09:26:52Z</time>
      </trkpt>
      <trkpt lat="44.8956" lon="-0.3899">
        <ele>33.9</ele>
        <time>2020-09-10T09:26:54Z</time>
      </trkpt>
      <trkpt lat="44.89559" lon="-0.3899">
        <ele>33.9</ele>
        <time>2020-09-10T09:26:55Z</time>
      </trkpt>
      <trkpt lat="44.89557" lon="-0.38991">
        <ele>33.9</ele>
        <time>2020-09-10T09:26:56Z</time>
      </trkpt>
      <trkpt lat="44.89556" lon="-0.38991">
        <ele>33.9</ele>
        <time>2020-09-10T09:26:57Z</time>
      </trkpt>
      <trkpt lat="44.89555" lon="-0.38991">
        <ele>34</ele>
        <time>2020-09-10T09:26:59Z</time>
      </trkpt>
      <trkpt lat="44.89553" lon="-0.38992">
        <ele>34</ele>
        <time>2020-09-10T09:27:00Z</time>
      </trkpt>
      <trkpt lat="44.8955" lon="-0.38994">
        <ele>34</ele>
        <time>2020-09-10T09:27:02Z</time>
      </trkpt>
      <trkpt lat="44.89549" lon="-0.38994">
        <ele>34</ele>
        <time>2020-09-10T09:27:03Z</time>
      </trkpt>
      <trkpt lat="44.89548" lon="-0.38995">
        <ele>34</ele>
        <time>2020-09-10T09:27:04Z</time>
      </trkpt>
      <trkpt lat="44.89547" lon="-0.38995">
        <ele>34</ele>
        <time>2020-09-10T09:27:05Z</time>
      </trkpt>
      <trkpt lat="44.89546" lon="-0.38996">
        <ele>34.1</ele>
        <time>2020-09-10T09:27:06Z</time>
      </trkpt>
      <trkpt lat="44.89545" lon="-0.38997">
        <ele>34.1</ele>
        <time>2020-09-10T09:27:07Z</time>
      </trkpt>
      <trkpt lat="44.89543" lon="-0.38998">
        <ele>34.1</ele>
        <time>2020-09-10T09:27:09Z</time>
      </trkpt>
      <trkpt lat="44.89542" lon="-0.38999">
        <ele>34.1</ele>
        <time>2020-09-10T09:27:10Z</time>
      </trkpt>
      <trkpt lat="44.89539" lon="-0.39001">
        <ele>34.1</ele>
        <time>2020-09-10T09:27:11Z</time>
      </trkpt>
      <trkpt lat="44.89539" lon="-0.39002">
        <ele>34.1</ele>
        <time>2020-09-10T09:27:12Z</time>
      </trkpt>
      <trkpt lat="44.89537" lon="-0.39003">
        <ele>34.2</ele>
        <time>2020-09-10T09:27:14Z</time>
      </trkpt>
      <trkpt lat="44.89536" lon="-0.39004">
        <ele>34.2</ele>
        <time>2020-09-10T09:27:15Z</time>
      </trkpt>
      <trkpt lat="44.89535" lon="-0.39004">
        <ele>34.2</ele>
        <time>2020-09-10T09:27:16Z</time>
      </trkpt>
      <trkpt lat="44.89533" lon="-0.39005">
        <ele>34.2</ele>
        <time>2020-09-10T09:27:17Z</time>
      </trkpt>
      <trkpt lat="44.89532" lon="-0.39005">
        <ele>34.2</ele>
        <time>2020-09-10T09:27:18Z</time>
      </trkpt>
      <trkpt lat="44.89531" lon="-0.39006">
        <ele>34.3</ele>
        <time>2020-09-10T09:27:19Z</time>
      </trkpt>
      <trkpt lat="44.8953" lon="-0.39006">
        <ele>34.3</ele>
        <time>2020-09-10T09:27:20Z</time>
      </trkpt>
      <trkpt lat="44.89529" lon="-0.39007">
        <ele>34.3</ele>
        <time>2020-09-10T09:27:21Z</time>
      </trkpt>
      <trkpt lat="44.89528" lon="-0.39008">
        <ele>34.3</ele>
        <time>2020-09-10T09:27:23Z</time>
      </trkpt>
      <trkpt lat="44.89527" lon="-0.39008">
        <ele>34.3</ele>
        <time>2020-09-10T09:27:24Z</time>
      </trkpt>
      <trkpt lat="44.89526" lon="-0.39007">
        <ele>34.3</ele>
        <time>2020-09-10T09:27:25Z</time>
      </trkpt>
      <trkpt lat="44.89525" lon="-0.39005">
        <ele>34.3</ele>
        <time>2020-09-10T09:27:26Z</time>
      </trkpt>
      <trkpt lat="44.89524" lon="-0.39003">
        <ele>34.3</ele>
        <time>2020-09-10T09:27:28Z</time>
      </trkpt>
      <trkpt lat="44.89524" lon="-0.39">
        <ele>34.3</ele>
        <time>2020-09-10T09:27:30Z</time>
      </trkpt>
      <trkpt lat="44.89524" lon="-0.38997">
        <ele>34.2</ele>
        <time>2020-09-10T09:27:31Z</time>
      </trkpt>
      <trkpt lat="44.89524" lon="-0.38996">
        <ele>34.2</ele>
        <time>2020-09-10T09:27:32Z</time>
      </trkpt>
      <trkpt lat="44.89524" lon="-0.38992">
        <ele>34.2</ele>
        <time>2020-09-10T09:27:33Z</time>
      </trkpt>
      <trkpt lat="44.89524" lon="-0.38991">
        <ele>34.2</ele>
        <time>2020-09-10T09:27:35Z</time>
      </trkpt>
      <trkpt lat="44.89524" lon="-0.38989">
        <ele>34.2</ele>
        <time>2020-09-10T09:27:36Z</time>
      </trkpt>
      <trkpt lat="44.89523" lon="-0.38987">
        <ele>34.2</ele>
        <time>2020-09-10T09:27:37Z</time>
      </trkpt>
      <trkpt lat="44.89523" lon="-0.38985">
        <ele>34.2</ele>
        <time>2020-09-10T09:27:38Z</time>
      </trkpt>
      <trkpt lat="44.89523" lon="-0.3898">
        <ele>34.2</ele>
        <time>2020-09-10T09:27:39Z</time>
      </trkpt>
      <trkpt lat="44.89523" lon="-0.38979">
        <ele>34.2</ele>
        <time>2020-09-10T09:27:40Z</time>
      </trkpt>
      <trkpt lat="44.89523" lon="-0.38975">
        <ele>34.2</ele>
        <time>2020-09-10T09:27:41Z</time>
      </trkpt>
      <trkpt lat="44.89522" lon="-0.3897">
        <ele>34.2</ele>
        <time>2020-09-10T09:27:43Z</time>
      </trkpt>
      <trkpt lat="44.89522" lon="-0.38968">
        <ele>34.2</ele>
        <time>2020-09-10T09:27:44Z</time>
      </trkpt>
      <trkpt lat="44.89521" lon="-0.38966">
        <ele>34.2</ele>
        <time>2020-09-10T09:27:45Z</time>
      </trkpt>
      <trkpt lat="44.89521" lon="-0.38963">
        <ele>34.2</ele>
        <time>2020-09-10T09:27:47Z</time>
      </trkpt>
      <trkpt lat="44.89521" lon="-0.38961">
        <ele>34.2</ele>
        <time>2020-09-10T09:27:48Z</time>
      </trkpt>
      <trkpt lat="44.8952" lon="-0.38958">
        <ele>34.2</ele>
        <time>2020-09-10T09:27:49Z</time>
      </trkpt>
      <trkpt lat="44.8952" lon="-0.38955">
        <ele>34.2</ele>
        <time>2020-09-10T09:27:50Z</time>
      </trkpt>
      <trkpt lat="44.8952" lon="-0.38953">
        <ele>34.2</ele>
        <time>2020-09-10T09:27:52Z</time>
      </trkpt>
      <trkpt lat="44.89519" lon="-0.3895">
        <ele>34.2</ele>
        <time>2020-09-10T09:27:53Z</time>
      </trkpt>
      <trkpt lat="44.89519" lon="-0.38948">
        <ele>34.2</ele>
        <time>2020-09-10T09:27:54Z</time>
      </trkpt>
      <trkpt lat="44.89518" lon="-0.38946">
        <ele>34.2</ele>
        <time>2020-09-10T09:27:56Z</time>
      </trkpt>
      <trkpt lat="44.89518" lon="-0.38944">
        <ele>34.2</ele>
        <time>2020-09-10T09:27:57Z</time>
      </trkpt>
      <trkpt lat="44.89518" lon="-0.38943">
        <ele>34.2</ele>
        <time>2020-09-10T09:27:58Z</time>
      </trkpt>
      <trkpt lat="44.89517" lon="-0.38939">
        <ele>34.1</ele>
        <time>2020-09-10T09:27:59Z</time>
      </trkpt>
      <trkpt lat="44.89516" lon="-0.38937">
        <ele>34.1</ele>
        <time>2020-09-10T09:28:01Z</time>
      </trkpt>
      <trkpt lat="44.89516" lon="-0.38935">
        <ele>34.1</ele>
        <time>2020-09-10T09:28:02Z</time>
      </trkpt>
      <trkpt lat="44.89516" lon="-0.38934">
        <ele>34.1</ele>
        <time>2020-09-10T09:28:03Z</time>
      </trkpt>
      <trkpt lat="44.89514" lon="-0.3893">
        <ele>34.1</ele>
        <time>2020-09-10T09:28:05Z</time>
      </trkpt>
      <trkpt lat="44.89514" lon="-0.38929">
        <ele>34.1</ele>
        <time>2020-09-10T09:28:06Z</time>
      </trkpt>
      <trkpt lat="44.89513" lon="-0.38927">
        <ele>34.1</ele>
        <time>2020-09-10T09:28:07Z</time>
      </trkpt>
      <trkpt lat="44.89513" lon="-0.38925">
        <ele>34.1</ele>
        <time>2020-09-10T09:28:08Z</time>
      </trkpt>
      <trkpt lat="44.89512" lon="-0.38922">
        <ele>34</ele>
        <time>2020-09-10T09:28:10Z</time>
      </trkpt>
      <trkpt lat="44.89512" lon="-0.3892">
        <ele>34</ele>
        <time>2020-09-10T09:28:11Z</time>
      </trkpt>
      <trkpt lat="44.89512" lon="-0.38918">
        <ele>34</ele>
        <time>2020-09-10T09:28:12Z</time>
      </trkpt>
      <trkpt lat="44.89512" lon="-0.38916">
        <ele>34</ele>
        <time>2020-09-10T09:28:13Z</time>
      </trkpt>
      <trkpt lat="44.89511" lon="-0.38913">
        <ele>34</ele>
        <time>2020-09-10T09:28:15Z</time>
      </trkpt>
      <trkpt lat="44.89511" lon="-0.38911">
        <ele>34</ele>
        <time>2020-09-10T09:28:16Z</time>
      </trkpt>
      <trkpt lat="44.89511" lon="-0.3891">
        <ele>34</ele>
        <time>2020-09-10T09:28:18Z</time>
      </trkpt>
      <trkpt lat="44.8951" lon="-0.38907">
        <ele>33.9</ele>
        <time>2020-09-10T09:28:19Z</time>
      </trkpt>
      <trkpt lat="44.89509" lon="-0.38906">
        <ele>33.9</ele>
        <time>2020-09-10T09:28:20Z</time>
      </trkpt>
      <trkpt lat="44.89509" lon="-0.38904">
        <ele>33.9</ele>
        <time>2020-09-10T09:28:22Z</time>
      </trkpt>
      <trkpt lat="44.89509" lon="-0.38903">
        <ele>33.9</ele>
        <time>2020-09-10T09:28:23Z</time>
      </trkpt>
      <trkpt lat="44.89508" lon="-0.38902">
        <ele>33.9</ele>
        <time>2020-09-10T09:28:24Z</time>
      </trkpt>
      <trkpt lat="44.89508" lon="-0.38901">
        <ele>33.9</ele>
        <time>2020-09-10T09:28:25Z</time>
      </trkpt>
      <trkpt lat="44.89508" lon="-0.38899">
        <ele>33.9</ele>
        <time>2020-09-10T09:28:26Z</time>
      </trkpt>
      <trkpt lat="44.89507" lon="-0.38895">
        <ele>33.9</ele>
        <time>2020-09-10T09:28:28Z</time>
      </trkpt>
      <trkpt lat="44.89506" lon="-0.38894">
        <ele>33.9</ele>
        <time>2020-09-10T09:28:29Z</time>
      </trkpt>
      <trkpt lat="44.89506" lon="-0.38892">
        <ele>33.8</ele>
        <time>2020-09-10T09:28:30Z</time>
      </trkpt>
      <trkpt lat="44.89506" lon="-0.3889">
        <ele>33.8</ele>
        <time>2020-09-10T09:28:31Z</time>
      </trkpt>
      <trkpt lat="44.89505" lon="-0.38888">
        <ele>33.8</ele>
        <time>2020-09-10T09:28:32Z</time>
      </trkpt>
      <trkpt lat="44.89504" lon="-0.38884">
        <ele>33.8</ele>
        <time>2020-09-10T09:28:34Z</time>
      </trkpt>
      <trkpt lat="44.89503" lon="-0.3888">
        <ele>33.7</ele>
        <time>2020-09-10T09:28:36Z</time>
      </trkpt>
      <trkpt lat="44.89503" lon="-0.38877">
        <ele>33.7</ele>
        <time>2020-09-10T09:28:37Z</time>
      </trkpt>
      <trkpt lat="44.89502" lon="-0.38876">
        <ele>33.7</ele>
        <time>2020-09-10T09:28:38Z</time>
      </trkpt>
      <trkpt lat="44.89502" lon="-0.38874">
        <ele>33.7</ele>
        <time>2020-09-10T09:28:39Z</time>
      </trkpt>
      <trkpt lat="44.89502" lon="-0.38873">
        <ele>33.7</ele>
        <time>2020-09-10T09:28:41Z</time>
      </trkpt>
      <trkpt lat="44.89501" lon="-0.38871">
        <ele>33.7</ele>
        <time>2020-09-10T09:28:42Z</time>
      </trkpt>
      <trkpt lat="44.89501" lon="-0.38869">
        <ele>33.6</ele>
        <time>2020-09-10T09:28:43Z</time>
      </trkpt>
      <trkpt lat="44.89501" lon="-0.38867">
        <ele>33.6</ele>
        <time>2020-09-10T09:28:44Z</time>
      </trkpt>
      <trkpt lat="44.89499" lon="-0.38863">
        <ele>33.6</ele>
        <time>2020-09-10T09:28:46Z</time>
      </trkpt>
      <trkpt lat="44.89499" lon="-0.38861">
        <ele>33.5</ele>
        <time>2020-09-10T09:28:47Z</time>
      </trkpt>
      <trkpt lat="44.89498" lon="-0.3886">
        <ele>33.5</ele>
        <time>2020-09-10T09:28:48Z</time>
      </trkpt>
      <trkpt lat="44.89498" lon="-0.38858">
        <ele>33.5</ele>
        <time>2020-09-10T09:28:49Z</time>
      </trkpt>
      <trkpt lat="44.89498" lon="-0.38855">
        <ele>33.5</ele>
        <time>2020-09-10T09:28:51Z</time>
      </trkpt>
      <trkpt lat="44.89497" lon="-0.38852">
        <ele>33.4</ele>
        <time>2020-09-10T09:28:52Z</time>
      </trkpt>
      <trkpt lat="44.89497" lon="-0.38851">
        <ele>33.4</ele>
        <time>2020-09-10T09:28:53Z</time>
      </trkpt>
      <trkpt lat="44.89496" lon="-0.38848">
        <ele>33.4</ele>
        <time>2020-09-10T09:28:55Z</time>
      </trkpt>
      <trkpt lat="44.89496" lon="-0.38847">
        <ele>33.4</ele>
        <time>2020-09-10T09:28:56Z</time>
      </trkpt>
      <trkpt lat="44.89496" lon="-0.38844">
        <ele>33.4</ele>
        <time>2020-09-10T09:28:57Z</time>
      </trkpt>
      <trkpt lat="44.89496" lon="-0.38842">
        <ele>33.3</ele>
        <time>2020-09-10T09:28:58Z</time>
      </trkpt>
      <trkpt lat="44.89496" lon="-0.3884">
        <ele>33.3</ele>
        <time>2020-09-10T09:29:00Z</time>
      </trkpt>
      <trkpt lat="44.89496" lon="-0.38838">
        <ele>33.3</ele>
        <time>2020-09-10T09:29:01Z</time>
      </trkpt>
      <trkpt lat="44.89495" lon="-0.38835">
        <ele>33.3</ele>
        <time>2020-09-10T09:29:03Z</time>
      </trkpt>
      <trkpt lat="44.89495" lon="-0.38834">
        <ele>33.3</ele>
        <time>2020-09-10T09:29:05Z</time>
      </trkpt>
      <trkpt lat="44.89495" lon="-0.38831">
        <ele>33.3</ele>
        <time>2020-09-10T09:29:06Z</time>
      </trkpt>
      <trkpt lat="44.89495" lon="-0.38831">
        <ele>33.3</ele>
        <time>2020-09-10T09:29:08Z</time>
      </trkpt>
      <trkpt lat="44.89496" lon="-0.38832">
        <ele>33.2</ele>
        <time>2020-09-10T09:29:09Z</time>
      </trkpt>
      <trkpt lat="44.89496" lon="-0.38833">
        <ele>33.2</ele>
        <time>2020-09-10T09:29:11Z</time>
      </trkpt>
      <trkpt lat="44.89497" lon="-0.38834">
        <ele>33.2</ele>
        <time>2020-09-10T09:29:13Z</time>
      </trkpt>
      <trkpt lat="44.89497" lon="-0.38833">
        <ele>33.2</ele>
        <time>2020-09-10T09:29:15Z</time>
      </trkpt>
      <trkpt lat="44.89497" lon="-0.38832">
        <ele>33.2</ele>
        <time>2020-09-10T09:29:16Z</time>
      </trkpt>
      <trkpt lat="44.89497" lon="-0.3883">
        <ele>33.2</ele>
        <time>2020-09-10T09:29:17Z</time>
      </trkpt>
      <trkpt lat="44.89496" lon="-0.38828">
        <ele>33.2</ele>
        <time>2020-09-10T09:29:18Z</time>
      </trkpt>
      <trkpt lat="44.89496" lon="-0.38828">
        <ele>33.2</ele>
        <time>2020-09-10T09:29:19Z</time>
      </trkpt>
      <trkpt lat="44.89495" lon="-0.38826">
        <ele>33.2</ele>
        <time>2020-09-10T09:29:20Z</time>
      </trkpt>
      <trkpt lat="44.89494" lon="-0.38824">
        <ele>33.2</ele>
        <time>2020-09-10T09:29:22Z</time>
      </trkpt>
      <trkpt lat="44.89493" lon="-0.38821">
        <ele>33.2</ele>
        <time>2020-09-10T09:29:23Z</time>
      </trkpt>
      <trkpt lat="44.89493" lon="-0.3882">
        <ele>33.2</ele>
        <time>2020-09-10T09:29:24Z</time>
      </trkpt>
      <trkpt lat="44.89492" lon="-0.38819">
        <ele>33.1</ele>
        <time>2020-09-10T09:29:25Z</time>
      </trkpt>
      <trkpt lat="44.89491" lon="-0.38817">
        <ele>33.1</ele>
        <time>2020-09-10T09:29:26Z</time>
      </trkpt>
      <trkpt lat="44.89491" lon="-0.38815">
        <ele>33.1</ele>
        <time>2020-09-10T09:29:27Z</time>
      </trkpt>
      <trkpt lat="44.89489" lon="-0.38811">
        <ele>33.1</ele>
        <time>2020-09-10T09:29:29Z</time>
      </trkpt>
      <trkpt lat="44.89489" lon="-0.3881">
        <ele>33.1</ele>
        <time>2020-09-10T09:29:30Z</time>
      </trkpt>
      <trkpt lat="44.89487" lon="-0.38806">
        <ele>33.1</ele>
        <time>2020-09-10T09:29:31Z</time>
      </trkpt>
      <trkpt lat="44.89486" lon="-0.38803">
        <ele>33.1</ele>
        <time>2020-09-10T09:29:33Z</time>
      </trkpt>
      <trkpt lat="44.89485" lon="-0.38801">
        <ele>33</ele>
        <time>2020-09-10T09:29:34Z</time>
      </trkpt>
      <trkpt lat="44.89485" lon="-0.38799">
        <ele>33</ele>
        <time>2020-09-10T09:29:35Z</time>
      </trkpt>
      <trkpt lat="44.89484" lon="-0.38794">
        <ele>33</ele>
        <time>2020-09-10T09:29:36Z</time>
      </trkpt>
      <trkpt lat="44.89484" lon="-0.38793">
        <ele>33</ele>
        <time>2020-09-10T09:29:37Z</time>
      </trkpt>
      <trkpt lat="44.89484" lon="-0.3879">
        <ele>33</ele>
        <time>2020-09-10T09:29:39Z</time>
      </trkpt>
      <trkpt lat="44.89484" lon="-0.38789">
        <ele>33</ele>
        <time>2020-09-10T09:29:40Z</time>
      </trkpt>
      <trkpt lat="44.89484" lon="-0.38787">
        <ele>33</ele>
        <time>2020-09-10T09:29:41Z</time>
      </trkpt>
      <trkpt lat="44.89483" lon="-0.38785">
        <ele>32.9</ele>
        <time>2020-09-10T09:29:42Z</time>
      </trkpt>
      <trkpt lat="44.89482" lon="-0.38781">
        <ele>32.9</ele>
        <time>2020-09-10T09:29:44Z</time>
      </trkpt>
      <trkpt lat="44.89482" lon="-0.3878">
        <ele>32.9</ele>
        <time>2020-09-10T09:29:45Z</time>
      </trkpt>
      <trkpt lat="44.89482" lon="-0.38776">
        <ele>32.9</ele>
        <time>2020-09-10T09:29:47Z</time>
      </trkpt>
      <trkpt lat="44.89481" lon="-0.38775">
        <ele>33</ele>
        <time>2020-09-10T09:29:49Z</time>
      </trkpt>
      <trkpt lat="44.89481" lon="-0.38774">
        <ele>33</ele>
        <time>2020-09-10T09:29:50Z</time>
      </trkpt>
      <trkpt lat="44.8948" lon="-0.38773">
        <ele>33</ele>
        <time>2020-09-10T09:29:51Z</time>
      </trkpt>
      <trkpt lat="44.89479" lon="-0.38773">
        <ele>33.1</ele>
        <time>2020-09-10T09:29:52Z</time>
      </trkpt>
      <trkpt lat="44.89478" lon="-0.38774">
        <ele>33.1</ele>
        <time>2020-09-10T09:29:53Z</time>
      </trkpt>
      <trkpt lat="44.89477" lon="-0.38775">
        <ele>33.1</ele>
        <time>2020-09-10T09:29:54Z</time>
      </trkpt>
      <trkpt lat="44.89475" lon="-0.38777">
        <ele>33.1</ele>
        <time>2020-09-10T09:29:56Z</time>
      </trkpt>
      <trkpt lat="44.89474" lon="-0.38778">
        <ele>33.2</ele>
        <time>2020-09-10T09:29:57Z</time>
      </trkpt>
      <trkpt lat="44.89473" lon="-0.38779">
        <ele>33.2</ele>
        <time>2020-09-10T09:29:59Z</time>
      </trkpt>
      <trkpt lat="44.89472" lon="-0.3878">
        <ele>33.2</ele>
        <time>2020-09-10T09:30:00Z</time>
      </trkpt>
      <trkpt lat="44.89469" lon="-0.38782">
        <ele>33.3</ele>
        <time>2020-09-10T09:30:02Z</time>
      </trkpt>
      <trkpt lat="44.89468" lon="-0.38783">
        <ele>33.3</ele>
        <time>2020-09-10T09:30:03Z</time>
      </trkpt>
      <trkpt lat="44.89467" lon="-0.38783">
        <ele>33.3</ele>
        <time>2020-09-10T09:30:04Z</time>
      </trkpt>
      <trkpt lat="44.89466" lon="-0.38784">
        <ele>33.3</ele>
        <time>2020-09-10T09:30:05Z</time>
      </trkpt>
      <trkpt lat="44.89464" lon="-0.38785">
        <ele>33.3</ele>
        <time>2020-09-10T09:30:07Z</time>
      </trkpt>
      <trkpt lat="44.89462" lon="-0.38786">
        <ele>33.3</ele>
        <time>2020-09-10T09:30:08Z</time>
      </trkpt>
      <trkpt lat="44.89461" lon="-0.38787">
        <ele>33.3</ele>
        <time>2020-09-10T09:30:09Z</time>
      </trkpt>
      <trkpt lat="44.89461" lon="-0.38788">
        <ele>33.3</ele>
        <time>2020-09-10T09:30:10Z</time>
      </trkpt>
      <trkpt lat="44.8946" lon="-0.38789">
        <ele>33.3</ele>
        <time>2020-09-10T09:30:11Z</time>
      </trkpt>
      <trkpt lat="44.89458" lon="-0.3879">
        <ele>33.4</ele>
        <time>2020-09-10T09:30:13Z</time>
      </trkpt>
      <trkpt lat="44.89457" lon="-0.38791">
        <ele>33.4</ele>
        <time>2020-09-10T09:30:14Z</time>
      </trkpt>
      <trkpt lat="44.89455" lon="-0.38792">
        <ele>33.4</ele>
        <time>2020-09-10T09:30:15Z</time>
      </trkpt>
      <trkpt lat="44.89454" lon="-0.38793">
        <ele>33.4</ele>
        <time>2020-09-10T09:30:16Z</time>
      </trkpt>
      <trkpt lat="44.89452" lon="-0.38794">
        <ele>33.4</ele>
        <time>2020-09-10T09:30:18Z</time>
      </trkpt>
      <trkpt lat="44.8945" lon="-0.38794">
        <ele>33.4</ele>
        <time>2020-09-10T09:30:19Z</time>
      </trkpt>
      <trkpt lat="44.89449" lon="-0.38795">
        <ele>33.4</ele>
        <time>2020-09-10T09:30:20Z</time>
      </trkpt>
      <trkpt lat="44.89447" lon="-0.38795">
        <ele>33.5</ele>
        <time>2020-09-10T09:30:22Z</time>
      </trkpt>
      <trkpt lat="44.89446" lon="-0.38796">
        <ele>33.5</ele>
        <time>2020-09-10T09:30:24Z</time>
      </trkpt>
      <trkpt lat="44.89444" lon="-0.38797">
        <ele>33.5</ele>
        <time>2020-09-10T09:30:25Z</time>
      </trkpt>
      <trkpt lat="44.89442" lon="-0.38798">
        <ele>33.6</ele>
        <time>2020-09-10T09:30:26Z</time>
      </trkpt>
      <trkpt lat="44.8944" lon="-0.38799">
        <ele>33.6</ele>
        <time>2020-09-10T09:30:28Z</time>
      </trkpt>
      <trkpt lat="44.89439" lon="-0.388">
        <ele>33.6</ele>
        <time>2020-09-10T09:30:29Z</time>
      </trkpt>
      <trkpt lat="44.89438" lon="-0.388">
        <ele>33.6</ele>
        <time>2020-09-10T09:30:31Z</time>
      </trkpt>
      <trkpt lat="44.89436" lon="-0.38801">
        <ele>33.7</ele>
        <time>2020-09-10T09:30:32Z</time>
      </trkpt>
      <trkpt lat="44.89433" lon="-0.38804">
        <ele>33.7</ele>
        <time>2020-09-10T09:30:34Z</time>
      </trkpt>
      <trkpt lat="44.89432" lon="-0.38805">
        <ele>33.8</ele>
        <time>2020-09-10T09:30:35Z</time>
      </trkpt>
      <trkpt lat="44.89431" lon="-0.38805">
        <ele>33.8</ele>
        <time>2020-09-10T09:30:37Z</time>
      </trkpt>
      <trkpt lat="44.8943" lon="-0.38806">
        <ele>33.8</ele>
        <time>2020-09-10T09:30:38Z</time>
      </trkpt>
      <trkpt lat="44.89428" lon="-0.38807">
        <ele>33.8</ele>
        <time>2020-09-10T09:30:39Z</time>
      </trkpt>
      <trkpt lat="44.89426" lon="-0.38808">
        <ele>33.8</ele>
        <time>2020-09-10T09:30:41Z</time>
      </trkpt>
      <trkpt lat="44.89425" lon="-0.38809">
        <ele>33.9</ele>
        <time>2020-09-10T09:30:42Z</time>
      </trkpt>
      <trkpt lat="44.89424" lon="-0.38809">
        <ele>33.9</ele>
        <time>2020-09-10T09:30:43Z</time>
      </trkpt>
      <trkpt lat="44.89422" lon="-0.3881">
        <ele>33.9</ele>
        <time>2020-09-10T09:30:45Z</time>
      </trkpt>
      <trkpt lat="44.8942" lon="-0.3881">
        <ele>33.9</ele>
        <time>2020-09-10T09:30:46Z</time>
      </trkpt>
      <trkpt lat="44.8942" lon="-0.38811">
        <ele>33.9</ele>
        <time>2020-09-10T09:30:47Z</time>
      </trkpt>
      <trkpt lat="44.89417" lon="-0.38812">
        <ele>33.9</ele>
        <time>2020-09-10T09:30:49Z</time>
      </trkpt>
      <trkpt lat="44.89416" lon="-0.38811">
        <ele>33.9</ele>
        <time>2020-09-10T09:30:50Z</time>
      </trkpt>
      <trkpt lat="44.89415" lon="-0.38811">
        <ele>33.9</ele>
        <time>2020-09-10T09:30:52Z</time>
      </trkpt>
      <trkpt lat="44.89414" lon="-0.38812">
        <ele>34</ele>
        <time>2020-09-10T09:30:53Z</time>
      </trkpt>
      <trkpt lat="44.89412" lon="-0.38813">
        <ele>34</ele>
        <time>2020-09-10T09:30:54Z</time>
      </trkpt>
      <trkpt lat="44.89411" lon="-0.38813">
        <ele>34</ele>
        <time>2020-09-10T09:30:56Z</time>
      </trkpt>
      <trkpt lat="44.8941" lon="-0.38813">
        <ele>34</ele>
        <time>2020-09-10T09:30:57Z</time>
      </trkpt>
      <trkpt lat="44.89409" lon="-0.38813">
        <ele>34</ele>
        <time>2020-09-10T09:30:58Z</time>
      </trkpt>
      <trkpt lat="44.89407" lon="-0.38814">
        <ele>34</ele>
        <time>2020-09-10T09:30:59Z</time>
      </trkpt>
      <trkpt lat="44.89405" lon="-0.38814">
        <ele>34</ele>
        <time>2020-09-10T09:31:01Z</time>
      </trkpt>
      <trkpt lat="44.89403" lon="-0.38814">
        <ele>34</ele>
        <time>2020-09-10T09:31:02Z</time>
      </trkpt>
      <trkpt lat="44.89402" lon="-0.38814">
        <ele>34</ele>
        <time>2020-09-10T09:31:04Z</time>
      </trkpt>
      <trkpt lat="44.89401" lon="-0.38815">
        <ele>34</ele>
        <time>2020-09-10T09:31:05Z</time>
      </trkpt>
      <trkpt lat="44.89399" lon="-0.38815">
        <ele>34</ele>
        <time>2020-09-10T09:31:07Z</time>
      </trkpt>
      <trkpt lat="44.89397" lon="-0.38815">
        <ele>34</ele>
        <time>2020-09-10T09:31:08Z</time>
      </trkpt>
      <trkpt lat="44.89396" lon="-0.38816">
        <ele>34</ele>
        <time>2020-09-10T09:31:09Z</time>
      </trkpt>
      <trkpt lat="44.89395" lon="-0.38816">
        <ele>34</ele>
        <time>2020-09-10T09:31:10Z</time>
      </trkpt>
      <trkpt lat="44.89393" lon="-0.38817">
        <ele>34</ele>
        <time>2020-09-10T09:31:12Z</time>
      </trkpt>
      <trkpt lat="44.89392" lon="-0.38817">
        <ele>34</ele>
        <time>2020-09-10T09:31:13Z</time>
      </trkpt>
      <trkpt lat="44.8939" lon="-0.38818">
        <ele>34</ele>
        <time>2020-09-10T09:31:15Z</time>
      </trkpt>
      <trkpt lat="44.89387" lon="-0.38818">
        <ele>34</ele>
        <time>2020-09-10T09:31:16Z</time>
      </trkpt>
      <trkpt lat="44.89387" lon="-0.38818">
        <ele>34</ele>
        <time>2020-09-10T09:31:17Z</time>
      </trkpt>
      <trkpt lat="44.89386" lon="-0.38818">
        <ele>34</ele>
        <time>2020-09-10T09:31:18Z</time>
      </trkpt>
      <trkpt lat="44.89384" lon="-0.38819">
        <ele>34</ele>
        <time>2020-09-10T09:31:20Z</time>
      </trkpt>
      <trkpt lat="44.89383" lon="-0.38819">
        <ele>34</ele>
        <time>2020-09-10T09:31:21Z</time>
      </trkpt>
      <trkpt lat="44.89382" lon="-0.38819">
        <ele>34</ele>
        <time>2020-09-10T09:31:22Z</time>
      </trkpt>
      <trkpt lat="44.8938" lon="-0.3882">
        <ele>34</ele>
        <time>2020-09-10T09:31:23Z</time>
      </trkpt>
      <trkpt lat="44.89379" lon="-0.38821">
        <ele>34</ele>
        <time>2020-09-10T09:31:24Z</time>
      </trkpt>
      <trkpt lat="44.89379" lon="-0.38821">
        <ele>34</ele>
        <time>2020-09-10T09:31:25Z</time>
      </trkpt>
      <trkpt lat="44.89377" lon="-0.38822">
        <ele>34.1</ele>
        <time>2020-09-10T09:31:26Z</time>
      </trkpt>
      <trkpt lat="44.89376" lon="-0.38822">
        <ele>34.1</ele>
        <time>2020-09-10T09:31:27Z</time>
      </trkpt>
      <trkpt lat="44.89375" lon="-0.38822">
        <ele>34.1</ele>
        <time>2020-09-10T09:31:29Z</time>
      </trkpt>
      <trkpt lat="44.89373" lon="-0.38823">
        <ele>34.1</ele>
        <time>2020-09-10T09:31:30Z</time>
      </trkpt>
      <trkpt lat="44.89372" lon="-0.38824">
        <ele>34.1</ele>
        <time>2020-09-10T09:31:31Z</time>
      </trkpt>
      <trkpt lat="44.8937" lon="-0.38824">
        <ele>34.1</ele>
        <time>2020-09-10T09:31:33Z</time>
      </trkpt>
      <trkpt lat="44.89369" lon="-0.38825">
        <ele>34.1</ele>
        <time>2020-09-10T09:31:34Z</time>
      </trkpt>
      <trkpt lat="44.89367" lon="-0.38826">
        <ele>34.1</ele>
        <time>2020-09-10T09:31:35Z</time>
      </trkpt>
      <trkpt lat="44.89366" lon="-0.38826">
        <ele>34.1</ele>
        <time>2020-09-10T09:31:36Z</time>
      </trkpt>
      <trkpt lat="44.89365" lon="-0.38826">
        <ele>34.1</ele>
        <time>2020-09-10T09:31:37Z</time>
      </trkpt>
      <trkpt lat="44.89365" lon="-0.38826">
        <ele>34.1</ele>
        <time>2020-09-10T09:31:38Z</time>
      </trkpt>
      <trkpt lat="44.89363" lon="-0.38826">
        <ele>34.1</ele>
        <time>2020-09-10T09:31:40Z</time>
      </trkpt>
      <trkpt lat="44.89363" lon="-0.38826">
        <ele>34.1</ele>
        <time>2020-09-10T09:31:41Z</time>
      </trkpt>
      <trkpt lat="44.89361" lon="-0.38826">
        <ele>34.1</ele>
        <time>2020-09-10T09:31:42Z</time>
      </trkpt>
      <trkpt lat="44.8936" lon="-0.38826">
        <ele>34.1</ele>
        <time>2020-09-10T09:31:43Z</time>
      </trkpt>
      <trkpt lat="44.89358" lon="-0.38826">
        <ele>34.2</ele>
        <time>2020-09-10T09:31:44Z</time>
      </trkpt>
      <trkpt lat="44.89358" lon="-0.38827">
        <ele>34.2</ele>
        <time>2020-09-10T09:31:45Z</time>
      </trkpt>
      <trkpt lat="44.89357" lon="-0.38828">
        <ele>34.2</ele>
        <time>2020-09-10T09:31:46Z</time>
      </trkpt>
      <trkpt lat="44.89356" lon="-0.38829">
        <ele>34.2</ele>
        <time>2020-09-10T09:31:48Z</time>
      </trkpt>
      <trkpt lat="44.89355" lon="-0.3883">
        <ele>34.2</ele>
        <time>2020-09-10T09:31:49Z</time>
      </trkpt>
      <trkpt lat="44.89353" lon="-0.38832">
        <ele>34.2</ele>
        <time>2020-09-10T09:31:50Z</time>
      </trkpt>
      <trkpt lat="44.89352" lon="-0.38833">
        <ele>34.2</ele>
        <time>2020-09-10T09:31:51Z</time>
      </trkpt>
      <trkpt lat="44.89352" lon="-0.38834">
        <ele>34.2</ele>
        <time>2020-09-10T09:31:52Z</time>
      </trkpt>
      <trkpt lat="44.89352" lon="-0.38836">
        <ele>34.2</ele>
        <time>2020-09-10T09:31:53Z</time>
      </trkpt>
      <trkpt lat="44.89352" lon="-0.38839">
        <ele>34.2</ele>
        <time>2020-09-10T09:31:55Z</time>
      </trkpt>
      <trkpt lat="44.89353" lon="-0.38841">
        <ele>34.2</ele>
        <time>2020-09-10T09:31:56Z</time>
      </trkpt>
      <trkpt lat="44.89353" lon="-0.38843">
        <ele>34.2</ele>
        <time>2020-09-10T09:31:57Z</time>
      </trkpt>
      <trkpt lat="44.89353" lon="-0.38845">
        <ele>34.2</ele>
        <time>2020-09-10T09:31:58Z</time>
      </trkpt>
      <trkpt lat="44.89354" lon="-0.38847">
        <ele>34.2</ele>
        <time>2020-09-10T09:31:59Z</time>
      </trkpt>
      <trkpt lat="44.89354" lon="-0.3885">
        <ele>34.2</ele>
        <time>2020-09-10T09:32:00Z</time>
      </trkpt>
      <trkpt lat="44.89355" lon="-0.38852">
        <ele>34.2</ele>
        <time>2020-09-10T09:32:01Z</time>
      </trkpt>
      <trkpt lat="44.89356" lon="-0.38854">
        <ele>34.2</ele>
        <time>2020-09-10T09:32:02Z</time>
      </trkpt>
      <trkpt lat="44.89356" lon="-0.38855">
        <ele>34.2</ele>
        <time>2020-09-10T09:32:03Z</time>
      </trkpt>
      <trkpt lat="44.89357" lon="-0.38857">
        <ele>34.2</ele>
        <time>2020-09-10T09:32:05Z</time>
      </trkpt>
      <trkpt lat="44.89358" lon="-0.38859">
        <ele>34.2</ele>
        <time>2020-09-10T09:32:06Z</time>
      </trkpt>
      <trkpt lat="44.89359" lon="-0.3886">
        <ele>34.2</ele>
        <time>2020-09-10T09:32:07Z</time>
      </trkpt>
      <trkpt lat="44.89359" lon="-0.38861">
        <ele>34.2</ele>
        <time>2020-09-10T09:32:08Z</time>
      </trkpt>
      <trkpt lat="44.89361" lon="-0.38864">
        <ele>34.2</ele>
        <time>2020-09-10T09:32:10Z</time>
      </trkpt>
      <trkpt lat="44.89362" lon="-0.38868">
        <ele>34.2</ele>
        <time>2020-09-10T09:32:12Z</time>
      </trkpt>
      <trkpt lat="44.89363" lon="-0.38869">
        <ele>34.2</ele>
        <time>2020-09-10T09:32:13Z</time>
      </trkpt>
      <trkpt lat="44.89364" lon="-0.38871">
        <ele>34.2</ele>
        <time>2020-09-10T09:32:15Z</time>
      </trkpt>
      <trkpt lat="44.89364" lon="-0.38873">
        <ele>34.2</ele>
        <time>2020-09-10T09:32:16Z</time>
      </trkpt>
      <trkpt lat="44.89365" lon="-0.38874">
        <ele>34.2</ele>
        <time>2020-09-10T09:32:17Z</time>
      </trkpt>
      <trkpt lat="44.89366" lon="-0.38875">
        <ele>34.2</ele>
        <time>2020-09-10T09:32:18Z</time>
      </trkpt>
      <trkpt lat="44.89366" lon="-0.38877">
        <ele>34.2</ele>
        <time>2020-09-10T09:32:19Z</time>
      </trkpt>
      <trkpt lat="44.89367" lon="-0.38879">
        <ele>34.2</ele>
        <time>2020-09-10T09:32:21Z</time>
      </trkpt>
      <trkpt lat="44.89367" lon="-0.3888">
        <ele>34.2</ele>
        <time>2020-09-10T09:32:22Z</time>
      </trkpt>
      <trkpt lat="44.89368" lon="-0.38881">
        <ele>34.2</ele>
        <time>2020-09-10T09:32:23Z</time>
      </trkpt>
      <trkpt lat="44.89368" lon="-0.38883">
        <ele>34.2</ele>
        <time>2020-09-10T09:32:24Z</time>
      </trkpt>
      <trkpt lat="44.89369" lon="-0.38885">
        <ele>34.2</ele>
        <time>2020-09-10T09:32:25Z</time>
      </trkpt>
      <trkpt lat="44.89369" lon="-0.38886">
        <ele>34.2</ele>
        <time>2020-09-10T09:32:26Z</time>
      </trkpt>
      <trkpt lat="44.89369" lon="-0.38888">
        <ele>34.2</ele>
        <time>2020-09-10T09:32:27Z</time>
      </trkpt>
      <trkpt lat="44.8937" lon="-0.3889">
        <ele>34.2</ele>
        <time>2020-09-10T09:32:28Z</time>
      </trkpt>
      <trkpt lat="44.8937" lon="-0.38891">
        <ele>34.2</ele>
        <time>2020-09-10T09:32:30Z</time>
      </trkpt>
      <trkpt lat="44.89371" lon="-0.38894">
        <ele>34.2</ele>
        <time>2020-09-10T09:32:31Z</time>
      </trkpt>
      <trkpt lat="44.89371" lon="-0.38895">
        <ele>34.2</ele>
        <time>2020-09-10T09:32:32Z</time>
      </trkpt>
      <trkpt lat="44.89372" lon="-0.38897">
        <ele>34.2</ele>
        <time>2020-09-10T09:32:34Z</time>
      </trkpt>
      <trkpt lat="44.89372" lon="-0.389">
        <ele>34.2</ele>
        <time>2020-09-10T09:32:35Z</time>
      </trkpt>
      <trkpt lat="44.89372" lon="-0.38901">
        <ele>34.2</ele>
        <time>2020-09-10T09:32:36Z</time>
      </trkpt>
      <trkpt lat="44.89373" lon="-0.38902">
        <ele>34.2</ele>
        <time>2020-09-10T09:32:37Z</time>
      </trkpt>
      <trkpt lat="44.89373" lon="-0.38905">
        <ele>34.3</ele>
        <time>2020-09-10T09:32:38Z</time>
      </trkpt>
      <trkpt lat="44.89374" lon="-0.38907">
        <ele>34.3</ele>
        <time>2020-09-10T09:32:39Z</time>
      </trkpt>
      <trkpt lat="44.89373" lon="-0.38908">
        <ele>34.3</ele>
        <time>2020-09-10T09:32:40Z</time>
      </trkpt>
      <trkpt lat="44.89373" lon="-0.3891">
        <ele>34.3</ele>
        <time>2020-09-10T09:32:41Z</time>
      </trkpt>
      <trkpt lat="44.89373" lon="-0.38911">
        <ele>34.3</ele>
        <time>2020-09-10T09:32:43Z</time>
      </trkpt>
      <trkpt lat="44.89374" lon="-0.38914">
        <ele>34.3</ele>
        <time>2020-09-10T09:32:44Z</time>
      </trkpt>
      <trkpt lat="44.89374" lon="-0.38916">
        <ele>34.3</ele>
        <time>2020-09-10T09:32:45Z</time>
      </trkpt>
      <trkpt lat="44.89374" lon="-0.38919">
        <ele>34.3</ele>
        <time>2020-09-10T09:32:46Z</time>
      </trkpt>
      <trkpt lat="44.89374" lon="-0.38921">
        <ele>34.4</ele>
        <time>2020-09-10T09:32:47Z</time>
      </trkpt>
      <trkpt lat="44.89375" lon="-0.38923">
        <ele>34.4</ele>
        <time>2020-09-10T09:32:48Z</time>
      </trkpt>
      <trkpt lat="44.89375" lon="-0.38925">
        <ele>34.4</ele>
        <time>2020-09-10T09:32:49Z</time>
      </trkpt>
      <trkpt lat="44.89375" lon="-0.38926">
        <ele>34.4</ele>
        <time>2020-09-10T09:32:50Z</time>
      </trkpt>
      <trkpt lat="44.89375" lon="-0.38928">
        <ele>34.4</ele>
        <time>2020-09-10T09:32:52Z</time>
      </trkpt>
      <trkpt lat="44.89375" lon="-0.38929">
        <ele>34.4</ele>
        <time>2020-09-10T09:32:53Z</time>
      </trkpt>
      <trkpt lat="44.89375" lon="-0.38931">
        <ele>34.4</ele>
        <time>2020-09-10T09:32:54Z</time>
      </trkpt>
      <trkpt lat="44.89376" lon="-0.38933">
        <ele>34.4</ele>
        <time>2020-09-10T09:32:56Z</time>
      </trkpt>
      <trkpt lat="44.89376" lon="-0.38934">
        <ele>34.4</ele>
        <time>2020-09-10T09:32:57Z</time>
      </trkpt>
      <trkpt lat="44.89376" lon="-0.38936">
        <ele>34.4</ele>
        <time>2020-09-10T09:32:58Z</time>
      </trkpt>
      <trkpt lat="44.89376" lon="-0.38938">
        <ele>34.5</ele>
        <time>2020-09-10T09:33:00Z</time>
      </trkpt>
      <trkpt lat="44.89377" lon="-0.3894">
        <ele>34.5</ele>
        <time>2020-09-10T09:33:01Z</time>
      </trkpt>
      <trkpt lat="44.89377" lon="-0.38943">
        <ele>34.5</ele>
        <time>2020-09-10T09:33:03Z</time>
      </trkpt>
      <trkpt lat="44.89377" lon="-0.38944">
        <ele>34.5</ele>
        <time>2020-09-10T09:33:04Z</time>
      </trkpt>
      <trkpt lat="44.89378" lon="-0.38946">
        <ele>34.6</ele>
        <time>2020-09-10T09:33:05Z</time>
      </trkpt>
      <trkpt lat="44.89379" lon="-0.38948">
        <ele>34.6</ele>
        <time>2020-09-10T09:33:07Z</time>
      </trkpt>
      <trkpt lat="44.89379" lon="-0.3895">
        <ele>34.6</ele>
        <time>2020-09-10T09:33:08Z</time>
      </trkpt>
      <trkpt lat="44.8938" lon="-0.38953">
        <ele>34.6</ele>
        <time>2020-09-10T09:33:10Z</time>
      </trkpt>
      <trkpt lat="44.8938" lon="-0.38954">
        <ele>34.6</ele>
        <time>2020-09-10T09:33:11Z</time>
      </trkpt>
      <trkpt lat="44.8938" lon="-0.38955">
        <ele>34.7</ele>
        <time>2020-09-10T09:33:12Z</time>
      </trkpt>
      <trkpt lat="44.8938" lon="-0.38959">
        <ele>34.7</ele>
        <time>2020-09-10T09:33:14Z</time>
      </trkpt>
      <trkpt lat="44.8938" lon="-0.3896">
        <ele>34.7</ele>
        <time>2020-09-10T09:33:16Z</time>
      </trkpt>
      <trkpt lat="44.8938" lon="-0.38962">
        <ele>34.7</ele>
        <time>2020-09-10T09:33:17Z</time>
      </trkpt>
      <trkpt lat="44.89381" lon="-0.38963">
        <ele>34.7</ele>
        <time>2020-09-10T09:33:18Z</time>
      </trkpt>
      <trkpt lat="44.89381" lon="-0.38966">
        <ele>34.7</ele>
        <time>2020-09-10T09:33:19Z</time>
      </trkpt>
      <trkpt lat="44.89382" lon="-0.38967">
        <ele>34.8</ele>
        <time>2020-09-10T09:33:20Z</time>
      </trkpt>
      <trkpt lat="44.89382" lon="-0.38969">
        <ele>34.8</ele>
        <time>2020-09-10T09:33:21Z</time>
      </trkpt>
      <trkpt lat="44.89382" lon="-0.3897">
        <ele>34.8</ele>
        <time>2020-09-10T09:33:22Z</time>
      </trkpt>
      <trkpt lat="44.89383" lon="-0.38972">
        <ele>34.8</ele>
        <time>2020-09-10T09:33:23Z</time>
      </trkpt>
      <trkpt lat="44.89383" lon="-0.38974">
        <ele>34.8</ele>
        <time>2020-09-10T09:33:24Z</time>
      </trkpt>
      <trkpt lat="44.89383" lon="-0.38975">
        <ele>34.8</ele>
        <time>2020-09-10T09:33:26Z</time>
      </trkpt>
      <trkpt lat="44.89383" lon="-0.38977">
        <ele>34.8</ele>
        <time>2020-09-10T09:33:27Z</time>
      </trkpt>
      <trkpt lat="44.89384" lon="-0.38979">
        <ele>34.8</ele>
        <time>2020-09-10T09:33:29Z</time>
      </trkpt>
      <trkpt lat="44.89384" lon="-0.38981">
        <ele>34.9</ele>
        <time>2020-09-10T09:33:30Z</time>
      </trkpt>
      <trkpt lat="44.89385" lon="-0.38984">
        <ele>34.9</ele>
        <time>2020-09-10T09:33:31Z</time>
      </trkpt>
      <trkpt lat="44.89385" lon="-0.38985">
        <ele>34.9</ele>
        <time>2020-09-10T09:33:32Z</time>
      </trkpt>
      <trkpt lat="44.89385" lon="-0.38987">
        <ele>34.9</ele>
        <time>2020-09-10T09:33:33Z</time>
      </trkpt>
      <trkpt lat="44.89385" lon="-0.38988">
        <ele>34.9</ele>
        <time>2020-09-10T09:33:34Z</time>
      </trkpt>
      <trkpt lat="44.89385" lon="-0.3899">
        <ele>34.9</ele>
        <time>2020-09-10T09:33:35Z</time>
      </trkpt>
      <trkpt lat="44.89386" lon="-0.38992">
        <ele>34.9</ele>
        <time>2020-09-10T09:33:36Z</time>
      </trkpt>
      <trkpt lat="44.89386" lon="-0.38996">
        <ele>34.9</ele>
        <time>2020-09-10T09:33:38Z</time>
      </trkpt>
      <trkpt lat="44.89387" lon="-0.38998">
        <ele>35</ele>
        <time>2020-09-10T09:33:40Z</time>
      </trkpt>
      <trkpt lat="44.89387" lon="-0.39">
        <ele>35</ele>
        <time>2020-09-10T09:33:41Z</time>
      </trkpt>
      <trkpt lat="44.89387" lon="-0.39001">
        <ele>35</ele>
        <time>2020-09-10T09:33:42Z</time>
      </trkpt>
      <trkpt lat="44.89388" lon="-0.39004">
        <ele>35</ele>
        <time>2020-09-10T09:33:44Z</time>
      </trkpt>
      <trkpt lat="44.89388" lon="-0.39005">
        <ele>35</ele>
        <time>2020-09-10T09:33:45Z</time>
      </trkpt>
      <trkpt lat="44.89388" lon="-0.39007">
        <ele>35</ele>
        <time>2020-09-10T09:33:46Z</time>
      </trkpt>
      <trkpt lat="44.89388" lon="-0.39008">
        <ele>35</ele>
        <time>2020-09-10T09:33:47Z</time>
      </trkpt>
      <trkpt lat="44.89387" lon="-0.3901">
        <ele>35</ele>
        <time>2020-09-10T09:33:49Z</time>
      </trkpt>
      <trkpt lat="44.89386" lon="-0.39011">
        <ele>35</ele>
        <time>2020-09-10T09:33:50Z</time>
      </trkpt>
      <trkpt lat="44.89386" lon="-0.39011">
        <ele>35</ele>
        <time>2020-09-10T09:33:51Z</time>
      </trkpt>
      <trkpt lat="44.89384" lon="-0.39012">
        <ele>35</ele>
        <time>2020-09-10T09:33:52Z</time>
      </trkpt>
      <trkpt lat="44.89383" lon="-0.39013">
        <ele>35</ele>
        <time>2020-09-10T09:33:53Z</time>
      </trkpt>
      <trkpt lat="44.89381" lon="-0.39013">
        <ele>34.9</ele>
        <time>2020-09-10T09:33:54Z</time>
      </trkpt>
      <trkpt lat="44.8938" lon="-0.39013">
        <ele>34.9</ele>
        <time>2020-09-10T09:33:55Z</time>
      </trkpt>
      <trkpt lat="44.89379" lon="-0.39014">
        <ele>34.9</ele>
        <time>2020-09-10T09:33:57Z</time>
      </trkpt>
      <trkpt lat="44.89376" lon="-0.39015">
        <ele>34.9</ele>
        <time>2020-09-10T09:33:58Z</time>
      </trkpt>
      <trkpt lat="44.89375" lon="-0.39015">
        <ele>34.9</ele>
        <time>2020-09-10T09:34:00Z</time>
      </trkpt>
      <trkpt lat="44.89373" lon="-0.39015">
        <ele>34.9</ele>
        <time>2020-09-10T09:34:01Z</time>
      </trkpt>
      <trkpt lat="44.89371" lon="-0.39016">
        <ele>34.8</ele>
        <time>2020-09-10T09:34:02Z</time>
      </trkpt>
      <trkpt lat="44.8937" lon="-0.39016">
        <ele>34.8</ele>
        <time>2020-09-10T09:34:03Z</time>
      </trkpt>
      <trkpt lat="44.89367" lon="-0.39017">
        <ele>34.7</ele>
        <time>2020-09-10T09:34:04Z</time>
      </trkpt>
      <trkpt lat="44.89366" lon="-0.39018">
        <ele>34.7</ele>
        <time>2020-09-10T09:34:06Z</time>
      </trkpt>
      <trkpt lat="44.89364" lon="-0.39018">
        <ele>34.7</ele>
        <time>2020-09-10T09:34:08Z</time>
      </trkpt>
      <trkpt lat="44.89363" lon="-0.39018">
        <ele>34.7</ele>
        <time>2020-09-10T09:34:09Z</time>
      </trkpt>
      <trkpt lat="44.89361" lon="-0.39019">
        <ele>34.7</ele>
        <time>2020-09-10T09:34:11Z</time>
      </trkpt>
      <trkpt lat="44.89359" lon="-0.3902">
        <ele>34.7</ele>
        <time>2020-09-10T09:34:12Z</time>
      </trkpt>
      <trkpt lat="44.89357" lon="-0.39021">
        <ele>34.6</ele>
        <time>2020-09-10T09:34:13Z</time>
      </trkpt>
      <trkpt lat="44.89356" lon="-0.39022">
        <ele>34.6</ele>
        <time>2020-09-10T09:34:14Z</time>
      </trkpt>
      <trkpt lat="44.89355" lon="-0.39022">
        <ele>34.6</ele>
        <time>2020-09-10T09:34:15Z</time>
      </trkpt>
      <trkpt lat="44.89354" lon="-0.39023">
        <ele>34.6</ele>
        <time>2020-09-10T09:34:16Z</time>
      </trkpt>
      <trkpt lat="44.89353" lon="-0.39023">
        <ele>34.6</ele>
        <time>2020-09-10T09:34:17Z</time>
      </trkpt>
      <trkpt lat="44.89351" lon="-0.39024">
        <ele>34.6</ele>
        <time>2020-09-10T09:34:19Z</time>
      </trkpt>
      <trkpt lat="44.8935" lon="-0.39024">
        <ele>34.6</ele>
        <time>2020-09-10T09:34:20Z</time>
      </trkpt>
      <trkpt lat="44.89349" lon="-0.39025">
        <ele>34.6</ele>
        <time>2020-09-10T09:34:21Z</time>
      </trkpt>
      <trkpt lat="44.89347" lon="-0.39025">
        <ele>34.5</ele>
        <time>2020-09-10T09:34:22Z</time>
      </trkpt>
      <trkpt lat="44.89345" lon="-0.39025">
        <ele>34.5</ele>
        <time>2020-09-10T09:34:24Z</time>
      </trkpt>
      <trkpt lat="44.89344" lon="-0.39026">
        <ele>34.5</ele>
        <time>2020-09-10T09:34:25Z</time>
      </trkpt>
      <trkpt lat="44.89342" lon="-0.39026">
        <ele>34.5</ele>
        <time>2020-09-10T09:34:26Z</time>
      </trkpt>
      <trkpt lat="44.89341" lon="-0.39027">
        <ele>34.5</ele>
        <time>2020-09-10T09:34:27Z</time>
      </trkpt>
      <trkpt lat="44.8934" lon="-0.39027">
        <ele>34.5</ele>
        <time>2020-09-10T09:34:28Z</time>
      </trkpt>
      <trkpt lat="44.89339" lon="-0.39027">
        <ele>34.4</ele>
        <time>2020-09-10T09:34:29Z</time>
      </trkpt>
      <trkpt lat="44.89338" lon="-0.39028">
        <ele>34.4</ele>
        <time>2020-09-10T09:34:30Z</time>
      </trkpt>
      <trkpt lat="44.89337" lon="-0.39028">
        <ele>34.4</ele>
        <time>2020-09-10T09:34:31Z</time>
      </trkpt>
      <trkpt lat="44.89335" lon="-0.39029">
        <ele>34.4</ele>
        <time>2020-09-10T09:34:33Z</time>
      </trkpt>
      <trkpt lat="44.89333" lon="-0.39029">
        <ele>34.4</ele>
        <time>2020-09-10T09:34:34Z</time>
      </trkpt>
      <trkpt lat="44.89331" lon="-0.3903">
        <ele>34.4</ele>
        <time>2020-09-10T09:34:35Z</time>
      </trkpt>
      <trkpt lat="44.8933" lon="-0.3903">
        <ele>34.4</ele>
        <time>2020-09-10T09:34:37Z</time>
      </trkpt>
      <trkpt lat="44.89329" lon="-0.3903">
        <ele>34.4</ele>
        <time>2020-09-10T09:34:38Z</time>
      </trkpt>
      <trkpt lat="44.89327" lon="-0.3903">
        <ele>34.4</ele>
        <time>2020-09-10T09:34:40Z</time>
      </trkpt>
      <trkpt lat="44.89326" lon="-0.3903">
        <ele>34.4</ele>
        <time>2020-09-10T09:34:41Z</time>
      </trkpt>
      <trkpt lat="44.89324" lon="-0.39031">
        <ele>34.4</ele>
        <time>2020-09-10T09:34:42Z</time>
      </trkpt>
      <trkpt lat="44.89323" lon="-0.39031">
        <ele>34.4</ele>
        <time>2020-09-10T09:34:43Z</time>
      </trkpt>
      <trkpt lat="44.89322" lon="-0.39032">
        <ele>34.4</ele>
        <time>2020-09-10T09:34:44Z</time>
      </trkpt>
      <trkpt lat="44.89321" lon="-0.39031">
        <ele>34.4</ele>
        <time>2020-09-10T09:34:46Z</time>
      </trkpt>
      <trkpt lat="44.8932" lon="-0.3903">
        <ele>34.4</ele>
        <time>2020-09-10T09:34:47Z</time>
      </trkpt>
      <trkpt lat="44.8932" lon="-0.39029">
        <ele>34.4</ele>
        <time>2020-09-10T09:34:48Z</time>
      </trkpt>
      <trkpt lat="44.89319" lon="-0.39028">
        <ele>34.4</ele>
        <time>2020-09-10T09:34:49Z</time>
      </trkpt>
      <trkpt lat="44.89319" lon="-0.39026">
        <ele>34.4</ele>
        <time>2020-09-10T09:34:50Z</time>
      </trkpt>
      <trkpt lat="44.89318" lon="-0.39025">
        <ele>34.4</ele>
        <time>2020-09-10T09:34:51Z</time>
      </trkpt>
      <trkpt lat="44.89318" lon="-0.39022">
        <ele>34.4</ele>
        <time>2020-09-10T09:34:53Z</time>
      </trkpt>
      <trkpt lat="44.89317" lon="-0.39019">
        <ele>34.4</ele>
        <time>2020-09-10T09:34:54Z</time>
      </trkpt>
      <trkpt lat="44.89317" lon="-0.39017">
        <ele>34.4</ele>
        <time>2020-09-10T09:34:55Z</time>
      </trkpt>
      <trkpt lat="44.89317" lon="-0.39015">
        <ele>34.4</ele>
        <time>2020-09-10T09:34:56Z</time>
      </trkpt>
      <trkpt lat="44.89317" lon="-0.39014">
        <ele>34.4</ele>
        <time>2020-09-10T09:34:57Z</time>
      </trkpt>
      <trkpt lat="44.89316" lon="-0.3901">
        <ele>34.4</ele>
        <time>2020-09-10T09:34:59Z</time>
      </trkpt>
      <trkpt lat="44.89316" lon="-0.39009">
        <ele>34.4</ele>
        <time>2020-09-10T09:35:00Z</time>
      </trkpt>
      <trkpt lat="44.89315" lon="-0.39008">
        <ele>34.4</ele>
        <time>2020-09-10T09:35:01Z</time>
      </trkpt>
      <trkpt lat="44.89315" lon="-0.39006">
        <ele>34.4</ele>
        <time>2020-09-10T09:35:02Z</time>
      </trkpt>
      <trkpt lat="44.89313" lon="-0.39005">
        <ele>34.5</ele>
        <time>2020-09-10T09:35:03Z</time>
      </trkpt>
      <trkpt lat="44.89312" lon="-0.39005">
        <ele>34.5</ele>
        <time>2020-09-10T09:35:05Z</time>
      </trkpt>
      <trkpt lat="44.89311" lon="-0.39005">
        <ele>34.5</ele>
        <time>2020-09-10T09:35:06Z</time>
      </trkpt>
      <trkpt lat="44.8931" lon="-0.39005">
        <ele>34.5</ele>
        <time>2020-09-10T09:35:07Z</time>
      </trkpt>
      <trkpt lat="44.8931" lon="-0.39005">
        <ele>34.5</ele>
        <time>2020-09-10T09:35:08Z</time>
      </trkpt>
      <trkpt lat="44.89309" lon="-0.39005">
        <ele>34.5</ele>
        <time>2020-09-10T09:35:09Z</time>
      </trkpt>
      <trkpt lat="44.89307" lon="-0.39006">
        <ele>34.5</ele>
        <time>2020-09-10T09:35:11Z</time>
      </trkpt>
      <trkpt lat="44.89306" lon="-0.39006">
        <ele>34.5</ele>
        <time>2020-09-10T09:35:12Z</time>
      </trkpt>
      <trkpt lat="44.89305" lon="-0.39007">
        <ele>34.5</ele>
        <time>2020-09-10T09:35:13Z</time>
      </trkpt>
      <trkpt lat="44.89303" lon="-0.39009">
        <ele>34.6</ele>
        <time>2020-09-10T09:35:15Z</time>
      </trkpt>
      <trkpt lat="44.89301" lon="-0.39009">
        <ele>34.6</ele>
        <time>2020-09-10T09:35:16Z</time>
      </trkpt>
      <trkpt lat="44.89301" lon="-0.3901">
        <ele>34.6</ele>
        <time>2020-09-10T09:35:17Z</time>
      </trkpt>
      <trkpt lat="44.893" lon="-0.3901">
        <ele>34.6</ele>
        <time>2020-09-10T09:35:18Z</time>
      </trkpt>
      <trkpt lat="44.89297" lon="-0.39013">
        <ele>34.6</ele>
        <time>2020-09-10T09:35:19Z</time>
      </trkpt>
      <trkpt lat="44.89296" lon="-0.39013">
        <ele>34.6</ele>
        <time>2020-09-10T09:35:21Z</time>
      </trkpt>
      <trkpt lat="44.89295" lon="-0.39014">
        <ele>34.6</ele>
        <time>2020-09-10T09:35:22Z</time>
      </trkpt>
      <trkpt lat="44.89294" lon="-0.39015">
        <ele>34.6</ele>
        <time>2020-09-10T09:35:23Z</time>
      </trkpt>
      <trkpt lat="44.89293" lon="-0.39015">
        <ele>34.6</ele>
        <time>2020-09-10T09:35:24Z</time>
      </trkpt>
      <trkpt lat="44.89293" lon="-0.39016">
        <ele>34.6</ele>
        <time>2020-09-10T09:35:25Z</time>
      </trkpt>
      <trkpt lat="44.89292" lon="-0.39016">
        <ele>34.6</ele>
        <time>2020-09-10T09:35:26Z</time>
      </trkpt>
      <trkpt lat="44.8929" lon="-0.39017">
        <ele>34.7</ele>
        <time>2020-09-10T09:35:27Z</time>
      </trkpt>
      <trkpt lat="44.89288" lon="-0.39018">
        <ele>34.7</ele>
        <time>2020-09-10T09:35:29Z</time>
      </trkpt>
      <trkpt lat="44.89286" lon="-0.39018">
        <ele>34.7</ele>
        <time>2020-09-10T09:35:31Z</time>
      </trkpt>
      <trkpt lat="44.89286" lon="-0.39018">
        <ele>34.7</ele>
        <time>2020-09-10T09:35:32Z</time>
      </trkpt>
      <trkpt lat="44.89283" lon="-0.3902">
        <ele>34.7</ele>
        <time>2020-09-10T09:35:34Z</time>
      </trkpt>
      <trkpt lat="44.89282" lon="-0.3902">
        <ele>34.7</ele>
        <time>2020-09-10T09:35:35Z</time>
      </trkpt>
      <trkpt lat="44.89281" lon="-0.3902">
        <ele>34.7</ele>
        <time>2020-09-10T09:35:36Z</time>
      </trkpt>
      <trkpt lat="44.8928" lon="-0.39021">
        <ele>34.7</ele>
        <time>2020-09-10T09:35:37Z</time>
      </trkpt>
      <trkpt lat="44.89278" lon="-0.39021">
        <ele>34.8</ele>
        <time>2020-09-10T09:35:38Z</time>
      </trkpt>
      <trkpt lat="44.89276" lon="-0.39022">
        <ele>34.8</ele>
        <time>2020-09-10T09:35:39Z</time>
      </trkpt>
      <trkpt lat="44.89275" lon="-0.39022">
        <ele>34.8</ele>
        <time>2020-09-10T09:35:41Z</time>
      </trkpt>
      <trkpt lat="44.89274" lon="-0.39022">
        <ele>34.8</ele>
        <time>2020-09-10T09:35:42Z</time>
      </trkpt>
      <trkpt lat="44.89271" lon="-0.39023">
        <ele>34.8</ele>
        <time>2020-09-10T09:35:43Z</time>
      </trkpt>
      <trkpt lat="44.8927" lon="-0.39024">
        <ele>34.8</ele>
        <time>2020-09-10T09:35:44Z</time>
      </trkpt>
      <trkpt lat="44.89269" lon="-0.39024">
        <ele>34.8</ele>
        <time>2020-09-10T09:35:45Z</time>
      </trkpt>
      <trkpt lat="44.89267" lon="-0.39025">
        <ele>34.8</ele>
        <time>2020-09-10T09:35:47Z</time>
      </trkpt>
      <trkpt lat="44.89266" lon="-0.39025">
        <ele>34.9</ele>
        <time>2020-09-10T09:35:48Z</time>
      </trkpt>
      <trkpt lat="44.89264" lon="-0.39026">
        <ele>34.9</ele>
        <time>2020-09-10T09:35:50Z</time>
      </trkpt>
      <trkpt lat="44.89263" lon="-0.39026">
        <ele>34.9</ele>
        <time>2020-09-10T09:35:51Z</time>
      </trkpt>
      <trkpt lat="44.89262" lon="-0.39027">
        <ele>34.9</ele>
        <time>2020-09-10T09:35:53Z</time>
      </trkpt>
      <trkpt lat="44.89262" lon="-0.39029">
        <ele>34.9</ele>
        <time>2020-09-10T09:35:54Z</time>
      </trkpt>
      <trkpt lat="44.89263" lon="-0.39031">
        <ele>34.9</ele>
        <time>2020-09-10T09:35:56Z</time>
      </trkpt>
      <trkpt lat="44.89263" lon="-0.39033">
        <ele>34.8</ele>
        <time>2020-09-10T09:35:57Z</time>
      </trkpt>
      <trkpt lat="44.89263" lon="-0.39034">
        <ele>34.8</ele>
        <time>2020-09-10T09:35:58Z</time>
      </trkpt>
      <trkpt lat="44.89263" lon="-0.39036">
        <ele>34.8</ele>
        <time>2020-09-10T09:36:00Z</time>
      </trkpt>
      <trkpt lat="44.89264" lon="-0.39037">
        <ele>34.7</ele>
        <time>2020-09-10T09:36:01Z</time>
      </trkpt>
      <trkpt lat="44.89264" lon="-0.39037">
        <ele>34.7</ele>
        <time>2020-09-10T09:36:03Z</time>
      </trkpt>
      <trkpt lat="44.89265" lon="-0.39038">
        <ele>34.7</ele>
        <time>2020-09-10T09:36:04Z</time>
      </trkpt>
      <trkpt lat="44.89266" lon="-0.3904">
        <ele>34.6</ele>
        <time>2020-09-10T09:36:05Z</time>
      </trkpt>
      <trkpt lat="44.89267" lon="-0.39041">
        <ele>34.6</ele>
        <time>2020-09-10T09:36:06Z</time>
      </trkpt>
      <trkpt lat="44.89268" lon="-0.39042">
        <ele>34.6</ele>
        <time>2020-09-10T09:36:07Z</time>
      </trkpt>
      <trkpt lat="44.89268" lon="-0.39043">
        <ele>34.6</ele>
        <time>2020-09-10T09:36:08Z</time>
      </trkpt>
      <trkpt lat="44.89269" lon="-0.39045">
        <ele>34.6</ele>
        <time>2020-09-10T09:36:09Z</time>
      </trkpt>
      <trkpt lat="44.8927" lon="-0.39047">
        <ele>34.6</ele>
        <time>2020-09-10T09:36:11Z</time>
      </trkpt>
      <trkpt lat="44.89271" lon="-0.39049">
        <ele>34.5</ele>
        <time>2020-09-10T09:36:12Z</time>
      </trkpt>
      <trkpt lat="44.89272" lon="-0.39051">
        <ele>34.5</ele>
        <time>2020-09-10T09:36:14Z</time>
      </trkpt>
      <trkpt lat="44.89273" lon="-0.39053">
        <ele>34.5</ele>
        <time>2020-09-10T09:36:15Z</time>
      </trkpt>
      <trkpt lat="44.89273" lon="-0.39054">
        <ele>34.5</ele>
        <time>2020-09-10T09:36:16Z</time>
      </trkpt>
      <trkpt lat="44.89274" lon="-0.39056">
        <ele>34.5</ele>
        <time>2020-09-10T09:36:17Z</time>
      </trkpt>
      <trkpt lat="44.89275" lon="-0.39059">
        <ele>34.4</ele>
        <time>2020-09-10T09:36:19Z</time>
      </trkpt>
      <trkpt lat="44.89275" lon="-0.3906">
        <ele>34.4</ele>
        <time>2020-09-10T09:36:20Z</time>
      </trkpt>
      <trkpt lat="44.89275" lon="-0.39061">
        <ele>34.4</ele>
        <time>2020-09-10T09:36:21Z</time>
      </trkpt>
      <trkpt lat="44.89276" lon="-0.39062">
        <ele>34.4</ele>
        <time>2020-09-10T09:36:22Z</time>
      </trkpt>
      <trkpt lat="44.89276" lon="-0.39064">
        <ele>34.4</ele>
        <time>2020-09-10T09:36:24Z</time>
      </trkpt>
      <trkpt lat="44.89277" lon="-0.39067">
        <ele>34.4</ele>
        <time>2020-09-10T09:36:25Z</time>
      </trkpt>
      <trkpt lat="44.89277" lon="-0.39069">
        <ele>34.4</ele>
        <time>2020-09-10T09:36:26Z</time>
      </trkpt>
      <trkpt lat="44.89277" lon="-0.39073">
        <ele>34.5</ele>
        <time>2020-09-10T09:36:28Z</time>
      </trkpt>
      <trkpt lat="44.89277" lon="-0.39075">
        <ele>34.5</ele>
        <time>2020-09-10T09:36:29Z</time>
      </trkpt>
      <trkpt lat="44.89277" lon="-0.39077">
        <ele>34.5</ele>
        <time>2020-09-10T09:36:30Z</time>
      </trkpt>
      <trkpt lat="44.89277" lon="-0.39079">
        <ele>34.6</ele>
        <time>2020-09-10T09:36:32Z</time>
      </trkpt>
      <trkpt lat="44.89277" lon="-0.39081">
        <ele>34.6</ele>
        <time>2020-09-10T09:36:33Z</time>
      </trkpt>
      <trkpt lat="44.89277" lon="-0.39085">
        <ele>34.6</ele>
        <time>2020-09-10T09:36:35Z</time>
      </trkpt>
      <trkpt lat="44.89277" lon="-0.39087">
        <ele>34.6</ele>
        <time>2020-09-10T09:36:36Z</time>
      </trkpt>
      <trkpt lat="44.89277" lon="-0.39089">
        <ele>34.7</ele>
        <time>2020-09-10T09:36:38Z</time>
      </trkpt>
      <trkpt lat="44.89276" lon="-0.39091">
        <ele>34.7</ele>
        <time>2020-09-10T09:36:39Z</time>
      </trkpt>
      <trkpt lat="44.89276" lon="-0.39094">
        <ele>34.8</ele>
        <time>2020-09-10T09:36:40Z</time>
      </trkpt>
      <trkpt lat="44.89276" lon="-0.39095">
        <ele>34.8</ele>
        <time>2020-09-10T09:36:41Z</time>
      </trkpt>
      <trkpt lat="44.89275" lon="-0.39097">
        <ele>34.9</ele>
        <time>2020-09-10T09:36:42Z</time>
      </trkpt>
      <trkpt lat="44.89275" lon="-0.39099">
        <ele>34.9</ele>
        <time>2020-09-10T09:36:43Z</time>
      </trkpt>
      <trkpt lat="44.89275" lon="-0.39101">
        <ele>35</ele>
        <time>2020-09-10T09:36:44Z</time>
      </trkpt>
      <trkpt lat="44.89275" lon="-0.39102">
        <ele>35</ele>
        <time>2020-09-10T09:36:45Z</time>
      </trkpt>
      <trkpt lat="44.89275" lon="-0.39104">
        <ele>35</ele>
        <time>2020-09-10T09:36:47Z</time>
      </trkpt>
      <trkpt lat="44.89274" lon="-0.39106">
        <ele>35.1</ele>
        <time>2020-09-10T09:36:48Z</time>
      </trkpt>
      <trkpt lat="44.89274" lon="-0.39109">
        <ele>35.2</ele>
        <time>2020-09-10T09:36:49Z</time>
      </trkpt>
      <trkpt lat="44.89274" lon="-0.39112">
        <ele>35.2</ele>
        <time>2020-09-10T09:36:50Z</time>
      </trkpt>
      <trkpt lat="44.89274" lon="-0.39113">
        <ele>35.3</ele>
        <time>2020-09-10T09:36:52Z</time>
      </trkpt>
      <trkpt lat="44.89274" lon="-0.39115">
        <ele>35.3</ele>
        <time>2020-09-10T09:36:53Z</time>
      </trkpt>
      <trkpt lat="44.89274" lon="-0.39117">
        <ele>35.4</ele>
        <time>2020-09-10T09:36:55Z</time>
      </trkpt>
      <trkpt lat="44.89273" lon="-0.39119">
        <ele>35.4</ele>
        <time>2020-09-10T09:36:56Z</time>
      </trkpt>
      <trkpt lat="44.89273" lon="-0.39121">
        <ele>35.4</ele>
        <time>2020-09-10T09:36:57Z</time>
      </trkpt>
      <trkpt lat="44.89273" lon="-0.39123">
        <ele>35.5</ele>
        <time>2020-09-10T09:36:58Z</time>
      </trkpt>
      <trkpt lat="44.89273" lon="-0.39126">
        <ele>35.5</ele>
        <time>2020-09-10T09:36:59Z</time>
      </trkpt>
      <trkpt lat="44.89273" lon="-0.39127">
        <ele>35.6</ele>
        <time>2020-09-10T09:37:00Z</time>
      </trkpt>
      <trkpt lat="44.89273" lon="-0.3913">
        <ele>35.6</ele>
        <time>2020-09-10T09:37:02Z</time>
      </trkpt>
      <trkpt lat="44.89273" lon="-0.39132">
        <ele>35.7</ele>
        <time>2020-09-10T09:37:03Z</time>
      </trkpt>
      <trkpt lat="44.89273" lon="-0.39136">
        <ele>35.8</ele>
        <time>2020-09-10T09:37:04Z</time>
      </trkpt>
      <trkpt lat="44.89273" lon="-0.39137">
        <ele>35.8</ele>
        <time>2020-09-10T09:37:05Z</time>
      </trkpt>
      <trkpt lat="44.89273" lon="-0.39139">
        <ele>35.9</ele>
        <time>2020-09-10T09:37:06Z</time>
      </trkpt>
      <trkpt lat="44.89273" lon="-0.3914">
        <ele>35.9</ele>
        <time>2020-09-10T09:37:08Z</time>
      </trkpt>
      <trkpt lat="44.89273" lon="-0.39142">
        <ele>35.9</ele>
        <time>2020-09-10T09:37:09Z</time>
      </trkpt>
      <trkpt lat="44.89273" lon="-0.39144">
        <ele>36</ele>
        <time>2020-09-10T09:37:10Z</time>
      </trkpt>
      <trkpt lat="44.89273" lon="-0.39146">
        <ele>36</ele>
        <time>2020-09-10T09:37:11Z</time>
      </trkpt>
      <trkpt lat="44.89273" lon="-0.39148">
        <ele>36.1</ele>
        <time>2020-09-10T09:37:12Z</time>
      </trkpt>
      <trkpt lat="44.89273" lon="-0.3915">
        <ele>36.1</ele>
        <time>2020-09-10T09:37:13Z</time>
      </trkpt>
      <trkpt lat="44.89273" lon="-0.39154">
        <ele>36.1</ele>
        <time>2020-09-10T09:37:15Z</time>
      </trkpt>
      <trkpt lat="44.89273" lon="-0.39155">
        <ele>36.1</ele>
        <time>2020-09-10T09:37:16Z</time>
      </trkpt>
      <trkpt lat="44.89273" lon="-0.39157">
        <ele>36.2</ele>
        <time>2020-09-10T09:37:17Z</time>
      </trkpt>
      <trkpt lat="44.89273" lon="-0.39159">
        <ele>36.2</ele>
        <time>2020-09-10T09:37:18Z</time>
      </trkpt>
      <trkpt lat="44.89272" lon="-0.39162">
        <ele>36.3</ele>
        <time>2020-09-10T09:37:20Z</time>
      </trkpt>
      <trkpt lat="44.89272" lon="-0.39164">
        <ele>36.3</ele>
        <time>2020-09-10T09:37:21Z</time>
      </trkpt>
      <trkpt lat="44.89272" lon="-0.39165">
        <ele>36.4</ele>
        <time>2020-09-10T09:37:22Z</time>
      </trkpt>
      <trkpt lat="44.89272" lon="-0.39167">
        <ele>36.4</ele>
        <time>2020-09-10T09:37:23Z</time>
      </trkpt>
      <trkpt lat="44.89272" lon="-0.39169">
        <ele>36.4</ele>
        <time>2020-09-10T09:37:24Z</time>
      </trkpt>
      <trkpt lat="44.89272" lon="-0.39172">
        <ele>36.4</ele>
        <time>2020-09-10T09:37:25Z</time>
      </trkpt>
      <trkpt lat="44.89272" lon="-0.39173">
        <ele>36.4</ele>
        <time>2020-09-10T09:37:26Z</time>
      </trkpt>
      <trkpt lat="44.89272" lon="-0.39174">
        <ele>36.5</ele>
        <time>2020-09-10T09:37:27Z</time>
      </trkpt>
      <trkpt lat="44.89272" lon="-0.39176">
        <ele>36.5</ele>
        <time>2020-09-10T09:37:28Z</time>
      </trkpt>
      <trkpt lat="44.89271" lon="-0.39178">
        <ele>36.6</ele>
        <time>2020-09-10T09:37:29Z</time>
      </trkpt>
      <trkpt lat="44.89271" lon="-0.3918">
        <ele>36.5</ele>
        <time>2020-09-10T09:37:31Z</time>
      </trkpt>
      <trkpt lat="44.89271" lon="-0.39181">
        <ele>36.5</ele>
        <time>2020-09-10T09:37:32Z</time>
      </trkpt>
      <trkpt lat="44.89271" lon="-0.39183">
        <ele>36.5</ele>
        <time>2020-09-10T09:37:34Z</time>
      </trkpt>
      <trkpt lat="44.89271" lon="-0.39186">
        <ele>36.6</ele>
        <time>2020-09-10T09:37:35Z</time>
      </trkpt>
      <trkpt lat="44.89271" lon="-0.39188">
        <ele>36.5</ele>
        <time>2020-09-10T09:37:36Z</time>
      </trkpt>
      <trkpt lat="44.89271" lon="-0.3919">
        <ele>36.5</ele>
        <time>2020-09-10T09:37:37Z</time>
      </trkpt>
      <trkpt lat="44.89271" lon="-0.39191">
        <ele>36.6</ele>
        <time>2020-09-10T09:37:38Z</time>
      </trkpt>
      <trkpt lat="44.89271" lon="-0.39196">
        <ele>36.6</ele>
        <time>2020-09-10T09:37:40Z</time>
      </trkpt>
      <trkpt lat="44.89272" lon="-0.39198">
        <ele>36.5</ele>
        <time>2020-09-10T09:37:41Z</time>
      </trkpt>
      <trkpt lat="44.89272" lon="-0.392">
        <ele>36.6</ele>
        <time>2020-09-10T09:37:42Z</time>
      </trkpt>
      <trkpt lat="44.89272" lon="-0.39201">
        <ele>36.6</ele>
        <time>2020-09-10T09:37:43Z</time>
      </trkpt>
      <trkpt lat="44.89272" lon="-0.39204">
        <ele>36.6</ele>
        <time>2020-09-10T09:37:44Z</time>
      </trkpt>
      <trkpt lat="44.89272" lon="-0.39205">
        <ele>36.6</ele>
        <time>2020-09-10T09:37:45Z</time>
      </trkpt>
      <trkpt lat="44.89272" lon="-0.39207">
        <ele>36.5</ele>
        <time>2020-09-10T09:37:47Z</time>
      </trkpt>
      <trkpt lat="44.89272" lon="-0.39208">
        <ele>36.6</ele>
        <time>2020-09-10T09:37:48Z</time>
      </trkpt>
      <trkpt lat="44.89272" lon="-0.3921">
        <ele>36.6</ele>
        <time>2020-09-10T09:37:49Z</time>
      </trkpt>
      <trkpt lat="44.89272" lon="-0.39213">
        <ele>36.6</ele>
        <time>2020-09-10T09:37:50Z</time>
      </trkpt>
      <trkpt lat="44.89272" lon="-0.39214">
        <ele>36.5</ele>
        <time>2020-09-10T09:37:51Z</time>
      </trkpt>
      <trkpt lat="44.89272" lon="-0.39216">
        <ele>36.6</ele>
        <time>2020-09-10T09:37:52Z</time>
      </trkpt>
      <trkpt lat="44.89272" lon="-0.39219">
        <ele>36.6</ele>
        <time>2020-09-10T09:37:54Z</time>
      </trkpt>
      <trkpt lat="44.89273" lon="-0.39222">
        <ele>36.6</ele>
        <time>2020-09-10T09:37:55Z</time>
      </trkpt>
      <trkpt lat="44.89273" lon="-0.39223">
        <ele>36.5</ele>
        <time>2020-09-10T09:37:56Z</time>
      </trkpt>
      <trkpt lat="44.89272" lon="-0.39226">
        <ele>36.6</ele>
        <time>2020-09-10T09:37:57Z</time>
      </trkpt>
      <trkpt lat="44.89272" lon="-0.39227">
        <ele>36.6</ele>
        <time>2020-09-10T09:37:58Z</time>
      </trkpt>
      <trkpt lat="44.89272" lon="-0.39228">
        <ele>36.6</ele>
        <time>2020-09-10T09:37:59Z</time>
      </trkpt>
      <trkpt lat="44.89272" lon="-0.39232">
        <ele>36.6</ele>
        <time>2020-09-10T09:38:00Z</time>
      </trkpt>
      <trkpt lat="44.89272" lon="-0.39233">
        <ele>36.6</ele>
        <time>2020-09-10T09:38:02Z</time>
      </trkpt>
      <trkpt lat="44.89272" lon="-0.39235">
        <ele>36.6</ele>
        <time>2020-09-10T09:38:03Z</time>
      </trkpt>
      <trkpt lat="44.89272" lon="-0.39236">
        <ele>36.6</ele>
        <time>2020-09-10T09:38:04Z</time>
      </trkpt>
      <trkpt lat="44.89271" lon="-0.39239">
        <ele>36.6</ele>
        <time>2020-09-10T09:38:06Z</time>
      </trkpt>
      <trkpt lat="44.89271" lon="-0.39241">
        <ele>36.5</ele>
        <time>2020-09-10T09:38:07Z</time>
      </trkpt>
      <trkpt lat="44.89271" lon="-0.39243">
        <ele>36.5</ele>
        <time>2020-09-10T09:38:08Z</time>
      </trkpt>
      <trkpt lat="44.89271" lon="-0.39244">
        <ele>36.5</ele>
        <time>2020-09-10T09:38:09Z</time>
      </trkpt>
      <trkpt lat="44.89271" lon="-0.39248">
        <ele>36.5</ele>
        <time>2020-09-10T09:38:10Z</time>
      </trkpt>
      <trkpt lat="44.89271" lon="-0.39249">
        <ele>36.4</ele>
        <time>2020-09-10T09:38:12Z</time>
      </trkpt>
      <trkpt lat="44.89271" lon="-0.3925">
        <ele>36.4</ele>
        <time>2020-09-10T09:38:13Z</time>
      </trkpt>
      <trkpt lat="44.89271" lon="-0.39254">
        <ele>36.4</ele>
        <time>2020-09-10T09:38:15Z</time>
      </trkpt>
      <trkpt lat="44.89271" lon="-0.39255">
        <ele>36.5</ele>
        <time>2020-09-10T09:38:16Z</time>
      </trkpt>
      <trkpt lat="44.89271" lon="-0.39257">
        <ele>36.5</ele>
        <time>2020-09-10T09:38:17Z</time>
      </trkpt>
      <trkpt lat="44.89271" lon="-0.39259">
        <ele>36.4</ele>
        <time>2020-09-10T09:38:18Z</time>
      </trkpt>
      <trkpt lat="44.89271" lon="-0.39261">
        <ele>36.4</ele>
        <time>2020-09-10T09:38:20Z</time>
      </trkpt>
      <trkpt lat="44.89271" lon="-0.39265">
        <ele>36.4</ele>
        <time>2020-09-10T09:38:21Z</time>
      </trkpt>
      <trkpt lat="44.8927" lon="-0.39266">
        <ele>36.4</ele>
        <time>2020-09-10T09:38:22Z</time>
      </trkpt>
      <trkpt lat="44.89271" lon="-0.39267">
        <ele>36.3</ele>
        <time>2020-09-10T09:38:23Z</time>
      </trkpt>
      <trkpt lat="44.89271" lon="-0.3927">
        <ele>36.3</ele>
        <time>2020-09-10T09:38:25Z</time>
      </trkpt>
      <trkpt lat="44.8927" lon="-0.39272">
        <ele>36.3</ele>
        <time>2020-09-10T09:38:27Z</time>
      </trkpt>
      <trkpt lat="44.8927" lon="-0.39273">
        <ele>36.3</ele>
        <time>2020-09-10T09:38:28Z</time>
      </trkpt>
      <trkpt lat="44.8927" lon="-0.39275">
        <ele>36.3</ele>
        <time>2020-09-10T09:38:30Z</time>
      </trkpt>
      <trkpt lat="44.8927" lon="-0.39278">
        <ele>36.2</ele>
        <time>2020-09-10T09:38:31Z</time>
      </trkpt>
      <trkpt lat="44.8927" lon="-0.3928">
        <ele>36.2</ele>
        <time>2020-09-10T09:38:32Z</time>
      </trkpt>
      <trkpt lat="44.8927" lon="-0.39283">
        <ele>36.2</ele>
        <time>2020-09-10T09:38:33Z</time>
      </trkpt>
      <trkpt lat="44.8927" lon="-0.39284">
        <ele>36.2</ele>
        <time>2020-09-10T09:38:34Z</time>
      </trkpt>
      <trkpt lat="44.8927" lon="-0.39285">
        <ele>36.1</ele>
        <time>2020-09-10T09:38:35Z</time>
      </trkpt>
      <trkpt lat="44.8927" lon="-0.39287">
        <ele>36.1</ele>
        <time>2020-09-10T09:38:36Z</time>
      </trkpt>
      <trkpt lat="44.89269" lon="-0.39288">
        <ele>36.1</ele>
        <time>2020-09-10T09:38:38Z</time>
      </trkpt>
      <trkpt lat="44.89269" lon="-0.3929">
        <ele>36.1</ele>
        <time>2020-09-10T09:38:39Z</time>
      </trkpt>
      <trkpt lat="44.89269" lon="-0.39294">
        <ele>36</ele>
        <time>2020-09-10T09:38:40Z</time>
      </trkpt>
      <trkpt lat="44.8927" lon="-0.39295">
        <ele>36</ele>
        <time>2020-09-10T09:38:42Z</time>
      </trkpt>
      <trkpt lat="44.8927" lon="-0.39296">
        <ele>36</ele>
        <time>2020-09-10T09:38:43Z</time>
      </trkpt>
      <trkpt lat="44.8927" lon="-0.393">
        <ele>36</ele>
        <time>2020-09-10T09:38:45Z</time>
      </trkpt>
      <trkpt lat="44.8927" lon="-0.39302">
        <ele>36</ele>
        <time>2020-09-10T09:38:46Z</time>
      </trkpt>
      <trkpt lat="44.8927" lon="-0.39303">
        <ele>35.9</ele>
        <time>2020-09-10T09:38:47Z</time>
      </trkpt>
      <trkpt lat="44.8927" lon="-0.39305">
        <ele>35.9</ele>
        <time>2020-09-10T09:38:49Z</time>
      </trkpt>
      <trkpt lat="44.8927" lon="-0.39309">
        <ele>35.8</ele>
        <time>2020-09-10T09:38:50Z</time>
      </trkpt>
      <trkpt lat="44.8927" lon="-0.39311">
        <ele>35.8</ele>
        <time>2020-09-10T09:38:51Z</time>
      </trkpt>
      <trkpt lat="44.8927" lon="-0.39312">
        <ele>35.7</ele>
        <time>2020-09-10T09:38:52Z</time>
      </trkpt>
      <trkpt lat="44.8927" lon="-0.39314">
        <ele>35.7</ele>
        <time>2020-09-10T09:38:53Z</time>
      </trkpt>
      <trkpt lat="44.8927" lon="-0.39315">
        <ele>35.7</ele>
        <time>2020-09-10T09:38:54Z</time>
      </trkpt>
      <trkpt lat="44.8927" lon="-0.39318">
        <ele>35.7</ele>
        <time>2020-09-10T09:38:56Z</time>
      </trkpt>
      <trkpt lat="44.8927" lon="-0.3932">
        <ele>35.6</ele>
        <time>2020-09-10T09:38:57Z</time>
      </trkpt>
      <trkpt lat="44.8927" lon="-0.39321">
        <ele>35.7</ele>
        <time>2020-09-10T09:38:58Z</time>
      </trkpt>
      <trkpt lat="44.8927" lon="-0.39323">
        <ele>35.7</ele>
        <time>2020-09-10T09:38:59Z</time>
      </trkpt>
      <trkpt lat="44.89269" lon="-0.39325">
        <ele>35.7</ele>
        <time>2020-09-10T09:39:01Z</time>
      </trkpt>
      <trkpt lat="44.89269" lon="-0.39326">
        <ele>35.7</ele>
        <time>2020-09-10T09:39:02Z</time>
      </trkpt>
      <trkpt lat="44.8927" lon="-0.39328">
        <ele>35.5</ele>
        <time>2020-09-10T09:39:03Z</time>
      </trkpt>
      <trkpt lat="44.8927" lon="-0.39329">
        <ele>35.5</ele>
        <time>2020-09-10T09:39:04Z</time>
      </trkpt>
      <trkpt lat="44.8927" lon="-0.39332">
        <ele>35.5</ele>
        <time>2020-09-10T09:39:05Z</time>
      </trkpt>
      <trkpt lat="44.8927" lon="-0.39334">
        <ele>35.5</ele>
        <time>2020-09-10T09:39:06Z</time>
      </trkpt>
      <trkpt lat="44.89271" lon="-0.39335">
        <ele>35.4</ele>
        <time>2020-09-10T09:39:08Z</time>
      </trkpt>
      <trkpt lat="44.89271" lon="-0.39336">
        <ele>35.3</ele>
        <time>2020-09-10T09:39:09Z</time>
      </trkpt>
      <trkpt lat="44.89271" lon="-0.39338">
        <ele>35.3</ele>
        <time>2020-09-10T09:39:10Z</time>
      </trkpt>
      <trkpt lat="44.89271" lon="-0.3934">
        <ele>35.3</ele>
        <time>2020-09-10T09:39:11Z</time>
      </trkpt>
      <trkpt lat="44.89271" lon="-0.39341">
        <ele>35.2</ele>
        <time>2020-09-10T09:39:12Z</time>
      </trkpt>
      <trkpt lat="44.89272" lon="-0.39343">
        <ele>35.2</ele>
        <time>2020-09-10T09:39:14Z</time>
      </trkpt>
      <trkpt lat="44.89273" lon="-0.39348">
        <ele>35.2</ele>
        <time>2020-09-10T09:39:16Z</time>
      </trkpt>
      <trkpt lat="44.89273" lon="-0.3935">
        <ele>35.1</ele>
        <time>2020-09-10T09:39:17Z</time>
      </trkpt>
      <trkpt lat="44.89273" lon="-0.39352">
        <ele>35.1</ele>
        <time>2020-09-10T09:39:18Z</time>
      </trkpt>
      <trkpt lat="44.89273" lon="-0.39354">
        <ele>34.9</ele>
        <time>2020-09-10T09:39:20Z</time>
      </trkpt>
      <trkpt lat="44.89273" lon="-0.39357">
        <ele>34.9</ele>
        <time>2020-09-10T09:39:21Z</time>
      </trkpt>
      <trkpt lat="44.89273" lon="-0.39358">
        <ele>35</ele>
        <time>2020-09-10T09:39:22Z</time>
      </trkpt>
      <trkpt lat="44.89272" lon="-0.39361">
        <ele>35</ele>
        <time>2020-09-10T09:39:24Z</time>
      </trkpt>
      <trkpt lat="44.89272" lon="-0.39362">
        <ele>34.8</ele>
        <time>2020-09-10T09:39:25Z</time>
      </trkpt>
      <trkpt lat="44.89271" lon="-0.39364">
        <ele>34.8</ele>
        <time>2020-09-10T09:39:26Z</time>
      </trkpt>
      <trkpt lat="44.89271" lon="-0.39364">
        <ele>34.8</ele>
        <time>2020-09-10T09:39:27Z</time>
      </trkpt>
      <trkpt lat="44.89271" lon="-0.39364">
        <ele>34.8</ele>
        <time>2020-09-10T09:39:28Z</time>
      </trkpt>
      <trkpt lat="44.89271" lon="-0.39365">
        <ele>34.7</ele>
        <time>2020-09-10T09:39:29Z</time>
      </trkpt>
      <trkpt lat="44.89271" lon="-0.39366">
        <ele>34.7</ele>
        <time>2020-09-10T09:39:31Z</time>
      </trkpt>
      <trkpt lat="44.89272" lon="-0.39367">
        <ele>34.7</ele>
        <time>2020-09-10T09:39:33Z</time>
      </trkpt>
      <trkpt lat="44.89271" lon="-0.39366">
        <ele>34.7</ele>
        <time>2020-09-10T09:39:35Z</time>
      </trkpt>
      <trkpt lat="44.8927" lon="-0.39367">
        <ele>34.7</ele>
        <time>2020-09-10T09:39:36Z</time>
      </trkpt>
      <trkpt lat="44.89269" lon="-0.39366">
        <ele>34.8</ele>
        <time>2020-09-10T09:39:37Z</time>
      </trkpt>
      <trkpt lat="44.89268" lon="-0.39367">
        <ele>34.8</ele>
        <time>2020-09-10T09:39:39Z</time>
      </trkpt>
      <trkpt lat="44.89267" lon="-0.39367">
        <ele>34.8</ele>
        <time>2020-09-10T09:39:40Z</time>
      </trkpt>
      <trkpt lat="44.89266" lon="-0.39367">
        <ele>34.8</ele>
        <time>2020-09-10T09:39:42Z</time>
      </trkpt>
      <trkpt lat="44.89265" lon="-0.39368">
        <ele>34.8</ele>
        <time>2020-09-10T09:39:43Z</time>
      </trkpt>
      <trkpt lat="44.89263" lon="-0.39368">
        <ele>34.9</ele>
        <time>2020-09-10T09:39:44Z</time>
      </trkpt>
      <trkpt lat="44.89262" lon="-0.39368">
        <ele>34.9</ele>
        <time>2020-09-10T09:39:46Z</time>
      </trkpt>
      <trkpt lat="44.8926" lon="-0.39367">
        <ele>34.9</ele>
        <time>2020-09-10T09:39:47Z</time>
      </trkpt>
      <trkpt lat="44.89258" lon="-0.39366">
        <ele>34.9</ele>
        <time>2020-09-10T09:39:49Z</time>
      </trkpt>
      <trkpt lat="44.89256" lon="-0.39366">
        <ele>35</ele>
        <time>2020-09-10T09:39:50Z</time>
      </trkpt>
      <trkpt lat="44.89254" lon="-0.39365">
        <ele>35.1</ele>
        <time>2020-09-10T09:39:52Z</time>
      </trkpt>
      <trkpt lat="44.89253" lon="-0.39365">
        <ele>35.1</ele>
        <time>2020-09-10T09:39:53Z</time>
      </trkpt>
      <trkpt lat="44.89252" lon="-0.39365">
        <ele>35.1</ele>
        <time>2020-09-10T09:39:54Z</time>
      </trkpt>
      <trkpt lat="44.8925" lon="-0.39365">
        <ele>35.1</ele>
        <time>2020-09-10T09:39:55Z</time>
      </trkpt>
      <trkpt lat="44.89249" lon="-0.39365">
        <ele>35.1</ele>
        <time>2020-09-10T09:39:56Z</time>
      </trkpt>
      <trkpt lat="44.89248" lon="-0.39365">
        <ele>35.2</ele>
        <time>2020-09-10T09:39:58Z</time>
      </trkpt>
      <trkpt lat="44.89247" lon="-0.39365">
        <ele>35.2</ele>
        <time>2020-09-10T09:39:59Z</time>
      </trkpt>
      <trkpt lat="44.89245" lon="-0.39365">
        <ele>35.3</ele>
        <time>2020-09-10T09:40:00Z</time>
      </trkpt>
      <trkpt lat="44.89242" lon="-0.39365">
        <ele>35.3</ele>
        <time>2020-09-10T09:40:02Z</time>
      </trkpt>
      <trkpt lat="44.8924" lon="-0.39365">
        <ele>35.3</ele>
        <time>2020-09-10T09:40:03Z</time>
      </trkpt>
      <trkpt lat="44.89239" lon="-0.39366">
        <ele>35.4</ele>
        <time>2020-09-10T09:40:04Z</time>
      </trkpt>
      <trkpt lat="44.89238" lon="-0.39366">
        <ele>35.4</ele>
        <time>2020-09-10T09:40:05Z</time>
      </trkpt>
      <trkpt lat="44.89237" lon="-0.39366">
        <ele>35.4</ele>
        <time>2020-09-10T09:40:06Z</time>
      </trkpt>
      <trkpt lat="44.89235" lon="-0.39366">
        <ele>35.4</ele>
        <time>2020-09-10T09:40:07Z</time>
      </trkpt>
      <trkpt lat="44.89234" lon="-0.39367">
        <ele>35.4</ele>
        <time>2020-09-10T09:40:09Z</time>
      </trkpt>
      <trkpt lat="44.89234" lon="-0.39367">
        <ele>35.4</ele>
        <time>2020-09-10T09:40:10Z</time>
      </trkpt>
      <trkpt lat="44.89233" lon="-0.39368">
        <ele>35.5</ele>
        <time>2020-09-10T09:40:11Z</time>
      </trkpt>
      <trkpt lat="44.89232" lon="-0.39368">
        <ele>35.5</ele>
        <time>2020-09-10T09:40:12Z</time>
      </trkpt>
      <trkpt lat="44.89232" lon="-0.39369">
        <ele>35.5</ele>
        <time>2020-09-10T09:40:13Z</time>
      </trkpt>
      <trkpt lat="44.8923" lon="-0.39369">
        <ele>35.5</ele>
        <time>2020-09-10T09:40:14Z</time>
      </trkpt>
      <trkpt lat="44.89227" lon="-0.3937">
        <ele>35.6</ele>
        <time>2020-09-10T09:40:16Z</time>
      </trkpt>
      <trkpt lat="44.89224" lon="-0.39371">
        <ele>35.6</ele>
        <time>2020-09-10T09:40:17Z</time>
      </trkpt>
      <trkpt lat="44.89223" lon="-0.39374">
        <ele>35.6</ele>
        <time>2020-09-10T09:40:19Z</time>
      </trkpt>
      <trkpt lat="44.89223" lon="-0.39375">
        <ele>35.6</ele>
        <time>2020-09-10T09:40:20Z</time>
      </trkpt>
      <trkpt lat="44.89223" lon="-0.39376">
        <ele>35.6</ele>
        <time>2020-09-10T09:40:21Z</time>
      </trkpt>
      <trkpt lat="44.89222" lon="-0.39379">
        <ele>35.5</ele>
        <time>2020-09-10T09:40:22Z</time>
      </trkpt>
      <trkpt lat="44.89222" lon="-0.39382">
        <ele>35.5</ele>
        <time>2020-09-10T09:40:24Z</time>
      </trkpt>
      <trkpt lat="44.89223" lon="-0.39383">
        <ele>35.5</ele>
        <time>2020-09-10T09:40:25Z</time>
      </trkpt>
      <trkpt lat="44.89223" lon="-0.39384">
        <ele>35.5</ele>
        <time>2020-09-10T09:40:26Z</time>
      </trkpt>
      <trkpt lat="44.89224" lon="-0.39386">
        <ele>35.5</ele>
        <time>2020-09-10T09:40:27Z</time>
      </trkpt>
      <trkpt lat="44.89224" lon="-0.39389">
        <ele>35.4</ele>
        <time>2020-09-10T09:40:29Z</time>
      </trkpt>
      <trkpt lat="44.89224" lon="-0.3939">
        <ele>35.4</ele>
        <time>2020-09-10T09:40:30Z</time>
      </trkpt>
      <trkpt lat="44.89225" lon="-0.39391">
        <ele>35.4</ele>
        <time>2020-09-10T09:40:31Z</time>
      </trkpt>
      <trkpt lat="44.89225" lon="-0.39393">
        <ele>35.4</ele>
        <time>2020-09-10T09:40:32Z</time>
      </trkpt>
      <trkpt lat="44.89225" lon="-0.39395">
        <ele>35.4</ele>
        <time>2020-09-10T09:40:33Z</time>
      </trkpt>
      <trkpt lat="44.89226" lon="-0.39397">
        <ele>35.3</ele>
        <time>2020-09-10T09:40:34Z</time>
      </trkpt>
      <trkpt lat="44.89226" lon="-0.394">
        <ele>35.3</ele>
        <time>2020-09-10T09:40:35Z</time>
      </trkpt>
      <trkpt lat="44.89227" lon="-0.39404">
        <ele>35.3</ele>
        <time>2020-09-10T09:40:36Z</time>
      </trkpt>
      <trkpt lat="44.89227" lon="-0.39406">
        <ele>35.3</ele>
        <time>2020-09-10T09:40:37Z</time>
      </trkpt>
      <trkpt lat="44.89228" lon="-0.3941">
        <ele>35.3</ele>
        <time>2020-09-10T09:40:39Z</time>
      </trkpt>
      <trkpt lat="44.89229" lon="-0.39411">
        <ele>35.3</ele>
        <time>2020-09-10T09:40:40Z</time>
      </trkpt>
      <trkpt lat="44.89229" lon="-0.39413">
        <ele>35.3</ele>
        <time>2020-09-10T09:40:41Z</time>
      </trkpt>
      <trkpt lat="44.89229" lon="-0.39415">
        <ele>35.3</ele>
        <time>2020-09-10T09:40:42Z</time>
      </trkpt>
      <trkpt lat="44.8923" lon="-0.39417">
        <ele>35.3</ele>
        <time>2020-09-10T09:40:43Z</time>
      </trkpt>
      <trkpt lat="44.89231" lon="-0.39418">
        <ele>35.2</ele>
        <time>2020-09-10T09:40:44Z</time>
      </trkpt>
      <trkpt lat="44.89231" lon="-0.3942">
        <ele>35.2</ele>
        <time>2020-09-10T09:40:45Z</time>
      </trkpt>
      <trkpt lat="44.89231" lon="-0.39422">
        <ele>35.2</ele>
        <time>2020-09-10T09:40:46Z</time>
      </trkpt>
      <trkpt lat="44.89232" lon="-0.39425">
        <ele>35.2</ele>
        <time>2020-09-10T09:40:48Z</time>
      </trkpt>
      <trkpt lat="44.89233" lon="-0.39426">
        <ele>35.2</ele>
        <time>2020-09-10T09:40:49Z</time>
      </trkpt>
      <trkpt lat="44.89233" lon="-0.39428">
        <ele>35.3</ele>
        <time>2020-09-10T09:40:50Z</time>
      </trkpt>
      <trkpt lat="44.89233" lon="-0.3943">
        <ele>35.3</ele>
        <time>2020-09-10T09:40:52Z</time>
      </trkpt>
      <trkpt lat="44.89234" lon="-0.39432">
        <ele>35.3</ele>
        <time>2020-09-10T09:40:53Z</time>
      </trkpt>
      <trkpt lat="44.89234" lon="-0.39435">
        <ele>35.3</ele>
        <time>2020-09-10T09:40:55Z</time>
      </trkpt>
      <trkpt lat="44.89234" lon="-0.39436">
        <ele>35.3</ele>
        <time>2020-09-10T09:40:56Z</time>
      </trkpt>
      <trkpt lat="44.89235" lon="-0.39438">
        <ele>35.3</ele>
        <time>2020-09-10T09:40:57Z</time>
      </trkpt>
      <trkpt lat="44.89235" lon="-0.39441">
        <ele>35.3</ele>
        <time>2020-09-10T09:40:59Z</time>
      </trkpt>
      <trkpt lat="44.89235" lon="-0.39442">
        <ele>35.3</ele>
        <time>2020-09-10T09:41:00Z</time>
      </trkpt>
      <trkpt lat="44.89235" lon="-0.39443">
        <ele>35.3</ele>
        <time>2020-09-10T09:41:01Z</time>
      </trkpt>
      <trkpt lat="44.89236" lon="-0.39445">
        <ele>35.4</ele>
        <time>2020-09-10T09:41:02Z</time>
      </trkpt>
      <trkpt lat="44.89236" lon="-0.39447">
        <ele>35.4</ele>
        <time>2020-09-10T09:41:04Z</time>
      </trkpt>
      <trkpt lat="44.89236" lon="-0.39449">
        <ele>35.4</ele>
        <time>2020-09-10T09:41:05Z</time>
      </trkpt>
      <trkpt lat="44.89236" lon="-0.3945">
        <ele>35.4</ele>
        <time>2020-09-10T09:41:06Z</time>
      </trkpt>
      <trkpt lat="44.89236" lon="-0.39452">
        <ele>35.4</ele>
        <time>2020-09-10T09:41:07Z</time>
      </trkpt>
      <trkpt lat="44.89237" lon="-0.39453">
        <ele>35.4</ele>
        <time>2020-09-10T09:41:09Z</time>
      </trkpt>
      <trkpt lat="44.89237" lon="-0.39454">
        <ele>35.4</ele>
        <time>2020-09-10T09:41:10Z</time>
      </trkpt>
      <trkpt lat="44.89238" lon="-0.39456">
        <ele>35.4</ele>
        <time>2020-09-10T09:41:11Z</time>
      </trkpt>
      <trkpt lat="44.89238" lon="-0.39458">
        <ele>35.4</ele>
        <time>2020-09-10T09:41:13Z</time>
      </trkpt>
      <trkpt lat="44.89239" lon="-0.39459">
        <ele>35.4</ele>
        <time>2020-09-10T09:41:14Z</time>
      </trkpt>
      <trkpt lat="44.89239" lon="-0.39461">
        <ele>35.5</ele>
        <time>2020-09-10T09:41:15Z</time>
      </trkpt>
      <trkpt lat="44.8924" lon="-0.39464">
        <ele>35.4</ele>
        <time>2020-09-10T09:41:17Z</time>
      </trkpt>
      <trkpt lat="44.89241" lon="-0.39466">
        <ele>35.5</ele>
        <time>2020-09-10T09:41:18Z</time>
      </trkpt>
      <trkpt lat="44.89241" lon="-0.39469">
        <ele>35.5</ele>
        <time>2020-09-10T09:41:20Z</time>
      </trkpt>
      <trkpt lat="44.89241" lon="-0.39471">
        <ele>35.5</ele>
        <time>2020-09-10T09:41:22Z</time>
      </trkpt>
      <trkpt lat="44.89242" lon="-0.39473">
        <ele>35.5</ele>
        <time>2020-09-10T09:41:23Z</time>
      </trkpt>
      <trkpt lat="44.89243" lon="-0.39476">
        <ele>35.5</ele>
        <time>2020-09-10T09:41:24Z</time>
      </trkpt>
      <trkpt lat="44.89243" lon="-0.39477">
        <ele>35.5</ele>
        <time>2020-09-10T09:41:25Z</time>
      </trkpt>
      <trkpt lat="44.89243" lon="-0.39479">
        <ele>35.5</ele>
        <time>2020-09-10T09:41:26Z</time>
      </trkpt>
      <trkpt lat="44.89244" lon="-0.39481">
        <ele>35.5</ele>
        <time>2020-09-10T09:41:27Z</time>
      </trkpt>
      <trkpt lat="44.89244" lon="-0.39482">
        <ele>35.5</ele>
        <time>2020-09-10T09:41:28Z</time>
      </trkpt>
      <trkpt lat="44.89245" lon="-0.39483">
        <ele>35.5</ele>
        <time>2020-09-10T09:41:30Z</time>
      </trkpt>
      <trkpt lat="44.89245" lon="-0.39484">
        <ele>35.5</ele>
        <time>2020-09-10T09:41:31Z</time>
      </trkpt>
      <trkpt lat="44.89246" lon="-0.39486">
        <ele>35.5</ele>
        <time>2020-09-10T09:41:32Z</time>
      </trkpt>
      <trkpt lat="44.89247" lon="-0.39487">
        <ele>35.5</ele>
        <time>2020-09-10T09:41:33Z</time>
      </trkpt>
      <trkpt lat="44.89247" lon="-0.39489">
        <ele>35.5</ele>
        <time>2020-09-10T09:41:34Z</time>
      </trkpt>
      <trkpt lat="44.89247" lon="-0.39491">
        <ele>35.5</ele>
        <time>2020-09-10T09:41:35Z</time>
      </trkpt>
      <trkpt lat="44.89248" lon="-0.39493">
        <ele>35.5</ele>
        <time>2020-09-10T09:41:36Z</time>
      </trkpt>
      <trkpt lat="44.89248" lon="-0.39494">
        <ele>35.5</ele>
        <time>2020-09-10T09:41:37Z</time>
      </trkpt>
      <trkpt lat="44.89248" lon="-0.39495">
        <ele>35.5</ele>
        <time>2020-09-10T09:41:38Z</time>
      </trkpt>
      <trkpt lat="44.89249" lon="-0.39497">
        <ele>35.4</ele>
        <time>2020-09-10T09:41:39Z</time>
      </trkpt>
      <trkpt lat="44.89249" lon="-0.39498">
        <ele>35.4</ele>
        <time>2020-09-10T09:41:40Z</time>
      </trkpt>
      <trkpt lat="44.8925" lon="-0.395">
        <ele>35.4</ele>
        <time>2020-09-10T09:41:42Z</time>
      </trkpt>
      <trkpt lat="44.89251" lon="-0.39502">
        <ele>35.4</ele>
        <time>2020-09-10T09:41:43Z</time>
      </trkpt>
      <trkpt lat="44.89251" lon="-0.39504">
        <ele>35.4</ele>
        <time>2020-09-10T09:41:44Z</time>
      </trkpt>
      <trkpt lat="44.89251" lon="-0.39506">
        <ele>35.4</ele>
        <time>2020-09-10T09:41:45Z</time>
      </trkpt>
      <trkpt lat="44.89251" lon="-0.39508">
        <ele>35.4</ele>
        <time>2020-09-10T09:41:46Z</time>
      </trkpt>
      <trkpt lat="44.89251" lon="-0.39509">
        <ele>35.4</ele>
        <time>2020-09-10T09:41:47Z</time>
      </trkpt>
      <trkpt lat="44.89251" lon="-0.39511">
        <ele>35.4</ele>
        <time>2020-09-10T09:41:49Z</time>
      </trkpt>
      <trkpt lat="44.89251" lon="-0.39511">
        <ele>35.4</ele>
        <time>2020-09-10T09:41:50Z</time>
      </trkpt>
      <trkpt lat="44.89251" lon="-0.39511">
        <ele>35.4</ele>
        <time>2020-09-10T09:41:52Z</time>
      </trkpt>
      <trkpt lat="44.89251" lon="-0.39511">
        <ele>35.4</ele>
        <time>2020-09-10T09:41:53Z</time>
      </trkpt>
      <trkpt lat="44.89251" lon="-0.39511">
        <ele>35.4</ele>
        <time>2020-09-10T09:41:55Z</time>
      </trkpt>
      <trkpt lat="44.89251" lon="-0.39511">
        <ele>35.4</ele>
        <time>2020-09-10T09:41:57Z</time>
      </trkpt>
      <trkpt lat="44.89251" lon="-0.39511">
        <ele>35.4</ele>
        <time>2020-09-10T09:41:58Z</time>
      </trkpt>
      <trkpt lat="44.89251" lon="-0.39511">
        <ele>35.4</ele>
        <time>2020-09-10T09:41:59Z</time>
      </trkpt>
      <trkpt lat="44.89251" lon="-0.39511">
        <ele>35.4</ele>
        <time>2020-09-10T09:42:00Z</time>
      </trkpt>
      <trkpt lat="44.89251" lon="-0.39511">
        <ele>35.4</ele>
        <time>2020-09-10T09:42:02Z</time>
      </trkpt>
      <trkpt lat="44.8925" lon="-0.39511">
        <ele>35.4</ele>
        <time>2020-09-10T09:42:03Z</time>
      </trkpt>
      <trkpt lat="44.8925" lon="-0.39512">
        <ele>35.4</ele>
        <time>2020-09-10T09:42:05Z</time>
      </trkpt>
      <trkpt lat="44.8925" lon="-0.39512">
        <ele>35.4</ele>
        <time>2020-09-10T09:42:07Z</time>
      </trkpt>
      <trkpt lat="44.8925" lon="-0.39512">
        <ele>35.4</ele>
        <time>2020-09-10T09:42:09Z</time>
      </trkpt>
      <trkpt lat="44.8925" lon="-0.39512">
        <ele>35.4</ele>
        <time>2020-09-10T09:42:11Z</time>
      </trkpt>
      <trkpt lat="44.8925" lon="-0.39512">
        <ele>35.4</ele>
        <time>2020-09-10T09:42:12Z</time>
      </trkpt>
      <trkpt lat="44.8925" lon="-0.39512">
        <ele>35.4</ele>
        <time>2020-09-10T09:42:13Z</time>
      </trkpt>
      <trkpt lat="44.8925" lon="-0.39512">
        <ele>35.4</ele>
        <time>2020-09-10T09:42:14Z</time>
      </trkpt>
      <trkpt lat="44.8925" lon="-0.39512">
        <ele>35.4</ele>
        <time>2020-09-10T09:42:16Z</time>
      </trkpt>
      <trkpt lat="44.8925" lon="-0.39512">
        <ele>35.4</ele>
        <time>2020-09-10T09:42:18Z</time>
      </trkpt>
      <trkpt lat="44.8925" lon="-0.39512">
        <ele>35.4</ele>
        <time>2020-09-10T09:42:19Z</time>
      </trkpt>
      <trkpt lat="44.8925" lon="-0.39512">
        <ele>35.4</ele>
        <time>2020-09-10T09:42:20Z</time>
      </trkpt>
      <trkpt lat="44.8925" lon="-0.39512">
        <ele>35.4</ele>
        <time>2020-09-10T09:42:21Z</time>
      </trkpt>
      <trkpt lat="44.89249" lon="-0.39512">
        <ele>35.4</ele>
        <time>2020-09-10T09:42:23Z</time>
      </trkpt>
      <trkpt lat="44.89249" lon="-0.39513">
        <ele>35.4</ele>
        <time>2020-09-10T09:42:24Z</time>
      </trkpt>
      <trkpt lat="44.89249" lon="-0.39513">
        <ele>35.4</ele>
        <time>2020-09-10T09:42:25Z</time>
      </trkpt>
      <trkpt lat="44.89249" lon="-0.39513">
        <ele>35.4</ele>
        <time>2020-09-10T09:42:27Z</time>
      </trkpt>
      <trkpt lat="44.89249" lon="-0.39513">
        <ele>35.4</ele>
        <time>2020-09-10T09:42:29Z</time>
      </trkpt>
      <trkpt lat="44.89249" lon="-0.39513">
        <ele>35.4</ele>
        <time>2020-09-10T09:42:30Z</time>
      </trkpt>
      <trkpt lat="44.89249" lon="-0.39513">
        <ele>35.4</ele>
        <time>2020-09-10T09:42:31Z</time>
      </trkpt>
      <trkpt lat="44.8925" lon="-0.39514">
        <ele>35.4</ele>
        <time>2020-09-10T09:42:32Z</time>
      </trkpt>
      <trkpt lat="44.8925" lon="-0.39515">
        <ele>35.4</ele>
        <time>2020-09-10T09:42:33Z</time>
      </trkpt>
      <trkpt lat="44.89251" lon="-0.39516">
        <ele>35.4</ele>
        <time>2020-09-10T09:42:35Z</time>
      </trkpt>
      <trkpt lat="44.89251" lon="-0.39518">
        <ele>35.4</ele>
        <time>2020-09-10T09:42:36Z</time>
      </trkpt>
      <trkpt lat="44.89252" lon="-0.3952">
        <ele>35.3</ele>
        <time>2020-09-10T09:42:37Z</time>
      </trkpt>
      <trkpt lat="44.89252" lon="-0.39522">
        <ele>35.3</ele>
        <time>2020-09-10T09:42:38Z</time>
      </trkpt>
      <trkpt lat="44.89253" lon="-0.39524">
        <ele>35.3</ele>
        <time>2020-09-10T09:42:40Z</time>
      </trkpt>
      <trkpt lat="44.89253" lon="-0.39527">
        <ele>35.3</ele>
        <time>2020-09-10T09:42:41Z</time>
      </trkpt>
      <trkpt lat="44.89253" lon="-0.39529">
        <ele>35.3</ele>
        <time>2020-09-10T09:42:42Z</time>
      </trkpt>
      <trkpt lat="44.89254" lon="-0.39532">
        <ele>35.3</ele>
        <time>2020-09-10T09:42:44Z</time>
      </trkpt>
      <trkpt lat="44.89254" lon="-0.39534">
        <ele>35.3</ele>
        <time>2020-09-10T09:42:46Z</time>
      </trkpt>
      <trkpt lat="44.89255" lon="-0.39537">
        <ele>35.3</ele>
        <time>2020-09-10T09:42:47Z</time>
      </trkpt>
      <trkpt lat="44.89255" lon="-0.39538">
        <ele>35.2</ele>
        <time>2020-09-10T09:42:48Z</time>
      </trkpt>
      <trkpt lat="44.89255" lon="-0.39539">
        <ele>35.2</ele>
        <time>2020-09-10T09:42:49Z</time>
      </trkpt>
      <trkpt lat="44.89255" lon="-0.3954">
        <ele>35.2</ele>
        <time>2020-09-10T09:42:50Z</time>
      </trkpt>
      <trkpt lat="44.89255" lon="-0.39541">
        <ele>35.2</ele>
        <time>2020-09-10T09:42:51Z</time>
      </trkpt>
      <trkpt lat="44.89256" lon="-0.39542">
        <ele>35.2</ele>
        <time>2020-09-10T09:42:53Z</time>
      </trkpt>
      <trkpt lat="44.89256" lon="-0.39543">
        <ele>35.2</ele>
        <time>2020-09-10T09:42:54Z</time>
      </trkpt>
      <trkpt lat="44.89256" lon="-0.39544">
        <ele>35.2</ele>
        <time>2020-09-10T09:42:55Z</time>
      </trkpt>
      <trkpt lat="44.89257" lon="-0.39545">
        <ele>35.2</ele>
        <time>2020-09-10T09:42:56Z</time>
      </trkpt>
      <trkpt lat="44.89257" lon="-0.39547">
        <ele>35.2</ele>
        <time>2020-09-10T09:42:58Z</time>
      </trkpt>
      <trkpt lat="44.89258" lon="-0.39549">
        <ele>35.2</ele>
        <time>2020-09-10T09:42:59Z</time>
      </trkpt>
      <trkpt lat="44.89258" lon="-0.3955">
        <ele>35.2</ele>
        <time>2020-09-10T09:43:00Z</time>
      </trkpt>
      <trkpt lat="44.89258" lon="-0.39551">
        <ele>35.2</ele>
        <time>2020-09-10T09:43:01Z</time>
      </trkpt>
      <trkpt lat="44.89259" lon="-0.39552">
        <ele>35.2</ele>
        <time>2020-09-10T09:43:03Z</time>
      </trkpt>
      <trkpt lat="44.89259" lon="-0.39554">
        <ele>35.2</ele>
        <time>2020-09-10T09:43:04Z</time>
      </trkpt>
      <trkpt lat="44.89259" lon="-0.39555">
        <ele>35.2</ele>
        <time>2020-09-10T09:43:05Z</time>
      </trkpt>
      <trkpt lat="44.8926" lon="-0.39557">
        <ele>35.2</ele>
        <time>2020-09-10T09:43:06Z</time>
      </trkpt>
      <trkpt lat="44.8926" lon="-0.39559">
        <ele>35.2</ele>
        <time>2020-09-10T09:43:07Z</time>
      </trkpt>
      <trkpt lat="44.8926" lon="-0.39563">
        <ele>35.2</ele>
        <time>2020-09-10T09:43:09Z</time>
      </trkpt>
      <trkpt lat="44.89261" lon="-0.39565">
        <ele>35.3</ele>
        <time>2020-09-10T09:43:10Z</time>
      </trkpt>
      <trkpt lat="44.89261" lon="-0.39568">
        <ele>35.3</ele>
        <time>2020-09-10T09:43:12Z</time>
      </trkpt>
      <trkpt lat="44.89262" lon="-0.39574">
        <ele>35.3</ele>
        <time>2020-09-10T09:43:14Z</time>
      </trkpt>
      <trkpt lat="44.89262" lon="-0.39576">
        <ele>35.3</ele>
        <time>2020-09-10T09:43:15Z</time>
      </trkpt>
      <trkpt lat="44.89263" lon="-0.39577">
        <ele>35.3</ele>
        <time>2020-09-10T09:43:16Z</time>
      </trkpt>
      <trkpt lat="44.89263" lon="-0.39579">
        <ele>35.3</ele>
        <time>2020-09-10T09:43:17Z</time>
      </trkpt>
      <trkpt lat="44.89264" lon="-0.39582">
        <ele>35.4</ele>
        <time>2020-09-10T09:43:19Z</time>
      </trkpt>
      <trkpt lat="44.89264" lon="-0.39584">
        <ele>35.4</ele>
        <time>2020-09-10T09:43:20Z</time>
      </trkpt>
      <trkpt lat="44.89264" lon="-0.39587">
        <ele>35.4</ele>
        <time>2020-09-10T09:43:21Z</time>
      </trkpt>
      <trkpt lat="44.89265" lon="-0.3959">
        <ele>35.4</ele>
        <time>2020-09-10T09:43:23Z</time>
      </trkpt>
      <trkpt lat="44.89266" lon="-0.39593">
        <ele>35.4</ele>
        <time>2020-09-10T09:43:25Z</time>
      </trkpt>
      <trkpt lat="44.89266" lon="-0.39595">
        <ele>35.5</ele>
        <time>2020-09-10T09:43:27Z</time>
      </trkpt>
      <trkpt lat="44.89267" lon="-0.39598">
        <ele>35.5</ele>
        <time>2020-09-10T09:43:28Z</time>
      </trkpt>
      <trkpt lat="44.89267" lon="-0.39599">
        <ele>35.5</ele>
        <time>2020-09-10T09:43:29Z</time>
      </trkpt>
      <trkpt lat="44.89268" lon="-0.39602">
        <ele>35.5</ele>
        <time>2020-09-10T09:43:31Z</time>
      </trkpt>
      <trkpt lat="44.89269" lon="-0.39605">
        <ele>35.5</ele>
        <time>2020-09-10T09:43:32Z</time>
      </trkpt>
      <trkpt lat="44.89269" lon="-0.39607">
        <ele>35.6</ele>
        <time>2020-09-10T09:43:34Z</time>
      </trkpt>
      <trkpt lat="44.8927" lon="-0.39609">
        <ele>35.6</ele>
        <time>2020-09-10T09:43:35Z</time>
      </trkpt>
      <trkpt lat="44.8927" lon="-0.3961">
        <ele>35.6</ele>
        <time>2020-09-10T09:43:36Z</time>
      </trkpt>
      <trkpt lat="44.89271" lon="-0.39613">
        <ele>35.6</ele>
        <time>2020-09-10T09:43:38Z</time>
      </trkpt>
      <trkpt lat="44.89271" lon="-0.39616">
        <ele>35.7</ele>
        <time>2020-09-10T09:43:40Z</time>
      </trkpt>
      <trkpt lat="44.89272" lon="-0.39618">
        <ele>35.7</ele>
        <time>2020-09-10T09:43:41Z</time>
      </trkpt>
      <trkpt lat="44.89272" lon="-0.39621">
        <ele>35.7</ele>
        <time>2020-09-10T09:43:43Z</time>
      </trkpt>
      <trkpt lat="44.89273" lon="-0.39623">
        <ele>35.7</ele>
        <time>2020-09-10T09:43:45Z</time>
      </trkpt>
      <trkpt lat="44.89274" lon="-0.39624">
        <ele>35.7</ele>
        <time>2020-09-10T09:43:46Z</time>
      </trkpt>
      <trkpt lat="44.89274" lon="-0.39626">
        <ele>35.7</ele>
        <time>2020-09-10T09:43:47Z</time>
      </trkpt>
      <trkpt lat="44.89274" lon="-0.39627">
        <ele>35.7</ele>
        <time>2020-09-10T09:43:48Z</time>
      </trkpt>
      <trkpt lat="44.89275" lon="-0.39629">
        <ele>35.7</ele>
        <time>2020-09-10T09:43:49Z</time>
      </trkpt>
      <trkpt lat="44.89275" lon="-0.3963">
        <ele>35.7</ele>
        <time>2020-09-10T09:43:50Z</time>
      </trkpt>
      <trkpt lat="44.89276" lon="-0.39632">
        <ele>35.8</ele>
        <time>2020-09-10T09:43:51Z</time>
      </trkpt>
      <trkpt lat="44.89277" lon="-0.39634">
        <ele>35.8</ele>
        <time>2020-09-10T09:43:53Z</time>
      </trkpt>
      <trkpt lat="44.89277" lon="-0.39636">
        <ele>35.8</ele>
        <time>2020-09-10T09:43:54Z</time>
      </trkpt>
      <trkpt lat="44.89278" lon="-0.39637">
        <ele>35.8</ele>
        <time>2020-09-10T09:43:55Z</time>
      </trkpt>
      <trkpt lat="44.89278" lon="-0.39639">
        <ele>35.8</ele>
        <time>2020-09-10T09:43:57Z</time>
      </trkpt>
      <trkpt lat="44.89279" lon="-0.39641">
        <ele>35.8</ele>
        <time>2020-09-10T09:43:58Z</time>
      </trkpt>
      <trkpt lat="44.89279" lon="-0.39643">
        <ele>35.8</ele>
        <time>2020-09-10T09:43:59Z</time>
      </trkpt>
      <trkpt lat="44.8928" lon="-0.39645">
        <ele>35.8</ele>
        <time>2020-09-10T09:44:00Z</time>
      </trkpt>
      <trkpt lat="44.8928" lon="-0.39647">
        <ele>35.8</ele>
        <time>2020-09-10T09:44:01Z</time>
      </trkpt>
      <trkpt lat="44.89281" lon="-0.3965">
        <ele>35.7</ele>
        <time>2020-09-10T09:44:02Z</time>
      </trkpt>
      <trkpt lat="44.89281" lon="-0.39652">
        <ele>35.7</ele>
        <time>2020-09-10T09:44:03Z</time>
      </trkpt>
      <trkpt lat="44.89282" lon="-0.39656">
        <ele>35.7</ele>
        <time>2020-09-10T09:44:05Z</time>
      </trkpt>
      <trkpt lat="44.89282" lon="-0.39657">
        <ele>35.7</ele>
        <time>2020-09-10T09:44:06Z</time>
      </trkpt>
      <trkpt lat="44.89282" lon="-0.39659">
        <ele>35.7</ele>
        <time>2020-09-10T09:44:07Z</time>
      </trkpt>
      <trkpt lat="44.89282" lon="-0.39661">
        <ele>35.7</ele>
        <time>2020-09-10T09:44:08Z</time>
      </trkpt>
      <trkpt lat="44.89283" lon="-0.39663">
        <ele>35.6</ele>
        <time>2020-09-10T09:44:10Z</time>
      </trkpt>
      <trkpt lat="44.89283" lon="-0.39665">
        <ele>35.6</ele>
        <time>2020-09-10T09:44:11Z</time>
      </trkpt>
      <trkpt lat="44.89283" lon="-0.39667">
        <ele>35.6</ele>
        <time>2020-09-10T09:44:12Z</time>
      </trkpt>
      <trkpt lat="44.89284" lon="-0.39669">
        <ele>35.6</ele>
        <time>2020-09-10T09:44:13Z</time>
      </trkpt>
      <trkpt lat="44.89285" lon="-0.39673">
        <ele>35.5</ele>
        <time>2020-09-10T09:44:15Z</time>
      </trkpt>
      <trkpt lat="44.89285" lon="-0.39675">
        <ele>35.5</ele>
        <time>2020-09-10T09:44:16Z</time>
      </trkpt>
      <trkpt lat="44.89285" lon="-0.39677">
        <ele>35.5</ele>
        <time>2020-09-10T09:44:18Z</time>
      </trkpt>
      <trkpt lat="44.89285" lon="-0.39679">
        <ele>35.5</ele>
        <time>2020-09-10T09:44:19Z</time>
      </trkpt>
      <trkpt lat="44.89286" lon="-0.3968">
        <ele>35.4</ele>
        <time>2020-09-10T09:44:20Z</time>
      </trkpt>
      <trkpt lat="44.89286" lon="-0.39682">
        <ele>35.4</ele>
        <time>2020-09-10T09:44:21Z</time>
      </trkpt>
      <trkpt lat="44.89287" lon="-0.39682">
        <ele>35.4</ele>
        <time>2020-09-10T09:44:22Z</time>
      </trkpt>
      <trkpt lat="44.89287" lon="-0.39685">
        <ele>35.3</ele>
        <time>2020-09-10T09:44:24Z</time>
      </trkpt>
      <trkpt lat="44.89287" lon="-0.39686">
        <ele>35.3</ele>
        <time>2020-09-10T09:44:25Z</time>
      </trkpt>
      <trkpt lat="44.89287" lon="-0.39688">
        <ele>35.3</ele>
        <time>2020-09-10T09:44:26Z</time>
      </trkpt>
      <trkpt lat="44.89287" lon="-0.39689">
        <ele>35.3</ele>
        <time>2020-09-10T09:44:28Z</time>
      </trkpt>
      <trkpt lat="44.89287" lon="-0.3969">
        <ele>35.3</ele>
        <time>2020-09-10T09:44:29Z</time>
      </trkpt>
      <trkpt lat="44.89287" lon="-0.3969">
        <ele>35.3</ele>
        <time>2020-09-10T09:44:30Z</time>
      </trkpt>
      <trkpt lat="44.89287" lon="-0.3969">
        <ele>35.3</ele>
        <time>2020-09-10T09:44:32Z</time>
      </trkpt>
      <trkpt lat="44.89287" lon="-0.3969">
        <ele>35.3</ele>
        <time>2020-09-10T09:44:33Z</time>
      </trkpt>
      <trkpt lat="44.89287" lon="-0.3969">
        <ele>35.3</ele>
        <time>2020-09-10T09:44:34Z</time>
      </trkpt>
      <trkpt lat="44.89287" lon="-0.3969">
        <ele>35.3</ele>
        <time>2020-09-10T09:44:36Z</time>
      </trkpt>
      <trkpt lat="44.89288" lon="-0.39691">
        <ele>35.3</ele>
        <time>2020-09-10T09:44:37Z</time>
      </trkpt>
      <trkpt lat="44.89289" lon="-0.39693">
        <ele>35.2</ele>
        <time>2020-09-10T09:44:38Z</time>
      </trkpt>
      <trkpt lat="44.89289" lon="-0.39694">
        <ele>35.2</ele>
        <time>2020-09-10T09:44:40Z</time>
      </trkpt>
      <trkpt lat="44.8929" lon="-0.39695">
        <ele>35.2</ele>
        <time>2020-09-10T09:44:41Z</time>
      </trkpt>
      <trkpt lat="44.8929" lon="-0.39696">
        <ele>35.2</ele>
        <time>2020-09-10T09:44:42Z</time>
      </trkpt>
      <trkpt lat="44.89291" lon="-0.39698">
        <ele>35.1</ele>
        <time>2020-09-10T09:44:44Z</time>
      </trkpt>
      <trkpt lat="44.89291" lon="-0.39699">
        <ele>35.1</ele>
        <time>2020-09-10T09:44:45Z</time>
      </trkpt>
      <trkpt lat="44.89291" lon="-0.39701">
        <ele>35.1</ele>
        <time>2020-09-10T09:44:47Z</time>
      </trkpt>
      <trkpt lat="44.89292" lon="-0.39702">
        <ele>35.1</ele>
        <time>2020-09-10T09:44:48Z</time>
      </trkpt>
      <trkpt lat="44.89292" lon="-0.39703">
        <ele>35.1</ele>
        <time>2020-09-10T09:44:49Z</time>
      </trkpt>
      <trkpt lat="44.89293" lon="-0.39704">
        <ele>35.1</ele>
        <time>2020-09-10T09:44:50Z</time>
      </trkpt>
      <trkpt lat="44.89293" lon="-0.39705">
        <ele>35.1</ele>
        <time>2020-09-10T09:44:51Z</time>
      </trkpt>
      <trkpt lat="44.89294" lon="-0.39706">
        <ele>35.1</ele>
        <time>2020-09-10T09:44:52Z</time>
      </trkpt>
      <trkpt lat="44.89295" lon="-0.39707">
        <ele>35.1</ele>
        <time>2020-09-10T09:44:53Z</time>
      </trkpt>
      <trkpt lat="44.89297" lon="-0.39709">
        <ele>35.1</ele>
        <time>2020-09-10T09:44:55Z</time>
      </trkpt>
      <trkpt lat="44.89297" lon="-0.39709">
        <ele>35.1</ele>
        <time>2020-09-10T09:44:56Z</time>
      </trkpt>
      <trkpt lat="44.89298" lon="-0.3971">
        <ele>35.1</ele>
        <time>2020-09-10T09:44:57Z</time>
      </trkpt>
      <trkpt lat="44.89299" lon="-0.39712">
        <ele>35.1</ele>
        <time>2020-09-10T09:44:58Z</time>
      </trkpt>
      <trkpt lat="44.893" lon="-0.39713">
        <ele>35.1</ele>
        <time>2020-09-10T09:44:59Z</time>
      </trkpt>
      <trkpt lat="44.893" lon="-0.39714">
        <ele>35.1</ele>
        <time>2020-09-10T09:45:00Z</time>
      </trkpt>
      <trkpt lat="44.89301" lon="-0.39716">
        <ele>35.1</ele>
        <time>2020-09-10T09:45:01Z</time>
      </trkpt>
      <trkpt lat="44.893" lon="-0.39718">
        <ele>35.1</ele>
        <time>2020-09-10T09:45:02Z</time>
      </trkpt>
      <trkpt lat="44.893" lon="-0.3972">
        <ele>35.1</ele>
        <time>2020-09-10T09:45:04Z</time>
      </trkpt>
      <trkpt lat="44.89299" lon="-0.3972">
        <ele>35.1</ele>
        <time>2020-09-10T09:45:05Z</time>
      </trkpt>
      <trkpt lat="44.89299" lon="-0.3972">
        <ele>35.1</ele>
        <time>2020-09-10T09:45:06Z</time>
      </trkpt>
      <trkpt lat="44.89299" lon="-0.39721">
        <ele>35.1</ele>
        <time>2020-09-10T09:45:07Z</time>
      </trkpt>
      <trkpt lat="44.89299" lon="-0.3972">
        <ele>35.1</ele>
        <time>2020-09-10T09:45:09Z</time>
      </trkpt>
      <trkpt lat="44.89298" lon="-0.3972">
        <ele>35.1</ele>
        <time>2020-09-10T09:45:10Z</time>
      </trkpt>
      <trkpt lat="44.89298" lon="-0.3972">
        <ele>35.1</ele>
        <time>2020-09-10T09:45:12Z</time>
      </trkpt>
      <trkpt lat="44.89296" lon="-0.39721">
        <ele>35.1</ele>
        <time>2020-09-10T09:45:14Z</time>
      </trkpt>
      <trkpt lat="44.89295" lon="-0.39721">
        <ele>35.1</ele>
        <time>2020-09-10T09:45:15Z</time>
      </trkpt>
      <trkpt lat="44.89293" lon="-0.39721">
        <ele>35.1</ele>
        <time>2020-09-10T09:45:17Z</time>
      </trkpt>
      <trkpt lat="44.89291" lon="-0.3972">
        <ele>35.1</ele>
        <time>2020-09-10T09:45:18Z</time>
      </trkpt>
      <trkpt lat="44.8929" lon="-0.39719">
        <ele>35.1</ele>
        <time>2020-09-10T09:45:19Z</time>
      </trkpt>
      <trkpt lat="44.89287" lon="-0.39717">
        <ele>35.1</ele>
        <time>2020-09-10T09:45:21Z</time>
      </trkpt>
      <trkpt lat="44.89286" lon="-0.39717">
        <ele>35.1</ele>
        <time>2020-09-10T09:45:22Z</time>
      </trkpt>
      <trkpt lat="44.89285" lon="-0.39715">
        <ele>35.1</ele>
        <time>2020-09-10T09:45:23Z</time>
      </trkpt>
      <trkpt lat="44.89283" lon="-0.39714">
        <ele>35.1</ele>
        <time>2020-09-10T09:45:25Z</time>
      </trkpt>
      <trkpt lat="44.89282" lon="-0.39713">
        <ele>35.2</ele>
        <time>2020-09-10T09:45:26Z</time>
      </trkpt>
      <trkpt lat="44.8928" lon="-0.39712">
        <ele>35.2</ele>
        <time>2020-09-10T09:45:27Z</time>
      </trkpt>
      <trkpt lat="44.89279" lon="-0.39711">
        <ele>35.2</ele>
        <time>2020-09-10T09:45:28Z</time>
      </trkpt>
      <trkpt lat="44.89277" lon="-0.3971">
        <ele>35.2</ele>
        <time>2020-09-10T09:45:30Z</time>
      </trkpt>
      <trkpt lat="44.89274" lon="-0.39708">
        <ele>35.2</ele>
        <time>2020-09-10T09:45:31Z</time>
      </trkpt>
      <trkpt lat="44.89273" lon="-0.39707">
        <ele>35.2</ele>
        <time>2020-09-10T09:45:32Z</time>
      </trkpt>
      <trkpt lat="44.89272" lon="-0.39707">
        <ele>35.3</ele>
        <time>2020-09-10T09:45:33Z</time>
      </trkpt>
      <trkpt lat="44.8927" lon="-0.39706">
        <ele>35.3</ele>
        <time>2020-09-10T09:45:34Z</time>
      </trkpt>
      <trkpt lat="44.89269" lon="-0.39705">
        <ele>35.3</ele>
        <time>2020-09-10T09:45:36Z</time>
      </trkpt>
      <trkpt lat="44.89267" lon="-0.39704">
        <ele>35.3</ele>
        <time>2020-09-10T09:45:37Z</time>
      </trkpt>
      <trkpt lat="44.89265" lon="-0.39703">
        <ele>35.3</ele>
        <time>2020-09-10T09:45:39Z</time>
      </trkpt>
      <trkpt lat="44.89264" lon="-0.39702">
        <ele>35.3</ele>
        <time>2020-09-10T09:45:40Z</time>
      </trkpt>
      <trkpt lat="44.89262" lon="-0.397">
        <ele>35.4</ele>
        <time>2020-09-10T09:45:42Z</time>
      </trkpt>
      <trkpt lat="44.89262" lon="-0.39699">
        <ele>35.4</ele>
        <time>2020-09-10T09:45:43Z</time>
      </trkpt>
      <trkpt lat="44.89261" lon="-0.39699">
        <ele>35.4</ele>
        <time>2020-09-10T09:45:44Z</time>
      </trkpt>
      <trkpt lat="44.8926" lon="-0.39698">
        <ele>35.4</ele>
        <time>2020-09-10T09:45:45Z</time>
      </trkpt>
      <trkpt lat="44.89259" lon="-0.39698">
        <ele>35.4</ele>
        <time>2020-09-10T09:45:46Z</time>
      </trkpt>
      <trkpt lat="44.89259" lon="-0.39697">
        <ele>35.4</ele>
        <time>2020-09-10T09:45:48Z</time>
      </trkpt>
      <trkpt lat="44.89258" lon="-0.39696">
        <ele>35.4</ele>
        <time>2020-09-10T09:45:49Z</time>
      </trkpt>
      <trkpt lat="44.89255" lon="-0.39694">
        <ele>35.5</ele>
        <time>2020-09-10T09:45:51Z</time>
      </trkpt>
      <trkpt lat="44.89255" lon="-0.39694">
        <ele>35.5</ele>
        <time>2020-09-10T09:45:52Z</time>
      </trkpt>
      <trkpt lat="44.89253" lon="-0.39693">
        <ele>35.5</ele>
        <time>2020-09-10T09:45:53Z</time>
      </trkpt>
      <trkpt lat="44.89252" lon="-0.39692">
        <ele>35.5</ele>
        <time>2020-09-10T09:45:54Z</time>
      </trkpt>
      <trkpt lat="44.89251" lon="-0.39691">
        <ele>35.6</ele>
        <time>2020-09-10T09:45:55Z</time>
      </trkpt>
      <trkpt lat="44.89249" lon="-0.3969">
        <ele>35.6</ele>
        <time>2020-09-10T09:45:56Z</time>
      </trkpt>
      <trkpt lat="44.89247" lon="-0.39689">
        <ele>35.6</ele>
        <time>2020-09-10T09:45:58Z</time>
      </trkpt>
      <trkpt lat="44.89246" lon="-0.39688">
        <ele>35.6</ele>
        <time>2020-09-10T09:45:59Z</time>
      </trkpt>
      <trkpt lat="44.89244" lon="-0.39688">
        <ele>35.7</ele>
        <time>2020-09-10T09:46:01Z</time>
      </trkpt>
      <trkpt lat="44.89243" lon="-0.39688">
        <ele>35.7</ele>
        <time>2020-09-10T09:46:02Z</time>
      </trkpt>
      <trkpt lat="44.89242" lon="-0.39688">
        <ele>35.7</ele>
        <time>2020-09-10T09:46:03Z</time>
      </trkpt>
      <trkpt lat="44.8924" lon="-0.39687">
        <ele>35.7</ele>
        <time>2020-09-10T09:46:04Z</time>
      </trkpt>
      <trkpt lat="44.89239" lon="-0.39687">
        <ele>35.8</ele>
        <time>2020-09-10T09:46:05Z</time>
      </trkpt>
      <trkpt lat="44.89238" lon="-0.39686">
        <ele>35.8</ele>
        <time>2020-09-10T09:46:06Z</time>
      </trkpt>
      <trkpt lat="44.89236" lon="-0.39685">
        <ele>35.8</ele>
        <time>2020-09-10T09:46:07Z</time>
      </trkpt>
      <trkpt lat="44.89235" lon="-0.39685">
        <ele>35.8</ele>
        <time>2020-09-10T09:46:08Z</time>
      </trkpt>
      <trkpt lat="44.89233" lon="-0.39684">
        <ele>35.9</ele>
        <time>2020-09-10T09:46:10Z</time>
      </trkpt>
      <trkpt lat="44.89232" lon="-0.39684">
        <ele>35.9</ele>
        <time>2020-09-10T09:46:11Z</time>
      </trkpt>
      <trkpt lat="44.89231" lon="-0.39684">
        <ele>35.9</ele>
        <time>2020-09-10T09:46:12Z</time>
      </trkpt>
      <trkpt lat="44.8923" lon="-0.39683">
        <ele>35.9</ele>
        <time>2020-09-10T09:46:13Z</time>
      </trkpt>
      <trkpt lat="44.89228" lon="-0.39683">
        <ele>35.9</ele>
        <time>2020-09-10T09:46:14Z</time>
      </trkpt>
      <trkpt lat="44.89227" lon="-0.39683">
        <ele>36</ele>
        <time>2020-09-10T09:46:15Z</time>
      </trkpt>
      <trkpt lat="44.89226" lon="-0.39682">
        <ele>36</ele>
        <time>2020-09-10T09:46:16Z</time>
      </trkpt>
      <trkpt lat="44.89225" lon="-0.39682">
        <ele>36</ele>
        <time>2020-09-10T09:46:17Z</time>
      </trkpt>
      <trkpt lat="44.89223" lon="-0.39682">
        <ele>36</ele>
        <time>2020-09-10T09:46:19Z</time>
      </trkpt>
      <trkpt lat="44.89222" lon="-0.39681">
        <ele>36.1</ele>
        <time>2020-09-10T09:46:20Z</time>
      </trkpt>
      <trkpt lat="44.89221" lon="-0.39681">
        <ele>36.1</ele>
        <time>2020-09-10T09:46:21Z</time>
      </trkpt>
      <trkpt lat="44.89219" lon="-0.3968">
        <ele>36.1</ele>
        <time>2020-09-10T09:46:23Z</time>
      </trkpt>
      <trkpt lat="44.89218" lon="-0.3968">
        <ele>36.1</ele>
        <time>2020-09-10T09:46:24Z</time>
      </trkpt>
      <trkpt lat="44.89216" lon="-0.3968">
        <ele>36.1</ele>
        <time>2020-09-10T09:46:25Z</time>
      </trkpt>
      <trkpt lat="44.89215" lon="-0.3968">
        <ele>36.2</ele>
        <time>2020-09-10T09:46:26Z</time>
      </trkpt>
      <trkpt lat="44.89213" lon="-0.3968">
        <ele>36.2</ele>
        <time>2020-09-10T09:46:27Z</time>
      </trkpt>
      <trkpt lat="44.89211" lon="-0.3968">
        <ele>36.2</ele>
        <time>2020-09-10T09:46:29Z</time>
      </trkpt>
      <trkpt lat="44.8921" lon="-0.3968">
        <ele>36.3</ele>
        <time>2020-09-10T09:46:30Z</time>
      </trkpt>
      <trkpt lat="44.89208" lon="-0.3968">
        <ele>36.3</ele>
        <time>2020-09-10T09:46:31Z</time>
      </trkpt>
      <trkpt lat="44.89207" lon="-0.39679">
        <ele>36.3</ele>
        <time>2020-09-10T09:46:33Z</time>
      </trkpt>
      <trkpt lat="44.89206" lon="-0.39679">
        <ele>36.3</ele>
        <time>2020-09-10T09:46:34Z</time>
      </trkpt>
      <trkpt lat="44.89205" lon="-0.39679">
        <ele>36.3</ele>
        <time>2020-09-10T09:46:35Z</time>
      </trkpt>
      <trkpt lat="44.89204" lon="-0.39679">
        <ele>36.3</ele>
        <time>2020-09-10T09:46:36Z</time>
      </trkpt>
      <trkpt lat="44.89202" lon="-0.39679">
        <ele>36.4</ele>
        <time>2020-09-10T09:46:37Z</time>
      </trkpt>
      <trkpt lat="44.89201" lon="-0.39679">
        <ele>36.4</ele>
        <time>2020-09-10T09:46:38Z</time>
      </trkpt>
      <trkpt lat="44.892" lon="-0.3968">
        <ele>36.4</ele>
        <time>2020-09-10T09:46:39Z</time>
      </trkpt>
      <trkpt lat="44.89197" lon="-0.3968">
        <ele>36.5</ele>
        <time>2020-09-10T09:46:40Z</time>
      </trkpt>
      <trkpt lat="44.89196" lon="-0.3968">
        <ele>36.5</ele>
        <time>2020-09-10T09:46:42Z</time>
      </trkpt>
      <trkpt lat="44.89194" lon="-0.39681">
        <ele>36.6</ele>
        <time>2020-09-10T09:46:43Z</time>
      </trkpt>
      <trkpt lat="44.89192" lon="-0.39681">
        <ele>36.6</ele>
        <time>2020-09-10T09:46:45Z</time>
      </trkpt>
      <trkpt lat="44.89191" lon="-0.39681">
        <ele>36.7</ele>
        <time>2020-09-10T09:46:46Z</time>
      </trkpt>
      <trkpt lat="44.89189" lon="-0.39682">
        <ele>36.7</ele>
        <time>2020-09-10T09:46:47Z</time>
      </trkpt>
      <trkpt lat="44.89187" lon="-0.39682">
        <ele>36.8</ele>
        <time>2020-09-10T09:46:49Z</time>
      </trkpt>
      <trkpt lat="44.89186" lon="-0.39683">
        <ele>36.8</ele>
        <time>2020-09-10T09:46:50Z</time>
      </trkpt>
      <trkpt lat="44.89183" lon="-0.39684">
        <ele>36.9</ele>
        <time>2020-09-10T09:46:51Z</time>
      </trkpt>
      <trkpt lat="44.89182" lon="-0.39685">
        <ele>37</ele>
        <time>2020-09-10T09:46:52Z</time>
      </trkpt>
      <trkpt lat="44.89181" lon="-0.39685">
        <ele>37</ele>
        <time>2020-09-10T09:46:53Z</time>
      </trkpt>
      <trkpt lat="44.8918" lon="-0.39685">
        <ele>37</ele>
        <time>2020-09-10T09:46:54Z</time>
      </trkpt>
      <trkpt lat="44.89179" lon="-0.39686">
        <ele>37</ele>
        <time>2020-09-10T09:46:56Z</time>
      </trkpt>
      <trkpt lat="44.89178" lon="-0.39686">
        <ele>37.1</ele>
        <time>2020-09-10T09:46:57Z</time>
      </trkpt>
      <trkpt lat="44.89177" lon="-0.39686">
        <ele>37.1</ele>
        <time>2020-09-10T09:46:58Z</time>
      </trkpt>
      <trkpt lat="44.89175" lon="-0.39687">
        <ele>37.2</ele>
        <time>2020-09-10T09:47:00Z</time>
      </trkpt>
      <trkpt lat="44.89173" lon="-0.39687">
        <ele>37.3</ele>
        <time>2020-09-10T09:47:01Z</time>
      </trkpt>
      <trkpt lat="44.89172" lon="-0.39688">
        <ele>37.3</ele>
        <time>2020-09-10T09:47:02Z</time>
      </trkpt>
      <trkpt lat="44.89171" lon="-0.39688">
        <ele>37.3</ele>
        <time>2020-09-10T09:47:03Z</time>
      </trkpt>
      <trkpt lat="44.89168" lon="-0.39688">
        <ele>37.4</ele>
        <time>2020-09-10T09:47:05Z</time>
      </trkpt>
      <trkpt lat="44.89167" lon="-0.39688">
        <ele>37.4</ele>
        <time>2020-09-10T09:47:06Z</time>
      </trkpt>
      <trkpt lat="44.89165" lon="-0.39689">
        <ele>37.5</ele>
        <time>2020-09-10T09:47:08Z</time>
      </trkpt>
      <trkpt lat="44.89164" lon="-0.39689">
        <ele>37.6</ele>
        <time>2020-09-10T09:47:09Z</time>
      </trkpt>
      <trkpt lat="44.89163" lon="-0.39689">
        <ele>37.6</ele>
        <time>2020-09-10T09:47:10Z</time>
      </trkpt>
      <trkpt lat="44.89162" lon="-0.39689">
        <ele>37.6</ele>
        <time>2020-09-10T09:47:11Z</time>
      </trkpt>
      <trkpt lat="44.89162" lon="-0.39689">
        <ele>37.7</ele>
        <time>2020-09-10T09:47:12Z</time>
      </trkpt>
      <trkpt lat="44.89161" lon="-0.39689">
        <ele>37.7</ele>
        <time>2020-09-10T09:47:13Z</time>
      </trkpt>
      <trkpt lat="44.89159" lon="-0.3969">
        <ele>37.8</ele>
        <time>2020-09-10T09:47:14Z</time>
      </trkpt>
      <trkpt lat="44.89158" lon="-0.3969">
        <ele>37.8</ele>
        <time>2020-09-10T09:47:15Z</time>
      </trkpt>
      <trkpt lat="44.89157" lon="-0.3969">
        <ele>37.9</ele>
        <time>2020-09-10T09:47:17Z</time>
      </trkpt>
      <trkpt lat="44.89155" lon="-0.3969">
        <ele>37.9</ele>
        <time>2020-09-10T09:47:18Z</time>
      </trkpt>
      <trkpt lat="44.89153" lon="-0.39691">
        <ele>38</ele>
        <time>2020-09-10T09:47:20Z</time>
      </trkpt>
      <trkpt lat="44.89152" lon="-0.39691">
        <ele>38.1</ele>
        <time>2020-09-10T09:47:21Z</time>
      </trkpt>
      <trkpt lat="44.89151" lon="-0.39692">
        <ele>38.2</ele>
        <time>2020-09-10T09:47:22Z</time>
      </trkpt>
      <trkpt lat="44.89148" lon="-0.39692">
        <ele>38.2</ele>
        <time>2020-09-10T09:47:23Z</time>
      </trkpt>
      <trkpt lat="44.89146" lon="-0.39693">
        <ele>38.3</ele>
        <time>2020-09-10T09:47:24Z</time>
      </trkpt>
      <trkpt lat="44.89145" lon="-0.39693">
        <ele>38.3</ele>
        <time>2020-09-10T09:47:25Z</time>
      </trkpt>
      <trkpt lat="44.89144" lon="-0.39694">
        <ele>38.3</ele>
        <time>2020-09-10T09:47:26Z</time>
      </trkpt>
      <trkpt lat="44.89141" lon="-0.39694">
        <ele>38.4</ele>
        <time>2020-09-10T09:47:28Z</time>
      </trkpt>
      <trkpt lat="44.8914" lon="-0.39694">
        <ele>38.4</ele>
        <time>2020-09-10T09:47:29Z</time>
      </trkpt>
      <trkpt lat="44.89139" lon="-0.39695">
        <ele>38.4</ele>
        <time>2020-09-10T09:47:31Z</time>
      </trkpt>
      <trkpt lat="44.89138" lon="-0.39695">
        <ele>38.4</ele>
        <time>2020-09-10T09:47:32Z</time>
      </trkpt>
      <trkpt lat="44.89137" lon="-0.39695">
        <ele>38.4</ele>
        <time>2020-09-10T09:47:33Z</time>
      </trkpt>
      <trkpt lat="44.89135" lon="-0.39696">
        <ele>38.5</ele>
        <time>2020-09-10T09:47:34Z</time>
      </trkpt>
      <trkpt lat="44.89134" lon="-0.39696">
        <ele>38.5</ele>
        <time>2020-09-10T09:47:36Z</time>
      </trkpt>
      <trkpt lat="44.89132" lon="-0.39696">
        <ele>38.6</ele>
        <time>2020-09-10T09:47:37Z</time>
      </trkpt>
      <trkpt lat="44.89131" lon="-0.39696">
        <ele>38.6</ele>
        <time>2020-09-10T09:47:38Z</time>
      </trkpt>
      <trkpt lat="44.8913" lon="-0.39696">
        <ele>38.7</ele>
        <time>2020-09-10T09:47:39Z</time>
      </trkpt>
      <trkpt lat="44.89129" lon="-0.39697">
        <ele>38.7</ele>
        <time>2020-09-10T09:47:41Z</time>
      </trkpt>
      <trkpt lat="44.89128" lon="-0.39697">
        <ele>38.7</ele>
        <time>2020-09-10T09:47:42Z</time>
      </trkpt>
      <trkpt lat="44.89127" lon="-0.39697">
        <ele>38.8</ele>
        <time>2020-09-10T09:47:43Z</time>
      </trkpt>
      <trkpt lat="44.89126" lon="-0.39698">
        <ele>38.8</ele>
        <time>2020-09-10T09:47:44Z</time>
      </trkpt>
      <trkpt lat="44.89125" lon="-0.39698">
        <ele>38.8</ele>
        <time>2020-09-10T09:47:45Z</time>
      </trkpt>
      <trkpt lat="44.89124" lon="-0.39698">
        <ele>38.9</ele>
        <time>2020-09-10T09:47:46Z</time>
      </trkpt>
      <trkpt lat="44.89123" lon="-0.39698">
        <ele>38.9</ele>
        <time>2020-09-10T09:47:47Z</time>
      </trkpt>
      <trkpt lat="44.89122" lon="-0.39698">
        <ele>38.9</ele>
        <time>2020-09-10T09:47:48Z</time>
      </trkpt>
      <trkpt lat="44.8912" lon="-0.39698">
        <ele>39.1</ele>
        <time>2020-09-10T09:47:49Z</time>
      </trkpt>
      <trkpt lat="44.89119" lon="-0.39698">
        <ele>39.1</ele>
        <time>2020-09-10T09:47:51Z</time>
      </trkpt>
      <trkpt lat="44.89118" lon="-0.39698">
        <ele>39.2</ele>
        <time>2020-09-10T09:47:52Z</time>
      </trkpt>
      <trkpt lat="44.89116" lon="-0.39698">
        <ele>39.2</ele>
        <time>2020-09-10T09:47:53Z</time>
      </trkpt>
      <trkpt lat="44.89114" lon="-0.39698">
        <ele>39.3</ele>
        <time>2020-09-10T09:47:54Z</time>
      </trkpt>
      <trkpt lat="44.89113" lon="-0.39698">
        <ele>39.4</ele>
        <time>2020-09-10T09:47:55Z</time>
      </trkpt>
      <trkpt lat="44.89111" lon="-0.39698">
        <ele>39.5</ele>
        <time>2020-09-10T09:47:57Z</time>
      </trkpt>
      <trkpt lat="44.8911" lon="-0.39698">
        <ele>39.5</ele>
        <time>2020-09-10T09:47:58Z</time>
      </trkpt>
      <trkpt lat="44.89108" lon="-0.39698">
        <ele>39.6</ele>
        <time>2020-09-10T09:48:00Z</time>
      </trkpt>
      <trkpt lat="44.89105" lon="-0.39698">
        <ele>39.8</ele>
        <time>2020-09-10T09:48:01Z</time>
      </trkpt>
      <trkpt lat="44.89103" lon="-0.39698">
        <ele>39.9</ele>
        <time>2020-09-10T09:48:03Z</time>
      </trkpt>
      <trkpt lat="44.89102" lon="-0.39698">
        <ele>39.9</ele>
        <time>2020-09-10T09:48:04Z</time>
      </trkpt>
      <trkpt lat="44.891" lon="-0.39698">
        <ele>40</ele>
        <time>2020-09-10T09:48:05Z</time>
      </trkpt>
      <trkpt lat="44.89098" lon="-0.39698">
        <ele>40.1</ele>
        <time>2020-09-10T09:48:06Z</time>
      </trkpt>
      <trkpt lat="44.89097" lon="-0.39698">
        <ele>40.2</ele>
        <time>2020-09-10T09:48:07Z</time>
      </trkpt>
      <trkpt lat="44.89096" lon="-0.39698">
        <ele>40.2</ele>
        <time>2020-09-10T09:48:08Z</time>
      </trkpt>
      <trkpt lat="44.89095" lon="-0.39697">
        <ele>40.3</ele>
        <time>2020-09-10T09:48:09Z</time>
      </trkpt>
      <trkpt lat="44.89093" lon="-0.39697">
        <ele>40.4</ele>
        <time>2020-09-10T09:48:11Z</time>
      </trkpt>
      <trkpt lat="44.89091" lon="-0.39697">
        <ele>40.5</ele>
        <time>2020-09-10T09:48:12Z</time>
      </trkpt>
      <trkpt lat="44.8909" lon="-0.39697">
        <ele>40.6</ele>
        <time>2020-09-10T09:48:13Z</time>
      </trkpt>
      <trkpt lat="44.89088" lon="-0.39697">
        <ele>40.6</ele>
        <time>2020-09-10T09:48:14Z</time>
      </trkpt>
      <trkpt lat="44.89088" lon="-0.39697">
        <ele>40.7</ele>
        <time>2020-09-10T09:48:16Z</time>
      </trkpt>
      <trkpt lat="44.89087" lon="-0.39697">
        <ele>40.7</ele>
        <time>2020-09-10T09:48:17Z</time>
      </trkpt>
      <trkpt lat="44.89084" lon="-0.39697">
        <ele>40.9</ele>
        <time>2020-09-10T09:48:18Z</time>
      </trkpt>
      <trkpt lat="44.89083" lon="-0.39697">
        <ele>40.9</ele>
        <time>2020-09-10T09:48:19Z</time>
      </trkpt>
      <trkpt lat="44.89082" lon="-0.39698">
        <ele>41</ele>
        <time>2020-09-10T09:48:20Z</time>
      </trkpt>
      <trkpt lat="44.89081" lon="-0.39698">
        <ele>41.1</ele>
        <time>2020-09-10T09:48:21Z</time>
      </trkpt>
      <trkpt lat="44.8908" lon="-0.39698">
        <ele>41.1</ele>
        <time>2020-09-10T09:48:23Z</time>
      </trkpt>
      <trkpt lat="44.89079" lon="-0.39698">
        <ele>41.2</ele>
        <time>2020-09-10T09:48:24Z</time>
      </trkpt>
      <trkpt lat="44.89077" lon="-0.39698">
        <ele>41.2</ele>
        <time>2020-09-10T09:48:25Z</time>
      </trkpt>
      <trkpt lat="44.89076" lon="-0.39698">
        <ele>41.3</ele>
        <time>2020-09-10T09:48:26Z</time>
      </trkpt>
      <trkpt lat="44.89075" lon="-0.39698">
        <ele>41.4</ele>
        <time>2020-09-10T09:48:27Z</time>
      </trkpt>
      <trkpt lat="44.89071" lon="-0.39698">
        <ele>41.6</ele>
        <time>2020-09-10T09:48:30Z</time>
      </trkpt>
      <trkpt lat="44.8907" lon="-0.39698">
        <ele>41.6</ele>
        <time>2020-09-10T09:48:31Z</time>
      </trkpt>
      <trkpt lat="44.89069" lon="-0.39698">
        <ele>41.7</ele>
        <time>2020-09-10T09:48:32Z</time>
      </trkpt>
      <trkpt lat="44.89068" lon="-0.39698">
        <ele>41.8</ele>
        <time>2020-09-10T09:48:33Z</time>
      </trkpt>
      <trkpt lat="44.89065" lon="-0.39699">
        <ele>41.9</ele>
        <time>2020-09-10T09:48:35Z</time>
      </trkpt>
      <trkpt lat="44.89064" lon="-0.39699">
        <ele>42</ele>
        <time>2020-09-10T09:48:36Z</time>
      </trkpt>
      <trkpt lat="44.89061" lon="-0.397">
        <ele>42.1</ele>
        <time>2020-09-10T09:48:38Z</time>
      </trkpt>
      <trkpt lat="44.8906" lon="-0.397">
        <ele>42.2</ele>
        <time>2020-09-10T09:48:39Z</time>
      </trkpt>
      <trkpt lat="44.89059" lon="-0.397">
        <ele>42.3</ele>
        <time>2020-09-10T09:48:41Z</time>
      </trkpt>
      <trkpt lat="44.89058" lon="-0.397">
        <ele>42.4</ele>
        <time>2020-09-10T09:48:42Z</time>
      </trkpt>
      <trkpt lat="44.89056" lon="-0.39701">
        <ele>42.5</ele>
        <time>2020-09-10T09:48:44Z</time>
      </trkpt>
      <trkpt lat="44.89054" lon="-0.39701">
        <ele>42.6</ele>
        <time>2020-09-10T09:48:45Z</time>
      </trkpt>
      <trkpt lat="44.89054" lon="-0.39701">
        <ele>42.6</ele>
        <time>2020-09-10T09:48:46Z</time>
      </trkpt>
      <trkpt lat="44.89052" lon="-0.39701">
        <ele>42.7</ele>
        <time>2020-09-10T09:48:48Z</time>
      </trkpt>
      <trkpt lat="44.89051" lon="-0.39701">
        <ele>42.8</ele>
        <time>2020-09-10T09:48:49Z</time>
      </trkpt>
      <trkpt lat="44.89049" lon="-0.39702">
        <ele>42.9</ele>
        <time>2020-09-10T09:48:50Z</time>
      </trkpt>
      <trkpt lat="44.89047" lon="-0.39703">
        <ele>43</ele>
        <time>2020-09-10T09:48:51Z</time>
      </trkpt>
      <trkpt lat="44.89046" lon="-0.39703">
        <ele>43.1</ele>
        <time>2020-09-10T09:48:52Z</time>
      </trkpt>
      <trkpt lat="44.89045" lon="-0.39703">
        <ele>43.1</ele>
        <time>2020-09-10T09:48:53Z</time>
      </trkpt>
      <trkpt lat="44.89044" lon="-0.39703">
        <ele>43.2</ele>
        <time>2020-09-10T09:48:54Z</time>
      </trkpt>
      <trkpt lat="44.89043" lon="-0.39704">
        <ele>43.3</ele>
        <time>2020-09-10T09:48:56Z</time>
      </trkpt>
      <trkpt lat="44.89041" lon="-0.39704">
        <ele>43.4</ele>
        <time>2020-09-10T09:48:57Z</time>
      </trkpt>
      <trkpt lat="44.8904" lon="-0.39704">
        <ele>43.5</ele>
        <time>2020-09-10T09:48:58Z</time>
      </trkpt>
      <trkpt lat="44.89039" lon="-0.39704">
        <ele>43.5</ele>
        <time>2020-09-10T09:48:59Z</time>
      </trkpt>
      <trkpt lat="44.89037" lon="-0.39705">
        <ele>43.7</ele>
        <time>2020-09-10T09:49:00Z</time>
      </trkpt>
      <trkpt lat="44.89035" lon="-0.39705">
        <ele>43.7</ele>
        <time>2020-09-10T09:49:01Z</time>
      </trkpt>
      <trkpt lat="44.89035" lon="-0.39706">
        <ele>43.8</ele>
        <time>2020-09-10T09:49:02Z</time>
      </trkpt>
      <trkpt lat="44.89034" lon="-0.39706">
        <ele>43.9</ele>
        <time>2020-09-10T09:49:03Z</time>
      </trkpt>
      <trkpt lat="44.89031" lon="-0.39708">
        <ele>44</ele>
        <time>2020-09-10T09:49:05Z</time>
      </trkpt>
      <trkpt lat="44.8903" lon="-0.39709">
        <ele>43.8</ele>
        <time>2020-09-10T09:49:06Z</time>
      </trkpt>
      <trkpt lat="44.89029" lon="-0.3971">
        <ele>43.7</ele>
        <time>2020-09-10T09:49:08Z</time>
      </trkpt>
      <trkpt lat="44.89028" lon="-0.39711">
        <ele>43.6</ele>
        <time>2020-09-10T09:49:09Z</time>
      </trkpt>
      <trkpt lat="44.89026" lon="-0.39713">
        <ele>43.5</ele>
        <time>2020-09-10T09:49:10Z</time>
      </trkpt>
      <trkpt lat="44.89026" lon="-0.39715">
        <ele>43.4</ele>
        <time>2020-09-10T09:49:11Z</time>
      </trkpt>
      <trkpt lat="44.89025" lon="-0.39716">
        <ele>43.4</ele>
        <time>2020-09-10T09:49:12Z</time>
      </trkpt>
      <trkpt lat="44.89025" lon="-0.39717">
        <ele>43.3</ele>
        <time>2020-09-10T09:49:13Z</time>
      </trkpt>
      <trkpt lat="44.89024" lon="-0.39721">
        <ele>43.2</ele>
        <time>2020-09-10T09:49:15Z</time>
      </trkpt>
      <trkpt lat="44.89024" lon="-0.39722">
        <ele>43.2</ele>
        <time>2020-09-10T09:49:16Z</time>
      </trkpt>
      <trkpt lat="44.89024" lon="-0.39724">
        <ele>43.1</ele>
        <time>2020-09-10T09:49:17Z</time>
      </trkpt>
      <trkpt lat="44.89025" lon="-0.39725">
        <ele>43.1</ele>
        <time>2020-09-10T09:49:18Z</time>
      </trkpt>
      <trkpt lat="44.89025" lon="-0.39727">
        <ele>43</ele>
        <time>2020-09-10T09:49:19Z</time>
      </trkpt>
      <trkpt lat="44.89025" lon="-0.3973">
        <ele>42.9</ele>
        <time>2020-09-10T09:49:20Z</time>
      </trkpt>
      <trkpt lat="44.89026" lon="-0.39733">
        <ele>42.9</ele>
        <time>2020-09-10T09:49:21Z</time>
      </trkpt>
      <trkpt lat="44.89027" lon="-0.39735">
        <ele>42.8</ele>
        <time>2020-09-10T09:49:23Z</time>
      </trkpt>
      <trkpt lat="44.89028" lon="-0.39737">
        <ele>42.8</ele>
        <time>2020-09-10T09:49:24Z</time>
      </trkpt>
      <trkpt lat="44.89028" lon="-0.39739">
        <ele>42.7</ele>
        <time>2020-09-10T09:49:25Z</time>
      </trkpt>
      <trkpt lat="44.89029" lon="-0.3974">
        <ele>42.7</ele>
        <time>2020-09-10T09:49:26Z</time>
      </trkpt>
      <trkpt lat="44.8903" lon="-0.39742">
        <ele>42.6</ele>
        <time>2020-09-10T09:49:27Z</time>
      </trkpt>
      <trkpt lat="44.89031" lon="-0.39744">
        <ele>42.6</ele>
        <time>2020-09-10T09:49:29Z</time>
      </trkpt>
      <trkpt lat="44.89032" lon="-0.39747">
        <ele>42.5</ele>
        <time>2020-09-10T09:49:30Z</time>
      </trkpt>
      <trkpt lat="44.89032" lon="-0.39749">
        <ele>42.5</ele>
        <time>2020-09-10T09:49:31Z</time>
      </trkpt>
      <trkpt lat="44.89033" lon="-0.3975">
        <ele>42.5</ele>
        <time>2020-09-10T09:49:32Z</time>
      </trkpt>
      <trkpt lat="44.89033" lon="-0.39752">
        <ele>42.4</ele>
        <time>2020-09-10T09:49:33Z</time>
      </trkpt>
      <trkpt lat="44.89034" lon="-0.39756">
        <ele>42.4</ele>
        <time>2020-09-10T09:49:35Z</time>
      </trkpt>
      <trkpt lat="44.89034" lon="-0.39757">
        <ele>42.3</ele>
        <time>2020-09-10T09:49:36Z</time>
      </trkpt>
      <trkpt lat="44.89034" lon="-0.39759">
        <ele>42.3</ele>
        <time>2020-09-10T09:49:37Z</time>
      </trkpt>
      <trkpt lat="44.89034" lon="-0.3976">
        <ele>42.3</ele>
        <time>2020-09-10T09:49:39Z</time>
      </trkpt>
      <trkpt lat="44.89035" lon="-0.39763">
        <ele>42.2</ele>
        <time>2020-09-10T09:49:40Z</time>
      </trkpt>
      <trkpt lat="44.89035" lon="-0.39764">
        <ele>42.2</ele>
        <time>2020-09-10T09:49:41Z</time>
      </trkpt>
      <trkpt lat="44.89035" lon="-0.39766">
        <ele>42.2</ele>
        <time>2020-09-10T09:49:42Z</time>
      </trkpt>
      <trkpt lat="44.89036" lon="-0.39768">
        <ele>42.1</ele>
        <time>2020-09-10T09:49:43Z</time>
      </trkpt>
      <trkpt lat="44.89036" lon="-0.39772">
        <ele>42.1</ele>
        <time>2020-09-10T09:49:45Z</time>
      </trkpt>
      <trkpt lat="44.89037" lon="-0.39774">
        <ele>42</ele>
        <time>2020-09-10T09:49:46Z</time>
      </trkpt>
      <trkpt lat="44.89037" lon="-0.39775">
        <ele>42</ele>
        <time>2020-09-10T09:49:47Z</time>
      </trkpt>
      <trkpt lat="44.89037" lon="-0.39777">
        <ele>42</ele>
        <time>2020-09-10T09:49:48Z</time>
      </trkpt>
      <trkpt lat="44.89037" lon="-0.39779">
        <ele>41.9</ele>
        <time>2020-09-10T09:49:49Z</time>
      </trkpt>
      <trkpt lat="44.89038" lon="-0.39782">
        <ele>41.9</ele>
        <time>2020-09-10T09:49:51Z</time>
      </trkpt>
      <trkpt lat="44.89037" lon="-0.39782">
        <ele>41.9</ele>
        <time>2020-09-10T09:49:52Z</time>
      </trkpt>
      <trkpt lat="44.89037" lon="-0.39782">
        <ele>41.9</ele>
        <time>2020-09-10T09:49:53Z</time>
      </trkpt>
      <trkpt lat="44.89037" lon="-0.39784">
        <ele>41.8</ele>
        <time>2020-09-10T09:49:55Z</time>
      </trkpt>
      <trkpt lat="44.89037" lon="-0.39784">
        <ele>41.8</ele>
        <time>2020-09-10T09:49:56Z</time>
      </trkpt>
      <trkpt lat="44.89037" lon="-0.39786">
        <ele>41.8</ele>
        <time>2020-09-10T09:49:57Z</time>
      </trkpt>
      <trkpt lat="44.89037" lon="-0.39789">
        <ele>41.7</ele>
        <time>2020-09-10T09:49:59Z</time>
      </trkpt>
      <trkpt lat="44.89038" lon="-0.39791">
        <ele>41.7</ele>
        <time>2020-09-10T09:50:00Z</time>
      </trkpt>
      <trkpt lat="44.89038" lon="-0.39792">
        <ele>41.7</ele>
        <time>2020-09-10T09:50:01Z</time>
      </trkpt>
      <trkpt lat="44.89038" lon="-0.39794">
        <ele>41.6</ele>
        <time>2020-09-10T09:50:03Z</time>
      </trkpt>
      <trkpt lat="44.89038" lon="-0.39796">
        <ele>41.6</ele>
        <time>2020-09-10T09:50:04Z</time>
      </trkpt>
      <trkpt lat="44.89038" lon="-0.39797">
        <ele>41.6</ele>
        <time>2020-09-10T09:50:05Z</time>
      </trkpt>
      <trkpt lat="44.89038" lon="-0.39799">
        <ele>41.6</ele>
        <time>2020-09-10T09:50:07Z</time>
      </trkpt>
      <trkpt lat="44.89039" lon="-0.398">
        <ele>41.5</ele>
        <time>2020-09-10T09:50:08Z</time>
      </trkpt>
      <trkpt lat="44.89039" lon="-0.39802">
        <ele>41.5</ele>
        <time>2020-09-10T09:50:09Z</time>
      </trkpt>
      <trkpt lat="44.89039" lon="-0.39804">
        <ele>41.5</ele>
        <time>2020-09-10T09:50:10Z</time>
      </trkpt>
      <trkpt lat="44.8904" lon="-0.39805">
        <ele>41.5</ele>
        <time>2020-09-10T09:50:11Z</time>
      </trkpt>
      <trkpt lat="44.8904" lon="-0.39806">
        <ele>41.5</ele>
        <time>2020-09-10T09:50:12Z</time>
      </trkpt>
      <trkpt lat="44.8904" lon="-0.39807">
        <ele>41.4</ele>
        <time>2020-09-10T09:50:14Z</time>
      </trkpt>
      <trkpt lat="44.8904" lon="-0.39809">
        <ele>41.4</ele>
        <time>2020-09-10T09:50:15Z</time>
      </trkpt>
      <trkpt lat="44.89039" lon="-0.3981">
        <ele>41.4</ele>
        <time>2020-09-10T09:50:17Z</time>
      </trkpt>
      <trkpt lat="44.89039" lon="-0.39811">
        <ele>41.4</ele>
        <time>2020-09-10T09:50:18Z</time>
      </trkpt>
      <trkpt lat="44.89039" lon="-0.39811">
        <ele>41.4</ele>
        <time>2020-09-10T09:50:19Z</time>
      </trkpt>
      <trkpt lat="44.89039" lon="-0.39812">
        <ele>41.4</ele>
        <time>2020-09-10T09:50:21Z</time>
      </trkpt>
      <trkpt lat="44.89039" lon="-0.39812">
        <ele>41.4</ele>
        <time>2020-09-10T09:50:22Z</time>
      </trkpt>
      <trkpt lat="44.89038" lon="-0.39812">
        <ele>41.4</ele>
        <time>2020-09-10T09:50:24Z</time>
      </trkpt>
      <trkpt lat="44.89038" lon="-0.39812">
        <ele>41.4</ele>
        <time>2020-09-10T09:50:25Z</time>
      </trkpt>
      <trkpt lat="44.89038" lon="-0.39812">
        <ele>41.4</ele>
        <time>2020-09-10T09:50:26Z</time>
      </trkpt>
      <trkpt lat="44.89038" lon="-0.3981">
        <ele>41.3</ele>
        <time>2020-09-10T09:50:28Z</time>
      </trkpt>
      <trkpt lat="44.89038" lon="-0.3981">
        <ele>41.3</ele>
        <time>2020-09-10T09:50:29Z</time>
      </trkpt>
      <trkpt lat="44.89037" lon="-0.3981">
        <ele>41.3</ele>
        <time>2020-09-10T09:50:31Z</time>
      </trkpt>
      <trkpt lat="44.89036" lon="-0.3981">
        <ele>41.3</ele>
        <time>2020-09-10T09:50:32Z</time>
      </trkpt>
      <trkpt lat="44.89035" lon="-0.39811">
        <ele>41.3</ele>
        <time>2020-09-10T09:50:33Z</time>
      </trkpt>
      <trkpt lat="44.89033" lon="-0.39812">
        <ele>41.3</ele>
        <time>2020-09-10T09:50:34Z</time>
      </trkpt>
      <trkpt lat="44.89031" lon="-0.39813">
        <ele>41.2</ele>
        <time>2020-09-10T09:50:36Z</time>
      </trkpt>
      <trkpt lat="44.89031" lon="-0.39813">
        <ele>41.2</ele>
        <time>2020-09-10T09:50:37Z</time>
      </trkpt>
      <trkpt lat="44.8903" lon="-0.39814">
        <ele>41.2</ele>
        <time>2020-09-10T09:50:38Z</time>
      </trkpt>
      <trkpt lat="44.8903" lon="-0.39816">
        <ele>41.2</ele>
        <time>2020-09-10T09:50:39Z</time>
      </trkpt>
      <trkpt lat="44.8903" lon="-0.39817">
        <ele>41.1</ele>
        <time>2020-09-10T09:50:40Z</time>
      </trkpt>
      <trkpt lat="44.8903" lon="-0.39822">
        <ele>41.1</ele>
        <time>2020-09-10T09:50:42Z</time>
      </trkpt>
      <trkpt lat="44.8903" lon="-0.39823">
        <ele>41.1</ele>
        <time>2020-09-10T09:50:43Z</time>
      </trkpt>
      <trkpt lat="44.89031" lon="-0.39825">
        <ele>41</ele>
        <time>2020-09-10T09:50:44Z</time>
      </trkpt>
      <trkpt lat="44.89031" lon="-0.39827">
        <ele>41</ele>
        <time>2020-09-10T09:50:45Z</time>
      </trkpt>
      <trkpt lat="44.89034" lon="-0.39832">
        <ele>40.9</ele>
        <time>2020-09-10T09:50:47Z</time>
      </trkpt>
      <trkpt lat="44.89036" lon="-0.39834">
        <ele>40.8</ele>
        <time>2020-09-10T09:50:49Z</time>
      </trkpt>
      <trkpt lat="44.89037" lon="-0.39836">
        <ele>40.8</ele>
        <time>2020-09-10T09:50:50Z</time>
      </trkpt>
      <trkpt lat="44.89038" lon="-0.39838">
        <ele>40.8</ele>
        <time>2020-09-10T09:50:51Z</time>
      </trkpt>
      <trkpt lat="44.89039" lon="-0.39841">
        <ele>40.7</ele>
        <time>2020-09-10T09:50:52Z</time>
      </trkpt>
      <trkpt lat="44.89039" lon="-0.39842">
        <ele>40.7</ele>
        <time>2020-09-10T09:50:53Z</time>
      </trkpt>
      <trkpt lat="44.8904" lon="-0.39845">
        <ele>40.7</ele>
        <time>2020-09-10T09:50:55Z</time>
      </trkpt>
      <trkpt lat="44.8904" lon="-0.39847">
        <ele>40.7</ele>
        <time>2020-09-10T09:50:56Z</time>
      </trkpt>
      <trkpt lat="44.8904" lon="-0.39852">
        <ele>40.6</ele>
        <time>2020-09-10T09:50:57Z</time>
      </trkpt>
      <trkpt lat="44.8904" lon="-0.39854">
        <ele>40.6</ele>
        <time>2020-09-10T09:50:58Z</time>
      </trkpt>
      <trkpt lat="44.8904" lon="-0.39858">
        <ele>40.6</ele>
        <time>2020-09-10T09:50:59Z</time>
      </trkpt>
      <trkpt lat="44.89041" lon="-0.39864">
        <ele>40.5</ele>
        <time>2020-09-10T09:51:01Z</time>
      </trkpt>
      <trkpt lat="44.89041" lon="-0.39866">
        <ele>40.5</ele>
        <time>2020-09-10T09:51:02Z</time>
      </trkpt>
      <trkpt lat="44.89041" lon="-0.39868">
        <ele>40.5</ele>
        <time>2020-09-10T09:51:03Z</time>
      </trkpt>
      <trkpt lat="44.89041" lon="-0.39872">
        <ele>40.5</ele>
        <time>2020-09-10T09:51:05Z</time>
      </trkpt>
      <trkpt lat="44.89041" lon="-0.39875">
        <ele>40.5</ele>
        <time>2020-09-10T09:51:07Z</time>
      </trkpt>
      <trkpt lat="44.89042" lon="-0.39877">
        <ele>40.5</ele>
        <time>2020-09-10T09:51:08Z</time>
      </trkpt>
      <trkpt lat="44.89042" lon="-0.39878">
        <ele>40.5</ele>
        <time>2020-09-10T09:51:09Z</time>
      </trkpt>
      <trkpt lat="44.89042" lon="-0.3988">
        <ele>40.5</ele>
        <time>2020-09-10T09:51:10Z</time>
      </trkpt>
      <trkpt lat="44.89043" lon="-0.39882">
        <ele>40.5</ele>
        <time>2020-09-10T09:51:12Z</time>
      </trkpt>
      <trkpt lat="44.89043" lon="-0.39884">
        <ele>40.4</ele>
        <time>2020-09-10T09:51:13Z</time>
      </trkpt>
      <trkpt lat="44.89043" lon="-0.39886">
        <ele>40.4</ele>
        <time>2020-09-10T09:51:14Z</time>
      </trkpt>
      <trkpt lat="44.89043" lon="-0.39887">
        <ele>40.4</ele>
        <time>2020-09-10T09:51:15Z</time>
      </trkpt>
      <trkpt lat="44.89043" lon="-0.39888">
        <ele>40.4</ele>
        <time>2020-09-10T09:51:16Z</time>
      </trkpt>
      <trkpt lat="44.89043" lon="-0.39891">
        <ele>40.4</ele>
        <time>2020-09-10T09:51:18Z</time>
      </trkpt>
      <trkpt lat="44.89044" lon="-0.39892">
        <ele>40.4</ele>
        <time>2020-09-10T09:51:19Z</time>
      </trkpt>
      <trkpt lat="44.89045" lon="-0.39892">
        <ele>40.4</ele>
        <time>2020-09-10T09:51:21Z</time>
      </trkpt>
      <trkpt lat="44.89045" lon="-0.39893">
        <ele>40.4</ele>
        <time>2020-09-10T09:51:23Z</time>
      </trkpt>
      <trkpt lat="44.89045" lon="-0.39894">
        <ele>40.4</ele>
        <time>2020-09-10T09:51:24Z</time>
      </trkpt>
      <trkpt lat="44.89045" lon="-0.39896">
        <ele>40.4</ele>
        <time>2020-09-10T09:51:25Z</time>
      </trkpt>
      <trkpt lat="44.89045" lon="-0.39899">
        <ele>40.4</ele>
        <time>2020-09-10T09:51:26Z</time>
      </trkpt>
      <trkpt lat="44.89044" lon="-0.399">
        <ele>40.4</ele>
        <time>2020-09-10T09:51:28Z</time>
      </trkpt>
      <trkpt lat="44.89044" lon="-0.39902">
        <ele>40.4</ele>
        <time>2020-09-10T09:51:29Z</time>
      </trkpt>
      <trkpt lat="44.89043" lon="-0.39903">
        <ele>40.4</ele>
        <time>2020-09-10T09:51:31Z</time>
      </trkpt>
      <trkpt lat="44.89041" lon="-0.39906">
        <ele>40.4</ele>
        <time>2020-09-10T09:51:32Z</time>
      </trkpt>
      <trkpt lat="44.8904" lon="-0.39906">
        <ele>40.3</ele>
        <time>2020-09-10T09:51:33Z</time>
      </trkpt>
      <trkpt lat="44.89039" lon="-0.39906">
        <ele>40.3</ele>
        <time>2020-09-10T09:51:34Z</time>
      </trkpt>
      <trkpt lat="44.89038" lon="-0.39906">
        <ele>40.3</ele>
        <time>2020-09-10T09:51:35Z</time>
      </trkpt>
      <trkpt lat="44.89036" lon="-0.39907">
        <ele>40.3</ele>
        <time>2020-09-10T09:51:37Z</time>
      </trkpt>
      <trkpt lat="44.89035" lon="-0.39907">
        <ele>40.3</ele>
        <time>2020-09-10T09:51:39Z</time>
      </trkpt>
      <trkpt lat="44.89033" lon="-0.39908">
        <ele>40.3</ele>
        <time>2020-09-10T09:51:40Z</time>
      </trkpt>
      <trkpt lat="44.89033" lon="-0.39908">
        <ele>40.3</ele>
        <time>2020-09-10T09:51:41Z</time>
      </trkpt>
      <trkpt lat="44.89032" lon="-0.39909">
        <ele>40.3</ele>
        <time>2020-09-10T09:51:42Z</time>
      </trkpt>
      <trkpt lat="44.89032" lon="-0.3991">
        <ele>40.3</ele>
        <time>2020-09-10T09:51:43Z</time>
      </trkpt>
      <trkpt lat="44.89031" lon="-0.39912">
        <ele>40.3</ele>
        <time>2020-09-10T09:51:45Z</time>
      </trkpt>
      <trkpt lat="44.89031" lon="-0.39914">
        <ele>40.3</ele>
        <time>2020-09-10T09:51:47Z</time>
      </trkpt>
      <trkpt lat="44.89031" lon="-0.39917">
        <ele>40.3</ele>
        <time>2020-09-10T09:51:48Z</time>
      </trkpt>
      <trkpt lat="44.89031" lon="-0.39918">
        <ele>40.3</ele>
        <time>2020-09-10T09:51:49Z</time>
      </trkpt>
      <trkpt lat="44.89031" lon="-0.39922">
        <ele>40.3</ele>
        <time>2020-09-10T09:51:50Z</time>
      </trkpt>
      <trkpt lat="44.89031" lon="-0.39923">
        <ele>40.3</ele>
        <time>2020-09-10T09:51:51Z</time>
      </trkpt>
      <trkpt lat="44.89031" lon="-0.39925">
        <ele>40.3</ele>
        <time>2020-09-10T09:51:52Z</time>
      </trkpt>
      <trkpt lat="44.89031" lon="-0.39927">
        <ele>40.3</ele>
        <time>2020-09-10T09:51:53Z</time>
      </trkpt>
      <trkpt lat="44.89032" lon="-0.39928">
        <ele>40.3</ele>
        <time>2020-09-10T09:51:55Z</time>
      </trkpt>
      <trkpt lat="44.89032" lon="-0.39929">
        <ele>40.3</ele>
        <time>2020-09-10T09:51:56Z</time>
      </trkpt>
      <trkpt lat="44.89031" lon="-0.39933">
        <ele>40.3</ele>
        <time>2020-09-10T09:51:57Z</time>
      </trkpt>
      <trkpt lat="44.89031" lon="-0.39934">
        <ele>40.3</ele>
        <time>2020-09-10T09:51:58Z</time>
      </trkpt>
      <trkpt lat="44.89031" lon="-0.39936">
        <ele>40.3</ele>
        <time>2020-09-10T09:51:59Z</time>
      </trkpt>
      <trkpt lat="44.8903" lon="-0.39939">
        <ele>40.3</ele>
        <time>2020-09-10T09:52:01Z</time>
      </trkpt>
      <trkpt lat="44.89029" lon="-0.39941">
        <ele>40.3</ele>
        <time>2020-09-10T09:52:02Z</time>
      </trkpt>
      <trkpt lat="44.89029" lon="-0.39943">
        <ele>40.3</ele>
        <time>2020-09-10T09:52:03Z</time>
      </trkpt>
      <trkpt lat="44.89029" lon="-0.39944">
        <ele>40.3</ele>
        <time>2020-09-10T09:52:04Z</time>
      </trkpt>
      <trkpt lat="44.89029" lon="-0.39947">
        <ele>40.3</ele>
        <time>2020-09-10T09:52:06Z</time>
      </trkpt>
      <trkpt lat="44.89029" lon="-0.3995">
        <ele>40.3</ele>
        <time>2020-09-10T09:52:07Z</time>
      </trkpt>
      <trkpt lat="44.89029" lon="-0.39951">
        <ele>40.2</ele>
        <time>2020-09-10T09:52:09Z</time>
      </trkpt>
      <trkpt lat="44.89028" lon="-0.39952">
        <ele>40.2</ele>
        <time>2020-09-10T09:52:10Z</time>
      </trkpt>
      <trkpt lat="44.89027" lon="-0.39953">
        <ele>40.2</ele>
        <time>2020-09-10T09:52:11Z</time>
      </trkpt>
      <trkpt lat="44.89026" lon="-0.39954">
        <ele>40.5</ele>
        <time>2020-09-10T09:52:12Z</time>
      </trkpt>
      <trkpt lat="44.89026" lon="-0.39953">
        <ele>40.5</ele>
        <time>2020-09-10T09:52:14Z</time>
      </trkpt>
      <trkpt lat="44.89024" lon="-0.39953">
        <ele>40.5</ele>
        <time>2020-09-10T09:52:15Z</time>
      </trkpt>
      <trkpt lat="44.89022" lon="-0.39951">
        <ele>40.7</ele>
        <time>2020-09-10T09:52:17Z</time>
      </trkpt>
      <trkpt lat="44.8902" lon="-0.39949">
        <ele>41</ele>
        <time>2020-09-10T09:52:18Z</time>
      </trkpt>
      <trkpt lat="44.89019" lon="-0.39948">
        <ele>41</ele>
        <time>2020-09-10T09:52:20Z</time>
      </trkpt>
      <trkpt lat="44.89018" lon="-0.39948">
        <ele>41</ele>
        <time>2020-09-10T09:52:21Z</time>
      </trkpt>
      <trkpt lat="44.89016" lon="-0.39947">
        <ele>41.2</ele>
        <time>2020-09-10T09:52:22Z</time>
      </trkpt>
      <trkpt lat="44.89015" lon="-0.39947">
        <ele>41.2</ele>
        <time>2020-09-10T09:52:23Z</time>
      </trkpt>
      <trkpt lat="44.89014" lon="-0.39947">
        <ele>41.5</ele>
        <time>2020-09-10T09:52:25Z</time>
      </trkpt>
      <trkpt lat="44.89013" lon="-0.39946">
        <ele>41.4</ele>
        <time>2020-09-10T09:52:26Z</time>
      </trkpt>
      <trkpt lat="44.89012" lon="-0.39946">
        <ele>41.4</ele>
        <time>2020-09-10T09:52:28Z</time>
      </trkpt>
      <trkpt lat="44.89011" lon="-0.39946">
        <ele>41.7</ele>
        <time>2020-09-10T09:52:29Z</time>
      </trkpt>
      <trkpt lat="44.89011" lon="-0.39946">
        <ele>41.7</ele>
        <time>2020-09-10T09:52:30Z</time>
      </trkpt>
      <trkpt lat="44.89009" lon="-0.39946">
        <ele>41.7</ele>
        <time>2020-09-10T09:52:31Z</time>
      </trkpt>
      <trkpt lat="44.89008" lon="-0.39946">
        <ele>42</ele>
        <time>2020-09-10T09:52:32Z</time>
      </trkpt>
      <trkpt lat="44.89006" lon="-0.39945">
        <ele>42</ele>
        <time>2020-09-10T09:52:33Z</time>
      </trkpt>
      <trkpt lat="44.89005" lon="-0.39945">
        <ele>42.3</ele>
        <time>2020-09-10T09:52:35Z</time>
      </trkpt>
      <trkpt lat="44.89004" lon="-0.39944">
        <ele>42.3</ele>
        <time>2020-09-10T09:52:36Z</time>
      </trkpt>
      <trkpt lat="44.89003" lon="-0.39943">
        <ele>42.2</ele>
        <time>2020-09-10T09:52:37Z</time>
      </trkpt>
      <trkpt lat="44.89002" lon="-0.39943">
        <ele>42.5</ele>
        <time>2020-09-10T09:52:38Z</time>
      </trkpt>
      <trkpt lat="44.89" lon="-0.39941">
        <ele>42.6</ele>
        <time>2020-09-10T09:52:39Z</time>
      </trkpt>
      <trkpt lat="44.88999" lon="-0.39941">
        <ele>42.9</ele>
        <time>2020-09-10T09:52:41Z</time>
      </trkpt>
      <trkpt lat="44.88998" lon="-0.3994">
        <ele>42.9</ele>
        <time>2020-09-10T09:52:42Z</time>
      </trkpt>
      <trkpt lat="44.88996" lon="-0.39939">
        <ele>42.9</ele>
        <time>2020-09-10T09:52:43Z</time>
      </trkpt>
      <trkpt lat="44.88996" lon="-0.39939">
        <ele>43.1</ele>
        <time>2020-09-10T09:52:45Z</time>
      </trkpt>
      <trkpt lat="44.88994" lon="-0.39938">
        <ele>43.1</ele>
        <time>2020-09-10T09:52:46Z</time>
      </trkpt>
      <trkpt lat="44.88993" lon="-0.39937">
        <ele>43.4</ele>
        <time>2020-09-10T09:52:48Z</time>
      </trkpt>
      <trkpt lat="44.88992" lon="-0.39936">
        <ele>43.4</ele>
        <time>2020-09-10T09:52:49Z</time>
      </trkpt>
      <trkpt lat="44.88991" lon="-0.39936">
        <ele>43.4</ele>
        <time>2020-09-10T09:52:50Z</time>
      </trkpt>
      <trkpt lat="44.8899" lon="-0.39935">
        <ele>43.7</ele>
        <time>2020-09-10T09:52:51Z</time>
      </trkpt>
      <trkpt lat="44.88988" lon="-0.39935">
        <ele>43.7</ele>
        <time>2020-09-10T09:52:53Z</time>
      </trkpt>
      <trkpt lat="44.88987" lon="-0.39935">
        <ele>43.9</ele>
        <time>2020-09-10T09:52:54Z</time>
      </trkpt>
      <trkpt lat="44.88986" lon="-0.39935">
        <ele>43.9</ele>
        <time>2020-09-10T09:52:55Z</time>
      </trkpt>
      <trkpt lat="44.88986" lon="-0.39937">
        <ele>43.9</ele>
        <time>2020-09-10T09:52:58Z</time>
      </trkpt>
      <trkpt lat="44.88986" lon="-0.39938">
        <ele>43.7</ele>
        <time>2020-09-10T09:53:00Z</time>
      </trkpt>
      <trkpt lat="44.88986" lon="-0.39939">
        <ele>43.7</ele>
        <time>2020-09-10T09:53:01Z</time>
      </trkpt>
      <trkpt lat="44.88987" lon="-0.3994">
        <ele>43.7</ele>
        <time>2020-09-10T09:53:03Z</time>
      </trkpt>
      <trkpt lat="44.88987" lon="-0.39941">
        <ele>43.7</ele>
        <time>2020-09-10T09:53:04Z</time>
      </trkpt>
      <trkpt lat="44.88987" lon="-0.39941">
        <ele>43.7</ele>
        <time>2020-09-10T09:53:05Z</time>
      </trkpt>
      <trkpt lat="44.88987" lon="-0.39942">
        <ele>43.3</ele>
        <time>2020-09-10T09:53:08Z</time>
      </trkpt>
      <trkpt lat="44.88987" lon="-0.39942">
        <ele>43.3</ele>
        <time>2020-09-10T09:53:09Z</time>
      </trkpt>
      <trkpt lat="44.88988" lon="-0.39942">
        <ele>43.3</ele>
        <time>2020-09-10T09:53:11Z</time>
      </trkpt>
      <trkpt lat="44.88988" lon="-0.39942">
        <ele>43.3</ele>
        <time>2020-09-10T09:53:13Z</time>
      </trkpt>
      <trkpt lat="44.88988" lon="-0.39939">
        <ele>43.5</ele>
        <time>2020-09-10T09:53:14Z</time>
      </trkpt>
      <trkpt lat="44.88988" lon="-0.39938">
        <ele>43.5</ele>
        <time>2020-09-10T09:53:15Z</time>
      </trkpt>
      <trkpt lat="44.88988" lon="-0.39937">
        <ele>43.6</ele>
        <time>2020-09-10T09:53:17Z</time>
      </trkpt>
      <trkpt lat="44.88988" lon="-0.39937">
        <ele>43.6</ele>
        <time>2020-09-10T09:53:18Z</time>
      </trkpt>
      <trkpt lat="44.88988" lon="-0.39936">
        <ele>43.6</ele>
        <time>2020-09-10T09:53:20Z</time>
      </trkpt>
      <trkpt lat="44.88987" lon="-0.39937">
        <ele>43.6</ele>
        <time>2020-09-10T09:53:22Z</time>
      </trkpt>
      <trkpt lat="44.88987" lon="-0.39937">
        <ele>43.8</ele>
        <time>2020-09-10T09:53:23Z</time>
      </trkpt>
      <trkpt lat="44.88986" lon="-0.39937">
        <ele>43.8</ele>
        <time>2020-09-10T09:53:24Z</time>
      </trkpt>
      <trkpt lat="44.88985" lon="-0.39937">
        <ele>43.8</ele>
        <time>2020-09-10T09:53:26Z</time>
      </trkpt>
      <trkpt lat="44.88983" lon="-0.39937">
        <ele>44</ele>
        <time>2020-09-10T09:53:27Z</time>
      </trkpt>
      <trkpt lat="44.88982" lon="-0.39937">
        <ele>44</ele>
        <time>2020-09-10T09:53:29Z</time>
      </trkpt>
      <trkpt lat="44.8898" lon="-0.39937">
        <ele>44.2</ele>
        <time>2020-09-10T09:53:30Z</time>
      </trkpt>
      <trkpt lat="44.88979" lon="-0.39936">
        <ele>44.2</ele>
        <time>2020-09-10T09:53:31Z</time>
      </trkpt>
      <trkpt lat="44.88978" lon="-0.39935">
        <ele>44.4</ele>
        <time>2020-09-10T09:53:33Z</time>
      </trkpt>
      <trkpt lat="44.88977" lon="-0.39934">
        <ele>44.4</ele>
        <time>2020-09-10T09:53:34Z</time>
      </trkpt>
      <trkpt lat="44.88976" lon="-0.39934">
        <ele>44.4</ele>
        <time>2020-09-10T09:53:35Z</time>
      </trkpt>
      <trkpt lat="44.88974" lon="-0.39933">
        <ele>44.8</ele>
        <time>2020-09-10T09:53:37Z</time>
      </trkpt>
      <trkpt lat="44.88973" lon="-0.39932">
        <ele>44.8</ele>
        <time>2020-09-10T09:53:38Z</time>
      </trkpt>
      <trkpt lat="44.88972" lon="-0.39931">
        <ele>45</ele>
        <time>2020-09-10T09:53:39Z</time>
      </trkpt>
      <trkpt lat="44.8897" lon="-0.3993">
        <ele>45</ele>
        <time>2020-09-10T09:53:40Z</time>
      </trkpt>
      <trkpt lat="44.88969" lon="-0.39929">
        <ele>45.3</ele>
        <time>2020-09-10T09:53:42Z</time>
      </trkpt>
      <trkpt lat="44.88967" lon="-0.39928">
        <ele>45.4</ele>
        <time>2020-09-10T09:53:43Z</time>
      </trkpt>
      <trkpt lat="44.88967" lon="-0.39927">
        <ele>45.4</ele>
        <time>2020-09-10T09:53:44Z</time>
      </trkpt>
      <trkpt lat="44.88965" lon="-0.39926">
        <ele>45.6</ele>
        <time>2020-09-10T09:53:46Z</time>
      </trkpt>
      <trkpt lat="44.88964" lon="-0.39925">
        <ele>45.6</ele>
        <time>2020-09-10T09:53:47Z</time>
      </trkpt>
      <trkpt lat="44.88962" lon="-0.39924">
        <ele>46</ele>
        <time>2020-09-10T09:53:48Z</time>
      </trkpt>
      <trkpt lat="44.88961" lon="-0.39923">
        <ele>46</ele>
        <time>2020-09-10T09:53:49Z</time>
      </trkpt>
      <trkpt lat="44.88958" lon="-0.39922">
        <ele>46.2</ele>
        <time>2020-09-10T09:53:51Z</time>
      </trkpt>
      <trkpt lat="44.88958" lon="-0.39922">
        <ele>46.2</ele>
        <time>2020-09-10T09:53:52Z</time>
      </trkpt>
      <trkpt lat="44.88957" lon="-0.39921">
        <ele>46.2</ele>
        <time>2020-09-10T09:53:53Z</time>
      </trkpt>
      <trkpt lat="44.88956" lon="-0.39921">
        <ele>46.4</ele>
        <time>2020-09-10T09:53:54Z</time>
      </trkpt>
      <trkpt lat="44.88955" lon="-0.39921">
        <ele>46.4</ele>
        <time>2020-09-10T09:53:55Z</time>
      </trkpt>
      <trkpt lat="44.88954" lon="-0.3992">
        <ele>46.4</ele>
        <time>2020-09-10T09:53:56Z</time>
      </trkpt>
      <trkpt lat="44.88952" lon="-0.3992">
        <ele>46.7</ele>
        <time>2020-09-10T09:53:58Z</time>
      </trkpt>
      <trkpt lat="44.88951" lon="-0.39919">
        <ele>46.7</ele>
        <time>2020-09-10T09:53:59Z</time>
      </trkpt>
      <trkpt lat="44.88949" lon="-0.39918">
        <ele>47</ele>
        <time>2020-09-10T09:54:01Z</time>
      </trkpt>
      <trkpt lat="44.88946" lon="-0.39917">
        <ele>47.2</ele>
        <time>2020-09-10T09:54:03Z</time>
      </trkpt>
      <trkpt lat="44.88945" lon="-0.39917">
        <ele>47.2</ele>
        <time>2020-09-10T09:54:04Z</time>
      </trkpt>
      <trkpt lat="44.88944" lon="-0.39916">
        <ele>47.4</ele>
        <time>2020-09-10T09:54:05Z</time>
      </trkpt>
      <trkpt lat="44.88942" lon="-0.39915">
        <ele>47.6</ele>
        <time>2020-09-10T09:54:07Z</time>
      </trkpt>
      <trkpt lat="44.88941" lon="-0.39914">
        <ele>47.9</ele>
        <time>2020-09-10T09:54:08Z</time>
      </trkpt>
      <trkpt lat="44.8894" lon="-0.39913">
        <ele>47.9</ele>
        <time>2020-09-10T09:54:09Z</time>
      </trkpt>
      <trkpt lat="44.88939" lon="-0.39912">
        <ele>47.9</ele>
        <time>2020-09-10T09:54:10Z</time>
      </trkpt>
      <trkpt lat="44.88938" lon="-0.39911">
        <ele>48.3</ele>
        <time>2020-09-10T09:54:11Z</time>
      </trkpt>
      <trkpt lat="44.88937" lon="-0.3991">
        <ele>48.3</ele>
        <time>2020-09-10T09:54:13Z</time>
      </trkpt>
      <trkpt lat="44.88935" lon="-0.39908">
        <ele>48.5</ele>
        <time>2020-09-10T09:54:14Z</time>
      </trkpt>
      <trkpt lat="44.88934" lon="-0.39907">
        <ele>48.5</ele>
        <time>2020-09-10T09:54:16Z</time>
      </trkpt>
      <trkpt lat="44.88933" lon="-0.39907">
        <ele>48.7</ele>
        <time>2020-09-10T09:54:17Z</time>
      </trkpt>
      <trkpt lat="44.88932" lon="-0.39906">
        <ele>48.9</ele>
        <time>2020-09-10T09:54:18Z</time>
      </trkpt>
      <trkpt lat="44.88931" lon="-0.39906">
        <ele>48.9</ele>
        <time>2020-09-10T09:54:20Z</time>
      </trkpt>
      <trkpt lat="44.8893" lon="-0.39905">
        <ele>48.9</ele>
        <time>2020-09-10T09:54:21Z</time>
      </trkpt>
      <trkpt lat="44.88929" lon="-0.39905">
        <ele>48.9</ele>
        <time>2020-09-10T09:54:22Z</time>
      </trkpt>
      <trkpt lat="44.88928" lon="-0.39904">
        <ele>49.1</ele>
        <time>2020-09-10T09:54:24Z</time>
      </trkpt>
      <trkpt lat="44.88927" lon="-0.39904">
        <ele>49.1</ele>
        <time>2020-09-10T09:54:25Z</time>
      </trkpt>
      <trkpt lat="44.88926" lon="-0.39903">
        <ele>49.3</ele>
        <time>2020-09-10T09:54:26Z</time>
      </trkpt>
      <trkpt lat="44.88924" lon="-0.39902">
        <ele>49.6</ele>
        <time>2020-09-10T09:54:28Z</time>
      </trkpt>
      <trkpt lat="44.88923" lon="-0.39902">
        <ele>49.8</ele>
        <time>2020-09-10T09:54:30Z</time>
      </trkpt>
      <trkpt lat="44.88922" lon="-0.39901">
        <ele>49.8</ele>
        <time>2020-09-10T09:54:31Z</time>
      </trkpt>
      <trkpt lat="44.88921" lon="-0.39901">
        <ele>49.8</ele>
        <time>2020-09-10T09:54:33Z</time>
      </trkpt>
      <trkpt lat="44.88919" lon="-0.39901">
        <ele>50.1</ele>
        <time>2020-09-10T09:54:34Z</time>
      </trkpt>
      <trkpt lat="44.88918" lon="-0.399">
        <ele>50.1</ele>
        <time>2020-09-10T09:54:35Z</time>
      </trkpt>
      <trkpt lat="44.88917" lon="-0.39899">
        <ele>50.3</ele>
        <time>2020-09-10T09:54:36Z</time>
      </trkpt>
      <trkpt lat="44.88916" lon="-0.39899">
        <ele>50.3</ele>
        <time>2020-09-10T09:54:37Z</time>
      </trkpt>
      <trkpt lat="44.88915" lon="-0.39899">
        <ele>50.3</ele>
        <time>2020-09-10T09:54:39Z</time>
      </trkpt>
      <trkpt lat="44.88913" lon="-0.39898">
        <ele>50.8</ele>
        <time>2020-09-10T09:54:40Z</time>
      </trkpt>
      <trkpt lat="44.88912" lon="-0.39897">
        <ele>50.8</ele>
        <time>2020-09-10T09:54:41Z</time>
      </trkpt>
      <trkpt lat="44.88912" lon="-0.39897">
        <ele>50.8</ele>
        <time>2020-09-10T09:54:42Z</time>
      </trkpt>
      <trkpt lat="44.88911" lon="-0.39897">
        <ele>51</ele>
        <time>2020-09-10T09:54:43Z</time>
      </trkpt>
      <trkpt lat="44.8891" lon="-0.39896">
        <ele>51</ele>
        <time>2020-09-10T09:54:44Z</time>
      </trkpt>
      <trkpt lat="44.8891" lon="-0.39895">
        <ele>51</ele>
        <time>2020-09-10T09:54:45Z</time>
      </trkpt>
      <trkpt lat="44.88908" lon="-0.39894">
        <ele>51.5</ele>
        <time>2020-09-10T09:54:47Z</time>
      </trkpt>
      <trkpt lat="44.88907" lon="-0.39893">
        <ele>51.5</ele>
        <time>2020-09-10T09:54:48Z</time>
      </trkpt>
      <trkpt lat="44.88905" lon="-0.39892">
        <ele>51.7</ele>
        <time>2020-09-10T09:54:50Z</time>
      </trkpt>
      <trkpt lat="44.88904" lon="-0.39891">
        <ele>51.7</ele>
        <time>2020-09-10T09:54:51Z</time>
      </trkpt>
      <trkpt lat="44.88903" lon="-0.39891">
        <ele>51.7</ele>
        <time>2020-09-10T09:54:52Z</time>
      </trkpt>
      <trkpt lat="44.88902" lon="-0.3989">
        <ele>51.7</ele>
        <time>2020-09-10T09:54:53Z</time>
      </trkpt>
      <trkpt lat="44.88901" lon="-0.3989">
        <ele>52.2</ele>
        <time>2020-09-10T09:54:54Z</time>
      </trkpt>
      <trkpt lat="44.889" lon="-0.39889">
        <ele>52.2</ele>
        <time>2020-09-10T09:54:55Z</time>
      </trkpt>
      <trkpt lat="44.88898" lon="-0.39888">
        <ele>52.4</ele>
        <time>2020-09-10T09:54:57Z</time>
      </trkpt>
      <trkpt lat="44.88897" lon="-0.39888">
        <ele>52.4</ele>
        <time>2020-09-10T09:54:58Z</time>
      </trkpt>
      <trkpt lat="44.88896" lon="-0.39888">
        <ele>52.4</ele>
        <time>2020-09-10T09:54:59Z</time>
      </trkpt>
      <trkpt lat="44.88895" lon="-0.39888">
        <ele>52.6</ele>
        <time>2020-09-10T09:55:00Z</time>
      </trkpt>
      <trkpt lat="44.88894" lon="-0.39888">
        <ele>52.6</ele>
        <time>2020-09-10T09:55:01Z</time>
      </trkpt>
      <trkpt lat="44.88892" lon="-0.39887">
        <ele>52.8</ele>
        <time>2020-09-10T09:55:03Z</time>
      </trkpt>
      <trkpt lat="44.88891" lon="-0.39887">
        <ele>52.8</ele>
        <time>2020-09-10T09:55:04Z</time>
      </trkpt>
      <trkpt lat="44.8889" lon="-0.39887">
        <ele>53</ele>
        <time>2020-09-10T09:55:05Z</time>
      </trkpt>
      <trkpt lat="44.88889" lon="-0.39887">
        <ele>53</ele>
        <time>2020-09-10T09:55:06Z</time>
      </trkpt>
      <trkpt lat="44.88886" lon="-0.39887">
        <ele>53.1</ele>
        <time>2020-09-10T09:55:07Z</time>
      </trkpt>
      <trkpt lat="44.88885" lon="-0.39887">
        <ele>53.1</ele>
        <time>2020-09-10T09:55:09Z</time>
      </trkpt>
      <trkpt lat="44.88884" lon="-0.39886">
        <ele>53.1</ele>
        <time>2020-09-10T09:55:10Z</time>
      </trkpt>
      <trkpt lat="44.88883" lon="-0.39886">
        <ele>53.3</ele>
        <time>2020-09-10T09:55:11Z</time>
      </trkpt>
      <trkpt lat="44.88882" lon="-0.39887">
        <ele>53.3</ele>
        <time>2020-09-10T09:55:13Z</time>
      </trkpt>
      <trkpt lat="44.88881" lon="-0.39887">
        <ele>53.5</ele>
        <time>2020-09-10T09:55:14Z</time>
      </trkpt>
      <trkpt lat="44.88879" lon="-0.39887">
        <ele>53.5</ele>
        <time>2020-09-10T09:55:15Z</time>
      </trkpt>
      <trkpt lat="44.88878" lon="-0.39887">
        <ele>53.5</ele>
        <time>2020-09-10T09:55:16Z</time>
      </trkpt>
      <trkpt lat="44.88876" lon="-0.39887">
        <ele>53.7</ele>
        <time>2020-09-10T09:55:17Z</time>
      </trkpt>
      <trkpt lat="44.88875" lon="-0.39887">
        <ele>53.7</ele>
        <time>2020-09-10T09:55:19Z</time>
      </trkpt>
      <trkpt lat="44.88874" lon="-0.39887">
        <ele>53.8</ele>
        <time>2020-09-10T09:55:20Z</time>
      </trkpt>
      <trkpt lat="44.88873" lon="-0.39887">
        <ele>53.8</ele>
        <time>2020-09-10T09:55:21Z</time>
      </trkpt>
      <trkpt lat="44.88872" lon="-0.39887">
        <ele>53.8</ele>
        <time>2020-09-10T09:55:22Z</time>
      </trkpt>
      <trkpt lat="44.88871" lon="-0.39887">
        <ele>54</ele>
        <time>2020-09-10T09:55:23Z</time>
      </trkpt>
      <trkpt lat="44.88869" lon="-0.39887">
        <ele>54</ele>
        <time>2020-09-10T09:55:25Z</time>
      </trkpt>
      <trkpt lat="44.88868" lon="-0.39887">
        <ele>54.1</ele>
        <time>2020-09-10T09:55:26Z</time>
      </trkpt>
      <trkpt lat="44.88866" lon="-0.39887">
        <ele>54.1</ele>
        <time>2020-09-10T09:55:27Z</time>
      </trkpt>
      <trkpt lat="44.88865" lon="-0.39887">
        <ele>54.3</ele>
        <time>2020-09-10T09:55:28Z</time>
      </trkpt>
      <trkpt lat="44.88865" lon="-0.39887">
        <ele>54.3</ele>
        <time>2020-09-10T09:55:29Z</time>
      </trkpt>
      <trkpt lat="44.88863" lon="-0.39887">
        <ele>54.3</ele>
        <time>2020-09-10T09:55:31Z</time>
      </trkpt>
      <trkpt lat="44.88863" lon="-0.39888">
        <ele>54.3</ele>
        <time>2020-09-10T09:55:32Z</time>
      </trkpt>
      <trkpt lat="44.88862" lon="-0.3989">
        <ele>54.5</ele>
        <time>2020-09-10T09:55:33Z</time>
      </trkpt>
      <trkpt lat="44.88861" lon="-0.39891">
        <ele>54.2</ele>
        <time>2020-09-10T09:55:34Z</time>
      </trkpt>
      <trkpt lat="44.8886" lon="-0.39893">
        <ele>54.2</ele>
        <time>2020-09-10T09:55:36Z</time>
      </trkpt>
      <trkpt lat="44.8886" lon="-0.39894">
        <ele>53.9</ele>
        <time>2020-09-10T09:55:37Z</time>
      </trkpt>
      <trkpt lat="44.8886" lon="-0.39896">
        <ele>53.9</ele>
        <time>2020-09-10T09:55:38Z</time>
      </trkpt>
      <trkpt lat="44.88859" lon="-0.39898">
        <ele>54.1</ele>
        <time>2020-09-10T09:55:40Z</time>
      </trkpt>
      <trkpt lat="44.88858" lon="-0.399">
        <ele>53.9</ele>
        <time>2020-09-10T09:55:41Z</time>
      </trkpt>
      <trkpt lat="44.88858" lon="-0.39903">
        <ele>53.9</ele>
        <time>2020-09-10T09:55:42Z</time>
      </trkpt>
      <trkpt lat="44.88857" lon="-0.39905">
        <ele>53.7</ele>
        <time>2020-09-10T09:55:43Z</time>
      </trkpt>
      <trkpt lat="44.88857" lon="-0.39907">
        <ele>53.7</ele>
        <time>2020-09-10T09:55:44Z</time>
      </trkpt>
      <trkpt lat="44.88857" lon="-0.3991">
        <ele>53.4</ele>
        <time>2020-09-10T09:55:45Z</time>
      </trkpt>
      <trkpt lat="44.88857" lon="-0.39912">
        <ele>53.2</ele>
        <time>2020-09-10T09:55:47Z</time>
      </trkpt>
      <trkpt lat="44.88858" lon="-0.39913">
        <ele>53.2</ele>
        <time>2020-09-10T09:55:48Z</time>
      </trkpt>
      <trkpt lat="44.88857" lon="-0.39915">
        <ele>53.2</ele>
        <time>2020-09-10T09:55:49Z</time>
      </trkpt>
      <trkpt lat="44.88857" lon="-0.39916">
        <ele>53</ele>
        <time>2020-09-10T09:55:50Z</time>
      </trkpt>
      <trkpt lat="44.88857" lon="-0.39918">
        <ele>53</ele>
        <time>2020-09-10T09:55:52Z</time>
      </trkpt>
      <trkpt lat="44.88858" lon="-0.3992">
        <ele>52.8</ele>
        <time>2020-09-10T09:55:54Z</time>
      </trkpt>
      <trkpt lat="44.88858" lon="-0.39921">
        <ele>52.8</ele>
        <time>2020-09-10T09:55:55Z</time>
      </trkpt>
      <trkpt lat="44.88858" lon="-0.39921">
        <ele>52.8</ele>
        <time>2020-09-10T09:55:57Z</time>
      </trkpt>
      <trkpt lat="44.88858" lon="-0.39921">
        <ele>52.8</ele>
        <time>2020-09-10T09:55:58Z</time>
      </trkpt>
      <trkpt lat="44.88858" lon="-0.39922">
        <ele>52.8</ele>
        <time>2020-09-10T09:55:59Z</time>
      </trkpt>
      <trkpt lat="44.88858" lon="-0.39922">
        <ele>52.8</ele>
        <time>2020-09-10T09:56:01Z</time>
      </trkpt>
      <trkpt lat="44.88858" lon="-0.39922">
        <ele>52.8</ele>
        <time>2020-09-10T09:56:02Z</time>
      </trkpt>
      <trkpt lat="44.88858" lon="-0.39923">
        <ele>52.8</ele>
        <time>2020-09-10T09:56:04Z</time>
      </trkpt>
      <trkpt lat="44.88859" lon="-0.39923">
        <ele>52.8</ele>
        <time>2020-09-10T09:56:05Z</time>
      </trkpt>
      <trkpt lat="44.88859" lon="-0.39923">
        <ele>52.8</ele>
        <time>2020-09-10T09:56:06Z</time>
      </trkpt>
      <trkpt lat="44.88859" lon="-0.39927">
        <ele>52.6</ele>
        <time>2020-09-10T09:56:08Z</time>
      </trkpt>
      <trkpt lat="44.88859" lon="-0.39931">
        <ele>52.4</ele>
        <time>2020-09-10T09:56:10Z</time>
      </trkpt>
      <trkpt lat="44.88859" lon="-0.39931">
        <ele>52.4</ele>
        <time>2020-09-10T09:56:11Z</time>
      </trkpt>
      <trkpt lat="44.88859" lon="-0.39933">
        <ele>52.3</ele>
        <time>2020-09-10T09:56:12Z</time>
      </trkpt>
      <trkpt lat="44.88859" lon="-0.39935">
        <ele>52.3</ele>
        <time>2020-09-10T09:56:13Z</time>
      </trkpt>
      <trkpt lat="44.88859" lon="-0.39937">
        <ele>52.1</ele>
        <time>2020-09-10T09:56:15Z</time>
      </trkpt>
      <trkpt lat="44.8886" lon="-0.39939">
        <ele>51.8</ele>
        <time>2020-09-10T09:56:16Z</time>
      </trkpt>
      <trkpt lat="44.8886" lon="-0.39941">
        <ele>51.8</ele>
        <time>2020-09-10T09:56:18Z</time>
      </trkpt>
      <trkpt lat="44.8886" lon="-0.39944">
        <ele>51.6</ele>
        <time>2020-09-10T09:56:19Z</time>
      </trkpt>
      <trkpt lat="44.88859" lon="-0.39944">
        <ele>51.6</ele>
        <time>2020-09-10T09:56:20Z</time>
      </trkpt>
      <trkpt lat="44.8886" lon="-0.39946">
        <ele>51.4</ele>
        <time>2020-09-10T09:56:21Z</time>
      </trkpt>
      <trkpt lat="44.88859" lon="-0.39947">
        <ele>51.4</ele>
        <time>2020-09-10T09:56:22Z</time>
      </trkpt>
      <trkpt lat="44.88859" lon="-0.39948">
        <ele>51.7</ele>
        <time>2020-09-10T09:56:23Z</time>
      </trkpt>
      <trkpt lat="44.88859" lon="-0.39951">
        <ele>51.5</ele>
        <time>2020-09-10T09:56:24Z</time>
      </trkpt>
      <trkpt lat="44.88859" lon="-0.39951">
        <ele>51.5</ele>
        <time>2020-09-10T09:56:25Z</time>
      </trkpt>
      <trkpt lat="44.88858" lon="-0.39952">
        <ele>51.5</ele>
        <time>2020-09-10T09:56:26Z</time>
      </trkpt>
      <trkpt lat="44.88858" lon="-0.39953">
        <ele>51.5</ele>
        <time>2020-09-10T09:56:28Z</time>
      </trkpt>
      <trkpt lat="44.88858" lon="-0.39954">
        <ele>51.3</ele>
        <time>2020-09-10T09:56:29Z</time>
      </trkpt>
      <trkpt lat="44.88858" lon="-0.39957">
        <ele>51.3</ele>
        <time>2020-09-10T09:56:30Z</time>
      </trkpt>
      <trkpt lat="44.88858" lon="-0.39957">
        <ele>51.3</ele>
        <time>2020-09-10T09:56:31Z</time>
      </trkpt>
      <trkpt lat="44.88859" lon="-0.39958">
        <ele>51.3</ele>
        <time>2020-09-10T09:56:32Z</time>
      </trkpt>
      <trkpt lat="44.88859" lon="-0.39959">
        <ele>51.2</ele>
        <time>2020-09-10T09:56:33Z</time>
      </trkpt>
      <trkpt lat="44.88859" lon="-0.39959">
        <ele>51.2</ele>
        <time>2020-09-10T09:56:34Z</time>
      </trkpt>
      <trkpt lat="44.88859" lon="-0.39958">
        <ele>51.3</ele>
        <time>2020-09-10T09:56:35Z</time>
      </trkpt>
      <trkpt lat="44.88858" lon="-0.39956">
        <ele>51.3</ele>
        <time>2020-09-10T09:56:37Z</time>
      </trkpt>
      <trkpt lat="44.88858" lon="-0.39955">
        <ele>51.3</ele>
        <time>2020-09-10T09:56:39Z</time>
      </trkpt>
      <trkpt lat="44.88858" lon="-0.39955">
        <ele>51.3</ele>
        <time>2020-09-10T09:56:41Z</time>
      </trkpt>
      <trkpt lat="44.88859" lon="-0.39956">
        <ele>51.3</ele>
        <time>2020-09-10T09:56:42Z</time>
      </trkpt>
      <trkpt lat="44.88859" lon="-0.39957">
        <ele>51.3</ele>
        <time>2020-09-10T09:56:43Z</time>
      </trkpt>
      <trkpt lat="44.88859" lon="-0.3996">
        <ele>51.1</ele>
        <time>2020-09-10T09:56:45Z</time>
      </trkpt>
      <trkpt lat="44.88858" lon="-0.39962">
        <ele>51.1</ele>
        <time>2020-09-10T09:56:46Z</time>
      </trkpt>
      <trkpt lat="44.88858" lon="-0.39963">
        <ele>51</ele>
        <time>2020-09-10T09:56:47Z</time>
      </trkpt>
      <trkpt lat="44.88857" lon="-0.39965">
        <ele>51</ele>
        <time>2020-09-10T09:56:48Z</time>
      </trkpt>
      <trkpt lat="44.88856" lon="-0.39967">
        <ele>51.1</ele>
        <time>2020-09-10T09:56:50Z</time>
      </trkpt>
      <trkpt lat="44.88855" lon="-0.39968">
        <ele>51.1</ele>
        <time>2020-09-10T09:56:51Z</time>
      </trkpt>
      <trkpt lat="44.88853" lon="-0.3997">
        <ele>51.4</ele>
        <time>2020-09-10T09:56:53Z</time>
      </trkpt>
      <trkpt lat="44.88852" lon="-0.39971">
        <ele>51.4</ele>
        <time>2020-09-10T09:56:54Z</time>
      </trkpt>
      <trkpt lat="44.88852" lon="-0.39972">
        <ele>51.3</ele>
        <time>2020-09-10T09:56:55Z</time>
      </trkpt>
      <trkpt lat="44.88851" lon="-0.39973">
        <ele>51.3</ele>
        <time>2020-09-10T09:56:56Z</time>
      </trkpt>
      <trkpt lat="44.88851" lon="-0.39973">
        <ele>51.3</ele>
        <time>2020-09-10T09:56:58Z</time>
      </trkpt>
      <trkpt lat="44.88849" lon="-0.39974">
        <ele>51.5</ele>
        <time>2020-09-10T09:56:59Z</time>
      </trkpt>
      <trkpt lat="44.88847" lon="-0.39977">
        <ele>51.4</ele>
        <time>2020-09-10T09:57:01Z</time>
      </trkpt>
      <trkpt lat="44.88847" lon="-0.39978">
        <ele>51.6</ele>
        <time>2020-09-10T09:57:02Z</time>
      </trkpt>
      <trkpt lat="44.88846" lon="-0.39979">
        <ele>51.6</ele>
        <time>2020-09-10T09:57:03Z</time>
      </trkpt>
      <trkpt lat="44.88844" lon="-0.3998">
        <ele>51.5</ele>
        <time>2020-09-10T09:57:05Z</time>
      </trkpt>
      <trkpt lat="44.88844" lon="-0.3998">
        <ele>51.7</ele>
        <time>2020-09-10T09:57:06Z</time>
      </trkpt>
      <trkpt lat="44.88844" lon="-0.39979">
        <ele>51.9</ele>
        <time>2020-09-10T09:57:08Z</time>
      </trkpt>
      <trkpt lat="44.88844" lon="-0.39979">
        <ele>51.9</ele>
        <time>2020-09-10T09:57:09Z</time>
      </trkpt>
      <trkpt lat="44.88843" lon="-0.39981">
        <ele>51.7</ele>
        <time>2020-09-10T09:57:10Z</time>
      </trkpt>
      <trkpt lat="44.88843" lon="-0.39982">
        <ele>51.7</ele>
        <time>2020-09-10T09:57:11Z</time>
      </trkpt>
      <trkpt lat="44.88843" lon="-0.39983">
        <ele>51.7</ele>
        <time>2020-09-10T09:57:12Z</time>
      </trkpt>
      <trkpt lat="44.88843" lon="-0.39984">
        <ele>51.7</ele>
        <time>2020-09-10T09:57:14Z</time>
      </trkpt>
      <trkpt lat="44.88842" lon="-0.39985">
        <ele>51.6</ele>
        <time>2020-09-10T09:57:15Z</time>
      </trkpt>
      <trkpt lat="44.88842" lon="-0.39988">
        <ele>51.6</ele>
        <time>2020-09-10T09:57:16Z</time>
      </trkpt>
      <trkpt lat="44.88841" lon="-0.3999">
        <ele>51.5</ele>
        <time>2020-09-10T09:57:17Z</time>
      </trkpt>
      <trkpt lat="44.88841" lon="-0.39991">
        <ele>51.8</ele>
        <time>2020-09-10T09:57:18Z</time>
      </trkpt>
      <trkpt lat="44.88841" lon="-0.39992">
        <ele>51.8</ele>
        <time>2020-09-10T09:57:19Z</time>
      </trkpt>
      <trkpt lat="44.88841" lon="-0.39993">
        <ele>51.7</ele>
        <time>2020-09-10T09:57:20Z</time>
      </trkpt>
      <trkpt lat="44.8884" lon="-0.39995">
        <ele>51.7</ele>
        <time>2020-09-10T09:57:22Z</time>
      </trkpt>
      <trkpt lat="44.8884" lon="-0.39996">
        <ele>51.7</ele>
        <time>2020-09-10T09:57:23Z</time>
      </trkpt>
      <trkpt lat="44.88839" lon="-0.39998">
        <ele>51.6</ele>
        <time>2020-09-10T09:57:24Z</time>
      </trkpt>
      <trkpt lat="44.88838" lon="-0.4">
        <ele>51.6</ele>
        <time>2020-09-10T09:57:26Z</time>
      </trkpt>
      <trkpt lat="44.88837" lon="-0.40001">
        <ele>51.9</ele>
        <time>2020-09-10T09:57:27Z</time>
      </trkpt>
      <trkpt lat="44.88836" lon="-0.40002">
        <ele>51.8</ele>
        <time>2020-09-10T09:57:28Z</time>
      </trkpt>
      <trkpt lat="44.88834" lon="-0.40003">
        <ele>52.1</ele>
        <time>2020-09-10T09:57:29Z</time>
      </trkpt>
      <trkpt lat="44.88832" lon="-0.40004">
        <ele>52.4</ele>
        <time>2020-09-10T09:57:31Z</time>
      </trkpt>
      <trkpt lat="44.88831" lon="-0.40005">
        <ele>52.4</ele>
        <time>2020-09-10T09:57:32Z</time>
      </trkpt>
      <trkpt lat="44.8883" lon="-0.40005">
        <ele>52.4</ele>
        <time>2020-09-10T09:57:33Z</time>
      </trkpt>
      <trkpt lat="44.88829" lon="-0.40005">
        <ele>52.4</ele>
        <time>2020-09-10T09:57:34Z</time>
      </trkpt>
      <trkpt lat="44.88827" lon="-0.40006">
        <ele>52.6</ele>
        <time>2020-09-10T09:57:36Z</time>
      </trkpt>
      <trkpt lat="44.88824" lon="-0.40007">
        <ele>52.8</ele>
        <time>2020-09-10T09:57:37Z</time>
      </trkpt>
      <trkpt lat="44.88823" lon="-0.40007">
        <ele>53</ele>
        <time>2020-09-10T09:57:39Z</time>
      </trkpt>
      <trkpt lat="44.88822" lon="-0.40008">
        <ele>53</ele>
        <time>2020-09-10T09:57:41Z</time>
      </trkpt>
      <trkpt lat="44.8882" lon="-0.40008">
        <ele>53</ele>
        <time>2020-09-10T09:57:42Z</time>
      </trkpt>
      <trkpt lat="44.88819" lon="-0.40009">
        <ele>53.3</ele>
        <time>2020-09-10T09:57:43Z</time>
      </trkpt>
      <trkpt lat="44.88818" lon="-0.40009">
        <ele>53.3</ele>
        <time>2020-09-10T09:57:44Z</time>
      </trkpt>
      <trkpt lat="44.88816" lon="-0.4001">
        <ele>53.5</ele>
        <time>2020-09-10T09:57:46Z</time>
      </trkpt>
      <trkpt lat="44.88815" lon="-0.4001">
        <ele>53.4</ele>
        <time>2020-09-10T09:57:47Z</time>
      </trkpt>
      <trkpt lat="44.88814" lon="-0.40011">
        <ele>53.4</ele>
        <time>2020-09-10T09:57:48Z</time>
      </trkpt>
      <trkpt lat="44.88813" lon="-0.40011">
        <ele>53.7</ele>
        <time>2020-09-10T09:57:49Z</time>
      </trkpt>
      <trkpt lat="44.88812" lon="-0.40012">
        <ele>53.7</ele>
        <time>2020-09-10T09:57:50Z</time>
      </trkpt>
      <trkpt lat="44.88811" lon="-0.40013">
        <ele>53.9</ele>
        <time>2020-09-10T09:57:51Z</time>
      </trkpt>
      <trkpt lat="44.8881" lon="-0.40013">
        <ele>53.9</ele>
        <time>2020-09-10T09:57:52Z</time>
      </trkpt>
      <trkpt lat="44.88808" lon="-0.40014">
        <ele>53.9</ele>
        <time>2020-09-10T09:57:54Z</time>
      </trkpt>
      <trkpt lat="44.88807" lon="-0.40014">
        <ele>54.1</ele>
        <time>2020-09-10T09:57:55Z</time>
      </trkpt>
      <trkpt lat="44.88806" lon="-0.40014">
        <ele>54.1</ele>
        <time>2020-09-10T09:57:56Z</time>
      </trkpt>
      <trkpt lat="44.88805" lon="-0.40014">
        <ele>54.1</ele>
        <time>2020-09-10T09:57:57Z</time>
      </trkpt>
      <trkpt lat="44.88804" lon="-0.40014">
        <ele>54.3</ele>
        <time>2020-09-10T09:57:58Z</time>
      </trkpt>
      <trkpt lat="44.88802" lon="-0.40016">
        <ele>54.3</ele>
        <time>2020-09-10T09:58:00Z</time>
      </trkpt>
      <trkpt lat="44.88801" lon="-0.40016">
        <ele>54.6</ele>
        <time>2020-09-10T09:58:02Z</time>
      </trkpt>
      <trkpt lat="44.88799" lon="-0.40017">
        <ele>54.6</ele>
        <time>2020-09-10T09:58:03Z</time>
      </trkpt>
      <trkpt lat="44.88798" lon="-0.40018">
        <ele>54.8</ele>
        <time>2020-09-10T09:58:04Z</time>
      </trkpt>
      <trkpt lat="44.88797" lon="-0.40018">
        <ele>54.8</ele>
        <time>2020-09-10T09:58:06Z</time>
      </trkpt>
      <trkpt lat="44.88795" lon="-0.40019">
        <ele>55</ele>
        <time>2020-09-10T09:58:07Z</time>
      </trkpt>
      <trkpt lat="44.88794" lon="-0.40019">
        <ele>55</ele>
        <time>2020-09-10T09:58:08Z</time>
      </trkpt>
      <trkpt lat="44.88792" lon="-0.40019">
        <ele>55.1</ele>
        <time>2020-09-10T09:58:10Z</time>
      </trkpt>
      <trkpt lat="44.8879" lon="-0.40019">
        <ele>55.1</ele>
        <time>2020-09-10T09:58:11Z</time>
      </trkpt>
      <trkpt lat="44.88789" lon="-0.4002">
        <ele>55.2</ele>
        <time>2020-09-10T09:58:12Z</time>
      </trkpt>
      <trkpt lat="44.88788" lon="-0.4002">
        <ele>55.2</ele>
        <time>2020-09-10T09:58:13Z</time>
      </trkpt>
      <trkpt lat="44.88786" lon="-0.40021">
        <ele>55.3</ele>
        <time>2020-09-10T09:58:14Z</time>
      </trkpt>
      <trkpt lat="44.88785" lon="-0.40021">
        <ele>55.3</ele>
        <time>2020-09-10T09:58:15Z</time>
      </trkpt>
      <trkpt lat="44.88784" lon="-0.40022">
        <ele>55.4</ele>
        <time>2020-09-10T09:58:17Z</time>
      </trkpt>
      <trkpt lat="44.88783" lon="-0.40022">
        <ele>55.4</ele>
        <time>2020-09-10T09:58:18Z</time>
      </trkpt>
      <trkpt lat="44.88781" lon="-0.40023">
        <ele>55.5</ele>
        <time>2020-09-10T09:58:19Z</time>
      </trkpt>
      <trkpt lat="44.8878" lon="-0.40022">
        <ele>55.5</ele>
        <time>2020-09-10T09:58:21Z</time>
      </trkpt>
      <trkpt lat="44.88779" lon="-0.40022">
        <ele>55.5</ele>
        <time>2020-09-10T09:58:22Z</time>
      </trkpt>
      <trkpt lat="44.88778" lon="-0.40021">
        <ele>55.6</ele>
        <time>2020-09-10T09:58:23Z</time>
      </trkpt>
      <trkpt lat="44.88775" lon="-0.40021">
        <ele>55.7</ele>
        <time>2020-09-10T09:58:24Z</time>
      </trkpt>
      <trkpt lat="44.88775" lon="-0.40021">
        <ele>55.7</ele>
        <time>2020-09-10T09:58:25Z</time>
      </trkpt>
      <trkpt lat="44.88774" lon="-0.40021">
        <ele>55.7</ele>
        <time>2020-09-10T09:58:27Z</time>
      </trkpt>
      <trkpt lat="44.88772" lon="-0.40021">
        <ele>55.8</ele>
        <time>2020-09-10T09:58:28Z</time>
      </trkpt>
      <trkpt lat="44.8877" lon="-0.40021">
        <ele>55.9</ele>
        <time>2020-09-10T09:58:29Z</time>
      </trkpt>
      <trkpt lat="44.88768" lon="-0.4002">
        <ele>55.9</ele>
        <time>2020-09-10T09:58:31Z</time>
      </trkpt>
      <trkpt lat="44.88768" lon="-0.4002">
        <ele>56</ele>
        <time>2020-09-10T09:58:32Z</time>
      </trkpt>
      <trkpt lat="44.88766" lon="-0.4002">
        <ele>56</ele>
        <time>2020-09-10T09:58:33Z</time>
      </trkpt>
      <trkpt lat="44.88765" lon="-0.4002">
        <ele>56.1</ele>
        <time>2020-09-10T09:58:35Z</time>
      </trkpt>
      <trkpt lat="44.88765" lon="-0.40018">
        <ele>56.2</ele>
        <time>2020-09-10T09:58:37Z</time>
      </trkpt>
      <trkpt lat="44.88764" lon="-0.40017">
        <ele>56.2</ele>
        <time>2020-09-10T09:58:39Z</time>
      </trkpt>
      <trkpt lat="44.88766" lon="-0.40017">
        <ele>56.2</ele>
        <time>2020-09-10T09:58:41Z</time>
      </trkpt>
      <trkpt lat="44.88766" lon="-0.40016">
        <ele>56.3</ele>
        <time>2020-09-10T09:58:42Z</time>
      </trkpt>
      <trkpt lat="44.88768" lon="-0.40015">
        <ele>56.4</ele>
        <time>2020-09-10T09:58:43Z</time>
      </trkpt>
      <trkpt lat="44.88769" lon="-0.40015">
        <ele>56.4</ele>
        <time>2020-09-10T09:58:44Z</time>
      </trkpt>
      <trkpt lat="44.8877" lon="-0.40015">
        <ele>56.4</ele>
        <time>2020-09-10T09:58:45Z</time>
      </trkpt>
      <trkpt lat="44.88771" lon="-0.40014">
        <ele>56.5</ele>
        <time>2020-09-10T09:58:47Z</time>
      </trkpt>
      <trkpt lat="44.88773" lon="-0.40013">
        <ele>56.6</ele>
        <time>2020-09-10T09:58:49Z</time>
      </trkpt>
      <trkpt lat="44.88775" lon="-0.40013">
        <ele>56.7</ele>
        <time>2020-09-10T09:58:50Z</time>
      </trkpt>
      <trkpt lat="44.88776" lon="-0.40013">
        <ele>56.8</ele>
        <time>2020-09-10T09:58:51Z</time>
      </trkpt>
      <trkpt lat="44.88777" lon="-0.40013">
        <ele>56.8</ele>
        <time>2020-09-10T09:58:52Z</time>
      </trkpt>
      <trkpt lat="44.88779" lon="-0.40013">
        <ele>57</ele>
        <time>2020-09-10T09:58:53Z</time>
      </trkpt>
      <trkpt lat="44.8878" lon="-0.40012">
        <ele>57</ele>
        <time>2020-09-10T09:58:54Z</time>
      </trkpt>
      <trkpt lat="44.88782" lon="-0.40012">
        <ele>57.1</ele>
        <time>2020-09-10T09:58:55Z</time>
      </trkpt>
      <trkpt lat="44.88783" lon="-0.40011">
        <ele>57.2</ele>
        <time>2020-09-10T09:58:56Z</time>
      </trkpt>
      <trkpt lat="44.88786" lon="-0.4001">
        <ele>57.4</ele>
        <time>2020-09-10T09:58:57Z</time>
      </trkpt>
      <trkpt lat="44.88787" lon="-0.4001">
        <ele>57.4</ele>
        <time>2020-09-10T09:58:58Z</time>
      </trkpt>
      <trkpt lat="44.88791" lon="-0.40007">
        <ele>57.7</ele>
        <time>2020-09-10T09:59:00Z</time>
      </trkpt>
      <trkpt lat="44.88792" lon="-0.40004">
        <ele>57.8</ele>
        <time>2020-09-10T09:59:01Z</time>
      </trkpt>
      <trkpt lat="44.88794" lon="-0.40002">
        <ele>57.9</ele>
        <time>2020-09-10T09:59:03Z</time>
      </trkpt>
      <trkpt lat="44.88793" lon="-0.40001">
        <ele>58</ele>
        <time>2020-09-10T09:59:04Z</time>
      </trkpt>
      <trkpt lat="44.8879" lon="-0.4">
        <ele>58.2</ele>
        <time>2020-09-10T09:59:06Z</time>
      </trkpt>
      <trkpt lat="44.88786" lon="-0.4">
        <ele>58.4</ele>
        <time>2020-09-10T09:59:08Z</time>
      </trkpt>
      <trkpt lat="44.88785" lon="-0.4">
        <ele>58.5</ele>
        <time>2020-09-10T09:59:09Z</time>
      </trkpt>
      <trkpt lat="44.88784" lon="-0.4">
        <ele>58.5</ele>
        <time>2020-09-10T09:59:10Z</time>
      </trkpt>
      <trkpt lat="44.88781" lon="-0.4">
        <ele>58.7</ele>
        <time>2020-09-10T09:59:11Z</time>
      </trkpt>
      <trkpt lat="44.88779" lon="-0.39999">
        <ele>58.8</ele>
        <time>2020-09-10T09:59:12Z</time>
      </trkpt>
      <trkpt lat="44.88778" lon="-0.39999">
        <ele>58.8</ele>
        <time>2020-09-10T09:59:13Z</time>
      </trkpt>
      <trkpt lat="44.88777" lon="-0.39999">
        <ele>58.9</ele>
        <time>2020-09-10T09:59:14Z</time>
      </trkpt>
      <trkpt lat="44.88775" lon="-0.39999">
        <ele>59</ele>
        <time>2020-09-10T09:59:15Z</time>
      </trkpt>
      <trkpt lat="44.88772" lon="-0.39998">
        <ele>59.1</ele>
        <time>2020-09-10T09:59:16Z</time>
      </trkpt>
      <trkpt lat="44.88771" lon="-0.39998">
        <ele>59.1</ele>
        <time>2020-09-10T09:59:17Z</time>
      </trkpt>
      <trkpt lat="44.88769" lon="-0.39998">
        <ele>59.3</ele>
        <time>2020-09-10T09:59:19Z</time>
      </trkpt>
      <trkpt lat="44.88768" lon="-0.39998">
        <ele>59.3</ele>
        <time>2020-09-10T09:59:20Z</time>
      </trkpt>
      <trkpt lat="44.88766" lon="-0.39997">
        <ele>59.4</ele>
        <time>2020-09-10T09:59:21Z</time>
      </trkpt>
      <trkpt lat="44.88764" lon="-0.39997">
        <ele>59.5</ele>
        <time>2020-09-10T09:59:22Z</time>
      </trkpt>
      <trkpt lat="44.88763" lon="-0.39996">
        <ele>59.5</ele>
        <time>2020-09-10T09:59:23Z</time>
      </trkpt>
      <trkpt lat="44.88763" lon="-0.39996">
        <ele>59.6</ele>
        <time>2020-09-10T09:59:24Z</time>
      </trkpt>
      <trkpt lat="44.8876" lon="-0.39995">
        <ele>59.7</ele>
        <time>2020-09-10T09:59:26Z</time>
      </trkpt>
      <trkpt lat="44.88759" lon="-0.39995">
        <ele>59.7</ele>
        <time>2020-09-10T09:59:27Z</time>
      </trkpt>
      <trkpt lat="44.88758" lon="-0.39995">
        <ele>59.8</ele>
        <time>2020-09-10T09:59:29Z</time>
      </trkpt>
      <trkpt lat="44.88757" lon="-0.39995">
        <ele>59.8</ele>
        <time>2020-09-10T09:59:30Z</time>
      </trkpt>
      <trkpt lat="44.88755" lon="-0.39995">
        <ele>59.9</ele>
        <time>2020-09-10T09:59:32Z</time>
      </trkpt>
      <trkpt lat="44.88755" lon="-0.39995">
        <ele>59.9</ele>
        <time>2020-09-10T09:59:33Z</time>
      </trkpt>
      <trkpt lat="44.88754" lon="-0.39995">
        <ele>60</ele>
        <time>2020-09-10T09:59:35Z</time>
      </trkpt>
      <trkpt lat="44.88754" lon="-0.39996">
        <ele>60</ele>
        <time>2020-09-10T09:59:36Z</time>
      </trkpt>
      <trkpt lat="44.88752" lon="-0.39995">
        <ele>60.1</ele>
        <time>2020-09-10T09:59:37Z</time>
      </trkpt>
      <trkpt lat="44.8875" lon="-0.39995">
        <ele>60.1</ele>
        <time>2020-09-10T09:59:38Z</time>
      </trkpt>
      <trkpt lat="44.88749" lon="-0.39996">
        <ele>60.2</ele>
        <time>2020-09-10T09:59:39Z</time>
      </trkpt>
      <trkpt lat="44.88749" lon="-0.39996">
        <ele>60.2</ele>
        <time>2020-09-10T09:59:40Z</time>
      </trkpt>
      <trkpt lat="44.88747" lon="-0.39996">
        <ele>60.3</ele>
        <time>2020-09-10T09:59:42Z</time>
      </trkpt>
      <trkpt lat="44.88745" lon="-0.39996">
        <ele>60.4</ele>
        <time>2020-09-10T09:59:43Z</time>
      </trkpt>
      <trkpt lat="44.88744" lon="-0.39996">
        <ele>60.4</ele>
        <time>2020-09-10T09:59:44Z</time>
      </trkpt>
      <trkpt lat="44.88742" lon="-0.39997">
        <ele>60.5</ele>
        <time>2020-09-10T09:59:46Z</time>
      </trkpt>
      <trkpt lat="44.88741" lon="-0.39997">
        <ele>60.5</ele>
        <time>2020-09-10T09:59:47Z</time>
      </trkpt>
      <trkpt lat="44.8874" lon="-0.39997">
        <ele>60.5</ele>
        <time>2020-09-10T09:59:48Z</time>
      </trkpt>
      <trkpt lat="44.88739" lon="-0.39998">
        <ele>60.6</ele>
        <time>2020-09-10T09:59:49Z</time>
      </trkpt>
      <trkpt lat="44.88738" lon="-0.39998">
        <ele>60.6</ele>
        <time>2020-09-10T09:59:51Z</time>
      </trkpt>
      <trkpt lat="44.88736" lon="-0.39999">
        <ele>60.7</ele>
        <time>2020-09-10T09:59:53Z</time>
      </trkpt>
      <trkpt lat="44.88735" lon="-0.39999">
        <ele>60.7</ele>
        <time>2020-09-10T09:59:54Z</time>
      </trkpt>
      <trkpt lat="44.88734" lon="-0.4">
        <ele>60.8</ele>
        <time>2020-09-10T09:59:55Z</time>
      </trkpt>
      <trkpt lat="44.88733" lon="-0.4">
        <ele>60.8</ele>
        <time>2020-09-10T09:59:56Z</time>
      </trkpt>
      <trkpt lat="44.88731" lon="-0.40001">
        <ele>60.8</ele>
        <time>2020-09-10T09:59:58Z</time>
      </trkpt>
      <trkpt lat="44.8873" lon="-0.40001">
        <ele>60.9</ele>
        <time>2020-09-10T09:59:59Z</time>
      </trkpt>
      <trkpt lat="44.88729" lon="-0.40002">
        <ele>60.9</ele>
        <time>2020-09-10T10:00:00Z</time>
      </trkpt>
      <trkpt lat="44.88728" lon="-0.40002">
        <ele>61</ele>
        <time>2020-09-10T10:00:01Z</time>
      </trkpt>
      <trkpt lat="44.88725" lon="-0.40003">
        <ele>61.1</ele>
        <time>2020-09-10T10:00:02Z</time>
      </trkpt>
      <trkpt lat="44.88724" lon="-0.40004">
        <ele>61.1</ele>
        <time>2020-09-10T10:00:03Z</time>
      </trkpt>
      <trkpt lat="44.88723" lon="-0.40004">
        <ele>61.2</ele>
        <time>2020-09-10T10:00:05Z</time>
      </trkpt>
      <trkpt lat="44.88721" lon="-0.40005">
        <ele>61.2</ele>
        <time>2020-09-10T10:00:06Z</time>
      </trkpt>
      <trkpt lat="44.8872" lon="-0.40005">
        <ele>61.3</ele>
        <time>2020-09-10T10:00:07Z</time>
      </trkpt>
      <trkpt lat="44.88718" lon="-0.40005">
        <ele>61.3</ele>
        <time>2020-09-10T10:00:08Z</time>
      </trkpt>
      <trkpt lat="44.88716" lon="-0.40006">
        <ele>61.3</ele>
        <time>2020-09-10T10:00:10Z</time>
      </trkpt>
      <trkpt lat="44.88714" lon="-0.40007">
        <ele>61.4</ele>
        <time>2020-09-10T10:00:11Z</time>
      </trkpt>
      <trkpt lat="44.88713" lon="-0.40007">
        <ele>61.4</ele>
        <time>2020-09-10T10:00:13Z</time>
      </trkpt>
      <trkpt lat="44.88712" lon="-0.40008">
        <ele>61.5</ele>
        <time>2020-09-10T10:00:14Z</time>
      </trkpt>
      <trkpt lat="44.8871" lon="-0.40008">
        <ele>61.5</ele>
        <time>2020-09-10T10:00:15Z</time>
      </trkpt>
      <trkpt lat="44.88709" lon="-0.40009">
        <ele>61.5</ele>
        <time>2020-09-10T10:00:16Z</time>
      </trkpt>
      <trkpt lat="44.88708" lon="-0.4001">
        <ele>61.6</ele>
        <time>2020-09-10T10:00:18Z</time>
      </trkpt>
      <trkpt lat="44.88707" lon="-0.4001">
        <ele>61.6</ele>
        <time>2020-09-10T10:00:19Z</time>
      </trkpt>
      <trkpt lat="44.88706" lon="-0.4001">
        <ele>61.6</ele>
        <time>2020-09-10T10:00:20Z</time>
      </trkpt>
      <trkpt lat="44.88704" lon="-0.40011">
        <ele>61.6</ele>
        <time>2020-09-10T10:00:22Z</time>
      </trkpt>
      <trkpt lat="44.88703" lon="-0.40011">
        <ele>61.6</ele>
        <time>2020-09-10T10:00:23Z</time>
      </trkpt>
      <trkpt lat="44.88701" lon="-0.40012">
        <ele>61.7</ele>
        <time>2020-09-10T10:00:24Z</time>
      </trkpt>
      <trkpt lat="44.887" lon="-0.40012">
        <ele>61.7</ele>
        <time>2020-09-10T10:00:26Z</time>
      </trkpt>
      <trkpt lat="44.887" lon="-0.40013">
        <ele>61.7</ele>
        <time>2020-09-10T10:00:27Z</time>
      </trkpt>
      <trkpt lat="44.88699" lon="-0.40014">
        <ele>61.7</ele>
        <time>2020-09-10T10:00:28Z</time>
      </trkpt>
      <trkpt lat="44.88698" lon="-0.40014">
        <ele>61.7</ele>
        <time>2020-09-10T10:00:29Z</time>
      </trkpt>
      <trkpt lat="44.88697" lon="-0.40015">
        <ele>61.7</ele>
        <time>2020-09-10T10:00:30Z</time>
      </trkpt>
      <trkpt lat="44.88696" lon="-0.40016">
        <ele>61.7</ele>
        <time>2020-09-10T10:00:31Z</time>
      </trkpt>
      <trkpt lat="44.88695" lon="-0.40017">
        <ele>61.8</ele>
        <time>2020-09-10T10:00:32Z</time>
      </trkpt>
      <trkpt lat="44.88694" lon="-0.40018">
        <ele>61.8</ele>
        <time>2020-09-10T10:00:33Z</time>
      </trkpt>
      <trkpt lat="44.88692" lon="-0.40019">
        <ele>61.8</ele>
        <time>2020-09-10T10:00:35Z</time>
      </trkpt>
      <trkpt lat="44.88692" lon="-0.4002">
        <ele>61.8</ele>
        <time>2020-09-10T10:00:36Z</time>
      </trkpt>
      <trkpt lat="44.88691" lon="-0.4002">
        <ele>61.8</ele>
        <time>2020-09-10T10:00:37Z</time>
      </trkpt>
      <trkpt lat="44.88689" lon="-0.40022">
        <ele>61.8</ele>
        <time>2020-09-10T10:00:39Z</time>
      </trkpt>
      <trkpt lat="44.88688" lon="-0.40022">
        <ele>61.8</ele>
        <time>2020-09-10T10:00:40Z</time>
      </trkpt>
      <trkpt lat="44.88687" lon="-0.40023">
        <ele>61.9</ele>
        <time>2020-09-10T10:00:41Z</time>
      </trkpt>
      <trkpt lat="44.88686" lon="-0.40024">
        <ele>61.9</ele>
        <time>2020-09-10T10:00:42Z</time>
      </trkpt>
      <trkpt lat="44.88685" lon="-0.40025">
        <ele>61.9</ele>
        <time>2020-09-10T10:00:43Z</time>
      </trkpt>
      <trkpt lat="44.88684" lon="-0.40026">
        <ele>61.9</ele>
        <time>2020-09-10T10:00:44Z</time>
      </trkpt>
      <trkpt lat="44.88683" lon="-0.40027">
        <ele>61.9</ele>
        <time>2020-09-10T10:00:45Z</time>
      </trkpt>
      <trkpt lat="44.88681" lon="-0.40029">
        <ele>61.9</ele>
        <time>2020-09-10T10:00:46Z</time>
      </trkpt>
      <trkpt lat="44.8868" lon="-0.4003">
        <ele>61.9</ele>
        <time>2020-09-10T10:00:47Z</time>
      </trkpt>
      <trkpt lat="44.88679" lon="-0.40031">
        <ele>61.9</ele>
        <time>2020-09-10T10:00:48Z</time>
      </trkpt>
      <trkpt lat="44.88678" lon="-0.40032">
        <ele>61.9</ele>
        <time>2020-09-10T10:00:50Z</time>
      </trkpt>
      <trkpt lat="44.88678" lon="-0.40033">
        <ele>61.9</ele>
        <time>2020-09-10T10:00:51Z</time>
      </trkpt>
      <trkpt lat="44.88677" lon="-0.40034">
        <ele>61.9</ele>
        <time>2020-09-10T10:00:52Z</time>
      </trkpt>
      <trkpt lat="44.88676" lon="-0.40035">
        <ele>61.9</ele>
        <time>2020-09-10T10:00:54Z</time>
      </trkpt>
      <trkpt lat="44.88675" lon="-0.40036">
        <ele>61.8</ele>
        <time>2020-09-10T10:00:55Z</time>
      </trkpt>
      <trkpt lat="44.88674" lon="-0.40037">
        <ele>61.8</ele>
        <time>2020-09-10T10:00:56Z</time>
      </trkpt>
      <trkpt lat="44.88673" lon="-0.40038">
        <ele>61.8</ele>
        <time>2020-09-10T10:00:57Z</time>
      </trkpt>
      <trkpt lat="44.88672" lon="-0.40038">
        <ele>61.8</ele>
        <time>2020-09-10T10:00:58Z</time>
      </trkpt>
      <trkpt lat="44.88669" lon="-0.4004">
        <ele>61.8</ele>
        <time>2020-09-10T10:01:00Z</time>
      </trkpt>
      <trkpt lat="44.88669" lon="-0.4004">
        <ele>61.9</ele>
        <time>2020-09-10T10:01:01Z</time>
      </trkpt>
      <trkpt lat="44.88668" lon="-0.40041">
        <ele>61.9</ele>
        <time>2020-09-10T10:01:02Z</time>
      </trkpt>
      <trkpt lat="44.88667" lon="-0.40042">
        <ele>61.9</ele>
        <time>2020-09-10T10:01:03Z</time>
      </trkpt>
      <trkpt lat="44.88665" lon="-0.40043">
        <ele>61.9</ele>
        <time>2020-09-10T10:01:04Z</time>
      </trkpt>
      <trkpt lat="44.88664" lon="-0.40044">
        <ele>61.9</ele>
        <time>2020-09-10T10:01:06Z</time>
      </trkpt>
      <trkpt lat="44.88663" lon="-0.40045">
        <ele>61.9</ele>
        <time>2020-09-10T10:01:07Z</time>
      </trkpt>
      <trkpt lat="44.88662" lon="-0.40047">
        <ele>62</ele>
        <time>2020-09-10T10:01:08Z</time>
      </trkpt>
      <trkpt lat="44.88661" lon="-0.40048">
        <ele>62</ele>
        <time>2020-09-10T10:01:09Z</time>
      </trkpt>
      <trkpt lat="44.8866" lon="-0.40049">
        <ele>62</ele>
        <time>2020-09-10T10:01:10Z</time>
      </trkpt>
      <trkpt lat="44.88659" lon="-0.4005">
        <ele>62</ele>
        <time>2020-09-10T10:01:11Z</time>
      </trkpt>
      <trkpt lat="44.88658" lon="-0.40052">
        <ele>62</ele>
        <time>2020-09-10T10:01:12Z</time>
      </trkpt>
      <trkpt lat="44.88656" lon="-0.40053">
        <ele>62</ele>
        <time>2020-09-10T10:01:13Z</time>
      </trkpt>
      <trkpt lat="44.88655" lon="-0.40055">
        <ele>62</ele>
        <time>2020-09-10T10:01:14Z</time>
      </trkpt>
      <trkpt lat="44.88655" lon="-0.40057">
        <ele>62.1</ele>
        <time>2020-09-10T10:01:15Z</time>
      </trkpt>
      <trkpt lat="44.88653" lon="-0.40058">
        <ele>62.1</ele>
        <time>2020-09-10T10:01:16Z</time>
      </trkpt>
      <trkpt lat="44.88652" lon="-0.40059">
        <ele>62.1</ele>
        <time>2020-09-10T10:01:17Z</time>
      </trkpt>
      <trkpt lat="44.8865" lon="-0.40061">
        <ele>62.1</ele>
        <time>2020-09-10T10:01:19Z</time>
      </trkpt>
      <trkpt lat="44.8865" lon="-0.40062">
        <ele>62.1</ele>
        <time>2020-09-10T10:01:20Z</time>
      </trkpt>
      <trkpt lat="44.88649" lon="-0.40063">
        <ele>62.1</ele>
        <time>2020-09-10T10:01:21Z</time>
      </trkpt>
      <trkpt lat="44.88647" lon="-0.40065">
        <ele>62.1</ele>
        <time>2020-09-10T10:01:23Z</time>
      </trkpt>
      <trkpt lat="44.88646" lon="-0.40064">
        <ele>62.1</ele>
        <time>2020-09-10T10:01:25Z</time>
      </trkpt>
      <trkpt lat="44.88645" lon="-0.40065">
        <ele>62.1</ele>
        <time>2020-09-10T10:01:26Z</time>
      </trkpt>
      <trkpt lat="44.88644" lon="-0.40066">
        <ele>62.1</ele>
        <time>2020-09-10T10:01:27Z</time>
      </trkpt>
      <trkpt lat="44.88642" lon="-0.40067">
        <ele>62.1</ele>
        <time>2020-09-10T10:01:28Z</time>
      </trkpt>
      <trkpt lat="44.88641" lon="-0.40068">
        <ele>62</ele>
        <time>2020-09-10T10:01:29Z</time>
      </trkpt>
      <trkpt lat="44.88641" lon="-0.40068">
        <ele>62</ele>
        <time>2020-09-10T10:01:31Z</time>
      </trkpt>
      <trkpt lat="44.88639" lon="-0.4007">
        <ele>62</ele>
        <time>2020-09-10T10:01:32Z</time>
      </trkpt>
      <trkpt lat="44.88639" lon="-0.40071">
        <ele>62</ele>
        <time>2020-09-10T10:01:33Z</time>
      </trkpt>
      <trkpt lat="44.88637" lon="-0.40074">
        <ele>61.9</ele>
        <time>2020-09-10T10:01:35Z</time>
      </trkpt>
      <trkpt lat="44.88637" lon="-0.40075">
        <ele>61.9</ele>
        <time>2020-09-10T10:01:36Z</time>
      </trkpt>
      <trkpt lat="44.88636" lon="-0.40076">
        <ele>61.9</ele>
        <time>2020-09-10T10:01:37Z</time>
      </trkpt>
      <trkpt lat="44.88634" lon="-0.40077">
        <ele>61.8</ele>
        <time>2020-09-10T10:01:39Z</time>
      </trkpt>
      <trkpt lat="44.88632" lon="-0.40079">
        <ele>61.7</ele>
        <time>2020-09-10T10:01:41Z</time>
      </trkpt>
      <trkpt lat="44.88631" lon="-0.40079">
        <ele>61.6</ele>
        <time>2020-09-10T10:01:42Z</time>
      </trkpt>
      <trkpt lat="44.88628" lon="-0.40081">
        <ele>61.5</ele>
        <time>2020-09-10T10:01:44Z</time>
      </trkpt>
      <trkpt lat="44.88627" lon="-0.40081">
        <ele>61.5</ele>
        <time>2020-09-10T10:01:45Z</time>
      </trkpt>
      <trkpt lat="44.88626" lon="-0.40081">
        <ele>61.4</ele>
        <time>2020-09-10T10:01:46Z</time>
      </trkpt>
      <trkpt lat="44.88624" lon="-0.40082">
        <ele>61.3</ele>
        <time>2020-09-10T10:01:47Z</time>
      </trkpt>
      <trkpt lat="44.88623" lon="-0.40082">
        <ele>61.3</ele>
        <time>2020-09-10T10:01:48Z</time>
      </trkpt>
      <trkpt lat="44.88621" lon="-0.40083">
        <ele>61.2</ele>
        <time>2020-09-10T10:01:50Z</time>
      </trkpt>
      <trkpt lat="44.8862" lon="-0.40084">
        <ele>61.1</ele>
        <time>2020-09-10T10:01:51Z</time>
      </trkpt>
      <trkpt lat="44.88618" lon="-0.40085">
        <ele>61</ele>
        <time>2020-09-10T10:01:52Z</time>
      </trkpt>
      <trkpt lat="44.88617" lon="-0.40086">
        <ele>60.9</ele>
        <time>2020-09-10T10:01:54Z</time>
      </trkpt>
      <trkpt lat="44.88616" lon="-0.40087">
        <ele>60.9</ele>
        <time>2020-09-10T10:01:55Z</time>
      </trkpt>
      <trkpt lat="44.88613" lon="-0.40089">
        <ele>60.7</ele>
        <time>2020-09-10T10:01:56Z</time>
      </trkpt>
      <trkpt lat="44.88611" lon="-0.4009">
        <ele>60.6</ele>
        <time>2020-09-10T10:01:57Z</time>
      </trkpt>
      <trkpt lat="44.8861" lon="-0.40091">
        <ele>60.5</ele>
        <time>2020-09-10T10:01:59Z</time>
      </trkpt>
      <trkpt lat="44.88609" lon="-0.40092">
        <ele>60.5</ele>
        <time>2020-09-10T10:02:00Z</time>
      </trkpt>
      <trkpt lat="44.88608" lon="-0.40093">
        <ele>60.4</ele>
        <time>2020-09-10T10:02:01Z</time>
      </trkpt>
      <trkpt lat="44.88607" lon="-0.40094">
        <ele>60.3</ele>
        <time>2020-09-10T10:02:02Z</time>
      </trkpt>
      <trkpt lat="44.88606" lon="-0.40094">
        <ele>60.3</ele>
        <time>2020-09-10T10:02:03Z</time>
      </trkpt>
      <trkpt lat="44.88605" lon="-0.40095">
        <ele>60.2</ele>
        <time>2020-09-10T10:02:05Z</time>
      </trkpt>
      <trkpt lat="44.88604" lon="-0.40096">
        <ele>60.1</ele>
        <time>2020-09-10T10:02:06Z</time>
      </trkpt>
      <trkpt lat="44.88602" lon="-0.40098">
        <ele>60</ele>
        <time>2020-09-10T10:02:07Z</time>
      </trkpt>
      <trkpt lat="44.88602" lon="-0.40099">
        <ele>59.9</ele>
        <time>2020-09-10T10:02:09Z</time>
      </trkpt>
      <trkpt lat="44.88601" lon="-0.40099">
        <ele>59.9</ele>
        <time>2020-09-10T10:02:10Z</time>
      </trkpt>
      <trkpt lat="44.886" lon="-0.401">
        <ele>59.8</ele>
        <time>2020-09-10T10:02:11Z</time>
      </trkpt>
      <trkpt lat="44.88599" lon="-0.40101">
        <ele>59.7</ele>
        <time>2020-09-10T10:02:12Z</time>
      </trkpt>
      <trkpt lat="44.88598" lon="-0.40102">
        <ele>59.6</ele>
        <time>2020-09-10T10:02:13Z</time>
      </trkpt>
      <trkpt lat="44.88597" lon="-0.40102">
        <ele>59.6</ele>
        <time>2020-09-10T10:02:15Z</time>
      </trkpt>
      <trkpt lat="44.88597" lon="-0.40103">
        <ele>59.5</ele>
        <time>2020-09-10T10:02:16Z</time>
      </trkpt>
      <trkpt lat="44.88595" lon="-0.40104">
        <ele>59.4</ele>
        <time>2020-09-10T10:02:17Z</time>
      </trkpt>
      <trkpt lat="44.88594" lon="-0.40104">
        <ele>59.3</ele>
        <time>2020-09-10T10:02:18Z</time>
      </trkpt>
      <trkpt lat="44.88593" lon="-0.40105">
        <ele>59.2</ele>
        <time>2020-09-10T10:02:19Z</time>
      </trkpt>
      <trkpt lat="44.88592" lon="-0.40105">
        <ele>59.2</ele>
        <time>2020-09-10T10:02:21Z</time>
      </trkpt>
      <trkpt lat="44.8859" lon="-0.40105">
        <ele>59</ele>
        <time>2020-09-10T10:02:22Z</time>
      </trkpt>
      <trkpt lat="44.88589" lon="-0.40106">
        <ele>59</ele>
        <time>2020-09-10T10:02:23Z</time>
      </trkpt>
      <trkpt lat="44.88588" lon="-0.40106">
        <ele>58.9</ele>
        <time>2020-09-10T10:02:24Z</time>
      </trkpt>
      <trkpt lat="44.88587" lon="-0.40107">
        <ele>58.8</ele>
        <time>2020-09-10T10:02:25Z</time>
      </trkpt>
      <trkpt lat="44.88586" lon="-0.40107">
        <ele>58.7</ele>
        <time>2020-09-10T10:02:26Z</time>
      </trkpt>
      <trkpt lat="44.88586" lon="-0.40108">
        <ele>58.7</ele>
        <time>2020-09-10T10:02:27Z</time>
      </trkpt>
      <trkpt lat="44.88584" lon="-0.40108">
        <ele>58.6</ele>
        <time>2020-09-10T10:02:29Z</time>
      </trkpt>
      <trkpt lat="44.88583" lon="-0.40109">
        <ele>58.5</ele>
        <time>2020-09-10T10:02:30Z</time>
      </trkpt>
      <trkpt lat="44.88582" lon="-0.4011">
        <ele>58.4</ele>
        <time>2020-09-10T10:02:32Z</time>
      </trkpt>
      <trkpt lat="44.88581" lon="-0.4011">
        <ele>58.3</ele>
        <time>2020-09-10T10:02:33Z</time>
      </trkpt>
      <trkpt lat="44.88579" lon="-0.40111">
        <ele>58.3</ele>
        <time>2020-09-10T10:02:34Z</time>
      </trkpt>
      <trkpt lat="44.88578" lon="-0.40112">
        <ele>58.2</ele>
        <time>2020-09-10T10:02:35Z</time>
      </trkpt>
      <trkpt lat="44.88577" lon="-0.40113">
        <ele>58.2</ele>
        <time>2020-09-10T10:02:37Z</time>
      </trkpt>
      <trkpt lat="44.88576" lon="-0.40114">
        <ele>58.1</ele>
        <time>2020-09-10T10:02:38Z</time>
      </trkpt>
      <trkpt lat="44.88574" lon="-0.40115">
        <ele>58</ele>
        <time>2020-09-10T10:02:39Z</time>
      </trkpt>
      <trkpt lat="44.88573" lon="-0.40117">
        <ele>58</ele>
        <time>2020-09-10T10:02:41Z</time>
      </trkpt>
      <trkpt lat="44.88571" lon="-0.40118">
        <ele>57.9</ele>
        <time>2020-09-10T10:02:43Z</time>
      </trkpt>
      <trkpt lat="44.8857" lon="-0.40119">
        <ele>57.9</ele>
        <time>2020-09-10T10:02:44Z</time>
      </trkpt>
      <trkpt lat="44.88569" lon="-0.4012">
        <ele>57.9</ele>
        <time>2020-09-10T10:02:45Z</time>
      </trkpt>
      <trkpt lat="44.88568" lon="-0.40121">
        <ele>57.9</ele>
        <time>2020-09-10T10:02:46Z</time>
      </trkpt>
      <trkpt lat="44.88567" lon="-0.40121">
        <ele>58</ele>
        <time>2020-09-10T10:02:47Z</time>
      </trkpt>
      <trkpt lat="44.88564" lon="-0.40122">
        <ele>58</ele>
        <time>2020-09-10T10:02:49Z</time>
      </trkpt>
      <trkpt lat="44.88564" lon="-0.40122">
        <ele>58</ele>
        <time>2020-09-10T10:02:50Z</time>
      </trkpt>
      <trkpt lat="44.88563" lon="-0.40123">
        <ele>58.1</ele>
        <time>2020-09-10T10:02:52Z</time>
      </trkpt>
      <trkpt lat="44.88562" lon="-0.40123">
        <ele>58.1</ele>
        <time>2020-09-10T10:02:53Z</time>
      </trkpt>
      <trkpt lat="44.8856" lon="-0.40123">
        <ele>58.1</ele>
        <time>2020-09-10T10:02:54Z</time>
      </trkpt>
      <trkpt lat="44.88559" lon="-0.40123">
        <ele>58.1</ele>
        <time>2020-09-10T10:02:56Z</time>
      </trkpt>
      <trkpt lat="44.88558" lon="-0.40123">
        <ele>58.2</ele>
        <time>2020-09-10T10:02:57Z</time>
      </trkpt>
      <trkpt lat="44.88557" lon="-0.40122">
        <ele>58.2</ele>
        <time>2020-09-10T10:02:58Z</time>
      </trkpt>
      <trkpt lat="44.88556" lon="-0.40122">
        <ele>58.2</ele>
        <time>2020-09-10T10:03:00Z</time>
      </trkpt>
      <trkpt lat="44.88554" lon="-0.40121">
        <ele>58.2</ele>
        <time>2020-09-10T10:03:02Z</time>
      </trkpt>
      <trkpt lat="44.88552" lon="-0.4012">
        <ele>58.3</ele>
        <time>2020-09-10T10:03:03Z</time>
      </trkpt>
      <trkpt lat="44.88552" lon="-0.4012">
        <ele>58.3</ele>
        <time>2020-09-10T10:03:04Z</time>
      </trkpt>
      <trkpt lat="44.88551" lon="-0.4012">
        <ele>58.3</ele>
        <time>2020-09-10T10:03:05Z</time>
      </trkpt>
      <trkpt lat="44.8855" lon="-0.40119">
        <ele>58.3</ele>
        <time>2020-09-10T10:03:07Z</time>
      </trkpt>
      <trkpt lat="44.88548" lon="-0.40119">
        <ele>58.4</ele>
        <time>2020-09-10T10:03:08Z</time>
      </trkpt>
      <trkpt lat="44.88547" lon="-0.40119">
        <ele>58.4</ele>
        <time>2020-09-10T10:03:09Z</time>
      </trkpt>
      <trkpt lat="44.88546" lon="-0.40119">
        <ele>58.4</ele>
        <time>2020-09-10T10:03:11Z</time>
      </trkpt>
      <trkpt lat="44.88544" lon="-0.40118">
        <ele>58.4</ele>
        <time>2020-09-10T10:03:12Z</time>
      </trkpt>
      <trkpt lat="44.88543" lon="-0.40118">
        <ele>58.5</ele>
        <time>2020-09-10T10:03:13Z</time>
      </trkpt>
      <trkpt lat="44.88541" lon="-0.40119">
        <ele>58.5</ele>
        <time>2020-09-10T10:03:15Z</time>
      </trkpt>
      <trkpt lat="44.8854" lon="-0.40119">
        <ele>58.5</ele>
        <time>2020-09-10T10:03:16Z</time>
      </trkpt>
      <trkpt lat="44.88539" lon="-0.4012">
        <ele>58.6</ele>
        <time>2020-09-10T10:03:17Z</time>
      </trkpt>
      <trkpt lat="44.88537" lon="-0.4012">
        <ele>58.6</ele>
        <time>2020-09-10T10:03:18Z</time>
      </trkpt>
      <trkpt lat="44.88536" lon="-0.40121">
        <ele>58.6</ele>
        <time>2020-09-10T10:03:19Z</time>
      </trkpt>
      <trkpt lat="44.88535" lon="-0.40121">
        <ele>58.6</ele>
        <time>2020-09-10T10:03:20Z</time>
      </trkpt>
      <trkpt lat="44.88535" lon="-0.40121">
        <ele>58.7</ele>
        <time>2020-09-10T10:03:21Z</time>
      </trkpt>
      <trkpt lat="44.88533" lon="-0.40121">
        <ele>58.7</ele>
        <time>2020-09-10T10:03:22Z</time>
      </trkpt>
      <trkpt lat="44.88532" lon="-0.40122">
        <ele>58.7</ele>
        <time>2020-09-10T10:03:23Z</time>
      </trkpt>
      <trkpt lat="44.88531" lon="-0.40122">
        <ele>58.8</ele>
        <time>2020-09-10T10:03:25Z</time>
      </trkpt>
      <trkpt lat="44.8853" lon="-0.40122">
        <ele>58.8</ele>
        <time>2020-09-10T10:03:26Z</time>
      </trkpt>
      <trkpt lat="44.8853" lon="-0.40122">
        <ele>58.8</ele>
        <time>2020-09-10T10:03:27Z</time>
      </trkpt>
      <trkpt lat="44.88528" lon="-0.40122">
        <ele>58.8</ele>
        <time>2020-09-10T10:03:28Z</time>
      </trkpt>
      <trkpt lat="44.88527" lon="-0.40122">
        <ele>58.8</ele>
        <time>2020-09-10T10:03:29Z</time>
      </trkpt>
      <trkpt lat="44.88526" lon="-0.40123">
        <ele>58.9</ele>
        <time>2020-09-10T10:03:31Z</time>
      </trkpt>
      <trkpt lat="44.88525" lon="-0.40123">
        <ele>58.9</ele>
        <time>2020-09-10T10:03:32Z</time>
      </trkpt>
      <trkpt lat="44.88523" lon="-0.40123">
        <ele>58.9</ele>
        <time>2020-09-10T10:03:33Z</time>
      </trkpt>
      <trkpt lat="44.88522" lon="-0.40124">
        <ele>59</ele>
        <time>2020-09-10T10:03:34Z</time>
      </trkpt>
      <trkpt lat="44.88521" lon="-0.40124">
        <ele>59</ele>
        <time>2020-09-10T10:03:35Z</time>
      </trkpt>
      <trkpt lat="44.8852" lon="-0.40124">
        <ele>59</ele>
        <time>2020-09-10T10:03:36Z</time>
      </trkpt>
      <trkpt lat="44.88519" lon="-0.40124">
        <ele>59</ele>
        <time>2020-09-10T10:03:38Z</time>
      </trkpt>
      <trkpt lat="44.88517" lon="-0.40123">
        <ele>59.1</ele>
        <time>2020-09-10T10:03:39Z</time>
      </trkpt>
      <trkpt lat="44.88516" lon="-0.40122">
        <ele>59.1</ele>
        <time>2020-09-10T10:03:40Z</time>
      </trkpt>
      <trkpt lat="44.88516" lon="-0.40121">
        <ele>59.1</ele>
        <time>2020-09-10T10:03:41Z</time>
      </trkpt>
      <trkpt lat="44.88514" lon="-0.4012">
        <ele>59.2</ele>
        <time>2020-09-10T10:03:43Z</time>
      </trkpt>
      <trkpt lat="44.88513" lon="-0.40119">
        <ele>59.2</ele>
        <time>2020-09-10T10:03:44Z</time>
      </trkpt>
      <trkpt lat="44.88512" lon="-0.40119">
        <ele>59.2</ele>
        <time>2020-09-10T10:03:45Z</time>
      </trkpt>
      <trkpt lat="44.88511" lon="-0.40118">
        <ele>59.2</ele>
        <time>2020-09-10T10:03:47Z</time>
      </trkpt>
      <trkpt lat="44.8851" lon="-0.40116">
        <ele>59.3</ele>
        <time>2020-09-10T10:03:48Z</time>
      </trkpt>
      <trkpt lat="44.88509" lon="-0.40114">
        <ele>59.3</ele>
        <time>2020-09-10T10:03:50Z</time>
      </trkpt>
      <trkpt lat="44.88509" lon="-0.40114">
        <ele>59.3</ele>
        <time>2020-09-10T10:03:51Z</time>
      </trkpt>
      <trkpt lat="44.88509" lon="-0.40113">
        <ele>59.3</ele>
        <time>2020-09-10T10:03:53Z</time>
      </trkpt>
      <trkpt lat="44.88508" lon="-0.40111">
        <ele>59.4</ele>
        <time>2020-09-10T10:03:54Z</time>
      </trkpt>
      <trkpt lat="44.88509" lon="-0.4011">
        <ele>59.4</ele>
        <time>2020-09-10T10:03:56Z</time>
      </trkpt>
      <trkpt lat="44.88508" lon="-0.4011">
        <ele>59.4</ele>
        <time>2020-09-10T10:03:57Z</time>
      </trkpt>
      <trkpt lat="44.88507" lon="-0.40111">
        <ele>59.4</ele>
        <time>2020-09-10T10:03:59Z</time>
      </trkpt>
      <trkpt lat="44.88507" lon="-0.40111">
        <ele>59.4</ele>
        <time>2020-09-10T10:04:00Z</time>
      </trkpt>
      <trkpt lat="44.88507" lon="-0.40111">
        <ele>59.4</ele>
        <time>2020-09-10T10:04:02Z</time>
      </trkpt>
      <trkpt lat="44.88507" lon="-0.40111">
        <ele>59.4</ele>
        <time>2020-09-10T10:04:04Z</time>
      </trkpt>
      <trkpt lat="44.88507" lon="-0.40111">
        <ele>59.4</ele>
        <time>2020-09-10T10:04:05Z</time>
      </trkpt>
      <trkpt lat="44.88507" lon="-0.40111">
        <ele>59.4</ele>
        <time>2020-09-10T10:04:06Z</time>
      </trkpt>
      <trkpt lat="44.88507" lon="-0.40111">
        <ele>59.4</ele>
        <time>2020-09-10T10:04:07Z</time>
      </trkpt>
      <trkpt lat="44.88507" lon="-0.4011">
        <ele>59.3</ele>
        <time>2020-09-10T10:04:08Z</time>
      </trkpt>
      <trkpt lat="44.88507" lon="-0.40109">
        <ele>59.3</ele>
        <time>2020-09-10T10:04:10Z</time>
      </trkpt>
      <trkpt lat="44.88508" lon="-0.4011">
        <ele>59.3</ele>
        <time>2020-09-10T10:04:12Z</time>
      </trkpt>
      <trkpt lat="44.88509" lon="-0.4011">
        <ele>59.3</ele>
        <time>2020-09-10T10:04:14Z</time>
      </trkpt>
      <trkpt lat="44.8851" lon="-0.40111">
        <ele>59.3</ele>
        <time>2020-09-10T10:04:16Z</time>
      </trkpt>
      <trkpt lat="44.88511" lon="-0.40112">
        <ele>59.2</ele>
        <time>2020-09-10T10:04:18Z</time>
      </trkpt>
      <trkpt lat="44.88515" lon="-0.40115">
        <ele>59.1</ele>
        <time>2020-09-10T10:04:20Z</time>
      </trkpt>
      <trkpt lat="44.88516" lon="-0.40115">
        <ele>59.1</ele>
        <time>2020-09-10T10:04:21Z</time>
      </trkpt>
      <trkpt lat="44.88516" lon="-0.40116">
        <ele>59.1</ele>
        <time>2020-09-10T10:04:22Z</time>
      </trkpt>
      <trkpt lat="44.88516" lon="-0.40116">
        <ele>59.1</ele>
        <time>2020-09-10T10:04:24Z</time>
      </trkpt>
      <trkpt lat="44.88516" lon="-0.40116">
        <ele>59.1</ele>
        <time>2020-09-10T10:04:25Z</time>
      </trkpt>
      <trkpt lat="44.88516" lon="-0.40116">
        <ele>59.1</ele>
        <time>2020-09-10T10:04:27Z</time>
      </trkpt>
      <trkpt lat="44.88516" lon="-0.40116">
        <ele>59.1</ele>
        <time>2020-09-10T10:04:28Z</time>
      </trkpt>
      <trkpt lat="44.88516" lon="-0.40116">
        <ele>59.1</ele>
        <time>2020-09-10T10:04:30Z</time>
      </trkpt>
      <trkpt lat="44.88519" lon="-0.40117">
        <ele>59.1</ele>
        <time>2020-09-10T10:04:32Z</time>
      </trkpt>
      <trkpt lat="44.88519" lon="-0.40118">
        <ele>59.1</ele>
        <time>2020-09-10T10:04:33Z</time>
      </trkpt>
      <trkpt lat="44.8852" lon="-0.40119">
        <ele>59</ele>
        <time>2020-09-10T10:04:34Z</time>
      </trkpt>
      <trkpt lat="44.88521" lon="-0.4012">
        <ele>59</ele>
        <time>2020-09-10T10:04:35Z</time>
      </trkpt>
      <trkpt lat="44.88523" lon="-0.40123">
        <ele>58.9</ele>
        <time>2020-09-10T10:04:37Z</time>
      </trkpt>
      <trkpt lat="44.88524" lon="-0.40123">
        <ele>58.9</ele>
        <time>2020-09-10T10:04:39Z</time>
      </trkpt>
      <trkpt lat="44.88525" lon="-0.40124">
        <ele>58.9</ele>
        <time>2020-09-10T10:04:40Z</time>
      </trkpt>
      <trkpt lat="44.88527" lon="-0.40125">
        <ele>58.9</ele>
        <time>2020-09-10T10:04:41Z</time>
      </trkpt>
      <trkpt lat="44.88529" lon="-0.40125">
        <ele>58.8</ele>
        <time>2020-09-10T10:04:42Z</time>
      </trkpt>
      <trkpt lat="44.88531" lon="-0.40124">
        <ele>58.8</ele>
        <time>2020-09-10T10:04:43Z</time>
      </trkpt>
      <trkpt lat="44.88532" lon="-0.40124">
        <ele>58.8</ele>
        <time>2020-09-10T10:04:45Z</time>
      </trkpt>
      <trkpt lat="44.88533" lon="-0.40124">
        <ele>58.7</ele>
        <time>2020-09-10T10:04:46Z</time>
      </trkpt>
      <trkpt lat="44.88535" lon="-0.40124">
        <ele>58.7</ele>
        <time>2020-09-10T10:04:47Z</time>
      </trkpt>
      <trkpt lat="44.88537" lon="-0.40123">
        <ele>58.7</ele>
        <time>2020-09-10T10:04:49Z</time>
      </trkpt>
      <trkpt lat="44.88539" lon="-0.40124">
        <ele>58.6</ele>
        <time>2020-09-10T10:04:51Z</time>
      </trkpt>
      <trkpt lat="44.8854" lon="-0.40124">
        <ele>58.6</ele>
        <time>2020-09-10T10:04:52Z</time>
      </trkpt>
      <trkpt lat="44.88542" lon="-0.40125">
        <ele>58.6</ele>
        <time>2020-09-10T10:04:53Z</time>
      </trkpt>
      <trkpt lat="44.88543" lon="-0.40126">
        <ele>58.5</ele>
        <time>2020-09-10T10:04:54Z</time>
      </trkpt>
      <trkpt lat="44.88543" lon="-0.40127">
        <ele>58.5</ele>
        <time>2020-09-10T10:04:56Z</time>
      </trkpt>
      <trkpt lat="44.88543" lon="-0.40127">
        <ele>58.5</ele>
        <time>2020-09-10T10:04:57Z</time>
      </trkpt>
      <trkpt lat="44.88543" lon="-0.40127">
        <ele>58.5</ele>
        <time>2020-09-10T10:04:58Z</time>
      </trkpt>
      <trkpt lat="44.88543" lon="-0.40127">
        <ele>58.5</ele>
        <time>2020-09-10T10:05:00Z</time>
      </trkpt>
      <trkpt lat="44.88543" lon="-0.40127">
        <ele>58.5</ele>
        <time>2020-09-10T10:05:01Z</time>
      </trkpt>
      <trkpt lat="44.88543" lon="-0.40127">
        <ele>58.5</ele>
        <time>2020-09-10T10:05:02Z</time>
      </trkpt>
      <trkpt lat="44.88542" lon="-0.40126">
        <ele>58.5</ele>
        <time>2020-09-10T10:05:04Z</time>
      </trkpt>
      <trkpt lat="44.88542" lon="-0.40126">
        <ele>58.5</ele>
        <time>2020-09-10T10:05:05Z</time>
      </trkpt>
      <trkpt lat="44.88542" lon="-0.40126">
        <ele>58.5</ele>
        <time>2020-09-10T10:05:07Z</time>
      </trkpt>
      <trkpt lat="44.88542" lon="-0.40126">
        <ele>58.5</ele>
        <time>2020-09-10T10:05:08Z</time>
      </trkpt>
      <trkpt lat="44.88542" lon="-0.40126">
        <ele>58.5</ele>
        <time>2020-09-10T10:05:09Z</time>
      </trkpt>
      <trkpt lat="44.88542" lon="-0.40125">
        <ele>58.5</ele>
        <time>2020-09-10T10:05:12Z</time>
      </trkpt>
      <trkpt lat="44.88542" lon="-0.40125">
        <ele>58.5</ele>
        <time>2020-09-10T10:05:13Z</time>
      </trkpt>
      <trkpt lat="44.88542" lon="-0.40125">
        <ele>58.5</ele>
        <time>2020-09-10T10:05:15Z</time>
      </trkpt>
      <trkpt lat="44.88542" lon="-0.40125">
        <ele>58.5</ele>
        <time>2020-09-10T10:05:17Z</time>
      </trkpt>
      <trkpt lat="44.88542" lon="-0.40125">
        <ele>58.5</ele>
        <time>2020-09-10T10:05:18Z</time>
      </trkpt>
      <trkpt lat="44.88543" lon="-0.40125">
        <ele>58.5</ele>
        <time>2020-09-10T10:05:20Z</time>
      </trkpt>
      <trkpt lat="44.88543" lon="-0.40124">
        <ele>58.4</ele>
        <time>2020-09-10T10:05:21Z</time>
      </trkpt>
      <trkpt lat="44.88544" lon="-0.40122">
        <ele>58.4</ele>
        <time>2020-09-10T10:05:23Z</time>
      </trkpt>
      <trkpt lat="44.88545" lon="-0.4012">
        <ele>58.4</ele>
        <time>2020-09-10T10:05:24Z</time>
      </trkpt>
      <trkpt lat="44.88545" lon="-0.40119">
        <ele>58.4</ele>
        <time>2020-09-10T10:05:25Z</time>
      </trkpt>
      <trkpt lat="44.88546" lon="-0.40117">
        <ele>58.3</ele>
        <time>2020-09-10T10:05:27Z</time>
      </trkpt>
      <trkpt lat="44.88548" lon="-0.40116">
        <ele>58.3</ele>
        <time>2020-09-10T10:05:28Z</time>
      </trkpt>
      <trkpt lat="44.88549" lon="-0.40116">
        <ele>58.3</ele>
        <time>2020-09-10T10:05:29Z</time>
      </trkpt>
      <trkpt lat="44.8855" lon="-0.40116">
        <ele>58.3</ele>
        <time>2020-09-10T10:05:30Z</time>
      </trkpt>
      <trkpt lat="44.88551" lon="-0.40115">
        <ele>58.2</ele>
        <time>2020-09-10T10:05:31Z</time>
      </trkpt>
      <trkpt lat="44.88553" lon="-0.40115">
        <ele>58.2</ele>
        <time>2020-09-10T10:05:33Z</time>
      </trkpt>
      <trkpt lat="44.88554" lon="-0.40115">
        <ele>58.2</ele>
        <time>2020-09-10T10:05:34Z</time>
      </trkpt>
      <trkpt lat="44.88556" lon="-0.40115">
        <ele>58.2</ele>
        <time>2020-09-10T10:05:36Z</time>
      </trkpt>
      <trkpt lat="44.88559" lon="-0.40115">
        <ele>58.1</ele>
        <time>2020-09-10T10:05:37Z</time>
      </trkpt>
      <trkpt lat="44.8856" lon="-0.40114">
        <ele>58.1</ele>
        <time>2020-09-10T10:05:38Z</time>
      </trkpt>
      <trkpt lat="44.88562" lon="-0.40113">
        <ele>58.1</ele>
        <time>2020-09-10T10:05:40Z</time>
      </trkpt>
      <trkpt lat="44.88563" lon="-0.40112">
        <ele>58</ele>
        <time>2020-09-10T10:05:41Z</time>
      </trkpt>
      <trkpt lat="44.88564" lon="-0.40112">
        <ele>58</ele>
        <time>2020-09-10T10:05:42Z</time>
      </trkpt>
      <trkpt lat="44.88567" lon="-0.40112">
        <ele>58</ele>
        <time>2020-09-10T10:05:44Z</time>
      </trkpt>
      <trkpt lat="44.88568" lon="-0.40113">
        <ele>57.9</ele>
        <time>2020-09-10T10:05:45Z</time>
      </trkpt>
      <trkpt lat="44.88569" lon="-0.40114">
        <ele>57.9</ele>
        <time>2020-09-10T10:05:46Z</time>
      </trkpt>
      <trkpt lat="44.88569" lon="-0.40114">
        <ele>57.9</ele>
        <time>2020-09-10T10:05:47Z</time>
      </trkpt>
      <trkpt lat="44.88569" lon="-0.40114">
        <ele>57.9</ele>
        <time>2020-09-10T10:05:48Z</time>
      </trkpt>
      <trkpt lat="44.8857" lon="-0.40114">
        <ele>57.8</ele>
        <time>2020-09-10T10:05:50Z</time>
      </trkpt>
      <trkpt lat="44.88571" lon="-0.40115">
        <ele>57.8</ele>
        <time>2020-09-10T10:05:52Z</time>
      </trkpt>
      <trkpt lat="44.88572" lon="-0.40115">
        <ele>57.7</ele>
        <time>2020-09-10T10:05:53Z</time>
      </trkpt>
      <trkpt lat="44.88573" lon="-0.40115">
        <ele>57.7</ele>
        <time>2020-09-10T10:05:54Z</time>
      </trkpt>
      <trkpt lat="44.88574" lon="-0.40115">
        <ele>57.7</ele>
        <time>2020-09-10T10:05:56Z</time>
      </trkpt>
      <trkpt lat="44.88575" lon="-0.40116">
        <ele>57.6</ele>
        <time>2020-09-10T10:05:57Z</time>
      </trkpt>
      <trkpt lat="44.88576" lon="-0.40116">
        <ele>57.6</ele>
        <time>2020-09-10T10:05:58Z</time>
      </trkpt>
      <trkpt lat="44.88578" lon="-0.40117">
        <ele>57.5</ele>
        <time>2020-09-10T10:06:00Z</time>
      </trkpt>
      <trkpt lat="44.88579" lon="-0.40119">
        <ele>57.4</ele>
        <time>2020-09-10T10:06:01Z</time>
      </trkpt>
      <trkpt lat="44.8858" lon="-0.4012">
        <ele>57.3</ele>
        <time>2020-09-10T10:06:02Z</time>
      </trkpt>
      <trkpt lat="44.88581" lon="-0.4012">
        <ele>57.3</ele>
        <time>2020-09-10T10:06:03Z</time>
      </trkpt>
      <trkpt lat="44.88582" lon="-0.40122">
        <ele>57.2</ele>
        <time>2020-09-10T10:06:05Z</time>
      </trkpt>
      <trkpt lat="44.88583" lon="-0.40123">
        <ele>57.1</ele>
        <time>2020-09-10T10:06:06Z</time>
      </trkpt>
      <trkpt lat="44.88584" lon="-0.40125">
        <ele>57</ele>
        <time>2020-09-10T10:06:07Z</time>
      </trkpt>
      <trkpt lat="44.88585" lon="-0.40126">
        <ele>56.9</ele>
        <time>2020-09-10T10:06:08Z</time>
      </trkpt>
      <trkpt lat="44.88587" lon="-0.40128">
        <ele>56.8</ele>
        <time>2020-09-10T10:06:10Z</time>
      </trkpt>
      <trkpt lat="44.88588" lon="-0.40129">
        <ele>56.7</ele>
        <time>2020-09-10T10:06:11Z</time>
      </trkpt>
      <trkpt lat="44.88589" lon="-0.4013">
        <ele>56.7</ele>
        <time>2020-09-10T10:06:12Z</time>
      </trkpt>
      <trkpt lat="44.88589" lon="-0.40131">
        <ele>56.6</ele>
        <time>2020-09-10T10:06:13Z</time>
      </trkpt>
      <trkpt lat="44.8859" lon="-0.40132">
        <ele>56.5</ele>
        <time>2020-09-10T10:06:14Z</time>
      </trkpt>
      <trkpt lat="44.88592" lon="-0.40134">
        <ele>56.4</ele>
        <time>2020-09-10T10:06:15Z</time>
      </trkpt>
      <trkpt lat="44.88592" lon="-0.40135">
        <ele>56.4</ele>
        <time>2020-09-10T10:06:16Z</time>
      </trkpt>
      <trkpt lat="44.88593" lon="-0.40137">
        <ele>56.3</ele>
        <time>2020-09-10T10:06:18Z</time>
      </trkpt>
      <trkpt lat="44.88594" lon="-0.40138">
        <ele>56.2</ele>
        <time>2020-09-10T10:06:19Z</time>
      </trkpt>
      <trkpt lat="44.88596" lon="-0.40141">
        <ele>56</ele>
        <time>2020-09-10T10:06:21Z</time>
      </trkpt>
      <trkpt lat="44.88597" lon="-0.40142">
        <ele>55.9</ele>
        <time>2020-09-10T10:06:22Z</time>
      </trkpt>
      <trkpt lat="44.88597" lon="-0.40143">
        <ele>55.9</ele>
        <time>2020-09-10T10:06:23Z</time>
      </trkpt>
      <trkpt lat="44.88598" lon="-0.40145">
        <ele>55.8</ele>
        <time>2020-09-10T10:06:25Z</time>
      </trkpt>
      <trkpt lat="44.886" lon="-0.40148">
        <ele>55.7</ele>
        <time>2020-09-10T10:06:26Z</time>
      </trkpt>
      <trkpt lat="44.886" lon="-0.40149">
        <ele>55.6</ele>
        <time>2020-09-10T10:06:27Z</time>
      </trkpt>
      <trkpt lat="44.88601" lon="-0.40151">
        <ele>55.5</ele>
        <time>2020-09-10T10:06:28Z</time>
      </trkpt>
      <trkpt lat="44.88602" lon="-0.40153">
        <ele>55.4</ele>
        <time>2020-09-10T10:06:29Z</time>
      </trkpt>
      <trkpt lat="44.88604" lon="-0.40156">
        <ele>55.2</ele>
        <time>2020-09-10T10:06:31Z</time>
      </trkpt>
      <trkpt lat="44.88604" lon="-0.40157">
        <ele>55.2</ele>
        <time>2020-09-10T10:06:32Z</time>
      </trkpt>
      <trkpt lat="44.88605" lon="-0.40159">
        <ele>55.1</ele>
        <time>2020-09-10T10:06:33Z</time>
      </trkpt>
      <trkpt lat="44.88607" lon="-0.40162">
        <ele>54.9</ele>
        <time>2020-09-10T10:06:35Z</time>
      </trkpt>
      <trkpt lat="44.88609" lon="-0.40165">
        <ele>54.7</ele>
        <time>2020-09-10T10:06:36Z</time>
      </trkpt>
      <trkpt lat="44.88609" lon="-0.40166">
        <ele>54.7</ele>
        <time>2020-09-10T10:06:38Z</time>
      </trkpt>
      <trkpt lat="44.8861" lon="-0.40168">
        <ele>54.6</ele>
        <time>2020-09-10T10:06:39Z</time>
      </trkpt>
      <trkpt lat="44.88611" lon="-0.40169">
        <ele>54.5</ele>
        <time>2020-09-10T10:06:40Z</time>
      </trkpt>
      <trkpt lat="44.88612" lon="-0.40171">
        <ele>54.4</ele>
        <time>2020-09-10T10:06:41Z</time>
      </trkpt>
      <trkpt lat="44.88612" lon="-0.40172">
        <ele>54.3</ele>
        <time>2020-09-10T10:06:42Z</time>
      </trkpt>
      <trkpt lat="44.88613" lon="-0.40174">
        <ele>54.1</ele>
        <time>2020-09-10T10:06:44Z</time>
      </trkpt>
      <trkpt lat="44.88614" lon="-0.40176">
        <ele>54</ele>
        <time>2020-09-10T10:06:45Z</time>
      </trkpt>
      <trkpt lat="44.88614" lon="-0.40177">
        <ele>53.9</ele>
        <time>2020-09-10T10:06:46Z</time>
      </trkpt>
      <trkpt lat="44.88615" lon="-0.40179">
        <ele>53.8</ele>
        <time>2020-09-10T10:06:48Z</time>
      </trkpt>
      <trkpt lat="44.88617" lon="-0.40182">
        <ele>53.6</ele>
        <time>2020-09-10T10:06:49Z</time>
      </trkpt>
      <trkpt lat="44.88618" lon="-0.40183">
        <ele>53.5</ele>
        <time>2020-09-10T10:06:50Z</time>
      </trkpt>
      <trkpt lat="44.88618" lon="-0.40184">
        <ele>53.4</ele>
        <time>2020-09-10T10:06:51Z</time>
      </trkpt>
      <trkpt lat="44.88619" lon="-0.40185">
        <ele>53.3</ele>
        <time>2020-09-10T10:06:53Z</time>
      </trkpt>
      <trkpt lat="44.88619" lon="-0.40186">
        <ele>53.2</ele>
        <time>2020-09-10T10:06:55Z</time>
      </trkpt>
      <trkpt lat="44.8862" lon="-0.40188">
        <ele>53.1</ele>
        <time>2020-09-10T10:06:56Z</time>
      </trkpt>
      <trkpt lat="44.8862" lon="-0.40189">
        <ele>53</ele>
        <time>2020-09-10T10:06:57Z</time>
      </trkpt>
      <trkpt lat="44.8862" lon="-0.4019">
        <ele>52.9</ele>
        <time>2020-09-10T10:06:58Z</time>
      </trkpt>
      <trkpt lat="44.88619" lon="-0.40192">
        <ele>52.8</ele>
        <time>2020-09-10T10:06:59Z</time>
      </trkpt>
      <trkpt lat="44.8862" lon="-0.40195">
        <ele>52.6</ele>
        <time>2020-09-10T10:07:01Z</time>
      </trkpt>
      <trkpt lat="44.8862" lon="-0.40196">
        <ele>52.6</ele>
        <time>2020-09-10T10:07:02Z</time>
      </trkpt>
      <trkpt lat="44.8862" lon="-0.40198">
        <ele>52.5</ele>
        <time>2020-09-10T10:07:03Z</time>
      </trkpt>
      <trkpt lat="44.88622" lon="-0.40202">
        <ele>52.2</ele>
        <time>2020-09-10T10:07:06Z</time>
      </trkpt>
      <trkpt lat="44.88623" lon="-0.40203">
        <ele>52</ele>
        <time>2020-09-10T10:07:07Z</time>
      </trkpt>
      <trkpt lat="44.88624" lon="-0.40205">
        <ele>51.9</ele>
        <time>2020-09-10T10:07:08Z</time>
      </trkpt>
      <trkpt lat="44.88624" lon="-0.40206">
        <ele>51.8</ele>
        <time>2020-09-10T10:07:09Z</time>
      </trkpt>
      <trkpt lat="44.88625" lon="-0.40209">
        <ele>51.6</ele>
        <time>2020-09-10T10:07:11Z</time>
      </trkpt>
      <trkpt lat="44.88626" lon="-0.4021">
        <ele>51.5</ele>
        <time>2020-09-10T10:07:12Z</time>
      </trkpt>
      <trkpt lat="44.88626" lon="-0.40211">
        <ele>51.4</ele>
        <time>2020-09-10T10:07:13Z</time>
      </trkpt>
      <trkpt lat="44.88627" lon="-0.40213">
        <ele>51.3</ele>
        <time>2020-09-10T10:07:14Z</time>
      </trkpt>
      <trkpt lat="44.88628" lon="-0.40216">
        <ele>51</ele>
        <time>2020-09-10T10:07:15Z</time>
      </trkpt>
      <trkpt lat="44.88628" lon="-0.40217">
        <ele>51</ele>
        <time>2020-09-10T10:07:17Z</time>
      </trkpt>
      <trkpt lat="44.88629" lon="-0.40219">
        <ele>50.9</ele>
        <time>2020-09-10T10:07:18Z</time>
      </trkpt>
      <trkpt lat="44.88629" lon="-0.4022">
        <ele>50.8</ele>
        <time>2020-09-10T10:07:19Z</time>
      </trkpt>
      <trkpt lat="44.88629" lon="-0.40221">
        <ele>50.7</ele>
        <time>2020-09-10T10:07:20Z</time>
      </trkpt>
      <trkpt lat="44.8863" lon="-0.40223">
        <ele>50.5</ele>
        <time>2020-09-10T10:07:21Z</time>
      </trkpt>
      <trkpt lat="44.88631" lon="-0.40226">
        <ele>50.4</ele>
        <time>2020-09-10T10:07:23Z</time>
      </trkpt>
      <trkpt lat="44.88631" lon="-0.40227">
        <ele>50.3</ele>
        <time>2020-09-10T10:07:24Z</time>
      </trkpt>
      <trkpt lat="44.88632" lon="-0.4023">
        <ele>50.1</ele>
        <time>2020-09-10T10:07:25Z</time>
      </trkpt>
      <trkpt lat="44.88633" lon="-0.40233">
        <ele>49.9</ele>
        <time>2020-09-10T10:07:27Z</time>
      </trkpt>
      <trkpt lat="44.88634" lon="-0.40234">
        <ele>49.8</ele>
        <time>2020-09-10T10:07:28Z</time>
      </trkpt>
      <trkpt lat="44.88634" lon="-0.40235">
        <ele>49.8</ele>
        <time>2020-09-10T10:07:29Z</time>
      </trkpt>
      <trkpt lat="44.88635" lon="-0.40238">
        <ele>49.5</ele>
        <time>2020-09-10T10:07:30Z</time>
      </trkpt>
      <trkpt lat="44.88636" lon="-0.4024">
        <ele>49.5</ele>
        <time>2020-09-10T10:07:31Z</time>
      </trkpt>
      <trkpt lat="44.88636" lon="-0.40241">
        <ele>49.4</ele>
        <time>2020-09-10T10:07:32Z</time>
      </trkpt>
      <trkpt lat="44.88637" lon="-0.40243">
        <ele>49.3</ele>
        <time>2020-09-10T10:07:33Z</time>
      </trkpt>
      <trkpt lat="44.88638" lon="-0.40245">
        <ele>49.1</ele>
        <time>2020-09-10T10:07:35Z</time>
      </trkpt>
      <trkpt lat="44.8864" lon="-0.40249">
        <ele>48.9</ele>
        <time>2020-09-10T10:07:36Z</time>
      </trkpt>
      <trkpt lat="44.8864" lon="-0.4025">
        <ele>48.8</ele>
        <time>2020-09-10T10:07:37Z</time>
      </trkpt>
      <trkpt lat="44.88641" lon="-0.40251">
        <ele>48.8</ele>
        <time>2020-09-10T10:07:39Z</time>
      </trkpt>
      <trkpt lat="44.88641" lon="-0.40252">
        <ele>48.7</ele>
        <time>2020-09-10T10:07:40Z</time>
      </trkpt>
      <trkpt lat="44.88642" lon="-0.40254">
        <ele>48.6</ele>
        <time>2020-09-10T10:07:41Z</time>
      </trkpt>
      <trkpt lat="44.88642" lon="-0.40255">
        <ele>48.5</ele>
        <time>2020-09-10T10:07:42Z</time>
      </trkpt>
      <trkpt lat="44.88643" lon="-0.40256">
        <ele>48.4</ele>
        <time>2020-09-10T10:07:43Z</time>
      </trkpt>
      <trkpt lat="44.88644" lon="-0.40257">
        <ele>48.4</ele>
        <time>2020-09-10T10:07:44Z</time>
      </trkpt>
      <trkpt lat="44.88645" lon="-0.40259">
        <ele>48.2</ele>
        <time>2020-09-10T10:07:45Z</time>
      </trkpt>
      <trkpt lat="44.88645" lon="-0.4026">
        <ele>48.2</ele>
        <time>2020-09-10T10:07:47Z</time>
      </trkpt>
      <trkpt lat="44.88645" lon="-0.40261">
        <ele>48.1</ele>
        <time>2020-09-10T10:07:48Z</time>
      </trkpt>
      <trkpt lat="44.88646" lon="-0.40262">
        <ele>48.1</ele>
        <time>2020-09-10T10:07:49Z</time>
      </trkpt>
      <trkpt lat="44.88647" lon="-0.40264">
        <ele>47.9</ele>
        <time>2020-09-10T10:07:51Z</time>
      </trkpt>
      <trkpt lat="44.88647" lon="-0.40265">
        <ele>47.9</ele>
        <time>2020-09-10T10:07:53Z</time>
      </trkpt>
      <trkpt lat="44.88648" lon="-0.40266">
        <ele>47.8</ele>
        <time>2020-09-10T10:07:54Z</time>
      </trkpt>
      <trkpt lat="44.88648" lon="-0.40268">
        <ele>47.7</ele>
        <time>2020-09-10T10:07:55Z</time>
      </trkpt>
      <trkpt lat="44.88648" lon="-0.40269">
        <ele>47.7</ele>
        <time>2020-09-10T10:07:56Z</time>
      </trkpt>
      <trkpt lat="44.88649" lon="-0.4027">
        <ele>47.6</ele>
        <time>2020-09-10T10:07:58Z</time>
      </trkpt>
      <trkpt lat="44.88649" lon="-0.40272">
        <ele>47.6</ele>
        <time>2020-09-10T10:07:59Z</time>
      </trkpt>
      <trkpt lat="44.88649" lon="-0.40273">
        <ele>47.5</ele>
        <time>2020-09-10T10:08:00Z</time>
      </trkpt>
      <trkpt lat="44.8865" lon="-0.40275">
        <ele>47.4</ele>
        <time>2020-09-10T10:08:01Z</time>
      </trkpt>
      <trkpt lat="44.8865" lon="-0.40276">
        <ele>47.3</ele>
        <time>2020-09-10T10:08:02Z</time>
      </trkpt>
      <trkpt lat="44.88651" lon="-0.40279">
        <ele>47.2</ele>
        <time>2020-09-10T10:08:04Z</time>
      </trkpt>
      <trkpt lat="44.88651" lon="-0.40281">
        <ele>47.1</ele>
        <time>2020-09-10T10:08:05Z</time>
      </trkpt>
      <trkpt lat="44.88652" lon="-0.40283">
        <ele>47</ele>
        <time>2020-09-10T10:08:06Z</time>
      </trkpt>
      <trkpt lat="44.88653" lon="-0.40285">
        <ele>46.9</ele>
        <time>2020-09-10T10:08:07Z</time>
      </trkpt>
      <trkpt lat="44.88653" lon="-0.40286">
        <ele>46.9</ele>
        <time>2020-09-10T10:08:09Z</time>
      </trkpt>
      <trkpt lat="44.88653" lon="-0.40288">
        <ele>46.8</ele>
        <time>2020-09-10T10:08:10Z</time>
      </trkpt>
      <trkpt lat="44.88653" lon="-0.40289">
        <ele>46.8</ele>
        <time>2020-09-10T10:08:11Z</time>
      </trkpt>
      <trkpt lat="44.88654" lon="-0.40291">
        <ele>46.7</ele>
        <time>2020-09-10T10:08:12Z</time>
      </trkpt>
      <trkpt lat="44.88654" lon="-0.40292">
        <ele>46.6</ele>
        <time>2020-09-10T10:08:13Z</time>
      </trkpt>
      <trkpt lat="44.88654" lon="-0.40293">
        <ele>46.6</ele>
        <time>2020-09-10T10:08:14Z</time>
      </trkpt>
      <trkpt lat="44.88654" lon="-0.40294">
        <ele>46.6</ele>
        <time>2020-09-10T10:08:15Z</time>
      </trkpt>
      <trkpt lat="44.88655" lon="-0.40296">
        <ele>46.5</ele>
        <time>2020-09-10T10:08:16Z</time>
      </trkpt>
      <trkpt lat="44.88655" lon="-0.40298">
        <ele>46.4</ele>
        <time>2020-09-10T10:08:18Z</time>
      </trkpt>
      <trkpt lat="44.88655" lon="-0.40299">
        <ele>46.3</ele>
        <time>2020-09-10T10:08:19Z</time>
      </trkpt>
      <trkpt lat="44.88656" lon="-0.40302">
        <ele>46.2</ele>
        <time>2020-09-10T10:08:21Z</time>
      </trkpt>
      <trkpt lat="44.88656" lon="-0.40303">
        <ele>46.2</ele>
        <time>2020-09-10T10:08:22Z</time>
      </trkpt>
      <trkpt lat="44.88656" lon="-0.40304">
        <ele>46.1</ele>
        <time>2020-09-10T10:08:23Z</time>
      </trkpt>
      <trkpt lat="44.88656" lon="-0.40305">
        <ele>46.1</ele>
        <time>2020-09-10T10:08:24Z</time>
      </trkpt>
      <trkpt lat="44.88656" lon="-0.40307">
        <ele>46</ele>
        <time>2020-09-10T10:08:25Z</time>
      </trkpt>
      <trkpt lat="44.88656" lon="-0.40309">
        <ele>45.9</ele>
        <time>2020-09-10T10:08:27Z</time>
      </trkpt>
      <trkpt lat="44.88657" lon="-0.4031">
        <ele>45.9</ele>
        <time>2020-09-10T10:08:28Z</time>
      </trkpt>
      <trkpt lat="44.88657" lon="-0.40312">
        <ele>45.8</ele>
        <time>2020-09-10T10:08:29Z</time>
      </trkpt>
      <trkpt lat="44.88657" lon="-0.40313">
        <ele>45.8</ele>
        <time>2020-09-10T10:08:30Z</time>
      </trkpt>
      <trkpt lat="44.88658" lon="-0.40315">
        <ele>45.6</ele>
        <time>2020-09-10T10:08:31Z</time>
      </trkpt>
      <trkpt lat="44.88658" lon="-0.40318">
        <ele>45.5</ele>
        <time>2020-09-10T10:08:33Z</time>
      </trkpt>
      <trkpt lat="44.88658" lon="-0.40319">
        <ele>45.5</ele>
        <time>2020-09-10T10:08:34Z</time>
      </trkpt>
      <trkpt lat="44.88657" lon="-0.40322">
        <ele>45.4</ele>
        <time>2020-09-10T10:08:36Z</time>
      </trkpt>
      <trkpt lat="44.88657" lon="-0.40322">
        <ele>45.3</ele>
        <time>2020-09-10T10:08:38Z</time>
      </trkpt>
      <trkpt lat="44.88657" lon="-0.40321">
        <ele>45.3</ele>
        <time>2020-09-10T10:08:40Z</time>
      </trkpt>
      <trkpt lat="44.88656" lon="-0.40321">
        <ele>45.3</ele>
        <time>2020-09-10T10:08:41Z</time>
      </trkpt>
      <trkpt lat="44.88656" lon="-0.40319">
        <ele>45.2</ele>
        <time>2020-09-10T10:08:42Z</time>
      </trkpt>
      <trkpt lat="44.88656" lon="-0.40317">
        <ele>45.2</ele>
        <time>2020-09-10T10:08:44Z</time>
      </trkpt>
      <trkpt lat="44.88657" lon="-0.40316">
        <ele>45.1</ele>
        <time>2020-09-10T10:08:46Z</time>
      </trkpt>
      <trkpt lat="44.88657" lon="-0.40315">
        <ele>45.1</ele>
        <time>2020-09-10T10:08:47Z</time>
      </trkpt>
      <trkpt lat="44.88658" lon="-0.40315">
        <ele>45.1</ele>
        <time>2020-09-10T10:08:49Z</time>
      </trkpt>
      <trkpt lat="44.88658" lon="-0.40316">
        <ele>45</ele>
        <time>2020-09-10T10:08:50Z</time>
      </trkpt>
      <trkpt lat="44.88658" lon="-0.40318">
        <ele>44.9</ele>
        <time>2020-09-10T10:08:52Z</time>
      </trkpt>
      <trkpt lat="44.88659" lon="-0.4032">
        <ele>44.9</ele>
        <time>2020-09-10T10:08:53Z</time>
      </trkpt>
      <trkpt lat="44.88659" lon="-0.40322">
        <ele>44.8</ele>
        <time>2020-09-10T10:08:54Z</time>
      </trkpt>
      <trkpt lat="44.88659" lon="-0.40325">
        <ele>44.7</ele>
        <time>2020-09-10T10:08:56Z</time>
      </trkpt>
      <trkpt lat="44.88659" lon="-0.40327">
        <ele>44.7</ele>
        <time>2020-09-10T10:08:57Z</time>
      </trkpt>
      <trkpt lat="44.88659" lon="-0.40329">
        <ele>44.6</ele>
        <time>2020-09-10T10:08:58Z</time>
      </trkpt>
      <trkpt lat="44.8866" lon="-0.40331">
        <ele>44.6</ele>
        <time>2020-09-10T10:08:59Z</time>
      </trkpt>
      <trkpt lat="44.8866" lon="-0.40332">
        <ele>44.5</ele>
        <time>2020-09-10T10:09:00Z</time>
      </trkpt>
      <trkpt lat="44.88661" lon="-0.40334">
        <ele>44.5</ele>
        <time>2020-09-10T10:09:02Z</time>
      </trkpt>
      <trkpt lat="44.88662" lon="-0.40336">
        <ele>44.4</ele>
        <time>2020-09-10T10:09:03Z</time>
      </trkpt>
      <trkpt lat="44.88663" lon="-0.40338">
        <ele>44.3</ele>
        <time>2020-09-10T10:09:04Z</time>
      </trkpt>
      <trkpt lat="44.88663" lon="-0.4034">
        <ele>44.2</ele>
        <time>2020-09-10T10:09:05Z</time>
      </trkpt>
      <trkpt lat="44.88664" lon="-0.40342">
        <ele>44.2</ele>
        <time>2020-09-10T10:09:06Z</time>
      </trkpt>
      <trkpt lat="44.88664" lon="-0.40344">
        <ele>44.1</ele>
        <time>2020-09-10T10:09:07Z</time>
      </trkpt>
      <trkpt lat="44.88665" lon="-0.40347">
        <ele>44.1</ele>
        <time>2020-09-10T10:09:09Z</time>
      </trkpt>
      <trkpt lat="44.88666" lon="-0.40349">
        <ele>44</ele>
        <time>2020-09-10T10:09:10Z</time>
      </trkpt>
      <trkpt lat="44.88667" lon="-0.40351">
        <ele>43.9</ele>
        <time>2020-09-10T10:09:11Z</time>
      </trkpt>
      <trkpt lat="44.88668" lon="-0.40353">
        <ele>43.9</ele>
        <time>2020-09-10T10:09:12Z</time>
      </trkpt>
      <trkpt lat="44.88669" lon="-0.40355">
        <ele>43.8</ele>
        <time>2020-09-10T10:09:14Z</time>
      </trkpt>
      <trkpt lat="44.8867" lon="-0.40356">
        <ele>43.8</ele>
        <time>2020-09-10T10:09:15Z</time>
      </trkpt>
      <trkpt lat="44.88671" lon="-0.40357">
        <ele>43.7</ele>
        <time>2020-09-10T10:09:16Z</time>
      </trkpt>
      <trkpt lat="44.88671" lon="-0.40359">
        <ele>43.7</ele>
        <time>2020-09-10T10:09:17Z</time>
      </trkpt>
      <trkpt lat="44.88672" lon="-0.40361">
        <ele>43.7</ele>
        <time>2020-09-10T10:09:18Z</time>
      </trkpt>
      <trkpt lat="44.88673" lon="-0.40363">
        <ele>43.6</ele>
        <time>2020-09-10T10:09:19Z</time>
      </trkpt>
      <trkpt lat="44.88674" lon="-0.40366">
        <ele>43.5</ele>
        <time>2020-09-10T10:09:20Z</time>
      </trkpt>
      <trkpt lat="44.88674" lon="-0.40367">
        <ele>43.5</ele>
        <time>2020-09-10T10:09:22Z</time>
      </trkpt>
      <trkpt lat="44.88675" lon="-0.40368">
        <ele>43.5</ele>
        <time>2020-09-10T10:09:23Z</time>
      </trkpt>
      <trkpt lat="44.88676" lon="-0.40371">
        <ele>43.4</ele>
        <time>2020-09-10T10:09:24Z</time>
      </trkpt>
      <trkpt lat="44.88676" lon="-0.40372">
        <ele>43.4</ele>
        <time>2020-09-10T10:09:25Z</time>
      </trkpt>
      <trkpt lat="44.88677" lon="-0.40372">
        <ele>43.3</ele>
        <time>2020-09-10T10:09:26Z</time>
      </trkpt>
      <trkpt lat="44.88677" lon="-0.40373">
        <ele>43.3</ele>
        <time>2020-09-10T10:09:27Z</time>
      </trkpt>
      <trkpt lat="44.88678" lon="-0.40374">
        <ele>43.3</ele>
        <time>2020-09-10T10:09:29Z</time>
      </trkpt>
      <trkpt lat="44.88679" lon="-0.40375">
        <ele>43.2</ele>
        <time>2020-09-10T10:09:30Z</time>
      </trkpt>
      <trkpt lat="44.8868" lon="-0.40377">
        <ele>43.2</ele>
        <time>2020-09-10T10:09:31Z</time>
      </trkpt>
      <trkpt lat="44.88681" lon="-0.40378">
        <ele>43.1</ele>
        <time>2020-09-10T10:09:32Z</time>
      </trkpt>
      <trkpt lat="44.88681" lon="-0.40379">
        <ele>43.1</ele>
        <time>2020-09-10T10:09:33Z</time>
      </trkpt>
      <trkpt lat="44.88683" lon="-0.40381">
        <ele>43</ele>
        <time>2020-09-10T10:09:35Z</time>
      </trkpt>
      <trkpt lat="44.88684" lon="-0.40382">
        <ele>43</ele>
        <time>2020-09-10T10:09:36Z</time>
      </trkpt>
      <trkpt lat="44.88685" lon="-0.40383">
        <ele>42.9</ele>
        <time>2020-09-10T10:09:37Z</time>
      </trkpt>
      <trkpt lat="44.88686" lon="-0.40384">
        <ele>42.9</ele>
        <time>2020-09-10T10:09:38Z</time>
      </trkpt>
      <trkpt lat="44.88687" lon="-0.40385">
        <ele>42.9</ele>
        <time>2020-09-10T10:09:40Z</time>
      </trkpt>
      <trkpt lat="44.88689" lon="-0.40387">
        <ele>42.8</ele>
        <time>2020-09-10T10:09:41Z</time>
      </trkpt>
      <trkpt lat="44.88689" lon="-0.40388">
        <ele>42.8</ele>
        <time>2020-09-10T10:09:42Z</time>
      </trkpt>
      <trkpt lat="44.8869" lon="-0.40388">
        <ele>42.7</ele>
        <time>2020-09-10T10:09:43Z</time>
      </trkpt>
      <trkpt lat="44.88692" lon="-0.40389">
        <ele>42.7</ele>
        <time>2020-09-10T10:09:44Z</time>
      </trkpt>
      <trkpt lat="44.88693" lon="-0.4039">
        <ele>42.7</ele>
        <time>2020-09-10T10:09:45Z</time>
      </trkpt>
      <trkpt lat="44.88693" lon="-0.4039">
        <ele>42.6</ele>
        <time>2020-09-10T10:09:46Z</time>
      </trkpt>
      <trkpt lat="44.88694" lon="-0.40391">
        <ele>42.6</ele>
        <time>2020-09-10T10:09:48Z</time>
      </trkpt>
      <trkpt lat="44.88697" lon="-0.40392">
        <ele>42.5</ele>
        <time>2020-09-10T10:09:49Z</time>
      </trkpt>
      <trkpt lat="44.88699" lon="-0.40393">
        <ele>42.5</ele>
        <time>2020-09-10T10:09:51Z</time>
      </trkpt>
      <trkpt lat="44.887" lon="-0.40393">
        <ele>42.4</ele>
        <time>2020-09-10T10:09:53Z</time>
      </trkpt>
      <trkpt lat="44.88701" lon="-0.40394">
        <ele>42.4</ele>
        <time>2020-09-10T10:09:54Z</time>
      </trkpt>
      <trkpt lat="44.88702" lon="-0.40394">
        <ele>42.4</ele>
        <time>2020-09-10T10:09:55Z</time>
      </trkpt>
      <trkpt lat="44.88703" lon="-0.40394">
        <ele>42.3</ele>
        <time>2020-09-10T10:09:56Z</time>
      </trkpt>
      <trkpt lat="44.88705" lon="-0.40394">
        <ele>42.3</ele>
        <time>2020-09-10T10:09:58Z</time>
      </trkpt>
      <trkpt lat="44.88707" lon="-0.40395">
        <ele>42.2</ele>
        <time>2020-09-10T10:09:59Z</time>
      </trkpt>
      <trkpt lat="44.88707" lon="-0.40394">
        <ele>42.2</ele>
        <time>2020-09-10T10:10:00Z</time>
      </trkpt>
      <trkpt lat="44.88708" lon="-0.40394">
        <ele>42.1</ele>
        <time>2020-09-10T10:10:01Z</time>
      </trkpt>
      <trkpt lat="44.8871" lon="-0.40394">
        <ele>42.1</ele>
        <time>2020-09-10T10:10:02Z</time>
      </trkpt>
      <trkpt lat="44.88711" lon="-0.40394">
        <ele>42</ele>
        <time>2020-09-10T10:10:03Z</time>
      </trkpt>
      <trkpt lat="44.88713" lon="-0.40395">
        <ele>42</ele>
        <time>2020-09-10T10:10:04Z</time>
      </trkpt>
      <trkpt lat="44.88714" lon="-0.40395">
        <ele>41.9</ele>
        <time>2020-09-10T10:10:05Z</time>
      </trkpt>
      <trkpt lat="44.88715" lon="-0.40395">
        <ele>41.9</ele>
        <time>2020-09-10T10:10:07Z</time>
      </trkpt>
      <trkpt lat="44.88716" lon="-0.40396">
        <ele>41.8</ele>
        <time>2020-09-10T10:10:08Z</time>
      </trkpt>
      <trkpt lat="44.88718" lon="-0.40396">
        <ele>41.7</ele>
        <time>2020-09-10T10:10:09Z</time>
      </trkpt>
      <trkpt lat="44.88719" lon="-0.40397">
        <ele>41.7</ele>
        <time>2020-09-10T10:10:10Z</time>
      </trkpt>
      <trkpt lat="44.8872" lon="-0.40397">
        <ele>41.6</ele>
        <time>2020-09-10T10:10:11Z</time>
      </trkpt>
      <trkpt lat="44.88721" lon="-0.40398">
        <ele>41.6</ele>
        <time>2020-09-10T10:10:12Z</time>
      </trkpt>
      <trkpt lat="44.88723" lon="-0.40398">
        <ele>41.5</ele>
        <time>2020-09-10T10:10:13Z</time>
      </trkpt>
      <trkpt lat="44.88724" lon="-0.40399">
        <ele>41.4</ele>
        <time>2020-09-10T10:10:14Z</time>
      </trkpt>
      <trkpt lat="44.88725" lon="-0.404">
        <ele>41.4</ele>
        <time>2020-09-10T10:10:15Z</time>
      </trkpt>
      <trkpt lat="44.88726" lon="-0.404">
        <ele>41.3</ele>
        <time>2020-09-10T10:10:16Z</time>
      </trkpt>
      <trkpt lat="44.88728" lon="-0.40402">
        <ele>41.3</ele>
        <time>2020-09-10T10:10:18Z</time>
      </trkpt>
      <trkpt lat="44.88729" lon="-0.40402">
        <ele>41.2</ele>
        <time>2020-09-10T10:10:19Z</time>
      </trkpt>
      <trkpt lat="44.88731" lon="-0.40403">
        <ele>41.1</ele>
        <time>2020-09-10T10:10:20Z</time>
      </trkpt>
      <trkpt lat="44.88733" lon="-0.40405">
        <ele>41</ele>
        <time>2020-09-10T10:10:21Z</time>
      </trkpt>
      <trkpt lat="44.88733" lon="-0.40406">
        <ele>41</ele>
        <time>2020-09-10T10:10:22Z</time>
      </trkpt>
      <trkpt lat="44.88734" lon="-0.40406">
        <ele>41</ele>
        <time>2020-09-10T10:10:23Z</time>
      </trkpt>
      <trkpt lat="44.88735" lon="-0.40407">
        <ele>40.9</ele>
        <time>2020-09-10T10:10:24Z</time>
      </trkpt>
      <trkpt lat="44.88736" lon="-0.40409">
        <ele>40.8</ele>
        <time>2020-09-10T10:10:26Z</time>
      </trkpt>
      <trkpt lat="44.88737" lon="-0.40409">
        <ele>40.8</ele>
        <time>2020-09-10T10:10:27Z</time>
      </trkpt>
      <trkpt lat="44.88738" lon="-0.4041">
        <ele>40.8</ele>
        <time>2020-09-10T10:10:28Z</time>
      </trkpt>
      <trkpt lat="44.88738" lon="-0.4041">
        <ele>40.7</ele>
        <time>2020-09-10T10:10:29Z</time>
      </trkpt>
      <trkpt lat="44.88738" lon="-0.4041">
        <ele>40.7</ele>
        <time>2020-09-10T10:10:31Z</time>
      </trkpt>
      <trkpt lat="44.88739" lon="-0.40409">
        <ele>40.7</ele>
        <time>2020-09-10T10:10:32Z</time>
      </trkpt>
      <trkpt lat="44.88739" lon="-0.40407">
        <ele>40.7</ele>
        <time>2020-09-10T10:10:34Z</time>
      </trkpt>
      <trkpt lat="44.8874" lon="-0.40406">
        <ele>40.6</ele>
        <time>2020-09-10T10:10:35Z</time>
      </trkpt>
      <trkpt lat="44.8874" lon="-0.40406">
        <ele>40.6</ele>
        <time>2020-09-10T10:10:36Z</time>
      </trkpt>
      <trkpt lat="44.8874" lon="-0.40406">
        <ele>40.6</ele>
        <time>2020-09-10T10:10:37Z</time>
      </trkpt>
      <trkpt lat="44.8874" lon="-0.40405">
        <ele>40.6</ele>
        <time>2020-09-10T10:10:39Z</time>
      </trkpt>
      <trkpt lat="44.8874" lon="-0.40406">
        <ele>40.6</ele>
        <time>2020-09-10T10:10:40Z</time>
      </trkpt>
      <trkpt lat="44.8874" lon="-0.40407">
        <ele>40.5</ele>
        <time>2020-09-10T10:10:42Z</time>
      </trkpt>
      <trkpt lat="44.88741" lon="-0.40407">
        <ele>40.5</ele>
        <time>2020-09-10T10:10:43Z</time>
      </trkpt>
      <trkpt lat="44.88741" lon="-0.40408">
        <ele>40.5</ele>
        <time>2020-09-10T10:10:44Z</time>
      </trkpt>
      <trkpt lat="44.88742" lon="-0.40409">
        <ele>40.4</ele>
        <time>2020-09-10T10:10:45Z</time>
      </trkpt>
      <trkpt lat="44.88743" lon="-0.40412">
        <ele>40.4</ele>
        <time>2020-09-10T10:10:46Z</time>
      </trkpt>
      <trkpt lat="44.88744" lon="-0.40413">
        <ele>40.3</ele>
        <time>2020-09-10T10:10:48Z</time>
      </trkpt>
      <trkpt lat="44.88744" lon="-0.40414">
        <ele>40.3</ele>
        <time>2020-09-10T10:10:49Z</time>
      </trkpt>
      <trkpt lat="44.88745" lon="-0.40416">
        <ele>40.2</ele>
        <time>2020-09-10T10:10:50Z</time>
      </trkpt>
      <trkpt lat="44.88745" lon="-0.40417">
        <ele>40.2</ele>
        <time>2020-09-10T10:10:51Z</time>
      </trkpt>
      <trkpt lat="44.88745" lon="-0.40419">
        <ele>40.1</ele>
        <time>2020-09-10T10:10:52Z</time>
      </trkpt>
      <trkpt lat="44.88746" lon="-0.40425">
        <ele>40</ele>
        <time>2020-09-10T10:10:54Z</time>
      </trkpt>
      <trkpt lat="44.88746" lon="-0.40426">
        <ele>40</ele>
        <time>2020-09-10T10:10:56Z</time>
      </trkpt>
      <trkpt lat="44.88746" lon="-0.40427">
        <ele>39.9</ele>
        <time>2020-09-10T10:10:57Z</time>
      </trkpt>
      <trkpt lat="44.88745" lon="-0.40429">
        <ele>39.9</ele>
        <time>2020-09-10T10:10:58Z</time>
      </trkpt>
      <trkpt lat="44.88745" lon="-0.40432">
        <ele>39.8</ele>
        <time>2020-09-10T10:11:00Z</time>
      </trkpt>
      <trkpt lat="44.88744" lon="-0.40435">
        <ele>39.8</ele>
        <time>2020-09-10T10:11:02Z</time>
      </trkpt>
      <trkpt lat="44.88744" lon="-0.40436">
        <ele>39.7</ele>
        <time>2020-09-10T10:11:03Z</time>
      </trkpt>
      <trkpt lat="44.88744" lon="-0.40439">
        <ele>39.6</ele>
        <time>2020-09-10T10:11:05Z</time>
      </trkpt>
      <trkpt lat="44.88744" lon="-0.40441">
        <ele>39.6</ele>
        <time>2020-09-10T10:11:06Z</time>
      </trkpt>
      <trkpt lat="44.88744" lon="-0.40442">
        <ele>39.6</ele>
        <time>2020-09-10T10:11:07Z</time>
      </trkpt>
      <trkpt lat="44.88745" lon="-0.40443">
        <ele>39.6</ele>
        <time>2020-09-10T10:11:08Z</time>
      </trkpt>
      <trkpt lat="44.88745" lon="-0.40446">
        <ele>39.5</ele>
        <time>2020-09-10T10:11:09Z</time>
      </trkpt>
      <trkpt lat="44.88746" lon="-0.40448">
        <ele>39.4</ele>
        <time>2020-09-10T10:11:11Z</time>
      </trkpt>
      <trkpt lat="44.88746" lon="-0.4045">
        <ele>39.4</ele>
        <time>2020-09-10T10:11:13Z</time>
      </trkpt>
      <trkpt lat="44.88747" lon="-0.40451">
        <ele>39.4</ele>
        <time>2020-09-10T10:11:14Z</time>
      </trkpt>
      <trkpt lat="44.88747" lon="-0.40453">
        <ele>39.3</ele>
        <time>2020-09-10T10:11:15Z</time>
      </trkpt>
      <trkpt lat="44.88747" lon="-0.40454">
        <ele>39.3</ele>
        <time>2020-09-10T10:11:16Z</time>
      </trkpt>
      <trkpt lat="44.88748" lon="-0.40456">
        <ele>39.3</ele>
        <time>2020-09-10T10:11:17Z</time>
      </trkpt>
      <trkpt lat="44.88748" lon="-0.40459">
        <ele>39.2</ele>
        <time>2020-09-10T10:11:19Z</time>
      </trkpt>
      <trkpt lat="44.88748" lon="-0.4046">
        <ele>39.2</ele>
        <time>2020-09-10T10:11:20Z</time>
      </trkpt>
      <trkpt lat="44.88749" lon="-0.40461">
        <ele>39.1</ele>
        <time>2020-09-10T10:11:21Z</time>
      </trkpt>
      <trkpt lat="44.88749" lon="-0.40462">
        <ele>39.1</ele>
        <time>2020-09-10T10:11:22Z</time>
      </trkpt>
      <trkpt lat="44.88749" lon="-0.40466">
        <ele>39</ele>
        <time>2020-09-10T10:11:24Z</time>
      </trkpt>
      <trkpt lat="44.8875" lon="-0.40468">
        <ele>39</ele>
        <time>2020-09-10T10:11:25Z</time>
      </trkpt>
      <trkpt lat="44.8875" lon="-0.4047">
        <ele>38.9</ele>
        <time>2020-09-10T10:11:27Z</time>
      </trkpt>
      <trkpt lat="44.8875" lon="-0.40471">
        <ele>38.9</ele>
        <time>2020-09-10T10:11:28Z</time>
      </trkpt>
      <trkpt lat="44.8875" lon="-0.40473">
        <ele>38.9</ele>
        <time>2020-09-10T10:11:29Z</time>
      </trkpt>
      <trkpt lat="44.88751" lon="-0.40476">
        <ele>38.8</ele>
        <time>2020-09-10T10:11:30Z</time>
      </trkpt>
      <trkpt lat="44.88751" lon="-0.40477">
        <ele>38.7</ele>
        <time>2020-09-10T10:11:31Z</time>
      </trkpt>
      <trkpt lat="44.88751" lon="-0.40479">
        <ele>38.7</ele>
        <time>2020-09-10T10:11:32Z</time>
      </trkpt>
      <trkpt lat="44.88751" lon="-0.40481">
        <ele>38.7</ele>
        <time>2020-09-10T10:11:33Z</time>
      </trkpt>
      <trkpt lat="44.88752" lon="-0.40483">
        <ele>38.6</ele>
        <time>2020-09-10T10:11:34Z</time>
      </trkpt>
      <trkpt lat="44.88752" lon="-0.40484">
        <ele>38.6</ele>
        <time>2020-09-10T10:11:35Z</time>
      </trkpt>
      <trkpt lat="44.88752" lon="-0.40485">
        <ele>38.6</ele>
        <time>2020-09-10T10:11:36Z</time>
      </trkpt>
      <trkpt lat="44.88753" lon="-0.40486">
        <ele>38.5</ele>
        <time>2020-09-10T10:11:37Z</time>
      </trkpt>
      <trkpt lat="44.88754" lon="-0.4049">
        <ele>38.4</ele>
        <time>2020-09-10T10:11:39Z</time>
      </trkpt>
      <trkpt lat="44.88754" lon="-0.4049">
        <ele>38.4</ele>
        <time>2020-09-10T10:11:40Z</time>
      </trkpt>
      <trkpt lat="44.88754" lon="-0.40491">
        <ele>38.4</ele>
        <time>2020-09-10T10:11:42Z</time>
      </trkpt>
      <trkpt lat="44.88754" lon="-0.40493">
        <ele>38.4</ele>
        <time>2020-09-10T10:11:43Z</time>
      </trkpt>
      <trkpt lat="44.88755" lon="-0.40496">
        <ele>38.3</ele>
        <time>2020-09-10T10:11:45Z</time>
      </trkpt>
      <trkpt lat="44.88755" lon="-0.40498">
        <ele>38.3</ele>
        <time>2020-09-10T10:11:46Z</time>
      </trkpt>
      <trkpt lat="44.88755" lon="-0.405">
        <ele>38.2</ele>
        <time>2020-09-10T10:11:47Z</time>
      </trkpt>
      <trkpt lat="44.88755" lon="-0.40501">
        <ele>38.2</ele>
        <time>2020-09-10T10:11:48Z</time>
      </trkpt>
      <trkpt lat="44.88755" lon="-0.40503">
        <ele>38.2</ele>
        <time>2020-09-10T10:11:49Z</time>
      </trkpt>
      <trkpt lat="44.88754" lon="-0.40503">
        <ele>38.2</ele>
        <time>2020-09-10T10:11:51Z</time>
      </trkpt>
      <trkpt lat="44.88754" lon="-0.40503">
        <ele>38.1</ele>
        <time>2020-09-10T10:11:53Z</time>
      </trkpt>
      <trkpt lat="44.88753" lon="-0.40502">
        <ele>38.1</ele>
        <time>2020-09-10T10:11:54Z</time>
      </trkpt>
      <trkpt lat="44.88753" lon="-0.40503">
        <ele>38.1</ele>
        <time>2020-09-10T10:11:55Z</time>
      </trkpt>
      <trkpt lat="44.88753" lon="-0.40505">
        <ele>38.1</ele>
        <time>2020-09-10T10:11:57Z</time>
      </trkpt>
      <trkpt lat="44.88753" lon="-0.40506">
        <ele>38.1</ele>
        <time>2020-09-10T10:11:58Z</time>
      </trkpt>
      <trkpt lat="44.88753" lon="-0.40509">
        <ele>38</ele>
        <time>2020-09-10T10:12:00Z</time>
      </trkpt>
      <trkpt lat="44.88753" lon="-0.4051">
        <ele>38</ele>
        <time>2020-09-10T10:12:01Z</time>
      </trkpt>
      <trkpt lat="44.88753" lon="-0.40513">
        <ele>37.9</ele>
        <time>2020-09-10T10:12:02Z</time>
      </trkpt>
      <trkpt lat="44.88753" lon="-0.40515">
        <ele>37.9</ele>
        <time>2020-09-10T10:12:03Z</time>
      </trkpt>
      <trkpt lat="44.88754" lon="-0.40517">
        <ele>37.9</ele>
        <time>2020-09-10T10:12:04Z</time>
      </trkpt>
      <trkpt lat="44.88754" lon="-0.40521">
        <ele>37.8</ele>
        <time>2020-09-10T10:12:05Z</time>
      </trkpt>
      <trkpt lat="44.88755" lon="-0.40523">
        <ele>37.8</ele>
        <time>2020-09-10T10:12:07Z</time>
      </trkpt>
      <trkpt lat="44.88755" lon="-0.40525">
        <ele>37.8</ele>
        <time>2020-09-10T10:12:08Z</time>
      </trkpt>
      <trkpt lat="44.88756" lon="-0.40527">
        <ele>37.7</ele>
        <time>2020-09-10T10:12:10Z</time>
      </trkpt>
      <trkpt lat="44.88756" lon="-0.40529">
        <ele>37.7</ele>
        <time>2020-09-10T10:12:12Z</time>
      </trkpt>
      <trkpt lat="44.88757" lon="-0.40531">
        <ele>37.7</ele>
        <time>2020-09-10T10:12:13Z</time>
      </trkpt>
      <trkpt lat="44.88757" lon="-0.40534">
        <ele>37.7</ele>
        <time>2020-09-10T10:12:14Z</time>
      </trkpt>
      <trkpt lat="44.88758" lon="-0.40536">
        <ele>37.6</ele>
        <time>2020-09-10T10:12:15Z</time>
      </trkpt>
      <trkpt lat="44.88758" lon="-0.40538">
        <ele>37.6</ele>
        <time>2020-09-10T10:12:16Z</time>
      </trkpt>
      <trkpt lat="44.88759" lon="-0.4054">
        <ele>37.6</ele>
        <time>2020-09-10T10:12:17Z</time>
      </trkpt>
      <trkpt lat="44.8876" lon="-0.40543">
        <ele>37.6</ele>
        <time>2020-09-10T10:12:18Z</time>
      </trkpt>
      <trkpt lat="44.8876" lon="-0.40545">
        <ele>37.5</ele>
        <time>2020-09-10T10:12:20Z</time>
      </trkpt>
      <trkpt lat="44.8876" lon="-0.40546">
        <ele>37.5</ele>
        <time>2020-09-10T10:12:21Z</time>
      </trkpt>
      <trkpt lat="44.88761" lon="-0.40547">
        <ele>37.5</ele>
        <time>2020-09-10T10:12:22Z</time>
      </trkpt>
      <trkpt lat="44.88761" lon="-0.40549">
        <ele>37.5</ele>
        <time>2020-09-10T10:12:23Z</time>
      </trkpt>
      <trkpt lat="44.88761" lon="-0.40552">
        <ele>37.4</ele>
        <time>2020-09-10T10:12:24Z</time>
      </trkpt>
      <trkpt lat="44.88761" lon="-0.40553">
        <ele>37.4</ele>
        <time>2020-09-10T10:12:26Z</time>
      </trkpt>
      <trkpt lat="44.88761" lon="-0.40555">
        <ele>37.4</ele>
        <time>2020-09-10T10:12:27Z</time>
      </trkpt>
      <trkpt lat="44.88761" lon="-0.40556">
        <ele>37.4</ele>
        <time>2020-09-10T10:12:28Z</time>
      </trkpt>
      <trkpt lat="44.88761" lon="-0.40557">
        <ele>37.4</ele>
        <time>2020-09-10T10:12:29Z</time>
      </trkpt>
      <trkpt lat="44.88761" lon="-0.40558">
        <ele>37.4</ele>
        <time>2020-09-10T10:12:30Z</time>
      </trkpt>
      <trkpt lat="44.88761" lon="-0.4056">
        <ele>37.4</ele>
        <time>2020-09-10T10:12:31Z</time>
      </trkpt>
      <trkpt lat="44.88762" lon="-0.40562">
        <ele>37.3</ele>
        <time>2020-09-10T10:12:33Z</time>
      </trkpt>
      <trkpt lat="44.88762" lon="-0.40563">
        <ele>37.3</ele>
        <time>2020-09-10T10:12:34Z</time>
      </trkpt>
      <trkpt lat="44.88762" lon="-0.40565">
        <ele>37.3</ele>
        <time>2020-09-10T10:12:35Z</time>
      </trkpt>
      <trkpt lat="44.88762" lon="-0.40568">
        <ele>37.3</ele>
        <time>2020-09-10T10:12:37Z</time>
      </trkpt>
      <trkpt lat="44.88762" lon="-0.40569">
        <ele>37.3</ele>
        <time>2020-09-10T10:12:38Z</time>
      </trkpt>
      <trkpt lat="44.88762" lon="-0.40571">
        <ele>37.2</ele>
        <time>2020-09-10T10:12:39Z</time>
      </trkpt>
      <trkpt lat="44.88762" lon="-0.40574">
        <ele>37.2</ele>
        <time>2020-09-10T10:12:41Z</time>
      </trkpt>
      <trkpt lat="44.88762" lon="-0.40575">
        <ele>37.2</ele>
        <time>2020-09-10T10:12:42Z</time>
      </trkpt>
      <trkpt lat="44.88762" lon="-0.40577">
        <ele>37.2</ele>
        <time>2020-09-10T10:12:44Z</time>
      </trkpt>
      <trkpt lat="44.88762" lon="-0.40578">
        <ele>37.2</ele>
        <time>2020-09-10T10:12:45Z</time>
      </trkpt>
      <trkpt lat="44.88762" lon="-0.40582">
        <ele>37.1</ele>
        <time>2020-09-10T10:12:46Z</time>
      </trkpt>
      <trkpt lat="44.88761" lon="-0.40584">
        <ele>37.1</ele>
        <time>2020-09-10T10:12:48Z</time>
      </trkpt>
      <trkpt lat="44.88762" lon="-0.40586">
        <ele>37.1</ele>
        <time>2020-09-10T10:12:49Z</time>
      </trkpt>
      <trkpt lat="44.88762" lon="-0.40588">
        <ele>37.1</ele>
        <time>2020-09-10T10:12:50Z</time>
      </trkpt>
      <trkpt lat="44.88761" lon="-0.40593">
        <ele>37.1</ele>
        <time>2020-09-10T10:12:52Z</time>
      </trkpt>
      <trkpt lat="44.88761" lon="-0.40596">
        <ele>37</ele>
        <time>2020-09-10T10:12:53Z</time>
      </trkpt>
      <trkpt lat="44.88761" lon="-0.40598">
        <ele>37</ele>
        <time>2020-09-10T10:12:54Z</time>
      </trkpt>
      <trkpt lat="44.88761" lon="-0.406">
        <ele>37</ele>
        <time>2020-09-10T10:12:56Z</time>
      </trkpt>
      <trkpt lat="44.88761" lon="-0.40601">
        <ele>37</ele>
        <time>2020-09-10T10:12:57Z</time>
      </trkpt>
      <trkpt lat="44.88761" lon="-0.40603">
        <ele>37</ele>
        <time>2020-09-10T10:12:59Z</time>
      </trkpt>
      <trkpt lat="44.8876" lon="-0.40606">
        <ele>37</ele>
        <time>2020-09-10T10:13:00Z</time>
      </trkpt>
      <trkpt lat="44.8876" lon="-0.40608">
        <ele>37</ele>
        <time>2020-09-10T10:13:01Z</time>
      </trkpt>
      <trkpt lat="44.8876" lon="-0.40611">
        <ele>37</ele>
        <time>2020-09-10T10:13:03Z</time>
      </trkpt>
      <trkpt lat="44.88759" lon="-0.40614">
        <ele>37</ele>
        <time>2020-09-10T10:13:04Z</time>
      </trkpt>
      <trkpt lat="44.88759" lon="-0.40615">
        <ele>37</ele>
        <time>2020-09-10T10:13:05Z</time>
      </trkpt>
      <trkpt lat="44.88759" lon="-0.40616">
        <ele>36.9</ele>
        <time>2020-09-10T10:13:06Z</time>
      </trkpt>
      <trkpt lat="44.88759" lon="-0.40619">
        <ele>36.9</ele>
        <time>2020-09-10T10:13:08Z</time>
      </trkpt>
      <trkpt lat="44.88759" lon="-0.40621">
        <ele>36.9</ele>
        <time>2020-09-10T10:13:09Z</time>
      </trkpt>
      <trkpt lat="44.8876" lon="-0.40625">
        <ele>36.9</ele>
        <time>2020-09-10T10:13:11Z</time>
      </trkpt>
      <trkpt lat="44.8876" lon="-0.40626">
        <ele>36.9</ele>
        <time>2020-09-10T10:13:12Z</time>
      </trkpt>
      <trkpt lat="44.8876" lon="-0.40628">
        <ele>36.9</ele>
        <time>2020-09-10T10:13:13Z</time>
      </trkpt>
      <trkpt lat="44.88761" lon="-0.4063">
        <ele>36.9</ele>
        <time>2020-09-10T10:13:14Z</time>
      </trkpt>
      <trkpt lat="44.88761" lon="-0.40632">
        <ele>36.8</ele>
        <time>2020-09-10T10:13:15Z</time>
      </trkpt>
      <trkpt lat="44.88761" lon="-0.40634">
        <ele>36.8</ele>
        <time>2020-09-10T10:13:17Z</time>
      </trkpt>
      <trkpt lat="44.88761" lon="-0.40635">
        <ele>36.8</ele>
        <time>2020-09-10T10:13:18Z</time>
      </trkpt>
      <trkpt lat="44.88762" lon="-0.40637">
        <ele>36.8</ele>
        <time>2020-09-10T10:13:19Z</time>
      </trkpt>
      <trkpt lat="44.88762" lon="-0.40639">
        <ele>36.8</ele>
        <time>2020-09-10T10:13:20Z</time>
      </trkpt>
      <trkpt lat="44.88762" lon="-0.4064">
        <ele>36.7</ele>
        <time>2020-09-10T10:13:21Z</time>
      </trkpt>
      <trkpt lat="44.88762" lon="-0.40643">
        <ele>36.7</ele>
        <time>2020-09-10T10:13:23Z</time>
      </trkpt>
      <trkpt lat="44.88761" lon="-0.40647">
        <ele>36.7</ele>
        <time>2020-09-10T10:13:25Z</time>
      </trkpt>
      <trkpt lat="44.88761" lon="-0.40648">
        <ele>36.7</ele>
        <time>2020-09-10T10:13:26Z</time>
      </trkpt>
      <trkpt lat="44.88761" lon="-0.40649">
        <ele>36.7</ele>
        <time>2020-09-10T10:13:27Z</time>
      </trkpt>
      <trkpt lat="44.88761" lon="-0.40652">
        <ele>36.6</ele>
        <time>2020-09-10T10:13:29Z</time>
      </trkpt>
      <trkpt lat="44.8876" lon="-0.40654">
        <ele>36.6</ele>
        <time>2020-09-10T10:13:31Z</time>
      </trkpt>
      <trkpt lat="44.88761" lon="-0.40656">
        <ele>36.6</ele>
        <time>2020-09-10T10:13:32Z</time>
      </trkpt>
      <trkpt lat="44.8876" lon="-0.40659">
        <ele>36.5</ele>
        <time>2020-09-10T10:13:33Z</time>
      </trkpt>
      <trkpt lat="44.8876" lon="-0.40661">
        <ele>36.5</ele>
        <time>2020-09-10T10:13:34Z</time>
      </trkpt>
      <trkpt lat="44.8876" lon="-0.40663">
        <ele>36.5</ele>
        <time>2020-09-10T10:13:35Z</time>
      </trkpt>
      <trkpt lat="44.8876" lon="-0.40664">
        <ele>36.5</ele>
        <time>2020-09-10T10:13:37Z</time>
      </trkpt>
      <trkpt lat="44.88761" lon="-0.40666">
        <ele>36.5</ele>
        <time>2020-09-10T10:13:38Z</time>
      </trkpt>
      <trkpt lat="44.88761" lon="-0.40668">
        <ele>36.5</ele>
        <time>2020-09-10T10:13:39Z</time>
      </trkpt>
      <trkpt lat="44.88761" lon="-0.4067">
        <ele>36.4</ele>
        <time>2020-09-10T10:13:41Z</time>
      </trkpt>
      <trkpt lat="44.88761" lon="-0.40672">
        <ele>36.4</ele>
        <time>2020-09-10T10:13:42Z</time>
      </trkpt>
      <trkpt lat="44.88761" lon="-0.40674">
        <ele>36.4</ele>
        <time>2020-09-10T10:13:43Z</time>
      </trkpt>
      <trkpt lat="44.88762" lon="-0.40676">
        <ele>36.4</ele>
        <time>2020-09-10T10:13:44Z</time>
      </trkpt>
      <trkpt lat="44.88762" lon="-0.40678">
        <ele>36.3</ele>
        <time>2020-09-10T10:13:45Z</time>
      </trkpt>
      <trkpt lat="44.88763" lon="-0.40681">
        <ele>36.3</ele>
        <time>2020-09-10T10:13:47Z</time>
      </trkpt>
      <trkpt lat="44.88764" lon="-0.40684">
        <ele>36.3</ele>
        <time>2020-09-10T10:13:49Z</time>
      </trkpt>
      <trkpt lat="44.88764" lon="-0.40685">
        <ele>36.3</ele>
        <time>2020-09-10T10:13:50Z</time>
      </trkpt>
      <trkpt lat="44.88764" lon="-0.40687">
        <ele>36.2</ele>
        <time>2020-09-10T10:13:51Z</time>
      </trkpt>
      <trkpt lat="44.88765" lon="-0.40688">
        <ele>36.2</ele>
        <time>2020-09-10T10:13:52Z</time>
      </trkpt>
      <trkpt lat="44.88765" lon="-0.40689">
        <ele>36.2</ele>
        <time>2020-09-10T10:13:53Z</time>
      </trkpt>
      <trkpt lat="44.88765" lon="-0.40691">
        <ele>36.2</ele>
        <time>2020-09-10T10:13:54Z</time>
      </trkpt>
      <trkpt lat="44.88767" lon="-0.40696">
        <ele>36.1</ele>
        <time>2020-09-10T10:13:56Z</time>
      </trkpt>
      <trkpt lat="44.88767" lon="-0.40698">
        <ele>36.1</ele>
        <time>2020-09-10T10:13:57Z</time>
      </trkpt>
      <trkpt lat="44.88767" lon="-0.40699">
        <ele>36.1</ele>
        <time>2020-09-10T10:13:58Z</time>
      </trkpt>
      <trkpt lat="44.88767" lon="-0.407">
        <ele>36.1</ele>
        <time>2020-09-10T10:13:59Z</time>
      </trkpt>
      <trkpt lat="44.88767" lon="-0.40701">
        <ele>36.1</ele>
        <time>2020-09-10T10:14:00Z</time>
      </trkpt>
      <trkpt lat="44.88768" lon="-0.40704">
        <ele>36.1</ele>
        <time>2020-09-10T10:14:02Z</time>
      </trkpt>
      <trkpt lat="44.88768" lon="-0.40705">
        <ele>36</ele>
        <time>2020-09-10T10:14:03Z</time>
      </trkpt>
      <trkpt lat="44.88769" lon="-0.40706">
        <ele>36</ele>
        <time>2020-09-10T10:14:04Z</time>
      </trkpt>
      <trkpt lat="44.88769" lon="-0.4071">
        <ele>36</ele>
        <time>2020-09-10T10:14:06Z</time>
      </trkpt>
      <trkpt lat="44.88769" lon="-0.40711">
        <ele>36</ele>
        <time>2020-09-10T10:14:07Z</time>
      </trkpt>
      <trkpt lat="44.88769" lon="-0.40713">
        <ele>35.9</ele>
        <time>2020-09-10T10:14:08Z</time>
      </trkpt>
      <trkpt lat="44.88769" lon="-0.40715">
        <ele>35.9</ele>
        <time>2020-09-10T10:14:09Z</time>
      </trkpt>
      <trkpt lat="44.88769" lon="-0.40719">
        <ele>35.9</ele>
        <time>2020-09-10T10:14:11Z</time>
      </trkpt>
      <trkpt lat="44.88769" lon="-0.40721">
        <ele>35.8</ele>
        <time>2020-09-10T10:14:12Z</time>
      </trkpt>
      <trkpt lat="44.88769" lon="-0.40722">
        <ele>35.8</ele>
        <time>2020-09-10T10:14:13Z</time>
      </trkpt>
      <trkpt lat="44.88769" lon="-0.40724">
        <ele>35.8</ele>
        <time>2020-09-10T10:14:14Z</time>
      </trkpt>
      <trkpt lat="44.8877" lon="-0.40726">
        <ele>35.8</ele>
        <time>2020-09-10T10:14:15Z</time>
      </trkpt>
      <trkpt lat="44.8877" lon="-0.40728">
        <ele>35.8</ele>
        <time>2020-09-10T10:14:16Z</time>
      </trkpt>
      <trkpt lat="44.88771" lon="-0.40729">
        <ele>35.7</ele>
        <time>2020-09-10T10:14:17Z</time>
      </trkpt>
      <trkpt lat="44.88771" lon="-0.40731">
        <ele>35.7</ele>
        <time>2020-09-10T10:14:18Z</time>
      </trkpt>
      <trkpt lat="44.88772" lon="-0.40733">
        <ele>35.7</ele>
        <time>2020-09-10T10:14:20Z</time>
      </trkpt>
      <trkpt lat="44.88773" lon="-0.40736">
        <ele>35.6</ele>
        <time>2020-09-10T10:14:21Z</time>
      </trkpt>
      <trkpt lat="44.88773" lon="-0.40737">
        <ele>35.6</ele>
        <time>2020-09-10T10:14:22Z</time>
      </trkpt>
      <trkpt lat="44.88773" lon="-0.4074">
        <ele>35.6</ele>
        <time>2020-09-10T10:14:24Z</time>
      </trkpt>
      <trkpt lat="44.88774" lon="-0.40742">
        <ele>35.6</ele>
        <time>2020-09-10T10:14:25Z</time>
      </trkpt>
      <trkpt lat="44.88774" lon="-0.40744">
        <ele>35.6</ele>
        <time>2020-09-10T10:14:26Z</time>
      </trkpt>
      <trkpt lat="44.88774" lon="-0.40747">
        <ele>35.5</ele>
        <time>2020-09-10T10:14:27Z</time>
      </trkpt>
      <trkpt lat="44.88775" lon="-0.40749">
        <ele>35.5</ele>
        <time>2020-09-10T10:14:29Z</time>
      </trkpt>
      <trkpt lat="44.88775" lon="-0.40751">
        <ele>35.5</ele>
        <time>2020-09-10T10:14:30Z</time>
      </trkpt>
      <trkpt lat="44.88775" lon="-0.40753">
        <ele>35.5</ele>
        <time>2020-09-10T10:14:31Z</time>
      </trkpt>
      <trkpt lat="44.88775" lon="-0.40755">
        <ele>35.5</ele>
        <time>2020-09-10T10:14:32Z</time>
      </trkpt>
      <trkpt lat="44.88775" lon="-0.40756">
        <ele>35.4</ele>
        <time>2020-09-10T10:14:33Z</time>
      </trkpt>
      <trkpt lat="44.88776" lon="-0.40758">
        <ele>35.4</ele>
        <time>2020-09-10T10:14:34Z</time>
      </trkpt>
      <trkpt lat="44.88776" lon="-0.40762">
        <ele>35.4</ele>
        <time>2020-09-10T10:14:36Z</time>
      </trkpt>
      <trkpt lat="44.88777" lon="-0.40763">
        <ele>35.4</ele>
        <time>2020-09-10T10:14:37Z</time>
      </trkpt>
      <trkpt lat="44.88777" lon="-0.40764">
        <ele>35.4</ele>
        <time>2020-09-10T10:14:38Z</time>
      </trkpt>
      <trkpt lat="44.88777" lon="-0.40765">
        <ele>35.4</ele>
        <time>2020-09-10T10:14:39Z</time>
      </trkpt>
      <trkpt lat="44.88777" lon="-0.40767">
        <ele>35.3</ele>
        <time>2020-09-10T10:14:41Z</time>
      </trkpt>
      <trkpt lat="44.88777" lon="-0.40768">
        <ele>35.3</ele>
        <time>2020-09-10T10:14:42Z</time>
      </trkpt>
      <trkpt lat="44.88777" lon="-0.40768">
        <ele>35.3</ele>
        <time>2020-09-10T10:14:43Z</time>
      </trkpt>
      <trkpt lat="44.88778" lon="-0.4077">
        <ele>35.3</ele>
        <time>2020-09-10T10:14:44Z</time>
      </trkpt>
      <trkpt lat="44.88778" lon="-0.40771">
        <ele>35.3</ele>
        <time>2020-09-10T10:14:45Z</time>
      </trkpt>
      <trkpt lat="44.88778" lon="-0.40774">
        <ele>35.3</ele>
        <time>2020-09-10T10:14:46Z</time>
      </trkpt>
      <trkpt lat="44.88779" lon="-0.40776">
        <ele>35.2</ele>
        <time>2020-09-10T10:14:47Z</time>
      </trkpt>
      <trkpt lat="44.88779" lon="-0.40777">
        <ele>35.2</ele>
        <time>2020-09-10T10:14:48Z</time>
      </trkpt>
      <trkpt lat="44.88779" lon="-0.4078">
        <ele>35.2</ele>
        <time>2020-09-10T10:14:50Z</time>
      </trkpt>
      <trkpt lat="44.8878" lon="-0.40783">
        <ele>35.2</ele>
        <time>2020-09-10T10:14:51Z</time>
      </trkpt>
      <trkpt lat="44.8878" lon="-0.40784">
        <ele>35.1</ele>
        <time>2020-09-10T10:14:52Z</time>
      </trkpt>
      <trkpt lat="44.8878" lon="-0.40786">
        <ele>35.1</ele>
        <time>2020-09-10T10:14:54Z</time>
      </trkpt>
      <trkpt lat="44.8878" lon="-0.40788">
        <ele>35.1</ele>
        <time>2020-09-10T10:14:55Z</time>
      </trkpt>
      <trkpt lat="44.88781" lon="-0.4079">
        <ele>35.1</ele>
        <time>2020-09-10T10:14:57Z</time>
      </trkpt>
      <trkpt lat="44.88781" lon="-0.40792">
        <ele>35</ele>
        <time>2020-09-10T10:14:58Z</time>
      </trkpt>
      <trkpt lat="44.88781" lon="-0.40794">
        <ele>35</ele>
        <time>2020-09-10T10:14:59Z</time>
      </trkpt>
      <trkpt lat="44.88782" lon="-0.40797">
        <ele>35</ele>
        <time>2020-09-10T10:15:00Z</time>
      </trkpt>
      <trkpt lat="44.88782" lon="-0.40801">
        <ele>34.9</ele>
        <time>2020-09-10T10:15:02Z</time>
      </trkpt>
      <trkpt lat="44.88782" lon="-0.40802">
        <ele>34.9</ele>
        <time>2020-09-10T10:15:03Z</time>
      </trkpt>
      <trkpt lat="44.88782" lon="-0.40803">
        <ele>34.9</ele>
        <time>2020-09-10T10:15:04Z</time>
      </trkpt>
      <trkpt lat="44.88782" lon="-0.40805">
        <ele>34.8</ele>
        <time>2020-09-10T10:15:05Z</time>
      </trkpt>
      <trkpt lat="44.88782" lon="-0.40807">
        <ele>34.8</ele>
        <time>2020-09-10T10:15:06Z</time>
      </trkpt>
      <trkpt lat="44.88783" lon="-0.40809">
        <ele>34.8</ele>
        <time>2020-09-10T10:15:07Z</time>
      </trkpt>
      <trkpt lat="44.88783" lon="-0.40811">
        <ele>34.7</ele>
        <time>2020-09-10T10:15:09Z</time>
      </trkpt>
      <trkpt lat="44.88783" lon="-0.40813">
        <ele>34.7</ele>
        <time>2020-09-10T10:15:10Z</time>
      </trkpt>
      <trkpt lat="44.88784" lon="-0.40818">
        <ele>34.6</ele>
        <time>2020-09-10T10:15:11Z</time>
      </trkpt>
      <trkpt lat="44.88784" lon="-0.40819">
        <ele>34.6</ele>
        <time>2020-09-10T10:15:13Z</time>
      </trkpt>
      <trkpt lat="44.88785" lon="-0.40821">
        <ele>34.5</ele>
        <time>2020-09-10T10:15:15Z</time>
      </trkpt>
      <trkpt lat="44.88785" lon="-0.40823">
        <ele>34.5</ele>
        <time>2020-09-10T10:15:16Z</time>
      </trkpt>
      <trkpt lat="44.88785" lon="-0.40826">
        <ele>34.4</ele>
        <time>2020-09-10T10:15:17Z</time>
      </trkpt>
      <trkpt lat="44.88786" lon="-0.40828">
        <ele>34.4</ele>
        <time>2020-09-10T10:15:19Z</time>
      </trkpt>
      <trkpt lat="44.88786" lon="-0.4083">
        <ele>34.4</ele>
        <time>2020-09-10T10:15:22Z</time>
      </trkpt>
      <trkpt lat="44.88786" lon="-0.40832">
        <ele>34.3</ele>
        <time>2020-09-10T10:15:23Z</time>
      </trkpt>
      <trkpt lat="44.88787" lon="-0.40834">
        <ele>34.3</ele>
        <time>2020-09-10T10:15:24Z</time>
      </trkpt>
      <trkpt lat="44.88787" lon="-0.40836">
        <ele>34.3</ele>
        <time>2020-09-10T10:15:25Z</time>
      </trkpt>
      <trkpt lat="44.88788" lon="-0.40839">
        <ele>34.3</ele>
        <time>2020-09-10T10:15:26Z</time>
      </trkpt>
      <trkpt lat="44.88789" lon="-0.4084">
        <ele>34.3</ele>
        <time>2020-09-10T10:15:27Z</time>
      </trkpt>
      <trkpt lat="44.88789" lon="-0.40842">
        <ele>34.2</ele>
        <time>2020-09-10T10:15:29Z</time>
      </trkpt>
      <trkpt lat="44.8879" lon="-0.40844">
        <ele>34.2</ele>
        <time>2020-09-10T10:15:30Z</time>
      </trkpt>
      <trkpt lat="44.8879" lon="-0.40845">
        <ele>34.2</ele>
        <time>2020-09-10T10:15:31Z</time>
      </trkpt>
      <trkpt lat="44.88789" lon="-0.40847">
        <ele>34.2</ele>
        <time>2020-09-10T10:15:32Z</time>
      </trkpt>
      <trkpt lat="44.88789" lon="-0.40848">
        <ele>34.2</ele>
        <time>2020-09-10T10:15:34Z</time>
      </trkpt>
      <trkpt lat="44.88788" lon="-0.40849">
        <ele>34.2</ele>
        <time>2020-09-10T10:15:35Z</time>
      </trkpt>
      <trkpt lat="44.88787" lon="-0.4085">
        <ele>34.2</ele>
        <time>2020-09-10T10:15:36Z</time>
      </trkpt>
      <trkpt lat="44.88787" lon="-0.4085">
        <ele>34.2</ele>
        <time>2020-09-10T10:15:38Z</time>
      </trkpt>
      <trkpt lat="44.88787" lon="-0.4085">
        <ele>34.2</ele>
        <time>2020-09-10T10:15:40Z</time>
      </trkpt>
      <trkpt lat="44.88788" lon="-0.4085">
        <ele>34.2</ele>
        <time>2020-09-10T10:15:41Z</time>
      </trkpt>
      <trkpt lat="44.88789" lon="-0.40849">
        <ele>34.2</ele>
        <time>2020-09-10T10:15:42Z</time>
      </trkpt>
      <trkpt lat="44.8879" lon="-0.40849">
        <ele>34.2</ele>
        <time>2020-09-10T10:15:44Z</time>
      </trkpt>
      <trkpt lat="44.88791" lon="-0.40848">
        <ele>34.2</ele>
        <time>2020-09-10T10:15:45Z</time>
      </trkpt>
      <trkpt lat="44.88791" lon="-0.40848">
        <ele>34.2</ele>
        <time>2020-09-10T10:15:46Z</time>
      </trkpt>
      <trkpt lat="44.88794" lon="-0.40847">
        <ele>34.2</ele>
        <time>2020-09-10T10:15:47Z</time>
      </trkpt>
      <trkpt lat="44.88794" lon="-0.40847">
        <ele>34.2</ele>
        <time>2020-09-10T10:15:48Z</time>
      </trkpt>
      <trkpt lat="44.88795" lon="-0.40847">
        <ele>34.2</ele>
        <time>2020-09-10T10:15:49Z</time>
      </trkpt>
      <trkpt lat="44.88797" lon="-0.40847">
        <ele>34.2</ele>
        <time>2020-09-10T10:15:50Z</time>
      </trkpt>
      <trkpt lat="44.88798" lon="-0.40847">
        <ele>34.2</ele>
        <time>2020-09-10T10:15:52Z</time>
      </trkpt>
      <trkpt lat="44.88798" lon="-0.40847">
        <ele>34.2</ele>
        <time>2020-09-10T10:15:53Z</time>
      </trkpt>
      <trkpt lat="44.88799" lon="-0.40847">
        <ele>34.1</ele>
        <time>2020-09-10T10:15:55Z</time>
      </trkpt>
      <trkpt lat="44.88799" lon="-0.40846">
        <ele>34.1</ele>
        <time>2020-09-10T10:15:57Z</time>
      </trkpt>
      <trkpt lat="44.888" lon="-0.40846">
        <ele>34.1</ele>
        <time>2020-09-10T10:15:58Z</time>
      </trkpt>
      <trkpt lat="44.88801" lon="-0.40846">
        <ele>34.1</ele>
        <time>2020-09-10T10:15:59Z</time>
      </trkpt>
      <trkpt lat="44.88801" lon="-0.40846">
        <ele>34.1</ele>
        <time>2020-09-10T10:16:00Z</time>
      </trkpt>
      <trkpt lat="44.88802" lon="-0.40845">
        <ele>34.1</ele>
        <time>2020-09-10T10:16:01Z</time>
      </trkpt>
      <trkpt lat="44.88804" lon="-0.40844">
        <ele>34.1</ele>
        <time>2020-09-10T10:16:02Z</time>
      </trkpt>
      <trkpt lat="44.88805" lon="-0.40844">
        <ele>34.1</ele>
        <time>2020-09-10T10:16:04Z</time>
      </trkpt>
      <trkpt lat="44.88806" lon="-0.40843">
        <ele>34.1</ele>
        <time>2020-09-10T10:16:05Z</time>
      </trkpt>
      <trkpt lat="44.88808" lon="-0.40842">
        <ele>34.1</ele>
        <time>2020-09-10T10:16:06Z</time>
      </trkpt>
      <trkpt lat="44.88809" lon="-0.40841">
        <ele>34.1</ele>
        <time>2020-09-10T10:16:07Z</time>
      </trkpt>
      <trkpt lat="44.8881" lon="-0.4084">
        <ele>34.1</ele>
        <time>2020-09-10T10:16:08Z</time>
      </trkpt>
      <trkpt lat="44.88812" lon="-0.40839">
        <ele>34.1</ele>
        <time>2020-09-10T10:16:09Z</time>
      </trkpt>
      <trkpt lat="44.88814" lon="-0.40839">
        <ele>34.1</ele>
        <time>2020-09-10T10:16:10Z</time>
      </trkpt>
      <trkpt lat="44.88815" lon="-0.40838">
        <ele>34.1</ele>
        <time>2020-09-10T10:16:12Z</time>
      </trkpt>
      <trkpt lat="44.88816" lon="-0.40838">
        <ele>34.1</ele>
        <time>2020-09-10T10:16:13Z</time>
      </trkpt>
      <trkpt lat="44.88817" lon="-0.40838">
        <ele>34</ele>
        <time>2020-09-10T10:16:14Z</time>
      </trkpt>
      <trkpt lat="44.88818" lon="-0.40838">
        <ele>34</ele>
        <time>2020-09-10T10:16:15Z</time>
      </trkpt>
      <trkpt lat="44.88821" lon="-0.40838">
        <ele>34</ele>
        <time>2020-09-10T10:16:17Z</time>
      </trkpt>
      <trkpt lat="44.88822" lon="-0.40838">
        <ele>33.9</ele>
        <time>2020-09-10T10:16:18Z</time>
      </trkpt>
      <trkpt lat="44.88824" lon="-0.40837">
        <ele>33.9</ele>
        <time>2020-09-10T10:16:19Z</time>
      </trkpt>
      <trkpt lat="44.88826" lon="-0.40837">
        <ele>33.8</ele>
        <time>2020-09-10T10:16:20Z</time>
      </trkpt>
      <trkpt lat="44.88827" lon="-0.40837">
        <ele>33.8</ele>
        <time>2020-09-10T10:16:21Z</time>
      </trkpt>
      <trkpt lat="44.88829" lon="-0.40837">
        <ele>33.7</ele>
        <time>2020-09-10T10:16:22Z</time>
      </trkpt>
      <trkpt lat="44.8883" lon="-0.40837">
        <ele>33.7</ele>
        <time>2020-09-10T10:16:23Z</time>
      </trkpt>
      <trkpt lat="44.88831" lon="-0.40837">
        <ele>33.6</ele>
        <time>2020-09-10T10:16:24Z</time>
      </trkpt>
      <trkpt lat="44.88834" lon="-0.40837">
        <ele>33.5</ele>
        <time>2020-09-10T10:16:26Z</time>
      </trkpt>
      <trkpt lat="44.88834" lon="-0.40836">
        <ele>33.5</ele>
        <time>2020-09-10T10:16:28Z</time>
      </trkpt>
      <trkpt lat="44.88835" lon="-0.40836">
        <ele>33.5</ele>
        <time>2020-09-10T10:16:29Z</time>
      </trkpt>
      <trkpt lat="44.88837" lon="-0.40835">
        <ele>33.5</ele>
        <time>2020-09-10T10:16:30Z</time>
      </trkpt>
      <trkpt lat="44.88838" lon="-0.40835">
        <ele>33.4</ele>
        <time>2020-09-10T10:16:31Z</time>
      </trkpt>
      <trkpt lat="44.8884" lon="-0.40834">
        <ele>33.3</ele>
        <time>2020-09-10T10:16:32Z</time>
      </trkpt>
      <trkpt lat="44.88842" lon="-0.40834">
        <ele>33.2</ele>
        <time>2020-09-10T10:16:34Z</time>
      </trkpt>
      <trkpt lat="44.88843" lon="-0.40835">
        <ele>33.1</ele>
        <time>2020-09-10T10:16:35Z</time>
      </trkpt>
      <trkpt lat="44.88846" lon="-0.40835">
        <ele>32.9</ele>
        <time>2020-09-10T10:16:37Z</time>
      </trkpt>
      <trkpt lat="44.88847" lon="-0.40836">
        <ele>32.8</ele>
        <time>2020-09-10T10:16:39Z</time>
      </trkpt>
      <trkpt lat="44.88847" lon="-0.40837">
        <ele>32.8</ele>
        <time>2020-09-10T10:16:41Z</time>
      </trkpt>
      <trkpt lat="44.88846" lon="-0.40837">
        <ele>32.7</ele>
        <time>2020-09-10T10:16:43Z</time>
      </trkpt>
      <trkpt lat="44.88845" lon="-0.40838">
        <ele>32.6</ele>
        <time>2020-09-10T10:16:44Z</time>
      </trkpt>
      <trkpt lat="44.88845" lon="-0.40838">
        <ele>32.6</ele>
        <time>2020-09-10T10:16:45Z</time>
      </trkpt>
      <trkpt lat="44.88845" lon="-0.40839">
        <ele>32.6</ele>
        <time>2020-09-10T10:16:47Z</time>
      </trkpt>
      <trkpt lat="44.88845" lon="-0.40839">
        <ele>32.6</ele>
        <time>2020-09-10T10:16:48Z</time>
      </trkpt>
      <trkpt lat="44.88845" lon="-0.4084">
        <ele>32.5</ele>
        <time>2020-09-10T10:16:50Z</time>
      </trkpt>
      <trkpt lat="44.88845" lon="-0.40842">
        <ele>32.4</ele>
        <time>2020-09-10T10:16:52Z</time>
      </trkpt>
      <trkpt lat="44.88845" lon="-0.40842">
        <ele>32.4</ele>
        <time>2020-09-10T10:16:53Z</time>
      </trkpt>
      <trkpt lat="44.88845" lon="-0.40843">
        <ele>32.3</ele>
        <time>2020-09-10T10:16:55Z</time>
      </trkpt>
      <trkpt lat="44.88845" lon="-0.40844">
        <ele>32.2</ele>
        <time>2020-09-10T10:16:57Z</time>
      </trkpt>
      <trkpt lat="44.88846" lon="-0.40845">
        <ele>32.1</ele>
        <time>2020-09-10T10:16:58Z</time>
      </trkpt>
      <trkpt lat="44.88846" lon="-0.40846">
        <ele>32</ele>
        <time>2020-09-10T10:16:59Z</time>
      </trkpt>
      <trkpt lat="44.88847" lon="-0.40847">
        <ele>31.9</ele>
        <time>2020-09-10T10:17:01Z</time>
      </trkpt>
      <trkpt lat="44.88849" lon="-0.40849">
        <ele>31.7</ele>
        <time>2020-09-10T10:17:02Z</time>
      </trkpt>
      <trkpt lat="44.88849" lon="-0.4085">
        <ele>31.6</ele>
        <time>2020-09-10T10:17:03Z</time>
      </trkpt>
      <trkpt lat="44.8885" lon="-0.40852">
        <ele>31.4</ele>
        <time>2020-09-10T10:17:04Z</time>
      </trkpt>
      <trkpt lat="44.88851" lon="-0.40853">
        <ele>31.3</ele>
        <time>2020-09-10T10:17:05Z</time>
      </trkpt>
      <trkpt lat="44.88851" lon="-0.40857">
        <ele>31</ele>
        <time>2020-09-10T10:17:07Z</time>
      </trkpt>
      <trkpt lat="44.88852" lon="-0.40858">
        <ele>30.8</ele>
        <time>2020-09-10T10:17:08Z</time>
      </trkpt>
      <trkpt lat="44.88852" lon="-0.4086">
        <ele>30.7</ele>
        <time>2020-09-10T10:17:09Z</time>
      </trkpt>
      <trkpt lat="44.88852" lon="-0.40861">
        <ele>30.5</ele>
        <time>2020-09-10T10:17:10Z</time>
      </trkpt>
      <trkpt lat="44.88852" lon="-0.40863">
        <ele>30.3</ele>
        <time>2020-09-10T10:17:11Z</time>
      </trkpt>
      <trkpt lat="44.88852" lon="-0.40863">
        <ele>30.3</ele>
        <time>2020-09-10T10:17:13Z</time>
      </trkpt>
      <trkpt lat="44.88852" lon="-0.40863">
        <ele>30.3</ele>
        <time>2020-09-10T10:17:14Z</time>
      </trkpt>
      <trkpt lat="44.88852" lon="-0.40864">
        <ele>30.3</ele>
        <time>2020-09-10T10:17:15Z</time>
      </trkpt>
      <trkpt lat="44.88852" lon="-0.40864">
        <ele>30.2</ele>
        <time>2020-09-10T10:17:17Z</time>
      </trkpt>
      <trkpt lat="44.88852" lon="-0.40864">
        <ele>30.2</ele>
        <time>2020-09-10T10:17:18Z</time>
      </trkpt>
      <trkpt lat="44.88852" lon="-0.40864">
        <ele>30.2</ele>
        <time>2020-09-10T10:17:20Z</time>
      </trkpt>
      <trkpt lat="44.88852" lon="-0.40864">
        <ele>30.2</ele>
        <time>2020-09-10T10:17:21Z</time>
      </trkpt>
      <trkpt lat="44.88852" lon="-0.40865">
        <ele>30.2</ele>
        <time>2020-09-10T10:17:22Z</time>
      </trkpt>
      <trkpt lat="44.88853" lon="-0.40865">
        <ele>30.1</ele>
        <time>2020-09-10T10:17:24Z</time>
      </trkpt>
      <trkpt lat="44.88853" lon="-0.40865">
        <ele>30.1</ele>
        <time>2020-09-10T10:17:26Z</time>
      </trkpt>
      <trkpt lat="44.88853" lon="-0.40865">
        <ele>30.1</ele>
        <time>2020-09-10T10:17:27Z</time>
      </trkpt>
      <trkpt lat="44.88853" lon="-0.40865">
        <ele>30.1</ele>
        <time>2020-09-10T10:17:29Z</time>
      </trkpt>
      <trkpt lat="44.88853" lon="-0.40866">
        <ele>30.1</ele>
        <time>2020-09-10T10:17:30Z</time>
      </trkpt>
      <trkpt lat="44.88853" lon="-0.40866">
        <ele>30</ele>
        <time>2020-09-10T10:17:31Z</time>
      </trkpt>
      <trkpt lat="44.88853" lon="-0.40866">
        <ele>30</ele>
        <time>2020-09-10T10:17:32Z</time>
      </trkpt>
      <trkpt lat="44.88853" lon="-0.40866">
        <ele>30</ele>
        <time>2020-09-10T10:17:34Z</time>
      </trkpt>
      <trkpt lat="44.88853" lon="-0.40866">
        <ele>30</ele>
        <time>2020-09-10T10:17:35Z</time>
      </trkpt>
      <trkpt lat="44.88853" lon="-0.40866">
        <ele>30</ele>
        <time>2020-09-10T10:17:36Z</time>
      </trkpt>
      <trkpt lat="44.88853" lon="-0.40867">
        <ele>29.9</ele>
        <time>2020-09-10T10:17:38Z</time>
      </trkpt>
      <trkpt lat="44.88853" lon="-0.40867">
        <ele>29.9</ele>
        <time>2020-09-10T10:17:40Z</time>
      </trkpt>
      <trkpt lat="44.88853" lon="-0.40867">
        <ele>29.9</ele>
        <time>2020-09-10T10:17:41Z</time>
      </trkpt>
      <trkpt lat="44.88853" lon="-0.40867">
        <ele>29.9</ele>
        <time>2020-09-10T10:17:43Z</time>
      </trkpt>
      <trkpt lat="44.88853" lon="-0.40867">
        <ele>29.9</ele>
        <time>2020-09-10T10:17:44Z</time>
      </trkpt>
      <trkpt lat="44.88853" lon="-0.40868">
        <ele>29.8</ele>
        <time>2020-09-10T10:17:46Z</time>
      </trkpt>
      <trkpt lat="44.88853" lon="-0.40868">
        <ele>29.8</ele>
        <time>2020-09-10T10:17:47Z</time>
      </trkpt>
      <trkpt lat="44.88853" lon="-0.40868">
        <ele>29.8</ele>
        <time>2020-09-10T10:17:48Z</time>
      </trkpt>
      <trkpt lat="44.88853" lon="-0.40868">
        <ele>29.8</ele>
        <time>2020-09-10T10:17:50Z</time>
      </trkpt>
      <trkpt lat="44.88853" lon="-0.40868">
        <ele>29.7</ele>
        <time>2020-09-10T10:17:52Z</time>
      </trkpt>
      <trkpt lat="44.88853" lon="-0.40869">
        <ele>29.7</ele>
        <time>2020-09-10T10:17:54Z</time>
      </trkpt>
      <trkpt lat="44.88853" lon="-0.40869">
        <ele>29.7</ele>
        <time>2020-09-10T10:17:56Z</time>
      </trkpt>
      <trkpt lat="44.88853" lon="-0.40869">
        <ele>29.7</ele>
        <time>2020-09-10T10:17:57Z</time>
      </trkpt>
      <trkpt lat="44.88853" lon="-0.40869">
        <ele>29.7</ele>
        <time>2020-09-10T10:17:59Z</time>
      </trkpt>
      <trkpt lat="44.88853" lon="-0.40869">
        <ele>29.6</ele>
        <time>2020-09-10T10:18:01Z</time>
      </trkpt>
      <trkpt lat="44.88853" lon="-0.4087">
        <ele>29.6</ele>
        <time>2020-09-10T10:18:03Z</time>
      </trkpt>
      <trkpt lat="44.88853" lon="-0.4087">
        <ele>29.6</ele>
        <time>2020-09-10T10:18:04Z</time>
      </trkpt>
      <trkpt lat="44.88853" lon="-0.4087">
        <ele>29.6</ele>
        <time>2020-09-10T10:18:06Z</time>
      </trkpt>
      <trkpt lat="44.88853" lon="-0.4087">
        <ele>29.5</ele>
        <time>2020-09-10T10:18:08Z</time>
      </trkpt>
      <trkpt lat="44.88853" lon="-0.4087">
        <ele>29.5</ele>
        <time>2020-09-10T10:18:10Z</time>
      </trkpt>
      <trkpt lat="44.88853" lon="-0.4087">
        <ele>29.5</ele>
        <time>2020-09-10T10:18:11Z</time>
      </trkpt>
      <trkpt lat="44.88853" lon="-0.40871">
        <ele>29.5</ele>
        <time>2020-09-10T10:18:13Z</time>
      </trkpt>
      <trkpt lat="44.88853" lon="-0.40871">
        <ele>29.5</ele>
        <time>2020-09-10T10:18:14Z</time>
      </trkpt>
      <trkpt lat="44.88853" lon="-0.40871">
        <ele>29.4</ele>
        <time>2020-09-10T10:18:15Z</time>
      </trkpt>
      <trkpt lat="44.88853" lon="-0.40871">
        <ele>29.4</ele>
        <time>2020-09-10T10:18:17Z</time>
      </trkpt>
      <trkpt lat="44.88853" lon="-0.40871">
        <ele>29.4</ele>
        <time>2020-09-10T10:18:18Z</time>
      </trkpt>
      <trkpt lat="44.88853" lon="-0.40872">
        <ele>29.4</ele>
        <time>2020-09-10T10:18:19Z</time>
      </trkpt>
      <trkpt lat="44.88853" lon="-0.40872">
        <ele>29.4</ele>
        <time>2020-09-10T10:18:21Z</time>
      </trkpt>
      <trkpt lat="44.88853" lon="-0.40872">
        <ele>29.3</ele>
        <time>2020-09-10T10:18:22Z</time>
      </trkpt>
      <trkpt lat="44.88853" lon="-0.40872">
        <ele>29.3</ele>
        <time>2020-09-10T10:18:24Z</time>
      </trkpt>
      <trkpt lat="44.88853" lon="-0.40872">
        <ele>29.3</ele>
        <time>2020-09-10T10:18:25Z</time>
      </trkpt>
      <trkpt lat="44.88853" lon="-0.40873">
        <ele>29.3</ele>
        <time>2020-09-10T10:18:26Z</time>
      </trkpt>
      <trkpt lat="44.88853" lon="-0.40873">
        <ele>29.3</ele>
        <time>2020-09-10T10:18:28Z</time>
      </trkpt>
      <trkpt lat="44.88853" lon="-0.40873">
        <ele>29.2</ele>
        <time>2020-09-10T10:18:29Z</time>
      </trkpt>
      <trkpt lat="44.88853" lon="-0.40873">
        <ele>29.2</ele>
        <time>2020-09-10T10:18:30Z</time>
      </trkpt>
      <trkpt lat="44.88853" lon="-0.40873">
        <ele>29.2</ele>
        <time>2020-09-10T10:18:31Z</time>
      </trkpt>
      <trkpt lat="44.88853" lon="-0.40874">
        <ele>29.2</ele>
        <time>2020-09-10T10:18:32Z</time>
      </trkpt>
      <trkpt lat="44.88853" lon="-0.40874">
        <ele>29.1</ele>
        <time>2020-09-10T10:18:34Z</time>
      </trkpt>
      <trkpt lat="44.88853" lon="-0.40874">
        <ele>29.1</ele>
        <time>2020-09-10T10:18:35Z</time>
      </trkpt>
      <trkpt lat="44.88853" lon="-0.40875">
        <ele>28.9</ele>
        <time>2020-09-10T10:18:36Z</time>
      </trkpt>
      <trkpt lat="44.88854" lon="-0.40877">
        <ele>28.7</ele>
        <time>2020-09-10T10:18:38Z</time>
      </trkpt>
      <trkpt lat="44.88854" lon="-0.40877">
        <ele>28.7</ele>
        <time>2020-09-10T10:18:39Z</time>
      </trkpt>
      <trkpt lat="44.88855" lon="-0.40878">
        <ele>28.6</ele>
        <time>2020-09-10T10:18:41Z</time>
      </trkpt>
      <trkpt lat="44.88855" lon="-0.40877">
        <ele>28.5</ele>
        <time>2020-09-10T10:18:42Z</time>
      </trkpt>
      <trkpt lat="44.88854" lon="-0.40875">
        <ele>28.3</ele>
        <time>2020-09-10T10:18:44Z</time>
      </trkpt>
      <trkpt lat="44.88854" lon="-0.40876">
        <ele>28.2</ele>
        <time>2020-09-10T10:18:45Z</time>
      </trkpt>
      <trkpt lat="44.88854" lon="-0.40874">
        <ele>28</ele>
        <time>2020-09-10T10:18:48Z</time>
      </trkpt>
      <trkpt lat="44.88855" lon="-0.40873">
        <ele>27.9</ele>
        <time>2020-09-10T10:18:49Z</time>
      </trkpt>
      <trkpt lat="44.88855" lon="-0.40873">
        <ele>27.8</ele>
        <time>2020-09-10T10:18:51Z</time>
      </trkpt>
      <trkpt lat="44.88856" lon="-0.40873">
        <ele>27.7</ele>
        <time>2020-09-10T10:18:53Z</time>
      </trkpt>
      <trkpt lat="44.88856" lon="-0.40872">
        <ele>27.7</ele>
        <time>2020-09-10T10:18:54Z</time>
      </trkpt>
      <trkpt lat="44.88856" lon="-0.40873">
        <ele>27.6</ele>
        <time>2020-09-10T10:18:56Z</time>
      </trkpt>
      <trkpt lat="44.88856" lon="-0.40874">
        <ele>27.5</ele>
        <time>2020-09-10T10:18:58Z</time>
      </trkpt>
      <trkpt lat="44.88856" lon="-0.40876">
        <ele>27.2</ele>
        <time>2020-09-10T10:18:59Z</time>
      </trkpt>
      <trkpt lat="44.88856" lon="-0.40878">
        <ele>26.9</ele>
        <time>2020-09-10T10:19:01Z</time>
      </trkpt>
      <trkpt lat="44.88856" lon="-0.4088">
        <ele>26.8</ele>
        <time>2020-09-10T10:19:02Z</time>
      </trkpt>
      <trkpt lat="44.88855" lon="-0.40882">
        <ele>26.5</ele>
        <time>2020-09-10T10:19:03Z</time>
      </trkpt>
      <trkpt lat="44.88855" lon="-0.40883">
        <ele>26.3</ele>
        <time>2020-09-10T10:19:05Z</time>
      </trkpt>
      <trkpt lat="44.88854" lon="-0.40885">
        <ele>26.2</ele>
        <time>2020-09-10T10:19:08Z</time>
      </trkpt>
      <trkpt lat="44.88854" lon="-0.40884">
        <ele>26.1</ele>
        <time>2020-09-10T10:19:10Z</time>
      </trkpt>
      <trkpt lat="44.88854" lon="-0.40885">
        <ele>26</ele>
        <time>2020-09-10T10:19:11Z</time>
      </trkpt>
      <trkpt lat="44.88854" lon="-0.40886">
        <ele>25.9</ele>
        <time>2020-09-10T10:19:12Z</time>
      </trkpt>
      <trkpt lat="44.88855" lon="-0.40887">
        <ele>25.7</ele>
        <time>2020-09-10T10:19:13Z</time>
      </trkpt>
      <trkpt lat="44.88855" lon="-0.40888">
        <ele>25.6</ele>
        <time>2020-09-10T10:19:14Z</time>
      </trkpt>
      <trkpt lat="44.88856" lon="-0.4089">
        <ele>25.4</ele>
        <time>2020-09-10T10:19:16Z</time>
      </trkpt>
      <trkpt lat="44.88856" lon="-0.40891">
        <ele>25.3</ele>
        <time>2020-09-10T10:19:18Z</time>
      </trkpt>
      <trkpt lat="44.88856" lon="-0.40892">
        <ele>25.2</ele>
        <time>2020-09-10T10:19:20Z</time>
      </trkpt>
      <trkpt lat="44.88856" lon="-0.40893">
        <ele>25.1</ele>
        <time>2020-09-10T10:19:22Z</time>
      </trkpt>
      <trkpt lat="44.88856" lon="-0.40894">
        <ele>24.9</ele>
        <time>2020-09-10T10:19:23Z</time>
      </trkpt>
      <trkpt lat="44.88856" lon="-0.40894">
        <ele>24.9</ele>
        <time>2020-09-10T10:19:24Z</time>
      </trkpt>
      <trkpt lat="44.88856" lon="-0.40894">
        <ele>24.8</ele>
        <time>2020-09-10T10:19:26Z</time>
      </trkpt>
      <trkpt lat="44.88856" lon="-0.40894">
        <ele>24.8</ele>
        <time>2020-09-10T10:19:27Z</time>
      </trkpt>
      <trkpt lat="44.88856" lon="-0.40893">
        <ele>24.8</ele>
        <time>2020-09-10T10:19:28Z</time>
      </trkpt>
      <trkpt lat="44.88856" lon="-0.40893">
        <ele>24.8</ele>
        <time>2020-09-10T10:19:30Z</time>
      </trkpt>
      <trkpt lat="44.88856" lon="-0.40894">
        <ele>24.7</ele>
        <time>2020-09-10T10:19:31Z</time>
      </trkpt>
      <trkpt lat="44.88856" lon="-0.40895">
        <ele>24.6</ele>
        <time>2020-09-10T10:19:32Z</time>
      </trkpt>
      <trkpt lat="44.88857" lon="-0.40897">
        <ele>24.4</ele>
        <time>2020-09-10T10:19:33Z</time>
      </trkpt>
      <trkpt lat="44.88857" lon="-0.40896">
        <ele>24.4</ele>
        <time>2020-09-10T10:19:35Z</time>
      </trkpt>
      <trkpt lat="44.88856" lon="-0.40895">
        <ele>24.3</ele>
        <time>2020-09-10T10:19:36Z</time>
      </trkpt>
      <trkpt lat="44.88856" lon="-0.40895">
        <ele>24.3</ele>
        <time>2020-09-10T10:19:37Z</time>
      </trkpt>
      <trkpt lat="44.88856" lon="-0.40895">
        <ele>24.3</ele>
        <time>2020-09-10T10:19:38Z</time>
      </trkpt>
      <trkpt lat="44.88856" lon="-0.40895">
        <ele>24.2</ele>
        <time>2020-09-10T10:19:39Z</time>
      </trkpt>
      <trkpt lat="44.88856" lon="-0.40895">
        <ele>24.2</ele>
        <time>2020-09-10T10:19:41Z</time>
      </trkpt>
      <trkpt lat="44.88856" lon="-0.40895">
        <ele>24.1</ele>
        <time>2020-09-10T10:19:43Z</time>
      </trkpt>
      <trkpt lat="44.88856" lon="-0.40896">
        <ele>24.1</ele>
        <time>2020-09-10T10:19:44Z</time>
      </trkpt>
      <trkpt lat="44.88856" lon="-0.40896">
        <ele>24</ele>
        <time>2020-09-10T10:19:46Z</time>
      </trkpt>
      <trkpt lat="44.88855" lon="-0.40897">
        <ele>23.9</ele>
        <time>2020-09-10T10:19:47Z</time>
      </trkpt>
      <trkpt lat="44.88854" lon="-0.40899">
        <ele>23.6</ele>
        <time>2020-09-10T10:19:48Z</time>
      </trkpt>
      <trkpt lat="44.88855" lon="-0.40899">
        <ele>23.6</ele>
        <time>2020-09-10T10:19:49Z</time>
      </trkpt>
      <trkpt lat="44.88855" lon="-0.40899">
        <ele>23.5</ele>
        <time>2020-09-10T10:19:50Z</time>
      </trkpt>
      <trkpt lat="44.88856" lon="-0.40899">
        <ele>23.4</ele>
        <time>2020-09-10T10:19:51Z</time>
      </trkpt>
      <trkpt lat="44.88858" lon="-0.40901">
        <ele>23.1</ele>
        <time>2020-09-10T10:19:53Z</time>
      </trkpt>
      <trkpt lat="44.88859" lon="-0.40901">
        <ele>23</ele>
        <time>2020-09-10T10:19:54Z</time>
      </trkpt>
      <trkpt lat="44.88859" lon="-0.40901">
        <ele>22.9</ele>
        <time>2020-09-10T10:19:56Z</time>
      </trkpt>
      <trkpt lat="44.88858" lon="-0.409">
        <ele>22.8</ele>
        <time>2020-09-10T10:19:58Z</time>
      </trkpt>
      <trkpt lat="44.88858" lon="-0.409">
        <ele>22.8</ele>
        <time>2020-09-10T10:19:59Z</time>
      </trkpt>
      <trkpt lat="44.88857" lon="-0.409">
        <ele>22.7</ele>
        <time>2020-09-10T10:20:00Z</time>
      </trkpt>
      <trkpt lat="44.88857" lon="-0.40899">
        <ele>22.6</ele>
        <time>2020-09-10T10:20:02Z</time>
      </trkpt>
      <trkpt lat="44.88857" lon="-0.409">
        <ele>22.5</ele>
        <time>2020-09-10T10:20:03Z</time>
      </trkpt>
      <trkpt lat="44.88858" lon="-0.40901">
        <ele>22.4</ele>
        <time>2020-09-10T10:20:05Z</time>
      </trkpt>
      <trkpt lat="44.88859" lon="-0.40902">
        <ele>22.1</ele>
        <time>2020-09-10T10:20:06Z</time>
      </trkpt>
      <trkpt lat="44.8886" lon="-0.40902">
        <ele>22</ele>
        <time>2020-09-10T10:20:07Z</time>
      </trkpt>
      <trkpt lat="44.88862" lon="-0.40902">
        <ele>21.7</ele>
        <time>2020-09-10T10:20:09Z</time>
      </trkpt>
      <trkpt lat="44.88863" lon="-0.40902">
        <ele>21.5</ele>
        <time>2020-09-10T10:20:10Z</time>
      </trkpt>
      <trkpt lat="44.88864" lon="-0.40903">
        <ele>21.4</ele>
        <time>2020-09-10T10:20:11Z</time>
      </trkpt>
      <trkpt lat="44.88866" lon="-0.40905">
        <ele>21.1</ele>
        <time>2020-09-10T10:20:13Z</time>
      </trkpt>
      <trkpt lat="44.88867" lon="-0.40906">
        <ele>21</ele>
        <time>2020-09-10T10:20:14Z</time>
      </trkpt>
      <trkpt lat="44.88868" lon="-0.40906">
        <ele>20.8</ele>
        <time>2020-09-10T10:20:15Z</time>
      </trkpt>
      <trkpt lat="44.88869" lon="-0.40907">
        <ele>20.7</ele>
        <time>2020-09-10T10:20:16Z</time>
      </trkpt>
      <trkpt lat="44.88871" lon="-0.40909">
        <ele>20.4</ele>
        <time>2020-09-10T10:20:18Z</time>
      </trkpt>
      <trkpt lat="44.88871" lon="-0.40909">
        <ele>20.2</ele>
        <time>2020-09-10T10:20:19Z</time>
      </trkpt>
      <trkpt lat="44.88872" lon="-0.4091">
        <ele>20.1</ele>
        <time>2020-09-10T10:20:20Z</time>
      </trkpt>
      <trkpt lat="44.88873" lon="-0.40911">
        <ele>19.9</ele>
        <time>2020-09-10T10:20:21Z</time>
      </trkpt>
      <trkpt lat="44.88874" lon="-0.40913">
        <ele>19.8</ele>
        <time>2020-09-10T10:20:22Z</time>
      </trkpt>
      <trkpt lat="44.88875" lon="-0.40914">
        <ele>19.6</ele>
        <time>2020-09-10T10:20:23Z</time>
      </trkpt>
      <trkpt lat="44.88875" lon="-0.40915">
        <ele>19.5</ele>
        <time>2020-09-10T10:20:25Z</time>
      </trkpt>
      <trkpt lat="44.88876" lon="-0.40916">
        <ele>19.4</ele>
        <time>2020-09-10T10:20:26Z</time>
      </trkpt>
      <trkpt lat="44.88877" lon="-0.40916">
        <ele>19.3</ele>
        <time>2020-09-10T10:20:28Z</time>
      </trkpt>
      <trkpt lat="44.88877" lon="-0.40917">
        <ele>19.2</ele>
        <time>2020-09-10T10:20:29Z</time>
      </trkpt>
      <trkpt lat="44.88877" lon="-0.40917">
        <ele>19.2</ele>
        <time>2020-09-10T10:20:31Z</time>
      </trkpt>
      <trkpt lat="44.88878" lon="-0.40918">
        <ele>19.1</ele>
        <time>2020-09-10T10:20:32Z</time>
      </trkpt>
      <trkpt lat="44.88878" lon="-0.40918">
        <ele>19.1</ele>
        <time>2020-09-10T10:20:34Z</time>
      </trkpt>
      <trkpt lat="44.88878" lon="-0.40919">
        <ele>19</ele>
        <time>2020-09-10T10:20:35Z</time>
      </trkpt>
      <trkpt lat="44.88879" lon="-0.40919">
        <ele>19</ele>
        <time>2020-09-10T10:20:36Z</time>
      </trkpt>
      <trkpt lat="44.88879" lon="-0.4092">
        <ele>18.9</ele>
        <time>2020-09-10T10:20:37Z</time>
      </trkpt>
      <trkpt lat="44.8888" lon="-0.40922">
        <ele>18.6</ele>
        <time>2020-09-10T10:20:39Z</time>
      </trkpt>
      <trkpt lat="44.88881" lon="-0.40924">
        <ele>18.5</ele>
        <time>2020-09-10T10:20:40Z</time>
      </trkpt>
      <trkpt lat="44.88882" lon="-0.40925">
        <ele>18.4</ele>
        <time>2020-09-10T10:20:41Z</time>
      </trkpt>
      <trkpt lat="44.88882" lon="-0.40926">
        <ele>18.3</ele>
        <time>2020-09-10T10:20:42Z</time>
      </trkpt>
      <trkpt lat="44.88883" lon="-0.40927">
        <ele>18.1</ele>
        <time>2020-09-10T10:20:43Z</time>
      </trkpt>
      <trkpt lat="44.88884" lon="-0.40927">
        <ele>18</ele>
        <time>2020-09-10T10:20:44Z</time>
      </trkpt>
      <trkpt lat="44.88885" lon="-0.4093">
        <ele>17.8</ele>
        <time>2020-09-10T10:20:46Z</time>
      </trkpt>
      <trkpt lat="44.88886" lon="-0.40931">
        <ele>17.8</ele>
        <time>2020-09-10T10:20:47Z</time>
      </trkpt>
      <trkpt lat="44.88886" lon="-0.40932">
        <ele>17.7</ele>
        <time>2020-09-10T10:20:48Z</time>
      </trkpt>
      <trkpt lat="44.88886" lon="-0.40934">
        <ele>17.5</ele>
        <time>2020-09-10T10:20:50Z</time>
      </trkpt>
      <trkpt lat="44.88886" lon="-0.40935">
        <ele>17.5</ele>
        <time>2020-09-10T10:20:51Z</time>
      </trkpt>
      <trkpt lat="44.88886" lon="-0.40936">
        <ele>17.4</ele>
        <time>2020-09-10T10:20:52Z</time>
      </trkpt>
      <trkpt lat="44.88886" lon="-0.40937">
        <ele>17.3</ele>
        <time>2020-09-10T10:20:54Z</time>
      </trkpt>
      <trkpt lat="44.88887" lon="-0.40938">
        <ele>17.3</ele>
        <time>2020-09-10T10:20:55Z</time>
      </trkpt>
      <trkpt lat="44.88887" lon="-0.40939">
        <ele>17.2</ele>
        <time>2020-09-10T10:20:56Z</time>
      </trkpt>
      <trkpt lat="44.88887" lon="-0.4094">
        <ele>17.1</ele>
        <time>2020-09-10T10:20:58Z</time>
      </trkpt>
      <trkpt lat="44.88887" lon="-0.40941">
        <ele>17.1</ele>
        <time>2020-09-10T10:20:59Z</time>
      </trkpt>
      <trkpt lat="44.88887" lon="-0.40942">
        <ele>17</ele>
        <time>2020-09-10T10:21:00Z</time>
      </trkpt>
      <trkpt lat="44.88887" lon="-0.40943">
        <ele>17</ele>
        <time>2020-09-10T10:21:01Z</time>
      </trkpt>
      <trkpt lat="44.88887" lon="-0.40944">
        <ele>16.9</ele>
        <time>2020-09-10T10:21:02Z</time>
      </trkpt>
      <trkpt lat="44.88888" lon="-0.40945">
        <ele>16.8</ele>
        <time>2020-09-10T10:21:03Z</time>
      </trkpt>
      <trkpt lat="44.88888" lon="-0.40947">
        <ele>16.7</ele>
        <time>2020-09-10T10:21:04Z</time>
      </trkpt>
      <trkpt lat="44.88888" lon="-0.4095">
        <ele>16.5</ele>
        <time>2020-09-10T10:21:05Z</time>
      </trkpt>
      <trkpt lat="44.88889" lon="-0.40951">
        <ele>16.4</ele>
        <time>2020-09-10T10:21:06Z</time>
      </trkpt>
      <trkpt lat="44.88889" lon="-0.40953">
        <ele>16.4</ele>
        <time>2020-09-10T10:21:07Z</time>
      </trkpt>
      <trkpt lat="44.88889" lon="-0.40954">
        <ele>16.3</ele>
        <time>2020-09-10T10:21:08Z</time>
      </trkpt>
      <trkpt lat="44.88889" lon="-0.40958">
        <ele>16.1</ele>
        <time>2020-09-10T10:21:11Z</time>
      </trkpt>
      <trkpt lat="44.88889" lon="-0.40959">
        <ele>16.1</ele>
        <time>2020-09-10T10:21:12Z</time>
      </trkpt>
      <trkpt lat="44.88889" lon="-0.40961">
        <ele>16</ele>
        <time>2020-09-10T10:21:13Z</time>
      </trkpt>
      <trkpt lat="44.88889" lon="-0.40961">
        <ele>16</ele>
        <time>2020-09-10T10:21:14Z</time>
      </trkpt>
      <trkpt lat="44.88888" lon="-0.40961">
        <ele>15.9</ele>
        <time>2020-09-10T10:21:16Z</time>
      </trkpt>
      <trkpt lat="44.88887" lon="-0.4096">
        <ele>15.9</ele>
        <time>2020-09-10T10:21:18Z</time>
      </trkpt>
      <trkpt lat="44.88887" lon="-0.4096">
        <ele>15.8</ele>
        <time>2020-09-10T10:21:19Z</time>
      </trkpt>
      <trkpt lat="44.88887" lon="-0.40961">
        <ele>15.8</ele>
        <time>2020-09-10T10:21:20Z</time>
      </trkpt>
      <trkpt lat="44.88887" lon="-0.40963">
        <ele>15.7</ele>
        <time>2020-09-10T10:21:21Z</time>
      </trkpt>
      <trkpt lat="44.88887" lon="-0.40965">
        <ele>15.7</ele>
        <time>2020-09-10T10:21:22Z</time>
      </trkpt>
      <trkpt lat="44.88887" lon="-0.40966">
        <ele>15.6</ele>
        <time>2020-09-10T10:21:23Z</time>
      </trkpt>
      <trkpt lat="44.88887" lon="-0.40968">
        <ele>15.5</ele>
        <time>2020-09-10T10:21:24Z</time>
      </trkpt>
      <trkpt lat="44.88888" lon="-0.40971">
        <ele>15.5</ele>
        <time>2020-09-10T10:21:25Z</time>
      </trkpt>
      <trkpt lat="44.88888" lon="-0.40974">
        <ele>15.4</ele>
        <time>2020-09-10T10:21:27Z</time>
      </trkpt>
      <trkpt lat="44.88888" lon="-0.40975">
        <ele>15.3</ele>
        <time>2020-09-10T10:21:28Z</time>
      </trkpt>
      <trkpt lat="44.88888" lon="-0.40976">
        <ele>15.3</ele>
        <time>2020-09-10T10:21:29Z</time>
      </trkpt>
      <trkpt lat="44.88888" lon="-0.40981">
        <ele>15.2</ele>
        <time>2020-09-10T10:21:30Z</time>
      </trkpt>
      <trkpt lat="44.88888" lon="-0.40983">
        <ele>15.1</ele>
        <time>2020-09-10T10:21:32Z</time>
      </trkpt>
      <trkpt lat="44.88888" lon="-0.40985">
        <ele>15.1</ele>
        <time>2020-09-10T10:21:33Z</time>
      </trkpt>
      <trkpt lat="44.88888" lon="-0.40987">
        <ele>15</ele>
        <time>2020-09-10T10:21:34Z</time>
      </trkpt>
      <trkpt lat="44.88888" lon="-0.40989">
        <ele>15</ele>
        <time>2020-09-10T10:21:35Z</time>
      </trkpt>
      <trkpt lat="44.88888" lon="-0.40991">
        <ele>14.9</ele>
        <time>2020-09-10T10:21:37Z</time>
      </trkpt>
      <trkpt lat="44.88888" lon="-0.40993">
        <ele>14.9</ele>
        <time>2020-09-10T10:21:38Z</time>
      </trkpt>
      <trkpt lat="44.88888" lon="-0.40997">
        <ele>14.8</ele>
        <time>2020-09-10T10:21:39Z</time>
      </trkpt>
      <trkpt lat="44.88888" lon="-0.40999">
        <ele>14.7</ele>
        <time>2020-09-10T10:21:40Z</time>
      </trkpt>
      <trkpt lat="44.88888" lon="-0.41">
        <ele>14.7</ele>
        <time>2020-09-10T10:21:42Z</time>
      </trkpt>
      <trkpt lat="44.88889" lon="-0.41002">
        <ele>14.7</ele>
        <time>2020-09-10T10:21:43Z</time>
      </trkpt>
      <trkpt lat="44.88889" lon="-0.41003">
        <ele>14.6</ele>
        <time>2020-09-10T10:21:44Z</time>
      </trkpt>
      <trkpt lat="44.8889" lon="-0.41005">
        <ele>14.6</ele>
        <time>2020-09-10T10:21:45Z</time>
      </trkpt>
      <trkpt lat="44.8889" lon="-0.41007">
        <ele>14.6</ele>
        <time>2020-09-10T10:21:46Z</time>
      </trkpt>
      <trkpt lat="44.88892" lon="-0.4101">
        <ele>14.5</ele>
        <time>2020-09-10T10:21:48Z</time>
      </trkpt>
      <trkpt lat="44.88892" lon="-0.4101">
        <ele>14.5</ele>
        <time>2020-09-10T10:21:49Z</time>
      </trkpt>
      <trkpt lat="44.88893" lon="-0.41011">
        <ele>14.5</ele>
        <time>2020-09-10T10:21:50Z</time>
      </trkpt>
      <trkpt lat="44.88895" lon="-0.41011">
        <ele>14.4</ele>
        <time>2020-09-10T10:21:52Z</time>
      </trkpt>
      <trkpt lat="44.88896" lon="-0.41012">
        <ele>14.4</ele>
        <time>2020-09-10T10:21:54Z</time>
      </trkpt>
      <trkpt lat="44.88898" lon="-0.41011">
        <ele>14.3</ele>
        <time>2020-09-10T10:21:56Z</time>
      </trkpt>
      <trkpt lat="44.88899" lon="-0.41011">
        <ele>14.3</ele>
        <time>2020-09-10T10:21:57Z</time>
      </trkpt>
      <trkpt lat="44.889" lon="-0.41011">
        <ele>14.3</ele>
        <time>2020-09-10T10:21:58Z</time>
      </trkpt>
      <trkpt lat="44.88902" lon="-0.41011">
        <ele>14.3</ele>
        <time>2020-09-10T10:21:59Z</time>
      </trkpt>
      <trkpt lat="44.88905" lon="-0.4101">
        <ele>14.2</ele>
        <time>2020-09-10T10:22:01Z</time>
      </trkpt>
      <trkpt lat="44.88907" lon="-0.41009">
        <ele>14.2</ele>
        <time>2020-09-10T10:22:02Z</time>
      </trkpt>
      <trkpt lat="44.88908" lon="-0.41009">
        <ele>14.2</ele>
        <time>2020-09-10T10:22:03Z</time>
      </trkpt>
      <trkpt lat="44.88909" lon="-0.41008">
        <ele>14.2</ele>
        <time>2020-09-10T10:22:04Z</time>
      </trkpt>
      <trkpt lat="44.88912" lon="-0.41008">
        <ele>14.1</ele>
        <time>2020-09-10T10:22:06Z</time>
      </trkpt>
      <trkpt lat="44.88914" lon="-0.41009">
        <ele>14.1</ele>
        <time>2020-09-10T10:22:07Z</time>
      </trkpt>
      <trkpt lat="44.88916" lon="-0.41009">
        <ele>14.1</ele>
        <time>2020-09-10T10:22:09Z</time>
      </trkpt>
      <trkpt lat="44.88917" lon="-0.4101">
        <ele>14.1</ele>
        <time>2020-09-10T10:22:10Z</time>
      </trkpt>
      <trkpt lat="44.88919" lon="-0.4101">
        <ele>14.1</ele>
        <time>2020-09-10T10:22:11Z</time>
      </trkpt>
      <trkpt lat="44.88921" lon="-0.41011">
        <ele>14.1</ele>
        <time>2020-09-10T10:22:12Z</time>
      </trkpt>
      <trkpt lat="44.88923" lon="-0.41011">
        <ele>14.2</ele>
        <time>2020-09-10T10:22:14Z</time>
      </trkpt>
      <trkpt lat="44.88924" lon="-0.41012">
        <ele>14.2</ele>
        <time>2020-09-10T10:22:15Z</time>
      </trkpt>
      <trkpt lat="44.88926" lon="-0.41012">
        <ele>14.2</ele>
        <time>2020-09-10T10:22:16Z</time>
      </trkpt>
      <trkpt lat="44.88928" lon="-0.41014">
        <ele>14.2</ele>
        <time>2020-09-10T10:22:18Z</time>
      </trkpt>
      <trkpt lat="44.88928" lon="-0.41014">
        <ele>14.2</ele>
        <time>2020-09-10T10:22:19Z</time>
      </trkpt>
      <trkpt lat="44.88929" lon="-0.41015">
        <ele>14.2</ele>
        <time>2020-09-10T10:22:20Z</time>
      </trkpt>
      <trkpt lat="44.88931" lon="-0.41016">
        <ele>14.2</ele>
        <time>2020-09-10T10:22:21Z</time>
      </trkpt>
      <trkpt lat="44.88931" lon="-0.41017">
        <ele>14.2</ele>
        <time>2020-09-10T10:22:22Z</time>
      </trkpt>
      <trkpt lat="44.88932" lon="-0.41018">
        <ele>14.2</ele>
        <time>2020-09-10T10:22:23Z</time>
      </trkpt>
      <trkpt lat="44.88934" lon="-0.41021">
        <ele>14.3</ele>
        <time>2020-09-10T10:22:25Z</time>
      </trkpt>
      <trkpt lat="44.88935" lon="-0.41022">
        <ele>14.3</ele>
        <time>2020-09-10T10:22:27Z</time>
      </trkpt>
      <trkpt lat="44.88936" lon="-0.41023">
        <ele>14.3</ele>
        <time>2020-09-10T10:22:28Z</time>
      </trkpt>
      <trkpt lat="44.88936" lon="-0.41024">
        <ele>14.3</ele>
        <time>2020-09-10T10:22:29Z</time>
      </trkpt>
      <trkpt lat="44.88937" lon="-0.41024">
        <ele>14.3</ele>
        <time>2020-09-10T10:22:30Z</time>
      </trkpt>
      <trkpt lat="44.88939" lon="-0.41023">
        <ele>14.3</ele>
        <time>2020-09-10T10:22:31Z</time>
      </trkpt>
      <trkpt lat="44.88941" lon="-0.4102">
        <ele>14.2</ele>
        <time>2020-09-10T10:22:32Z</time>
      </trkpt>
      <trkpt lat="44.88941" lon="-0.41018">
        <ele>14.2</ele>
        <time>2020-09-10T10:22:34Z</time>
      </trkpt>
      <trkpt lat="44.88942" lon="-0.41017">
        <ele>14.2</ele>
        <time>2020-09-10T10:22:35Z</time>
      </trkpt>
      <trkpt lat="44.88943" lon="-0.41015">
        <ele>14.2</ele>
        <time>2020-09-10T10:22:36Z</time>
      </trkpt>
      <trkpt lat="44.88943" lon="-0.41013">
        <ele>14.2</ele>
        <time>2020-09-10T10:22:37Z</time>
      </trkpt>
      <trkpt lat="44.88943" lon="-0.4101">
        <ele>14.2</ele>
        <time>2020-09-10T10:22:38Z</time>
      </trkpt>
      <trkpt lat="44.88943" lon="-0.41009">
        <ele>14.1</ele>
        <time>2020-09-10T10:22:39Z</time>
      </trkpt>
      <trkpt lat="44.88942" lon="-0.41007">
        <ele>14.1</ele>
        <time>2020-09-10T10:22:40Z</time>
      </trkpt>
      <trkpt lat="44.88942" lon="-0.41004">
        <ele>14.1</ele>
        <time>2020-09-10T10:22:41Z</time>
      </trkpt>
      <trkpt lat="44.8894" lon="-0.41001">
        <ele>14</ele>
        <time>2020-09-10T10:22:43Z</time>
      </trkpt>
      <trkpt lat="44.88939" lon="-0.40997">
        <ele>13.9</ele>
        <time>2020-09-10T10:22:45Z</time>
      </trkpt>
      <trkpt lat="44.88938" lon="-0.40996">
        <ele>13.9</ele>
        <time>2020-09-10T10:22:46Z</time>
      </trkpt>
      <trkpt lat="44.88938" lon="-0.40994">
        <ele>13.9</ele>
        <time>2020-09-10T10:22:47Z</time>
      </trkpt>
      <trkpt lat="44.88938" lon="-0.40991">
        <ele>13.8</ele>
        <time>2020-09-10T10:22:49Z</time>
      </trkpt>
      <trkpt lat="44.88939" lon="-0.40989">
        <ele>13.7</ele>
        <time>2020-09-10T10:22:50Z</time>
      </trkpt>
      <trkpt lat="44.88941" lon="-0.40988">
        <ele>13.7</ele>
        <time>2020-09-10T10:22:51Z</time>
      </trkpt>
      <trkpt lat="44.88941" lon="-0.40988">
        <ele>13.7</ele>
        <time>2020-09-10T10:22:53Z</time>
      </trkpt>
      <trkpt lat="44.88943" lon="-0.40988">
        <ele>13.6</ele>
        <time>2020-09-10T10:22:54Z</time>
      </trkpt>
      <trkpt lat="44.88944" lon="-0.40989">
        <ele>13.6</ele>
        <time>2020-09-10T10:22:55Z</time>
      </trkpt>
      <trkpt lat="44.88946" lon="-0.4099">
        <ele>13.5</ele>
        <time>2020-09-10T10:22:56Z</time>
      </trkpt>
      <trkpt lat="44.88947" lon="-0.4099">
        <ele>13.5</ele>
        <time>2020-09-10T10:22:57Z</time>
      </trkpt>
      <trkpt lat="44.88949" lon="-0.40993">
        <ele>13.4</ele>
        <time>2020-09-10T10:22:59Z</time>
      </trkpt>
      <trkpt lat="44.8895" lon="-0.40994">
        <ele>13.4</ele>
        <time>2020-09-10T10:23:00Z</time>
      </trkpt>
      <trkpt lat="44.88951" lon="-0.40997">
        <ele>13.3</ele>
        <time>2020-09-10T10:23:01Z</time>
      </trkpt>
      <trkpt lat="44.88951" lon="-0.40999">
        <ele>13.3</ele>
        <time>2020-09-10T10:23:03Z</time>
      </trkpt>
      <trkpt lat="44.8895" lon="-0.41002">
        <ele>13.2</ele>
        <time>2020-09-10T10:23:04Z</time>
      </trkpt>
      <trkpt lat="44.8895" lon="-0.41006">
        <ele>13.2</ele>
        <time>2020-09-10T10:23:06Z</time>
      </trkpt>
      <trkpt lat="44.88949" lon="-0.41008">
        <ele>13.2</ele>
        <time>2020-09-10T10:23:07Z</time>
      </trkpt>
      <trkpt lat="44.88949" lon="-0.4101">
        <ele>13.1</ele>
        <time>2020-09-10T10:23:08Z</time>
      </trkpt>
      <trkpt lat="44.88949" lon="-0.41012">
        <ele>13.1</ele>
        <time>2020-09-10T10:23:09Z</time>
      </trkpt>
      <trkpt lat="44.88948" lon="-0.41016">
        <ele>13.1</ele>
        <time>2020-09-10T10:23:11Z</time>
      </trkpt>
      <trkpt lat="44.88948" lon="-0.41019">
        <ele>13</ele>
        <time>2020-09-10T10:23:13Z</time>
      </trkpt>
      <trkpt lat="44.88948" lon="-0.4102">
        <ele>13</ele>
        <time>2020-09-10T10:23:14Z</time>
      </trkpt>
      <trkpt lat="44.88949" lon="-0.41021">
        <ele>13</ele>
        <time>2020-09-10T10:23:15Z</time>
      </trkpt>
      <trkpt lat="44.88949" lon="-0.41024">
        <ele>13</ele>
        <time>2020-09-10T10:23:16Z</time>
      </trkpt>
      <trkpt lat="44.88949" lon="-0.41026">
        <ele>13</ele>
        <time>2020-09-10T10:23:18Z</time>
      </trkpt>
      <trkpt lat="44.8895" lon="-0.41028">
        <ele>13</ele>
        <time>2020-09-10T10:23:19Z</time>
      </trkpt>
      <trkpt lat="44.8895" lon="-0.4103">
        <ele>13</ele>
        <time>2020-09-10T10:23:20Z</time>
      </trkpt>
      <trkpt lat="44.88951" lon="-0.41033">
        <ele>13</ele>
        <time>2020-09-10T10:23:21Z</time>
      </trkpt>
      <trkpt lat="44.88951" lon="-0.41035">
        <ele>13</ele>
        <time>2020-09-10T10:23:23Z</time>
      </trkpt>
      <trkpt lat="44.88952" lon="-0.41036">
        <ele>13.1</ele>
        <time>2020-09-10T10:23:24Z</time>
      </trkpt>
      <trkpt lat="44.88952" lon="-0.41038">
        <ele>13.1</ele>
        <time>2020-09-10T10:23:25Z</time>
      </trkpt>
      <trkpt lat="44.88952" lon="-0.41039">
        <ele>13.1</ele>
        <time>2020-09-10T10:23:26Z</time>
      </trkpt>
      <trkpt lat="44.88953" lon="-0.41041">
        <ele>13.1</ele>
        <time>2020-09-10T10:23:28Z</time>
      </trkpt>
      <trkpt lat="44.88953" lon="-0.41042">
        <ele>13.1</ele>
        <time>2020-09-10T10:23:29Z</time>
      </trkpt>
      <trkpt lat="44.88953" lon="-0.41044">
        <ele>13.1</ele>
        <time>2020-09-10T10:23:30Z</time>
      </trkpt>
      <trkpt lat="44.88954" lon="-0.41047">
        <ele>13.1</ele>
        <time>2020-09-10T10:23:31Z</time>
      </trkpt>
      <trkpt lat="44.88954" lon="-0.41049">
        <ele>13.1</ele>
        <time>2020-09-10T10:23:33Z</time>
      </trkpt>
      <trkpt lat="44.88954" lon="-0.4105">
        <ele>13.1</ele>
        <time>2020-09-10T10:23:34Z</time>
      </trkpt>
      <trkpt lat="44.88955" lon="-0.41054">
        <ele>13.1</ele>
        <time>2020-09-10T10:23:36Z</time>
      </trkpt>
      <trkpt lat="44.88956" lon="-0.41055">
        <ele>13.1</ele>
        <time>2020-09-10T10:23:38Z</time>
      </trkpt>
      <trkpt lat="44.88956" lon="-0.41057">
        <ele>13.1</ele>
        <time>2020-09-10T10:23:39Z</time>
      </trkpt>
      <trkpt lat="44.88957" lon="-0.41058">
        <ele>13.2</ele>
        <time>2020-09-10T10:23:40Z</time>
      </trkpt>
      <trkpt lat="44.88957" lon="-0.41061">
        <ele>13.2</ele>
        <time>2020-09-10T10:23:42Z</time>
      </trkpt>
      <trkpt lat="44.88957" lon="-0.41063">
        <ele>13.2</ele>
        <time>2020-09-10T10:23:43Z</time>
      </trkpt>
      <trkpt lat="44.88958" lon="-0.41065">
        <ele>13.2</ele>
        <time>2020-09-10T10:23:44Z</time>
      </trkpt>
      <trkpt lat="44.88958" lon="-0.41067">
        <ele>13.2</ele>
        <time>2020-09-10T10:23:45Z</time>
      </trkpt>
      <trkpt lat="44.88959" lon="-0.4107">
        <ele>13.2</ele>
        <time>2020-09-10T10:23:46Z</time>
      </trkpt>
      <trkpt lat="44.8896" lon="-0.41073">
        <ele>13.2</ele>
        <time>2020-09-10T10:23:48Z</time>
      </trkpt>
      <trkpt lat="44.8896" lon="-0.41074">
        <ele>13.2</ele>
        <time>2020-09-10T10:23:49Z</time>
      </trkpt>
      <trkpt lat="44.8896" lon="-0.41075">
        <ele>13.2</ele>
        <time>2020-09-10T10:23:51Z</time>
      </trkpt>
      <trkpt lat="44.88961" lon="-0.41076">
        <ele>13.2</ele>
        <time>2020-09-10T10:23:52Z</time>
      </trkpt>
      <trkpt lat="44.88963" lon="-0.41077">
        <ele>13.2</ele>
        <time>2020-09-10T10:23:54Z</time>
      </trkpt>
      <trkpt lat="44.88964" lon="-0.41077">
        <ele>13.2</ele>
        <time>2020-09-10T10:23:55Z</time>
      </trkpt>
      <trkpt lat="44.88965" lon="-0.41078">
        <ele>13.2</ele>
        <time>2020-09-10T10:23:56Z</time>
      </trkpt>
      <trkpt lat="44.88967" lon="-0.41078">
        <ele>13.2</ele>
        <time>2020-09-10T10:23:57Z</time>
      </trkpt>
      <trkpt lat="44.88968" lon="-0.41079">
        <ele>13.2</ele>
        <time>2020-09-10T10:23:58Z</time>
      </trkpt>
      <trkpt lat="44.88969" lon="-0.41078">
        <ele>13.2</ele>
        <time>2020-09-10T10:23:59Z</time>
      </trkpt>
      <trkpt lat="44.8897" lon="-0.41079">
        <ele>13.2</ele>
        <time>2020-09-10T10:24:00Z</time>
      </trkpt>
      <trkpt lat="44.88972" lon="-0.41078">
        <ele>13.3</ele>
        <time>2020-09-10T10:24:02Z</time>
      </trkpt>
      <trkpt lat="44.88973" lon="-0.41078">
        <ele>13.3</ele>
        <time>2020-09-10T10:24:03Z</time>
      </trkpt>
      <trkpt lat="44.88974" lon="-0.41078">
        <ele>13.3</ele>
        <time>2020-09-10T10:24:05Z</time>
      </trkpt>
      <trkpt lat="44.88975" lon="-0.41077">
        <ele>13.3</ele>
        <time>2020-09-10T10:24:06Z</time>
      </trkpt>
      <trkpt lat="44.88976" lon="-0.41077">
        <ele>13.3</ele>
        <time>2020-09-10T10:24:08Z</time>
      </trkpt>
      <trkpt lat="44.88978" lon="-0.41077">
        <ele>13.2</ele>
        <time>2020-09-10T10:24:09Z</time>
      </trkpt>
      <trkpt lat="44.88979" lon="-0.41076">
        <ele>13.2</ele>
        <time>2020-09-10T10:24:10Z</time>
      </trkpt>
      <trkpt lat="44.8898" lon="-0.41076">
        <ele>13.2</ele>
        <time>2020-09-10T10:24:12Z</time>
      </trkpt>
      <trkpt lat="44.88982" lon="-0.41076">
        <ele>13.2</ele>
        <time>2020-09-10T10:24:13Z</time>
      </trkpt>
      <trkpt lat="44.88985" lon="-0.41076">
        <ele>13.2</ele>
        <time>2020-09-10T10:24:15Z</time>
      </trkpt>
      <trkpt lat="44.88986" lon="-0.41077">
        <ele>13.2</ele>
        <time>2020-09-10T10:24:16Z</time>
      </trkpt>
      <trkpt lat="44.88986" lon="-0.41077">
        <ele>13.2</ele>
        <time>2020-09-10T10:24:17Z</time>
      </trkpt>
      <trkpt lat="44.88987" lon="-0.41078">
        <ele>13.2</ele>
        <time>2020-09-10T10:24:18Z</time>
      </trkpt>
      <trkpt lat="44.88988" lon="-0.41079">
        <ele>13.2</ele>
        <time>2020-09-10T10:24:20Z</time>
      </trkpt>
      <trkpt lat="44.88988" lon="-0.41082">
        <ele>13.2</ele>
        <time>2020-09-10T10:24:21Z</time>
      </trkpt>
      <trkpt lat="44.88987" lon="-0.41085">
        <ele>13.1</ele>
        <time>2020-09-10T10:24:23Z</time>
      </trkpt>
      <trkpt lat="44.88987" lon="-0.41086">
        <ele>13.1</ele>
        <time>2020-09-10T10:24:24Z</time>
      </trkpt>
      <trkpt lat="44.88987" lon="-0.41086">
        <ele>13.1</ele>
        <time>2020-09-10T10:24:26Z</time>
      </trkpt>
      <trkpt lat="44.88986" lon="-0.41088">
        <ele>13.1</ele>
        <time>2020-09-10T10:24:27Z</time>
      </trkpt>
      <trkpt lat="44.88986" lon="-0.41089">
        <ele>13.1</ele>
        <time>2020-09-10T10:24:28Z</time>
      </trkpt>
      <trkpt lat="44.88986" lon="-0.41089">
        <ele>13.1</ele>
        <time>2020-09-10T10:24:29Z</time>
      </trkpt>
      <trkpt lat="44.88986" lon="-0.4109">
        <ele>13.1</ele>
        <time>2020-09-10T10:24:31Z</time>
      </trkpt>
      <trkpt lat="44.88986" lon="-0.41091">
        <ele>13.1</ele>
        <time>2020-09-10T10:24:33Z</time>
      </trkpt>
      <trkpt lat="44.88986" lon="-0.41093">
        <ele>13.1</ele>
        <time>2020-09-10T10:24:35Z</time>
      </trkpt>
      <trkpt lat="44.88986" lon="-0.41094">
        <ele>13.1</ele>
        <time>2020-09-10T10:24:37Z</time>
      </trkpt>
      <trkpt lat="44.88986" lon="-0.41096">
        <ele>13.1</ele>
        <time>2020-09-10T10:24:38Z</time>
      </trkpt>
      <trkpt lat="44.88986" lon="-0.41098">
        <ele>13.1</ele>
        <time>2020-09-10T10:24:39Z</time>
      </trkpt>
      <trkpt lat="44.88986" lon="-0.41099">
        <ele>13.1</ele>
        <time>2020-09-10T10:24:40Z</time>
      </trkpt>
      <trkpt lat="44.88986" lon="-0.41101">
        <ele>13.1</ele>
        <time>2020-09-10T10:24:42Z</time>
      </trkpt>
      <trkpt lat="44.88986" lon="-0.41103">
        <ele>13.1</ele>
        <time>2020-09-10T10:24:43Z</time>
      </trkpt>
      <trkpt lat="44.88987" lon="-0.41104">
        <ele>13.1</ele>
        <time>2020-09-10T10:24:44Z</time>
      </trkpt>
      <trkpt lat="44.88988" lon="-0.41105">
        <ele>13.1</ele>
        <time>2020-09-10T10:24:46Z</time>
      </trkpt>
      <trkpt lat="44.88989" lon="-0.41105">
        <ele>13.1</ele>
        <time>2020-09-10T10:24:47Z</time>
      </trkpt>
      <trkpt lat="44.88989" lon="-0.41104">
        <ele>13.1</ele>
        <time>2020-09-10T10:24:49Z</time>
      </trkpt>
      <trkpt lat="44.8899" lon="-0.41105">
        <ele>13.1</ele>
        <time>2020-09-10T10:24:50Z</time>
      </trkpt>
      <trkpt lat="44.8899" lon="-0.41106">
        <ele>13.1</ele>
        <time>2020-09-10T10:24:51Z</time>
      </trkpt>
      <trkpt lat="44.88992" lon="-0.41107">
        <ele>13.1</ele>
        <time>2020-09-10T10:24:53Z</time>
      </trkpt>
      <trkpt lat="44.88992" lon="-0.41108">
        <ele>13.1</ele>
        <time>2020-09-10T10:24:54Z</time>
      </trkpt>
      <trkpt lat="44.88994" lon="-0.41109">
        <ele>13.1</ele>
        <time>2020-09-10T10:24:55Z</time>
      </trkpt>
      <trkpt lat="44.88994" lon="-0.41109">
        <ele>13.1</ele>
        <time>2020-09-10T10:24:56Z</time>
      </trkpt>
      <trkpt lat="44.88996" lon="-0.4111">
        <ele>13.1</ele>
        <time>2020-09-10T10:24:58Z</time>
      </trkpt>
      <trkpt lat="44.88996" lon="-0.41111">
        <ele>13.1</ele>
        <time>2020-09-10T10:24:59Z</time>
      </trkpt>
      <trkpt lat="44.88997" lon="-0.41112">
        <ele>13.1</ele>
        <time>2020-09-10T10:25:00Z</time>
      </trkpt>
      <trkpt lat="44.88997" lon="-0.41115">
        <ele>13.1</ele>
        <time>2020-09-10T10:25:02Z</time>
      </trkpt>
      <trkpt lat="44.88998" lon="-0.41119">
        <ele>13.1</ele>
        <time>2020-09-10T10:25:03Z</time>
      </trkpt>
      <trkpt lat="44.88998" lon="-0.41121">
        <ele>13.1</ele>
        <time>2020-09-10T10:25:05Z</time>
      </trkpt>
      <trkpt lat="44.88998" lon="-0.41123">
        <ele>13.2</ele>
        <time>2020-09-10T10:25:06Z</time>
      </trkpt>
      <trkpt lat="44.88998" lon="-0.41125">
        <ele>13.2</ele>
        <time>2020-09-10T10:25:07Z</time>
      </trkpt>
      <trkpt lat="44.88998" lon="-0.41127">
        <ele>13.2</ele>
        <time>2020-09-10T10:25:09Z</time>
      </trkpt>
      <trkpt lat="44.88998" lon="-0.41129">
        <ele>13.2</ele>
        <time>2020-09-10T10:25:10Z</time>
      </trkpt>
      <trkpt lat="44.88998" lon="-0.41132">
        <ele>13.3</ele>
        <time>2020-09-10T10:25:12Z</time>
      </trkpt>
      <trkpt lat="44.88998" lon="-0.41134">
        <ele>13.3</ele>
        <time>2020-09-10T10:25:14Z</time>
      </trkpt>
      <trkpt lat="44.88998" lon="-0.41135">
        <ele>13.3</ele>
        <time>2020-09-10T10:25:15Z</time>
      </trkpt>
      <trkpt lat="44.88997" lon="-0.41137">
        <ele>13.3</ele>
        <time>2020-09-10T10:25:16Z</time>
      </trkpt>
      <trkpt lat="44.88997" lon="-0.41141">
        <ele>13.4</ele>
        <time>2020-09-10T10:25:18Z</time>
      </trkpt>
      <trkpt lat="44.88997" lon="-0.41142">
        <ele>13.4</ele>
        <time>2020-09-10T10:25:19Z</time>
      </trkpt>
      <trkpt lat="44.88997" lon="-0.41144">
        <ele>13.4</ele>
        <time>2020-09-10T10:25:20Z</time>
      </trkpt>
      <trkpt lat="44.88997" lon="-0.41146">
        <ele>13.5</ele>
        <time>2020-09-10T10:25:21Z</time>
      </trkpt>
      <trkpt lat="44.88998" lon="-0.4115">
        <ele>13.5</ele>
        <time>2020-09-10T10:25:23Z</time>
      </trkpt>
      <trkpt lat="44.88998" lon="-0.41151">
        <ele>13.6</ele>
        <time>2020-09-10T10:25:25Z</time>
      </trkpt>
      <trkpt lat="44.88998" lon="-0.41153">
        <ele>13.6</ele>
        <time>2020-09-10T10:25:26Z</time>
      </trkpt>
      <trkpt lat="44.88998" lon="-0.41154">
        <ele>13.6</ele>
        <time>2020-09-10T10:25:27Z</time>
      </trkpt>
      <trkpt lat="44.88998" lon="-0.41159">
        <ele>13.7</ele>
        <time>2020-09-10T10:25:29Z</time>
      </trkpt>
      <trkpt lat="44.88998" lon="-0.4116">
        <ele>13.7</ele>
        <time>2020-09-10T10:25:30Z</time>
      </trkpt>
      <trkpt lat="44.88997" lon="-0.41162">
        <ele>13.7</ele>
        <time>2020-09-10T10:25:31Z</time>
      </trkpt>
      <trkpt lat="44.88996" lon="-0.41166">
        <ele>13.8</ele>
        <time>2020-09-10T10:25:33Z</time>
      </trkpt>
      <trkpt lat="44.88995" lon="-0.41168">
        <ele>13.8</ele>
        <time>2020-09-10T10:25:35Z</time>
      </trkpt>
      <trkpt lat="44.88994" lon="-0.41169">
        <ele>13.9</ele>
        <time>2020-09-10T10:25:36Z</time>
      </trkpt>
      <trkpt lat="44.88993" lon="-0.41172">
        <ele>13.9</ele>
        <time>2020-09-10T10:25:38Z</time>
      </trkpt>
      <trkpt lat="44.88992" lon="-0.41173">
        <ele>14</ele>
        <time>2020-09-10T10:25:39Z</time>
      </trkpt>
      <trkpt lat="44.88991" lon="-0.41176">
        <ele>14</ele>
        <time>2020-09-10T10:25:41Z</time>
      </trkpt>
      <trkpt lat="44.8899" lon="-0.41178">
        <ele>14.1</ele>
        <time>2020-09-10T10:25:43Z</time>
      </trkpt>
      <trkpt lat="44.8899" lon="-0.41179">
        <ele>14.1</ele>
        <time>2020-09-10T10:25:44Z</time>
      </trkpt>
      <trkpt lat="44.8899" lon="-0.4118">
        <ele>14.1</ele>
        <time>2020-09-10T10:25:45Z</time>
      </trkpt>
      <trkpt lat="44.88989" lon="-0.41181">
        <ele>14.2</ele>
        <time>2020-09-10T10:25:47Z</time>
      </trkpt>
      <trkpt lat="44.88989" lon="-0.41183">
        <ele>14.2</ele>
        <time>2020-09-10T10:25:48Z</time>
      </trkpt>
      <trkpt lat="44.88988" lon="-0.41184">
        <ele>14.2</ele>
        <time>2020-09-10T10:25:49Z</time>
      </trkpt>
      <trkpt lat="44.88988" lon="-0.41185">
        <ele>14.2</ele>
        <time>2020-09-10T10:25:50Z</time>
      </trkpt>
      <trkpt lat="44.88987" lon="-0.41186">
        <ele>14.3</ele>
        <time>2020-09-10T10:25:52Z</time>
      </trkpt>
      <trkpt lat="44.88987" lon="-0.41188">
        <ele>14.3</ele>
        <time>2020-09-10T10:25:53Z</time>
      </trkpt>
      <trkpt lat="44.88986" lon="-0.4119">
        <ele>14.4</ele>
        <time>2020-09-10T10:25:54Z</time>
      </trkpt>
      <trkpt lat="44.88985" lon="-0.41191">
        <ele>14.4</ele>
        <time>2020-09-10T10:25:55Z</time>
      </trkpt>
      <trkpt lat="44.88985" lon="-0.41192">
        <ele>14.4</ele>
        <time>2020-09-10T10:25:57Z</time>
      </trkpt>
      <trkpt lat="44.88985" lon="-0.41195">
        <ele>14.5</ele>
        <time>2020-09-10T10:25:58Z</time>
      </trkpt>
      <trkpt lat="44.88984" lon="-0.41197">
        <ele>14.5</ele>
        <time>2020-09-10T10:26:00Z</time>
      </trkpt>
      <trkpt lat="44.88984" lon="-0.41198">
        <ele>14.5</ele>
        <time>2020-09-10T10:26:01Z</time>
      </trkpt>
      <trkpt lat="44.88985" lon="-0.412">
        <ele>14.5</ele>
        <time>2020-09-10T10:26:02Z</time>
      </trkpt>
      <trkpt lat="44.88985" lon="-0.41202">
        <ele>14.6</ele>
        <time>2020-09-10T10:26:04Z</time>
      </trkpt>
      <trkpt lat="44.88985" lon="-0.41204">
        <ele>14.6</ele>
        <time>2020-09-10T10:26:05Z</time>
      </trkpt>
      <trkpt lat="44.88985" lon="-0.41205">
        <ele>14.6</ele>
        <time>2020-09-10T10:26:06Z</time>
      </trkpt>
      <trkpt lat="44.88984" lon="-0.41206">
        <ele>14.6</ele>
        <time>2020-09-10T10:26:07Z</time>
      </trkpt>
      <trkpt lat="44.88984" lon="-0.41208">
        <ele>14.7</ele>
        <time>2020-09-10T10:26:09Z</time>
      </trkpt>
      <trkpt lat="44.88984" lon="-0.4121">
        <ele>14.7</ele>
        <time>2020-09-10T10:26:10Z</time>
      </trkpt>
      <trkpt lat="44.88984" lon="-0.41211">
        <ele>14.7</ele>
        <time>2020-09-10T10:26:11Z</time>
      </trkpt>
      <trkpt lat="44.88984" lon="-0.41211">
        <ele>14.7</ele>
        <time>2020-09-10T10:26:12Z</time>
      </trkpt>
      <trkpt lat="44.88984" lon="-0.41214">
        <ele>14.7</ele>
        <time>2020-09-10T10:26:14Z</time>
      </trkpt>
      <trkpt lat="44.88983" lon="-0.41217">
        <ele>14.8</ele>
        <time>2020-09-10T10:26:16Z</time>
      </trkpt>
      <trkpt lat="44.88983" lon="-0.41218">
        <ele>14.8</ele>
        <time>2020-09-10T10:26:17Z</time>
      </trkpt>
      <trkpt lat="44.88983" lon="-0.4122">
        <ele>14.8</ele>
        <time>2020-09-10T10:26:18Z</time>
      </trkpt>
      <trkpt lat="44.88982" lon="-0.41221">
        <ele>14.8</ele>
        <time>2020-09-10T10:26:19Z</time>
      </trkpt>
      <trkpt lat="44.88982" lon="-0.41223">
        <ele>14.9</ele>
        <time>2020-09-10T10:26:21Z</time>
      </trkpt>
      <trkpt lat="44.88981" lon="-0.41225">
        <ele>14.9</ele>
        <time>2020-09-10T10:26:22Z</time>
      </trkpt>
      <trkpt lat="44.88981" lon="-0.41227">
        <ele>14.9</ele>
        <time>2020-09-10T10:26:23Z</time>
      </trkpt>
      <trkpt lat="44.8898" lon="-0.41229">
        <ele>15</ele>
        <time>2020-09-10T10:26:25Z</time>
      </trkpt>
      <trkpt lat="44.8898" lon="-0.4123">
        <ele>15</ele>
        <time>2020-09-10T10:26:26Z</time>
      </trkpt>
      <trkpt lat="44.88981" lon="-0.41231">
        <ele>15</ele>
        <time>2020-09-10T10:26:27Z</time>
      </trkpt>
      <trkpt lat="44.88981" lon="-0.41232">
        <ele>15</ele>
        <time>2020-09-10T10:26:28Z</time>
      </trkpt>
      <trkpt lat="44.8898" lon="-0.41235">
        <ele>15</ele>
        <time>2020-09-10T10:26:29Z</time>
      </trkpt>
      <trkpt lat="44.8898" lon="-0.41236">
        <ele>15</ele>
        <time>2020-09-10T10:26:30Z</time>
      </trkpt>
      <trkpt lat="44.8898" lon="-0.41238">
        <ele>15</ele>
        <time>2020-09-10T10:26:31Z</time>
      </trkpt>
      <trkpt lat="44.88979" lon="-0.4124">
        <ele>15.1</ele>
        <time>2020-09-10T10:26:32Z</time>
      </trkpt>
      <trkpt lat="44.88979" lon="-0.41241">
        <ele>15.1</ele>
        <time>2020-09-10T10:26:34Z</time>
      </trkpt>
      <trkpt lat="44.88978" lon="-0.41242">
        <ele>15.1</ele>
        <time>2020-09-10T10:26:35Z</time>
      </trkpt>
      <trkpt lat="44.88978" lon="-0.41243">
        <ele>15.1</ele>
        <time>2020-09-10T10:26:36Z</time>
      </trkpt>
      <trkpt lat="44.88977" lon="-0.41244">
        <ele>15.1</ele>
        <time>2020-09-10T10:26:38Z</time>
      </trkpt>
      <trkpt lat="44.88976" lon="-0.41245">
        <ele>15.1</ele>
        <time>2020-09-10T10:26:39Z</time>
      </trkpt>
      <trkpt lat="44.88974" lon="-0.41248">
        <ele>15.2</ele>
        <time>2020-09-10T10:26:41Z</time>
      </trkpt>
      <trkpt lat="44.88972" lon="-0.4125">
        <ele>15.2</ele>
        <time>2020-09-10T10:26:42Z</time>
      </trkpt>
      <trkpt lat="44.88972" lon="-0.41251">
        <ele>15.2</ele>
        <time>2020-09-10T10:26:44Z</time>
      </trkpt>
      <trkpt lat="44.88971" lon="-0.41251">
        <ele>15.2</ele>
        <time>2020-09-10T10:26:45Z</time>
      </trkpt>
      <trkpt lat="44.88969" lon="-0.41254">
        <ele>15.2</ele>
        <time>2020-09-10T10:26:47Z</time>
      </trkpt>
      <trkpt lat="44.88968" lon="-0.41255">
        <ele>15.3</ele>
        <time>2020-09-10T10:26:48Z</time>
      </trkpt>
      <trkpt lat="44.88967" lon="-0.41256">
        <ele>15.3</ele>
        <time>2020-09-10T10:26:49Z</time>
      </trkpt>
      <trkpt lat="44.88967" lon="-0.41258">
        <ele>15.3</ele>
        <time>2020-09-10T10:26:50Z</time>
      </trkpt>
      <trkpt lat="44.88966" lon="-0.41263">
        <ele>15.3</ele>
        <time>2020-09-10T10:26:52Z</time>
      </trkpt>
      <trkpt lat="44.88966" lon="-0.41264">
        <ele>15.3</ele>
        <time>2020-09-10T10:26:53Z</time>
      </trkpt>
      <trkpt lat="44.88965" lon="-0.41266">
        <ele>15.4</ele>
        <time>2020-09-10T10:26:54Z</time>
      </trkpt>
      <trkpt lat="44.88964" lon="-0.41268">
        <ele>15.4</ele>
        <time>2020-09-10T10:26:55Z</time>
      </trkpt>
      <trkpt lat="44.88964" lon="-0.41269">
        <ele>15.4</ele>
        <time>2020-09-10T10:26:56Z</time>
      </trkpt>
      <trkpt lat="44.88963" lon="-0.4127">
        <ele>15.4</ele>
        <time>2020-09-10T10:26:57Z</time>
      </trkpt>
      <trkpt lat="44.88963" lon="-0.41272">
        <ele>15.4</ele>
        <time>2020-09-10T10:26:58Z</time>
      </trkpt>
      <trkpt lat="44.88962" lon="-0.41273">
        <ele>15.4</ele>
        <time>2020-09-10T10:27:00Z</time>
      </trkpt>
      <trkpt lat="44.88961" lon="-0.41276">
        <ele>15.5</ele>
        <time>2020-09-10T10:27:01Z</time>
      </trkpt>
      <trkpt lat="44.8896" lon="-0.41277">
        <ele>15.5</ele>
        <time>2020-09-10T10:27:02Z</time>
      </trkpt>
      <trkpt lat="44.88959" lon="-0.41278">
        <ele>15.5</ele>
        <time>2020-09-10T10:27:03Z</time>
      </trkpt>
      <trkpt lat="44.88958" lon="-0.41278">
        <ele>15.5</ele>
        <time>2020-09-10T10:27:04Z</time>
      </trkpt>
      <trkpt lat="44.88956" lon="-0.4128">
        <ele>15.5</ele>
        <time>2020-09-10T10:27:06Z</time>
      </trkpt>
      <trkpt lat="44.88955" lon="-0.4128">
        <ele>15.5</ele>
        <time>2020-09-10T10:27:07Z</time>
      </trkpt>
      <trkpt lat="44.88955" lon="-0.41281">
        <ele>15.6</ele>
        <time>2020-09-10T10:27:08Z</time>
      </trkpt>
      <trkpt lat="44.88954" lon="-0.41282">
        <ele>15.6</ele>
        <time>2020-09-10T10:27:10Z</time>
      </trkpt>
      <trkpt lat="44.88953" lon="-0.41283">
        <ele>15.6</ele>
        <time>2020-09-10T10:27:11Z</time>
      </trkpt>
      <trkpt lat="44.88952" lon="-0.41285">
        <ele>15.6</ele>
        <time>2020-09-10T10:27:12Z</time>
      </trkpt>
      <trkpt lat="44.88951" lon="-0.41286">
        <ele>15.6</ele>
        <time>2020-09-10T10:27:13Z</time>
      </trkpt>
      <trkpt lat="44.8895" lon="-0.41287">
        <ele>15.6</ele>
        <time>2020-09-10T10:27:14Z</time>
      </trkpt>
      <trkpt lat="44.8895" lon="-0.41289">
        <ele>15.6</ele>
        <time>2020-09-10T10:27:15Z</time>
      </trkpt>
      <trkpt lat="44.88949" lon="-0.41291">
        <ele>15.7</ele>
        <time>2020-09-10T10:27:16Z</time>
      </trkpt>
      <trkpt lat="44.88948" lon="-0.41293">
        <ele>15.7</ele>
        <time>2020-09-10T10:27:18Z</time>
      </trkpt>
      <trkpt lat="44.88947" lon="-0.41295">
        <ele>15.7</ele>
        <time>2020-09-10T10:27:19Z</time>
      </trkpt>
      <trkpt lat="44.88946" lon="-0.41299">
        <ele>15.8</ele>
        <time>2020-09-10T10:27:21Z</time>
      </trkpt>
      <trkpt lat="44.88945" lon="-0.41301">
        <ele>15.8</ele>
        <time>2020-09-10T10:27:23Z</time>
      </trkpt>
      <trkpt lat="44.88944" lon="-0.41303">
        <ele>15.8</ele>
        <time>2020-09-10T10:27:24Z</time>
      </trkpt>
      <trkpt lat="44.88943" lon="-0.41304">
        <ele>15.8</ele>
        <time>2020-09-10T10:27:25Z</time>
      </trkpt>
      <trkpt lat="44.88942" lon="-0.41306">
        <ele>15.9</ele>
        <time>2020-09-10T10:27:26Z</time>
      </trkpt>
      <trkpt lat="44.88941" lon="-0.41307">
        <ele>15.9</ele>
        <time>2020-09-10T10:27:27Z</time>
      </trkpt>
      <trkpt lat="44.88939" lon="-0.41309">
        <ele>15.9</ele>
        <time>2020-09-10T10:27:29Z</time>
      </trkpt>
      <trkpt lat="44.88939" lon="-0.41311">
        <ele>15.9</ele>
        <time>2020-09-10T10:27:30Z</time>
      </trkpt>
      <trkpt lat="44.88938" lon="-0.41314">
        <ele>16</ele>
        <time>2020-09-10T10:27:31Z</time>
      </trkpt>
      <trkpt lat="44.88937" lon="-0.41315">
        <ele>16</ele>
        <time>2020-09-10T10:27:33Z</time>
      </trkpt>
      <trkpt lat="44.88937" lon="-0.41317">
        <ele>16</ele>
        <time>2020-09-10T10:27:34Z</time>
      </trkpt>
      <trkpt lat="44.88936" lon="-0.41319">
        <ele>16.1</ele>
        <time>2020-09-10T10:27:35Z</time>
      </trkpt>
      <trkpt lat="44.88936" lon="-0.41322">
        <ele>16.1</ele>
        <time>2020-09-10T10:27:36Z</time>
      </trkpt>
      <trkpt lat="44.88936" lon="-0.41323">
        <ele>16.1</ele>
        <time>2020-09-10T10:27:37Z</time>
      </trkpt>
      <trkpt lat="44.88935" lon="-0.41324">
        <ele>16.1</ele>
        <time>2020-09-10T10:27:38Z</time>
      </trkpt>
      <trkpt lat="44.88935" lon="-0.41327">
        <ele>16.2</ele>
        <time>2020-09-10T10:27:40Z</time>
      </trkpt>
      <trkpt lat="44.88935" lon="-0.41329">
        <ele>16.2</ele>
        <time>2020-09-10T10:27:42Z</time>
      </trkpt>
      <trkpt lat="44.88935" lon="-0.41331">
        <ele>16.2</ele>
        <time>2020-09-10T10:27:43Z</time>
      </trkpt>
      <trkpt lat="44.88935" lon="-0.41333">
        <ele>16.3</ele>
        <time>2020-09-10T10:27:45Z</time>
      </trkpt>
      <trkpt lat="44.88935" lon="-0.41334">
        <ele>16.3</ele>
        <time>2020-09-10T10:27:46Z</time>
      </trkpt>
      <trkpt lat="44.88935" lon="-0.41336">
        <ele>16.3</ele>
        <time>2020-09-10T10:27:47Z</time>
      </trkpt>
      <trkpt lat="44.88934" lon="-0.41338">
        <ele>16.3</ele>
        <time>2020-09-10T10:27:48Z</time>
      </trkpt>
      <trkpt lat="44.88934" lon="-0.4134">
        <ele>16.4</ele>
        <time>2020-09-10T10:27:50Z</time>
      </trkpt>
      <trkpt lat="44.88934" lon="-0.41343">
        <ele>16.4</ele>
        <time>2020-09-10T10:27:51Z</time>
      </trkpt>
      <trkpt lat="44.88933" lon="-0.41345">
        <ele>16.4</ele>
        <time>2020-09-10T10:27:53Z</time>
      </trkpt>
      <trkpt lat="44.88933" lon="-0.41347">
        <ele>16.5</ele>
        <time>2020-09-10T10:27:54Z</time>
      </trkpt>
      <trkpt lat="44.88932" lon="-0.41349">
        <ele>16.5</ele>
        <time>2020-09-10T10:27:56Z</time>
      </trkpt>
      <trkpt lat="44.88932" lon="-0.41352">
        <ele>16.5</ele>
        <time>2020-09-10T10:27:57Z</time>
      </trkpt>
      <trkpt lat="44.88932" lon="-0.41354">
        <ele>16.6</ele>
        <time>2020-09-10T10:27:58Z</time>
      </trkpt>
      <trkpt lat="44.88931" lon="-0.41356">
        <ele>16.6</ele>
        <time>2020-09-10T10:27:59Z</time>
      </trkpt>
      <trkpt lat="44.88931" lon="-0.41359">
        <ele>16.7</ele>
        <time>2020-09-10T10:28:01Z</time>
      </trkpt>
      <trkpt lat="44.8893" lon="-0.41362">
        <ele>16.7</ele>
        <time>2020-09-10T10:28:02Z</time>
      </trkpt>
      <trkpt lat="44.8893" lon="-0.41365">
        <ele>16.8</ele>
        <time>2020-09-10T10:28:04Z</time>
      </trkpt>
      <trkpt lat="44.88929" lon="-0.41368">
        <ele>16.8</ele>
        <time>2020-09-10T10:28:05Z</time>
      </trkpt>
      <trkpt lat="44.88929" lon="-0.41369">
        <ele>16.8</ele>
        <time>2020-09-10T10:28:06Z</time>
      </trkpt>
      <trkpt lat="44.88929" lon="-0.41371">
        <ele>16.9</ele>
        <time>2020-09-10T10:28:07Z</time>
      </trkpt>
      <trkpt lat="44.88929" lon="-0.41376">
        <ele>17</ele>
        <time>2020-09-10T10:28:09Z</time>
      </trkpt>
      <trkpt lat="44.88929" lon="-0.41377">
        <ele>17</ele>
        <time>2020-09-10T10:28:10Z</time>
      </trkpt>
      <trkpt lat="44.88929" lon="-0.41379">
        <ele>17</ele>
        <time>2020-09-10T10:28:11Z</time>
      </trkpt>
      <trkpt lat="44.88929" lon="-0.41381">
        <ele>17.1</ele>
        <time>2020-09-10T10:28:13Z</time>
      </trkpt>
      <trkpt lat="44.88929" lon="-0.41386">
        <ele>17.2</ele>
        <time>2020-09-10T10:28:14Z</time>
      </trkpt>
      <trkpt lat="44.88929" lon="-0.41387">
        <ele>17.2</ele>
        <time>2020-09-10T10:28:15Z</time>
      </trkpt>
      <trkpt lat="44.8893" lon="-0.41389">
        <ele>17.2</ele>
        <time>2020-09-10T10:28:17Z</time>
      </trkpt>
      <trkpt lat="44.8893" lon="-0.4139">
        <ele>17.2</ele>
        <time>2020-09-10T10:28:18Z</time>
      </trkpt>
      <trkpt lat="44.8893" lon="-0.41391">
        <ele>17.3</ele>
        <time>2020-09-10T10:28:19Z</time>
      </trkpt>
      <trkpt lat="44.8893" lon="-0.41392">
        <ele>17.3</ele>
        <time>2020-09-10T10:28:21Z</time>
      </trkpt>
      <trkpt lat="44.8893" lon="-0.41394">
        <ele>17.3</ele>
        <time>2020-09-10T10:28:22Z</time>
      </trkpt>
      <trkpt lat="44.8893" lon="-0.41395">
        <ele>17.3</ele>
        <time>2020-09-10T10:28:23Z</time>
      </trkpt>
      <trkpt lat="44.8893" lon="-0.41396">
        <ele>17.4</ele>
        <time>2020-09-10T10:28:24Z</time>
      </trkpt>
      <trkpt lat="44.8893" lon="-0.41398">
        <ele>17.4</ele>
        <time>2020-09-10T10:28:25Z</time>
      </trkpt>
      <trkpt lat="44.88929" lon="-0.414">
        <ele>17.5</ele>
        <time>2020-09-10T10:28:27Z</time>
      </trkpt>
      <trkpt lat="44.88929" lon="-0.41402">
        <ele>17.5</ele>
        <time>2020-09-10T10:28:28Z</time>
      </trkpt>
      <trkpt lat="44.88929" lon="-0.41403">
        <ele>17.5</ele>
        <time>2020-09-10T10:28:29Z</time>
      </trkpt>
      <trkpt lat="44.88929" lon="-0.41405">
        <ele>17.6</ele>
        <time>2020-09-10T10:28:31Z</time>
      </trkpt>
      <trkpt lat="44.88929" lon="-0.41408">
        <ele>17.6</ele>
        <time>2020-09-10T10:28:32Z</time>
      </trkpt>
      <trkpt lat="44.88929" lon="-0.4141">
        <ele>17.6</ele>
        <time>2020-09-10T10:28:33Z</time>
      </trkpt>
      <trkpt lat="44.88929" lon="-0.41411">
        <ele>17.7</ele>
        <time>2020-09-10T10:28:34Z</time>
      </trkpt>
      <trkpt lat="44.88929" lon="-0.41414">
        <ele>17.7</ele>
        <time>2020-09-10T10:28:36Z</time>
      </trkpt>
      <trkpt lat="44.88929" lon="-0.41415">
        <ele>17.7</ele>
        <time>2020-09-10T10:28:37Z</time>
      </trkpt>
      <trkpt lat="44.8893" lon="-0.41417">
        <ele>17.8</ele>
        <time>2020-09-10T10:28:38Z</time>
      </trkpt>
      <trkpt lat="44.8893" lon="-0.41418">
        <ele>17.8</ele>
        <time>2020-09-10T10:28:39Z</time>
      </trkpt>
      <trkpt lat="44.8893" lon="-0.41419">
        <ele>17.8</ele>
        <time>2020-09-10T10:28:40Z</time>
      </trkpt>
      <trkpt lat="44.8893" lon="-0.41422">
        <ele>17.9</ele>
        <time>2020-09-10T10:28:42Z</time>
      </trkpt>
      <trkpt lat="44.8893" lon="-0.41424">
        <ele>17.9</ele>
        <time>2020-09-10T10:28:43Z</time>
      </trkpt>
      <trkpt lat="44.8893" lon="-0.41425">
        <ele>18</ele>
        <time>2020-09-10T10:28:44Z</time>
      </trkpt>
      <trkpt lat="44.88929" lon="-0.41426">
        <ele>18</ele>
        <time>2020-09-10T10:28:45Z</time>
      </trkpt>
      <trkpt lat="44.88927" lon="-0.41429">
        <ele>18.1</ele>
        <time>2020-09-10T10:28:47Z</time>
      </trkpt>
      <trkpt lat="44.88926" lon="-0.41431">
        <ele>18.1</ele>
        <time>2020-09-10T10:28:48Z</time>
      </trkpt>
      <trkpt lat="44.88925" lon="-0.41432">
        <ele>18.1</ele>
        <time>2020-09-10T10:28:49Z</time>
      </trkpt>
      <trkpt lat="44.88924" lon="-0.41433">
        <ele>18.2</ele>
        <time>2020-09-10T10:28:50Z</time>
      </trkpt>
      <trkpt lat="44.88923" lon="-0.41434">
        <ele>18.2</ele>
        <time>2020-09-10T10:28:52Z</time>
      </trkpt>
      <trkpt lat="44.88923" lon="-0.41437">
        <ele>18.2</ele>
        <time>2020-09-10T10:28:53Z</time>
      </trkpt>
      <trkpt lat="44.88923" lon="-0.41438">
        <ele>18.2</ele>
        <time>2020-09-10T10:28:54Z</time>
      </trkpt>
      <trkpt lat="44.88923" lon="-0.41439">
        <ele>18.3</ele>
        <time>2020-09-10T10:28:56Z</time>
      </trkpt>
      <trkpt lat="44.88923" lon="-0.41441">
        <ele>18.3</ele>
        <time>2020-09-10T10:28:57Z</time>
      </trkpt>
      <trkpt lat="44.88923" lon="-0.41442">
        <ele>18.3</ele>
        <time>2020-09-10T10:28:58Z</time>
      </trkpt>
      <trkpt lat="44.88923" lon="-0.41443">
        <ele>18.3</ele>
        <time>2020-09-10T10:28:59Z</time>
      </trkpt>
      <trkpt lat="44.88924" lon="-0.41445">
        <ele>18.4</ele>
        <time>2020-09-10T10:29:00Z</time>
      </trkpt>
      <trkpt lat="44.88924" lon="-0.41447">
        <ele>18.4</ele>
        <time>2020-09-10T10:29:01Z</time>
      </trkpt>
      <trkpt lat="44.88925" lon="-0.41451">
        <ele>18.4</ele>
        <time>2020-09-10T10:29:03Z</time>
      </trkpt>
      <trkpt lat="44.88925" lon="-0.41452">
        <ele>18.5</ele>
        <time>2020-09-10T10:29:04Z</time>
      </trkpt>
      <trkpt lat="44.88925" lon="-0.41454">
        <ele>18.5</ele>
        <time>2020-09-10T10:29:05Z</time>
      </trkpt>
      <trkpt lat="44.88925" lon="-0.41455">
        <ele>18.5</ele>
        <time>2020-09-10T10:29:06Z</time>
      </trkpt>
      <trkpt lat="44.88925" lon="-0.41457">
        <ele>18.5</ele>
        <time>2020-09-10T10:29:08Z</time>
      </trkpt>
      <trkpt lat="44.88925" lon="-0.4146">
        <ele>18.5</ele>
        <time>2020-09-10T10:29:09Z</time>
      </trkpt>
      <trkpt lat="44.88925" lon="-0.4146">
        <ele>18.5</ele>
        <time>2020-09-10T10:29:10Z</time>
      </trkpt>
      <trkpt lat="44.88925" lon="-0.41461">
        <ele>18.5</ele>
        <time>2020-09-10T10:29:11Z</time>
      </trkpt>
      <trkpt lat="44.88925" lon="-0.41464">
        <ele>18.6</ele>
        <time>2020-09-10T10:29:14Z</time>
      </trkpt>
      <trkpt lat="44.88925" lon="-0.41466">
        <ele>18.6</ele>
        <time>2020-09-10T10:29:15Z</time>
      </trkpt>
      <trkpt lat="44.88925" lon="-0.41467">
        <ele>18.6</ele>
        <time>2020-09-10T10:29:16Z</time>
      </trkpt>
      <trkpt lat="44.88925" lon="-0.41468">
        <ele>18.6</ele>
        <time>2020-09-10T10:29:17Z</time>
      </trkpt>
      <trkpt lat="44.88925" lon="-0.41471">
        <ele>18.7</ele>
        <time>2020-09-10T10:29:19Z</time>
      </trkpt>
      <trkpt lat="44.88925" lon="-0.41472">
        <ele>18.7</ele>
        <time>2020-09-10T10:29:20Z</time>
      </trkpt>
      <trkpt lat="44.88925" lon="-0.41473">
        <ele>18.7</ele>
        <time>2020-09-10T10:29:21Z</time>
      </trkpt>
      <trkpt lat="44.88925" lon="-0.41476">
        <ele>18.7</ele>
        <time>2020-09-10T10:29:24Z</time>
      </trkpt>
      <trkpt lat="44.88925" lon="-0.41477">
        <ele>18.7</ele>
        <time>2020-09-10T10:29:25Z</time>
      </trkpt>
      <trkpt lat="44.88925" lon="-0.41479">
        <ele>18.7</ele>
        <time>2020-09-10T10:29:26Z</time>
      </trkpt>
      <trkpt lat="44.88925" lon="-0.4148">
        <ele>18.8</ele>
        <time>2020-09-10T10:29:27Z</time>
      </trkpt>
      <trkpt lat="44.88925" lon="-0.41482">
        <ele>18.8</ele>
        <time>2020-09-10T10:29:28Z</time>
      </trkpt>
      <trkpt lat="44.88924" lon="-0.41483">
        <ele>18.8</ele>
        <time>2020-09-10T10:29:29Z</time>
      </trkpt>
      <trkpt lat="44.88924" lon="-0.41484">
        <ele>18.8</ele>
        <time>2020-09-10T10:29:30Z</time>
      </trkpt>
      <trkpt lat="44.88923" lon="-0.41486">
        <ele>18.9</ele>
        <time>2020-09-10T10:29:32Z</time>
      </trkpt>
      <trkpt lat="44.88923" lon="-0.41488">
        <ele>18.9</ele>
        <time>2020-09-10T10:29:34Z</time>
      </trkpt>
      <trkpt lat="44.88922" lon="-0.4149">
        <ele>18.9</ele>
        <time>2020-09-10T10:29:35Z</time>
      </trkpt>
      <trkpt lat="44.88922" lon="-0.41491">
        <ele>18.9</ele>
        <time>2020-09-10T10:29:36Z</time>
      </trkpt>
      <trkpt lat="44.88921" lon="-0.41493">
        <ele>19</ele>
        <time>2020-09-10T10:29:38Z</time>
      </trkpt>
      <trkpt lat="44.88921" lon="-0.41496">
        <ele>19</ele>
        <time>2020-09-10T10:29:39Z</time>
      </trkpt>
      <trkpt lat="44.8892" lon="-0.41497">
        <ele>19</ele>
        <time>2020-09-10T10:29:40Z</time>
      </trkpt>
      <trkpt lat="44.8892" lon="-0.41499">
        <ele>19.1</ele>
        <time>2020-09-10T10:29:41Z</time>
      </trkpt>
      <trkpt lat="44.88919" lon="-0.41501">
        <ele>19.1</ele>
        <time>2020-09-10T10:29:42Z</time>
      </trkpt>
      <trkpt lat="44.88918" lon="-0.41503">
        <ele>19.2</ele>
        <time>2020-09-10T10:29:44Z</time>
      </trkpt>
      <trkpt lat="44.88917" lon="-0.41505">
        <ele>19.2</ele>
        <time>2020-09-10T10:29:46Z</time>
      </trkpt>
      <trkpt lat="44.88917" lon="-0.41506">
        <ele>19.2</ele>
        <time>2020-09-10T10:29:47Z</time>
      </trkpt>
      <trkpt lat="44.88916" lon="-0.41508">
        <ele>19.3</ele>
        <time>2020-09-10T10:29:49Z</time>
      </trkpt>
      <trkpt lat="44.88915" lon="-0.41508">
        <ele>19.3</ele>
        <time>2020-09-10T10:29:50Z</time>
      </trkpt>
      <trkpt lat="44.88915" lon="-0.41509">
        <ele>19.3</ele>
        <time>2020-09-10T10:29:51Z</time>
      </trkpt>
      <trkpt lat="44.88915" lon="-0.4151">
        <ele>19.3</ele>
        <time>2020-09-10T10:29:52Z</time>
      </trkpt>
      <trkpt lat="44.88915" lon="-0.41511">
        <ele>19.4</ele>
        <time>2020-09-10T10:29:53Z</time>
      </trkpt>
      <trkpt lat="44.88915" lon="-0.41513">
        <ele>19.4</ele>
        <time>2020-09-10T10:29:54Z</time>
      </trkpt>
      <trkpt lat="44.88915" lon="-0.41514">
        <ele>19.4</ele>
        <time>2020-09-10T10:29:56Z</time>
      </trkpt>
      <trkpt lat="44.88915" lon="-0.41516">
        <ele>19.5</ele>
        <time>2020-09-10T10:29:57Z</time>
      </trkpt>
      <trkpt lat="44.88915" lon="-0.41518">
        <ele>19.5</ele>
        <time>2020-09-10T10:29:58Z</time>
      </trkpt>
      <trkpt lat="44.88915" lon="-0.4152">
        <ele>19.6</ele>
        <time>2020-09-10T10:29:59Z</time>
      </trkpt>
      <trkpt lat="44.88915" lon="-0.41523">
        <ele>19.6</ele>
        <time>2020-09-10T10:30:01Z</time>
      </trkpt>
      <trkpt lat="44.88915" lon="-0.41525">
        <ele>19.7</ele>
        <time>2020-09-10T10:30:02Z</time>
      </trkpt>
      <trkpt lat="44.88915" lon="-0.41527">
        <ele>19.7</ele>
        <time>2020-09-10T10:30:03Z</time>
      </trkpt>
      <trkpt lat="44.88916" lon="-0.41529">
        <ele>19.8</ele>
        <time>2020-09-10T10:30:04Z</time>
      </trkpt>
      <trkpt lat="44.88916" lon="-0.41531">
        <ele>19.8</ele>
        <time>2020-09-10T10:30:05Z</time>
      </trkpt>
      <trkpt lat="44.88916" lon="-0.41533">
        <ele>19.9</ele>
        <time>2020-09-10T10:30:06Z</time>
      </trkpt>
      <trkpt lat="44.88916" lon="-0.41536">
        <ele>20</ele>
        <time>2020-09-10T10:30:07Z</time>
      </trkpt>
      <trkpt lat="44.88916" lon="-0.41538">
        <ele>20</ele>
        <time>2020-09-10T10:30:09Z</time>
      </trkpt>
      <trkpt lat="44.88915" lon="-0.41539">
        <ele>20.1</ele>
        <time>2020-09-10T10:30:10Z</time>
      </trkpt>
      <trkpt lat="44.88915" lon="-0.41542">
        <ele>20.2</ele>
        <time>2020-09-10T10:30:12Z</time>
      </trkpt>
      <trkpt lat="44.88915" lon="-0.41544">
        <ele>20.2</ele>
        <time>2020-09-10T10:30:13Z</time>
      </trkpt>
      <trkpt lat="44.88915" lon="-0.41545">
        <ele>20.2</ele>
        <time>2020-09-10T10:30:14Z</time>
      </trkpt>
      <trkpt lat="44.88914" lon="-0.41547">
        <ele>20.3</ele>
        <time>2020-09-10T10:30:16Z</time>
      </trkpt>
      <trkpt lat="44.88914" lon="-0.41549">
        <ele>20.4</ele>
        <time>2020-09-10T10:30:17Z</time>
      </trkpt>
      <trkpt lat="44.88914" lon="-0.4155">
        <ele>20.4</ele>
        <time>2020-09-10T10:30:18Z</time>
      </trkpt>
      <trkpt lat="44.88914" lon="-0.41552">
        <ele>20.5</ele>
        <time>2020-09-10T10:30:19Z</time>
      </trkpt>
      <trkpt lat="44.88914" lon="-0.41553">
        <ele>20.5</ele>
        <time>2020-09-10T10:30:20Z</time>
      </trkpt>
      <trkpt lat="44.88915" lon="-0.41553">
        <ele>20.5</ele>
        <time>2020-09-10T10:30:21Z</time>
      </trkpt>
      <trkpt lat="44.88914" lon="-0.41551">
        <ele>20.6</ele>
        <time>2020-09-10T10:30:22Z</time>
      </trkpt>
      <trkpt lat="44.88914" lon="-0.41553">
        <ele>20.6</ele>
        <time>2020-09-10T10:30:23Z</time>
      </trkpt>
      <trkpt lat="44.88915" lon="-0.41554">
        <ele>20.7</ele>
        <time>2020-09-10T10:30:25Z</time>
      </trkpt>
      <trkpt lat="44.88914" lon="-0.41554">
        <ele>20.7</ele>
        <time>2020-09-10T10:30:27Z</time>
      </trkpt>
      <trkpt lat="44.88913" lon="-0.41553">
        <ele>20.7</ele>
        <time>2020-09-10T10:30:28Z</time>
      </trkpt>
      <trkpt lat="44.88912" lon="-0.41553">
        <ele>20.8</ele>
        <time>2020-09-10T10:30:30Z</time>
      </trkpt>
      <trkpt lat="44.88911" lon="-0.41554">
        <ele>20.9</ele>
        <time>2020-09-10T10:30:31Z</time>
      </trkpt>
      <trkpt lat="44.8891" lon="-0.41554">
        <ele>20.9</ele>
        <time>2020-09-10T10:30:32Z</time>
      </trkpt>
      <trkpt lat="44.88909" lon="-0.41555">
        <ele>20.9</ele>
        <time>2020-09-10T10:30:34Z</time>
      </trkpt>
      <trkpt lat="44.88909" lon="-0.41555">
        <ele>21</ele>
        <time>2020-09-10T10:30:35Z</time>
      </trkpt>
      <trkpt lat="44.88908" lon="-0.41554">
        <ele>21.1</ele>
        <time>2020-09-10T10:30:36Z</time>
      </trkpt>
      <trkpt lat="44.88907" lon="-0.41554">
        <ele>21.1</ele>
        <time>2020-09-10T10:30:38Z</time>
      </trkpt>
      <trkpt lat="44.88908" lon="-0.41554">
        <ele>21.1</ele>
        <time>2020-09-10T10:30:40Z</time>
      </trkpt>
      <trkpt lat="44.88908" lon="-0.41555">
        <ele>21.2</ele>
        <time>2020-09-10T10:30:41Z</time>
      </trkpt>
      <trkpt lat="44.88908" lon="-0.41555">
        <ele>21.2</ele>
        <time>2020-09-10T10:30:42Z</time>
      </trkpt>
      <trkpt lat="44.88908" lon="-0.41556">
        <ele>21.2</ele>
        <time>2020-09-10T10:30:44Z</time>
      </trkpt>
      <trkpt lat="44.88908" lon="-0.41556">
        <ele>21.3</ele>
        <time>2020-09-10T10:30:45Z</time>
      </trkpt>
      <trkpt lat="44.88907" lon="-0.41557">
        <ele>21.3</ele>
        <time>2020-09-10T10:30:46Z</time>
      </trkpt>
      <trkpt lat="44.88906" lon="-0.41559">
        <ele>21.4</ele>
        <time>2020-09-10T10:30:48Z</time>
      </trkpt>
      <trkpt lat="44.88906" lon="-0.4156">
        <ele>21.4</ele>
        <time>2020-09-10T10:30:49Z</time>
      </trkpt>
      <trkpt lat="44.88906" lon="-0.41561">
        <ele>21.5</ele>
        <time>2020-09-10T10:30:51Z</time>
      </trkpt>
      <trkpt lat="44.88907" lon="-0.41562">
        <ele>21.5</ele>
        <time>2020-09-10T10:30:53Z</time>
      </trkpt>
      <trkpt lat="44.88907" lon="-0.41563">
        <ele>21.6</ele>
        <time>2020-09-10T10:30:54Z</time>
      </trkpt>
      <trkpt lat="44.88907" lon="-0.41564">
        <ele>21.6</ele>
        <time>2020-09-10T10:30:56Z</time>
      </trkpt>
      <trkpt lat="44.88907" lon="-0.41566">
        <ele>21.7</ele>
        <time>2020-09-10T10:30:58Z</time>
      </trkpt>
      <trkpt lat="44.88908" lon="-0.41567">
        <ele>21.7</ele>
        <time>2020-09-10T10:30:59Z</time>
      </trkpt>
      <trkpt lat="44.88908" lon="-0.41568">
        <ele>21.8</ele>
        <time>2020-09-10T10:31:00Z</time>
      </trkpt>
      <trkpt lat="44.88908" lon="-0.41569">
        <ele>21.9</ele>
        <time>2020-09-10T10:31:01Z</time>
      </trkpt>
      <trkpt lat="44.88909" lon="-0.41571">
        <ele>22.2</ele>
        <time>2020-09-10T10:31:02Z</time>
      </trkpt>
      <trkpt lat="44.88909" lon="-0.41573">
        <ele>22.2</ele>
        <time>2020-09-10T10:31:04Z</time>
      </trkpt>
      <trkpt lat="44.8891" lon="-0.41575">
        <ele>22.2</ele>
        <time>2020-09-10T10:31:05Z</time>
      </trkpt>
      <trkpt lat="44.88911" lon="-0.41576">
        <ele>22.2</ele>
        <time>2020-09-10T10:31:06Z</time>
      </trkpt>
      <trkpt lat="44.88913" lon="-0.41579">
        <ele>22.2</ele>
        <time>2020-09-10T10:31:08Z</time>
      </trkpt>
      <trkpt lat="44.88914" lon="-0.4158">
        <ele>22.2</ele>
        <time>2020-09-10T10:31:09Z</time>
      </trkpt>
      <trkpt lat="44.88915" lon="-0.41582">
        <ele>22.2</ele>
        <time>2020-09-10T10:31:10Z</time>
      </trkpt>
      <trkpt lat="44.88916" lon="-0.41584">
        <ele>22.2</ele>
        <time>2020-09-10T10:31:11Z</time>
      </trkpt>
      <trkpt lat="44.88917" lon="-0.41585">
        <ele>22.2</ele>
        <time>2020-09-10T10:31:12Z</time>
      </trkpt>
      <trkpt lat="44.88918" lon="-0.41586">
        <ele>22.2</ele>
        <time>2020-09-10T10:31:14Z</time>
      </trkpt>
      <trkpt lat="44.88919" lon="-0.41587">
        <ele>22.2</ele>
        <time>2020-09-10T10:31:15Z</time>
      </trkpt>
      <trkpt lat="44.8892" lon="-0.41587">
        <ele>22.2</ele>
        <time>2020-09-10T10:31:16Z</time>
      </trkpt>
      <trkpt lat="44.88921" lon="-0.41589">
        <ele>22.2</ele>
        <time>2020-09-10T10:31:18Z</time>
      </trkpt>
      <trkpt lat="44.88921" lon="-0.41588">
        <ele>22.2</ele>
        <time>2020-09-10T10:31:19Z</time>
      </trkpt>
      <trkpt lat="44.88923" lon="-0.41589">
        <ele>22.2</ele>
        <time>2020-09-10T10:31:20Z</time>
      </trkpt>
      <trkpt lat="44.88924" lon="-0.4159">
        <ele>22.2</ele>
        <time>2020-09-10T10:31:21Z</time>
      </trkpt>
      <trkpt lat="44.88927" lon="-0.4159">
        <ele>22.2</ele>
        <time>2020-09-10T10:31:23Z</time>
      </trkpt>
      <trkpt lat="44.88929" lon="-0.4159">
        <ele>22.2</ele>
        <time>2020-09-10T10:31:25Z</time>
      </trkpt>
      <trkpt lat="44.8893" lon="-0.41591">
        <ele>22.2</ele>
        <time>2020-09-10T10:31:26Z</time>
      </trkpt>
      <trkpt lat="44.88931" lon="-0.41592">
        <ele>22.2</ele>
        <time>2020-09-10T10:31:27Z</time>
      </trkpt>
      <trkpt lat="44.88932" lon="-0.41592">
        <ele>22.2</ele>
        <time>2020-09-10T10:31:28Z</time>
      </trkpt>
      <trkpt lat="44.88933" lon="-0.41593">
        <ele>22.2</ele>
        <time>2020-09-10T10:31:29Z</time>
      </trkpt>
      <trkpt lat="44.88934" lon="-0.41594">
        <ele>22.2</ele>
        <time>2020-09-10T10:31:30Z</time>
      </trkpt>
      <trkpt lat="44.88936" lon="-0.41595">
        <ele>22.2</ele>
        <time>2020-09-10T10:31:32Z</time>
      </trkpt>
      <trkpt lat="44.88938" lon="-0.41596">
        <ele>22.2</ele>
        <time>2020-09-10T10:31:33Z</time>
      </trkpt>
      <trkpt lat="44.88939" lon="-0.41596">
        <ele>22.3</ele>
        <time>2020-09-10T10:31:34Z</time>
      </trkpt>
      <trkpt lat="44.8894" lon="-0.41597">
        <ele>22.3</ele>
        <time>2020-09-10T10:31:35Z</time>
      </trkpt>
      <trkpt lat="44.88942" lon="-0.41598">
        <ele>22.3</ele>
        <time>2020-09-10T10:31:36Z</time>
      </trkpt>
      <trkpt lat="44.88943" lon="-0.41598">
        <ele>22.3</ele>
        <time>2020-09-10T10:31:37Z</time>
      </trkpt>
      <trkpt lat="44.88943" lon="-0.41598">
        <ele>22.3</ele>
        <time>2020-09-10T10:31:39Z</time>
      </trkpt>
      <trkpt lat="44.88946" lon="-0.41599">
        <ele>22.3</ele>
        <time>2020-09-10T10:31:41Z</time>
      </trkpt>
      <trkpt lat="44.88947" lon="-0.416">
        <ele>22.3</ele>
        <time>2020-09-10T10:31:42Z</time>
      </trkpt>
      <trkpt lat="44.88949" lon="-0.41601">
        <ele>22.3</ele>
        <time>2020-09-10T10:31:43Z</time>
      </trkpt>
      <trkpt lat="44.8895" lon="-0.41601">
        <ele>22.3</ele>
        <time>2020-09-10T10:31:44Z</time>
      </trkpt>
      <trkpt lat="44.88952" lon="-0.41601">
        <ele>22.4</ele>
        <time>2020-09-10T10:31:45Z</time>
      </trkpt>
      <trkpt lat="44.88954" lon="-0.41602">
        <ele>22.4</ele>
        <time>2020-09-10T10:31:46Z</time>
      </trkpt>
      <trkpt lat="44.88956" lon="-0.41602">
        <ele>22.4</ele>
        <time>2020-09-10T10:31:48Z</time>
      </trkpt>
      <trkpt lat="44.8896" lon="-0.41604">
        <ele>22.5</ele>
        <time>2020-09-10T10:31:49Z</time>
      </trkpt>
      <trkpt lat="44.88961" lon="-0.41604">
        <ele>22.5</ele>
        <time>2020-09-10T10:31:50Z</time>
      </trkpt>
      <trkpt lat="44.88963" lon="-0.41605">
        <ele>22.5</ele>
        <time>2020-09-10T10:31:51Z</time>
      </trkpt>
      <trkpt lat="44.88965" lon="-0.41605">
        <ele>22.5</ele>
        <time>2020-09-10T10:31:53Z</time>
      </trkpt>
      <trkpt lat="44.88967" lon="-0.41605">
        <ele>22.5</ele>
        <time>2020-09-10T10:31:54Z</time>
      </trkpt>
      <trkpt lat="44.88968" lon="-0.41605">
        <ele>22.5</ele>
        <time>2020-09-10T10:31:55Z</time>
      </trkpt>
      <trkpt lat="44.88969" lon="-0.41605">
        <ele>22.6</ele>
        <time>2020-09-10T10:31:56Z</time>
      </trkpt>
      <trkpt lat="44.88969" lon="-0.41606">
        <ele>22.6</ele>
        <time>2020-09-10T10:31:57Z</time>
      </trkpt>
      <trkpt lat="44.8897" lon="-0.41606">
        <ele>22.6</ele>
        <time>2020-09-10T10:31:58Z</time>
      </trkpt>
      <trkpt lat="44.88971" lon="-0.41606">
        <ele>22.6</ele>
        <time>2020-09-10T10:31:59Z</time>
      </trkpt>
      <trkpt lat="44.88972" lon="-0.41606">
        <ele>22.6</ele>
        <time>2020-09-10T10:32:00Z</time>
      </trkpt>
      <trkpt lat="44.88973" lon="-0.41607">
        <ele>22.6</ele>
        <time>2020-09-10T10:32:02Z</time>
      </trkpt>
      <trkpt lat="44.88974" lon="-0.41608">
        <ele>22.6</ele>
        <time>2020-09-10T10:32:03Z</time>
      </trkpt>
      <trkpt lat="44.88976" lon="-0.41609">
        <ele>22.6</ele>
        <time>2020-09-10T10:32:05Z</time>
      </trkpt>
      <trkpt lat="44.88978" lon="-0.4161">
        <ele>22.6</ele>
        <time>2020-09-10T10:32:06Z</time>
      </trkpt>
      <trkpt lat="44.88979" lon="-0.41611">
        <ele>22.6</ele>
        <time>2020-09-10T10:32:08Z</time>
      </trkpt>
      <trkpt lat="44.8898" lon="-0.41611">
        <ele>22.6</ele>
        <time>2020-09-10T10:32:09Z</time>
      </trkpt>
      <trkpt lat="44.88982" lon="-0.41612">
        <ele>22.6</ele>
        <time>2020-09-10T10:32:10Z</time>
      </trkpt>
      <trkpt lat="44.88983" lon="-0.41612">
        <ele>22.7</ele>
        <time>2020-09-10T10:32:11Z</time>
      </trkpt>
      <trkpt lat="44.88984" lon="-0.41612">
        <ele>22.7</ele>
        <time>2020-09-10T10:32:13Z</time>
      </trkpt>
      <trkpt lat="44.88986" lon="-0.41614">
        <ele>22.7</ele>
        <time>2020-09-10T10:32:15Z</time>
      </trkpt>
      <trkpt lat="44.88987" lon="-0.41615">
        <ele>22.7</ele>
        <time>2020-09-10T10:32:16Z</time>
      </trkpt>
      <trkpt lat="44.88987" lon="-0.41617">
        <ele>22.7</ele>
        <time>2020-09-10T10:32:17Z</time>
      </trkpt>
      <trkpt lat="44.88988" lon="-0.41618">
        <ele>22.8</ele>
        <time>2020-09-10T10:32:18Z</time>
      </trkpt>
      <trkpt lat="44.88988" lon="-0.41619">
        <ele>22.8</ele>
        <time>2020-09-10T10:32:19Z</time>
      </trkpt>
      <trkpt lat="44.88988" lon="-0.4162">
        <ele>22.8</ele>
        <time>2020-09-10T10:32:20Z</time>
      </trkpt>
      <trkpt lat="44.88988" lon="-0.41622">
        <ele>22.9</ele>
        <time>2020-09-10T10:32:21Z</time>
      </trkpt>
      <trkpt lat="44.88988" lon="-0.41624">
        <ele>22.9</ele>
        <time>2020-09-10T10:32:23Z</time>
      </trkpt>
      <trkpt lat="44.88988" lon="-0.41626">
        <ele>22.9</ele>
        <time>2020-09-10T10:32:25Z</time>
      </trkpt>
      <trkpt lat="44.88988" lon="-0.41627">
        <ele>23</ele>
        <time>2020-09-10T10:32:26Z</time>
      </trkpt>
      <trkpt lat="44.88989" lon="-0.41628">
        <ele>23</ele>
        <time>2020-09-10T10:32:27Z</time>
      </trkpt>
      <trkpt lat="44.88989" lon="-0.41633">
        <ele>23</ele>
        <time>2020-09-10T10:32:29Z</time>
      </trkpt>
      <trkpt lat="44.88989" lon="-0.41634">
        <ele>23.1</ele>
        <time>2020-09-10T10:32:30Z</time>
      </trkpt>
      <trkpt lat="44.8899" lon="-0.41637">
        <ele>23.1</ele>
        <time>2020-09-10T10:32:32Z</time>
      </trkpt>
      <trkpt lat="44.8899" lon="-0.41638">
        <ele>23.2</ele>
        <time>2020-09-10T10:32:33Z</time>
      </trkpt>
      <trkpt lat="44.8899" lon="-0.41641">
        <ele>23.2</ele>
        <time>2020-09-10T10:32:35Z</time>
      </trkpt>
      <trkpt lat="44.8899" lon="-0.41642">
        <ele>23.2</ele>
        <time>2020-09-10T10:32:36Z</time>
      </trkpt>
      <trkpt lat="44.8899" lon="-0.41644">
        <ele>23.3</ele>
        <time>2020-09-10T10:32:37Z</time>
      </trkpt>
      <trkpt lat="44.8899" lon="-0.41645">
        <ele>23.3</ele>
        <time>2020-09-10T10:32:38Z</time>
      </trkpt>
      <trkpt lat="44.88991" lon="-0.41648">
        <ele>23.4</ele>
        <time>2020-09-10T10:32:39Z</time>
      </trkpt>
      <trkpt lat="44.88991" lon="-0.41649">
        <ele>23.4</ele>
        <time>2020-09-10T10:32:40Z</time>
      </trkpt>
      <trkpt lat="44.88991" lon="-0.41652">
        <ele>23.5</ele>
        <time>2020-09-10T10:32:42Z</time>
      </trkpt>
      <trkpt lat="44.88991" lon="-0.41656">
        <ele>23.5</ele>
        <time>2020-09-10T10:32:44Z</time>
      </trkpt>
      <trkpt lat="44.8899" lon="-0.41658">
        <ele>23.6</ele>
        <time>2020-09-10T10:32:46Z</time>
      </trkpt>
      <trkpt lat="44.8899" lon="-0.4166">
        <ele>23.7</ele>
        <time>2020-09-10T10:32:47Z</time>
      </trkpt>
      <trkpt lat="44.88991" lon="-0.41663">
        <ele>23.7</ele>
        <time>2020-09-10T10:32:48Z</time>
      </trkpt>
      <trkpt lat="44.88991" lon="-0.41665">
        <ele>23.8</ele>
        <time>2020-09-10T10:32:49Z</time>
      </trkpt>
      <trkpt lat="44.88991" lon="-0.41667">
        <ele>23.8</ele>
        <time>2020-09-10T10:32:51Z</time>
      </trkpt>
      <trkpt lat="44.88991" lon="-0.41668">
        <ele>23.8</ele>
        <time>2020-09-10T10:32:52Z</time>
      </trkpt>
      <trkpt lat="44.88991" lon="-0.4167">
        <ele>23.9</ele>
        <time>2020-09-10T10:32:53Z</time>
      </trkpt>
      <trkpt lat="44.88991" lon="-0.41673">
        <ele>23.9</ele>
        <time>2020-09-10T10:32:54Z</time>
      </trkpt>
      <trkpt lat="44.88991" lon="-0.41674">
        <ele>24</ele>
        <time>2020-09-10T10:32:55Z</time>
      </trkpt>
      <trkpt lat="44.88991" lon="-0.41676">
        <ele>24</ele>
        <time>2020-09-10T10:32:56Z</time>
      </trkpt>
      <trkpt lat="44.88991" lon="-0.41679">
        <ele>24.1</ele>
        <time>2020-09-10T10:32:58Z</time>
      </trkpt>
      <trkpt lat="44.88991" lon="-0.41682">
        <ele>24.2</ele>
        <time>2020-09-10T10:33:00Z</time>
      </trkpt>
      <trkpt lat="44.88991" lon="-0.41683">
        <ele>24.2</ele>
        <time>2020-09-10T10:33:01Z</time>
      </trkpt>
      <trkpt lat="44.88991" lon="-0.41684">
        <ele>24.2</ele>
        <time>2020-09-10T10:33:02Z</time>
      </trkpt>
      <trkpt lat="44.88991" lon="-0.41686">
        <ele>24.2</ele>
        <time>2020-09-10T10:33:04Z</time>
      </trkpt>
      <trkpt lat="44.88991" lon="-0.41688">
        <ele>24.3</ele>
        <time>2020-09-10T10:33:05Z</time>
      </trkpt>
      <trkpt lat="44.88991" lon="-0.41691">
        <ele>24.4</ele>
        <time>2020-09-10T10:33:07Z</time>
      </trkpt>
      <trkpt lat="44.88992" lon="-0.41692">
        <ele>24.4</ele>
        <time>2020-09-10T10:33:08Z</time>
      </trkpt>
      <trkpt lat="44.88992" lon="-0.41693">
        <ele>24.4</ele>
        <time>2020-09-10T10:33:09Z</time>
      </trkpt>
      <trkpt lat="44.88992" lon="-0.41693">
        <ele>24.4</ele>
        <time>2020-09-10T10:33:10Z</time>
      </trkpt>
      <trkpt lat="44.88992" lon="-0.41695">
        <ele>24.5</ele>
        <time>2020-09-10T10:33:11Z</time>
      </trkpt>
      <trkpt lat="44.88993" lon="-0.41697">
        <ele>24.5</ele>
        <time>2020-09-10T10:33:12Z</time>
      </trkpt>
      <trkpt lat="44.88993" lon="-0.41699">
        <ele>24.5</ele>
        <time>2020-09-10T10:33:13Z</time>
      </trkpt>
      <trkpt lat="44.88993" lon="-0.41701">
        <ele>24.6</ele>
        <time>2020-09-10T10:33:14Z</time>
      </trkpt>
      <trkpt lat="44.88993" lon="-0.41702">
        <ele>24.6</ele>
        <time>2020-09-10T10:33:15Z</time>
      </trkpt>
      <trkpt lat="44.88993" lon="-0.41703">
        <ele>24.6</ele>
        <time>2020-09-10T10:33:17Z</time>
      </trkpt>
      <trkpt lat="44.88993" lon="-0.41705">
        <ele>24.6</ele>
        <time>2020-09-10T10:33:18Z</time>
      </trkpt>
      <trkpt lat="44.88993" lon="-0.41706">
        <ele>24.7</ele>
        <time>2020-09-10T10:33:19Z</time>
      </trkpt>
      <trkpt lat="44.88994" lon="-0.41708">
        <ele>24.7</ele>
        <time>2020-09-10T10:33:20Z</time>
      </trkpt>
      <trkpt lat="44.88994" lon="-0.4171">
        <ele>24.8</ele>
        <time>2020-09-10T10:33:21Z</time>
      </trkpt>
      <trkpt lat="44.88994" lon="-0.41713">
        <ele>24.8</ele>
        <time>2020-09-10T10:33:22Z</time>
      </trkpt>
      <trkpt lat="44.88994" lon="-0.41714">
        <ele>24.8</ele>
        <time>2020-09-10T10:33:24Z</time>
      </trkpt>
      <trkpt lat="44.88994" lon="-0.41715">
        <ele>24.9</ele>
        <time>2020-09-10T10:33:25Z</time>
      </trkpt>
      <trkpt lat="44.88994" lon="-0.41717">
        <ele>24.9</ele>
        <time>2020-09-10T10:33:26Z</time>
      </trkpt>
      <trkpt lat="44.88994" lon="-0.41718">
        <ele>24.9</ele>
        <time>2020-09-10T10:33:27Z</time>
      </trkpt>
      <trkpt lat="44.88994" lon="-0.4172">
        <ele>25</ele>
        <time>2020-09-10T10:33:28Z</time>
      </trkpt>
      <trkpt lat="44.88994" lon="-0.41723">
        <ele>25</ele>
        <time>2020-09-10T10:33:30Z</time>
      </trkpt>
      <trkpt lat="44.88994" lon="-0.41724">
        <ele>25</ele>
        <time>2020-09-10T10:33:31Z</time>
      </trkpt>
      <trkpt lat="44.88994" lon="-0.41725">
        <ele>25.1</ele>
        <time>2020-09-10T10:33:32Z</time>
      </trkpt>
      <trkpt lat="44.88994" lon="-0.41727">
        <ele>25.1</ele>
        <time>2020-09-10T10:33:33Z</time>
      </trkpt>
      <trkpt lat="44.88995" lon="-0.41729">
        <ele>25.2</ele>
        <time>2020-09-10T10:33:35Z</time>
      </trkpt>
      <trkpt lat="44.88995" lon="-0.41731">
        <ele>25.2</ele>
        <time>2020-09-10T10:33:36Z</time>
      </trkpt>
      <trkpt lat="44.88995" lon="-0.41733">
        <ele>25.2</ele>
        <time>2020-09-10T10:33:37Z</time>
      </trkpt>
      <trkpt lat="44.88995" lon="-0.41734">
        <ele>25.3</ele>
        <time>2020-09-10T10:33:38Z</time>
      </trkpt>
      <trkpt lat="44.88995" lon="-0.41735">
        <ele>25.3</ele>
        <time>2020-09-10T10:33:39Z</time>
      </trkpt>
      <trkpt lat="44.88995" lon="-0.41737">
        <ele>25.3</ele>
        <time>2020-09-10T10:33:40Z</time>
      </trkpt>
      <trkpt lat="44.88995" lon="-0.41739">
        <ele>25.3</ele>
        <time>2020-09-10T10:33:41Z</time>
      </trkpt>
      <trkpt lat="44.88995" lon="-0.41741">
        <ele>25.4</ele>
        <time>2020-09-10T10:33:43Z</time>
      </trkpt>
      <trkpt lat="44.88995" lon="-0.41743">
        <ele>25.4</ele>
        <time>2020-09-10T10:33:44Z</time>
      </trkpt>
      <trkpt lat="44.88995" lon="-0.41744">
        <ele>25.4</ele>
        <time>2020-09-10T10:33:45Z</time>
      </trkpt>
      <trkpt lat="44.88995" lon="-0.41746">
        <ele>25.5</ele>
        <time>2020-09-10T10:33:46Z</time>
      </trkpt>
      <trkpt lat="44.88995" lon="-0.41748">
        <ele>25.5</ele>
        <time>2020-09-10T10:33:47Z</time>
      </trkpt>
      <trkpt lat="44.88995" lon="-0.41749">
        <ele>25.5</ele>
        <time>2020-09-10T10:33:48Z</time>
      </trkpt>
      <trkpt lat="44.88996" lon="-0.41751">
        <ele>25.6</ele>
        <time>2020-09-10T10:33:49Z</time>
      </trkpt>
      <trkpt lat="44.88996" lon="-0.41753">
        <ele>25.6</ele>
        <time>2020-09-10T10:33:51Z</time>
      </trkpt>
      <trkpt lat="44.88996" lon="-0.41756">
        <ele>25.6</ele>
        <time>2020-09-10T10:33:52Z</time>
      </trkpt>
      <trkpt lat="44.88996" lon="-0.41757">
        <ele>25.7</ele>
        <time>2020-09-10T10:33:54Z</time>
      </trkpt>
      <trkpt lat="44.88996" lon="-0.41758">
        <ele>25.7</ele>
        <time>2020-09-10T10:33:55Z</time>
      </trkpt>
      <trkpt lat="44.88996" lon="-0.4176">
        <ele>25.7</ele>
        <time>2020-09-10T10:33:56Z</time>
      </trkpt>
      <trkpt lat="44.88996" lon="-0.41761">
        <ele>25.7</ele>
        <time>2020-09-10T10:33:57Z</time>
      </trkpt>
      <trkpt lat="44.88996" lon="-0.41762">
        <ele>25.7</ele>
        <time>2020-09-10T10:33:58Z</time>
      </trkpt>
      <trkpt lat="44.88996" lon="-0.41765">
        <ele>25.8</ele>
        <time>2020-09-10T10:34:00Z</time>
      </trkpt>
      <trkpt lat="44.88996" lon="-0.41766">
        <ele>25.8</ele>
        <time>2020-09-10T10:34:01Z</time>
      </trkpt>
      <trkpt lat="44.88996" lon="-0.41768">
        <ele>25.8</ele>
        <time>2020-09-10T10:34:02Z</time>
      </trkpt>
      <trkpt lat="44.88997" lon="-0.41772">
        <ele>25.9</ele>
        <time>2020-09-10T10:34:05Z</time>
      </trkpt>
      <trkpt lat="44.88998" lon="-0.41774">
        <ele>25.9</ele>
        <time>2020-09-10T10:34:06Z</time>
      </trkpt>
      <trkpt lat="44.88998" lon="-0.41776">
        <ele>25.9</ele>
        <time>2020-09-10T10:34:08Z</time>
      </trkpt>
      <trkpt lat="44.88999" lon="-0.41778">
        <ele>26</ele>
        <time>2020-09-10T10:34:09Z</time>
      </trkpt>
      <trkpt lat="44.89" lon="-0.4178">
        <ele>26</ele>
        <time>2020-09-10T10:34:10Z</time>
      </trkpt>
      <trkpt lat="44.89" lon="-0.41781">
        <ele>26</ele>
        <time>2020-09-10T10:34:11Z</time>
      </trkpt>
      <trkpt lat="44.89001" lon="-0.41783">
        <ele>26</ele>
        <time>2020-09-10T10:34:12Z</time>
      </trkpt>
      <trkpt lat="44.89001" lon="-0.41784">
        <ele>26.1</ele>
        <time>2020-09-10T10:34:13Z</time>
      </trkpt>
      <trkpt lat="44.89002" lon="-0.41788">
        <ele>26.1</ele>
        <time>2020-09-10T10:34:15Z</time>
      </trkpt>
      <trkpt lat="44.89003" lon="-0.41789">
        <ele>26.1</ele>
        <time>2020-09-10T10:34:16Z</time>
      </trkpt>
      <trkpt lat="44.89003" lon="-0.4179">
        <ele>26.1</ele>
        <time>2020-09-10T10:34:17Z</time>
      </trkpt>
      <trkpt lat="44.89003" lon="-0.41791">
        <ele>26.1</ele>
        <time>2020-09-10T10:34:18Z</time>
      </trkpt>
      <trkpt lat="44.89004" lon="-0.41794">
        <ele>26.2</ele>
        <time>2020-09-10T10:34:20Z</time>
      </trkpt>
      <trkpt lat="44.89004" lon="-0.41797">
        <ele>26.2</ele>
        <time>2020-09-10T10:34:22Z</time>
      </trkpt>
      <trkpt lat="44.89005" lon="-0.41798">
        <ele>26.2</ele>
        <time>2020-09-10T10:34:23Z</time>
      </trkpt>
      <trkpt lat="44.89005" lon="-0.41802">
        <ele>26.3</ele>
        <time>2020-09-10T10:34:25Z</time>
      </trkpt>
      <trkpt lat="44.89005" lon="-0.41803">
        <ele>26.3</ele>
        <time>2020-09-10T10:34:26Z</time>
      </trkpt>
      <trkpt lat="44.89005" lon="-0.41804">
        <ele>26.3</ele>
        <time>2020-09-10T10:34:27Z</time>
      </trkpt>
      <trkpt lat="44.89005" lon="-0.41806">
        <ele>26.3</ele>
        <time>2020-09-10T10:34:29Z</time>
      </trkpt>
      <trkpt lat="44.89004" lon="-0.4181">
        <ele>26.3</ele>
        <time>2020-09-10T10:34:31Z</time>
      </trkpt>
      <trkpt lat="44.89004" lon="-0.41811">
        <ele>26.4</ele>
        <time>2020-09-10T10:34:32Z</time>
      </trkpt>
      <trkpt lat="44.89004" lon="-0.41813">
        <ele>26.4</ele>
        <time>2020-09-10T10:34:34Z</time>
      </trkpt>
      <trkpt lat="44.89004" lon="-0.41816">
        <ele>26.4</ele>
        <time>2020-09-10T10:34:35Z</time>
      </trkpt>
      <trkpt lat="44.89004" lon="-0.41818">
        <ele>26.4</ele>
        <time>2020-09-10T10:34:37Z</time>
      </trkpt>
      <trkpt lat="44.89004" lon="-0.4182">
        <ele>26.5</ele>
        <time>2020-09-10T10:34:38Z</time>
      </trkpt>
      <trkpt lat="44.89003" lon="-0.41824">
        <ele>26.5</ele>
        <time>2020-09-10T10:34:40Z</time>
      </trkpt>
      <trkpt lat="44.89003" lon="-0.41826">
        <ele>26.5</ele>
        <time>2020-09-10T10:34:42Z</time>
      </trkpt>
      <trkpt lat="44.89002" lon="-0.41828">
        <ele>26.6</ele>
        <time>2020-09-10T10:34:43Z</time>
      </trkpt>
      <trkpt lat="44.89002" lon="-0.41832">
        <ele>26.6</ele>
        <time>2020-09-10T10:34:45Z</time>
      </trkpt>
      <trkpt lat="44.89002" lon="-0.41832">
        <ele>26.6</ele>
        <time>2020-09-10T10:34:46Z</time>
      </trkpt>
      <trkpt lat="44.89001" lon="-0.41834">
        <ele>26.6</ele>
        <time>2020-09-10T10:34:47Z</time>
      </trkpt>
      <trkpt lat="44.89001" lon="-0.41835">
        <ele>26.7</ele>
        <time>2020-09-10T10:34:48Z</time>
      </trkpt>
      <trkpt lat="44.89001" lon="-0.41837">
        <ele>26.7</ele>
        <time>2020-09-10T10:34:49Z</time>
      </trkpt>
      <trkpt lat="44.89" lon="-0.41843">
        <ele>26.7</ele>
        <time>2020-09-10T10:34:51Z</time>
      </trkpt>
      <trkpt lat="44.88999" lon="-0.41844">
        <ele>26.8</ele>
        <time>2020-09-10T10:34:53Z</time>
      </trkpt>
      <trkpt lat="44.88999" lon="-0.41846">
        <ele>26.8</ele>
        <time>2020-09-10T10:34:54Z</time>
      </trkpt>
      <trkpt lat="44.88999" lon="-0.41847">
        <ele>26.8</ele>
        <time>2020-09-10T10:34:55Z</time>
      </trkpt>
      <trkpt lat="44.88999" lon="-0.41848">
        <ele>26.8</ele>
        <time>2020-09-10T10:34:56Z</time>
      </trkpt>
      <trkpt lat="44.88998" lon="-0.4185">
        <ele>26.8</ele>
        <time>2020-09-10T10:34:57Z</time>
      </trkpt>
      <trkpt lat="44.88998" lon="-0.41852">
        <ele>26.8</ele>
        <time>2020-09-10T10:34:58Z</time>
      </trkpt>
      <trkpt lat="44.88998" lon="-0.41853">
        <ele>26.8</ele>
        <time>2020-09-10T10:34:59Z</time>
      </trkpt>
      <trkpt lat="44.88997" lon="-0.41855">
        <ele>26.9</ele>
        <time>2020-09-10T10:35:00Z</time>
      </trkpt>
      <trkpt lat="44.88997" lon="-0.41857">
        <ele>26.9</ele>
        <time>2020-09-10T10:35:02Z</time>
      </trkpt>
      <trkpt lat="44.88997" lon="-0.41858">
        <ele>26.9</ele>
        <time>2020-09-10T10:35:03Z</time>
      </trkpt>
      <trkpt lat="44.88996" lon="-0.4186">
        <ele>26.9</ele>
        <time>2020-09-10T10:35:04Z</time>
      </trkpt>
      <trkpt lat="44.88996" lon="-0.41863">
        <ele>26.9</ele>
        <time>2020-09-10T10:35:05Z</time>
      </trkpt>
      <trkpt lat="44.88995" lon="-0.41866">
        <ele>26.9</ele>
        <time>2020-09-10T10:35:07Z</time>
      </trkpt>
      <trkpt lat="44.88995" lon="-0.41867">
        <ele>26.9</ele>
        <time>2020-09-10T10:35:08Z</time>
      </trkpt>
      <trkpt lat="44.88995" lon="-0.41868">
        <ele>26.9</ele>
        <time>2020-09-10T10:35:09Z</time>
      </trkpt>
      <trkpt lat="44.88995" lon="-0.4187">
        <ele>26.9</ele>
        <time>2020-09-10T10:35:10Z</time>
      </trkpt>
      <trkpt lat="44.88994" lon="-0.41872">
        <ele>26.9</ele>
        <time>2020-09-10T10:35:11Z</time>
      </trkpt>
      <trkpt lat="44.88994" lon="-0.41874">
        <ele>26.9</ele>
        <time>2020-09-10T10:35:13Z</time>
      </trkpt>
      <trkpt lat="44.88994" lon="-0.41876">
        <ele>26.9</ele>
        <time>2020-09-10T10:35:14Z</time>
      </trkpt>
      <trkpt lat="44.88993" lon="-0.41879">
        <ele>26.9</ele>
        <time>2020-09-10T10:35:16Z</time>
      </trkpt>
      <trkpt lat="44.88993" lon="-0.4188">
        <ele>26.9</ele>
        <time>2020-09-10T10:35:17Z</time>
      </trkpt>
      <trkpt lat="44.88992" lon="-0.41882">
        <ele>26.9</ele>
        <time>2020-09-10T10:35:18Z</time>
      </trkpt>
      <trkpt lat="44.88992" lon="-0.41884">
        <ele>26.9</ele>
        <time>2020-09-10T10:35:19Z</time>
      </trkpt>
      <trkpt lat="44.88991" lon="-0.41886">
        <ele>26.9</ele>
        <time>2020-09-10T10:35:20Z</time>
      </trkpt>
      <trkpt lat="44.88991" lon="-0.41888">
        <ele>27</ele>
        <time>2020-09-10T10:35:21Z</time>
      </trkpt>
      <trkpt lat="44.8899" lon="-0.41889">
        <ele>27</ele>
        <time>2020-09-10T10:35:22Z</time>
      </trkpt>
      <trkpt lat="44.8899" lon="-0.41891">
        <ele>27</ele>
        <time>2020-09-10T10:35:23Z</time>
      </trkpt>
      <trkpt lat="44.88989" lon="-0.41893">
        <ele>27</ele>
        <time>2020-09-10T10:35:25Z</time>
      </trkpt>
      <trkpt lat="44.88989" lon="-0.41895">
        <ele>27</ele>
        <time>2020-09-10T10:35:26Z</time>
      </trkpt>
      <trkpt lat="44.88988" lon="-0.41896">
        <ele>27</ele>
        <time>2020-09-10T10:35:27Z</time>
      </trkpt>
      <trkpt lat="44.88988" lon="-0.41898">
        <ele>27</ele>
        <time>2020-09-10T10:35:28Z</time>
      </trkpt>
      <trkpt lat="44.88987" lon="-0.419">
        <ele>27</ele>
        <time>2020-09-10T10:35:30Z</time>
      </trkpt>
      <trkpt lat="44.88987" lon="-0.41903">
        <ele>27</ele>
        <time>2020-09-10T10:35:31Z</time>
      </trkpt>
      <trkpt lat="44.88987" lon="-0.41904">
        <ele>27</ele>
        <time>2020-09-10T10:35:32Z</time>
      </trkpt>
      <trkpt lat="44.88986" lon="-0.41905">
        <ele>27</ele>
        <time>2020-09-10T10:35:33Z</time>
      </trkpt>
      <trkpt lat="44.88986" lon="-0.41909">
        <ele>27</ele>
        <time>2020-09-10T10:35:35Z</time>
      </trkpt>
      <trkpt lat="44.88986" lon="-0.4191">
        <ele>27</ele>
        <time>2020-09-10T10:35:36Z</time>
      </trkpt>
      <trkpt lat="44.88986" lon="-0.41911">
        <ele>27</ele>
        <time>2020-09-10T10:35:37Z</time>
      </trkpt>
      <trkpt lat="44.88986" lon="-0.41913">
        <ele>27</ele>
        <time>2020-09-10T10:35:38Z</time>
      </trkpt>
      <trkpt lat="44.88985" lon="-0.41916">
        <ele>27</ele>
        <time>2020-09-10T10:35:40Z</time>
      </trkpt>
      <trkpt lat="44.88985" lon="-0.41918">
        <ele>27</ele>
        <time>2020-09-10T10:35:42Z</time>
      </trkpt>
      <trkpt lat="44.88985" lon="-0.41921">
        <ele>27</ele>
        <time>2020-09-10T10:35:43Z</time>
      </trkpt>
      <trkpt lat="44.88985" lon="-0.41922">
        <ele>27</ele>
        <time>2020-09-10T10:35:44Z</time>
      </trkpt>
      <trkpt lat="44.88985" lon="-0.41924">
        <ele>27</ele>
        <time>2020-09-10T10:35:45Z</time>
      </trkpt>
      <trkpt lat="44.88985" lon="-0.41925">
        <ele>27</ele>
        <time>2020-09-10T10:35:46Z</time>
      </trkpt>
      <trkpt lat="44.88986" lon="-0.41927">
        <ele>27</ele>
        <time>2020-09-10T10:35:47Z</time>
      </trkpt>
      <trkpt lat="44.88986" lon="-0.41928">
        <ele>27</ele>
        <time>2020-09-10T10:35:48Z</time>
      </trkpt>
      <trkpt lat="44.88987" lon="-0.41929">
        <ele>27</ele>
        <time>2020-09-10T10:35:49Z</time>
      </trkpt>
      <trkpt lat="44.88988" lon="-0.41931">
        <ele>27</ele>
        <time>2020-09-10T10:35:50Z</time>
      </trkpt>
      <trkpt lat="44.88989" lon="-0.41932">
        <ele>27</ele>
        <time>2020-09-10T10:35:52Z</time>
      </trkpt>
      <trkpt lat="44.8899" lon="-0.41933">
        <ele>27</ele>
        <time>2020-09-10T10:35:54Z</time>
      </trkpt>
      <trkpt lat="44.88992" lon="-0.41934">
        <ele>27</ele>
        <time>2020-09-10T10:35:55Z</time>
      </trkpt>
      <trkpt lat="44.88993" lon="-0.41935">
        <ele>27</ele>
        <time>2020-09-10T10:35:56Z</time>
      </trkpt>
      <trkpt lat="44.88994" lon="-0.41936">
        <ele>27</ele>
        <time>2020-09-10T10:35:58Z</time>
      </trkpt>
      <trkpt lat="44.88995" lon="-0.41937">
        <ele>27</ele>
        <time>2020-09-10T10:35:59Z</time>
      </trkpt>
      <trkpt lat="44.88998" lon="-0.41938">
        <ele>27.1</ele>
        <time>2020-09-10T10:36:01Z</time>
      </trkpt>
      <trkpt lat="44.89" lon="-0.41939">
        <ele>27.1</ele>
        <time>2020-09-10T10:36:03Z</time>
      </trkpt>
      <trkpt lat="44.89001" lon="-0.4194">
        <ele>27.1</ele>
        <time>2020-09-10T10:36:04Z</time>
      </trkpt>
      <trkpt lat="44.89002" lon="-0.4194">
        <ele>27.1</ele>
        <time>2020-09-10T10:36:05Z</time>
      </trkpt>
      <trkpt lat="44.89002" lon="-0.41941">
        <ele>27.1</ele>
        <time>2020-09-10T10:36:07Z</time>
      </trkpt>
      <trkpt lat="44.89004" lon="-0.41942">
        <ele>27.1</ele>
        <time>2020-09-10T10:36:08Z</time>
      </trkpt>
      <trkpt lat="44.89005" lon="-0.41942">
        <ele>27.1</ele>
        <time>2020-09-10T10:36:09Z</time>
      </trkpt>
      <trkpt lat="44.89007" lon="-0.41943">
        <ele>27.1</ele>
        <time>2020-09-10T10:36:10Z</time>
      </trkpt>
      <trkpt lat="44.89008" lon="-0.41943">
        <ele>27.1</ele>
        <time>2020-09-10T10:36:12Z</time>
      </trkpt>
      <trkpt lat="44.89008" lon="-0.41943">
        <ele>27.1</ele>
        <time>2020-09-10T10:36:13Z</time>
      </trkpt>
      <trkpt lat="44.89009" lon="-0.41943">
        <ele>27.1</ele>
        <time>2020-09-10T10:36:14Z</time>
      </trkpt>
      <trkpt lat="44.89011" lon="-0.41944">
        <ele>27.1</ele>
        <time>2020-09-10T10:36:15Z</time>
      </trkpt>
      <trkpt lat="44.89011" lon="-0.41944">
        <ele>27.1</ele>
        <time>2020-09-10T10:36:16Z</time>
      </trkpt>
      <trkpt lat="44.89012" lon="-0.41944">
        <ele>27.1</ele>
        <time>2020-09-10T10:36:17Z</time>
      </trkpt>
      <trkpt lat="44.89014" lon="-0.41944">
        <ele>27.2</ele>
        <time>2020-09-10T10:36:19Z</time>
      </trkpt>
      <trkpt lat="44.89016" lon="-0.41945">
        <ele>27.2</ele>
        <time>2020-09-10T10:36:21Z</time>
      </trkpt>
      <trkpt lat="44.89018" lon="-0.41945">
        <ele>27.2</ele>
        <time>2020-09-10T10:36:22Z</time>
      </trkpt>
      <trkpt lat="44.89021" lon="-0.41946">
        <ele>27.2</ele>
        <time>2020-09-10T10:36:23Z</time>
      </trkpt>
      <trkpt lat="44.89022" lon="-0.41946">
        <ele>27.2</ele>
        <time>2020-09-10T10:36:24Z</time>
      </trkpt>
      <trkpt lat="44.89024" lon="-0.41947">
        <ele>27.2</ele>
        <time>2020-09-10T10:36:25Z</time>
      </trkpt>
      <trkpt lat="44.89025" lon="-0.41947">
        <ele>27.2</ele>
        <time>2020-09-10T10:36:26Z</time>
      </trkpt>
      <trkpt lat="44.89029" lon="-0.41948">
        <ele>27.2</ele>
        <time>2020-09-10T10:36:28Z</time>
      </trkpt>
      <trkpt lat="44.89029" lon="-0.41948">
        <ele>27.3</ele>
        <time>2020-09-10T10:36:29Z</time>
      </trkpt>
      <trkpt lat="44.89031" lon="-0.41949">
        <ele>27.3</ele>
        <time>2020-09-10T10:36:30Z</time>
      </trkpt>
      <trkpt lat="44.89033" lon="-0.41949">
        <ele>27.3</ele>
        <time>2020-09-10T10:36:32Z</time>
      </trkpt>
      <trkpt lat="44.89034" lon="-0.4195">
        <ele>27.3</ele>
        <time>2020-09-10T10:36:33Z</time>
      </trkpt>
      <trkpt lat="44.89034" lon="-0.4195">
        <ele>27.3</ele>
        <time>2020-09-10T10:36:35Z</time>
      </trkpt>
      <trkpt lat="44.89035" lon="-0.41951">
        <ele>27.3</ele>
        <time>2020-09-10T10:36:36Z</time>
      </trkpt>
      <trkpt lat="44.89036" lon="-0.41951">
        <ele>27.3</ele>
        <time>2020-09-10T10:36:37Z</time>
      </trkpt>
      <trkpt lat="44.89039" lon="-0.41952">
        <ele>27.3</ele>
        <time>2020-09-10T10:36:38Z</time>
      </trkpt>
      <trkpt lat="44.8904" lon="-0.41952">
        <ele>27.3</ele>
        <time>2020-09-10T10:36:40Z</time>
      </trkpt>
      <trkpt lat="44.89041" lon="-0.41953">
        <ele>27.3</ele>
        <time>2020-09-10T10:36:41Z</time>
      </trkpt>
      <trkpt lat="44.89043" lon="-0.41953">
        <ele>27.3</ele>
        <time>2020-09-10T10:36:42Z</time>
      </trkpt>
      <trkpt lat="44.89044" lon="-0.41954">
        <ele>27.3</ele>
        <time>2020-09-10T10:36:43Z</time>
      </trkpt>
      <trkpt lat="44.89045" lon="-0.41954">
        <ele>27.3</ele>
        <time>2020-09-10T10:36:44Z</time>
      </trkpt>
      <trkpt lat="44.89046" lon="-0.41954">
        <ele>27.3</ele>
        <time>2020-09-10T10:36:46Z</time>
      </trkpt>
      <trkpt lat="44.89046" lon="-0.41954">
        <ele>27.3</ele>
        <time>2020-09-10T10:36:47Z</time>
      </trkpt>
      <trkpt lat="44.89049" lon="-0.41955">
        <ele>27.3</ele>
        <time>2020-09-10T10:36:48Z</time>
      </trkpt>
      <trkpt lat="44.89049" lon="-0.41955">
        <ele>27.3</ele>
        <time>2020-09-10T10:36:49Z</time>
      </trkpt>
      <trkpt lat="44.89051" lon="-0.41956">
        <ele>27.3</ele>
        <time>2020-09-10T10:36:50Z</time>
      </trkpt>
      <trkpt lat="44.89052" lon="-0.41956">
        <ele>27.4</ele>
        <time>2020-09-10T10:36:51Z</time>
      </trkpt>
      <trkpt lat="44.89053" lon="-0.41956">
        <ele>27.4</ele>
        <time>2020-09-10T10:36:52Z</time>
      </trkpt>
      <trkpt lat="44.89054" lon="-0.41956">
        <ele>27.4</ele>
        <time>2020-09-10T10:36:53Z</time>
      </trkpt>
      <trkpt lat="44.89054" lon="-0.41956">
        <ele>27.4</ele>
        <time>2020-09-10T10:36:54Z</time>
      </trkpt>
      <trkpt lat="44.89056" lon="-0.41957">
        <ele>27.4</ele>
        <time>2020-09-10T10:36:56Z</time>
      </trkpt>
      <trkpt lat="44.8906" lon="-0.41958">
        <ele>27.4</ele>
        <time>2020-09-10T10:36:58Z</time>
      </trkpt>
      <trkpt lat="44.89061" lon="-0.41958">
        <ele>27.4</ele>
        <time>2020-09-10T10:37:00Z</time>
      </trkpt>
      <trkpt lat="44.89062" lon="-0.41958">
        <ele>27.4</ele>
        <time>2020-09-10T10:37:01Z</time>
      </trkpt>
      <trkpt lat="44.89063" lon="-0.41959">
        <ele>27.4</ele>
        <time>2020-09-10T10:37:02Z</time>
      </trkpt>
      <trkpt lat="44.89065" lon="-0.41959">
        <ele>27.4</ele>
        <time>2020-09-10T10:37:03Z</time>
      </trkpt>
      <trkpt lat="44.89067" lon="-0.4196">
        <ele>27.4</ele>
        <time>2020-09-10T10:37:05Z</time>
      </trkpt>
      <trkpt lat="44.89069" lon="-0.41961">
        <ele>27.4</ele>
        <time>2020-09-10T10:37:06Z</time>
      </trkpt>
      <trkpt lat="44.8907" lon="-0.41961">
        <ele>27.4</ele>
        <time>2020-09-10T10:37:07Z</time>
      </trkpt>
      <trkpt lat="44.89071" lon="-0.41961">
        <ele>27.4</ele>
        <time>2020-09-10T10:37:08Z</time>
      </trkpt>
      <trkpt lat="44.89072" lon="-0.41962">
        <ele>27.4</ele>
        <time>2020-09-10T10:37:09Z</time>
      </trkpt>
      <trkpt lat="44.89074" lon="-0.41962">
        <ele>27.4</ele>
        <time>2020-09-10T10:37:11Z</time>
      </trkpt>
      <trkpt lat="44.89077" lon="-0.41964">
        <ele>27.5</ele>
        <time>2020-09-10T10:37:13Z</time>
      </trkpt>
      <trkpt lat="44.89079" lon="-0.41965">
        <ele>27.5</ele>
        <time>2020-09-10T10:37:15Z</time>
      </trkpt>
      <trkpt lat="44.8908" lon="-0.41965">
        <ele>27.5</ele>
        <time>2020-09-10T10:37:16Z</time>
      </trkpt>
      <trkpt lat="44.89081" lon="-0.41966">
        <ele>27.5</ele>
        <time>2020-09-10T10:37:17Z</time>
      </trkpt>
      <trkpt lat="44.89083" lon="-0.41966">
        <ele>27.5</ele>
        <time>2020-09-10T10:37:18Z</time>
      </trkpt>
      <trkpt lat="44.89084" lon="-0.41967">
        <ele>27.5</ele>
        <time>2020-09-10T10:37:19Z</time>
      </trkpt>
      <trkpt lat="44.89085" lon="-0.41967">
        <ele>27.5</ele>
        <time>2020-09-10T10:37:21Z</time>
      </trkpt>
      <trkpt lat="44.89086" lon="-0.41968">
        <ele>27.5</ele>
        <time>2020-09-10T10:37:22Z</time>
      </trkpt>
      <trkpt lat="44.89088" lon="-0.41969">
        <ele>27.6</ele>
        <time>2020-09-10T10:37:24Z</time>
      </trkpt>
      <trkpt lat="44.8909" lon="-0.41969">
        <ele>27.6</ele>
        <time>2020-09-10T10:37:25Z</time>
      </trkpt>
      <trkpt lat="44.8909" lon="-0.4197">
        <ele>27.6</ele>
        <time>2020-09-10T10:37:26Z</time>
      </trkpt>
      <trkpt lat="44.89091" lon="-0.4197">
        <ele>27.6</ele>
        <time>2020-09-10T10:37:27Z</time>
      </trkpt>
      <trkpt lat="44.89092" lon="-0.41971">
        <ele>27.6</ele>
        <time>2020-09-10T10:37:28Z</time>
      </trkpt>
      <trkpt lat="44.89093" lon="-0.41971">
        <ele>27.6</ele>
        <time>2020-09-10T10:37:29Z</time>
      </trkpt>
      <trkpt lat="44.89094" lon="-0.41972">
        <ele>27.6</ele>
        <time>2020-09-10T10:37:31Z</time>
      </trkpt>
      <trkpt lat="44.89095" lon="-0.41972">
        <ele>27.6</ele>
        <time>2020-09-10T10:37:33Z</time>
      </trkpt>
      <trkpt lat="44.89096" lon="-0.41972">
        <ele>27.6</ele>
        <time>2020-09-10T10:37:34Z</time>
      </trkpt>
      <trkpt lat="44.89096" lon="-0.41972">
        <ele>27.7</ele>
        <time>2020-09-10T10:37:35Z</time>
      </trkpt>
      <trkpt lat="44.89097" lon="-0.41972">
        <ele>27.7</ele>
        <time>2020-09-10T10:37:36Z</time>
      </trkpt>
      <trkpt lat="44.89098" lon="-0.41973">
        <ele>27.7</ele>
        <time>2020-09-10T10:37:37Z</time>
      </trkpt>
      <trkpt lat="44.89099" lon="-0.41974">
        <ele>27.7</ele>
        <time>2020-09-10T10:37:38Z</time>
      </trkpt>
      <trkpt lat="44.891" lon="-0.41974">
        <ele>27.7</ele>
        <time>2020-09-10T10:37:39Z</time>
      </trkpt>
      <trkpt lat="44.89101" lon="-0.41974">
        <ele>27.7</ele>
        <time>2020-09-10T10:37:40Z</time>
      </trkpt>
      <trkpt lat="44.89102" lon="-0.41974">
        <ele>27.7</ele>
        <time>2020-09-10T10:37:42Z</time>
      </trkpt>
      <trkpt lat="44.89104" lon="-0.41974">
        <ele>27.7</ele>
        <time>2020-09-10T10:37:44Z</time>
      </trkpt>
      <trkpt lat="44.89105" lon="-0.41974">
        <ele>27.7</ele>
        <time>2020-09-10T10:37:45Z</time>
      </trkpt>
      <trkpt lat="44.89106" lon="-0.41975">
        <ele>27.7</ele>
        <time>2020-09-10T10:37:46Z</time>
      </trkpt>
      <trkpt lat="44.89107" lon="-0.41975">
        <ele>27.7</ele>
        <time>2020-09-10T10:37:47Z</time>
      </trkpt>
      <trkpt lat="44.89109" lon="-0.41975">
        <ele>27.8</ele>
        <time>2020-09-10T10:37:48Z</time>
      </trkpt>
      <trkpt lat="44.8911" lon="-0.41975">
        <ele>27.8</ele>
        <time>2020-09-10T10:37:49Z</time>
      </trkpt>
      <trkpt lat="44.89111" lon="-0.41976">
        <ele>27.8</ele>
        <time>2020-09-10T10:37:50Z</time>
      </trkpt>
      <trkpt lat="44.89113" lon="-0.41976">
        <ele>27.8</ele>
        <time>2020-09-10T10:37:51Z</time>
      </trkpt>
      <trkpt lat="44.89114" lon="-0.41976">
        <ele>27.8</ele>
        <time>2020-09-10T10:37:52Z</time>
      </trkpt>
      <trkpt lat="44.89115" lon="-0.41977">
        <ele>27.8</ele>
        <time>2020-09-10T10:37:53Z</time>
      </trkpt>
      <trkpt lat="44.89116" lon="-0.41977">
        <ele>27.8</ele>
        <time>2020-09-10T10:37:55Z</time>
      </trkpt>
      <trkpt lat="44.89118" lon="-0.41978">
        <ele>27.8</ele>
        <time>2020-09-10T10:37:56Z</time>
      </trkpt>
      <trkpt lat="44.89119" lon="-0.41979">
        <ele>27.8</ele>
        <time>2020-09-10T10:37:57Z</time>
      </trkpt>
      <trkpt lat="44.8912" lon="-0.41979">
        <ele>27.8</ele>
        <time>2020-09-10T10:37:58Z</time>
      </trkpt>
      <trkpt lat="44.89122" lon="-0.4198">
        <ele>27.8</ele>
        <time>2020-09-10T10:37:59Z</time>
      </trkpt>
      <trkpt lat="44.89123" lon="-0.41981">
        <ele>27.8</ele>
        <time>2020-09-10T10:38:00Z</time>
      </trkpt>
      <trkpt lat="44.89124" lon="-0.41981">
        <ele>27.8</ele>
        <time>2020-09-10T10:38:01Z</time>
      </trkpt>
      <trkpt lat="44.89125" lon="-0.41982">
        <ele>27.8</ele>
        <time>2020-09-10T10:38:02Z</time>
      </trkpt>
      <trkpt lat="44.89128" lon="-0.41983">
        <ele>27.8</ele>
        <time>2020-09-10T10:38:04Z</time>
      </trkpt>
      <trkpt lat="44.89129" lon="-0.41984">
        <ele>27.8</ele>
        <time>2020-09-10T10:38:05Z</time>
      </trkpt>
      <trkpt lat="44.89131" lon="-0.41984">
        <ele>27.8</ele>
        <time>2020-09-10T10:38:06Z</time>
      </trkpt>
      <trkpt lat="44.89134" lon="-0.41986">
        <ele>27.8</ele>
        <time>2020-09-10T10:38:08Z</time>
      </trkpt>
      <trkpt lat="44.89135" lon="-0.41986">
        <ele>27.8</ele>
        <time>2020-09-10T10:38:09Z</time>
      </trkpt>
      <trkpt lat="44.89137" lon="-0.41989">
        <ele>27.8</ele>
        <time>2020-09-10T10:38:10Z</time>
      </trkpt>
      <trkpt lat="44.89138" lon="-0.4199">
        <ele>27.8</ele>
        <time>2020-09-10T10:38:12Z</time>
      </trkpt>
      <trkpt lat="44.8914" lon="-0.41992">
        <ele>27.8</ele>
        <time>2020-09-10T10:38:14Z</time>
      </trkpt>
      <trkpt lat="44.89141" lon="-0.41993">
        <ele>27.8</ele>
        <time>2020-09-10T10:38:15Z</time>
      </trkpt>
      <trkpt lat="44.89142" lon="-0.41994">
        <ele>27.8</ele>
        <time>2020-09-10T10:38:17Z</time>
      </trkpt>
      <trkpt lat="44.89144" lon="-0.41996">
        <ele>27.8</ele>
        <time>2020-09-10T10:38:19Z</time>
      </trkpt>
      <trkpt lat="44.89145" lon="-0.41997">
        <ele>27.8</ele>
        <time>2020-09-10T10:38:21Z</time>
      </trkpt>
      <trkpt lat="44.89146" lon="-0.41998">
        <ele>27.7</ele>
        <time>2020-09-10T10:38:22Z</time>
      </trkpt>
      <trkpt lat="44.89148" lon="-0.42">
        <ele>27.7</ele>
        <time>2020-09-10T10:38:23Z</time>
      </trkpt>
      <trkpt lat="44.89149" lon="-0.42001">
        <ele>27.6</ele>
        <time>2020-09-10T10:38:24Z</time>
      </trkpt>
      <trkpt lat="44.8915" lon="-0.42002">
        <ele>27.6</ele>
        <time>2020-09-10T10:38:25Z</time>
      </trkpt>
      <trkpt lat="44.89151" lon="-0.42003">
        <ele>27.6</ele>
        <time>2020-09-10T10:38:26Z</time>
      </trkpt>
      <trkpt lat="44.89152" lon="-0.42004">
        <ele>27.6</ele>
        <time>2020-09-10T10:38:27Z</time>
      </trkpt>
      <trkpt lat="44.89154" lon="-0.42006">
        <ele>27.5</ele>
        <time>2020-09-10T10:38:29Z</time>
      </trkpt>
      <trkpt lat="44.89154" lon="-0.42007">
        <ele>27.5</ele>
        <time>2020-09-10T10:38:30Z</time>
      </trkpt>
      <trkpt lat="44.89156" lon="-0.42009">
        <ele>27.5</ele>
        <time>2020-09-10T10:38:32Z</time>
      </trkpt>
      <trkpt lat="44.89157" lon="-0.4201">
        <ele>27.4</ele>
        <time>2020-09-10T10:38:33Z</time>
      </trkpt>
      <trkpt lat="44.89159" lon="-0.42011">
        <ele>27.4</ele>
        <time>2020-09-10T10:38:34Z</time>
      </trkpt>
      <trkpt lat="44.89159" lon="-0.42012">
        <ele>27.3</ele>
        <time>2020-09-10T10:38:35Z</time>
      </trkpt>
      <trkpt lat="44.8916" lon="-0.42012">
        <ele>27.3</ele>
        <time>2020-09-10T10:38:36Z</time>
      </trkpt>
      <trkpt lat="44.89163" lon="-0.42015">
        <ele>27.2</ele>
        <time>2020-09-10T10:38:39Z</time>
      </trkpt>
      <trkpt lat="44.89164" lon="-0.42017">
        <ele>27.1</ele>
        <time>2020-09-10T10:38:40Z</time>
      </trkpt>
      <trkpt lat="44.89166" lon="-0.42018">
        <ele>27.1</ele>
        <time>2020-09-10T10:38:41Z</time>
      </trkpt>
      <trkpt lat="44.89168" lon="-0.4202">
        <ele>27</ele>
        <time>2020-09-10T10:38:43Z</time>
      </trkpt>
      <trkpt lat="44.89168" lon="-0.42021">
        <ele>26.9</ele>
        <time>2020-09-10T10:38:45Z</time>
      </trkpt>
      <trkpt lat="44.89169" lon="-0.42023">
        <ele>26.9</ele>
        <time>2020-09-10T10:38:46Z</time>
      </trkpt>
      <trkpt lat="44.89171" lon="-0.42024">
        <ele>26.8</ele>
        <time>2020-09-10T10:38:47Z</time>
      </trkpt>
      <trkpt lat="44.89173" lon="-0.42027">
        <ele>26.7</ele>
        <time>2020-09-10T10:38:48Z</time>
      </trkpt>
      <trkpt lat="44.89173" lon="-0.42028">
        <ele>26.6</ele>
        <time>2020-09-10T10:38:49Z</time>
      </trkpt>
      <trkpt lat="44.89174" lon="-0.4203">
        <ele>26.6</ele>
        <time>2020-09-10T10:38:50Z</time>
      </trkpt>
      <trkpt lat="44.89175" lon="-0.42032">
        <ele>26.5</ele>
        <time>2020-09-10T10:38:51Z</time>
      </trkpt>
      <trkpt lat="44.89176" lon="-0.42033">
        <ele>26.5</ele>
        <time>2020-09-10T10:38:52Z</time>
      </trkpt>
      <trkpt lat="44.89177" lon="-0.42035">
        <ele>26.4</ele>
        <time>2020-09-10T10:38:54Z</time>
      </trkpt>
      <trkpt lat="44.89177" lon="-0.42036">
        <ele>26.4</ele>
        <time>2020-09-10T10:38:55Z</time>
      </trkpt>
      <trkpt lat="44.89177" lon="-0.42038">
        <ele>26.3</ele>
        <time>2020-09-10T10:38:57Z</time>
      </trkpt>
      <trkpt lat="44.89176" lon="-0.42038">
        <ele>26.3</ele>
        <time>2020-09-10T10:38:58Z</time>
      </trkpt>
      <trkpt lat="44.89175" lon="-0.42039">
        <ele>26.3</ele>
        <time>2020-09-10T10:39:00Z</time>
      </trkpt>
      <trkpt lat="44.89175" lon="-0.42039">
        <ele>26.2</ele>
        <time>2020-09-10T10:39:01Z</time>
      </trkpt>
      <trkpt lat="44.89175" lon="-0.42039">
        <ele>26.2</ele>
        <time>2020-09-10T10:39:02Z</time>
      </trkpt>
      <trkpt lat="44.89174" lon="-0.4204">
        <ele>26.2</ele>
        <time>2020-09-10T10:39:04Z</time>
      </trkpt>
      <trkpt lat="44.89174" lon="-0.4204">
        <ele>26.2</ele>
        <time>2020-09-10T10:39:05Z</time>
      </trkpt>
      <trkpt lat="44.89173" lon="-0.4204">
        <ele>26.2</ele>
        <time>2020-09-10T10:39:07Z</time>
      </trkpt>
      <trkpt lat="44.89173" lon="-0.4204">
        <ele>26.1</ele>
        <time>2020-09-10T10:39:09Z</time>
      </trkpt>
      <trkpt lat="44.89172" lon="-0.4204">
        <ele>26.1</ele>
        <time>2020-09-10T10:39:11Z</time>
      </trkpt>
      <trkpt lat="44.89172" lon="-0.42041">
        <ele>26.1</ele>
        <time>2020-09-10T10:39:12Z</time>
      </trkpt>
      <trkpt lat="44.89173" lon="-0.42041">
        <ele>26.1</ele>
        <time>2020-09-10T10:39:13Z</time>
      </trkpt>
      <trkpt lat="44.89174" lon="-0.42042">
        <ele>26</ele>
        <time>2020-09-10T10:39:14Z</time>
      </trkpt>
      <trkpt lat="44.89174" lon="-0.42043">
        <ele>26</ele>
        <time>2020-09-10T10:39:15Z</time>
      </trkpt>
      <trkpt lat="44.89175" lon="-0.42044">
        <ele>25.9</ele>
        <time>2020-09-10T10:39:17Z</time>
      </trkpt>
      <trkpt lat="44.89176" lon="-0.42045">
        <ele>25.9</ele>
        <time>2020-09-10T10:39:18Z</time>
      </trkpt>
      <trkpt lat="44.89178" lon="-0.42047">
        <ele>25.8</ele>
        <time>2020-09-10T10:39:19Z</time>
      </trkpt>
      <trkpt lat="44.89179" lon="-0.42048">
        <ele>25.7</ele>
        <time>2020-09-10T10:39:20Z</time>
      </trkpt>
      <trkpt lat="44.8918" lon="-0.42048">
        <ele>25.7</ele>
        <time>2020-09-10T10:39:21Z</time>
      </trkpt>
      <trkpt lat="44.89181" lon="-0.42048">
        <ele>25.7</ele>
        <time>2020-09-10T10:39:22Z</time>
      </trkpt>
      <trkpt lat="44.89182" lon="-0.42049">
        <ele>25.6</ele>
        <time>2020-09-10T10:39:24Z</time>
      </trkpt>
      <trkpt lat="44.89183" lon="-0.4205">
        <ele>25.6</ele>
        <time>2020-09-10T10:39:25Z</time>
      </trkpt>
      <trkpt lat="44.89183" lon="-0.4205">
        <ele>25.5</ele>
        <time>2020-09-10T10:39:27Z</time>
      </trkpt>
      <trkpt lat="44.89184" lon="-0.42051">
        <ele>25.5</ele>
        <time>2020-09-10T10:39:28Z</time>
      </trkpt>
      <trkpt lat="44.89185" lon="-0.42052">
        <ele>25.4</ele>
        <time>2020-09-10T10:39:29Z</time>
      </trkpt>
      <trkpt lat="44.89186" lon="-0.42052">
        <ele>25.4</ele>
        <time>2020-09-10T10:39:30Z</time>
      </trkpt>
      <trkpt lat="44.89187" lon="-0.42052">
        <ele>25.3</ele>
        <time>2020-09-10T10:39:31Z</time>
      </trkpt>
      <trkpt lat="44.89188" lon="-0.42053">
        <ele>25.3</ele>
        <time>2020-09-10T10:39:32Z</time>
      </trkpt>
      <trkpt lat="44.89189" lon="-0.42054">
        <ele>25.2</ele>
        <time>2020-09-10T10:39:33Z</time>
      </trkpt>
      <trkpt lat="44.89191" lon="-0.42055">
        <ele>25.1</ele>
        <time>2020-09-10T10:39:34Z</time>
      </trkpt>
      <trkpt lat="44.89192" lon="-0.42056">
        <ele>25.1</ele>
        <time>2020-09-10T10:39:35Z</time>
      </trkpt>
      <trkpt lat="44.89193" lon="-0.42056">
        <ele>25</ele>
        <time>2020-09-10T10:39:36Z</time>
      </trkpt>
      <trkpt lat="44.89195" lon="-0.42058">
        <ele>24.9</ele>
        <time>2020-09-10T10:39:37Z</time>
      </trkpt>
      <trkpt lat="44.89198" lon="-0.42062">
        <ele>24.6</ele>
        <time>2020-09-10T10:39:39Z</time>
      </trkpt>
      <trkpt lat="44.89199" lon="-0.42063">
        <ele>24.6</ele>
        <time>2020-09-10T10:39:40Z</time>
      </trkpt>
      <trkpt lat="44.892" lon="-0.42065">
        <ele>24.5</ele>
        <time>2020-09-10T10:39:41Z</time>
      </trkpt>
      <trkpt lat="44.89201" lon="-0.42067">
        <ele>24.3</ele>
        <time>2020-09-10T10:39:43Z</time>
      </trkpt>
      <trkpt lat="44.89202" lon="-0.42068">
        <ele>24.3</ele>
        <time>2020-09-10T10:39:44Z</time>
      </trkpt>
      <trkpt lat="44.89202" lon="-0.42068">
        <ele>24.2</ele>
        <time>2020-09-10T10:39:45Z</time>
      </trkpt>
      <trkpt lat="44.89203" lon="-0.42069">
        <ele>24.2</ele>
        <time>2020-09-10T10:39:47Z</time>
      </trkpt>
      <trkpt lat="44.89204" lon="-0.42069">
        <ele>24.1</ele>
        <time>2020-09-10T10:39:48Z</time>
      </trkpt>
      <trkpt lat="44.89205" lon="-0.4207">
        <ele>24</ele>
        <time>2020-09-10T10:39:50Z</time>
      </trkpt>
      <trkpt lat="44.89206" lon="-0.42071">
        <ele>24</ele>
        <time>2020-09-10T10:39:51Z</time>
      </trkpt>
      <trkpt lat="44.89207" lon="-0.42071">
        <ele>23.9</ele>
        <time>2020-09-10T10:39:52Z</time>
      </trkpt>
      <trkpt lat="44.89209" lon="-0.42072">
        <ele>23.8</ele>
        <time>2020-09-10T10:39:54Z</time>
      </trkpt>
      <trkpt lat="44.8921" lon="-0.42073">
        <ele>23.6</ele>
        <time>2020-09-10T10:39:55Z</time>
      </trkpt>
      <trkpt lat="44.89211" lon="-0.42073">
        <ele>23.6</ele>
        <time>2020-09-10T10:39:56Z</time>
      </trkpt>
      <trkpt lat="44.89212" lon="-0.42073">
        <ele>23.5</ele>
        <time>2020-09-10T10:39:57Z</time>
      </trkpt>
      <trkpt lat="44.89213" lon="-0.42074">
        <ele>23.4</ele>
        <time>2020-09-10T10:39:58Z</time>
      </trkpt>
      <trkpt lat="44.89214" lon="-0.42075">
        <ele>23.3</ele>
        <time>2020-09-10T10:39:59Z</time>
      </trkpt>
      <trkpt lat="44.89216" lon="-0.42076">
        <ele>23.2</ele>
        <time>2020-09-10T10:40:01Z</time>
      </trkpt>
      <trkpt lat="44.89218" lon="-0.42076">
        <ele>23</ele>
        <time>2020-09-10T10:40:02Z</time>
      </trkpt>
      <trkpt lat="44.89218" lon="-0.42077">
        <ele>23</ele>
        <time>2020-09-10T10:40:03Z</time>
      </trkpt>
      <trkpt lat="44.89219" lon="-0.42077">
        <ele>22.9</ele>
        <time>2020-09-10T10:40:04Z</time>
      </trkpt>
      <trkpt lat="44.8922" lon="-0.42077">
        <ele>22.8</ele>
        <time>2020-09-10T10:40:05Z</time>
      </trkpt>
      <trkpt lat="44.89221" lon="-0.42078">
        <ele>22.7</ele>
        <time>2020-09-10T10:40:07Z</time>
      </trkpt>
      <trkpt lat="44.89222" lon="-0.42078">
        <ele>22.6</ele>
        <time>2020-09-10T10:40:08Z</time>
      </trkpt>
      <trkpt lat="44.89223" lon="-0.42079">
        <ele>22.6</ele>
        <time>2020-09-10T10:40:10Z</time>
      </trkpt>
      <trkpt lat="44.89225" lon="-0.4208">
        <ele>22.4</ele>
        <time>2020-09-10T10:40:11Z</time>
      </trkpt>
      <trkpt lat="44.89226" lon="-0.42081">
        <ele>22.3</ele>
        <time>2020-09-10T10:40:12Z</time>
      </trkpt>
      <trkpt lat="44.89227" lon="-0.42081">
        <ele>22.3</ele>
        <time>2020-09-10T10:40:13Z</time>
      </trkpt>
      <trkpt lat="44.89227" lon="-0.42082">
        <ele>22.2</ele>
        <time>2020-09-10T10:40:14Z</time>
      </trkpt>
      <trkpt lat="44.89229" lon="-0.42083">
        <ele>22</ele>
        <time>2020-09-10T10:40:15Z</time>
      </trkpt>
      <trkpt lat="44.8923" lon="-0.42083">
        <ele>22</ele>
        <time>2020-09-10T10:40:16Z</time>
      </trkpt>
      <trkpt lat="44.8923" lon="-0.42084">
        <ele>21.9</ele>
        <time>2020-09-10T10:40:17Z</time>
      </trkpt>
      <trkpt lat="44.89231" lon="-0.42084">
        <ele>21.8</ele>
        <time>2020-09-10T10:40:18Z</time>
      </trkpt>
      <trkpt lat="44.89232" lon="-0.42085">
        <ele>21.8</ele>
        <time>2020-09-10T10:40:19Z</time>
      </trkpt>
      <trkpt lat="44.89233" lon="-0.42086">
        <ele>21.7</ele>
        <time>2020-09-10T10:40:20Z</time>
      </trkpt>
      <trkpt lat="44.89234" lon="-0.42087">
        <ele>21.6</ele>
        <time>2020-09-10T10:40:22Z</time>
      </trkpt>
      <trkpt lat="44.89235" lon="-0.42087">
        <ele>21.5</ele>
        <time>2020-09-10T10:40:23Z</time>
      </trkpt>
      <trkpt lat="44.89235" lon="-0.42087">
        <ele>21.5</ele>
        <time>2020-09-10T10:40:24Z</time>
      </trkpt>
      <trkpt lat="44.89237" lon="-0.42088">
        <ele>21.4</ele>
        <time>2020-09-10T10:40:25Z</time>
      </trkpt>
      <trkpt lat="44.89237" lon="-0.42089">
        <ele>21.3</ele>
        <time>2020-09-10T10:40:26Z</time>
      </trkpt>
      <trkpt lat="44.89239" lon="-0.4209">
        <ele>21.2</ele>
        <time>2020-09-10T10:40:27Z</time>
      </trkpt>
      <trkpt lat="44.8924" lon="-0.42091">
        <ele>21.1</ele>
        <time>2020-09-10T10:40:29Z</time>
      </trkpt>
      <trkpt lat="44.8924" lon="-0.42092">
        <ele>21</ele>
        <time>2020-09-10T10:40:30Z</time>
      </trkpt>
      <trkpt lat="44.89241" lon="-0.42093">
        <ele>20.9</ele>
        <time>2020-09-10T10:40:31Z</time>
      </trkpt>
      <trkpt lat="44.89242" lon="-0.42094">
        <ele>20.8</ele>
        <time>2020-09-10T10:40:33Z</time>
      </trkpt>
      <trkpt lat="44.89243" lon="-0.42095">
        <ele>20.8</ele>
        <time>2020-09-10T10:40:34Z</time>
      </trkpt>
      <trkpt lat="44.89244" lon="-0.42096">
        <ele>20.7</ele>
        <time>2020-09-10T10:40:35Z</time>
      </trkpt>
      <trkpt lat="44.89244" lon="-0.42096">
        <ele>20.7</ele>
        <time>2020-09-10T10:40:36Z</time>
      </trkpt>
      <trkpt lat="44.89245" lon="-0.42097">
        <ele>20.6</ele>
        <time>2020-09-10T10:40:38Z</time>
      </trkpt>
      <trkpt lat="44.89245" lon="-0.42097">
        <ele>20.6</ele>
        <time>2020-09-10T10:40:39Z</time>
      </trkpt>
      <trkpt lat="44.89247" lon="-0.42098">
        <ele>20.5</ele>
        <time>2020-09-10T10:40:40Z</time>
      </trkpt>
      <trkpt lat="44.89248" lon="-0.42099">
        <ele>20.4</ele>
        <time>2020-09-10T10:40:41Z</time>
      </trkpt>
      <trkpt lat="44.89249" lon="-0.42099">
        <ele>20.3</ele>
        <time>2020-09-10T10:40:42Z</time>
      </trkpt>
      <trkpt lat="44.89249" lon="-0.42099">
        <ele>20.3</ele>
        <time>2020-09-10T10:40:43Z</time>
      </trkpt>
      <trkpt lat="44.8925" lon="-0.421">
        <ele>20.2</ele>
        <time>2020-09-10T10:40:44Z</time>
      </trkpt>
      <trkpt lat="44.89252" lon="-0.42101">
        <ele>20.1</ele>
        <time>2020-09-10T10:40:46Z</time>
      </trkpt>
      <trkpt lat="44.89252" lon="-0.42101">
        <ele>20</ele>
        <time>2020-09-10T10:40:47Z</time>
      </trkpt>
      <trkpt lat="44.89253" lon="-0.42102">
        <ele>20</ele>
        <time>2020-09-10T10:40:49Z</time>
      </trkpt>
      <trkpt lat="44.89254" lon="-0.42102">
        <ele>19.9</ele>
        <time>2020-09-10T10:40:50Z</time>
      </trkpt>
      <trkpt lat="44.89256" lon="-0.42103">
        <ele>19.8</ele>
        <time>2020-09-10T10:40:51Z</time>
      </trkpt>
      <trkpt lat="44.89257" lon="-0.42104">
        <ele>19.7</ele>
        <time>2020-09-10T10:40:52Z</time>
      </trkpt>
      <trkpt lat="44.89258" lon="-0.42105">
        <ele>19.7</ele>
        <time>2020-09-10T10:40:53Z</time>
      </trkpt>
      <trkpt lat="44.89258" lon="-0.42105">
        <ele>19.6</ele>
        <time>2020-09-10T10:40:54Z</time>
      </trkpt>
      <trkpt lat="44.89259" lon="-0.42106">
        <ele>19.6</ele>
        <time>2020-09-10T10:40:55Z</time>
      </trkpt>
      <trkpt lat="44.8926" lon="-0.42107">
        <ele>19.5</ele>
        <time>2020-09-10T10:40:56Z</time>
      </trkpt>
      <trkpt lat="44.89261" lon="-0.42108">
        <ele>19.4</ele>
        <time>2020-09-10T10:40:57Z</time>
      </trkpt>
      <trkpt lat="44.89262" lon="-0.42108">
        <ele>19.4</ele>
        <time>2020-09-10T10:40:58Z</time>
      </trkpt>
      <trkpt lat="44.89263" lon="-0.42109">
        <ele>19.3</ele>
        <time>2020-09-10T10:40:59Z</time>
      </trkpt>
      <trkpt lat="44.89264" lon="-0.4211">
        <ele>19.2</ele>
        <time>2020-09-10T10:41:01Z</time>
      </trkpt>
      <trkpt lat="44.89265" lon="-0.42111">
        <ele>19.2</ele>
        <time>2020-09-10T10:41:02Z</time>
      </trkpt>
      <trkpt lat="44.89266" lon="-0.42112">
        <ele>19.1</ele>
        <time>2020-09-10T10:41:03Z</time>
      </trkpt>
      <trkpt lat="44.89268" lon="-0.42113">
        <ele>19</ele>
        <time>2020-09-10T10:41:05Z</time>
      </trkpt>
      <trkpt lat="44.89268" lon="-0.42114">
        <ele>19</ele>
        <time>2020-09-10T10:41:06Z</time>
      </trkpt>
      <trkpt lat="44.89269" lon="-0.42114">
        <ele>18.9</ele>
        <time>2020-09-10T10:41:07Z</time>
      </trkpt>
      <trkpt lat="44.8927" lon="-0.42116">
        <ele>18.8</ele>
        <time>2020-09-10T10:41:09Z</time>
      </trkpt>
      <trkpt lat="44.89271" lon="-0.42117">
        <ele>18.8</ele>
        <time>2020-09-10T10:41:10Z</time>
      </trkpt>
      <trkpt lat="44.89272" lon="-0.42117">
        <ele>18.7</ele>
        <time>2020-09-10T10:41:11Z</time>
      </trkpt>
      <trkpt lat="44.89273" lon="-0.42118">
        <ele>18.7</ele>
        <time>2020-09-10T10:41:12Z</time>
      </trkpt>
      <trkpt lat="44.89274" lon="-0.42119">
        <ele>18.6</ele>
        <time>2020-09-10T10:41:13Z</time>
      </trkpt>
      <trkpt lat="44.89275" lon="-0.4212">
        <ele>18.6</ele>
        <time>2020-09-10T10:41:14Z</time>
      </trkpt>
      <trkpt lat="44.89276" lon="-0.4212">
        <ele>18.6</ele>
        <time>2020-09-10T10:41:15Z</time>
      </trkpt>
      <trkpt lat="44.89277" lon="-0.42121">
        <ele>18.5</ele>
        <time>2020-09-10T10:41:16Z</time>
      </trkpt>
      <trkpt lat="44.89278" lon="-0.42123">
        <ele>18.4</ele>
        <time>2020-09-10T10:41:18Z</time>
      </trkpt>
      <trkpt lat="44.89279" lon="-0.42125">
        <ele>18.3</ele>
        <time>2020-09-10T10:41:20Z</time>
      </trkpt>
      <trkpt lat="44.8928" lon="-0.42126">
        <ele>18.3</ele>
        <time>2020-09-10T10:41:21Z</time>
      </trkpt>
      <trkpt lat="44.89282" lon="-0.42127">
        <ele>18.2</ele>
        <time>2020-09-10T10:41:22Z</time>
      </trkpt>
      <trkpt lat="44.89283" lon="-0.42129">
        <ele>18.2</ele>
        <time>2020-09-10T10:41:23Z</time>
      </trkpt>
      <trkpt lat="44.89284" lon="-0.4213">
        <ele>18.1</ele>
        <time>2020-09-10T10:41:24Z</time>
      </trkpt>
      <trkpt lat="44.89288" lon="-0.42135">
        <ele>17.9</ele>
        <time>2020-09-10T10:41:26Z</time>
      </trkpt>
      <trkpt lat="44.8929" lon="-0.42138">
        <ele>17.9</ele>
        <time>2020-09-10T10:41:27Z</time>
      </trkpt>
      <trkpt lat="44.89292" lon="-0.42141">
        <ele>17.8</ele>
        <time>2020-09-10T10:41:28Z</time>
      </trkpt>
      <trkpt lat="44.89293" lon="-0.42142">
        <ele>17.8</ele>
        <time>2020-09-10T10:41:29Z</time>
      </trkpt>
      <trkpt lat="44.89295" lon="-0.42145">
        <ele>17.7</ele>
        <time>2020-09-10T10:41:31Z</time>
      </trkpt>
      <trkpt lat="44.89296" lon="-0.42147">
        <ele>17.7</ele>
        <time>2020-09-10T10:41:32Z</time>
      </trkpt>
      <trkpt lat="44.89296" lon="-0.42148">
        <ele>17.7</ele>
        <time>2020-09-10T10:41:34Z</time>
      </trkpt>
      <trkpt lat="44.89295" lon="-0.42149">
        <ele>17.6</ele>
        <time>2020-09-10T10:41:36Z</time>
      </trkpt>
      <trkpt lat="44.89295" lon="-0.42149">
        <ele>17.6</ele>
        <time>2020-09-10T10:41:37Z</time>
      </trkpt>
      <trkpt lat="44.89295" lon="-0.4215">
        <ele>17.6</ele>
        <time>2020-09-10T10:41:38Z</time>
      </trkpt>
      <trkpt lat="44.89296" lon="-0.42152">
        <ele>17.6</ele>
        <time>2020-09-10T10:41:39Z</time>
      </trkpt>
      <trkpt lat="44.89298" lon="-0.42153">
        <ele>17.6</ele>
        <time>2020-09-10T10:41:41Z</time>
      </trkpt>
      <trkpt lat="44.89298" lon="-0.42154">
        <ele>17.6</ele>
        <time>2020-09-10T10:41:42Z</time>
      </trkpt>
      <trkpt lat="44.89299" lon="-0.42155">
        <ele>17.6</ele>
        <time>2020-09-10T10:41:43Z</time>
      </trkpt>
      <trkpt lat="44.893" lon="-0.42156">
        <ele>17.6</ele>
        <time>2020-09-10T10:41:44Z</time>
      </trkpt>
      <trkpt lat="44.89301" lon="-0.42157">
        <ele>17.5</ele>
        <time>2020-09-10T10:41:45Z</time>
      </trkpt>
      <trkpt lat="44.89301" lon="-0.42158">
        <ele>17.5</ele>
        <time>2020-09-10T10:41:46Z</time>
      </trkpt>
      <trkpt lat="44.89302" lon="-0.42159">
        <ele>17.5</ele>
        <time>2020-09-10T10:41:47Z</time>
      </trkpt>
      <trkpt lat="44.89303" lon="-0.42162">
        <ele>17.5</ele>
        <time>2020-09-10T10:41:48Z</time>
      </trkpt>
      <trkpt lat="44.89304" lon="-0.42163">
        <ele>17.5</ele>
        <time>2020-09-10T10:41:49Z</time>
      </trkpt>
      <trkpt lat="44.89304" lon="-0.42164">
        <ele>17.5</ele>
        <time>2020-09-10T10:41:51Z</time>
      </trkpt>
      <trkpt lat="44.89305" lon="-0.42165">
        <ele>17.5</ele>
        <time>2020-09-10T10:41:52Z</time>
      </trkpt>
      <trkpt lat="44.89305" lon="-0.42166">
        <ele>17.5</ele>
        <time>2020-09-10T10:41:53Z</time>
      </trkpt>
      <trkpt lat="44.89306" lon="-0.42167">
        <ele>17.5</ele>
        <time>2020-09-10T10:41:55Z</time>
      </trkpt>
      <trkpt lat="44.89306" lon="-0.42169">
        <ele>17.5</ele>
        <time>2020-09-10T10:41:56Z</time>
      </trkpt>
      <trkpt lat="44.89307" lon="-0.4217">
        <ele>17.5</ele>
        <time>2020-09-10T10:41:58Z</time>
      </trkpt>
      <trkpt lat="44.89307" lon="-0.42171">
        <ele>17.5</ele>
        <time>2020-09-10T10:42:00Z</time>
      </trkpt>
      <trkpt lat="44.89308" lon="-0.42172">
        <ele>17.5</ele>
        <time>2020-09-10T10:42:01Z</time>
      </trkpt>
      <trkpt lat="44.89308" lon="-0.42173">
        <ele>17.5</ele>
        <time>2020-09-10T10:42:02Z</time>
      </trkpt>
      <trkpt lat="44.89309" lon="-0.42174">
        <ele>17.5</ele>
        <time>2020-09-10T10:42:03Z</time>
      </trkpt>
      <trkpt lat="44.89309" lon="-0.42176">
        <ele>17.5</ele>
        <time>2020-09-10T10:42:04Z</time>
      </trkpt>
      <trkpt lat="44.8931" lon="-0.42177">
        <ele>17.5</ele>
        <time>2020-09-10T10:42:06Z</time>
      </trkpt>
      <trkpt lat="44.89311" lon="-0.42178">
        <ele>17.5</ele>
        <time>2020-09-10T10:42:07Z</time>
      </trkpt>
      <trkpt lat="44.89312" lon="-0.42179">
        <ele>17.5</ele>
        <time>2020-09-10T10:42:08Z</time>
      </trkpt>
      <trkpt lat="44.89312" lon="-0.4218">
        <ele>17.6</ele>
        <time>2020-09-10T10:42:09Z</time>
      </trkpt>
      <trkpt lat="44.89313" lon="-0.42182">
        <ele>17.6</ele>
        <time>2020-09-10T10:42:11Z</time>
      </trkpt>
      <trkpt lat="44.89314" lon="-0.42184">
        <ele>17.6</ele>
        <time>2020-09-10T10:42:13Z</time>
      </trkpt>
      <trkpt lat="44.89315" lon="-0.42186">
        <ele>17.6</ele>
        <time>2020-09-10T10:42:14Z</time>
      </trkpt>
      <trkpt lat="44.89316" lon="-0.42188">
        <ele>17.6</ele>
        <time>2020-09-10T10:42:16Z</time>
      </trkpt>
      <trkpt lat="44.89316" lon="-0.42188">
        <ele>17.6</ele>
        <time>2020-09-10T10:42:17Z</time>
      </trkpt>
      <trkpt lat="44.89317" lon="-0.42189">
        <ele>17.7</ele>
        <time>2020-09-10T10:42:18Z</time>
      </trkpt>
      <trkpt lat="44.89318" lon="-0.42189">
        <ele>17.7</ele>
        <time>2020-09-10T10:42:20Z</time>
      </trkpt>
      <trkpt lat="44.89319" lon="-0.42189">
        <ele>17.7</ele>
        <time>2020-09-10T10:42:21Z</time>
      </trkpt>
      <trkpt lat="44.89321" lon="-0.4219">
        <ele>17.7</ele>
        <time>2020-09-10T10:42:22Z</time>
      </trkpt>
      <trkpt lat="44.89322" lon="-0.4219">
        <ele>17.7</ele>
        <time>2020-09-10T10:42:23Z</time>
      </trkpt>
      <trkpt lat="44.89323" lon="-0.42191">
        <ele>17.8</ele>
        <time>2020-09-10T10:42:25Z</time>
      </trkpt>
      <trkpt lat="44.89323" lon="-0.42191">
        <ele>17.8</ele>
        <time>2020-09-10T10:42:27Z</time>
      </trkpt>
      <trkpt lat="44.89323" lon="-0.42191">
        <ele>17.8</ele>
        <time>2020-09-10T10:42:28Z</time>
      </trkpt>
      <trkpt lat="44.89323" lon="-0.42191">
        <ele>17.8</ele>
        <time>2020-09-10T10:42:30Z</time>
      </trkpt>
      <trkpt lat="44.89323" lon="-0.42191">
        <ele>17.8</ele>
        <time>2020-09-10T10:42:31Z</time>
      </trkpt>
      <trkpt lat="44.89323" lon="-0.42191">
        <ele>17.8</ele>
        <time>2020-09-10T10:42:33Z</time>
      </trkpt>
      <trkpt lat="44.89323" lon="-0.42191">
        <ele>17.8</ele>
        <time>2020-09-10T10:42:34Z</time>
      </trkpt>
      <trkpt lat="44.89323" lon="-0.42191">
        <ele>17.8</ele>
        <time>2020-09-10T10:42:36Z</time>
      </trkpt>
      <trkpt lat="44.89323" lon="-0.42191">
        <ele>17.8</ele>
        <time>2020-09-10T10:42:38Z</time>
      </trkpt>
      <trkpt lat="44.89323" lon="-0.42191">
        <ele>17.8</ele>
        <time>2020-09-10T10:42:39Z</time>
      </trkpt>
      <trkpt lat="44.89319" lon="-0.42191">
        <ele>17.9</ele>
        <time>2020-09-10T10:42:41Z</time>
      </trkpt>
      <trkpt lat="44.89318" lon="-0.42191">
        <ele>18</ele>
        <time>2020-09-10T10:42:42Z</time>
      </trkpt>
      <trkpt lat="44.89318" lon="-0.42191">
        <ele>18</ele>
        <time>2020-09-10T10:42:43Z</time>
      </trkpt>
      <trkpt lat="44.89317" lon="-0.42191">
        <ele>18</ele>
        <time>2020-09-10T10:42:45Z</time>
      </trkpt>
      <trkpt lat="44.89317" lon="-0.42191">
        <ele>18</ele>
        <time>2020-09-10T10:42:46Z</time>
      </trkpt>
      <trkpt lat="44.89317" lon="-0.42191">
        <ele>18</ele>
        <time>2020-09-10T10:42:48Z</time>
      </trkpt>
      <trkpt lat="44.89317" lon="-0.42191">
        <ele>18</ele>
        <time>2020-09-10T10:42:49Z</time>
      </trkpt>
      <trkpt lat="44.89317" lon="-0.42191">
        <ele>18</ele>
        <time>2020-09-10T10:42:50Z</time>
      </trkpt>
      <trkpt lat="44.89317" lon="-0.42191">
        <ele>18</ele>
        <time>2020-09-10T10:42:52Z</time>
      </trkpt>
      <trkpt lat="44.89317" lon="-0.42191">
        <ele>18</ele>
        <time>2020-09-10T10:42:53Z</time>
      </trkpt>
      <trkpt lat="44.89317" lon="-0.42191">
        <ele>18</ele>
        <time>2020-09-10T10:42:55Z</time>
      </trkpt>
      <trkpt lat="44.89317" lon="-0.42191">
        <ele>18</ele>
        <time>2020-09-10T10:42:57Z</time>
      </trkpt>
      <trkpt lat="44.89317" lon="-0.42191">
        <ele>18</ele>
        <time>2020-09-10T10:42:59Z</time>
      </trkpt>
      <trkpt lat="44.89317" lon="-0.42191">
        <ele>18</ele>
        <time>2020-09-10T10:43:00Z</time>
      </trkpt>
      <trkpt lat="44.89317" lon="-0.42191">
        <ele>18</ele>
        <time>2020-09-10T10:43:01Z</time>
      </trkpt>
      <trkpt lat="44.89317" lon="-0.42192">
        <ele>18</ele>
        <time>2020-09-10T10:43:03Z</time>
      </trkpt>
      <trkpt lat="44.89317" lon="-0.42192">
        <ele>18</ele>
        <time>2020-09-10T10:43:04Z</time>
      </trkpt>
      <trkpt lat="44.89316" lon="-0.42192">
        <ele>18</ele>
        <time>2020-09-10T10:43:06Z</time>
      </trkpt>
      <trkpt lat="44.89316" lon="-0.42193">
        <ele>18.1</ele>
        <time>2020-09-10T10:43:07Z</time>
      </trkpt>
      <trkpt lat="44.89315" lon="-0.42193">
        <ele>18.1</ele>
        <time>2020-09-10T10:43:08Z</time>
      </trkpt>
      <trkpt lat="44.89314" lon="-0.42194">
        <ele>18.2</ele>
        <time>2020-09-10T10:43:10Z</time>
      </trkpt>
      <trkpt lat="44.89313" lon="-0.42195">
        <ele>18.2</ele>
        <time>2020-09-10T10:43:11Z</time>
      </trkpt>
      <trkpt lat="44.89313" lon="-0.42195">
        <ele>18.2</ele>
        <time>2020-09-10T10:43:12Z</time>
      </trkpt>
      <trkpt lat="44.89312" lon="-0.42197">
        <ele>18.3</ele>
        <time>2020-09-10T10:43:13Z</time>
      </trkpt>
      <trkpt lat="44.89312" lon="-0.42198">
        <ele>18.4</ele>
        <time>2020-09-10T10:43:14Z</time>
      </trkpt>
      <trkpt lat="44.89311" lon="-0.422">
        <ele>18.4</ele>
        <time>2020-09-10T10:43:16Z</time>
      </trkpt>
      <trkpt lat="44.8931" lon="-0.42201">
        <ele>18.5</ele>
        <time>2020-09-10T10:43:17Z</time>
      </trkpt>
      <trkpt lat="44.8931" lon="-0.42202">
        <ele>18.5</ele>
        <time>2020-09-10T10:43:18Z</time>
      </trkpt>
      <trkpt lat="44.89309" lon="-0.42203">
        <ele>18.5</ele>
        <time>2020-09-10T10:43:19Z</time>
      </trkpt>
      <trkpt lat="44.89309" lon="-0.42204">
        <ele>18.5</ele>
        <time>2020-09-10T10:43:20Z</time>
      </trkpt>
      <trkpt lat="44.89308" lon="-0.42206">
        <ele>18.5</ele>
        <time>2020-09-10T10:43:22Z</time>
      </trkpt>
      <trkpt lat="44.89307" lon="-0.42207">
        <ele>18.5</ele>
        <time>2020-09-10T10:43:23Z</time>
      </trkpt>
      <trkpt lat="44.89306" lon="-0.42208">
        <ele>18.6</ele>
        <time>2020-09-10T10:43:25Z</time>
      </trkpt>
      <trkpt lat="44.89305" lon="-0.4221">
        <ele>18.6</ele>
        <time>2020-09-10T10:43:26Z</time>
      </trkpt>
      <trkpt lat="44.89304" lon="-0.42211">
        <ele>18.6</ele>
        <time>2020-09-10T10:43:27Z</time>
      </trkpt>
      <trkpt lat="44.89303" lon="-0.42212">
        <ele>18.6</ele>
        <time>2020-09-10T10:43:28Z</time>
      </trkpt>
      <trkpt lat="44.89302" lon="-0.42213">
        <ele>18.7</ele>
        <time>2020-09-10T10:43:29Z</time>
      </trkpt>
      <trkpt lat="44.89302" lon="-0.42214">
        <ele>18.7</ele>
        <time>2020-09-10T10:43:30Z</time>
      </trkpt>
      <trkpt lat="44.89301" lon="-0.42214">
        <ele>18.7</ele>
        <time>2020-09-10T10:43:31Z</time>
      </trkpt>
      <trkpt lat="44.89301" lon="-0.42215">
        <ele>18.7</ele>
        <time>2020-09-10T10:43:32Z</time>
      </trkpt>
      <trkpt lat="44.893" lon="-0.42215">
        <ele>18.7</ele>
        <time>2020-09-10T10:43:33Z</time>
      </trkpt>
      <trkpt lat="44.89299" lon="-0.42217">
        <ele>18.7</ele>
        <time>2020-09-10T10:43:35Z</time>
      </trkpt>
      <trkpt lat="44.89297" lon="-0.42218">
        <ele>18.8</ele>
        <time>2020-09-10T10:43:36Z</time>
      </trkpt>
      <trkpt lat="44.89297" lon="-0.42219">
        <ele>18.8</ele>
        <time>2020-09-10T10:43:37Z</time>
      </trkpt>
      <trkpt lat="44.89296" lon="-0.42219">
        <ele>18.8</ele>
        <time>2020-09-10T10:43:38Z</time>
      </trkpt>
      <trkpt lat="44.89294" lon="-0.42221">
        <ele>18.9</ele>
        <time>2020-09-10T10:43:39Z</time>
      </trkpt>
      <trkpt lat="44.89293" lon="-0.42222">
        <ele>18.9</ele>
        <time>2020-09-10T10:43:40Z</time>
      </trkpt>
      <trkpt lat="44.8929" lon="-0.42223">
        <ele>19</ele>
        <time>2020-09-10T10:43:41Z</time>
      </trkpt>
      <trkpt lat="44.89289" lon="-0.42224">
        <ele>19</ele>
        <time>2020-09-10T10:43:42Z</time>
      </trkpt>
      <trkpt lat="44.89288" lon="-0.42225">
        <ele>19</ele>
        <time>2020-09-10T10:43:43Z</time>
      </trkpt>
      <trkpt lat="44.89287" lon="-0.42225">
        <ele>19</ele>
        <time>2020-09-10T10:43:44Z</time>
      </trkpt>
      <trkpt lat="44.89285" lon="-0.42226">
        <ele>19.1</ele>
        <time>2020-09-10T10:43:46Z</time>
      </trkpt>
      <trkpt lat="44.89284" lon="-0.42227">
        <ele>19.1</ele>
        <time>2020-09-10T10:43:48Z</time>
      </trkpt>
      <trkpt lat="44.89283" lon="-0.42228">
        <ele>19.2</ele>
        <time>2020-09-10T10:43:49Z</time>
      </trkpt>
      <trkpt lat="44.89282" lon="-0.42229">
        <ele>19.2</ele>
        <time>2020-09-10T10:43:50Z</time>
      </trkpt>
      <trkpt lat="44.89281" lon="-0.4223">
        <ele>19.2</ele>
        <time>2020-09-10T10:43:52Z</time>
      </trkpt>
      <trkpt lat="44.89279" lon="-0.42232">
        <ele>19.2</ele>
        <time>2020-09-10T10:43:53Z</time>
      </trkpt>
      <trkpt lat="44.89278" lon="-0.42233">
        <ele>19.3</ele>
        <time>2020-09-10T10:43:54Z</time>
      </trkpt>
      <trkpt lat="44.89277" lon="-0.42234">
        <ele>19.3</ele>
        <time>2020-09-10T10:43:56Z</time>
      </trkpt>
      <trkpt lat="44.89275" lon="-0.42235">
        <ele>19.3</ele>
        <time>2020-09-10T10:43:57Z</time>
      </trkpt>
      <trkpt lat="44.89274" lon="-0.42235">
        <ele>19.3</ele>
        <time>2020-09-10T10:43:58Z</time>
      </trkpt>
      <trkpt lat="44.89274" lon="-0.42235">
        <ele>19.3</ele>
        <time>2020-09-10T10:43:59Z</time>
      </trkpt>
      <trkpt lat="44.89272" lon="-0.42235">
        <ele>19.3</ele>
        <time>2020-09-10T10:44:01Z</time>
      </trkpt>
      <trkpt lat="44.89271" lon="-0.42235">
        <ele>19.4</ele>
        <time>2020-09-10T10:44:02Z</time>
      </trkpt>
      <trkpt lat="44.8927" lon="-0.42235">
        <ele>19.4</ele>
        <time>2020-09-10T10:44:03Z</time>
      </trkpt>
      <trkpt lat="44.8927" lon="-0.42236">
        <ele>19.3</ele>
        <time>2020-09-10T10:44:04Z</time>
      </trkpt>
      <trkpt lat="44.89269" lon="-0.42238">
        <ele>19.4</ele>
        <time>2020-09-10T10:44:06Z</time>
      </trkpt>
      <trkpt lat="44.89268" lon="-0.42239">
        <ele>19.4</ele>
        <time>2020-09-10T10:44:07Z</time>
      </trkpt>
      <trkpt lat="44.89268" lon="-0.4224">
        <ele>19.4</ele>
        <time>2020-09-10T10:44:08Z</time>
      </trkpt>
      <trkpt lat="44.89267" lon="-0.42242">
        <ele>19.5</ele>
        <time>2020-09-10T10:44:09Z</time>
      </trkpt>
      <trkpt lat="44.89267" lon="-0.42244">
        <ele>19.4</ele>
        <time>2020-09-10T10:44:11Z</time>
      </trkpt>
      <trkpt lat="44.89266" lon="-0.42246">
        <ele>19.4</ele>
        <time>2020-09-10T10:44:12Z</time>
      </trkpt>
      <trkpt lat="44.89265" lon="-0.42247">
        <ele>19.5</ele>
        <time>2020-09-10T10:44:13Z</time>
      </trkpt>
      <trkpt lat="44.89265" lon="-0.42248">
        <ele>19.5</ele>
        <time>2020-09-10T10:44:14Z</time>
      </trkpt>
      <trkpt lat="44.89264" lon="-0.42251">
        <ele>19.6</ele>
        <time>2020-09-10T10:44:16Z</time>
      </trkpt>
      <trkpt lat="44.89264" lon="-0.42252">
        <ele>19.6</ele>
        <time>2020-09-10T10:44:17Z</time>
      </trkpt>
      <trkpt lat="44.89264" lon="-0.42254">
        <ele>19.6</ele>
        <time>2020-09-10T10:44:18Z</time>
      </trkpt>
      <trkpt lat="44.89264" lon="-0.42255">
        <ele>19.7</ele>
        <time>2020-09-10T10:44:19Z</time>
      </trkpt>
      <trkpt lat="44.89263" lon="-0.42257">
        <ele>19.6</ele>
        <time>2020-09-10T10:44:21Z</time>
      </trkpt>
      <trkpt lat="44.89263" lon="-0.42256">
        <ele>19.6</ele>
        <time>2020-09-10T10:44:23Z</time>
      </trkpt>
      <trkpt lat="44.89263" lon="-0.42255">
        <ele>19.6</ele>
        <time>2020-09-10T10:44:25Z</time>
      </trkpt>
      <trkpt lat="44.89264" lon="-0.42254">
        <ele>19.6</ele>
        <time>2020-09-10T10:44:26Z</time>
      </trkpt>
      <trkpt lat="44.89264" lon="-0.42255">
        <ele>19.7</ele>
        <time>2020-09-10T10:44:27Z</time>
      </trkpt>
      <trkpt lat="44.89264" lon="-0.42256">
        <ele>19.7</ele>
        <time>2020-09-10T10:44:29Z</time>
      </trkpt>
      <trkpt lat="44.89264" lon="-0.42258">
        <ele>19.7</ele>
        <time>2020-09-10T10:44:30Z</time>
      </trkpt>
      <trkpt lat="44.89263" lon="-0.42259">
        <ele>19.7</ele>
        <time>2020-09-10T10:44:31Z</time>
      </trkpt>
      <trkpt lat="44.89263" lon="-0.42261">
        <ele>19.7</ele>
        <time>2020-09-10T10:44:33Z</time>
      </trkpt>
      <trkpt lat="44.89263" lon="-0.42262">
        <ele>19.7</ele>
        <time>2020-09-10T10:44:34Z</time>
      </trkpt>
      <trkpt lat="44.89263" lon="-0.42263">
        <ele>19.7</ele>
        <time>2020-09-10T10:44:35Z</time>
      </trkpt>
      <trkpt lat="44.89263" lon="-0.42263">
        <ele>19.7</ele>
        <time>2020-09-10T10:44:36Z</time>
      </trkpt>
      <trkpt lat="44.89263" lon="-0.42264">
        <ele>19.7</ele>
        <time>2020-09-10T10:44:38Z</time>
      </trkpt>
      <trkpt lat="44.89263" lon="-0.42266">
        <ele>19.7</ele>
        <time>2020-09-10T10:44:39Z</time>
      </trkpt>
      <trkpt lat="44.89263" lon="-0.42268">
        <ele>19.8</ele>
        <time>2020-09-10T10:44:40Z</time>
      </trkpt>
      <trkpt lat="44.89264" lon="-0.42269">
        <ele>19.8</ele>
        <time>2020-09-10T10:44:41Z</time>
      </trkpt>
      <trkpt lat="44.89264" lon="-0.42271">
        <ele>19.8</ele>
        <time>2020-09-10T10:44:42Z</time>
      </trkpt>
      <trkpt lat="44.89265" lon="-0.42273">
        <ele>19.9</ele>
        <time>2020-09-10T10:44:44Z</time>
      </trkpt>
      <trkpt lat="44.89266" lon="-0.42275">
        <ele>19.9</ele>
        <time>2020-09-10T10:44:45Z</time>
      </trkpt>
      <trkpt lat="44.89267" lon="-0.42276">
        <ele>19.9</ele>
        <time>2020-09-10T10:44:47Z</time>
      </trkpt>
      <trkpt lat="44.89269" lon="-0.42277">
        <ele>20</ele>
        <time>2020-09-10T10:44:48Z</time>
      </trkpt>
      <trkpt lat="44.89271" lon="-0.42278">
        <ele>20</ele>
        <time>2020-09-10T10:44:49Z</time>
      </trkpt>
      <trkpt lat="44.89271" lon="-0.42279">
        <ele>20</ele>
        <time>2020-09-10T10:44:50Z</time>
      </trkpt>
      <trkpt lat="44.89272" lon="-0.4228">
        <ele>20</ele>
        <time>2020-09-10T10:44:51Z</time>
      </trkpt>
      <trkpt lat="44.89273" lon="-0.42281">
        <ele>20.1</ele>
        <time>2020-09-10T10:44:53Z</time>
      </trkpt>
      <trkpt lat="44.89274" lon="-0.42283">
        <ele>20.1</ele>
        <time>2020-09-10T10:44:54Z</time>
      </trkpt>
      <trkpt lat="44.89274" lon="-0.42285">
        <ele>20.1</ele>
        <time>2020-09-10T10:44:56Z</time>
      </trkpt>
      <trkpt lat="44.89274" lon="-0.42286">
        <ele>20.1</ele>
        <time>2020-09-10T10:44:57Z</time>
      </trkpt>
      <trkpt lat="44.89274" lon="-0.42287">
        <ele>20.1</ele>
        <time>2020-09-10T10:44:58Z</time>
      </trkpt>
      <trkpt lat="44.89275" lon="-0.4229">
        <ele>20.2</ele>
        <time>2020-09-10T10:44:59Z</time>
      </trkpt>
      <trkpt lat="44.89276" lon="-0.42291">
        <ele>20.2</ele>
        <time>2020-09-10T10:45:01Z</time>
      </trkpt>
      <trkpt lat="44.89276" lon="-0.42292">
        <ele>20.2</ele>
        <time>2020-09-10T10:45:02Z</time>
      </trkpt>
      <trkpt lat="44.89277" lon="-0.42294">
        <ele>20.2</ele>
        <time>2020-09-10T10:45:03Z</time>
      </trkpt>
      <trkpt lat="44.89278" lon="-0.42296">
        <ele>20.2</ele>
        <time>2020-09-10T10:45:05Z</time>
      </trkpt>
      <trkpt lat="44.8928" lon="-0.42298">
        <ele>20.3</ele>
        <time>2020-09-10T10:45:06Z</time>
      </trkpt>
      <trkpt lat="44.89281" lon="-0.42299">
        <ele>20.3</ele>
        <time>2020-09-10T10:45:08Z</time>
      </trkpt>
      <trkpt lat="44.89283" lon="-0.42301">
        <ele>20.3</ele>
        <time>2020-09-10T10:45:09Z</time>
      </trkpt>
      <trkpt lat="44.89283" lon="-0.42302">
        <ele>20.3</ele>
        <time>2020-09-10T10:45:10Z</time>
      </trkpt>
      <trkpt lat="44.89284" lon="-0.42303">
        <ele>20.3</ele>
        <time>2020-09-10T10:45:11Z</time>
      </trkpt>
      <trkpt lat="44.89284" lon="-0.42305">
        <ele>20.3</ele>
        <time>2020-09-10T10:45:12Z</time>
      </trkpt>
      <trkpt lat="44.89284" lon="-0.42308">
        <ele>20.3</ele>
        <time>2020-09-10T10:45:14Z</time>
      </trkpt>
      <trkpt lat="44.89285" lon="-0.42309">
        <ele>20.3</ele>
        <time>2020-09-10T10:45:15Z</time>
      </trkpt>
      <trkpt lat="44.89285" lon="-0.4231">
        <ele>20.3</ele>
        <time>2020-09-10T10:45:16Z</time>
      </trkpt>
      <trkpt lat="44.89285" lon="-0.42311">
        <ele>20.3</ele>
        <time>2020-09-10T10:45:18Z</time>
      </trkpt>
      <trkpt lat="44.89285" lon="-0.42313">
        <ele>20.3</ele>
        <time>2020-09-10T10:45:19Z</time>
      </trkpt>
      <trkpt lat="44.89286" lon="-0.42314">
        <ele>20.3</ele>
        <time>2020-09-10T10:45:20Z</time>
      </trkpt>
      <trkpt lat="44.89286" lon="-0.42316">
        <ele>20.3</ele>
        <time>2020-09-10T10:45:22Z</time>
      </trkpt>
      <trkpt lat="44.89286" lon="-0.42318">
        <ele>20.3</ele>
        <time>2020-09-10T10:45:23Z</time>
      </trkpt>
      <trkpt lat="44.89286" lon="-0.4232">
        <ele>20.2</ele>
        <time>2020-09-10T10:45:24Z</time>
      </trkpt>
      <trkpt lat="44.89287" lon="-0.42323">
        <ele>20.2</ele>
        <time>2020-09-10T10:45:26Z</time>
      </trkpt>
      <trkpt lat="44.89288" lon="-0.42324">
        <ele>20.2</ele>
        <time>2020-09-10T10:45:27Z</time>
      </trkpt>
      <trkpt lat="44.89288" lon="-0.42325">
        <ele>20.2</ele>
        <time>2020-09-10T10:45:28Z</time>
      </trkpt>
      <trkpt lat="44.89289" lon="-0.42326">
        <ele>20.2</ele>
        <time>2020-09-10T10:45:29Z</time>
      </trkpt>
      <trkpt lat="44.8929" lon="-0.42328">
        <ele>20.1</ele>
        <time>2020-09-10T10:45:30Z</time>
      </trkpt>
      <trkpt lat="44.89291" lon="-0.4233">
        <ele>20.1</ele>
        <time>2020-09-10T10:45:32Z</time>
      </trkpt>
      <trkpt lat="44.89292" lon="-0.42331">
        <ele>20.1</ele>
        <time>2020-09-10T10:45:33Z</time>
      </trkpt>
      <trkpt lat="44.89293" lon="-0.42334">
        <ele>20</ele>
        <time>2020-09-10T10:45:34Z</time>
      </trkpt>
      <trkpt lat="44.89294" lon="-0.42335">
        <ele>20</ele>
        <time>2020-09-10T10:45:36Z</time>
      </trkpt>
      <trkpt lat="44.89295" lon="-0.42337">
        <ele>19.9</ele>
        <time>2020-09-10T10:45:37Z</time>
      </trkpt>
      <trkpt lat="44.89296" lon="-0.42338">
        <ele>19.9</ele>
        <time>2020-09-10T10:45:38Z</time>
      </trkpt>
      <trkpt lat="44.89297" lon="-0.42339">
        <ele>19.9</ele>
        <time>2020-09-10T10:45:40Z</time>
      </trkpt>
      <trkpt lat="44.89298" lon="-0.4234">
        <ele>19.9</ele>
        <time>2020-09-10T10:45:41Z</time>
      </trkpt>
      <trkpt lat="44.893" lon="-0.4234">
        <ele>19.9</ele>
        <time>2020-09-10T10:45:42Z</time>
      </trkpt>
      <trkpt lat="44.89302" lon="-0.4234">
        <ele>19.9</ele>
        <time>2020-09-10T10:45:43Z</time>
      </trkpt>
      <trkpt lat="44.89304" lon="-0.4234">
        <ele>19.7</ele>
        <time>2020-09-10T10:45:45Z</time>
      </trkpt>
      <trkpt lat="44.89307" lon="-0.4234">
        <ele>19.8</ele>
        <time>2020-09-10T10:45:47Z</time>
      </trkpt>
      <trkpt lat="44.89308" lon="-0.4234">
        <ele>19.8</ele>
        <time>2020-09-10T10:45:49Z</time>
      </trkpt>
      <trkpt lat="44.8931" lon="-0.4234">
        <ele>19.7</ele>
        <time>2020-09-10T10:45:50Z</time>
      </trkpt>
      <trkpt lat="44.89311" lon="-0.42339">
        <ele>19.7</ele>
        <time>2020-09-10T10:45:51Z</time>
      </trkpt>
      <trkpt lat="44.89313" lon="-0.42339">
        <ele>19.7</ele>
        <time>2020-09-10T10:45:52Z</time>
      </trkpt>
      <trkpt lat="44.89314" lon="-0.42339">
        <ele>19.7</ele>
        <time>2020-09-10T10:45:53Z</time>
      </trkpt>
      <trkpt lat="44.89315" lon="-0.42339">
        <ele>19.7</ele>
        <time>2020-09-10T10:45:54Z</time>
      </trkpt>
      <trkpt lat="44.89316" lon="-0.42339">
        <ele>19.6</ele>
        <time>2020-09-10T10:45:55Z</time>
      </trkpt>
      <trkpt lat="44.89317" lon="-0.42339">
        <ele>19.6</ele>
        <time>2020-09-10T10:45:56Z</time>
      </trkpt>
      <trkpt lat="44.89319" lon="-0.42339">
        <ele>19.6</ele>
        <time>2020-09-10T10:45:58Z</time>
      </trkpt>
      <trkpt lat="44.8932" lon="-0.42339">
        <ele>19.6</ele>
        <time>2020-09-10T10:45:59Z</time>
      </trkpt>
      <trkpt lat="44.89321" lon="-0.4234">
        <ele>19.6</ele>
        <time>2020-09-10T10:46:01Z</time>
      </trkpt>
      <trkpt lat="44.89322" lon="-0.42341">
        <ele>19.4</ele>
        <time>2020-09-10T10:46:02Z</time>
      </trkpt>
      <trkpt lat="44.89324" lon="-0.42342">
        <ele>19.4</ele>
        <time>2020-09-10T10:46:03Z</time>
      </trkpt>
      <trkpt lat="44.89325" lon="-0.42343">
        <ele>19.3</ele>
        <time>2020-09-10T10:46:05Z</time>
      </trkpt>
      <trkpt lat="44.89326" lon="-0.42344">
        <ele>19.3</ele>
        <time>2020-09-10T10:46:06Z</time>
      </trkpt>
      <trkpt lat="44.89327" lon="-0.42345">
        <ele>19.1</ele>
        <time>2020-09-10T10:46:07Z</time>
      </trkpt>
      <trkpt lat="44.89327" lon="-0.42347">
        <ele>19.1</ele>
        <time>2020-09-10T10:46:09Z</time>
      </trkpt>
      <trkpt lat="44.89328" lon="-0.4235">
        <ele>18.9</ele>
        <time>2020-09-10T10:46:10Z</time>
      </trkpt>
      <trkpt lat="44.89329" lon="-0.42352">
        <ele>18.9</ele>
        <time>2020-09-10T10:46:12Z</time>
      </trkpt>
      <trkpt lat="44.89329" lon="-0.42353">
        <ele>18.7</ele>
        <time>2020-09-10T10:46:13Z</time>
      </trkpt>
      <trkpt lat="44.89329" lon="-0.42355">
        <ele>18.7</ele>
        <time>2020-09-10T10:46:15Z</time>
      </trkpt>
      <trkpt lat="44.8933" lon="-0.42356">
        <ele>18.7</ele>
        <time>2020-09-10T10:46:16Z</time>
      </trkpt>
      <trkpt lat="44.8933" lon="-0.42358">
        <ele>18.5</ele>
        <time>2020-09-10T10:46:17Z</time>
      </trkpt>
      <trkpt lat="44.8933" lon="-0.42359">
        <ele>18.5</ele>
        <time>2020-09-10T10:46:18Z</time>
      </trkpt>
      <trkpt lat="44.8933" lon="-0.4236">
        <ele>18.5</ele>
        <time>2020-09-10T10:46:20Z</time>
      </trkpt>
      <trkpt lat="44.89331" lon="-0.42362">
        <ele>18.4</ele>
        <time>2020-09-10T10:46:21Z</time>
      </trkpt>
      <trkpt lat="44.89331" lon="-0.42365">
        <ele>18.3</ele>
        <time>2020-09-10T10:46:23Z</time>
      </trkpt>
      <trkpt lat="44.89331" lon="-0.42367">
        <ele>18.1</ele>
        <time>2020-09-10T10:46:24Z</time>
      </trkpt>
      <trkpt lat="44.89331" lon="-0.42369">
        <ele>18.1</ele>
        <time>2020-09-10T10:46:25Z</time>
      </trkpt>
      <trkpt lat="44.89332" lon="-0.42371">
        <ele>17.9</ele>
        <time>2020-09-10T10:46:26Z</time>
      </trkpt>
      <trkpt lat="44.89332" lon="-0.42374">
        <ele>17.9</ele>
        <time>2020-09-10T10:46:28Z</time>
      </trkpt>
      <trkpt lat="44.89333" lon="-0.42377">
        <ele>17.8</ele>
        <time>2020-09-10T10:46:29Z</time>
      </trkpt>
      <trkpt lat="44.89333" lon="-0.42379">
        <ele>17.8</ele>
        <time>2020-09-10T10:46:30Z</time>
      </trkpt>
      <trkpt lat="44.89335" lon="-0.42383">
        <ele>17.6</ele>
        <time>2020-09-10T10:46:32Z</time>
      </trkpt>
      <trkpt lat="44.89335" lon="-0.42384">
        <ele>17.5</ele>
        <time>2020-09-10T10:46:33Z</time>
      </trkpt>
      <trkpt lat="44.89336" lon="-0.42386">
        <ele>17.5</ele>
        <time>2020-09-10T10:46:34Z</time>
      </trkpt>
      <trkpt lat="44.89337" lon="-0.4239">
        <ele>17.3</ele>
        <time>2020-09-10T10:46:36Z</time>
      </trkpt>
      <trkpt lat="44.89339" lon="-0.42393">
        <ele>17.3</ele>
        <time>2020-09-10T10:46:37Z</time>
      </trkpt>
      <trkpt lat="44.89339" lon="-0.42394">
        <ele>17.3</ele>
        <time>2020-09-10T10:46:38Z</time>
      </trkpt>
      <trkpt lat="44.8934" lon="-0.42397">
        <ele>17.2</ele>
        <time>2020-09-10T10:46:39Z</time>
      </trkpt>
      <trkpt lat="44.8934" lon="-0.42398">
        <ele>17.2</ele>
        <time>2020-09-10T10:46:40Z</time>
      </trkpt>
      <trkpt lat="44.89341" lon="-0.42399">
        <ele>17.2</ele>
        <time>2020-09-10T10:46:41Z</time>
      </trkpt>
      <trkpt lat="44.89341" lon="-0.42401">
        <ele>17.2</ele>
        <time>2020-09-10T10:46:43Z</time>
      </trkpt>
      <trkpt lat="44.89342" lon="-0.42402">
        <ele>17.2</ele>
        <time>2020-09-10T10:46:44Z</time>
      </trkpt>
      <trkpt lat="44.89342" lon="-0.42403">
        <ele>17.2</ele>
        <time>2020-09-10T10:46:45Z</time>
      </trkpt>
      <trkpt lat="44.89342" lon="-0.42404">
        <ele>17.2</ele>
        <time>2020-09-10T10:46:46Z</time>
      </trkpt>
      <trkpt lat="44.89342" lon="-0.42405">
        <ele>17.2</ele>
        <time>2020-09-10T10:46:47Z</time>
      </trkpt>
      <trkpt lat="44.89342" lon="-0.42406">
        <ele>17.2</ele>
        <time>2020-09-10T10:46:48Z</time>
      </trkpt>
      <trkpt lat="44.89343" lon="-0.42409">
        <ele>17.1</ele>
        <time>2020-09-10T10:46:50Z</time>
      </trkpt>
      <trkpt lat="44.89343" lon="-0.4241">
        <ele>17.2</ele>
        <time>2020-09-10T10:46:51Z</time>
      </trkpt>
      <trkpt lat="44.89344" lon="-0.42411">
        <ele>17.2</ele>
        <time>2020-09-10T10:46:53Z</time>
      </trkpt>
      <trkpt lat="44.89344" lon="-0.42412">
        <ele>17.2</ele>
        <time>2020-09-10T10:46:54Z</time>
      </trkpt>
      <trkpt lat="44.89343" lon="-0.42413">
        <ele>17.2</ele>
        <time>2020-09-10T10:46:55Z</time>
      </trkpt>
      <trkpt lat="44.89342" lon="-0.42412">
        <ele>17.2</ele>
        <time>2020-09-10T10:46:57Z</time>
      </trkpt>
      <trkpt lat="44.89342" lon="-0.42412">
        <ele>17.2</ele>
        <time>2020-09-10T10:46:58Z</time>
      </trkpt>
      <trkpt lat="44.89342" lon="-0.42412">
        <ele>17.2</ele>
        <time>2020-09-10T10:46:59Z</time>
      </trkpt>
      <trkpt lat="44.89341" lon="-0.42411">
        <ele>17.2</ele>
        <time>2020-09-10T10:47:00Z</time>
      </trkpt>
      <trkpt lat="44.89341" lon="-0.42412">
        <ele>17.2</ele>
        <time>2020-09-10T10:47:01Z</time>
      </trkpt>
      <trkpt lat="44.8934" lon="-0.42414">
        <ele>17.3</ele>
        <time>2020-09-10T10:47:03Z</time>
      </trkpt>
      <trkpt lat="44.8934" lon="-0.42415">
        <ele>17.3</ele>
        <time>2020-09-10T10:47:04Z</time>
      </trkpt>
      <trkpt lat="44.8934" lon="-0.42416">
        <ele>17.3</ele>
        <time>2020-09-10T10:47:05Z</time>
      </trkpt>
      <trkpt lat="44.8934" lon="-0.42417">
        <ele>17.3</ele>
        <time>2020-09-10T10:47:06Z</time>
      </trkpt>
      <trkpt lat="44.8934" lon="-0.42418">
        <ele>17.4</ele>
        <time>2020-09-10T10:47:07Z</time>
      </trkpt>
      <trkpt lat="44.8934" lon="-0.42422">
        <ele>17.5</ele>
        <time>2020-09-10T10:47:09Z</time>
      </trkpt>
      <trkpt lat="44.8934" lon="-0.42423">
        <ele>17.5</ele>
        <time>2020-09-10T10:47:10Z</time>
      </trkpt>
      <trkpt lat="44.89341" lon="-0.42425">
        <ele>17.5</ele>
        <time>2020-09-10T10:47:12Z</time>
      </trkpt>
      <trkpt lat="44.89341" lon="-0.42427">
        <ele>17.6</ele>
        <time>2020-09-10T10:47:13Z</time>
      </trkpt>
      <trkpt lat="44.89342" lon="-0.42428">
        <ele>17.6</ele>
        <time>2020-09-10T10:47:14Z</time>
      </trkpt>
      <trkpt lat="44.89342" lon="-0.42429">
        <ele>17.6</ele>
        <time>2020-09-10T10:47:15Z</time>
      </trkpt>
      <trkpt lat="44.89343" lon="-0.4243">
        <ele>17.6</ele>
        <time>2020-09-10T10:47:16Z</time>
      </trkpt>
      <trkpt lat="44.89345" lon="-0.42431">
        <ele>17.7</ele>
        <time>2020-09-10T10:47:17Z</time>
      </trkpt>
      <trkpt lat="44.89348" lon="-0.42431">
        <ele>17.7</ele>
        <time>2020-09-10T10:47:18Z</time>
      </trkpt>
      <trkpt lat="44.89348" lon="-0.42431">
        <ele>17.7</ele>
        <time>2020-09-10T10:47:19Z</time>
      </trkpt>
      <trkpt lat="44.8935" lon="-0.42432">
        <ele>17.7</ele>
        <time>2020-09-10T10:47:20Z</time>
      </trkpt>
      <trkpt lat="44.89351" lon="-0.42433">
        <ele>17.7</ele>
        <time>2020-09-10T10:47:22Z</time>
      </trkpt>
      <trkpt lat="44.89352" lon="-0.42434">
        <ele>17.7</ele>
        <time>2020-09-10T10:47:23Z</time>
      </trkpt>
      <trkpt lat="44.89353" lon="-0.42436">
        <ele>17.8</ele>
        <time>2020-09-10T10:47:24Z</time>
      </trkpt>
      <trkpt lat="44.89355" lon="-0.42439">
        <ele>18</ele>
        <time>2020-09-10T10:47:25Z</time>
      </trkpt>
      <trkpt lat="44.89356" lon="-0.42441">
        <ele>18</ele>
        <time>2020-09-10T10:47:26Z</time>
      </trkpt>
      <trkpt lat="44.89358" lon="-0.42444">
        <ele>18.1</ele>
        <time>2020-09-10T10:47:27Z</time>
      </trkpt>
      <trkpt lat="44.89359" lon="-0.42445">
        <ele>18.1</ele>
        <time>2020-09-10T10:47:28Z</time>
      </trkpt>
      <trkpt lat="44.8936" lon="-0.42446">
        <ele>18.1</ele>
        <time>2020-09-10T10:47:29Z</time>
      </trkpt>
      <trkpt lat="44.89361" lon="-0.42448">
        <ele>18.3</ele>
        <time>2020-09-10T10:47:30Z</time>
      </trkpt>
      <trkpt lat="44.89363" lon="-0.42451">
        <ele>18.3</ele>
        <time>2020-09-10T10:47:31Z</time>
      </trkpt>
      <trkpt lat="44.89363" lon="-0.42452">
        <ele>18.5</ele>
        <time>2020-09-10T10:47:33Z</time>
      </trkpt>
      <trkpt lat="44.89364" lon="-0.42453">
        <ele>18.5</ele>
        <time>2020-09-10T10:47:34Z</time>
      </trkpt>
      <trkpt lat="44.89365" lon="-0.42454">
        <ele>18.5</ele>
        <time>2020-09-10T10:47:35Z</time>
      </trkpt>
      <trkpt lat="44.89365" lon="-0.42455">
        <ele>18.5</ele>
        <time>2020-09-10T10:47:36Z</time>
      </trkpt>
      <trkpt lat="44.89366" lon="-0.42457">
        <ele>18.7</ele>
        <time>2020-09-10T10:47:37Z</time>
      </trkpt>
      <trkpt lat="44.89367" lon="-0.42458">
        <ele>18.6</ele>
        <time>2020-09-10T10:47:38Z</time>
      </trkpt>
      <trkpt lat="44.89369" lon="-0.42461">
        <ele>18.8</ele>
        <time>2020-09-10T10:47:39Z</time>
      </trkpt>
      <trkpt lat="44.8937" lon="-0.42462">
        <ele>18.8</ele>
        <time>2020-09-10T10:47:40Z</time>
      </trkpt>
      <trkpt lat="44.89371" lon="-0.42464">
        <ele>18.8</ele>
        <time>2020-09-10T10:47:42Z</time>
      </trkpt>
      <trkpt lat="44.89372" lon="-0.42466">
        <ele>19</ele>
        <time>2020-09-10T10:47:43Z</time>
      </trkpt>
      <trkpt lat="44.89372" lon="-0.42467">
        <ele>19</ele>
        <time>2020-09-10T10:47:44Z</time>
      </trkpt>
      <trkpt lat="44.89373" lon="-0.42469">
        <ele>19</ele>
        <time>2020-09-10T10:47:45Z</time>
      </trkpt>
      <trkpt lat="44.89373" lon="-0.4247">
        <ele>19.1</ele>
        <time>2020-09-10T10:47:46Z</time>
      </trkpt>
      <trkpt lat="44.89374" lon="-0.42471">
        <ele>19.1</ele>
        <time>2020-09-10T10:47:47Z</time>
      </trkpt>
      <trkpt lat="44.89374" lon="-0.42472">
        <ele>19.1</ele>
        <time>2020-09-10T10:47:48Z</time>
      </trkpt>
      <trkpt lat="44.89375" lon="-0.42475">
        <ele>19.3</ele>
        <time>2020-09-10T10:47:50Z</time>
      </trkpt>
      <trkpt lat="44.89376" lon="-0.42476">
        <ele>19.3</ele>
        <time>2020-09-10T10:47:51Z</time>
      </trkpt>
      <trkpt lat="44.89377" lon="-0.4248">
        <ele>19.4</ele>
        <time>2020-09-10T10:47:53Z</time>
      </trkpt>
      <trkpt lat="44.89378" lon="-0.42481">
        <ele>19.4</ele>
        <time>2020-09-10T10:47:54Z</time>
      </trkpt>
      <trkpt lat="44.89378" lon="-0.42483">
        <ele>19.5</ele>
        <time>2020-09-10T10:47:55Z</time>
      </trkpt>
      <trkpt lat="44.89378" lon="-0.42484">
        <ele>19.5</ele>
        <time>2020-09-10T10:47:57Z</time>
      </trkpt>
      <trkpt lat="44.89379" lon="-0.42485">
        <ele>19.5</ele>
        <time>2020-09-10T10:47:58Z</time>
      </trkpt>
      <trkpt lat="44.89379" lon="-0.42488">
        <ele>19.6</ele>
        <time>2020-09-10T10:47:59Z</time>
      </trkpt>
      <trkpt lat="44.8938" lon="-0.42489">
        <ele>19.6</ele>
        <time>2020-09-10T10:48:00Z</time>
      </trkpt>
      <trkpt lat="44.89381" lon="-0.42492">
        <ele>19.7</ele>
        <time>2020-09-10T10:48:01Z</time>
      </trkpt>
      <trkpt lat="44.89381" lon="-0.42493">
        <ele>19.7</ele>
        <time>2020-09-10T10:48:02Z</time>
      </trkpt>
      <trkpt lat="44.89381" lon="-0.42494">
        <ele>19.7</ele>
        <time>2020-09-10T10:48:03Z</time>
      </trkpt>
      <trkpt lat="44.89382" lon="-0.42497">
        <ele>19.8</ele>
        <time>2020-09-10T10:48:04Z</time>
      </trkpt>
      <trkpt lat="44.89382" lon="-0.42498">
        <ele>19.8</ele>
        <time>2020-09-10T10:48:06Z</time>
      </trkpt>
      <trkpt lat="44.89382" lon="-0.42499">
        <ele>19.8</ele>
        <time>2020-09-10T10:48:07Z</time>
      </trkpt>
      <trkpt lat="44.89382" lon="-0.425">
        <ele>19.9</ele>
        <time>2020-09-10T10:48:08Z</time>
      </trkpt>
      <trkpt lat="44.89383" lon="-0.42503">
        <ele>19.9</ele>
        <time>2020-09-10T10:48:09Z</time>
      </trkpt>
      <trkpt lat="44.89384" lon="-0.42505">
        <ele>19.9</ele>
        <time>2020-09-10T10:48:10Z</time>
      </trkpt>
      <trkpt lat="44.89384" lon="-0.42507">
        <ele>19.9</ele>
        <time>2020-09-10T10:48:11Z</time>
      </trkpt>
      <trkpt lat="44.89385" lon="-0.42508">
        <ele>20</ele>
        <time>2020-09-10T10:48:12Z</time>
      </trkpt>
      <trkpt lat="44.89385" lon="-0.4251">
        <ele>20</ele>
        <time>2020-09-10T10:48:14Z</time>
      </trkpt>
      <trkpt lat="44.89386" lon="-0.42512">
        <ele>20</ele>
        <time>2020-09-10T10:48:15Z</time>
      </trkpt>
      <trkpt lat="44.89386" lon="-0.42514">
        <ele>20</ele>
        <time>2020-09-10T10:48:16Z</time>
      </trkpt>
      <trkpt lat="44.89386" lon="-0.42515">
        <ele>20</ele>
        <time>2020-09-10T10:48:17Z</time>
      </trkpt>
      <trkpt lat="44.89386" lon="-0.42517">
        <ele>20</ele>
        <time>2020-09-10T10:48:18Z</time>
      </trkpt>
      <trkpt lat="44.89386" lon="-0.42518">
        <ele>20</ele>
        <time>2020-09-10T10:48:19Z</time>
      </trkpt>
      <trkpt lat="44.89387" lon="-0.42521">
        <ele>20</ele>
        <time>2020-09-10T10:48:21Z</time>
      </trkpt>
      <trkpt lat="44.89387" lon="-0.42522">
        <ele>20</ele>
        <time>2020-09-10T10:48:22Z</time>
      </trkpt>
      <trkpt lat="44.89388" lon="-0.42525">
        <ele>20</ele>
        <time>2020-09-10T10:48:23Z</time>
      </trkpt>
      <trkpt lat="44.89389" lon="-0.42527">
        <ele>20</ele>
        <time>2020-09-10T10:48:24Z</time>
      </trkpt>
      <trkpt lat="44.89389" lon="-0.42529">
        <ele>20</ele>
        <time>2020-09-10T10:48:25Z</time>
      </trkpt>
      <trkpt lat="44.8939" lon="-0.4253">
        <ele>20</ele>
        <time>2020-09-10T10:48:26Z</time>
      </trkpt>
      <trkpt lat="44.8939" lon="-0.42531">
        <ele>20</ele>
        <time>2020-09-10T10:48:27Z</time>
      </trkpt>
      <trkpt lat="44.8939" lon="-0.42534">
        <ele>20.1</ele>
        <time>2020-09-10T10:48:29Z</time>
      </trkpt>
      <trkpt lat="44.89391" lon="-0.42536">
        <ele>20.1</ele>
        <time>2020-09-10T10:48:31Z</time>
      </trkpt>
      <trkpt lat="44.89392" lon="-0.42539">
        <ele>20</ele>
        <time>2020-09-10T10:48:33Z</time>
      </trkpt>
      <trkpt lat="44.89392" lon="-0.4254">
        <ele>20</ele>
        <time>2020-09-10T10:48:34Z</time>
      </trkpt>
      <trkpt lat="44.89392" lon="-0.42541">
        <ele>20</ele>
        <time>2020-09-10T10:48:35Z</time>
      </trkpt>
      <trkpt lat="44.89393" lon="-0.42542">
        <ele>20.1</ele>
        <time>2020-09-10T10:48:36Z</time>
      </trkpt>
      <trkpt lat="44.89393" lon="-0.42543">
        <ele>20.1</ele>
        <time>2020-09-10T10:48:38Z</time>
      </trkpt>
      <trkpt lat="44.89394" lon="-0.42543">
        <ele>20.1</ele>
        <time>2020-09-10T10:48:39Z</time>
      </trkpt>
      <trkpt lat="44.89395" lon="-0.42544">
        <ele>20</ele>
        <time>2020-09-10T10:48:41Z</time>
      </trkpt>
      <trkpt lat="44.89396" lon="-0.42544">
        <ele>20</ele>
        <time>2020-09-10T10:48:43Z</time>
      </trkpt>
      <trkpt lat="44.89396" lon="-0.42543">
        <ele>20</ele>
        <time>2020-09-10T10:48:45Z</time>
      </trkpt>
      <trkpt lat="44.89396" lon="-0.42543">
        <ele>20</ele>
        <time>2020-09-10T10:48:46Z</time>
      </trkpt>
      <trkpt lat="44.89396" lon="-0.42542">
        <ele>20</ele>
        <time>2020-09-10T10:48:47Z</time>
      </trkpt>
      <trkpt lat="44.89396" lon="-0.42542">
        <ele>20</ele>
        <time>2020-09-10T10:48:49Z</time>
      </trkpt>
      <trkpt lat="44.89395" lon="-0.42542">
        <ele>20</ele>
        <time>2020-09-10T10:48:51Z</time>
      </trkpt>
      <trkpt lat="44.89395" lon="-0.42542">
        <ele>20</ele>
        <time>2020-09-10T10:48:52Z</time>
      </trkpt>
      <trkpt lat="44.89395" lon="-0.42542">
        <ele>20</ele>
        <time>2020-09-10T10:48:53Z</time>
      </trkpt>
      <trkpt lat="44.89395" lon="-0.42542">
        <ele>20</ele>
        <time>2020-09-10T10:48:55Z</time>
      </trkpt>
      <trkpt lat="44.89394" lon="-0.42541">
        <ele>20</ele>
        <time>2020-09-10T10:48:57Z</time>
      </trkpt>
      <trkpt lat="44.89394" lon="-0.4254">
        <ele>20</ele>
        <time>2020-09-10T10:48:59Z</time>
      </trkpt>
      <trkpt lat="44.89395" lon="-0.42539">
        <ele>20</ele>
        <time>2020-09-10T10:49:00Z</time>
      </trkpt>
      <trkpt lat="44.89396" lon="-0.42539">
        <ele>20</ele>
        <time>2020-09-10T10:49:01Z</time>
      </trkpt>
      <trkpt lat="44.89397" lon="-0.42538">
        <ele>20</ele>
        <time>2020-09-10T10:49:02Z</time>
      </trkpt>
      <trkpt lat="44.89398" lon="-0.42537">
        <ele>19.9</ele>
        <time>2020-09-10T10:49:03Z</time>
      </trkpt>
      <trkpt lat="44.89398" lon="-0.42537">
        <ele>19.9</ele>
        <time>2020-09-10T10:49:04Z</time>
      </trkpt>
      <trkpt lat="44.89399" lon="-0.42536">
        <ele>19.9</ele>
        <time>2020-09-10T10:49:05Z</time>
      </trkpt>
      <trkpt lat="44.89401" lon="-0.42535">
        <ele>19.9</ele>
        <time>2020-09-10T10:49:06Z</time>
      </trkpt>
      <trkpt lat="44.89403" lon="-0.42534">
        <ele>19.9</ele>
        <time>2020-09-10T10:49:08Z</time>
      </trkpt>
      <trkpt lat="44.89403" lon="-0.42533">
        <ele>19.9</ele>
        <time>2020-09-10T10:49:09Z</time>
      </trkpt>
      <trkpt lat="44.89404" lon="-0.42533">
        <ele>19.9</ele>
        <time>2020-09-10T10:49:10Z</time>
      </trkpt>
      <trkpt lat="44.89405" lon="-0.42533">
        <ele>19.9</ele>
        <time>2020-09-10T10:49:11Z</time>
      </trkpt>
      <trkpt lat="44.89407" lon="-0.42533">
        <ele>19.8</ele>
        <time>2020-09-10T10:49:12Z</time>
      </trkpt>
      <trkpt lat="44.89409" lon="-0.42533">
        <ele>19.8</ele>
        <time>2020-09-10T10:49:13Z</time>
      </trkpt>
      <trkpt lat="44.8941" lon="-0.42533">
        <ele>19.8</ele>
        <time>2020-09-10T10:49:14Z</time>
      </trkpt>
      <trkpt lat="44.89411" lon="-0.42533">
        <ele>19.8</ele>
        <time>2020-09-10T10:49:15Z</time>
      </trkpt>
      <trkpt lat="44.89413" lon="-0.42532">
        <ele>19.8</ele>
        <time>2020-09-10T10:49:17Z</time>
      </trkpt>
      <trkpt lat="44.89414" lon="-0.42532">
        <ele>19.8</ele>
        <time>2020-09-10T10:49:18Z</time>
      </trkpt>
      <trkpt lat="44.89415" lon="-0.42532">
        <ele>19.8</ele>
        <time>2020-09-10T10:49:20Z</time>
      </trkpt>
      <trkpt lat="44.89416" lon="-0.42532">
        <ele>19.7</ele>
        <time>2020-09-10T10:49:21Z</time>
      </trkpt>
      <trkpt lat="44.89418" lon="-0.42532">
        <ele>19.7</ele>
        <time>2020-09-10T10:49:23Z</time>
      </trkpt>
      <trkpt lat="44.89419" lon="-0.42532">
        <ele>19.7</ele>
        <time>2020-09-10T10:49:24Z</time>
      </trkpt>
      <trkpt lat="44.8942" lon="-0.42532">
        <ele>19.7</ele>
        <time>2020-09-10T10:49:25Z</time>
      </trkpt>
      <trkpt lat="44.89422" lon="-0.42532">
        <ele>19.6</ele>
        <time>2020-09-10T10:49:27Z</time>
      </trkpt>
      <trkpt lat="44.89423" lon="-0.42532">
        <ele>19.6</ele>
        <time>2020-09-10T10:49:28Z</time>
      </trkpt>
      <trkpt lat="44.89424" lon="-0.42532">
        <ele>19.6</ele>
        <time>2020-09-10T10:49:29Z</time>
      </trkpt>
      <trkpt lat="44.89424" lon="-0.42532">
        <ele>19.6</ele>
        <time>2020-09-10T10:49:30Z</time>
      </trkpt>
      <trkpt lat="44.89425" lon="-0.42532">
        <ele>19.6</ele>
        <time>2020-09-10T10:49:31Z</time>
      </trkpt>
      <trkpt lat="44.89427" lon="-0.42532">
        <ele>19.6</ele>
        <time>2020-09-10T10:49:32Z</time>
      </trkpt>
      <trkpt lat="44.89429" lon="-0.42532">
        <ele>19.6</ele>
        <time>2020-09-10T10:49:34Z</time>
      </trkpt>
      <trkpt lat="44.89431" lon="-0.42532">
        <ele>19.6</ele>
        <time>2020-09-10T10:49:36Z</time>
      </trkpt>
      <trkpt lat="44.89432" lon="-0.42532">
        <ele>19.6</ele>
        <time>2020-09-10T10:49:37Z</time>
      </trkpt>
      <trkpt lat="44.89435" lon="-0.42532">
        <ele>19.5</ele>
        <time>2020-09-10T10:49:38Z</time>
      </trkpt>
      <trkpt lat="44.89436" lon="-0.42532">
        <ele>19.5</ele>
        <time>2020-09-10T10:49:39Z</time>
      </trkpt>
      <trkpt lat="44.89437" lon="-0.42532">
        <ele>19.5</ele>
        <time>2020-09-10T10:49:40Z</time>
      </trkpt>
      <trkpt lat="44.89438" lon="-0.42533">
        <ele>19.5</ele>
        <time>2020-09-10T10:49:41Z</time>
      </trkpt>
      <trkpt lat="44.89439" lon="-0.42533">
        <ele>19.5</ele>
        <time>2020-09-10T10:49:42Z</time>
      </trkpt>
      <trkpt lat="44.89439" lon="-0.42533">
        <ele>19.5</ele>
        <time>2020-09-10T10:49:43Z</time>
      </trkpt>
      <trkpt lat="44.89441" lon="-0.42534">
        <ele>19.5</ele>
        <time>2020-09-10T10:49:45Z</time>
      </trkpt>
      <trkpt lat="44.89442" lon="-0.42534">
        <ele>19.5</ele>
        <time>2020-09-10T10:49:46Z</time>
      </trkpt>
      <trkpt lat="44.89445" lon="-0.42534">
        <ele>19.5</ele>
        <time>2020-09-10T10:49:47Z</time>
      </trkpt>
      <trkpt lat="44.89446" lon="-0.42534">
        <ele>19.4</ele>
        <time>2020-09-10T10:49:49Z</time>
      </trkpt>
      <trkpt lat="44.89448" lon="-0.42535">
        <ele>19.4</ele>
        <time>2020-09-10T10:49:50Z</time>
      </trkpt>
      <trkpt lat="44.89449" lon="-0.42535">
        <ele>19.4</ele>
        <time>2020-09-10T10:49:51Z</time>
      </trkpt>
      <trkpt lat="44.89451" lon="-0.42534">
        <ele>19.4</ele>
        <time>2020-09-10T10:49:53Z</time>
      </trkpt>
      <trkpt lat="44.89453" lon="-0.42534">
        <ele>19.4</ele>
        <time>2020-09-10T10:49:54Z</time>
      </trkpt>
      <trkpt lat="44.89454" lon="-0.42534">
        <ele>19.4</ele>
        <time>2020-09-10T10:49:55Z</time>
      </trkpt>
      <trkpt lat="44.89455" lon="-0.42534">
        <ele>19.3</ele>
        <time>2020-09-10T10:49:56Z</time>
      </trkpt>
      <trkpt lat="44.89457" lon="-0.42534">
        <ele>19.3</ele>
        <time>2020-09-10T10:49:57Z</time>
      </trkpt>
      <trkpt lat="44.89458" lon="-0.42534">
        <ele>19.3</ele>
        <time>2020-09-10T10:49:58Z</time>
      </trkpt>
      <trkpt lat="44.89461" lon="-0.42534">
        <ele>19.3</ele>
        <time>2020-09-10T10:49:59Z</time>
      </trkpt>
      <trkpt lat="44.89462" lon="-0.42534">
        <ele>19.3</ele>
        <time>2020-09-10T10:50:00Z</time>
      </trkpt>
      <trkpt lat="44.89464" lon="-0.42533">
        <ele>19.2</ele>
        <time>2020-09-10T10:50:02Z</time>
      </trkpt>
      <trkpt lat="44.89465" lon="-0.42533">
        <ele>19.2</ele>
        <time>2020-09-10T10:50:03Z</time>
      </trkpt>
      <trkpt lat="44.89466" lon="-0.42533">
        <ele>19.2</ele>
        <time>2020-09-10T10:50:04Z</time>
      </trkpt>
      <trkpt lat="44.89468" lon="-0.42533">
        <ele>19.1</ele>
        <time>2020-09-10T10:50:05Z</time>
      </trkpt>
      <trkpt lat="44.89469" lon="-0.42533">
        <ele>19.1</ele>
        <time>2020-09-10T10:50:06Z</time>
      </trkpt>
      <trkpt lat="44.89471" lon="-0.42532">
        <ele>19.1</ele>
        <time>2020-09-10T10:50:08Z</time>
      </trkpt>
      <trkpt lat="44.89472" lon="-0.42532">
        <ele>19.1</ele>
        <time>2020-09-10T10:50:09Z</time>
      </trkpt>
      <trkpt lat="44.89474" lon="-0.42532">
        <ele>19</ele>
        <time>2020-09-10T10:50:11Z</time>
      </trkpt>
      <trkpt lat="44.89475" lon="-0.42532">
        <ele>19</ele>
        <time>2020-09-10T10:50:12Z</time>
      </trkpt>
      <trkpt lat="44.89476" lon="-0.42532">
        <ele>19</ele>
        <time>2020-09-10T10:50:14Z</time>
      </trkpt>
      <trkpt lat="44.89478" lon="-0.42532">
        <ele>19</ele>
        <time>2020-09-10T10:50:15Z</time>
      </trkpt>
      <trkpt lat="44.89479" lon="-0.42531">
        <ele>19</ele>
        <time>2020-09-10T10:50:16Z</time>
      </trkpt>
      <trkpt lat="44.8948" lon="-0.42531">
        <ele>18.9</ele>
        <time>2020-09-10T10:50:17Z</time>
      </trkpt>
      <trkpt lat="44.89481" lon="-0.42531">
        <ele>18.9</ele>
        <time>2020-09-10T10:50:18Z</time>
      </trkpt>
      <trkpt lat="44.89484" lon="-0.4253">
        <ele>18.8</ele>
        <time>2020-09-10T10:50:19Z</time>
      </trkpt>
      <trkpt lat="44.89485" lon="-0.4253">
        <ele>18.8</ele>
        <time>2020-09-10T10:50:21Z</time>
      </trkpt>
      <trkpt lat="44.89486" lon="-0.4253">
        <ele>18.8</ele>
        <time>2020-09-10T10:50:22Z</time>
      </trkpt>
      <trkpt lat="44.89487" lon="-0.4253">
        <ele>18.8</ele>
        <time>2020-09-10T10:50:23Z</time>
      </trkpt>
      <trkpt lat="44.89489" lon="-0.42529">
        <ele>18.8</ele>
        <time>2020-09-10T10:50:24Z</time>
      </trkpt>
      <trkpt lat="44.89492" lon="-0.42529">
        <ele>18.6</ele>
        <time>2020-09-10T10:50:26Z</time>
      </trkpt>
      <trkpt lat="44.89493" lon="-0.42529">
        <ele>18.6</ele>
        <time>2020-09-10T10:50:27Z</time>
      </trkpt>
      <trkpt lat="44.89494" lon="-0.42528">
        <ele>18.6</ele>
        <time>2020-09-10T10:50:28Z</time>
      </trkpt>
      <trkpt lat="44.89495" lon="-0.42528">
        <ele>18.5</ele>
        <time>2020-09-10T10:50:30Z</time>
      </trkpt>
      <trkpt lat="44.89496" lon="-0.42528">
        <ele>18.5</ele>
        <time>2020-09-10T10:50:31Z</time>
      </trkpt>
      <trkpt lat="44.89498" lon="-0.42528">
        <ele>18.5</ele>
        <time>2020-09-10T10:50:33Z</time>
      </trkpt>
      <trkpt lat="44.89499" lon="-0.42528">
        <ele>18.5</ele>
        <time>2020-09-10T10:50:34Z</time>
      </trkpt>
      <trkpt lat="44.89501" lon="-0.42527">
        <ele>18.5</ele>
        <time>2020-09-10T10:50:36Z</time>
      </trkpt>
      <trkpt lat="44.89502" lon="-0.42527">
        <ele>18.4</ele>
        <time>2020-09-10T10:50:37Z</time>
      </trkpt>
      <trkpt lat="44.89504" lon="-0.42526">
        <ele>18.3</ele>
        <time>2020-09-10T10:50:38Z</time>
      </trkpt>
      <trkpt lat="44.89505" lon="-0.42526">
        <ele>18.3</ele>
        <time>2020-09-10T10:50:40Z</time>
      </trkpt>
      <trkpt lat="44.89505" lon="-0.42525">
        <ele>18.3</ele>
        <time>2020-09-10T10:50:41Z</time>
      </trkpt>
      <trkpt lat="44.89506" lon="-0.42523">
        <ele>18.2</ele>
        <time>2020-09-10T10:50:42Z</time>
      </trkpt>
      <trkpt lat="44.89507" lon="-0.42521">
        <ele>18.2</ele>
        <time>2020-09-10T10:50:44Z</time>
      </trkpt>
      <trkpt lat="44.89507" lon="-0.4252">
        <ele>18.1</ele>
        <time>2020-09-10T10:50:45Z</time>
      </trkpt>
      <trkpt lat="44.89508" lon="-0.42519">
        <ele>18.1</ele>
        <time>2020-09-10T10:50:47Z</time>
      </trkpt>
      <trkpt lat="44.89509" lon="-0.42518">
        <ele>18.1</ele>
        <time>2020-09-10T10:50:48Z</time>
      </trkpt>
      <trkpt lat="44.8951" lon="-0.42517">
        <ele>18.1</ele>
        <time>2020-09-10T10:50:49Z</time>
      </trkpt>
      <trkpt lat="44.89512" lon="-0.42515">
        <ele>18</ele>
        <time>2020-09-10T10:50:50Z</time>
      </trkpt>
      <trkpt lat="44.89513" lon="-0.42515">
        <ele>18</ele>
        <time>2020-09-10T10:50:52Z</time>
      </trkpt>
      <trkpt lat="44.89513" lon="-0.42514">
        <ele>17.9</ele>
        <time>2020-09-10T10:50:53Z</time>
      </trkpt>
      <trkpt lat="44.89515" lon="-0.42513">
        <ele>17.9</ele>
        <time>2020-09-10T10:50:55Z</time>
      </trkpt>
      <trkpt lat="44.89517" lon="-0.42512">
        <ele>17.9</ele>
        <time>2020-09-10T10:50:56Z</time>
      </trkpt>
      <trkpt lat="44.89519" lon="-0.42512">
        <ele>17.9</ele>
        <time>2020-09-10T10:50:57Z</time>
      </trkpt>
      <trkpt lat="44.8952" lon="-0.42512">
        <ele>17.8</ele>
        <time>2020-09-10T10:50:58Z</time>
      </trkpt>
      <trkpt lat="44.8952" lon="-0.42512">
        <ele>17.8</ele>
        <time>2020-09-10T10:50:59Z</time>
      </trkpt>
      <trkpt lat="44.89523" lon="-0.42511">
        <ele>17.7</ele>
        <time>2020-09-10T10:51:00Z</time>
      </trkpt>
      <trkpt lat="44.89523" lon="-0.42511">
        <ele>17.7</ele>
        <time>2020-09-10T10:51:01Z</time>
      </trkpt>
      <trkpt lat="44.89524" lon="-0.42511">
        <ele>17.7</ele>
        <time>2020-09-10T10:51:02Z</time>
      </trkpt>
      <trkpt lat="44.89526" lon="-0.42511">
        <ele>17.6</ele>
        <time>2020-09-10T10:51:04Z</time>
      </trkpt>
      <trkpt lat="44.89527" lon="-0.4251">
        <ele>17.6</ele>
        <time>2020-09-10T10:51:05Z</time>
      </trkpt>
      <trkpt lat="44.8953" lon="-0.4251">
        <ele>17.6</ele>
        <time>2020-09-10T10:51:06Z</time>
      </trkpt>
      <trkpt lat="44.89531" lon="-0.42509">
        <ele>17.6</ele>
        <time>2020-09-10T10:51:07Z</time>
      </trkpt>
      <trkpt lat="44.89533" lon="-0.42508">
        <ele>17.5</ele>
        <time>2020-09-10T10:51:08Z</time>
      </trkpt>
      <trkpt lat="44.89534" lon="-0.42508">
        <ele>17.5</ele>
        <time>2020-09-10T10:51:09Z</time>
      </trkpt>
      <trkpt lat="44.89535" lon="-0.42508">
        <ele>17.4</ele>
        <time>2020-09-10T10:51:10Z</time>
      </trkpt>
      <trkpt lat="44.89537" lon="-0.42507">
        <ele>17.4</ele>
        <time>2020-09-10T10:51:12Z</time>
      </trkpt>
      <trkpt lat="44.89538" lon="-0.42508">
        <ele>17.4</ele>
        <time>2020-09-10T10:51:13Z</time>
      </trkpt>
      <trkpt lat="44.89539" lon="-0.42509">
        <ele>17.4</ele>
        <time>2020-09-10T10:51:14Z</time>
      </trkpt>
      <trkpt lat="44.8954" lon="-0.42511">
        <ele>17.4</ele>
        <time>2020-09-10T10:51:16Z</time>
      </trkpt>
      <trkpt lat="44.89541" lon="-0.42512">
        <ele>17.4</ele>
        <time>2020-09-10T10:51:17Z</time>
      </trkpt>
      <trkpt lat="44.89542" lon="-0.42514">
        <ele>17.4</ele>
        <time>2020-09-10T10:51:18Z</time>
      </trkpt>
      <trkpt lat="44.89544" lon="-0.42517">
        <ele>17.4</ele>
        <time>2020-09-10T10:51:19Z</time>
      </trkpt>
      <trkpt lat="44.89544" lon="-0.42519">
        <ele>17.4</ele>
        <time>2020-09-10T10:51:20Z</time>
      </trkpt>
      <trkpt lat="44.89544" lon="-0.4252">
        <ele>17.4</ele>
        <time>2020-09-10T10:51:21Z</time>
      </trkpt>
      <trkpt lat="44.89545" lon="-0.42523">
        <ele>17.4</ele>
        <time>2020-09-10T10:51:22Z</time>
      </trkpt>
      <trkpt lat="44.89545" lon="-0.42524">
        <ele>17.4</ele>
        <time>2020-09-10T10:51:23Z</time>
      </trkpt>
      <trkpt lat="44.89546" lon="-0.42526">
        <ele>17.4</ele>
        <time>2020-09-10T10:51:24Z</time>
      </trkpt>
      <trkpt lat="44.89546" lon="-0.42528">
        <ele>17.4</ele>
        <time>2020-09-10T10:51:26Z</time>
      </trkpt>
      <trkpt lat="44.89546" lon="-0.4253">
        <ele>17.4</ele>
        <time>2020-09-10T10:51:27Z</time>
      </trkpt>
      <trkpt lat="44.89546" lon="-0.42531">
        <ele>17.4</ele>
        <time>2020-09-10T10:51:28Z</time>
      </trkpt>
      <trkpt lat="44.89546" lon="-0.42533">
        <ele>17.4</ele>
        <time>2020-09-10T10:51:29Z</time>
      </trkpt>
      <trkpt lat="44.89546" lon="-0.42534">
        <ele>17.5</ele>
        <time>2020-09-10T10:51:30Z</time>
      </trkpt>
      <trkpt lat="44.89547" lon="-0.42537">
        <ele>17.4</ele>
        <time>2020-09-10T10:51:31Z</time>
      </trkpt>
      <trkpt lat="44.89547" lon="-0.42539">
        <ele>17.4</ele>
        <time>2020-09-10T10:51:32Z</time>
      </trkpt>
      <trkpt lat="44.89547" lon="-0.4254">
        <ele>17.4</ele>
        <time>2020-09-10T10:51:33Z</time>
      </trkpt>
      <trkpt lat="44.89547" lon="-0.42542">
        <ele>17.4</ele>
        <time>2020-09-10T10:51:34Z</time>
      </trkpt>
      <trkpt lat="44.89547" lon="-0.42544">
        <ele>17.4</ele>
        <time>2020-09-10T10:51:36Z</time>
      </trkpt>
      <trkpt lat="44.89548" lon="-0.42546">
        <ele>17.4</ele>
        <time>2020-09-10T10:51:37Z</time>
      </trkpt>
      <trkpt lat="44.89548" lon="-0.42549">
        <ele>17.5</ele>
        <time>2020-09-10T10:51:38Z</time>
      </trkpt>
      <trkpt lat="44.89549" lon="-0.42552">
        <ele>17.5</ele>
        <time>2020-09-10T10:51:40Z</time>
      </trkpt>
      <trkpt lat="44.8955" lon="-0.42556">
        <ele>17.4</ele>
        <time>2020-09-10T10:51:41Z</time>
      </trkpt>
      <trkpt lat="44.8955" lon="-0.42559">
        <ele>17.4</ele>
        <time>2020-09-10T10:51:42Z</time>
      </trkpt>
      <trkpt lat="44.8955" lon="-0.4256">
        <ele>17.4</ele>
        <time>2020-09-10T10:51:43Z</time>
      </trkpt>
      <trkpt lat="44.8955" lon="-0.42561">
        <ele>17.4</ele>
        <time>2020-09-10T10:51:44Z</time>
      </trkpt>
      <trkpt lat="44.89551" lon="-0.42565">
        <ele>17.5</ele>
        <time>2020-09-10T10:51:45Z</time>
      </trkpt>
      <trkpt lat="44.89552" lon="-0.42566">
        <ele>17.5</ele>
        <time>2020-09-10T10:51:46Z</time>
      </trkpt>
      <trkpt lat="44.89552" lon="-0.42569">
        <ele>17.5</ele>
        <time>2020-09-10T10:51:47Z</time>
      </trkpt>
      <trkpt lat="44.89552" lon="-0.42572">
        <ele>17.5</ele>
        <time>2020-09-10T10:51:49Z</time>
      </trkpt>
      <trkpt lat="44.89552" lon="-0.42575">
        <ele>17.5</ele>
        <time>2020-09-10T10:51:50Z</time>
      </trkpt>
      <trkpt lat="44.89552" lon="-0.42577">
        <ele>17.5</ele>
        <time>2020-09-10T10:51:51Z</time>
      </trkpt>
      <trkpt lat="44.89552" lon="-0.42578">
        <ele>17.5</ele>
        <time>2020-09-10T10:51:52Z</time>
      </trkpt>
      <trkpt lat="44.89553" lon="-0.42582">
        <ele>17.4</ele>
        <time>2020-09-10T10:51:54Z</time>
      </trkpt>
      <trkpt lat="44.89553" lon="-0.42584">
        <ele>17.4</ele>
        <time>2020-09-10T10:51:55Z</time>
      </trkpt>
      <trkpt lat="44.89553" lon="-0.42585">
        <ele>17.4</ele>
        <time>2020-09-10T10:51:56Z</time>
      </trkpt>
      <trkpt lat="44.89553" lon="-0.42587">
        <ele>17.4</ele>
        <time>2020-09-10T10:51:57Z</time>
      </trkpt>
      <trkpt lat="44.89553" lon="-0.42589">
        <ele>17.4</ele>
        <time>2020-09-10T10:51:58Z</time>
      </trkpt>
      <trkpt lat="44.89553" lon="-0.4259">
        <ele>17.5</ele>
        <time>2020-09-10T10:52:00Z</time>
      </trkpt>
      <trkpt lat="44.89554" lon="-0.42592">
        <ele>17.5</ele>
        <time>2020-09-10T10:52:01Z</time>
      </trkpt>
      <trkpt lat="44.89554" lon="-0.42593">
        <ele>17.5</ele>
        <time>2020-09-10T10:52:02Z</time>
      </trkpt>
      <trkpt lat="44.89554" lon="-0.42594">
        <ele>17.5</ele>
        <time>2020-09-10T10:52:03Z</time>
      </trkpt>
      <trkpt lat="44.89554" lon="-0.42596">
        <ele>17.5</ele>
        <time>2020-09-10T10:52:05Z</time>
      </trkpt>
      <trkpt lat="44.89555" lon="-0.42599">
        <ele>17.5</ele>
        <time>2020-09-10T10:52:07Z</time>
      </trkpt>
      <trkpt lat="44.89555" lon="-0.42602">
        <ele>17.5</ele>
        <time>2020-09-10T10:52:09Z</time>
      </trkpt>
      <trkpt lat="44.89555" lon="-0.42603">
        <ele>17.5</ele>
        <time>2020-09-10T10:52:10Z</time>
      </trkpt>
      <trkpt lat="44.89556" lon="-0.42607">
        <ele>17.4</ele>
        <time>2020-09-10T10:52:11Z</time>
      </trkpt>
      <trkpt lat="44.89556" lon="-0.42608">
        <ele>17.4</ele>
        <time>2020-09-10T10:52:12Z</time>
      </trkpt>
      <trkpt lat="44.89556" lon="-0.42609">
        <ele>17.4</ele>
        <time>2020-09-10T10:52:13Z</time>
      </trkpt>
      <trkpt lat="44.89556" lon="-0.42612">
        <ele>17.4</ele>
        <time>2020-09-10T10:52:15Z</time>
      </trkpt>
      <trkpt lat="44.89556" lon="-0.42613">
        <ele>17.4</ele>
        <time>2020-09-10T10:52:16Z</time>
      </trkpt>
      <trkpt lat="44.89557" lon="-0.42615">
        <ele>17.4</ele>
        <time>2020-09-10T10:52:17Z</time>
      </trkpt>
      <trkpt lat="44.89557" lon="-0.42618">
        <ele>17.5</ele>
        <time>2020-09-10T10:52:18Z</time>
      </trkpt>
      <trkpt lat="44.89557" lon="-0.42619">
        <ele>17.5</ele>
        <time>2020-09-10T10:52:19Z</time>
      </trkpt>
      <trkpt lat="44.89557" lon="-0.42622">
        <ele>17.5</ele>
        <time>2020-09-10T10:52:20Z</time>
      </trkpt>
      <trkpt lat="44.89557" lon="-0.42623">
        <ele>17.5</ele>
        <time>2020-09-10T10:52:22Z</time>
      </trkpt>
      <trkpt lat="44.89557" lon="-0.42624">
        <ele>17.5</ele>
        <time>2020-09-10T10:52:23Z</time>
      </trkpt>
      <trkpt lat="44.89557" lon="-0.42626">
        <ele>17.5</ele>
        <time>2020-09-10T10:52:24Z</time>
      </trkpt>
      <trkpt lat="44.89557" lon="-0.42627">
        <ele>17.5</ele>
        <time>2020-09-10T10:52:26Z</time>
      </trkpt>
      <trkpt lat="44.89557" lon="-0.42629">
        <ele>17.5</ele>
        <time>2020-09-10T10:52:27Z</time>
      </trkpt>
      <trkpt lat="44.89557" lon="-0.42633">
        <ele>17.5</ele>
        <time>2020-09-10T10:52:28Z</time>
      </trkpt>
      <trkpt lat="44.89557" lon="-0.42634">
        <ele>17.5</ele>
        <time>2020-09-10T10:52:29Z</time>
      </trkpt>
      <trkpt lat="44.89557" lon="-0.42636">
        <ele>17.5</ele>
        <time>2020-09-10T10:52:30Z</time>
      </trkpt>
      <trkpt lat="44.89558" lon="-0.42637">
        <ele>17.5</ele>
        <time>2020-09-10T10:52:31Z</time>
      </trkpt>
      <trkpt lat="44.89558" lon="-0.42639">
        <ele>17.5</ele>
        <time>2020-09-10T10:52:32Z</time>
      </trkpt>
      <trkpt lat="44.89558" lon="-0.42641">
        <ele>17.5</ele>
        <time>2020-09-10T10:52:34Z</time>
      </trkpt>
      <trkpt lat="44.89558" lon="-0.42642">
        <ele>17.5</ele>
        <time>2020-09-10T10:52:35Z</time>
      </trkpt>
      <trkpt lat="44.89558" lon="-0.42644">
        <ele>17.5</ele>
        <time>2020-09-10T10:52:36Z</time>
      </trkpt>
      <trkpt lat="44.89558" lon="-0.42645">
        <ele>17.6</ele>
        <time>2020-09-10T10:52:37Z</time>
      </trkpt>
      <trkpt lat="44.89558" lon="-0.42648">
        <ele>17.6</ele>
        <time>2020-09-10T10:52:38Z</time>
      </trkpt>
      <trkpt lat="44.89558" lon="-0.42649">
        <ele>17.6</ele>
        <time>2020-09-10T10:52:39Z</time>
      </trkpt>
      <trkpt lat="44.89558" lon="-0.42651">
        <ele>17.6</ele>
        <time>2020-09-10T10:52:41Z</time>
      </trkpt>
      <trkpt lat="44.89558" lon="-0.42653">
        <ele>17.6</ele>
        <time>2020-09-10T10:52:42Z</time>
      </trkpt>
      <trkpt lat="44.89558" lon="-0.42657">
        <ele>17.6</ele>
        <time>2020-09-10T10:52:43Z</time>
      </trkpt>
      <trkpt lat="44.89558" lon="-0.42658">
        <ele>17.6</ele>
        <time>2020-09-10T10:52:45Z</time>
      </trkpt>
      <trkpt lat="44.89558" lon="-0.42661">
        <ele>17.6</ele>
        <time>2020-09-10T10:52:46Z</time>
      </trkpt>
      <trkpt lat="44.89558" lon="-0.42662">
        <ele>17.6</ele>
        <time>2020-09-10T10:52:47Z</time>
      </trkpt>
      <trkpt lat="44.89558" lon="-0.42664">
        <ele>17.6</ele>
        <time>2020-09-10T10:52:48Z</time>
      </trkpt>
      <trkpt lat="44.89558" lon="-0.42664">
        <ele>17.6</ele>
        <time>2020-09-10T10:52:50Z</time>
      </trkpt>
      <trkpt lat="44.89557" lon="-0.42666">
        <ele>17.6</ele>
        <time>2020-09-10T10:52:51Z</time>
      </trkpt>
      <trkpt lat="44.89555" lon="-0.42668">
        <ele>17.8</ele>
        <time>2020-09-10T10:52:53Z</time>
      </trkpt>
      <trkpt lat="44.89554" lon="-0.42669">
        <ele>17.8</ele>
        <time>2020-09-10T10:52:55Z</time>
      </trkpt>
      <trkpt lat="44.89553" lon="-0.4267">
        <ele>17.8</ele>
        <time>2020-09-10T10:52:56Z</time>
      </trkpt>
      <trkpt lat="44.89552" lon="-0.4267">
        <ele>17.9</ele>
        <time>2020-09-10T10:52:57Z</time>
      </trkpt>
      <trkpt lat="44.8955" lon="-0.42671">
        <ele>17.9</ele>
        <time>2020-09-10T10:52:58Z</time>
      </trkpt>
      <trkpt lat="44.89549" lon="-0.42672">
        <ele>18.1</ele>
        <time>2020-09-10T10:53:00Z</time>
      </trkpt>
      <trkpt lat="44.89547" lon="-0.42673">
        <ele>18.1</ele>
        <time>2020-09-10T10:53:01Z</time>
      </trkpt>
      <trkpt lat="44.89546" lon="-0.42674">
        <ele>18.3</ele>
        <time>2020-09-10T10:53:02Z</time>
      </trkpt>
      <trkpt lat="44.89544" lon="-0.42675">
        <ele>18.3</ele>
        <time>2020-09-10T10:53:03Z</time>
      </trkpt>
      <trkpt lat="44.89543" lon="-0.42676">
        <ele>18.4</ele>
        <time>2020-09-10T10:53:05Z</time>
      </trkpt>
      <trkpt lat="44.89541" lon="-0.42678">
        <ele>18.4</ele>
        <time>2020-09-10T10:53:06Z</time>
      </trkpt>
      <trkpt lat="44.8954" lon="-0.42678">
        <ele>18.6</ele>
        <time>2020-09-10T10:53:07Z</time>
      </trkpt>
      <trkpt lat="44.8954" lon="-0.42679">
        <ele>18.6</ele>
        <time>2020-09-10T10:53:08Z</time>
      </trkpt>
      <trkpt lat="44.89539" lon="-0.4268">
        <ele>18.6</ele>
        <time>2020-09-10T10:53:09Z</time>
      </trkpt>
      <trkpt lat="44.89538" lon="-0.42681">
        <ele>18.6</ele>
        <time>2020-09-10T10:53:11Z</time>
      </trkpt>
      <trkpt lat="44.89537" lon="-0.42683">
        <ele>18.8</ele>
        <time>2020-09-10T10:53:12Z</time>
      </trkpt>
      <trkpt lat="44.89536" lon="-0.42685">
        <ele>18.8</ele>
        <time>2020-09-10T10:53:13Z</time>
      </trkpt>
      <trkpt lat="44.89536" lon="-0.42686">
        <ele>18.8</ele>
        <time>2020-09-10T10:53:14Z</time>
      </trkpt>
      <trkpt lat="44.89535" lon="-0.42689">
        <ele>18.8</ele>
        <time>2020-09-10T10:53:16Z</time>
      </trkpt>
      <trkpt lat="44.89535" lon="-0.42691">
        <ele>18.8</ele>
        <time>2020-09-10T10:53:17Z</time>
      </trkpt>
      <trkpt lat="44.89534" lon="-0.42695">
        <ele>19</ele>
        <time>2020-09-10T10:53:19Z</time>
      </trkpt>
      <trkpt lat="44.89534" lon="-0.42696">
        <ele>19</ele>
        <time>2020-09-10T10:53:20Z</time>
      </trkpt>
      <trkpt lat="44.89534" lon="-0.42698">
        <ele>19</ele>
        <time>2020-09-10T10:53:21Z</time>
      </trkpt>
      <trkpt lat="44.89534" lon="-0.42699">
        <ele>19</ele>
        <time>2020-09-10T10:53:22Z</time>
      </trkpt>
      <trkpt lat="44.89534" lon="-0.42702">
        <ele>18.8</ele>
        <time>2020-09-10T10:53:24Z</time>
      </trkpt>
      <trkpt lat="44.89535" lon="-0.42703">
        <ele>18.8</ele>
        <time>2020-09-10T10:53:25Z</time>
      </trkpt>
      <trkpt lat="44.89535" lon="-0.42705">
        <ele>18.8</ele>
        <time>2020-09-10T10:53:26Z</time>
      </trkpt>
      <trkpt lat="44.89535" lon="-0.42706">
        <ele>18.8</ele>
        <time>2020-09-10T10:53:27Z</time>
      </trkpt>
      <trkpt lat="44.89535" lon="-0.42708">
        <ele>18.8</ele>
        <time>2020-09-10T10:53:29Z</time>
      </trkpt>
      <trkpt lat="44.89536" lon="-0.42709">
        <ele>18.8</ele>
        <time>2020-09-10T10:53:30Z</time>
      </trkpt>
      <trkpt lat="44.89536" lon="-0.42711">
        <ele>18.8</ele>
        <time>2020-09-10T10:53:31Z</time>
      </trkpt>
      <trkpt lat="44.89536" lon="-0.42712">
        <ele>18.8</ele>
        <time>2020-09-10T10:53:32Z</time>
      </trkpt>
      <trkpt lat="44.89536" lon="-0.42714">
        <ele>18.8</ele>
        <time>2020-09-10T10:53:33Z</time>
      </trkpt>
      <trkpt lat="44.89536" lon="-0.42715">
        <ele>18.8</ele>
        <time>2020-09-10T10:53:35Z</time>
      </trkpt>
      <trkpt lat="44.89536" lon="-0.42715">
        <ele>18.8</ele>
        <time>2020-09-10T10:53:36Z</time>
      </trkpt>
      <trkpt lat="44.89537" lon="-0.42717">
        <ele>18.8</ele>
        <time>2020-09-10T10:53:38Z</time>
      </trkpt>
      <trkpt lat="44.89537" lon="-0.42718">
        <ele>18.8</ele>
        <time>2020-09-10T10:53:39Z</time>
      </trkpt>
      <trkpt lat="44.89537" lon="-0.42718">
        <ele>18.8</ele>
        <time>2020-09-10T10:53:40Z</time>
      </trkpt>
      <trkpt lat="44.89538" lon="-0.42718">
        <ele>18.7</ele>
        <time>2020-09-10T10:53:42Z</time>
      </trkpt>
      <trkpt lat="44.89538" lon="-0.4272">
        <ele>18.7</ele>
        <time>2020-09-10T10:53:44Z</time>
      </trkpt>
      <trkpt lat="44.89538" lon="-0.4272">
        <ele>18.7</ele>
        <time>2020-09-10T10:53:45Z</time>
      </trkpt>
      <trkpt lat="44.89538" lon="-0.4272">
        <ele>18.7</ele>
        <time>2020-09-10T10:53:47Z</time>
      </trkpt>
      <trkpt lat="44.89538" lon="-0.4272">
        <ele>18.7</ele>
        <time>2020-09-10T10:53:48Z</time>
      </trkpt>
      <trkpt lat="44.89538" lon="-0.4272">
        <ele>18.7</ele>
        <time>2020-09-10T10:53:50Z</time>
      </trkpt>
      <trkpt lat="44.89538" lon="-0.42719">
        <ele>18.7</ele>
        <time>2020-09-10T10:53:51Z</time>
      </trkpt>
      <trkpt lat="44.89537" lon="-0.42716">
        <ele>18.8</ele>
        <time>2020-09-10T10:53:54Z</time>
      </trkpt>
      <trkpt lat="44.89537" lon="-0.42716">
        <ele>18.8</ele>
        <time>2020-09-10T10:53:56Z</time>
      </trkpt>
      <trkpt lat="44.89537" lon="-0.42715">
        <ele>18.8</ele>
        <time>2020-09-10T10:53:57Z</time>
      </trkpt>
      <trkpt lat="44.89536" lon="-0.42712">
        <ele>18.8</ele>
        <time>2020-09-10T10:53:59Z</time>
      </trkpt>
      <trkpt lat="44.89535" lon="-0.42712">
        <ele>18.8</ele>
        <time>2020-09-10T10:54:00Z</time>
      </trkpt>
      <trkpt lat="44.89535" lon="-0.42712">
        <ele>18.8</ele>
        <time>2020-09-10T10:54:02Z</time>
      </trkpt>
      <trkpt lat="44.89535" lon="-0.42711">
        <ele>18.8</ele>
        <time>2020-09-10T10:54:03Z</time>
      </trkpt>
      <trkpt lat="44.89535" lon="-0.42711">
        <ele>18.8</ele>
        <time>2020-09-10T10:54:04Z</time>
      </trkpt>
      <trkpt lat="44.89535" lon="-0.42711">
        <ele>18.8</ele>
        <time>2020-09-10T10:54:06Z</time>
      </trkpt>
      <trkpt lat="44.89535" lon="-0.42711">
        <ele>18.8</ele>
        <time>2020-09-10T10:54:08Z</time>
      </trkpt>
      <trkpt lat="44.89535" lon="-0.42711">
        <ele>18.8</ele>
        <time>2020-09-10T10:54:10Z</time>
      </trkpt>
      <trkpt lat="44.89535" lon="-0.42711">
        <ele>18.8</ele>
        <time>2020-09-10T10:54:12Z</time>
      </trkpt>
      <trkpt lat="44.89535" lon="-0.42711">
        <ele>18.8</ele>
        <time>2020-09-10T10:54:13Z</time>
      </trkpt>
      <trkpt lat="44.89535" lon="-0.42711">
        <ele>18.8</ele>
        <time>2020-09-10T10:54:15Z</time>
      </trkpt>
      <trkpt lat="44.89535" lon="-0.42711">
        <ele>18.8</ele>
        <time>2020-09-10T10:54:17Z</time>
      </trkpt>
      <trkpt lat="44.89535" lon="-0.42711">
        <ele>18.8</ele>
        <time>2020-09-10T10:54:20Z</time>
      </trkpt>
      <trkpt lat="44.89535" lon="-0.42711">
        <ele>18.8</ele>
        <time>2020-09-10T10:54:21Z</time>
      </trkpt>
      <trkpt lat="44.89535" lon="-0.42711">
        <ele>18.8</ele>
        <time>2020-09-10T10:54:23Z</time>
      </trkpt>
      <trkpt lat="44.89535" lon="-0.42711">
        <ele>18.8</ele>
        <time>2020-09-10T10:54:24Z</time>
      </trkpt>
      <trkpt lat="44.89535" lon="-0.42711">
        <ele>18.8</ele>
        <time>2020-09-10T10:54:26Z</time>
      </trkpt>
      <trkpt lat="44.89535" lon="-0.42711">
        <ele>18.8</ele>
        <time>2020-09-10T10:54:28Z</time>
      </trkpt>
      <trkpt lat="44.89535" lon="-0.42711">
        <ele>18.8</ele>
        <time>2020-09-10T10:54:30Z</time>
      </trkpt>
      <trkpt lat="44.89535" lon="-0.42711">
        <ele>18.8</ele>
        <time>2020-09-10T10:54:31Z</time>
      </trkpt>
      <trkpt lat="44.89535" lon="-0.42711">
        <ele>18.8</ele>
        <time>2020-09-10T10:54:33Z</time>
      </trkpt>
      <trkpt lat="44.89535" lon="-0.42711">
        <ele>18.8</ele>
        <time>2020-09-10T10:54:35Z</time>
      </trkpt>
      <trkpt lat="44.89535" lon="-0.42711">
        <ele>18.8</ele>
        <time>2020-09-10T10:54:36Z</time>
      </trkpt>
      <trkpt lat="44.89535" lon="-0.42711">
        <ele>18.8</ele>
        <time>2020-09-10T10:54:37Z</time>
      </trkpt>
      <trkpt lat="44.89535" lon="-0.42711">
        <ele>18.8</ele>
        <time>2020-09-10T10:54:39Z</time>
      </trkpt>
      <trkpt lat="44.89535" lon="-0.42711">
        <ele>18.8</ele>
        <time>2020-09-10T10:54:40Z</time>
      </trkpt>
      <trkpt lat="44.89535" lon="-0.4271">
        <ele>18.8</ele>
        <time>2020-09-10T10:54:42Z</time>
      </trkpt>
      <trkpt lat="44.89535" lon="-0.42711">
        <ele>18.8</ele>
        <time>2020-09-10T10:54:44Z</time>
      </trkpt>
      <trkpt lat="44.89535" lon="-0.42711">
        <ele>18.8</ele>
        <time>2020-09-10T10:54:45Z</time>
      </trkpt>
      <trkpt lat="44.89535" lon="-0.42712">
        <ele>18.8</ele>
        <time>2020-09-10T10:54:47Z</time>
      </trkpt>
      <trkpt lat="44.89535" lon="-0.42712">
        <ele>18.8</ele>
        <time>2020-09-10T10:54:49Z</time>
      </trkpt>
      <trkpt lat="44.89535" lon="-0.42713">
        <ele>18.8</ele>
        <time>2020-09-10T10:54:51Z</time>
      </trkpt>
      <trkpt lat="44.89535" lon="-0.42712">
        <ele>18.8</ele>
        <time>2020-09-10T10:54:53Z</time>
      </trkpt>
      <trkpt lat="44.89534" lon="-0.42711">
        <ele>19</ele>
        <time>2020-09-10T10:54:54Z</time>
      </trkpt>
      <trkpt lat="44.89533" lon="-0.42711">
        <ele>19</ele>
        <time>2020-09-10T10:54:55Z</time>
      </trkpt>
      <trkpt lat="44.89532" lon="-0.42711">
        <ele>19</ele>
        <time>2020-09-10T10:54:56Z</time>
      </trkpt>
      <trkpt lat="44.89531" lon="-0.42711">
        <ele>19.2</ele>
        <time>2020-09-10T10:54:57Z</time>
      </trkpt>
      <trkpt lat="44.89531" lon="-0.42712">
        <ele>19.2</ele>
        <time>2020-09-10T10:54:58Z</time>
      </trkpt>
      <trkpt lat="44.89531" lon="-0.42714">
        <ele>19.2</ele>
        <time>2020-09-10T10:55:00Z</time>
      </trkpt>
      <trkpt lat="44.89531" lon="-0.42717">
        <ele>19.2</ele>
        <time>2020-09-10T10:55:02Z</time>
      </trkpt>
      <trkpt lat="44.89531" lon="-0.42718">
        <ele>19.2</ele>
        <time>2020-09-10T10:55:03Z</time>
      </trkpt>
      <trkpt lat="44.89532" lon="-0.42721">
        <ele>19</ele>
        <time>2020-09-10T10:55:05Z</time>
      </trkpt>
      <trkpt lat="44.89532" lon="-0.42723">
        <ele>19</ele>
        <time>2020-09-10T10:55:06Z</time>
      </trkpt>
      <trkpt lat="44.89532" lon="-0.42725">
        <ele>19</ele>
        <time>2020-09-10T10:55:07Z</time>
      </trkpt>
      <trkpt lat="44.89532" lon="-0.42726">
        <ele>19</ele>
        <time>2020-09-10T10:55:09Z</time>
      </trkpt>
      <trkpt lat="44.89532" lon="-0.42728">
        <ele>19.1</ele>
        <time>2020-09-10T10:55:10Z</time>
      </trkpt>
      <trkpt lat="44.89532" lon="-0.42733">
        <ele>19.2</ele>
        <time>2020-09-10T10:55:11Z</time>
      </trkpt>
      <trkpt lat="44.89532" lon="-0.42734">
        <ele>19.3</ele>
        <time>2020-09-10T10:55:12Z</time>
      </trkpt>
      <trkpt lat="44.89533" lon="-0.42736">
        <ele>19.4</ele>
        <time>2020-09-10T10:55:13Z</time>
      </trkpt>
      <trkpt lat="44.89533" lon="-0.42738">
        <ele>19.5</ele>
        <time>2020-09-10T10:55:15Z</time>
      </trkpt>
      <trkpt lat="44.89533" lon="-0.4274">
        <ele>19.6</ele>
        <time>2020-09-10T10:55:16Z</time>
      </trkpt>
      <trkpt lat="44.89533" lon="-0.42742">
        <ele>19.7</ele>
        <time>2020-09-10T10:55:17Z</time>
      </trkpt>
      <trkpt lat="44.89533" lon="-0.42742">
        <ele>19.8</ele>
        <time>2020-09-10T10:55:18Z</time>
      </trkpt>
      <trkpt lat="44.89533" lon="-0.42743">
        <ele>19.8</ele>
        <time>2020-09-10T10:55:19Z</time>
      </trkpt>
      <trkpt lat="44.89533" lon="-0.42745">
        <ele>19.9</ele>
        <time>2020-09-10T10:55:20Z</time>
      </trkpt>
      <trkpt lat="44.89533" lon="-0.42747">
        <ele>20</ele>
        <time>2020-09-10T10:55:21Z</time>
      </trkpt>
      <trkpt lat="44.89533" lon="-0.42749">
        <ele>20.2</ele>
        <time>2020-09-10T10:55:22Z</time>
      </trkpt>
      <trkpt lat="44.89533" lon="-0.42752">
        <ele>20.2</ele>
        <time>2020-09-10T10:55:24Z</time>
      </trkpt>
      <trkpt lat="44.89533" lon="-0.42757">
        <ele>20.4</ele>
        <time>2020-09-10T10:55:25Z</time>
      </trkpt>
      <trkpt lat="44.89533" lon="-0.42759">
        <ele>20.5</ele>
        <time>2020-09-10T10:55:26Z</time>
      </trkpt>
      <trkpt lat="44.89533" lon="-0.42761">
        <ele>20.6</ele>
        <time>2020-09-10T10:55:28Z</time>
      </trkpt>
      <trkpt lat="44.89532" lon="-0.42763">
        <ele>20.7</ele>
        <time>2020-09-10T10:55:29Z</time>
      </trkpt>
      <trkpt lat="44.89532" lon="-0.42766">
        <ele>20.8</ele>
        <time>2020-09-10T10:55:30Z</time>
      </trkpt>
      <trkpt lat="44.89532" lon="-0.42768">
        <ele>20.9</ele>
        <time>2020-09-10T10:55:31Z</time>
      </trkpt>
      <trkpt lat="44.89531" lon="-0.42773">
        <ele>21</ele>
        <time>2020-09-10T10:55:33Z</time>
      </trkpt>
      <trkpt lat="44.89531" lon="-0.42774">
        <ele>21.4</ele>
        <time>2020-09-10T10:55:34Z</time>
      </trkpt>
      <trkpt lat="44.89531" lon="-0.42777">
        <ele>21.5</ele>
        <time>2020-09-10T10:55:35Z</time>
      </trkpt>
      <trkpt lat="44.89531" lon="-0.42779">
        <ele>21.6</ele>
        <time>2020-09-10T10:55:36Z</time>
      </trkpt>
      <trkpt lat="44.89531" lon="-0.42781">
        <ele>21.7</ele>
        <time>2020-09-10T10:55:37Z</time>
      </trkpt>
      <trkpt lat="44.89531" lon="-0.42783">
        <ele>21.8</ele>
        <time>2020-09-10T10:55:38Z</time>
      </trkpt>
      <trkpt lat="44.89532" lon="-0.4279">
        <ele>21.8</ele>
        <time>2020-09-10T10:55:40Z</time>
      </trkpt>
      <trkpt lat="44.89532" lon="-0.42791">
        <ele>21.9</ele>
        <time>2020-09-10T10:55:42Z</time>
      </trkpt>
      <trkpt lat="44.89533" lon="-0.42793">
        <ele>22</ele>
        <time>2020-09-10T10:55:43Z</time>
      </trkpt>
      <trkpt lat="44.89535" lon="-0.42794">
        <ele>22</ele>
        <time>2020-09-10T10:55:45Z</time>
      </trkpt>
      <trkpt lat="44.89536" lon="-0.42794">
        <ele>22</ele>
        <time>2020-09-10T10:55:46Z</time>
      </trkpt>
      <trkpt lat="44.89536" lon="-0.42795">
        <ele>22.1</ele>
        <time>2020-09-10T10:55:47Z</time>
      </trkpt>
      <trkpt lat="44.89538" lon="-0.42794">
        <ele>22</ele>
        <time>2020-09-10T10:55:48Z</time>
      </trkpt>
      <trkpt lat="44.89539" lon="-0.42793">
        <ele>22.1</ele>
        <time>2020-09-10T10:55:49Z</time>
      </trkpt>
      <trkpt lat="44.89541" lon="-0.42793">
        <ele>22</ele>
        <time>2020-09-10T10:55:51Z</time>
      </trkpt>
      <trkpt lat="44.89543" lon="-0.42793">
        <ele>22.1</ele>
        <time>2020-09-10T10:55:52Z</time>
      </trkpt>
      <trkpt lat="44.89543" lon="-0.42792">
        <ele>22.2</ele>
        <time>2020-09-10T10:55:53Z</time>
      </trkpt>
      <trkpt lat="44.89544" lon="-0.42792">
        <ele>22.1</ele>
        <time>2020-09-10T10:55:54Z</time>
      </trkpt>
      <trkpt lat="44.89546" lon="-0.42792">
        <ele>22.2</ele>
        <time>2020-09-10T10:55:55Z</time>
      </trkpt>
      <trkpt lat="44.8955" lon="-0.42791">
        <ele>22</ele>
        <time>2020-09-10T10:55:57Z</time>
      </trkpt>
      <trkpt lat="44.89551" lon="-0.42791">
        <ele>22</ele>
        <time>2020-09-10T10:55:58Z</time>
      </trkpt>
      <trkpt lat="44.89552" lon="-0.42791">
        <ele>22</ele>
        <time>2020-09-10T10:55:59Z</time>
      </trkpt>
      <trkpt lat="44.89553" lon="-0.42791">
        <ele>22</ele>
        <time>2020-09-10T10:56:00Z</time>
      </trkpt>
      <trkpt lat="44.89555" lon="-0.4279">
        <ele>22.1</ele>
        <time>2020-09-10T10:56:02Z</time>
      </trkpt>
      <trkpt lat="44.89555" lon="-0.4279">
        <ele>22.1</ele>
        <time>2020-09-10T10:56:03Z</time>
      </trkpt>
      <trkpt lat="44.89556" lon="-0.4279">
        <ele>22</ele>
        <time>2020-09-10T10:56:04Z</time>
      </trkpt>
      <trkpt lat="44.89557" lon="-0.42789">
        <ele>22.1</ele>
        <time>2020-09-10T10:56:05Z</time>
      </trkpt>
      <trkpt lat="44.89558" lon="-0.42789">
        <ele>22.2</ele>
        <time>2020-09-10T10:56:06Z</time>
      </trkpt>
      <trkpt lat="44.89559" lon="-0.42789">
        <ele>22.3</ele>
        <time>2020-09-10T10:56:07Z</time>
      </trkpt>
      <trkpt lat="44.89561" lon="-0.42788">
        <ele>22.2</ele>
        <time>2020-09-10T10:56:09Z</time>
      </trkpt>
      <trkpt lat="44.89562" lon="-0.42788">
        <ele>22.2</ele>
        <time>2020-09-10T10:56:10Z</time>
      </trkpt>
      <trkpt lat="44.89563" lon="-0.42788">
        <ele>22.2</ele>
        <time>2020-09-10T10:56:11Z</time>
      </trkpt>
      <trkpt lat="44.89564" lon="-0.42788">
        <ele>22.3</ele>
        <time>2020-09-10T10:56:12Z</time>
      </trkpt>
      <trkpt lat="44.89566" lon="-0.42787">
        <ele>22.3</ele>
        <time>2020-09-10T10:56:14Z</time>
      </trkpt>
      <trkpt lat="44.89567" lon="-0.42787">
        <ele>22.3</ele>
        <time>2020-09-10T10:56:15Z</time>
      </trkpt>
      <trkpt lat="44.89568" lon="-0.42786">
        <ele>22.2</ele>
        <time>2020-09-10T10:56:16Z</time>
      </trkpt>
      <trkpt lat="44.89569" lon="-0.42785">
        <ele>22.3</ele>
        <time>2020-09-10T10:56:18Z</time>
      </trkpt>
      <trkpt lat="44.8957" lon="-0.42785">
        <ele>22.3</ele>
        <time>2020-09-10T10:56:19Z</time>
      </trkpt>
      <trkpt lat="44.89571" lon="-0.42784">
        <ele>22.3</ele>
        <time>2020-09-10T10:56:20Z</time>
      </trkpt>
      <trkpt lat="44.89574" lon="-0.42783">
        <ele>22.3</ele>
        <time>2020-09-10T10:56:21Z</time>
      </trkpt>
      <trkpt lat="44.89575" lon="-0.42783">
        <ele>22.4</ele>
        <time>2020-09-10T10:56:23Z</time>
      </trkpt>
      <trkpt lat="44.89576" lon="-0.42783">
        <ele>22.5</ele>
        <time>2020-09-10T10:56:24Z</time>
      </trkpt>
      <trkpt lat="44.89577" lon="-0.42782">
        <ele>22.4</ele>
        <time>2020-09-10T10:56:25Z</time>
      </trkpt>
      <trkpt lat="44.89578" lon="-0.42782">
        <ele>22.4</ele>
        <time>2020-09-10T10:56:26Z</time>
      </trkpt>
      <trkpt lat="44.89581" lon="-0.42781">
        <ele>22.4</ele>
        <time>2020-09-10T10:56:27Z</time>
      </trkpt>
      <trkpt lat="44.89582" lon="-0.42781">
        <ele>22.5</ele>
        <time>2020-09-10T10:56:28Z</time>
      </trkpt>
      <trkpt lat="44.89583" lon="-0.42781">
        <ele>22.6</ele>
        <time>2020-09-10T10:56:29Z</time>
      </trkpt>
      <trkpt lat="44.89585" lon="-0.4278">
        <ele>22.6</ele>
        <time>2020-09-10T10:56:30Z</time>
      </trkpt>
      <trkpt lat="44.89586" lon="-0.4278">
        <ele>22.5</ele>
        <time>2020-09-10T10:56:32Z</time>
      </trkpt>
      <trkpt lat="44.89588" lon="-0.4278">
        <ele>22.6</ele>
        <time>2020-09-10T10:56:34Z</time>
      </trkpt>
      <trkpt lat="44.89589" lon="-0.42779">
        <ele>22.7</ele>
        <time>2020-09-10T10:56:35Z</time>
      </trkpt>
      <trkpt lat="44.8959" lon="-0.42779">
        <ele>22.7</ele>
        <time>2020-09-10T10:56:36Z</time>
      </trkpt>
      <trkpt lat="44.89592" lon="-0.42779">
        <ele>22.8</ele>
        <time>2020-09-10T10:56:38Z</time>
      </trkpt>
      <trkpt lat="44.89593" lon="-0.42779">
        <ele>22.8</ele>
        <time>2020-09-10T10:56:39Z</time>
      </trkpt>
      <trkpt lat="44.89595" lon="-0.42778">
        <ele>22.9</ele>
        <time>2020-09-10T10:56:41Z</time>
      </trkpt>
      <trkpt lat="44.89596" lon="-0.42778">
        <ele>22.8</ele>
        <time>2020-09-10T10:56:42Z</time>
      </trkpt>
      <trkpt lat="44.89597" lon="-0.42778">
        <ele>22.9</ele>
        <time>2020-09-10T10:56:43Z</time>
      </trkpt>
      <trkpt lat="44.89599" lon="-0.42777">
        <ele>22.9</ele>
        <time>2020-09-10T10:56:44Z</time>
      </trkpt>
      <trkpt lat="44.896" lon="-0.42777">
        <ele>22.9</ele>
        <time>2020-09-10T10:56:45Z</time>
      </trkpt>
      <trkpt lat="44.89601" lon="-0.42777">
        <ele>23</ele>
        <time>2020-09-10T10:56:46Z</time>
      </trkpt>
      <trkpt lat="44.89604" lon="-0.42777">
        <ele>23.1</ele>
        <time>2020-09-10T10:56:47Z</time>
      </trkpt>
      <trkpt lat="44.89607" lon="-0.42777">
        <ele>23.1</ele>
        <time>2020-09-10T10:56:48Z</time>
      </trkpt>
      <trkpt lat="44.89609" lon="-0.42777">
        <ele>23.1</ele>
        <time>2020-09-10T10:56:50Z</time>
      </trkpt>
      <trkpt lat="44.89613" lon="-0.42777">
        <ele>23.2</ele>
        <time>2020-09-10T10:56:52Z</time>
      </trkpt>
      <trkpt lat="44.89614" lon="-0.42777">
        <ele>23.2</ele>
        <time>2020-09-10T10:56:54Z</time>
      </trkpt>
      <trkpt lat="44.89615" lon="-0.42777">
        <ele>23.3</ele>
        <time>2020-09-10T10:56:55Z</time>
      </trkpt>
      <trkpt lat="44.89616" lon="-0.42777">
        <ele>23.4</ele>
        <time>2020-09-10T10:56:56Z</time>
      </trkpt>
      <trkpt lat="44.89617" lon="-0.42777">
        <ele>23.4</ele>
        <time>2020-09-10T10:56:57Z</time>
      </trkpt>
      <trkpt lat="44.89618" lon="-0.42777">
        <ele>23.4</ele>
        <time>2020-09-10T10:56:58Z</time>
      </trkpt>
      <trkpt lat="44.89619" lon="-0.42777">
        <ele>23.5</ele>
        <time>2020-09-10T10:56:59Z</time>
      </trkpt>
      <trkpt lat="44.8962" lon="-0.42777">
        <ele>23.6</ele>
        <time>2020-09-10T10:57:00Z</time>
      </trkpt>
      <trkpt lat="44.89621" lon="-0.42777">
        <ele>23.7</ele>
        <time>2020-09-10T10:57:01Z</time>
      </trkpt>
      <trkpt lat="44.89622" lon="-0.42776">
        <ele>23.7</ele>
        <time>2020-09-10T10:57:02Z</time>
      </trkpt>
      <trkpt lat="44.89624" lon="-0.42776">
        <ele>23.8</ele>
        <time>2020-09-10T10:57:04Z</time>
      </trkpt>
      <trkpt lat="44.89626" lon="-0.42776">
        <ele>23.8</ele>
        <time>2020-09-10T10:57:05Z</time>
      </trkpt>
      <trkpt lat="44.89628" lon="-0.42776">
        <ele>23.8</ele>
        <time>2020-09-10T10:57:07Z</time>
      </trkpt>
      <trkpt lat="44.89629" lon="-0.42775">
        <ele>23.9</ele>
        <time>2020-09-10T10:57:08Z</time>
      </trkpt>
      <trkpt lat="44.89629" lon="-0.42775">
        <ele>24</ele>
        <time>2020-09-10T10:57:09Z</time>
      </trkpt>
      <trkpt lat="44.8963" lon="-0.42775">
        <ele>24.1</ele>
        <time>2020-09-10T10:57:10Z</time>
      </trkpt>
      <trkpt lat="44.89631" lon="-0.42775">
        <ele>24.1</ele>
        <time>2020-09-10T10:57:11Z</time>
      </trkpt>
      <trkpt lat="44.89631" lon="-0.42775">
        <ele>24.2</ele>
        <time>2020-09-10T10:57:12Z</time>
      </trkpt>
      <trkpt lat="44.89632" lon="-0.42775">
        <ele>24.2</ele>
        <time>2020-09-10T10:57:13Z</time>
      </trkpt>
      <trkpt lat="44.89634" lon="-0.42775">
        <ele>24.2</ele>
        <time>2020-09-10T10:57:15Z</time>
      </trkpt>
      <trkpt lat="44.89635" lon="-0.42775">
        <ele>24.1</ele>
        <time>2020-09-10T10:57:16Z</time>
      </trkpt>
      <trkpt lat="44.89637" lon="-0.42774">
        <ele>24.1</ele>
        <time>2020-09-10T10:57:17Z</time>
      </trkpt>
      <trkpt lat="44.89638" lon="-0.42774">
        <ele>24.1</ele>
        <time>2020-09-10T10:57:18Z</time>
      </trkpt>
      <trkpt lat="44.8964" lon="-0.42774">
        <ele>24.1</ele>
        <time>2020-09-10T10:57:19Z</time>
      </trkpt>
      <trkpt lat="44.89641" lon="-0.42774">
        <ele>24</ele>
        <time>2020-09-10T10:57:21Z</time>
      </trkpt>
      <trkpt lat="44.89642" lon="-0.42773">
        <ele>24</ele>
        <time>2020-09-10T10:57:22Z</time>
      </trkpt>
      <trkpt lat="44.89645" lon="-0.42774">
        <ele>24</ele>
        <time>2020-09-10T10:57:24Z</time>
      </trkpt>
      <trkpt lat="44.89647" lon="-0.42774">
        <ele>24</ele>
        <time>2020-09-10T10:57:25Z</time>
      </trkpt>
      <trkpt lat="44.8965" lon="-0.42775">
        <ele>24</ele>
        <time>2020-09-10T10:57:26Z</time>
      </trkpt>
      <trkpt lat="44.89651" lon="-0.42775">
        <ele>24</ele>
        <time>2020-09-10T10:57:27Z</time>
      </trkpt>
      <trkpt lat="44.89652" lon="-0.42775">
        <ele>24</ele>
        <time>2020-09-10T10:57:28Z</time>
      </trkpt>
      <trkpt lat="44.89653" lon="-0.42776">
        <ele>24</ele>
        <time>2020-09-10T10:57:29Z</time>
      </trkpt>
      <trkpt lat="44.89654" lon="-0.42776">
        <ele>24</ele>
        <time>2020-09-10T10:57:31Z</time>
      </trkpt>
      <trkpt lat="44.89653" lon="-0.42777">
        <ele>24</ele>
        <time>2020-09-10T10:57:33Z</time>
      </trkpt>
      <trkpt lat="44.89654" lon="-0.42776">
        <ele>24</ele>
        <time>2020-09-10T10:57:34Z</time>
      </trkpt>
      <trkpt lat="44.89655" lon="-0.42775">
        <ele>24</ele>
        <time>2020-09-10T10:57:35Z</time>
      </trkpt>
      <trkpt lat="44.89655" lon="-0.42774">
        <ele>23.9</ele>
        <time>2020-09-10T10:57:36Z</time>
      </trkpt>
      <trkpt lat="44.89657" lon="-0.42771">
        <ele>23.9</ele>
        <time>2020-09-10T10:57:38Z</time>
      </trkpt>
      <trkpt lat="44.89657" lon="-0.42769">
        <ele>23.8</ele>
        <time>2020-09-10T10:57:40Z</time>
      </trkpt>
      <trkpt lat="44.89657" lon="-0.42767">
        <ele>23.8</ele>
        <time>2020-09-10T10:57:41Z</time>
      </trkpt>
      <trkpt lat="44.89657" lon="-0.42766">
        <ele>23.8</ele>
        <time>2020-09-10T10:57:42Z</time>
      </trkpt>
      <trkpt lat="44.89657" lon="-0.42765">
        <ele>23.7</ele>
        <time>2020-09-10T10:57:43Z</time>
      </trkpt>
      <trkpt lat="44.89657" lon="-0.42762">
        <ele>23.7</ele>
        <time>2020-09-10T10:57:44Z</time>
      </trkpt>
      <trkpt lat="44.89656" lon="-0.42761">
        <ele>23.7</ele>
        <time>2020-09-10T10:57:46Z</time>
      </trkpt>
      <trkpt lat="44.89656" lon="-0.4276">
        <ele>23.6</ele>
        <time>2020-09-10T10:57:47Z</time>
      </trkpt>
      <trkpt lat="44.89656" lon="-0.42757">
        <ele>23.5</ele>
        <time>2020-09-10T10:57:49Z</time>
      </trkpt>
      <trkpt lat="44.89656" lon="-0.42755">
        <ele>23.5</ele>
        <time>2020-09-10T10:57:50Z</time>
      </trkpt>
      <trkpt lat="44.89656" lon="-0.42754">
        <ele>23.5</ele>
        <time>2020-09-10T10:57:51Z</time>
      </trkpt>
      <trkpt lat="44.89657" lon="-0.42751">
        <ele>23.5</ele>
        <time>2020-09-10T10:57:52Z</time>
      </trkpt>
      <trkpt lat="44.89657" lon="-0.4275">
        <ele>23.5</ele>
        <time>2020-09-10T10:57:53Z</time>
      </trkpt>
      <trkpt lat="44.89657" lon="-0.42749">
        <ele>23.5</ele>
        <time>2020-09-10T10:57:54Z</time>
      </trkpt>
      <trkpt lat="44.89657" lon="-0.42748">
        <ele>23.4</ele>
        <time>2020-09-10T10:57:55Z</time>
      </trkpt>
      <trkpt lat="44.89658" lon="-0.42747">
        <ele>23.4</ele>
        <time>2020-09-10T10:57:57Z</time>
      </trkpt>
      <trkpt lat="44.89659" lon="-0.42746">
        <ele>23.4</ele>
        <time>2020-09-10T10:57:58Z</time>
      </trkpt>
      <trkpt lat="44.8966" lon="-0.42746">
        <ele>23.4</ele>
        <time>2020-09-10T10:57:59Z</time>
      </trkpt>
      <trkpt lat="44.89662" lon="-0.42745">
        <ele>23.4</ele>
        <time>2020-09-10T10:58:00Z</time>
      </trkpt>
      <trkpt lat="44.89663" lon="-0.42745">
        <ele>23.4</ele>
        <time>2020-09-10T10:58:02Z</time>
      </trkpt>
      <trkpt lat="44.89664" lon="-0.42744">
        <ele>23.4</ele>
        <time>2020-09-10T10:58:03Z</time>
      </trkpt>
      <trkpt lat="44.89665" lon="-0.42744">
        <ele>23.4</ele>
        <time>2020-09-10T10:58:04Z</time>
      </trkpt>
      <trkpt lat="44.89666" lon="-0.42743">
        <ele>23.4</ele>
        <time>2020-09-10T10:58:05Z</time>
      </trkpt>
      <trkpt lat="44.89667" lon="-0.42742">
        <ele>23.4</ele>
        <time>2020-09-10T10:58:06Z</time>
      </trkpt>
      <trkpt lat="44.89668" lon="-0.42742">
        <ele>23.4</ele>
        <time>2020-09-10T10:58:07Z</time>
      </trkpt>
      <trkpt lat="44.89669" lon="-0.42742">
        <ele>23.4</ele>
        <time>2020-09-10T10:58:09Z</time>
      </trkpt>
      <trkpt lat="44.89671" lon="-0.42741">
        <ele>23.4</ele>
        <time>2020-09-10T10:58:10Z</time>
      </trkpt>
      <trkpt lat="44.89673" lon="-0.42741">
        <ele>23.4</ele>
        <time>2020-09-10T10:58:11Z</time>
      </trkpt>
      <trkpt lat="44.89674" lon="-0.4274">
        <ele>23.4</ele>
        <time>2020-09-10T10:58:12Z</time>
      </trkpt>
      <trkpt lat="44.89676" lon="-0.4274">
        <ele>23.4</ele>
        <time>2020-09-10T10:58:14Z</time>
      </trkpt>
      <trkpt lat="44.89677" lon="-0.4274">
        <ele>23.4</ele>
        <time>2020-09-10T10:58:16Z</time>
      </trkpt>
      <trkpt lat="44.89677" lon="-0.42739">
        <ele>23.4</ele>
        <time>2020-09-10T10:58:17Z</time>
      </trkpt>
      <trkpt lat="44.89679" lon="-0.42739">
        <ele>23.4</ele>
        <time>2020-09-10T10:58:18Z</time>
      </trkpt>
      <trkpt lat="44.8968" lon="-0.42739">
        <ele>23.4</ele>
        <time>2020-09-10T10:58:20Z</time>
      </trkpt>
      <trkpt lat="44.89682" lon="-0.42738">
        <ele>23.4</ele>
        <time>2020-09-10T10:58:21Z</time>
      </trkpt>
      <trkpt lat="44.89683" lon="-0.42738">
        <ele>23.4</ele>
        <time>2020-09-10T10:58:22Z</time>
      </trkpt>
      <trkpt lat="44.89684" lon="-0.42737">
        <ele>23.4</ele>
        <time>2020-09-10T10:58:23Z</time>
      </trkpt>
      <trkpt lat="44.89685" lon="-0.42737">
        <ele>23.4</ele>
        <time>2020-09-10T10:58:24Z</time>
      </trkpt>
      <trkpt lat="44.89686" lon="-0.42737">
        <ele>23.4</ele>
        <time>2020-09-10T10:58:25Z</time>
      </trkpt>
      <trkpt lat="44.89688" lon="-0.42736">
        <ele>23.4</ele>
        <time>2020-09-10T10:58:26Z</time>
      </trkpt>
      <trkpt lat="44.89689" lon="-0.42736">
        <ele>23.4</ele>
        <time>2020-09-10T10:58:27Z</time>
      </trkpt>
      <trkpt lat="44.89691" lon="-0.42736">
        <ele>23.5</ele>
        <time>2020-09-10T10:58:29Z</time>
      </trkpt>
      <trkpt lat="44.89695" lon="-0.42736">
        <ele>23.5</ele>
        <time>2020-09-10T10:58:31Z</time>
      </trkpt>
      <trkpt lat="44.89697" lon="-0.42736">
        <ele>23.5</ele>
        <time>2020-09-10T10:58:32Z</time>
      </trkpt>
      <trkpt lat="44.89699" lon="-0.42735">
        <ele>23.6</ele>
        <time>2020-09-10T10:58:34Z</time>
      </trkpt>
      <trkpt lat="44.89701" lon="-0.42735">
        <ele>23.6</ele>
        <time>2020-09-10T10:58:35Z</time>
      </trkpt>
      <trkpt lat="44.89703" lon="-0.42735">
        <ele>23.7</ele>
        <time>2020-09-10T10:58:36Z</time>
      </trkpt>
      <trkpt lat="44.89704" lon="-0.42734">
        <ele>23.7</ele>
        <time>2020-09-10T10:58:37Z</time>
      </trkpt>
      <trkpt lat="44.89706" lon="-0.42734">
        <ele>23.7</ele>
        <time>2020-09-10T10:58:38Z</time>
      </trkpt>
      <trkpt lat="44.89707" lon="-0.42733">
        <ele>23.7</ele>
        <time>2020-09-10T10:58:39Z</time>
      </trkpt>
      <trkpt lat="44.89708" lon="-0.42733">
        <ele>23.8</ele>
        <time>2020-09-10T10:58:40Z</time>
      </trkpt>
      <trkpt lat="44.8971" lon="-0.42733">
        <ele>23.8</ele>
        <time>2020-09-10T10:58:41Z</time>
      </trkpt>
      <trkpt lat="44.89711" lon="-0.42733">
        <ele>23.9</ele>
        <time>2020-09-10T10:58:42Z</time>
      </trkpt>
      <trkpt lat="44.89712" lon="-0.42732">
        <ele>23.9</ele>
        <time>2020-09-10T10:58:43Z</time>
      </trkpt>
      <trkpt lat="44.89714" lon="-0.42732">
        <ele>24</ele>
        <time>2020-09-10T10:58:45Z</time>
      </trkpt>
      <trkpt lat="44.89715" lon="-0.42731">
        <ele>24</ele>
        <time>2020-09-10T10:58:46Z</time>
      </trkpt>
      <trkpt lat="44.89717" lon="-0.4273">
        <ele>24.2</ele>
        <time>2020-09-10T10:58:47Z</time>
      </trkpt>
      <trkpt lat="44.89718" lon="-0.4273">
        <ele>24.2</ele>
        <time>2020-09-10T10:58:49Z</time>
      </trkpt>
      <trkpt lat="44.89719" lon="-0.42729">
        <ele>24.2</ele>
        <time>2020-09-10T10:58:50Z</time>
      </trkpt>
      <trkpt lat="44.8972" lon="-0.42729">
        <ele>24.3</ele>
        <time>2020-09-10T10:58:51Z</time>
      </trkpt>
      <trkpt lat="44.89721" lon="-0.42728">
        <ele>24.3</ele>
        <time>2020-09-10T10:58:52Z</time>
      </trkpt>
      <trkpt lat="44.89722" lon="-0.42728">
        <ele>24.3</ele>
        <time>2020-09-10T10:58:53Z</time>
      </trkpt>
      <trkpt lat="44.89723" lon="-0.42727">
        <ele>24.3</ele>
        <time>2020-09-10T10:58:54Z</time>
      </trkpt>
      <trkpt lat="44.89724" lon="-0.42727">
        <ele>24.5</ele>
        <time>2020-09-10T10:58:55Z</time>
      </trkpt>
      <trkpt lat="44.89725" lon="-0.42726">
        <ele>24.6</ele>
        <time>2020-09-10T10:58:56Z</time>
      </trkpt>
      <trkpt lat="44.89726" lon="-0.42726">
        <ele>24.8</ele>
        <time>2020-09-10T10:58:58Z</time>
      </trkpt>
      <trkpt lat="44.89727" lon="-0.42725">
        <ele>24.8</ele>
        <time>2020-09-10T10:58:59Z</time>
      </trkpt>
      <trkpt lat="44.89728" lon="-0.42725">
        <ele>24.8</ele>
        <time>2020-09-10T10:59:00Z</time>
      </trkpt>
      <trkpt lat="44.8973" lon="-0.42724">
        <ele>25</ele>
        <time>2020-09-10T10:59:01Z</time>
      </trkpt>
      <trkpt lat="44.8973" lon="-0.42724">
        <ele>25</ele>
        <time>2020-09-10T10:59:02Z</time>
      </trkpt>
      <trkpt lat="44.89731" lon="-0.42724">
        <ele>25</ele>
        <time>2020-09-10T10:59:03Z</time>
      </trkpt>
      <trkpt lat="44.89732" lon="-0.42723">
        <ele>25</ele>
        <time>2020-09-10T10:59:04Z</time>
      </trkpt>
      <trkpt lat="44.89734" lon="-0.42723">
        <ele>25.1</ele>
        <time>2020-09-10T10:59:05Z</time>
      </trkpt>
      <trkpt lat="44.89734" lon="-0.42723">
        <ele>25.1</ele>
        <time>2020-09-10T10:59:06Z</time>
      </trkpt>
      <trkpt lat="44.89736" lon="-0.42723">
        <ele>25.3</ele>
        <time>2020-09-10T10:59:08Z</time>
      </trkpt>
      <trkpt lat="44.89738" lon="-0.42723">
        <ele>25.3</ele>
        <time>2020-09-10T10:59:10Z</time>
      </trkpt>
      <trkpt lat="44.89738" lon="-0.42723">
        <ele>25.6</ele>
        <time>2020-09-10T10:59:11Z</time>
      </trkpt>
      <trkpt lat="44.89739" lon="-0.42723">
        <ele>25.6</ele>
        <time>2020-09-10T10:59:13Z</time>
      </trkpt>
      <trkpt lat="44.89741" lon="-0.42723">
        <ele>25.6</ele>
        <time>2020-09-10T10:59:14Z</time>
      </trkpt>
      <trkpt lat="44.89742" lon="-0.42722">
        <ele>25.8</ele>
        <time>2020-09-10T10:59:15Z</time>
      </trkpt>
      <trkpt lat="44.89744" lon="-0.42722">
        <ele>25.8</ele>
        <time>2020-09-10T10:59:17Z</time>
      </trkpt>
      <trkpt lat="44.89745" lon="-0.42723">
        <ele>26.1</ele>
        <time>2020-09-10T10:59:18Z</time>
      </trkpt>
      <trkpt lat="44.89747" lon="-0.42723">
        <ele>26.1</ele>
        <time>2020-09-10T10:59:20Z</time>
      </trkpt>
      <trkpt lat="44.89748" lon="-0.42724">
        <ele>26.3</ele>
        <time>2020-09-10T10:59:21Z</time>
      </trkpt>
      <trkpt lat="44.8975" lon="-0.42724">
        <ele>26.3</ele>
        <time>2020-09-10T10:59:23Z</time>
      </trkpt>
      <trkpt lat="44.89751" lon="-0.42725">
        <ele>26.6</ele>
        <time>2020-09-10T10:59:24Z</time>
      </trkpt>
      <trkpt lat="44.89754" lon="-0.42726">
        <ele>26.9</ele>
        <time>2020-09-10T10:59:26Z</time>
      </trkpt>
      <trkpt lat="44.89755" lon="-0.42727">
        <ele>26.8</ele>
        <time>2020-09-10T10:59:27Z</time>
      </trkpt>
      <trkpt lat="44.89755" lon="-0.42727">
        <ele>26.8</ele>
        <time>2020-09-10T10:59:28Z</time>
      </trkpt>
      <trkpt lat="44.89758" lon="-0.42728">
        <ele>27.1</ele>
        <time>2020-09-10T10:59:30Z</time>
      </trkpt>
      <trkpt lat="44.89759" lon="-0.42728">
        <ele>27.3</ele>
        <time>2020-09-10T10:59:32Z</time>
      </trkpt>
      <trkpt lat="44.89761" lon="-0.42728">
        <ele>27.3</ele>
        <time>2020-09-10T10:59:33Z</time>
      </trkpt>
      <trkpt lat="44.89762" lon="-0.42728">
        <ele>27.3</ele>
        <time>2020-09-10T10:59:35Z</time>
      </trkpt>
      <trkpt lat="44.89764" lon="-0.42728">
        <ele>27.6</ele>
        <time>2020-09-10T10:59:36Z</time>
      </trkpt>
      <trkpt lat="44.89764" lon="-0.42727">
        <ele>27.6</ele>
        <time>2020-09-10T10:59:37Z</time>
      </trkpt>
      <trkpt lat="44.89765" lon="-0.42727">
        <ele>27.6</ele>
        <time>2020-09-10T10:59:38Z</time>
      </trkpt>
      <trkpt lat="44.89767" lon="-0.42726">
        <ele>28</ele>
        <time>2020-09-10T10:59:40Z</time>
      </trkpt>
      <trkpt lat="44.89768" lon="-0.42725">
        <ele>28</ele>
        <time>2020-09-10T10:59:41Z</time>
      </trkpt>
      <trkpt lat="44.8977" lon="-0.42725">
        <ele>28.3</ele>
        <time>2020-09-10T10:59:42Z</time>
      </trkpt>
      <trkpt lat="44.8977" lon="-0.42724">
        <ele>28.3</ele>
        <time>2020-09-10T10:59:43Z</time>
      </trkpt>
      <trkpt lat="44.89772" lon="-0.42723">
        <ele>28.6</ele>
        <time>2020-09-10T10:59:44Z</time>
      </trkpt>
      <trkpt lat="44.89773" lon="-0.42723">
        <ele>28.6</ele>
        <time>2020-09-10T10:59:46Z</time>
      </trkpt>
      <trkpt lat="44.89774" lon="-0.42722">
        <ele>28.7</ele>
        <time>2020-09-10T10:59:47Z</time>
      </trkpt>
      <trkpt lat="44.89775" lon="-0.42721">
        <ele>29</ele>
        <time>2020-09-10T10:59:48Z</time>
      </trkpt>
      <trkpt lat="44.89777" lon="-0.42721">
        <ele>29</ele>
        <time>2020-09-10T10:59:49Z</time>
      </trkpt>
      <trkpt lat="44.89779" lon="-0.4272">
        <ele>29.3</ele>
        <time>2020-09-10T10:59:50Z</time>
      </trkpt>
      <trkpt lat="44.8978" lon="-0.42719">
        <ele>29.3</ele>
        <time>2020-09-10T10:59:51Z</time>
      </trkpt>
      <trkpt lat="44.89782" lon="-0.42718">
        <ele>29.6</ele>
        <time>2020-09-10T10:59:53Z</time>
      </trkpt>
      <trkpt lat="44.89783" lon="-0.42718">
        <ele>29.6</ele>
        <time>2020-09-10T10:59:55Z</time>
      </trkpt>
      <trkpt lat="44.89784" lon="-0.42718">
        <ele>30</ele>
        <time>2020-09-10T10:59:56Z</time>
      </trkpt>
      <trkpt lat="44.89785" lon="-0.42718">
        <ele>30</ele>
        <time>2020-09-10T10:59:58Z</time>
      </trkpt>
      <trkpt lat="44.89786" lon="-0.42718">
        <ele>30.1</ele>
        <time>2020-09-10T10:59:59Z</time>
      </trkpt>
      <trkpt lat="44.89788" lon="-0.42717">
        <ele>30.4</ele>
        <time>2020-09-10T11:00:01Z</time>
      </trkpt>
      <trkpt lat="44.89789" lon="-0.42716">
        <ele>30.4</ele>
        <time>2020-09-10T11:00:02Z</time>
      </trkpt>
      <trkpt lat="44.8979" lon="-0.42716">
        <ele>30.7</ele>
        <time>2020-09-10T11:00:03Z</time>
      </trkpt>
      <trkpt lat="44.89791" lon="-0.42715">
        <ele>30.7</ele>
        <time>2020-09-10T11:00:04Z</time>
      </trkpt>
      <trkpt lat="44.89792" lon="-0.42715">
        <ele>30.7</ele>
        <time>2020-09-10T11:00:05Z</time>
      </trkpt>
      <trkpt lat="44.89793" lon="-0.42714">
        <ele>31</ele>
        <time>2020-09-10T11:00:06Z</time>
      </trkpt>
      <trkpt lat="44.89794" lon="-0.42713">
        <ele>31.1</ele>
        <time>2020-09-10T11:00:07Z</time>
      </trkpt>
      <trkpt lat="44.89795" lon="-0.42712">
        <ele>31.1</ele>
        <time>2020-09-10T11:00:09Z</time>
      </trkpt>
      <trkpt lat="44.89796" lon="-0.42712">
        <ele>31.4</ele>
        <time>2020-09-10T11:00:10Z</time>
      </trkpt>
      <trkpt lat="44.89798" lon="-0.4271">
        <ele>31.4</ele>
        <time>2020-09-10T11:00:11Z</time>
      </trkpt>
      <trkpt lat="44.89798" lon="-0.4271">
        <ele>31.4</ele>
        <time>2020-09-10T11:00:12Z</time>
      </trkpt>
      <trkpt lat="44.89799" lon="-0.42709">
        <ele>31.8</ele>
        <time>2020-09-10T11:00:13Z</time>
      </trkpt>
      <trkpt lat="44.89799" lon="-0.42709">
        <ele>31.8</ele>
        <time>2020-09-10T11:00:14Z</time>
      </trkpt>
      <trkpt lat="44.89801" lon="-0.42707">
        <ele>31.8</ele>
        <time>2020-09-10T11:00:16Z</time>
      </trkpt>
      <trkpt lat="44.89802" lon="-0.42706">
        <ele>31.8</ele>
        <time>2020-09-10T11:00:17Z</time>
      </trkpt>
      <trkpt lat="44.89802" lon="-0.42705">
        <ele>31.9</ele>
        <time>2020-09-10T11:00:18Z</time>
      </trkpt>
      <trkpt lat="44.89803" lon="-0.42705">
        <ele>31.9</ele>
        <time>2020-09-10T11:00:20Z</time>
      </trkpt>
      <trkpt lat="44.89804" lon="-0.42704">
        <ele>31.9</ele>
        <time>2020-09-10T11:00:21Z</time>
      </trkpt>
      <trkpt lat="44.89805" lon="-0.42702">
        <ele>32</ele>
        <time>2020-09-10T11:00:22Z</time>
      </trkpt>
      <trkpt lat="44.89806" lon="-0.42702">
        <ele>32</ele>
        <time>2020-09-10T11:00:24Z</time>
      </trkpt>
      <trkpt lat="44.89807" lon="-0.42701">
        <ele>32.1</ele>
        <time>2020-09-10T11:00:25Z</time>
      </trkpt>
      <trkpt lat="44.89808" lon="-0.42699">
        <ele>32.2</ele>
        <time>2020-09-10T11:00:26Z</time>
      </trkpt>
      <trkpt lat="44.89809" lon="-0.42699">
        <ele>32.2</ele>
        <time>2020-09-10T11:00:27Z</time>
      </trkpt>
      <trkpt lat="44.8981" lon="-0.42698">
        <ele>32.2</ele>
        <time>2020-09-10T11:00:28Z</time>
      </trkpt>
      <trkpt lat="44.89811" lon="-0.42697">
        <ele>32.3</ele>
        <time>2020-09-10T11:00:29Z</time>
      </trkpt>
      <trkpt lat="44.89812" lon="-0.42696">
        <ele>32.3</ele>
        <time>2020-09-10T11:00:30Z</time>
      </trkpt>
      <trkpt lat="44.89813" lon="-0.42695">
        <ele>32.4</ele>
        <time>2020-09-10T11:00:32Z</time>
      </trkpt>
      <trkpt lat="44.89813" lon="-0.42696">
        <ele>32.4</ele>
        <time>2020-09-10T11:00:33Z</time>
      </trkpt>
      <trkpt lat="44.89813" lon="-0.42697">
        <ele>32.4</ele>
        <time>2020-09-10T11:00:34Z</time>
      </trkpt>
      <trkpt lat="44.89812" lon="-0.42698">
        <ele>32.5</ele>
        <time>2020-09-10T11:00:35Z</time>
      </trkpt>
      <trkpt lat="44.89811" lon="-0.42698">
        <ele>32.5</ele>
        <time>2020-09-10T11:00:36Z</time>
      </trkpt>
      <trkpt lat="44.89811" lon="-0.42699">
        <ele>32.5</ele>
        <time>2020-09-10T11:00:37Z</time>
      </trkpt>
      <trkpt lat="44.8981" lon="-0.42699">
        <ele>32.6</ele>
        <time>2020-09-10T11:00:39Z</time>
      </trkpt>
      <trkpt lat="44.8981" lon="-0.427">
        <ele>32.6</ele>
        <time>2020-09-10T11:00:40Z</time>
      </trkpt>
      <trkpt lat="44.89811" lon="-0.427">
        <ele>32.6</ele>
        <time>2020-09-10T11:00:41Z</time>
      </trkpt>
      <trkpt lat="44.89812" lon="-0.427">
        <ele>32.6</ele>
        <time>2020-09-10T11:00:42Z</time>
      </trkpt>
      <trkpt lat="44.89813" lon="-0.427">
        <ele>32.7</ele>
        <time>2020-09-10T11:00:44Z</time>
      </trkpt>
      <trkpt lat="44.89814" lon="-0.42699">
        <ele>32.7</ele>
        <time>2020-09-10T11:00:45Z</time>
      </trkpt>
      <trkpt lat="44.89815" lon="-0.42698">
        <ele>32.8</ele>
        <time>2020-09-10T11:00:46Z</time>
      </trkpt>
      <trkpt lat="44.89816" lon="-0.42697">
        <ele>32.8</ele>
        <time>2020-09-10T11:00:47Z</time>
      </trkpt>
      <trkpt lat="44.89818" lon="-0.42696">
        <ele>32.9</ele>
        <time>2020-09-10T11:00:49Z</time>
      </trkpt>
      <trkpt lat="44.89821" lon="-0.42694">
        <ele>33.1</ele>
        <time>2020-09-10T11:00:50Z</time>
      </trkpt>
      <trkpt lat="44.89822" lon="-0.42694">
        <ele>33.1</ele>
        <time>2020-09-10T11:00:51Z</time>
      </trkpt>
      <trkpt lat="44.89823" lon="-0.42693">
        <ele>33.2</ele>
        <time>2020-09-10T11:00:52Z</time>
      </trkpt>
      <trkpt lat="44.89824" lon="-0.42693">
        <ele>33.3</ele>
        <time>2020-09-10T11:00:53Z</time>
      </trkpt>
      <trkpt lat="44.89828" lon="-0.42691">
        <ele>33.4</ele>
        <time>2020-09-10T11:00:55Z</time>
      </trkpt>
      <trkpt lat="44.89829" lon="-0.4269">
        <ele>33.5</ele>
        <time>2020-09-10T11:00:56Z</time>
      </trkpt>
      <trkpt lat="44.89831" lon="-0.42689">
        <ele>33.6</ele>
        <time>2020-09-10T11:00:58Z</time>
      </trkpt>
      <trkpt lat="44.89834" lon="-0.42687">
        <ele>33.8</ele>
        <time>2020-09-10T11:01:00Z</time>
      </trkpt>
      <trkpt lat="44.89835" lon="-0.42687">
        <ele>33.8</ele>
        <time>2020-09-10T11:01:01Z</time>
      </trkpt>
      <trkpt lat="44.89838" lon="-0.42685">
        <ele>34</ele>
        <time>2020-09-10T11:01:03Z</time>
      </trkpt>
      <trkpt lat="44.89839" lon="-0.42685">
        <ele>34.1</ele>
        <time>2020-09-10T11:01:04Z</time>
      </trkpt>
      <trkpt lat="44.89841" lon="-0.42683">
        <ele>34.2</ele>
        <time>2020-09-10T11:01:05Z</time>
      </trkpt>
      <trkpt lat="44.89844" lon="-0.42682">
        <ele>34.3</ele>
        <time>2020-09-10T11:01:07Z</time>
      </trkpt>
      <trkpt lat="44.89845" lon="-0.42681">
        <ele>34.4</ele>
        <time>2020-09-10T11:01:08Z</time>
      </trkpt>
      <trkpt lat="44.89846" lon="-0.4268">
        <ele>34.5</ele>
        <time>2020-09-10T11:01:09Z</time>
      </trkpt>
      <trkpt lat="44.89848" lon="-0.42679">
        <ele>34.6</ele>
        <time>2020-09-10T11:01:11Z</time>
      </trkpt>
      <trkpt lat="44.89849" lon="-0.42679">
        <ele>34.7</ele>
        <time>2020-09-10T11:01:12Z</time>
      </trkpt>
      <trkpt lat="44.8985" lon="-0.42678">
        <ele>34.7</ele>
        <time>2020-09-10T11:01:13Z</time>
      </trkpt>
      <trkpt lat="44.89851" lon="-0.42677">
        <ele>34.8</ele>
        <time>2020-09-10T11:01:14Z</time>
      </trkpt>
      <trkpt lat="44.89854" lon="-0.42676">
        <ele>35</ele>
        <time>2020-09-10T11:01:15Z</time>
      </trkpt>
      <trkpt lat="44.89855" lon="-0.42675">
        <ele>35.1</ele>
        <time>2020-09-10T11:01:17Z</time>
      </trkpt>
      <trkpt lat="44.89856" lon="-0.42674">
        <ele>35.2</ele>
        <time>2020-09-10T11:01:18Z</time>
      </trkpt>
      <trkpt lat="44.89857" lon="-0.42673">
        <ele>35.3</ele>
        <time>2020-09-10T11:01:19Z</time>
      </trkpt>
      <trkpt lat="44.89858" lon="-0.42673">
        <ele>35.4</ele>
        <time>2020-09-10T11:01:20Z</time>
      </trkpt>
      <trkpt lat="44.89861" lon="-0.42671">
        <ele>35.5</ele>
        <time>2020-09-10T11:01:21Z</time>
      </trkpt>
      <trkpt lat="44.89862" lon="-0.4267">
        <ele>35.6</ele>
        <time>2020-09-10T11:01:23Z</time>
      </trkpt>
      <trkpt lat="44.89864" lon="-0.42669">
        <ele>35.7</ele>
        <time>2020-09-10T11:01:24Z</time>
      </trkpt>
      <trkpt lat="44.89865" lon="-0.42668">
        <ele>35.8</ele>
        <time>2020-09-10T11:01:25Z</time>
      </trkpt>
      <trkpt lat="44.89866" lon="-0.42667">
        <ele>35.9</ele>
        <time>2020-09-10T11:01:27Z</time>
      </trkpt>
      <trkpt lat="44.89868" lon="-0.42667">
        <ele>36</ele>
        <time>2020-09-10T11:01:28Z</time>
      </trkpt>
      <trkpt lat="44.89869" lon="-0.42666">
        <ele>36.1</ele>
        <time>2020-09-10T11:01:29Z</time>
      </trkpt>
      <trkpt lat="44.89871" lon="-0.42665">
        <ele>36.2</ele>
        <time>2020-09-10T11:01:31Z</time>
      </trkpt>
      <trkpt lat="44.89872" lon="-0.42664">
        <ele>36.3</ele>
        <time>2020-09-10T11:01:32Z</time>
      </trkpt>
      <trkpt lat="44.89873" lon="-0.42663">
        <ele>36.3</ele>
        <time>2020-09-10T11:01:33Z</time>
      </trkpt>
      <trkpt lat="44.89874" lon="-0.42661">
        <ele>36.4</ele>
        <time>2020-09-10T11:01:35Z</time>
      </trkpt>
      <trkpt lat="44.89874" lon="-0.42661">
        <ele>36.4</ele>
        <time>2020-09-10T11:01:36Z</time>
      </trkpt>
      <trkpt lat="44.89875" lon="-0.4266">
        <ele>36.5</ele>
        <time>2020-09-10T11:01:37Z</time>
      </trkpt>
      <trkpt lat="44.89876" lon="-0.42659">
        <ele>36.5</ele>
        <time>2020-09-10T11:01:39Z</time>
      </trkpt>
      <trkpt lat="44.89877" lon="-0.42659">
        <ele>36.6</ele>
        <time>2020-09-10T11:01:40Z</time>
      </trkpt>
      <trkpt lat="44.89879" lon="-0.42658">
        <ele>36.6</ele>
        <time>2020-09-10T11:01:41Z</time>
      </trkpt>
      <trkpt lat="44.89879" lon="-0.42658">
        <ele>36.6</ele>
        <time>2020-09-10T11:01:42Z</time>
      </trkpt>
      <trkpt lat="44.8988" lon="-0.42659">
        <ele>36.7</ele>
        <time>2020-09-10T11:01:43Z</time>
      </trkpt>
      <trkpt lat="44.89881" lon="-0.42659">
        <ele>36.7</ele>
        <time>2020-09-10T11:01:45Z</time>
      </trkpt>
      <trkpt lat="44.89882" lon="-0.42659">
        <ele>36.7</ele>
        <time>2020-09-10T11:01:46Z</time>
      </trkpt>
      <trkpt lat="44.89883" lon="-0.42658">
        <ele>36.7</ele>
        <time>2020-09-10T11:01:47Z</time>
      </trkpt>
      <trkpt lat="44.89884" lon="-0.42658">
        <ele>36.8</ele>
        <time>2020-09-10T11:01:49Z</time>
      </trkpt>
      <trkpt lat="44.89886" lon="-0.42658">
        <ele>36.8</ele>
        <time>2020-09-10T11:01:51Z</time>
      </trkpt>
      <trkpt lat="44.89887" lon="-0.42658">
        <ele>36.9</ele>
        <time>2020-09-10T11:01:53Z</time>
      </trkpt>
      <trkpt lat="44.89887" lon="-0.42658">
        <ele>36.9</ele>
        <time>2020-09-10T11:01:54Z</time>
      </trkpt>
      <trkpt lat="44.89887" lon="-0.42658">
        <ele>36.9</ele>
        <time>2020-09-10T11:01:55Z</time>
      </trkpt>
      <trkpt lat="44.89889" lon="-0.42658">
        <ele>36.9</ele>
        <time>2020-09-10T11:01:57Z</time>
      </trkpt>
      <trkpt lat="44.89889" lon="-0.42658">
        <ele>37</ele>
        <time>2020-09-10T11:01:58Z</time>
      </trkpt>
      <trkpt lat="44.8989" lon="-0.42658">
        <ele>37</ele>
        <time>2020-09-10T11:01:59Z</time>
      </trkpt>
      <trkpt lat="44.89891" lon="-0.42657">
        <ele>37</ele>
        <time>2020-09-10T11:02:00Z</time>
      </trkpt>
      <trkpt lat="44.89893" lon="-0.42657">
        <ele>37.1</ele>
        <time>2020-09-10T11:02:01Z</time>
      </trkpt>
      <trkpt lat="44.89894" lon="-0.42657">
        <ele>37.1</ele>
        <time>2020-09-10T11:02:02Z</time>
      </trkpt>
      <trkpt lat="44.89895" lon="-0.42656">
        <ele>37.1</ele>
        <time>2020-09-10T11:02:04Z</time>
      </trkpt>
      <trkpt lat="44.89896" lon="-0.42655">
        <ele>37.1</ele>
        <time>2020-09-10T11:02:05Z</time>
      </trkpt>
      <trkpt lat="44.89897" lon="-0.42655">
        <ele>37.2</ele>
        <time>2020-09-10T11:02:06Z</time>
      </trkpt>
      <trkpt lat="44.89898" lon="-0.42655">
        <ele>37.2</ele>
        <time>2020-09-10T11:02:07Z</time>
      </trkpt>
      <trkpt lat="44.89899" lon="-0.42655">
        <ele>37.2</ele>
        <time>2020-09-10T11:02:08Z</time>
      </trkpt>
      <trkpt lat="44.899" lon="-0.42655">
        <ele>37.2</ele>
        <time>2020-09-10T11:02:10Z</time>
      </trkpt>
      <trkpt lat="44.89901" lon="-0.42655">
        <ele>37.2</ele>
        <time>2020-09-10T11:02:11Z</time>
      </trkpt>
      <trkpt lat="44.89902" lon="-0.42655">
        <ele>37.3</ele>
        <time>2020-09-10T11:02:12Z</time>
      </trkpt>
      <trkpt lat="44.89904" lon="-0.42655">
        <ele>37.3</ele>
        <time>2020-09-10T11:02:13Z</time>
      </trkpt>
      <trkpt lat="44.89905" lon="-0.42655">
        <ele>37.3</ele>
        <time>2020-09-10T11:02:14Z</time>
      </trkpt>
      <trkpt lat="44.89905" lon="-0.42654">
        <ele>37.3</ele>
        <time>2020-09-10T11:02:15Z</time>
      </trkpt>
      <trkpt lat="44.89906" lon="-0.42653">
        <ele>37.4</ele>
        <time>2020-09-10T11:02:16Z</time>
      </trkpt>
      <trkpt lat="44.89908" lon="-0.42653">
        <ele>37.4</ele>
        <time>2020-09-10T11:02:18Z</time>
      </trkpt>
      <trkpt lat="44.89909" lon="-0.42652">
        <ele>37.4</ele>
        <time>2020-09-10T11:02:19Z</time>
      </trkpt>
      <trkpt lat="44.8991" lon="-0.42652">
        <ele>37.4</ele>
        <time>2020-09-10T11:02:20Z</time>
      </trkpt>
      <trkpt lat="44.89911" lon="-0.42652">
        <ele>37.4</ele>
        <time>2020-09-10T11:02:21Z</time>
      </trkpt>
      <trkpt lat="44.89912" lon="-0.42652">
        <ele>37.4</ele>
        <time>2020-09-10T11:02:22Z</time>
      </trkpt>
      <trkpt lat="44.89912" lon="-0.42652">
        <ele>37.4</ele>
        <time>2020-09-10T11:02:23Z</time>
      </trkpt>
      <trkpt lat="44.89914" lon="-0.42652">
        <ele>37.5</ele>
        <time>2020-09-10T11:02:25Z</time>
      </trkpt>
      <trkpt lat="44.89914" lon="-0.42651">
        <ele>37.5</ele>
        <time>2020-09-10T11:02:26Z</time>
      </trkpt>
      <trkpt lat="44.89915" lon="-0.42651">
        <ele>37.5</ele>
        <time>2020-09-10T11:02:27Z</time>
      </trkpt>
      <trkpt lat="44.89917" lon="-0.4265">
        <ele>37.5</ele>
        <time>2020-09-10T11:02:29Z</time>
      </trkpt>
      <trkpt lat="44.89919" lon="-0.4265">
        <ele>37.5</ele>
        <time>2020-09-10T11:02:31Z</time>
      </trkpt>
      <trkpt lat="44.8992" lon="-0.42649">
        <ele>37.5</ele>
        <time>2020-09-10T11:02:32Z</time>
      </trkpt>
      <trkpt lat="44.89921" lon="-0.42649">
        <ele>37.5</ele>
        <time>2020-09-10T11:02:33Z</time>
      </trkpt>
      <trkpt lat="44.89922" lon="-0.42648">
        <ele>37.5</ele>
        <time>2020-09-10T11:02:35Z</time>
      </trkpt>
      <trkpt lat="44.89923" lon="-0.42646">
        <ele>37.4</ele>
        <time>2020-09-10T11:02:37Z</time>
      </trkpt>
      <trkpt lat="44.89925" lon="-0.42644">
        <ele>37.4</ele>
        <time>2020-09-10T11:02:39Z</time>
      </trkpt>
      <trkpt lat="44.89926" lon="-0.42641">
        <ele>37.5</ele>
        <time>2020-09-10T11:02:41Z</time>
      </trkpt>
      <trkpt lat="44.89926" lon="-0.42639">
        <ele>37.5</ele>
        <time>2020-09-10T11:02:42Z</time>
      </trkpt>
      <trkpt lat="44.89926" lon="-0.42637">
        <ele>37.5</ele>
        <time>2020-09-10T11:02:43Z</time>
      </trkpt>
      <trkpt lat="44.89926" lon="-0.42635">
        <ele>37.5</ele>
        <time>2020-09-10T11:02:45Z</time>
      </trkpt>
      <trkpt lat="44.89926" lon="-0.42633">
        <ele>37.6</ele>
        <time>2020-09-10T11:02:46Z</time>
      </trkpt>
      <trkpt lat="44.89926" lon="-0.42631">
        <ele>37.6</ele>
        <time>2020-09-10T11:02:47Z</time>
      </trkpt>
      <trkpt lat="44.89926" lon="-0.42629">
        <ele>37.6</ele>
        <time>2020-09-10T11:02:49Z</time>
      </trkpt>
      <trkpt lat="44.89926" lon="-0.42628">
        <ele>37.6</ele>
        <time>2020-09-10T11:02:50Z</time>
      </trkpt>
      <trkpt lat="44.89926" lon="-0.42626">
        <ele>37.6</ele>
        <time>2020-09-10T11:02:52Z</time>
      </trkpt>
      <trkpt lat="44.89925" lon="-0.42624">
        <ele>37.6</ele>
        <time>2020-09-10T11:02:53Z</time>
      </trkpt>
      <trkpt lat="44.89925" lon="-0.42623">
        <ele>37.7</ele>
        <time>2020-09-10T11:02:54Z</time>
      </trkpt>
      <trkpt lat="44.89924" lon="-0.42621">
        <ele>37.7</ele>
        <time>2020-09-10T11:02:55Z</time>
      </trkpt>
      <trkpt lat="44.89923" lon="-0.42617">
        <ele>37.7</ele>
        <time>2020-09-10T11:02:56Z</time>
      </trkpt>
      <trkpt lat="44.89922" lon="-0.42616">
        <ele>37.7</ele>
        <time>2020-09-10T11:02:57Z</time>
      </trkpt>
      <trkpt lat="44.8992" lon="-0.42612">
        <ele>37.8</ele>
        <time>2020-09-10T11:02:59Z</time>
      </trkpt>
      <trkpt lat="44.89919" lon="-0.4261">
        <ele>37.8</ele>
        <time>2020-09-10T11:03:00Z</time>
      </trkpt>
      <trkpt lat="44.89918" lon="-0.42607">
        <ele>37.9</ele>
        <time>2020-09-10T11:03:01Z</time>
      </trkpt>
      <trkpt lat="44.89917" lon="-0.42606">
        <ele>37.9</ele>
        <time>2020-09-10T11:03:02Z</time>
      </trkpt>
      <trkpt lat="44.89916" lon="-0.42603">
        <ele>37.9</ele>
        <time>2020-09-10T11:03:04Z</time>
      </trkpt>
      <trkpt lat="44.89915" lon="-0.42602">
        <ele>37.9</ele>
        <time>2020-09-10T11:03:05Z</time>
      </trkpt>
      <trkpt lat="44.89914" lon="-0.426">
        <ele>38</ele>
        <time>2020-09-10T11:03:06Z</time>
      </trkpt>
      <trkpt lat="44.89914" lon="-0.42599">
        <ele>38</ele>
        <time>2020-09-10T11:03:07Z</time>
      </trkpt>
      <trkpt lat="44.89914" lon="-0.42598">
        <ele>38</ele>
        <time>2020-09-10T11:03:08Z</time>
      </trkpt>
      <trkpt lat="44.89913" lon="-0.42597">
        <ele>38</ele>
        <time>2020-09-10T11:03:09Z</time>
      </trkpt>
      <trkpt lat="44.89913" lon="-0.42594">
        <ele>38</ele>
        <time>2020-09-10T11:03:11Z</time>
      </trkpt>
      <trkpt lat="44.89913" lon="-0.42593">
        <ele>38</ele>
        <time>2020-09-10T11:03:12Z</time>
      </trkpt>
      <trkpt lat="44.89912" lon="-0.42591">
        <ele>38.1</ele>
        <time>2020-09-10T11:03:14Z</time>
      </trkpt>
      <trkpt lat="44.89912" lon="-0.42589">
        <ele>38.1</ele>
        <time>2020-09-10T11:03:15Z</time>
      </trkpt>
      <trkpt lat="44.89911" lon="-0.42587">
        <ele>38.1</ele>
        <time>2020-09-10T11:03:16Z</time>
      </trkpt>
      <trkpt lat="44.89911" lon="-0.42585">
        <ele>38.1</ele>
        <time>2020-09-10T11:03:17Z</time>
      </trkpt>
      <trkpt lat="44.8991" lon="-0.42583">
        <ele>38.1</ele>
        <time>2020-09-10T11:03:18Z</time>
      </trkpt>
      <trkpt lat="44.8991" lon="-0.42581">
        <ele>38.2</ele>
        <time>2020-09-10T11:03:19Z</time>
      </trkpt>
      <trkpt lat="44.89909" lon="-0.42579">
        <ele>38.2</ele>
        <time>2020-09-10T11:03:21Z</time>
      </trkpt>
      <trkpt lat="44.89909" lon="-0.42577">
        <ele>38.2</ele>
        <time>2020-09-10T11:03:22Z</time>
      </trkpt>
      <trkpt lat="44.89908" lon="-0.42573">
        <ele>38.2</ele>
        <time>2020-09-10T11:03:24Z</time>
      </trkpt>
      <trkpt lat="44.89908" lon="-0.42572">
        <ele>38.2</ele>
        <time>2020-09-10T11:03:25Z</time>
      </trkpt>
      <trkpt lat="44.89907" lon="-0.42568">
        <ele>38.2</ele>
        <time>2020-09-10T11:03:27Z</time>
      </trkpt>
      <trkpt lat="44.89907" lon="-0.42566">
        <ele>38.3</ele>
        <time>2020-09-10T11:03:28Z</time>
      </trkpt>
      <trkpt lat="44.89906" lon="-0.42562">
        <ele>38.3</ele>
        <time>2020-09-10T11:03:30Z</time>
      </trkpt>
      <trkpt lat="44.89906" lon="-0.42561">
        <ele>38.3</ele>
        <time>2020-09-10T11:03:31Z</time>
      </trkpt>
      <trkpt lat="44.89906" lon="-0.42558">
        <ele>38.3</ele>
        <time>2020-09-10T11:03:32Z</time>
      </trkpt>
      <trkpt lat="44.89906" lon="-0.42555">
        <ele>38.3</ele>
        <time>2020-09-10T11:03:34Z</time>
      </trkpt>
      <trkpt lat="44.89906" lon="-0.42551">
        <ele>38.3</ele>
        <time>2020-09-10T11:03:36Z</time>
      </trkpt>
      <trkpt lat="44.89906" lon="-0.4255">
        <ele>38.3</ele>
        <time>2020-09-10T11:03:37Z</time>
      </trkpt>
      <trkpt lat="44.89906" lon="-0.42549">
        <ele>38.3</ele>
        <time>2020-09-10T11:03:38Z</time>
      </trkpt>
      <trkpt lat="44.89906" lon="-0.42547">
        <ele>38.3</ele>
        <time>2020-09-10T11:03:39Z</time>
      </trkpt>
      <trkpt lat="44.89906" lon="-0.42546">
        <ele>38.3</ele>
        <time>2020-09-10T11:03:40Z</time>
      </trkpt>
      <trkpt lat="44.89906" lon="-0.42545">
        <ele>38.3</ele>
        <time>2020-09-10T11:03:42Z</time>
      </trkpt>
      <trkpt lat="44.89905" lon="-0.42541">
        <ele>38.4</ele>
        <time>2020-09-10T11:03:43Z</time>
      </trkpt>
      <trkpt lat="44.89905" lon="-0.4254">
        <ele>38.4</ele>
        <time>2020-09-10T11:03:45Z</time>
      </trkpt>
      <trkpt lat="44.89905" lon="-0.42539">
        <ele>38.4</ele>
        <time>2020-09-10T11:03:46Z</time>
      </trkpt>
      <trkpt lat="44.89905" lon="-0.42538">
        <ele>38.4</ele>
        <time>2020-09-10T11:03:47Z</time>
      </trkpt>
      <trkpt lat="44.89904" lon="-0.42536">
        <ele>38.4</ele>
        <time>2020-09-10T11:03:48Z</time>
      </trkpt>
      <trkpt lat="44.89904" lon="-0.42534">
        <ele>38.4</ele>
        <time>2020-09-10T11:03:49Z</time>
      </trkpt>
      <trkpt lat="44.89904" lon="-0.42532">
        <ele>38.4</ele>
        <time>2020-09-10T11:03:50Z</time>
      </trkpt>
      <trkpt lat="44.89905" lon="-0.42531">
        <ele>38.4</ele>
        <time>2020-09-10T11:03:51Z</time>
      </trkpt>
      <trkpt lat="44.89906" lon="-0.4253">
        <ele>38.4</ele>
        <time>2020-09-10T11:03:53Z</time>
      </trkpt>
      <trkpt lat="44.89906" lon="-0.42529">
        <ele>38.4</ele>
        <time>2020-09-10T11:03:54Z</time>
      </trkpt>
      <trkpt lat="44.89907" lon="-0.42528">
        <ele>38.4</ele>
        <time>2020-09-10T11:03:55Z</time>
      </trkpt>
      <trkpt lat="44.89907" lon="-0.42527">
        <ele>38.4</ele>
        <time>2020-09-10T11:03:57Z</time>
      </trkpt>
      <trkpt lat="44.89907" lon="-0.42526">
        <ele>38.3</ele>
        <time>2020-09-10T11:03:59Z</time>
      </trkpt>
      <trkpt lat="44.89908" lon="-0.42526">
        <ele>38.3</ele>
        <time>2020-09-10T11:04:00Z</time>
      </trkpt>
      <trkpt lat="44.89908" lon="-0.42525">
        <ele>38.3</ele>
        <time>2020-09-10T11:04:01Z</time>
      </trkpt>
      <trkpt lat="44.89908" lon="-0.42525">
        <ele>38.3</ele>
        <time>2020-09-10T11:04:02Z</time>
      </trkpt>
      <trkpt lat="44.89908" lon="-0.42523">
        <ele>38.3</ele>
        <time>2020-09-10T11:04:03Z</time>
      </trkpt>
      <trkpt lat="44.89908" lon="-0.42521">
        <ele>38.3</ele>
        <time>2020-09-10T11:04:05Z</time>
      </trkpt>
      <trkpt lat="44.89908" lon="-0.42519">
        <ele>38.3</ele>
        <time>2020-09-10T11:04:06Z</time>
      </trkpt>
      <trkpt lat="44.89907" lon="-0.42518">
        <ele>38.3</ele>
        <time>2020-09-10T11:04:07Z</time>
      </trkpt>
      <trkpt lat="44.89906" lon="-0.42516">
        <ele>38.3</ele>
        <time>2020-09-10T11:04:09Z</time>
      </trkpt>
      <trkpt lat="44.89906" lon="-0.42515">
        <ele>38.3</ele>
        <time>2020-09-10T11:04:10Z</time>
      </trkpt>
      <trkpt lat="44.89904" lon="-0.42514">
        <ele>38.3</ele>
        <time>2020-09-10T11:04:11Z</time>
      </trkpt>
      <trkpt lat="44.89902" lon="-0.42514">
        <ele>38.3</ele>
        <time>2020-09-10T11:04:12Z</time>
      </trkpt>
      <trkpt lat="44.89901" lon="-0.42514">
        <ele>38.3</ele>
        <time>2020-09-10T11:04:13Z</time>
      </trkpt>
      <trkpt lat="44.89901" lon="-0.42514">
        <ele>38.3</ele>
        <time>2020-09-10T11:04:14Z</time>
      </trkpt>
      <trkpt lat="44.899" lon="-0.42513">
        <ele>38.3</ele>
        <time>2020-09-10T11:04:15Z</time>
      </trkpt>
      <trkpt lat="44.89899" lon="-0.42511">
        <ele>38.3</ele>
        <time>2020-09-10T11:04:16Z</time>
      </trkpt>
      <trkpt lat="44.89899" lon="-0.42509">
        <ele>38.3</ele>
        <time>2020-09-10T11:04:18Z</time>
      </trkpt>
      <trkpt lat="44.89899" lon="-0.42508">
        <ele>38.3</ele>
        <time>2020-09-10T11:04:19Z</time>
      </trkpt>
      <trkpt lat="44.89899" lon="-0.42507">
        <ele>38.3</ele>
        <time>2020-09-10T11:04:20Z</time>
      </trkpt>
      <trkpt lat="44.89899" lon="-0.42506">
        <ele>38.3</ele>
        <time>2020-09-10T11:04:21Z</time>
      </trkpt>
      <trkpt lat="44.89899" lon="-0.42504">
        <ele>38.3</ele>
        <time>2020-09-10T11:04:22Z</time>
      </trkpt>
      <trkpt lat="44.89899" lon="-0.42503">
        <ele>38.3</ele>
        <time>2020-09-10T11:04:23Z</time>
      </trkpt>
      <trkpt lat="44.899" lon="-0.42502">
        <ele>38.3</ele>
        <time>2020-09-10T11:04:25Z</time>
      </trkpt>
      <trkpt lat="44.899" lon="-0.42501">
        <ele>38.3</ele>
        <time>2020-09-10T11:04:26Z</time>
      </trkpt>
      <trkpt lat="44.899" lon="-0.42499">
        <ele>38.3</ele>
        <time>2020-09-10T11:04:27Z</time>
      </trkpt>
      <trkpt lat="44.899" lon="-0.42498">
        <ele>38.3</ele>
        <time>2020-09-10T11:04:28Z</time>
      </trkpt>
      <trkpt lat="44.899" lon="-0.42497">
        <ele>38.3</ele>
        <time>2020-09-10T11:04:29Z</time>
      </trkpt>
      <trkpt lat="44.899" lon="-0.42496">
        <ele>38.3</ele>
        <time>2020-09-10T11:04:30Z</time>
      </trkpt>
      <trkpt lat="44.899" lon="-0.42495">
        <ele>38.3</ele>
        <time>2020-09-10T11:04:31Z</time>
      </trkpt>
      <trkpt lat="44.899" lon="-0.42492">
        <ele>38.3</ele>
        <time>2020-09-10T11:04:33Z</time>
      </trkpt>
      <trkpt lat="44.899" lon="-0.42489">
        <ele>38.3</ele>
        <time>2020-09-10T11:04:35Z</time>
      </trkpt>
      <trkpt lat="44.89901" lon="-0.42485">
        <ele>38.4</ele>
        <time>2020-09-10T11:04:36Z</time>
      </trkpt>
      <trkpt lat="44.89901" lon="-0.42483">
        <ele>38.4</ele>
        <time>2020-09-10T11:04:38Z</time>
      </trkpt>
      <trkpt lat="44.89901" lon="-0.42482">
        <ele>38.4</ele>
        <time>2020-09-10T11:04:39Z</time>
      </trkpt>
      <trkpt lat="44.89901" lon="-0.4248">
        <ele>38.4</ele>
        <time>2020-09-10T11:04:40Z</time>
      </trkpt>
      <trkpt lat="44.89901" lon="-0.42478">
        <ele>38.4</ele>
        <time>2020-09-10T11:04:41Z</time>
      </trkpt>
      <trkpt lat="44.89901" lon="-0.42477">
        <ele>38.4</ele>
        <time>2020-09-10T11:04:42Z</time>
      </trkpt>
      <trkpt lat="44.89901" lon="-0.42476">
        <ele>38.4</ele>
        <time>2020-09-10T11:04:43Z</time>
      </trkpt>
      <trkpt lat="44.89901" lon="-0.42474">
        <ele>38.4</ele>
        <time>2020-09-10T11:04:44Z</time>
      </trkpt>
      <trkpt lat="44.89901" lon="-0.4247">
        <ele>38.4</ele>
        <time>2020-09-10T11:04:46Z</time>
      </trkpt>
      <trkpt lat="44.89901" lon="-0.42467">
        <ele>38.4</ele>
        <time>2020-09-10T11:04:48Z</time>
      </trkpt>
      <trkpt lat="44.89901" lon="-0.42466">
        <ele>38.4</ele>
        <time>2020-09-10T11:04:49Z</time>
      </trkpt>
      <trkpt lat="44.89901" lon="-0.42464">
        <ele>38.4</ele>
        <time>2020-09-10T11:04:50Z</time>
      </trkpt>
      <trkpt lat="44.899" lon="-0.42461">
        <ele>38.4</ele>
        <time>2020-09-10T11:04:52Z</time>
      </trkpt>
      <trkpt lat="44.899" lon="-0.4246">
        <ele>38.4</ele>
        <time>2020-09-10T11:04:53Z</time>
      </trkpt>
      <trkpt lat="44.899" lon="-0.42458">
        <ele>38.5</ele>
        <time>2020-09-10T11:04:55Z</time>
      </trkpt>
      <trkpt lat="44.899" lon="-0.42456">
        <ele>38.5</ele>
        <time>2020-09-10T11:04:56Z</time>
      </trkpt>
      <trkpt lat="44.899" lon="-0.42454">
        <ele>38.5</ele>
        <time>2020-09-10T11:04:57Z</time>
      </trkpt>
      <trkpt lat="44.899" lon="-0.42453">
        <ele>38.5</ele>
        <time>2020-09-10T11:04:58Z</time>
      </trkpt>
      <trkpt lat="44.89899" lon="-0.42451">
        <ele>38.5</ele>
        <time>2020-09-10T11:05:00Z</time>
      </trkpt>
      <trkpt lat="44.89899" lon="-0.4245">
        <ele>38.5</ele>
        <time>2020-09-10T11:05:01Z</time>
      </trkpt>
      <trkpt lat="44.89899" lon="-0.42449">
        <ele>38.5</ele>
        <time>2020-09-10T11:05:02Z</time>
      </trkpt>
      <trkpt lat="44.89899" lon="-0.42448">
        <ele>38.5</ele>
        <time>2020-09-10T11:05:04Z</time>
      </trkpt>
      <trkpt lat="44.899" lon="-0.42447">
        <ele>38.5</ele>
        <time>2020-09-10T11:05:05Z</time>
      </trkpt>
      <trkpt lat="44.899" lon="-0.42445">
        <ele>38.5</ele>
        <time>2020-09-10T11:05:06Z</time>
      </trkpt>
      <trkpt lat="44.899" lon="-0.42443">
        <ele>38.6</ele>
        <time>2020-09-10T11:05:07Z</time>
      </trkpt>
      <trkpt lat="44.89901" lon="-0.42442">
        <ele>38.6</ele>
        <time>2020-09-10T11:05:08Z</time>
      </trkpt>
      <trkpt lat="44.89901" lon="-0.42439">
        <ele>38.6</ele>
        <time>2020-09-10T11:05:10Z</time>
      </trkpt>
      <trkpt lat="44.89901" lon="-0.42437">
        <ele>38.6</ele>
        <time>2020-09-10T11:05:11Z</time>
      </trkpt>
      <trkpt lat="44.89901" lon="-0.42435">
        <ele>38.6</ele>
        <time>2020-09-10T11:05:13Z</time>
      </trkpt>
      <trkpt lat="44.89901" lon="-0.42434">
        <ele>38.6</ele>
        <time>2020-09-10T11:05:14Z</time>
      </trkpt>
      <trkpt lat="44.89901" lon="-0.42432">
        <ele>38.7</ele>
        <time>2020-09-10T11:05:15Z</time>
      </trkpt>
      <trkpt lat="44.89902" lon="-0.42431">
        <ele>38.7</ele>
        <time>2020-09-10T11:05:17Z</time>
      </trkpt>
      <trkpt lat="44.89902" lon="-0.4243">
        <ele>38.7</ele>
        <time>2020-09-10T11:05:18Z</time>
      </trkpt>
      <trkpt lat="44.89902" lon="-0.42428">
        <ele>38.7</ele>
        <time>2020-09-10T11:05:19Z</time>
      </trkpt>
      <trkpt lat="44.89902" lon="-0.42427">
        <ele>38.7</ele>
        <time>2020-09-10T11:05:20Z</time>
      </trkpt>
      <trkpt lat="44.89902" lon="-0.42426">
        <ele>38.7</ele>
        <time>2020-09-10T11:05:21Z</time>
      </trkpt>
      <trkpt lat="44.89902" lon="-0.42425">
        <ele>38.7</ele>
        <time>2020-09-10T11:05:22Z</time>
      </trkpt>
      <trkpt lat="44.89902" lon="-0.42423">
        <ele>38.7</ele>
        <time>2020-09-10T11:05:23Z</time>
      </trkpt>
      <trkpt lat="44.89902" lon="-0.42421">
        <ele>38.8</ele>
        <time>2020-09-10T11:05:24Z</time>
      </trkpt>
      <trkpt lat="44.89902" lon="-0.42419">
        <ele>38.8</ele>
        <time>2020-09-10T11:05:26Z</time>
      </trkpt>
      <trkpt lat="44.89902" lon="-0.42416">
        <ele>38.8</ele>
        <time>2020-09-10T11:05:27Z</time>
      </trkpt>
      <trkpt lat="44.89902" lon="-0.42415">
        <ele>38.8</ele>
        <time>2020-09-10T11:05:28Z</time>
      </trkpt>
      <trkpt lat="44.89902" lon="-0.42413">
        <ele>38.8</ele>
        <time>2020-09-10T11:05:30Z</time>
      </trkpt>
      <trkpt lat="44.89902" lon="-0.42411">
        <ele>38.9</ele>
        <time>2020-09-10T11:05:31Z</time>
      </trkpt>
      <trkpt lat="44.89902" lon="-0.42408">
        <ele>38.9</ele>
        <time>2020-09-10T11:05:33Z</time>
      </trkpt>
      <trkpt lat="44.89902" lon="-0.42407">
        <ele>38.9</ele>
        <time>2020-09-10T11:05:34Z</time>
      </trkpt>
      <trkpt lat="44.89902" lon="-0.42404">
        <ele>38.9</ele>
        <time>2020-09-10T11:05:35Z</time>
      </trkpt>
      <trkpt lat="44.89901" lon="-0.42402">
        <ele>39</ele>
        <time>2020-09-10T11:05:36Z</time>
      </trkpt>
      <trkpt lat="44.89901" lon="-0.42401">
        <ele>39</ele>
        <time>2020-09-10T11:05:37Z</time>
      </trkpt>
      <trkpt lat="44.89901" lon="-0.42398">
        <ele>39</ele>
        <time>2020-09-10T11:05:38Z</time>
      </trkpt>
      <trkpt lat="44.89901" lon="-0.42397">
        <ele>39</ele>
        <time>2020-09-10T11:05:39Z</time>
      </trkpt>
      <trkpt lat="44.899" lon="-0.42394">
        <ele>39</ele>
        <time>2020-09-10T11:05:41Z</time>
      </trkpt>
      <trkpt lat="44.899" lon="-0.42391">
        <ele>39.1</ele>
        <time>2020-09-10T11:05:43Z</time>
      </trkpt>
      <trkpt lat="44.899" lon="-0.42389">
        <ele>39.1</ele>
        <time>2020-09-10T11:05:44Z</time>
      </trkpt>
      <trkpt lat="44.899" lon="-0.42388">
        <ele>39.1</ele>
        <time>2020-09-10T11:05:45Z</time>
      </trkpt>
      <trkpt lat="44.899" lon="-0.42386">
        <ele>39.1</ele>
        <time>2020-09-10T11:05:46Z</time>
      </trkpt>
      <trkpt lat="44.89899" lon="-0.42383">
        <ele>39.2</ele>
        <time>2020-09-10T11:05:47Z</time>
      </trkpt>
      <trkpt lat="44.89899" lon="-0.42381">
        <ele>39.2</ele>
        <time>2020-09-10T11:05:48Z</time>
      </trkpt>
      <trkpt lat="44.89899" lon="-0.4238">
        <ele>39.2</ele>
        <time>2020-09-10T11:05:49Z</time>
      </trkpt>
      <trkpt lat="44.89899" lon="-0.42379">
        <ele>39.2</ele>
        <time>2020-09-10T11:05:50Z</time>
      </trkpt>
      <trkpt lat="44.89899" lon="-0.42377">
        <ele>39.2</ele>
        <time>2020-09-10T11:05:51Z</time>
      </trkpt>
      <trkpt lat="44.89898" lon="-0.42376">
        <ele>39.2</ele>
        <time>2020-09-10T11:05:52Z</time>
      </trkpt>
      <trkpt lat="44.89898" lon="-0.42373">
        <ele>39.3</ele>
        <time>2020-09-10T11:05:53Z</time>
      </trkpt>
      <trkpt lat="44.89898" lon="-0.42372">
        <ele>39.3</ele>
        <time>2020-09-10T11:05:54Z</time>
      </trkpt>
      <trkpt lat="44.89897" lon="-0.4237">
        <ele>39.3</ele>
        <time>2020-09-10T11:05:55Z</time>
      </trkpt>
      <trkpt lat="44.89897" lon="-0.42369">
        <ele>39.3</ele>
        <time>2020-09-10T11:05:56Z</time>
      </trkpt>
      <trkpt lat="44.89896" lon="-0.42365">
        <ele>39.3</ele>
        <time>2020-09-10T11:05:58Z</time>
      </trkpt>
      <trkpt lat="44.89896" lon="-0.42363">
        <ele>39.4</ele>
        <time>2020-09-10T11:06:00Z</time>
      </trkpt>
      <trkpt lat="44.89896" lon="-0.42362">
        <ele>39.4</ele>
        <time>2020-09-10T11:06:01Z</time>
      </trkpt>
      <trkpt lat="44.89895" lon="-0.4236">
        <ele>39.4</ele>
        <time>2020-09-10T11:06:02Z</time>
      </trkpt>
      <trkpt lat="44.89894" lon="-0.42356">
        <ele>39.4</ele>
        <time>2020-09-10T11:06:03Z</time>
      </trkpt>
      <trkpt lat="44.89894" lon="-0.42355">
        <ele>39.4</ele>
        <time>2020-09-10T11:06:04Z</time>
      </trkpt>
      <trkpt lat="44.89893" lon="-0.42352">
        <ele>39.5</ele>
        <time>2020-09-10T11:06:05Z</time>
      </trkpt>
      <trkpt lat="44.89893" lon="-0.42351">
        <ele>39.5</ele>
        <time>2020-09-10T11:06:06Z</time>
      </trkpt>
      <trkpt lat="44.89893" lon="-0.4235">
        <ele>39.5</ele>
        <time>2020-09-10T11:06:07Z</time>
      </trkpt>
      <trkpt lat="44.89891" lon="-0.42347">
        <ele>39.5</ele>
        <time>2020-09-10T11:06:09Z</time>
      </trkpt>
      <trkpt lat="44.8989" lon="-0.42344">
        <ele>39.6</ele>
        <time>2020-09-10T11:06:11Z</time>
      </trkpt>
      <trkpt lat="44.8989" lon="-0.42343">
        <ele>39.6</ele>
        <time>2020-09-10T11:06:12Z</time>
      </trkpt>
      <trkpt lat="44.89889" lon="-0.42342">
        <ele>39.6</ele>
        <time>2020-09-10T11:06:13Z</time>
      </trkpt>
      <trkpt lat="44.89889" lon="-0.4234">
        <ele>39.6</ele>
        <time>2020-09-10T11:06:14Z</time>
      </trkpt>
      <trkpt lat="44.89888" lon="-0.42336">
        <ele>39.8</ele>
        <time>2020-09-10T11:06:15Z</time>
      </trkpt>
      <trkpt lat="44.89888" lon="-0.42335">
        <ele>39.7</ele>
        <time>2020-09-10T11:06:16Z</time>
      </trkpt>
      <trkpt lat="44.89887" lon="-0.42332">
        <ele>39.7</ele>
        <time>2020-09-10T11:06:18Z</time>
      </trkpt>
      <trkpt lat="44.89887" lon="-0.4233">
        <ele>39.7</ele>
        <time>2020-09-10T11:06:19Z</time>
      </trkpt>
      <trkpt lat="44.89885" lon="-0.42326">
        <ele>39.6</ele>
        <time>2020-09-10T11:06:21Z</time>
      </trkpt>
      <trkpt lat="44.89884" lon="-0.42325">
        <ele>39.6</ele>
        <time>2020-09-10T11:06:22Z</time>
      </trkpt>
      <trkpt lat="44.89884" lon="-0.42323">
        <ele>39.6</ele>
        <time>2020-09-10T11:06:23Z</time>
      </trkpt>
      <trkpt lat="44.89883" lon="-0.42321">
        <ele>39.5</ele>
        <time>2020-09-10T11:06:25Z</time>
      </trkpt>
      <trkpt lat="44.89882" lon="-0.4232">
        <ele>39.5</ele>
        <time>2020-09-10T11:06:26Z</time>
      </trkpt>
      <trkpt lat="44.89882" lon="-0.42319">
        <ele>39.5</ele>
        <time>2020-09-10T11:06:27Z</time>
      </trkpt>
      <trkpt lat="44.89881" lon="-0.42318">
        <ele>39.5</ele>
        <time>2020-09-10T11:06:28Z</time>
      </trkpt>
      <trkpt lat="44.89881" lon="-0.42316">
        <ele>39.5</ele>
        <time>2020-09-10T11:06:29Z</time>
      </trkpt>
      <trkpt lat="44.8988" lon="-0.42314">
        <ele>39.4</ele>
        <time>2020-09-10T11:06:30Z</time>
      </trkpt>
      <trkpt lat="44.8988" lon="-0.42313">
        <ele>39.4</ele>
        <time>2020-09-10T11:06:31Z</time>
      </trkpt>
      <trkpt lat="44.89879" lon="-0.42313">
        <ele>39.4</ele>
        <time>2020-09-10T11:06:32Z</time>
      </trkpt>
      <trkpt lat="44.89879" lon="-0.42312">
        <ele>39.4</ele>
        <time>2020-09-10T11:06:33Z</time>
      </trkpt>
      <trkpt lat="44.89878" lon="-0.4231">
        <ele>39.3</ele>
        <time>2020-09-10T11:06:35Z</time>
      </trkpt>
      <trkpt lat="44.89878" lon="-0.42308">
        <ele>39.3</ele>
        <time>2020-09-10T11:06:36Z</time>
      </trkpt>
      <trkpt lat="44.89877" lon="-0.42307">
        <ele>39.3</ele>
        <time>2020-09-10T11:06:38Z</time>
      </trkpt>
      <trkpt lat="44.89877" lon="-0.42306">
        <ele>39.2</ele>
        <time>2020-09-10T11:06:39Z</time>
      </trkpt>
      <trkpt lat="44.89876" lon="-0.42306">
        <ele>39.2</ele>
        <time>2020-09-10T11:06:40Z</time>
      </trkpt>
      <trkpt lat="44.89876" lon="-0.42305">
        <ele>39.2</ele>
        <time>2020-09-10T11:06:41Z</time>
      </trkpt>
      <trkpt lat="44.89875" lon="-0.42303">
        <ele>39.1</ele>
        <time>2020-09-10T11:06:43Z</time>
      </trkpt>
      <trkpt lat="44.89874" lon="-0.423">
        <ele>39.1</ele>
        <time>2020-09-10T11:06:45Z</time>
      </trkpt>
      <trkpt lat="44.89873" lon="-0.42299">
        <ele>39.1</ele>
        <time>2020-09-10T11:06:47Z</time>
      </trkpt>
      <trkpt lat="44.89873" lon="-0.42299">
        <ele>39</ele>
        <time>2020-09-10T11:06:48Z</time>
      </trkpt>
      <trkpt lat="44.89873" lon="-0.42298">
        <ele>39</ele>
        <time>2020-09-10T11:06:49Z</time>
      </trkpt>
      <trkpt lat="44.89872" lon="-0.42296">
        <ele>39</ele>
        <time>2020-09-10T11:06:50Z</time>
      </trkpt>
      <trkpt lat="44.89872" lon="-0.42295">
        <ele>38.9</ele>
        <time>2020-09-10T11:06:51Z</time>
      </trkpt>
      <trkpt lat="44.89872" lon="-0.42293">
        <ele>38.9</ele>
        <time>2020-09-10T11:06:53Z</time>
      </trkpt>
      <trkpt lat="44.89872" lon="-0.42291">
        <ele>38.8</ele>
        <time>2020-09-10T11:06:55Z</time>
      </trkpt>
      <trkpt lat="44.89872" lon="-0.42289">
        <ele>38.8</ele>
        <time>2020-09-10T11:06:56Z</time>
      </trkpt>
      <trkpt lat="44.89872" lon="-0.42288">
        <ele>38.8</ele>
        <time>2020-09-10T11:06:57Z</time>
      </trkpt>
      <trkpt lat="44.89872" lon="-0.42287">
        <ele>38.7</ele>
        <time>2020-09-10T11:06:58Z</time>
      </trkpt>
      <trkpt lat="44.89872" lon="-0.42286">
        <ele>38.7</ele>
        <time>2020-09-10T11:06:59Z</time>
      </trkpt>
      <trkpt lat="44.89872" lon="-0.42285">
        <ele>38.7</ele>
        <time>2020-09-10T11:07:00Z</time>
      </trkpt>
      <trkpt lat="44.89872" lon="-0.42283">
        <ele>38.6</ele>
        <time>2020-09-10T11:07:02Z</time>
      </trkpt>
      <trkpt lat="44.89871" lon="-0.42282">
        <ele>38.6</ele>
        <time>2020-09-10T11:07:04Z</time>
      </trkpt>
      <trkpt lat="44.89871" lon="-0.42281">
        <ele>38.5</ele>
        <time>2020-09-10T11:07:05Z</time>
      </trkpt>
      <trkpt lat="44.8987" lon="-0.42279">
        <ele>38.5</ele>
        <time>2020-09-10T11:07:06Z</time>
      </trkpt>
      <trkpt lat="44.89869" lon="-0.42277">
        <ele>38.4</ele>
        <time>2020-09-10T11:07:07Z</time>
      </trkpt>
      <trkpt lat="44.89868" lon="-0.42276">
        <ele>38.4</ele>
        <time>2020-09-10T11:07:09Z</time>
      </trkpt>
      <trkpt lat="44.89868" lon="-0.42275">
        <ele>38.3</ele>
        <time>2020-09-10T11:07:10Z</time>
      </trkpt>
      <trkpt lat="44.89867" lon="-0.42272">
        <ele>38.2</ele>
        <time>2020-09-10T11:07:11Z</time>
      </trkpt>
      <trkpt lat="44.89867" lon="-0.4227">
        <ele>38.2</ele>
        <time>2020-09-10T11:07:12Z</time>
      </trkpt>
      <trkpt lat="44.89866" lon="-0.42268">
        <ele>38</ele>
        <time>2020-09-10T11:07:13Z</time>
      </trkpt>
      <trkpt lat="44.89866" lon="-0.42266">
        <ele>38</ele>
        <time>2020-09-10T11:07:14Z</time>
      </trkpt>
      <trkpt lat="44.89865" lon="-0.42265">
        <ele>37.9</ele>
        <time>2020-09-10T11:07:15Z</time>
      </trkpt>
      <trkpt lat="44.89865" lon="-0.42263">
        <ele>37.9</ele>
        <time>2020-09-10T11:07:16Z</time>
      </trkpt>
      <trkpt lat="44.89865" lon="-0.42262">
        <ele>37.8</ele>
        <time>2020-09-10T11:07:17Z</time>
      </trkpt>
      <trkpt lat="44.89864" lon="-0.42261">
        <ele>37.8</ele>
        <time>2020-09-10T11:07:18Z</time>
      </trkpt>
      <trkpt lat="44.89864" lon="-0.42259">
        <ele>37.7</ele>
        <time>2020-09-10T11:07:19Z</time>
      </trkpt>
      <trkpt lat="44.89863" lon="-0.42258">
        <ele>37.6</ele>
        <time>2020-09-10T11:07:20Z</time>
      </trkpt>
      <trkpt lat="44.89862" lon="-0.42255">
        <ele>37.5</ele>
        <time>2020-09-10T11:07:22Z</time>
      </trkpt>
      <trkpt lat="44.89861" lon="-0.42251">
        <ele>37.4</ele>
        <time>2020-09-10T11:07:24Z</time>
      </trkpt>
      <trkpt lat="44.8986" lon="-0.42251">
        <ele>37.3</ele>
        <time>2020-09-10T11:07:25Z</time>
      </trkpt>
      <trkpt lat="44.8986" lon="-0.4225">
        <ele>37.3</ele>
        <time>2020-09-10T11:07:26Z</time>
      </trkpt>
      <trkpt lat="44.89859" lon="-0.42249">
        <ele>37.2</ele>
        <time>2020-09-10T11:07:27Z</time>
      </trkpt>
      <trkpt lat="44.89858" lon="-0.42246">
        <ele>37.1</ele>
        <time>2020-09-10T11:07:29Z</time>
      </trkpt>
      <trkpt lat="44.89857" lon="-0.42242">
        <ele>36.9</ele>
        <time>2020-09-10T11:07:30Z</time>
      </trkpt>
      <trkpt lat="44.89856" lon="-0.4224">
        <ele>36.9</ele>
        <time>2020-09-10T11:07:31Z</time>
      </trkpt>
      <trkpt lat="44.89856" lon="-0.42239">
        <ele>36.8</ele>
        <time>2020-09-10T11:07:32Z</time>
      </trkpt>
      <trkpt lat="44.89855" lon="-0.42237">
        <ele>36.7</ele>
        <time>2020-09-10T11:07:33Z</time>
      </trkpt>
      <trkpt lat="44.89854" lon="-0.42234">
        <ele>36.6</ele>
        <time>2020-09-10T11:07:35Z</time>
      </trkpt>
      <trkpt lat="44.89853" lon="-0.42234">
        <ele>36.5</ele>
        <time>2020-09-10T11:07:36Z</time>
      </trkpt>
      <trkpt lat="44.89852" lon="-0.42232">
        <ele>36.4</ele>
        <time>2020-09-10T11:07:37Z</time>
      </trkpt>
      <trkpt lat="44.89852" lon="-0.4223">
        <ele>36.4</ele>
        <time>2020-09-10T11:07:38Z</time>
      </trkpt>
      <trkpt lat="44.89851" lon="-0.42227">
        <ele>36.2</ele>
        <time>2020-09-10T11:07:39Z</time>
      </trkpt>
      <trkpt lat="44.8985" lon="-0.42225">
        <ele>36.1</ele>
        <time>2020-09-10T11:07:40Z</time>
      </trkpt>
      <trkpt lat="44.8985" lon="-0.42223">
        <ele>36</ele>
        <time>2020-09-10T11:07:41Z</time>
      </trkpt>
      <trkpt lat="44.89849" lon="-0.42222">
        <ele>36</ele>
        <time>2020-09-10T11:07:42Z</time>
      </trkpt>
      <trkpt lat="44.89848" lon="-0.4222">
        <ele>35.9</ele>
        <time>2020-09-10T11:07:44Z</time>
      </trkpt>
      <trkpt lat="44.89847" lon="-0.42217">
        <ele>35.7</ele>
        <time>2020-09-10T11:07:45Z</time>
      </trkpt>
      <trkpt lat="44.89846" lon="-0.42214">
        <ele>35.6</ele>
        <time>2020-09-10T11:07:47Z</time>
      </trkpt>
      <trkpt lat="44.89845" lon="-0.42212">
        <ele>35.5</ele>
        <time>2020-09-10T11:07:48Z</time>
      </trkpt>
      <trkpt lat="44.89844" lon="-0.4221">
        <ele>35.4</ele>
        <time>2020-09-10T11:07:50Z</time>
      </trkpt>
      <trkpt lat="44.89844" lon="-0.4221">
        <ele>35.3</ele>
        <time>2020-09-10T11:07:51Z</time>
      </trkpt>
      <trkpt lat="44.89843" lon="-0.42207">
        <ele>35.2</ele>
        <time>2020-09-10T11:07:52Z</time>
      </trkpt>
      <trkpt lat="44.89841" lon="-0.42205">
        <ele>35.1</ele>
        <time>2020-09-10T11:07:54Z</time>
      </trkpt>
      <trkpt lat="44.8984" lon="-0.42203">
        <ele>35</ele>
        <time>2020-09-10T11:07:55Z</time>
      </trkpt>
      <trkpt lat="44.89839" lon="-0.42201">
        <ele>34.9</ele>
        <time>2020-09-10T11:07:56Z</time>
      </trkpt>
      <trkpt lat="44.89839" lon="-0.42199">
        <ele>34.8</ele>
        <time>2020-09-10T11:07:57Z</time>
      </trkpt>
      <trkpt lat="44.89838" lon="-0.42198">
        <ele>34.7</ele>
        <time>2020-09-10T11:07:58Z</time>
      </trkpt>
      <trkpt lat="44.89837" lon="-0.42195">
        <ele>34.5</ele>
        <time>2020-09-10T11:07:59Z</time>
      </trkpt>
      <trkpt lat="44.89836" lon="-0.42194">
        <ele>34.5</ele>
        <time>2020-09-10T11:08:00Z</time>
      </trkpt>
      <trkpt lat="44.89836" lon="-0.42193">
        <ele>34.4</ele>
        <time>2020-09-10T11:08:01Z</time>
      </trkpt>
      <trkpt lat="44.89835" lon="-0.42192">
        <ele>34.3</ele>
        <time>2020-09-10T11:08:02Z</time>
      </trkpt>
      <trkpt lat="44.89833" lon="-0.42189">
        <ele>34.1</ele>
        <time>2020-09-10T11:08:04Z</time>
      </trkpt>
      <trkpt lat="44.89832" lon="-0.42188">
        <ele>34</ele>
        <time>2020-09-10T11:08:05Z</time>
      </trkpt>
      <trkpt lat="44.89831" lon="-0.42185">
        <ele>33.9</ele>
        <time>2020-09-10T11:08:07Z</time>
      </trkpt>
      <trkpt lat="44.8983" lon="-0.42183">
        <ele>33.8</ele>
        <time>2020-09-10T11:08:09Z</time>
      </trkpt>
      <trkpt lat="44.89829" lon="-0.42181">
        <ele>33.7</ele>
        <time>2020-09-10T11:08:10Z</time>
      </trkpt>
      <trkpt lat="44.89828" lon="-0.42179">
        <ele>33.5</ele>
        <time>2020-09-10T11:08:11Z</time>
      </trkpt>
      <trkpt lat="44.89827" lon="-0.42178">
        <ele>33.5</ele>
        <time>2020-09-10T11:08:12Z</time>
      </trkpt>
      <trkpt lat="44.89827" lon="-0.42177">
        <ele>33.4</ele>
        <time>2020-09-10T11:08:13Z</time>
      </trkpt>
      <trkpt lat="44.89826" lon="-0.42176">
        <ele>33.3</ele>
        <time>2020-09-10T11:08:14Z</time>
      </trkpt>
      <trkpt lat="44.89825" lon="-0.42175">
        <ele>33.2</ele>
        <time>2020-09-10T11:08:15Z</time>
      </trkpt>
      <trkpt lat="44.89824" lon="-0.42172">
        <ele>33</ele>
        <time>2020-09-10T11:08:17Z</time>
      </trkpt>
      <trkpt lat="44.89823" lon="-0.42169">
        <ele>32.9</ele>
        <time>2020-09-10T11:08:18Z</time>
      </trkpt>
      <trkpt lat="44.89822" lon="-0.42168">
        <ele>32.8</ele>
        <time>2020-09-10T11:08:19Z</time>
      </trkpt>
      <trkpt lat="44.89822" lon="-0.42167">
        <ele>32.8</ele>
        <time>2020-09-10T11:08:20Z</time>
      </trkpt>
      <trkpt lat="44.8982" lon="-0.42164">
        <ele>32.6</ele>
        <time>2020-09-10T11:08:21Z</time>
      </trkpt>
      <trkpt lat="44.8982" lon="-0.42163">
        <ele>32.5</ele>
        <time>2020-09-10T11:08:22Z</time>
      </trkpt>
      <trkpt lat="44.89819" lon="-0.42161">
        <ele>32.4</ele>
        <time>2020-09-10T11:08:24Z</time>
      </trkpt>
      <trkpt lat="44.89818" lon="-0.4216">
        <ele>32.3</ele>
        <time>2020-09-10T11:08:26Z</time>
      </trkpt>
      <trkpt lat="44.89818" lon="-0.42158">
        <ele>32.2</ele>
        <time>2020-09-10T11:08:27Z</time>
      </trkpt>
      <trkpt lat="44.89817" lon="-0.42156">
        <ele>32.1</ele>
        <time>2020-09-10T11:08:28Z</time>
      </trkpt>
      <trkpt lat="44.89816" lon="-0.42155">
        <ele>32</ele>
        <time>2020-09-10T11:08:29Z</time>
      </trkpt>
      <trkpt lat="44.89816" lon="-0.42153">
        <ele>31.9</ele>
        <time>2020-09-10T11:08:31Z</time>
      </trkpt>
      <trkpt lat="44.89815" lon="-0.42152">
        <ele>31.8</ele>
        <time>2020-09-10T11:08:32Z</time>
      </trkpt>
      <trkpt lat="44.89815" lon="-0.4215">
        <ele>31.7</ele>
        <time>2020-09-10T11:08:33Z</time>
      </trkpt>
      <trkpt lat="44.89814" lon="-0.42148">
        <ele>31.6</ele>
        <time>2020-09-10T11:08:35Z</time>
      </trkpt>
      <trkpt lat="44.89813" lon="-0.42144">
        <ele>31.4</ele>
        <time>2020-09-10T11:08:36Z</time>
      </trkpt>
      <trkpt lat="44.89812" lon="-0.42142">
        <ele>31.3</ele>
        <time>2020-09-10T11:08:37Z</time>
      </trkpt>
      <trkpt lat="44.89811" lon="-0.42141">
        <ele>31.2</ele>
        <time>2020-09-10T11:08:38Z</time>
      </trkpt>
      <trkpt lat="44.89811" lon="-0.42139">
        <ele>31</ele>
        <time>2020-09-10T11:08:39Z</time>
      </trkpt>
      <trkpt lat="44.89809" lon="-0.42134">
        <ele>30.8</ele>
        <time>2020-09-10T11:08:41Z</time>
      </trkpt>
      <trkpt lat="44.89809" lon="-0.42132">
        <ele>30.6</ele>
        <time>2020-09-10T11:08:42Z</time>
      </trkpt>
      <trkpt lat="44.89809" lon="-0.42131">
        <ele>30.6</ele>
        <time>2020-09-10T11:08:43Z</time>
      </trkpt>
      <trkpt lat="44.89809" lon="-0.4213">
        <ele>30.5</ele>
        <time>2020-09-10T11:08:44Z</time>
      </trkpt>
      <trkpt lat="44.8981" lon="-0.42129">
        <ele>30.4</ele>
        <time>2020-09-10T11:08:45Z</time>
      </trkpt>
      <trkpt lat="44.8981" lon="-0.42126">
        <ele>30.3</ele>
        <time>2020-09-10T11:08:46Z</time>
      </trkpt>
      <trkpt lat="44.8981" lon="-0.42125">
        <ele>30.2</ele>
        <time>2020-09-10T11:08:47Z</time>
      </trkpt>
      <trkpt lat="44.89811" lon="-0.42123">
        <ele>30.1</ele>
        <time>2020-09-10T11:08:49Z</time>
      </trkpt>
      <trkpt lat="44.89811" lon="-0.4212">
        <ele>29.6</ele>
        <time>2020-09-10T11:08:51Z</time>
      </trkpt>
      <trkpt lat="44.89811" lon="-0.42119">
        <ele>29.5</ele>
        <time>2020-09-10T11:08:52Z</time>
      </trkpt>
      <trkpt lat="44.89811" lon="-0.42117">
        <ele>29.4</ele>
        <time>2020-09-10T11:08:54Z</time>
      </trkpt>
      <trkpt lat="44.8981" lon="-0.42116">
        <ele>29.3</ele>
        <time>2020-09-10T11:08:55Z</time>
      </trkpt>
      <trkpt lat="44.8981" lon="-0.42114">
        <ele>29.2</ele>
        <time>2020-09-10T11:08:56Z</time>
      </trkpt>
      <trkpt lat="44.89809" lon="-0.42111">
        <ele>29</ele>
        <time>2020-09-10T11:08:58Z</time>
      </trkpt>
      <trkpt lat="44.89808" lon="-0.42109">
        <ele>28.8</ele>
        <time>2020-09-10T11:08:59Z</time>
      </trkpt>
      <trkpt lat="44.89808" lon="-0.42108">
        <ele>28.7</ele>
        <time>2020-09-10T11:09:00Z</time>
      </trkpt>
      <trkpt lat="44.89806" lon="-0.42103">
        <ele>28.4</ele>
        <time>2020-09-10T11:09:02Z</time>
      </trkpt>
      <trkpt lat="44.89805" lon="-0.42102">
        <ele>28.2</ele>
        <time>2020-09-10T11:09:03Z</time>
      </trkpt>
      <trkpt lat="44.89805" lon="-0.421">
        <ele>28.1</ele>
        <time>2020-09-10T11:09:04Z</time>
      </trkpt>
      <trkpt lat="44.89804" lon="-0.42097">
        <ele>27.9</ele>
        <time>2020-09-10T11:09:06Z</time>
      </trkpt>
      <trkpt lat="44.89803" lon="-0.42095">
        <ele>27.7</ele>
        <time>2020-09-10T11:09:07Z</time>
      </trkpt>
      <trkpt lat="44.89802" lon="-0.42093">
        <ele>27.6</ele>
        <time>2020-09-10T11:09:08Z</time>
      </trkpt>
      <trkpt lat="44.89801" lon="-0.42089">
        <ele>27.2</ele>
        <time>2020-09-10T11:09:09Z</time>
      </trkpt>
      <trkpt lat="44.898" lon="-0.42088">
        <ele>27.1</ele>
        <time>2020-09-10T11:09:10Z</time>
      </trkpt>
      <trkpt lat="44.89799" lon="-0.42086">
        <ele>26.9</ele>
        <time>2020-09-10T11:09:11Z</time>
      </trkpt>
      <trkpt lat="44.89797" lon="-0.42083">
        <ele>26.6</ele>
        <time>2020-09-10T11:09:13Z</time>
      </trkpt>
      <trkpt lat="44.89796" lon="-0.42081">
        <ele>26.5</ele>
        <time>2020-09-10T11:09:14Z</time>
      </trkpt>
      <trkpt lat="44.89794" lon="-0.4208">
        <ele>26.3</ele>
        <time>2020-09-10T11:09:15Z</time>
      </trkpt>
      <trkpt lat="44.89794" lon="-0.42079">
        <ele>26.2</ele>
        <time>2020-09-10T11:09:16Z</time>
      </trkpt>
      <trkpt lat="44.89792" lon="-0.42078">
        <ele>26</ele>
        <time>2020-09-10T11:09:18Z</time>
      </trkpt>
      <trkpt lat="44.8979" lon="-0.42076">
        <ele>25.8</ele>
        <time>2020-09-10T11:09:19Z</time>
      </trkpt>
      <trkpt lat="44.89789" lon="-0.42076">
        <ele>25.7</ele>
        <time>2020-09-10T11:09:20Z</time>
      </trkpt>
      <trkpt lat="44.89788" lon="-0.42075">
        <ele>25.6</ele>
        <time>2020-09-10T11:09:21Z</time>
      </trkpt>
      <trkpt lat="44.89787" lon="-0.42075">
        <ele>25.5</ele>
        <time>2020-09-10T11:09:22Z</time>
      </trkpt>
      <trkpt lat="44.89786" lon="-0.42074">
        <ele>25.4</ele>
        <time>2020-09-10T11:09:23Z</time>
      </trkpt>
      <trkpt lat="44.89784" lon="-0.42073">
        <ele>25.2</ele>
        <time>2020-09-10T11:09:25Z</time>
      </trkpt>
      <trkpt lat="44.89783" lon="-0.42072">
        <ele>25.1</ele>
        <time>2020-09-10T11:09:27Z</time>
      </trkpt>
      <trkpt lat="44.89782" lon="-0.42072">
        <ele>25</ele>
        <time>2020-09-10T11:09:28Z</time>
      </trkpt>
      <trkpt lat="44.8978" lon="-0.42072">
        <ele>24.8</ele>
        <time>2020-09-10T11:09:29Z</time>
      </trkpt>
      <trkpt lat="44.8978" lon="-0.42072">
        <ele>24.7</ele>
        <time>2020-09-10T11:09:30Z</time>
      </trkpt>
      <trkpt lat="44.89778" lon="-0.42072">
        <ele>24.6</ele>
        <time>2020-09-10T11:09:32Z</time>
      </trkpt>
      <trkpt lat="44.89777" lon="-0.42072">
        <ele>24.5</ele>
        <time>2020-09-10T11:09:33Z</time>
      </trkpt>
      <trkpt lat="44.89776" lon="-0.42072">
        <ele>24.4</ele>
        <time>2020-09-10T11:09:34Z</time>
      </trkpt>
      <trkpt lat="44.89773" lon="-0.42072">
        <ele>24.2</ele>
        <time>2020-09-10T11:09:36Z</time>
      </trkpt>
      <trkpt lat="44.89772" lon="-0.42073">
        <ele>24.1</ele>
        <time>2020-09-10T11:09:37Z</time>
      </trkpt>
      <trkpt lat="44.89771" lon="-0.42073">
        <ele>24</ele>
        <time>2020-09-10T11:09:38Z</time>
      </trkpt>
      <trkpt lat="44.89767" lon="-0.42073">
        <ele>23.6</ele>
        <time>2020-09-10T11:09:40Z</time>
      </trkpt>
      <trkpt lat="44.89766" lon="-0.42074">
        <ele>23.5</ele>
        <time>2020-09-10T11:09:41Z</time>
      </trkpt>
      <trkpt lat="44.89765" lon="-0.42074">
        <ele>23.5</ele>
        <time>2020-09-10T11:09:42Z</time>
      </trkpt>
      <trkpt lat="44.89763" lon="-0.42075">
        <ele>23.4</ele>
        <time>2020-09-10T11:09:43Z</time>
      </trkpt>
      <trkpt lat="44.8976" lon="-0.42076">
        <ele>23.1</ele>
        <time>2020-09-10T11:09:45Z</time>
      </trkpt>
      <trkpt lat="44.8976" lon="-0.42077">
        <ele>23.1</ele>
        <time>2020-09-10T11:09:46Z</time>
      </trkpt>
      <trkpt lat="44.89759" lon="-0.42078">
        <ele>23</ele>
        <time>2020-09-10T11:09:48Z</time>
      </trkpt>
      <trkpt lat="44.89758" lon="-0.42078">
        <ele>22.9</ele>
        <time>2020-09-10T11:09:49Z</time>
      </trkpt>
      <trkpt lat="44.89754" lon="-0.42081">
        <ele>22.6</ele>
        <time>2020-09-10T11:09:50Z</time>
      </trkpt>
      <trkpt lat="44.89753" lon="-0.42081">
        <ele>22.5</ele>
        <time>2020-09-10T11:09:51Z</time>
      </trkpt>
      <trkpt lat="44.89751" lon="-0.42083">
        <ele>22.4</ele>
        <time>2020-09-10T11:09:52Z</time>
      </trkpt>
      <trkpt lat="44.8975" lon="-0.42084">
        <ele>22.3</ele>
        <time>2020-09-10T11:09:54Z</time>
      </trkpt>
      <trkpt lat="44.89749" lon="-0.42085">
        <ele>22.2</ele>
        <time>2020-09-10T11:09:55Z</time>
      </trkpt>
      <trkpt lat="44.89748" lon="-0.42086">
        <ele>22.1</ele>
        <time>2020-09-10T11:09:56Z</time>
      </trkpt>
      <trkpt lat="44.89748" lon="-0.42087">
        <ele>22.1</ele>
        <time>2020-09-10T11:09:57Z</time>
      </trkpt>
      <trkpt lat="44.89747" lon="-0.42088">
        <ele>22</ele>
        <time>2020-09-10T11:09:58Z</time>
      </trkpt>
      <trkpt lat="44.89745" lon="-0.42089">
        <ele>21.9</ele>
        <time>2020-09-10T11:09:59Z</time>
      </trkpt>
      <trkpt lat="44.89745" lon="-0.4209">
        <ele>21.9</ele>
        <time>2020-09-10T11:10:00Z</time>
      </trkpt>
      <trkpt lat="44.89744" lon="-0.42091">
        <ele>21.8</ele>
        <time>2020-09-10T11:10:01Z</time>
      </trkpt>
      <trkpt lat="44.89743" lon="-0.42092">
        <ele>21.7</ele>
        <time>2020-09-10T11:10:02Z</time>
      </trkpt>
      <trkpt lat="44.89742" lon="-0.42093">
        <ele>21.6</ele>
        <time>2020-09-10T11:10:03Z</time>
      </trkpt>
      <trkpt lat="44.8974" lon="-0.42095">
        <ele>21.5</ele>
        <time>2020-09-10T11:10:05Z</time>
      </trkpt>
      <trkpt lat="44.89739" lon="-0.42095">
        <ele>21.5</ele>
        <time>2020-09-10T11:10:07Z</time>
      </trkpt>
      <trkpt lat="44.89739" lon="-0.42096">
        <ele>21.4</ele>
        <time>2020-09-10T11:10:08Z</time>
      </trkpt>
      <trkpt lat="44.89738" lon="-0.42097">
        <ele>21.4</ele>
        <time>2020-09-10T11:10:09Z</time>
      </trkpt>
      <trkpt lat="44.89737" lon="-0.42098">
        <ele>21.3</ele>
        <time>2020-09-10T11:10:10Z</time>
      </trkpt>
      <trkpt lat="44.89737" lon="-0.42098">
        <ele>21.3</ele>
        <time>2020-09-10T11:10:12Z</time>
      </trkpt>
      <trkpt lat="44.89736" lon="-0.42098">
        <ele>21.3</ele>
        <time>2020-09-10T11:10:13Z</time>
      </trkpt>
      <trkpt lat="44.89735" lon="-0.421">
        <ele>21.2</ele>
        <time>2020-09-10T11:10:14Z</time>
      </trkpt>
      <trkpt lat="44.89734" lon="-0.42101">
        <ele>21.1</ele>
        <time>2020-09-10T11:10:16Z</time>
      </trkpt>
      <trkpt lat="44.89733" lon="-0.42102">
        <ele>21.1</ele>
        <time>2020-09-10T11:10:17Z</time>
      </trkpt>
      <trkpt lat="44.89732" lon="-0.42103">
        <ele>21</ele>
        <time>2020-09-10T11:10:19Z</time>
      </trkpt>
      <trkpt lat="44.89732" lon="-0.42104">
        <ele>20.9</ele>
        <time>2020-09-10T11:10:20Z</time>
      </trkpt>
      <trkpt lat="44.8973" lon="-0.42106">
        <ele>20.8</ele>
        <time>2020-09-10T11:10:22Z</time>
      </trkpt>
      <trkpt lat="44.89729" lon="-0.42107">
        <ele>20.8</ele>
        <time>2020-09-10T11:10:24Z</time>
      </trkpt>
      <trkpt lat="44.89729" lon="-0.42108">
        <ele>20.7</ele>
        <time>2020-09-10T11:10:25Z</time>
      </trkpt>
      <trkpt lat="44.89728" lon="-0.42109">
        <ele>20.7</ele>
        <time>2020-09-10T11:10:26Z</time>
      </trkpt>
      <trkpt lat="44.89727" lon="-0.4211">
        <ele>20.6</ele>
        <time>2020-09-10T11:10:27Z</time>
      </trkpt>
      <trkpt lat="44.89726" lon="-0.42111">
        <ele>20.6</ele>
        <time>2020-09-10T11:10:29Z</time>
      </trkpt>
      <trkpt lat="44.89726" lon="-0.42112">
        <ele>20.5</ele>
        <time>2020-09-10T11:10:30Z</time>
      </trkpt>
      <trkpt lat="44.89724" lon="-0.42115">
        <ele>20.4</ele>
        <time>2020-09-10T11:10:31Z</time>
      </trkpt>
      <trkpt lat="44.89724" lon="-0.42115">
        <ele>20.4</ele>
        <time>2020-09-10T11:10:32Z</time>
      </trkpt>
      <trkpt lat="44.89723" lon="-0.42116">
        <ele>20.3</ele>
        <time>2020-09-10T11:10:33Z</time>
      </trkpt>
      <trkpt lat="44.89722" lon="-0.42118">
        <ele>20.3</ele>
        <time>2020-09-10T11:10:34Z</time>
      </trkpt>
      <trkpt lat="44.89721" lon="-0.4212">
        <ele>20.2</ele>
        <time>2020-09-10T11:10:36Z</time>
      </trkpt>
      <trkpt lat="44.8972" lon="-0.42121">
        <ele>20.1</ele>
        <time>2020-09-10T11:10:38Z</time>
      </trkpt>
      <trkpt lat="44.89719" lon="-0.42122">
        <ele>20.1</ele>
        <time>2020-09-10T11:10:39Z</time>
      </trkpt>
      <trkpt lat="44.89718" lon="-0.42123">
        <ele>20</ele>
        <time>2020-09-10T11:10:40Z</time>
      </trkpt>
      <trkpt lat="44.89717" lon="-0.42124">
        <ele>20</ele>
        <time>2020-09-10T11:10:41Z</time>
      </trkpt>
      <trkpt lat="44.89717" lon="-0.42125">
        <ele>19.9</ele>
        <time>2020-09-10T11:10:42Z</time>
      </trkpt>
      <trkpt lat="44.89715" lon="-0.42126">
        <ele>19.9</ele>
        <time>2020-09-10T11:10:44Z</time>
      </trkpt>
      <trkpt lat="44.89713" lon="-0.42129">
        <ele>19.8</ele>
        <time>2020-09-10T11:10:45Z</time>
      </trkpt>
      <trkpt lat="44.89712" lon="-0.42128">
        <ele>19.7</ele>
        <time>2020-09-10T11:10:46Z</time>
      </trkpt>
      <trkpt lat="44.89711" lon="-0.42129">
        <ele>19.7</ele>
        <time>2020-09-10T11:10:47Z</time>
      </trkpt>
      <trkpt lat="44.8971" lon="-0.42128">
        <ele>19.6</ele>
        <time>2020-09-10T11:10:48Z</time>
      </trkpt>
      <trkpt lat="44.89709" lon="-0.42128">
        <ele>19.6</ele>
        <time>2020-09-10T11:10:50Z</time>
      </trkpt>
      <trkpt lat="44.89707" lon="-0.42129">
        <ele>19.5</ele>
        <time>2020-09-10T11:10:51Z</time>
      </trkpt>
      <trkpt lat="44.89706" lon="-0.42129">
        <ele>19.4</ele>
        <time>2020-09-10T11:10:52Z</time>
      </trkpt>
      <trkpt lat="44.89705" lon="-0.42129">
        <ele>19.4</ele>
        <time>2020-09-10T11:10:53Z</time>
      </trkpt>
      <trkpt lat="44.89704" lon="-0.42129">
        <ele>19.4</ele>
        <time>2020-09-10T11:10:54Z</time>
      </trkpt>
      <trkpt lat="44.89703" lon="-0.42129">
        <ele>19.3</ele>
        <time>2020-09-10T11:10:55Z</time>
      </trkpt>
      <trkpt lat="44.89702" lon="-0.4213">
        <ele>19.3</ele>
        <time>2020-09-10T11:10:56Z</time>
      </trkpt>
      <trkpt lat="44.897" lon="-0.42131">
        <ele>19.2</ele>
        <time>2020-09-10T11:10:58Z</time>
      </trkpt>
      <trkpt lat="44.897" lon="-0.42132">
        <ele>19.2</ele>
        <time>2020-09-10T11:10:59Z</time>
      </trkpt>
      <trkpt lat="44.897" lon="-0.42131">
        <ele>19.2</ele>
        <time>2020-09-10T11:11:00Z</time>
      </trkpt>
      <trkpt lat="44.897" lon="-0.42129">
        <ele>19.1</ele>
        <time>2020-09-10T11:11:02Z</time>
      </trkpt>
      <trkpt lat="44.89701" lon="-0.42128">
        <ele>19.1</ele>
        <time>2020-09-10T11:11:04Z</time>
      </trkpt>
      <trkpt lat="44.89701" lon="-0.42127">
        <ele>19.1</ele>
        <time>2020-09-10T11:11:05Z</time>
      </trkpt>
      <trkpt lat="44.89701" lon="-0.42126">
        <ele>19</ele>
        <time>2020-09-10T11:11:07Z</time>
      </trkpt>
      <trkpt lat="44.89701" lon="-0.42126">
        <ele>19</ele>
        <time>2020-09-10T11:11:08Z</time>
      </trkpt>
      <trkpt lat="44.89702" lon="-0.42125">
        <ele>19</ele>
        <time>2020-09-10T11:11:10Z</time>
      </trkpt>
      <trkpt lat="44.89702" lon="-0.42124">
        <ele>19</ele>
        <time>2020-09-10T11:11:11Z</time>
      </trkpt>
      <trkpt lat="44.89702" lon="-0.42124">
        <ele>19</ele>
        <time>2020-09-10T11:11:12Z</time>
      </trkpt>
      <trkpt lat="44.89703" lon="-0.42123">
        <ele>18.9</ele>
        <time>2020-09-10T11:11:14Z</time>
      </trkpt>
      <trkpt lat="44.89703" lon="-0.42123">
        <ele>18.9</ele>
        <time>2020-09-10T11:11:15Z</time>
      </trkpt>
      <trkpt lat="44.89704" lon="-0.4212">
        <ele>18.9</ele>
        <time>2020-09-10T11:11:17Z</time>
      </trkpt>
      <trkpt lat="44.89706" lon="-0.42119">
        <ele>18.8</ele>
        <time>2020-09-10T11:11:19Z</time>
      </trkpt>
      <trkpt lat="44.89707" lon="-0.42119">
        <ele>18.8</ele>
        <time>2020-09-10T11:11:20Z</time>
      </trkpt>
      <trkpt lat="44.89709" lon="-0.42119">
        <ele>18.8</ele>
        <time>2020-09-10T11:11:22Z</time>
      </trkpt>
      <trkpt lat="44.8971" lon="-0.42119">
        <ele>18.9</ele>
        <time>2020-09-10T11:11:23Z</time>
      </trkpt>
      <trkpt lat="44.89711" lon="-0.42118">
        <ele>18.9</ele>
        <time>2020-09-10T11:11:25Z</time>
      </trkpt>
      <trkpt lat="44.89712" lon="-0.42117">
        <ele>19</ele>
        <time>2020-09-10T11:11:26Z</time>
      </trkpt>
      <trkpt lat="44.89714" lon="-0.42116">
        <ele>19</ele>
        <time>2020-09-10T11:11:27Z</time>
      </trkpt>
      <trkpt lat="44.89715" lon="-0.42115">
        <ele>19.1</ele>
        <time>2020-09-10T11:11:28Z</time>
      </trkpt>
      <trkpt lat="44.89715" lon="-0.42114">
        <ele>19.1</ele>
        <time>2020-09-10T11:11:29Z</time>
      </trkpt>
      <trkpt lat="44.89717" lon="-0.42111">
        <ele>19.2</ele>
        <time>2020-09-10T11:11:30Z</time>
      </trkpt>
      <trkpt lat="44.89718" lon="-0.42109">
        <ele>19.3</ele>
        <time>2020-09-10T11:11:32Z</time>
      </trkpt>
      <trkpt lat="44.89719" lon="-0.42107">
        <ele>19.4</ele>
        <time>2020-09-10T11:11:34Z</time>
      </trkpt>
      <trkpt lat="44.89721" lon="-0.42106">
        <ele>19.4</ele>
        <time>2020-09-10T11:11:35Z</time>
      </trkpt>
      <trkpt lat="44.89721" lon="-0.42104">
        <ele>19.5</ele>
        <time>2020-09-10T11:11:36Z</time>
      </trkpt>
      <trkpt lat="44.89723" lon="-0.42102">
        <ele>19.6</ele>
        <time>2020-09-10T11:11:38Z</time>
      </trkpt>
      <trkpt lat="44.89724" lon="-0.42099">
        <ele>19.7</ele>
        <time>2020-09-10T11:11:39Z</time>
      </trkpt>
      <trkpt lat="44.89725" lon="-0.42097">
        <ele>19.8</ele>
        <time>2020-09-10T11:11:41Z</time>
      </trkpt>
      <trkpt lat="44.89727" lon="-0.42094">
        <ele>19.9</ele>
        <time>2020-09-10T11:11:43Z</time>
      </trkpt>
      <trkpt lat="44.89728" lon="-0.42092">
        <ele>19.9</ele>
        <time>2020-09-10T11:11:44Z</time>
      </trkpt>
      <trkpt lat="44.89729" lon="-0.4209">
        <ele>20</ele>
        <time>2020-09-10T11:11:45Z</time>
      </trkpt>
      <trkpt lat="44.8973" lon="-0.4209">
        <ele>20.1</ele>
        <time>2020-09-10T11:11:47Z</time>
      </trkpt>
      <trkpt lat="44.89731" lon="-0.42089">
        <ele>20.1</ele>
        <time>2020-09-10T11:11:48Z</time>
      </trkpt>
      <trkpt lat="44.89734" lon="-0.42086">
        <ele>20.3</ele>
        <time>2020-09-10T11:11:50Z</time>
      </trkpt>
      <trkpt lat="44.89735" lon="-0.42085">
        <ele>20.3</ele>
        <time>2020-09-10T11:11:51Z</time>
      </trkpt>
      <trkpt lat="44.89735" lon="-0.42084">
        <ele>20.4</ele>
        <time>2020-09-10T11:11:52Z</time>
      </trkpt>
      <trkpt lat="44.89736" lon="-0.42083">
        <ele>20.4</ele>
        <time>2020-09-10T11:11:53Z</time>
      </trkpt>
      <trkpt lat="44.89739" lon="-0.42081">
        <ele>20.6</ele>
        <time>2020-09-10T11:11:55Z</time>
      </trkpt>
      <trkpt lat="44.8974" lon="-0.4208">
        <ele>20.6</ele>
        <time>2020-09-10T11:11:56Z</time>
      </trkpt>
      <trkpt lat="44.89742" lon="-0.42079">
        <ele>20.7</ele>
        <time>2020-09-10T11:11:57Z</time>
      </trkpt>
      <trkpt lat="44.89743" lon="-0.42078">
        <ele>20.8</ele>
        <time>2020-09-10T11:11:58Z</time>
      </trkpt>
      <trkpt lat="44.89743" lon="-0.42077">
        <ele>20.8</ele>
        <time>2020-09-10T11:11:59Z</time>
      </trkpt>
      <trkpt lat="44.89746" lon="-0.42076">
        <ele>21</ele>
        <time>2020-09-10T11:12:00Z</time>
      </trkpt>
      <trkpt lat="44.89747" lon="-0.42076">
        <ele>21</ele>
        <time>2020-09-10T11:12:02Z</time>
      </trkpt>
      <trkpt lat="44.89748" lon="-0.42075">
        <ele>21.1</ele>
        <time>2020-09-10T11:12:03Z</time>
      </trkpt>
      <trkpt lat="44.89749" lon="-0.42074">
        <ele>21.2</ele>
        <time>2020-09-10T11:12:05Z</time>
      </trkpt>
      <trkpt lat="44.8975" lon="-0.42074">
        <ele>21.3</ele>
        <time>2020-09-10T11:12:06Z</time>
      </trkpt>
      <trkpt lat="44.89752" lon="-0.42073">
        <ele>21.3</ele>
        <time>2020-09-10T11:12:07Z</time>
      </trkpt>
      <trkpt lat="44.89753" lon="-0.42073">
        <ele>21.4</ele>
        <time>2020-09-10T11:12:08Z</time>
      </trkpt>
      <trkpt lat="44.89755" lon="-0.42072">
        <ele>21.5</ele>
        <time>2020-09-10T11:12:10Z</time>
      </trkpt>
      <trkpt lat="44.89756" lon="-0.42071">
        <ele>21.6</ele>
        <time>2020-09-10T11:12:11Z</time>
      </trkpt>
      <trkpt lat="44.89759" lon="-0.42071">
        <ele>21.8</ele>
        <time>2020-09-10T11:12:12Z</time>
      </trkpt>
      <trkpt lat="44.89761" lon="-0.4207">
        <ele>21.9</ele>
        <time>2020-09-10T11:12:14Z</time>
      </trkpt>
      <trkpt lat="44.89762" lon="-0.4207">
        <ele>22</ele>
        <time>2020-09-10T11:12:15Z</time>
      </trkpt>
      <trkpt lat="44.89763" lon="-0.42069">
        <ele>22.1</ele>
        <time>2020-09-10T11:12:16Z</time>
      </trkpt>
      <trkpt lat="44.89765" lon="-0.42069">
        <ele>22.2</ele>
        <time>2020-09-10T11:12:17Z</time>
      </trkpt>
      <trkpt lat="44.89766" lon="-0.42068">
        <ele>22.3</ele>
        <time>2020-09-10T11:12:18Z</time>
      </trkpt>
      <trkpt lat="44.89769" lon="-0.42067">
        <ele>22.5</ele>
        <time>2020-09-10T11:12:20Z</time>
      </trkpt>
      <trkpt lat="44.89771" lon="-0.42066">
        <ele>22.6</ele>
        <time>2020-09-10T11:12:21Z</time>
      </trkpt>
      <trkpt lat="44.89772" lon="-0.42065">
        <ele>22.7</ele>
        <time>2020-09-10T11:12:22Z</time>
      </trkpt>
      <trkpt lat="44.89773" lon="-0.42064">
        <ele>22.8</ele>
        <time>2020-09-10T11:12:24Z</time>
      </trkpt>
      <trkpt lat="44.89775" lon="-0.42063">
        <ele>22.9</ele>
        <time>2020-09-10T11:12:25Z</time>
      </trkpt>
      <trkpt lat="44.89776" lon="-0.42063">
        <ele>23.1</ele>
        <time>2020-09-10T11:12:26Z</time>
      </trkpt>
      <trkpt lat="44.89778" lon="-0.42062">
        <ele>23.2</ele>
        <time>2020-09-10T11:12:28Z</time>
      </trkpt>
      <trkpt lat="44.8978" lon="-0.42062">
        <ele>23.3</ele>
        <time>2020-09-10T11:12:29Z</time>
      </trkpt>
      <trkpt lat="44.89781" lon="-0.42062">
        <ele>23.5</ele>
        <time>2020-09-10T11:12:30Z</time>
      </trkpt>
      <trkpt lat="44.89783" lon="-0.42062">
        <ele>23.6</ele>
        <time>2020-09-10T11:12:31Z</time>
      </trkpt>
      <trkpt lat="44.89784" lon="-0.42062">
        <ele>23.7</ele>
        <time>2020-09-10T11:12:33Z</time>
      </trkpt>
      <trkpt lat="44.89785" lon="-0.42062">
        <ele>23.8</ele>
        <time>2020-09-10T11:12:34Z</time>
      </trkpt>
      <trkpt lat="44.89787" lon="-0.42063">
        <ele>23.9</ele>
        <time>2020-09-10T11:12:35Z</time>
      </trkpt>
      <trkpt lat="44.89788" lon="-0.42063">
        <ele>24.1</ele>
        <time>2020-09-10T11:12:36Z</time>
      </trkpt>
      <trkpt lat="44.8979" lon="-0.42064">
        <ele>24.2</ele>
        <time>2020-09-10T11:12:37Z</time>
      </trkpt>
      <trkpt lat="44.89793" lon="-0.42065">
        <ele>24.5</ele>
        <time>2020-09-10T11:12:39Z</time>
      </trkpt>
      <trkpt lat="44.89795" lon="-0.42065">
        <ele>24.7</ele>
        <time>2020-09-10T11:12:40Z</time>
      </trkpt>
      <trkpt lat="44.89796" lon="-0.42066">
        <ele>24.8</ele>
        <time>2020-09-10T11:12:41Z</time>
      </trkpt>
      <trkpt lat="44.89797" lon="-0.42066">
        <ele>24.9</ele>
        <time>2020-09-10T11:12:42Z</time>
      </trkpt>
      <trkpt lat="44.89801" lon="-0.42068">
        <ele>25.3</ele>
        <time>2020-09-10T11:12:44Z</time>
      </trkpt>
      <trkpt lat="44.89802" lon="-0.42069">
        <ele>25.4</ele>
        <time>2020-09-10T11:12:45Z</time>
      </trkpt>
      <trkpt lat="44.89802" lon="-0.4207">
        <ele>25.5</ele>
        <time>2020-09-10T11:12:46Z</time>
      </trkpt>
      <trkpt lat="44.89803" lon="-0.4207">
        <ele>25.6</ele>
        <time>2020-09-10T11:12:47Z</time>
      </trkpt>
      <trkpt lat="44.89804" lon="-0.42071">
        <ele>25.7</ele>
        <time>2020-09-10T11:12:49Z</time>
      </trkpt>
      <trkpt lat="44.89805" lon="-0.42072">
        <ele>25.8</ele>
        <time>2020-09-10T11:12:50Z</time>
      </trkpt>
      <trkpt lat="44.89806" lon="-0.42073">
        <ele>25.9</ele>
        <time>2020-09-10T11:12:51Z</time>
      </trkpt>
      <trkpt lat="44.89806" lon="-0.42074">
        <ele>26</ele>
        <time>2020-09-10T11:12:52Z</time>
      </trkpt>
      <trkpt lat="44.89808" lon="-0.42076">
        <ele>26.2</ele>
        <time>2020-09-10T11:12:54Z</time>
      </trkpt>
      <trkpt lat="44.89809" lon="-0.42078">
        <ele>26.4</ele>
        <time>2020-09-10T11:12:55Z</time>
      </trkpt>
      <trkpt lat="44.8981" lon="-0.4208">
        <ele>26.6</ele>
        <time>2020-09-10T11:12:57Z</time>
      </trkpt>
      <trkpt lat="44.89811" lon="-0.42081">
        <ele>26.7</ele>
        <time>2020-09-10T11:12:58Z</time>
      </trkpt>
      <trkpt lat="44.89811" lon="-0.42082">
        <ele>26.8</ele>
        <time>2020-09-10T11:12:59Z</time>
      </trkpt>
      <trkpt lat="44.89813" lon="-0.42085">
        <ele>27.1</ele>
        <time>2020-09-10T11:13:01Z</time>
      </trkpt>
      <trkpt lat="44.89814" lon="-0.42086">
        <ele>27.2</ele>
        <time>2020-09-10T11:13:02Z</time>
      </trkpt>
      <trkpt lat="44.89814" lon="-0.42087">
        <ele>27.3</ele>
        <time>2020-09-10T11:13:03Z</time>
      </trkpt>
      <trkpt lat="44.89815" lon="-0.4209">
        <ele>27.5</ele>
        <time>2020-09-10T11:13:05Z</time>
      </trkpt>
      <trkpt lat="44.89814" lon="-0.4209">
        <ele>27.6</ele>
        <time>2020-09-10T11:13:06Z</time>
      </trkpt>
      <trkpt lat="44.89814" lon="-0.42091">
        <ele>27.7</ele>
        <time>2020-09-10T11:13:08Z</time>
      </trkpt>
      <trkpt lat="44.89813" lon="-0.42091">
        <ele>27.7</ele>
        <time>2020-09-10T11:13:09Z</time>
      </trkpt>
      <trkpt lat="44.89813" lon="-0.42091">
        <ele>27.8</ele>
        <time>2020-09-10T11:13:11Z</time>
      </trkpt>
      <trkpt lat="44.89813" lon="-0.42092">
        <ele>27.9</ele>
        <time>2020-09-10T11:13:12Z</time>
      </trkpt>
      <trkpt lat="44.89813" lon="-0.42094">
        <ele>28</ele>
        <time>2020-09-10T11:13:14Z</time>
      </trkpt>
      <trkpt lat="44.89814" lon="-0.42097">
        <ele>28.2</ele>
        <time>2020-09-10T11:13:15Z</time>
      </trkpt>
      <trkpt lat="44.89814" lon="-0.42098">
        <ele>28.3</ele>
        <time>2020-09-10T11:13:17Z</time>
      </trkpt>
      <trkpt lat="44.89814" lon="-0.421">
        <ele>28.5</ele>
        <time>2020-09-10T11:13:18Z</time>
      </trkpt>
      <trkpt lat="44.89815" lon="-0.42103">
        <ele>28.7</ele>
        <time>2020-09-10T11:13:20Z</time>
      </trkpt>
      <trkpt lat="44.89815" lon="-0.42106">
        <ele>28.9</ele>
        <time>2020-09-10T11:13:21Z</time>
      </trkpt>
      <trkpt lat="44.89816" lon="-0.42107">
        <ele>28.9</ele>
        <time>2020-09-10T11:13:22Z</time>
      </trkpt>
      <trkpt lat="44.89816" lon="-0.42108">
        <ele>29</ele>
        <time>2020-09-10T11:13:23Z</time>
      </trkpt>
      <trkpt lat="44.89816" lon="-0.42109">
        <ele>29.1</ele>
        <time>2020-09-10T11:13:25Z</time>
      </trkpt>
      <trkpt lat="44.89817" lon="-0.42111">
        <ele>29.3</ele>
        <time>2020-09-10T11:13:26Z</time>
      </trkpt>
      <trkpt lat="44.89817" lon="-0.42114">
        <ele>29.4</ele>
        <time>2020-09-10T11:13:27Z</time>
      </trkpt>
      <trkpt lat="44.89818" lon="-0.42115">
        <ele>29.5</ele>
        <time>2020-09-10T11:13:28Z</time>
      </trkpt>
      <trkpt lat="44.89818" lon="-0.42116">
        <ele>29.8</ele>
        <time>2020-09-10T11:13:29Z</time>
      </trkpt>
      <trkpt lat="44.89818" lon="-0.42117">
        <ele>29.9</ele>
        <time>2020-09-10T11:13:30Z</time>
      </trkpt>
      <trkpt lat="44.89818" lon="-0.42118">
        <ele>29.9</ele>
        <time>2020-09-10T11:13:31Z</time>
      </trkpt>
      <trkpt lat="44.89818" lon="-0.42119">
        <ele>30</ele>
        <time>2020-09-10T11:13:33Z</time>
      </trkpt>
      <trkpt lat="44.89818" lon="-0.42121">
        <ele>30.2</ele>
        <time>2020-09-10T11:13:34Z</time>
      </trkpt>
      <trkpt lat="44.89818" lon="-0.42123">
        <ele>30.3</ele>
        <time>2020-09-10T11:13:35Z</time>
      </trkpt>
      <trkpt lat="44.89818" lon="-0.42124">
        <ele>30.4</ele>
        <time>2020-09-10T11:13:37Z</time>
      </trkpt>
      <trkpt lat="44.89819" lon="-0.42126">
        <ele>30.4</ele>
        <time>2020-09-10T11:13:38Z</time>
      </trkpt>
      <trkpt lat="44.89819" lon="-0.42129">
        <ele>30.7</ele>
        <time>2020-09-10T11:13:39Z</time>
      </trkpt>
      <trkpt lat="44.89819" lon="-0.42131">
        <ele>30.8</ele>
        <time>2020-09-10T11:13:41Z</time>
      </trkpt>
      <trkpt lat="44.89819" lon="-0.42132">
        <ele>30.9</ele>
        <time>2020-09-10T11:13:42Z</time>
      </trkpt>
      <trkpt lat="44.8982" lon="-0.42134">
        <ele>31</ele>
        <time>2020-09-10T11:13:43Z</time>
      </trkpt>
      <trkpt lat="44.8982" lon="-0.42135">
        <ele>31</ele>
        <time>2020-09-10T11:13:44Z</time>
      </trkpt>
      <trkpt lat="44.89821" lon="-0.42138">
        <ele>31.2</ele>
        <time>2020-09-10T11:13:46Z</time>
      </trkpt>
      <trkpt lat="44.89821" lon="-0.4214">
        <ele>31.3</ele>
        <time>2020-09-10T11:13:47Z</time>
      </trkpt>
      <trkpt lat="44.89821" lon="-0.42143">
        <ele>31.2</ele>
        <time>2020-09-10T11:13:48Z</time>
      </trkpt>
      <trkpt lat="44.89822" lon="-0.42144">
        <ele>31.2</ele>
        <time>2020-09-10T11:13:49Z</time>
      </trkpt>
      <trkpt lat="44.89822" lon="-0.42145">
        <ele>31.2</ele>
        <time>2020-09-10T11:13:50Z</time>
      </trkpt>
      <trkpt lat="44.89822" lon="-0.42147">
        <ele>31.2</ele>
        <time>2020-09-10T11:13:51Z</time>
      </trkpt>
      <trkpt lat="44.89822" lon="-0.42149">
        <ele>31.1</ele>
        <time>2020-09-10T11:13:53Z</time>
      </trkpt>
      <trkpt lat="44.89823" lon="-0.4215">
        <ele>31.1</ele>
        <time>2020-09-10T11:13:55Z</time>
      </trkpt>
      <trkpt lat="44.89824" lon="-0.42153">
        <ele>31</ele>
        <time>2020-09-10T11:13:56Z</time>
      </trkpt>
      <trkpt lat="44.89824" lon="-0.42154">
        <ele>31</ele>
        <time>2020-09-10T11:13:57Z</time>
      </trkpt>
      <trkpt lat="44.89825" lon="-0.42155">
        <ele>31</ele>
        <time>2020-09-10T11:13:58Z</time>
      </trkpt>
      <trkpt lat="44.89825" lon="-0.42156">
        <ele>30.9</ele>
        <time>2020-09-10T11:13:59Z</time>
      </trkpt>
      <trkpt lat="44.89827" lon="-0.42157">
        <ele>30.9</ele>
        <time>2020-09-10T11:14:01Z</time>
      </trkpt>
      <trkpt lat="44.89828" lon="-0.42156">
        <ele>30.8</ele>
        <time>2020-09-10T11:14:02Z</time>
      </trkpt>
      <trkpt lat="44.89829" lon="-0.42155">
        <ele>30.8</ele>
        <time>2020-09-10T11:14:04Z</time>
      </trkpt>
      <trkpt lat="44.89829" lon="-0.42152">
        <ele>30.8</ele>
        <time>2020-09-10T11:14:05Z</time>
      </trkpt>
      <trkpt lat="44.89829" lon="-0.42151">
        <ele>30.7</ele>
        <time>2020-09-10T11:14:06Z</time>
      </trkpt>
      <trkpt lat="44.89828" lon="-0.42149">
        <ele>30.7</ele>
        <time>2020-09-10T11:14:07Z</time>
      </trkpt>
      <trkpt lat="44.89828" lon="-0.42148">
        <ele>30.7</ele>
        <time>2020-09-10T11:14:08Z</time>
      </trkpt>
      <trkpt lat="44.89828" lon="-0.42145">
        <ele>30.6</ele>
        <time>2020-09-10T11:14:10Z</time>
      </trkpt>
      <trkpt lat="44.89827" lon="-0.42143">
        <ele>30.6</ele>
        <time>2020-09-10T11:14:11Z</time>
      </trkpt>
      <trkpt lat="44.89827" lon="-0.42142">
        <ele>30.5</ele>
        <time>2020-09-10T11:14:12Z</time>
      </trkpt>
      <trkpt lat="44.89827" lon="-0.42141">
        <ele>30.5</ele>
        <time>2020-09-10T11:14:13Z</time>
      </trkpt>
      <trkpt lat="44.89827" lon="-0.42139">
        <ele>30.5</ele>
        <time>2020-09-10T11:14:14Z</time>
      </trkpt>
      <trkpt lat="44.89826" lon="-0.42136">
        <ele>30.4</ele>
        <time>2020-09-10T11:14:16Z</time>
      </trkpt>
      <trkpt lat="44.89826" lon="-0.42135">
        <ele>30.4</ele>
        <time>2020-09-10T11:14:17Z</time>
      </trkpt>
      <trkpt lat="44.89825" lon="-0.42134">
        <ele>30.3</ele>
        <time>2020-09-10T11:14:18Z</time>
      </trkpt>
      <trkpt lat="44.89825" lon="-0.42132">
        <ele>30.3</ele>
        <time>2020-09-10T11:14:20Z</time>
      </trkpt>
      <trkpt lat="44.89824" lon="-0.4213">
        <ele>30.2</ele>
        <time>2020-09-10T11:14:21Z</time>
      </trkpt>
      <trkpt lat="44.89824" lon="-0.42129">
        <ele>30.2</ele>
        <time>2020-09-10T11:14:22Z</time>
      </trkpt>
      <trkpt lat="44.89823" lon="-0.42127">
        <ele>30.1</ele>
        <time>2020-09-10T11:14:24Z</time>
      </trkpt>
      <trkpt lat="44.89823" lon="-0.42125">
        <ele>30.1</ele>
        <time>2020-09-10T11:14:25Z</time>
      </trkpt>
      <trkpt lat="44.89822" lon="-0.42124">
        <ele>30.1</ele>
        <time>2020-09-10T11:14:26Z</time>
      </trkpt>
      <trkpt lat="44.89822" lon="-0.42122">
        <ele>30</ele>
        <time>2020-09-10T11:14:27Z</time>
      </trkpt>
      <trkpt lat="44.89821" lon="-0.4212">
        <ele>30</ele>
        <time>2020-09-10T11:14:29Z</time>
      </trkpt>
      <trkpt lat="44.89821" lon="-0.42118">
        <ele>29.9</ele>
        <time>2020-09-10T11:14:30Z</time>
      </trkpt>
      <trkpt lat="44.8982" lon="-0.42115">
        <ele>29.8</ele>
        <time>2020-09-10T11:14:31Z</time>
      </trkpt>
      <trkpt lat="44.8982" lon="-0.42113">
        <ele>29.8</ele>
        <time>2020-09-10T11:14:32Z</time>
      </trkpt>
      <trkpt lat="44.89819" lon="-0.42111">
        <ele>29.7</ele>
        <time>2020-09-10T11:14:34Z</time>
      </trkpt>
      <trkpt lat="44.89819" lon="-0.4211">
        <ele>29.7</ele>
        <time>2020-09-10T11:14:35Z</time>
      </trkpt>
      <trkpt lat="44.89819" lon="-0.42107">
        <ele>29.8</ele>
        <time>2020-09-10T11:14:37Z</time>
      </trkpt>
      <trkpt lat="44.89818" lon="-0.42106">
        <ele>29.8</ele>
        <time>2020-09-10T11:14:38Z</time>
      </trkpt>
      <trkpt lat="44.89818" lon="-0.42102">
        <ele>29.8</ele>
        <time>2020-09-10T11:14:39Z</time>
      </trkpt>
      <trkpt lat="44.89818" lon="-0.42101">
        <ele>29.8</ele>
        <time>2020-09-10T11:14:40Z</time>
      </trkpt>
      <trkpt lat="44.89818" lon="-0.42099">
        <ele>29.8</ele>
        <time>2020-09-10T11:14:41Z</time>
      </trkpt>
      <trkpt lat="44.89818" lon="-0.42097">
        <ele>29.7</ele>
        <time>2020-09-10T11:14:42Z</time>
      </trkpt>
      <trkpt lat="44.89817" lon="-0.42094">
        <ele>29.7</ele>
        <time>2020-09-10T11:14:44Z</time>
      </trkpt>
      <trkpt lat="44.89817" lon="-0.42093">
        <ele>29.7</ele>
        <time>2020-09-10T11:14:45Z</time>
      </trkpt>
      <trkpt lat="44.89817" lon="-0.4209">
        <ele>29.7</ele>
        <time>2020-09-10T11:14:46Z</time>
      </trkpt>
      <trkpt lat="44.89817" lon="-0.42088">
        <ele>29.7</ele>
        <time>2020-09-10T11:14:47Z</time>
      </trkpt>
      <trkpt lat="44.89817" lon="-0.42086">
        <ele>29.7</ele>
        <time>2020-09-10T11:14:48Z</time>
      </trkpt>
      <trkpt lat="44.89817" lon="-0.42085">
        <ele>29.6</ele>
        <time>2020-09-10T11:14:49Z</time>
      </trkpt>
      <trkpt lat="44.89817" lon="-0.42083">
        <ele>29.6</ele>
        <time>2020-09-10T11:14:50Z</time>
      </trkpt>
      <trkpt lat="44.89816" lon="-0.4208">
        <ele>29.6</ele>
        <time>2020-09-10T11:14:51Z</time>
      </trkpt>
      <trkpt lat="44.89816" lon="-0.42079">
        <ele>29.6</ele>
        <time>2020-09-10T11:14:52Z</time>
      </trkpt>
      <trkpt lat="44.89816" lon="-0.42078">
        <ele>29.6</ele>
        <time>2020-09-10T11:14:53Z</time>
      </trkpt>
      <trkpt lat="44.89816" lon="-0.42076">
        <ele>29.5</ele>
        <time>2020-09-10T11:14:54Z</time>
      </trkpt>
      <trkpt lat="44.89817" lon="-0.42074">
        <ele>29.5</ele>
        <time>2020-09-10T11:14:55Z</time>
      </trkpt>
      <trkpt lat="44.89817" lon="-0.42071">
        <ele>29.5</ele>
        <time>2020-09-10T11:14:57Z</time>
      </trkpt>
      <trkpt lat="44.89817" lon="-0.42068">
        <ele>29.4</ele>
        <time>2020-09-10T11:14:58Z</time>
      </trkpt>
      <trkpt lat="44.89817" lon="-0.42067">
        <ele>29.4</ele>
        <time>2020-09-10T11:14:59Z</time>
      </trkpt>
      <trkpt lat="44.89817" lon="-0.42065">
        <ele>29.4</ele>
        <time>2020-09-10T11:15:00Z</time>
      </trkpt>
      <trkpt lat="44.89817" lon="-0.42063">
        <ele>29.3</ele>
        <time>2020-09-10T11:15:01Z</time>
      </trkpt>
      <trkpt lat="44.89817" lon="-0.42061">
        <ele>29.3</ele>
        <time>2020-09-10T11:15:02Z</time>
      </trkpt>
      <trkpt lat="44.89817" lon="-0.4206">
        <ele>29.3</ele>
        <time>2020-09-10T11:15:03Z</time>
      </trkpt>
      <trkpt lat="44.89818" lon="-0.42058">
        <ele>29.3</ele>
        <time>2020-09-10T11:15:04Z</time>
      </trkpt>
      <trkpt lat="44.89818" lon="-0.42057">
        <ele>29.2</ele>
        <time>2020-09-10T11:15:05Z</time>
      </trkpt>
      <trkpt lat="44.89818" lon="-0.42054">
        <ele>29.2</ele>
        <time>2020-09-10T11:15:06Z</time>
      </trkpt>
      <trkpt lat="44.89818" lon="-0.42052">
        <ele>29.2</ele>
        <time>2020-09-10T11:15:07Z</time>
      </trkpt>
      <trkpt lat="44.89818" lon="-0.42051">
        <ele>29.1</ele>
        <time>2020-09-10T11:15:08Z</time>
      </trkpt>
      <trkpt lat="44.89819" lon="-0.42048">
        <ele>29.1</ele>
        <time>2020-09-10T11:15:10Z</time>
      </trkpt>
      <trkpt lat="44.89819" lon="-0.42045">
        <ele>29</ele>
        <time>2020-09-10T11:15:11Z</time>
      </trkpt>
      <trkpt lat="44.89819" lon="-0.42044">
        <ele>29</ele>
        <time>2020-09-10T11:15:12Z</time>
      </trkpt>
      <trkpt lat="44.8982" lon="-0.4204">
        <ele>28.9</ele>
        <time>2020-09-10T11:15:14Z</time>
      </trkpt>
      <trkpt lat="44.8982" lon="-0.42038">
        <ele>28.9</ele>
        <time>2020-09-10T11:15:15Z</time>
      </trkpt>
      <trkpt lat="44.89821" lon="-0.42035">
        <ele>28.8</ele>
        <time>2020-09-10T11:15:16Z</time>
      </trkpt>
      <trkpt lat="44.89822" lon="-0.42029">
        <ele>28.6</ele>
        <time>2020-09-10T11:15:18Z</time>
      </trkpt>
      <trkpt lat="44.89823" lon="-0.42026">
        <ele>28.6</ele>
        <time>2020-09-10T11:15:19Z</time>
      </trkpt>
      <trkpt lat="44.89822" lon="-0.42024">
        <ele>28.5</ele>
        <time>2020-09-10T11:15:20Z</time>
      </trkpt>
      <trkpt lat="44.89821" lon="-0.42022">
        <ele>28.5</ele>
        <time>2020-09-10T11:15:22Z</time>
      </trkpt>
      <trkpt lat="44.89821" lon="-0.4202">
        <ele>28.4</ele>
        <time>2020-09-10T11:15:23Z</time>
      </trkpt>
      <trkpt lat="44.89822" lon="-0.42018">
        <ele>28.4</ele>
        <time>2020-09-10T11:15:25Z</time>
      </trkpt>
      <trkpt lat="44.89822" lon="-0.42017">
        <ele>28.3</ele>
        <time>2020-09-10T11:15:26Z</time>
      </trkpt>
      <trkpt lat="44.89822" lon="-0.42016">
        <ele>28.3</ele>
        <time>2020-09-10T11:15:27Z</time>
      </trkpt>
      <trkpt lat="44.89823" lon="-0.42011">
        <ele>28.2</ele>
        <time>2020-09-10T11:15:29Z</time>
      </trkpt>
      <trkpt lat="44.89823" lon="-0.42009">
        <ele>28.1</ele>
        <time>2020-09-10T11:15:31Z</time>
      </trkpt>
      <trkpt lat="44.89823" lon="-0.42007">
        <ele>28.1</ele>
        <time>2020-09-10T11:15:32Z</time>
      </trkpt>
      <trkpt lat="44.89824" lon="-0.42006">
        <ele>28</ele>
        <time>2020-09-10T11:15:33Z</time>
      </trkpt>
      <trkpt lat="44.89824" lon="-0.42004">
        <ele>28</ele>
        <time>2020-09-10T11:15:34Z</time>
      </trkpt>
      <trkpt lat="44.89824" lon="-0.42003">
        <ele>27.9</ele>
        <time>2020-09-10T11:15:35Z</time>
      </trkpt>
      <trkpt lat="44.89824" lon="-0.42001">
        <ele>27.9</ele>
        <time>2020-09-10T11:15:36Z</time>
      </trkpt>
      <trkpt lat="44.89824" lon="-0.41999">
        <ele>27.8</ele>
        <time>2020-09-10T11:15:38Z</time>
      </trkpt>
      <trkpt lat="44.89825" lon="-0.41996">
        <ele>27.8</ele>
        <time>2020-09-10T11:15:39Z</time>
      </trkpt>
      <trkpt lat="44.89825" lon="-0.41995">
        <ele>27.7</ele>
        <time>2020-09-10T11:15:40Z</time>
      </trkpt>
      <trkpt lat="44.89825" lon="-0.41994">
        <ele>27.7</ele>
        <time>2020-09-10T11:15:41Z</time>
      </trkpt>
      <trkpt lat="44.89825" lon="-0.41992">
        <ele>27.6</ele>
        <time>2020-09-10T11:15:43Z</time>
      </trkpt>
      <trkpt lat="44.89826" lon="-0.4199">
        <ele>27.5</ele>
        <time>2020-09-10T11:15:44Z</time>
      </trkpt>
      <trkpt lat="44.89826" lon="-0.41989">
        <ele>27.5</ele>
        <time>2020-09-10T11:15:45Z</time>
      </trkpt>
      <trkpt lat="44.89826" lon="-0.41988">
        <ele>27.5</ele>
        <time>2020-09-10T11:15:46Z</time>
      </trkpt>
      <trkpt lat="44.89826" lon="-0.41987">
        <ele>27.4</ele>
        <time>2020-09-10T11:15:47Z</time>
      </trkpt>
      <trkpt lat="44.89827" lon="-0.41985">
        <ele>27.4</ele>
        <time>2020-09-10T11:15:48Z</time>
      </trkpt>
      <trkpt lat="44.89827" lon="-0.41985">
        <ele>27.3</ele>
        <time>2020-09-10T11:15:49Z</time>
      </trkpt>
      <trkpt lat="44.89827" lon="-0.41982">
        <ele>27.3</ele>
        <time>2020-09-10T11:15:50Z</time>
      </trkpt>
      <trkpt lat="44.89828" lon="-0.4198">
        <ele>27.2</ele>
        <time>2020-09-10T11:15:52Z</time>
      </trkpt>
      <trkpt lat="44.89829" lon="-0.41978">
        <ele>27.1</ele>
        <time>2020-09-10T11:15:53Z</time>
      </trkpt>
      <trkpt lat="44.8983" lon="-0.41975">
        <ele>27</ele>
        <time>2020-09-10T11:15:55Z</time>
      </trkpt>
      <trkpt lat="44.89831" lon="-0.41974">
        <ele>27</ele>
        <time>2020-09-10T11:15:56Z</time>
      </trkpt>
      <trkpt lat="44.89832" lon="-0.41973">
        <ele>26.9</ele>
        <time>2020-09-10T11:15:57Z</time>
      </trkpt>
      <trkpt lat="44.89832" lon="-0.41972">
        <ele>26.9</ele>
        <time>2020-09-10T11:15:58Z</time>
      </trkpt>
      <trkpt lat="44.89832" lon="-0.4197">
        <ele>26.8</ele>
        <time>2020-09-10T11:15:59Z</time>
      </trkpt>
      <trkpt lat="44.89833" lon="-0.41969">
        <ele>26.8</ele>
        <time>2020-09-10T11:16:00Z</time>
      </trkpt>
      <trkpt lat="44.89834" lon="-0.41964">
        <ele>26.6</ele>
        <time>2020-09-10T11:16:02Z</time>
      </trkpt>
      <trkpt lat="44.89834" lon="-0.41963">
        <ele>26.6</ele>
        <time>2020-09-10T11:16:03Z</time>
      </trkpt>
      <trkpt lat="44.89834" lon="-0.41962">
        <ele>26.6</ele>
        <time>2020-09-10T11:16:04Z</time>
      </trkpt>
      <trkpt lat="44.89835" lon="-0.4196">
        <ele>26.5</ele>
        <time>2020-09-10T11:16:05Z</time>
      </trkpt>
      <trkpt lat="44.89836" lon="-0.41958">
        <ele>26.4</ele>
        <time>2020-09-10T11:16:07Z</time>
      </trkpt>
      <trkpt lat="44.89837" lon="-0.41954">
        <ele>26.3</ele>
        <time>2020-09-10T11:16:09Z</time>
      </trkpt>
      <trkpt lat="44.89838" lon="-0.4195">
        <ele>26.1</ele>
        <time>2020-09-10T11:16:10Z</time>
      </trkpt>
      <trkpt lat="44.89839" lon="-0.41948">
        <ele>26.1</ele>
        <time>2020-09-10T11:16:11Z</time>
      </trkpt>
      <trkpt lat="44.89839" lon="-0.41945">
        <ele>26</ele>
        <time>2020-09-10T11:16:12Z</time>
      </trkpt>
      <trkpt lat="44.89839" lon="-0.41944">
        <ele>26</ele>
        <time>2020-09-10T11:16:13Z</time>
      </trkpt>
      <trkpt lat="44.89839" lon="-0.41943">
        <ele>25.9</ele>
        <time>2020-09-10T11:16:14Z</time>
      </trkpt>
      <trkpt lat="44.8984" lon="-0.41942">
        <ele>25.9</ele>
        <time>2020-09-10T11:16:15Z</time>
      </trkpt>
      <trkpt lat="44.8984" lon="-0.4194">
        <ele>25.8</ele>
        <time>2020-09-10T11:16:16Z</time>
      </trkpt>
      <trkpt lat="44.8984" lon="-0.41939">
        <ele>25.8</ele>
        <time>2020-09-10T11:16:17Z</time>
      </trkpt>
      <trkpt lat="44.8984" lon="-0.41937">
        <ele>25.7</ele>
        <time>2020-09-10T11:16:18Z</time>
      </trkpt>
      <trkpt lat="44.89841" lon="-0.41933">
        <ele>25.6</ele>
        <time>2020-09-10T11:16:20Z</time>
      </trkpt>
      <trkpt lat="44.89841" lon="-0.41931">
        <ele>25.5</ele>
        <time>2020-09-10T11:16:21Z</time>
      </trkpt>
      <trkpt lat="44.89841" lon="-0.41929">
        <ele>25.5</ele>
        <time>2020-09-10T11:16:22Z</time>
      </trkpt>
      <trkpt lat="44.89841" lon="-0.41925">
        <ele>25.3</ele>
        <time>2020-09-10T11:16:24Z</time>
      </trkpt>
      <trkpt lat="44.89841" lon="-0.41922">
        <ele>25.2</ele>
        <time>2020-09-10T11:16:26Z</time>
      </trkpt>
      <trkpt lat="44.89841" lon="-0.4192">
        <ele>25.1</ele>
        <time>2020-09-10T11:16:27Z</time>
      </trkpt>
      <trkpt lat="44.89841" lon="-0.41918">
        <ele>25.1</ele>
        <time>2020-09-10T11:16:29Z</time>
      </trkpt>
      <trkpt lat="44.89841" lon="-0.41916">
        <ele>25</ele>
        <time>2020-09-10T11:16:30Z</time>
      </trkpt>
      <trkpt lat="44.89841" lon="-0.41914">
        <ele>24.9</ele>
        <time>2020-09-10T11:16:31Z</time>
      </trkpt>
      <trkpt lat="44.89841" lon="-0.41912">
        <ele>24.8</ele>
        <time>2020-09-10T11:16:32Z</time>
      </trkpt>
      <trkpt lat="44.89841" lon="-0.41911">
        <ele>24.8</ele>
        <time>2020-09-10T11:16:33Z</time>
      </trkpt>
      <trkpt lat="44.89841" lon="-0.41909">
        <ele>24.7</ele>
        <time>2020-09-10T11:16:34Z</time>
      </trkpt>
      <trkpt lat="44.89841" lon="-0.41908">
        <ele>24.7</ele>
        <time>2020-09-10T11:16:35Z</time>
      </trkpt>
      <trkpt lat="44.89841" lon="-0.41906">
        <ele>24.6</ele>
        <time>2020-09-10T11:16:36Z</time>
      </trkpt>
      <trkpt lat="44.89841" lon="-0.41904">
        <ele>24.6</ele>
        <time>2020-09-10T11:16:37Z</time>
      </trkpt>
      <trkpt lat="44.89841" lon="-0.41903">
        <ele>24.5</ele>
        <time>2020-09-10T11:16:38Z</time>
      </trkpt>
      <trkpt lat="44.89841" lon="-0.419">
        <ele>24.4</ele>
        <time>2020-09-10T11:16:40Z</time>
      </trkpt>
      <trkpt lat="44.89841" lon="-0.41899">
        <ele>24.4</ele>
        <time>2020-09-10T11:16:41Z</time>
      </trkpt>
      <trkpt lat="44.89841" lon="-0.41896">
        <ele>24.3</ele>
        <time>2020-09-10T11:16:43Z</time>
      </trkpt>
      <trkpt lat="44.89841" lon="-0.41895">
        <ele>24.2</ele>
        <time>2020-09-10T11:16:44Z</time>
      </trkpt>
      <trkpt lat="44.89841" lon="-0.41893">
        <ele>24.2</ele>
        <time>2020-09-10T11:16:46Z</time>
      </trkpt>
      <trkpt lat="44.89841" lon="-0.41892">
        <ele>24.2</ele>
        <time>2020-09-10T11:16:47Z</time>
      </trkpt>
      <trkpt lat="44.89842" lon="-0.41889">
        <ele>24.1</ele>
        <time>2020-09-10T11:16:48Z</time>
      </trkpt>
      <trkpt lat="44.89842" lon="-0.41888">
        <ele>24</ele>
        <time>2020-09-10T11:16:49Z</time>
      </trkpt>
      <trkpt lat="44.89842" lon="-0.41886">
        <ele>24</ele>
        <time>2020-09-10T11:16:50Z</time>
      </trkpt>
      <trkpt lat="44.89842" lon="-0.41885">
        <ele>23.9</ele>
        <time>2020-09-10T11:16:51Z</time>
      </trkpt>
      <trkpt lat="44.89843" lon="-0.41883">
        <ele>23.9</ele>
        <time>2020-09-10T11:16:53Z</time>
      </trkpt>
      <trkpt lat="44.89843" lon="-0.41881">
        <ele>23.8</ele>
        <time>2020-09-10T11:16:54Z</time>
      </trkpt>
      <trkpt lat="44.89843" lon="-0.4188">
        <ele>23.8</ele>
        <time>2020-09-10T11:16:55Z</time>
      </trkpt>
      <trkpt lat="44.89843" lon="-0.41877">
        <ele>23.7</ele>
        <time>2020-09-10T11:16:57Z</time>
      </trkpt>
      <trkpt lat="44.89844" lon="-0.41875">
        <ele>23.6</ele>
        <time>2020-09-10T11:16:58Z</time>
      </trkpt>
      <trkpt lat="44.89844" lon="-0.41874">
        <ele>23.6</ele>
        <time>2020-09-10T11:16:59Z</time>
      </trkpt>
      <trkpt lat="44.89844" lon="-0.41873">
        <ele>23.6</ele>
        <time>2020-09-10T11:17:00Z</time>
      </trkpt>
      <trkpt lat="44.89844" lon="-0.4187">
        <ele>23.5</ele>
        <time>2020-09-10T11:17:02Z</time>
      </trkpt>
      <trkpt lat="44.89844" lon="-0.41869">
        <ele>23.5</ele>
        <time>2020-09-10T11:17:03Z</time>
      </trkpt>
      <trkpt lat="44.89844" lon="-0.41868">
        <ele>23.4</ele>
        <time>2020-09-10T11:17:05Z</time>
      </trkpt>
      <trkpt lat="44.89844" lon="-0.41866">
        <ele>23.4</ele>
        <time>2020-09-10T11:17:06Z</time>
      </trkpt>
      <trkpt lat="44.89844" lon="-0.41865">
        <ele>23.3</ele>
        <time>2020-09-10T11:17:07Z</time>
      </trkpt>
      <trkpt lat="44.89843" lon="-0.41862">
        <ele>23.3</ele>
        <time>2020-09-10T11:17:09Z</time>
      </trkpt>
      <trkpt lat="44.89843" lon="-0.4186">
        <ele>23.2</ele>
        <time>2020-09-10T11:17:10Z</time>
      </trkpt>
      <trkpt lat="44.89843" lon="-0.41859">
        <ele>23.2</ele>
        <time>2020-09-10T11:17:11Z</time>
      </trkpt>
      <trkpt lat="44.89843" lon="-0.41857">
        <ele>23.1</ele>
        <time>2020-09-10T11:17:12Z</time>
      </trkpt>
      <trkpt lat="44.89843" lon="-0.41856">
        <ele>23.1</ele>
        <time>2020-09-10T11:17:13Z</time>
      </trkpt>
      <trkpt lat="44.89842" lon="-0.41853">
        <ele>23</ele>
        <time>2020-09-10T11:17:16Z</time>
      </trkpt>
      <trkpt lat="44.89842" lon="-0.41851">
        <ele>23</ele>
        <time>2020-09-10T11:17:17Z</time>
      </trkpt>
      <trkpt lat="44.89842" lon="-0.41849">
        <ele>23</ele>
        <time>2020-09-10T11:17:19Z</time>
      </trkpt>
      <trkpt lat="44.89841" lon="-0.41848">
        <ele>22.9</ele>
        <time>2020-09-10T11:17:20Z</time>
      </trkpt>
      <trkpt lat="44.89841" lon="-0.41846">
        <ele>22.9</ele>
        <time>2020-09-10T11:17:22Z</time>
      </trkpt>
      <trkpt lat="44.89841" lon="-0.41844">
        <ele>22.9</ele>
        <time>2020-09-10T11:17:23Z</time>
      </trkpt>
      <trkpt lat="44.89841" lon="-0.41843">
        <ele>22.8</ele>
        <time>2020-09-10T11:17:24Z</time>
      </trkpt>
      <trkpt lat="44.89841" lon="-0.41841">
        <ele>22.8</ele>
        <time>2020-09-10T11:17:25Z</time>
      </trkpt>
      <trkpt lat="44.89842" lon="-0.4184">
        <ele>22.7</ele>
        <time>2020-09-10T11:17:26Z</time>
      </trkpt>
      <trkpt lat="44.89842" lon="-0.41839">
        <ele>22.7</ele>
        <time>2020-09-10T11:17:27Z</time>
      </trkpt>
      <trkpt lat="44.89842" lon="-0.41838">
        <ele>22.7</ele>
        <time>2020-09-10T11:17:28Z</time>
      </trkpt>
      <trkpt lat="44.89843" lon="-0.41837">
        <ele>22.7</ele>
        <time>2020-09-10T11:17:30Z</time>
      </trkpt>
      <trkpt lat="44.89844" lon="-0.41837">
        <ele>22.7</ele>
        <time>2020-09-10T11:17:31Z</time>
      </trkpt>
      <trkpt lat="44.89844" lon="-0.41837">
        <ele>22.6</ele>
        <time>2020-09-10T11:17:33Z</time>
      </trkpt>
      <trkpt lat="44.89845" lon="-0.41837">
        <ele>22.6</ele>
        <time>2020-09-10T11:17:34Z</time>
      </trkpt>
      <trkpt lat="44.89846" lon="-0.41834">
        <ele>22.6</ele>
        <time>2020-09-10T11:17:36Z</time>
      </trkpt>
      <trkpt lat="44.89846" lon="-0.41833">
        <ele>22.5</ele>
        <time>2020-09-10T11:17:37Z</time>
      </trkpt>
      <trkpt lat="44.89846" lon="-0.41831">
        <ele>22.5</ele>
        <time>2020-09-10T11:17:38Z</time>
      </trkpt>
      <trkpt lat="44.89847" lon="-0.4183">
        <ele>22.5</ele>
        <time>2020-09-10T11:17:39Z</time>
      </trkpt>
      <trkpt lat="44.89846" lon="-0.41829">
        <ele>22.4</ele>
        <time>2020-09-10T11:17:40Z</time>
      </trkpt>
      <trkpt lat="44.89846" lon="-0.41829">
        <ele>22.4</ele>
        <time>2020-09-10T11:17:42Z</time>
      </trkpt>
      <trkpt lat="44.89846" lon="-0.41829">
        <ele>22.4</ele>
        <time>2020-09-10T11:17:43Z</time>
      </trkpt>
      <trkpt lat="44.89845" lon="-0.41829">
        <ele>22.4</ele>
        <time>2020-09-10T11:17:45Z</time>
      </trkpt>
      <trkpt lat="44.89845" lon="-0.4183">
        <ele>22.4</ele>
        <time>2020-09-10T11:17:47Z</time>
      </trkpt>
      <trkpt lat="44.89845" lon="-0.4183">
        <ele>22.4</ele>
        <time>2020-09-10T11:17:49Z</time>
      </trkpt>
      <trkpt lat="44.89845" lon="-0.41831">
        <ele>22.4</ele>
        <time>2020-09-10T11:17:51Z</time>
      </trkpt>
      <trkpt lat="44.89845" lon="-0.41831">
        <ele>22.4</ele>
        <time>2020-09-10T11:17:53Z</time>
      </trkpt>
      <trkpt lat="44.89844" lon="-0.41831">
        <ele>22.3</ele>
        <time>2020-09-10T11:17:55Z</time>
      </trkpt>
      <trkpt lat="44.89844" lon="-0.41832">
        <ele>22.3</ele>
        <time>2020-09-10T11:17:56Z</time>
      </trkpt>
      <trkpt lat="44.89844" lon="-0.41832">
        <ele>22.3</ele>
        <time>2020-09-10T11:17:57Z</time>
      </trkpt>
      <trkpt lat="44.89844" lon="-0.41832">
        <ele>22.3</ele>
        <time>2020-09-10T11:17:59Z</time>
      </trkpt>
      <trkpt lat="44.89844" lon="-0.41832">
        <ele>22.3</ele>
        <time>2020-09-10T11:18:00Z</time>
      </trkpt>
      <trkpt lat="44.89844" lon="-0.41833">
        <ele>22.3</ele>
        <time>2020-09-10T11:18:02Z</time>
      </trkpt>
      <trkpt lat="44.89845" lon="-0.41836">
        <ele>22.2</ele>
        <time>2020-09-10T11:18:04Z</time>
      </trkpt>
      <trkpt lat="44.89844" lon="-0.41835">
        <ele>22.2</ele>
        <time>2020-09-10T11:18:05Z</time>
      </trkpt>
      <trkpt lat="44.89842" lon="-0.41834">
        <ele>22.1</ele>
        <time>2020-09-10T11:18:07Z</time>
      </trkpt>
      <trkpt lat="44.89842" lon="-0.41834">
        <ele>22.1</ele>
        <time>2020-09-10T11:18:09Z</time>
      </trkpt>
      <trkpt lat="44.89843" lon="-0.41835">
        <ele>22.1</ele>
        <time>2020-09-10T11:18:10Z</time>
      </trkpt>
      <trkpt lat="44.89843" lon="-0.41835">
        <ele>22.1</ele>
        <time>2020-09-10T11:18:11Z</time>
      </trkpt>
      <trkpt lat="44.89844" lon="-0.41835">
        <ele>22.1</ele>
        <time>2020-09-10T11:18:13Z</time>
      </trkpt>
      <trkpt lat="44.89845" lon="-0.41836">
        <ele>22.1</ele>
        <time>2020-09-10T11:18:16Z</time>
      </trkpt>
      <trkpt lat="44.89845" lon="-0.41836">
        <ele>22.1</ele>
        <time>2020-09-10T11:18:17Z</time>
      </trkpt>
      <trkpt lat="44.89845" lon="-0.41836">
        <ele>22.1</ele>
        <time>2020-09-10T11:18:18Z</time>
      </trkpt>
      <trkpt lat="44.89845" lon="-0.41836">
        <ele>22</ele>
        <time>2020-09-10T11:18:20Z</time>
      </trkpt>
      <trkpt lat="44.89846" lon="-0.41837">
        <ele>22</ele>
        <time>2020-09-10T11:18:21Z</time>
      </trkpt>
      <trkpt lat="44.89846" lon="-0.41837">
        <ele>22</ele>
        <time>2020-09-10T11:18:23Z</time>
      </trkpt>
      <trkpt lat="44.89847" lon="-0.41838">
        <ele>22</ele>
        <time>2020-09-10T11:18:25Z</time>
      </trkpt>
      <trkpt lat="44.89847" lon="-0.41839">
        <ele>22</ele>
        <time>2020-09-10T11:18:27Z</time>
      </trkpt>
      <trkpt lat="44.89847" lon="-0.41839">
        <ele>22</ele>
        <time>2020-09-10T11:18:29Z</time>
      </trkpt>
      <trkpt lat="44.89847" lon="-0.41839">
        <ele>22</ele>
        <time>2020-09-10T11:18:31Z</time>
      </trkpt>
      <trkpt lat="44.89847" lon="-0.41839">
        <ele>22</ele>
        <time>2020-09-10T11:18:32Z</time>
      </trkpt>
      <trkpt lat="44.89847" lon="-0.41839">
        <ele>22</ele>
        <time>2020-09-10T11:18:33Z</time>
      </trkpt>
      <trkpt lat="44.89847" lon="-0.41839">
        <ele>22</ele>
        <time>2020-09-10T11:18:35Z</time>
      </trkpt>
      <trkpt lat="44.89847" lon="-0.41839">
        <ele>22</ele>
        <time>2020-09-10T11:18:36Z</time>
      </trkpt>
      <trkpt lat="44.89847" lon="-0.41839">
        <ele>22</ele>
        <time>2020-09-10T11:18:38Z</time>
      </trkpt>
      <trkpt lat="44.89847" lon="-0.41838">
        <ele>21.9</ele>
        <time>2020-09-10T11:18:40Z</time>
      </trkpt>
      <trkpt lat="44.89845" lon="-0.41839">
        <ele>21.9</ele>
        <time>2020-09-10T11:18:41Z</time>
      </trkpt>
      <trkpt lat="44.89844" lon="-0.41839">
        <ele>21.9</ele>
        <time>2020-09-10T11:18:43Z</time>
      </trkpt>
      <trkpt lat="44.89843" lon="-0.41839">
        <ele>21.9</ele>
        <time>2020-09-10T11:18:44Z</time>
      </trkpt>
      <trkpt lat="44.89842" lon="-0.41837">
        <ele>21.8</ele>
        <time>2020-09-10T11:18:46Z</time>
      </trkpt>
      <trkpt lat="44.89842" lon="-0.41837">
        <ele>21.8</ele>
        <time>2020-09-10T11:18:47Z</time>
      </trkpt>
      <trkpt lat="44.89842" lon="-0.41837">
        <ele>21.8</ele>
        <time>2020-09-10T11:18:49Z</time>
      </trkpt>
      <trkpt lat="44.89844" lon="-0.41838">
        <ele>21.8</ele>
        <time>2020-09-10T11:18:50Z</time>
      </trkpt>
      <trkpt lat="44.89844" lon="-0.41838">
        <ele>21.7</ele>
        <time>2020-09-10T11:18:51Z</time>
      </trkpt>
      <trkpt lat="44.89846" lon="-0.41839">
        <ele>21.7</ele>
        <time>2020-09-10T11:18:53Z</time>
      </trkpt>
      <trkpt lat="44.89847" lon="-0.41839">
        <ele>21.7</ele>
        <time>2020-09-10T11:18:56Z</time>
      </trkpt>
      <trkpt lat="44.89848" lon="-0.4184">
        <ele>21.7</ele>
        <time>2020-09-10T11:18:58Z</time>
      </trkpt>
      <trkpt lat="44.89848" lon="-0.4184">
        <ele>21.7</ele>
        <time>2020-09-10T11:18:59Z</time>
      </trkpt>
      <trkpt lat="44.89849" lon="-0.4184">
        <ele>21.7</ele>
        <time>2020-09-10T11:19:01Z</time>
      </trkpt>
      <trkpt lat="44.89849" lon="-0.4184">
        <ele>21.7</ele>
        <time>2020-09-10T11:19:02Z</time>
      </trkpt>
      <trkpt lat="44.8985" lon="-0.4184">
        <ele>21.6</ele>
        <time>2020-09-10T11:19:03Z</time>
      </trkpt>
      <trkpt lat="44.8985" lon="-0.4184">
        <ele>21.6</ele>
        <time>2020-09-10T11:19:04Z</time>
      </trkpt>
      <trkpt lat="44.8985" lon="-0.4184">
        <ele>21.6</ele>
        <time>2020-09-10T11:19:05Z</time>
      </trkpt>
      <trkpt lat="44.8985" lon="-0.4184">
        <ele>21.6</ele>
        <time>2020-09-10T11:19:07Z</time>
      </trkpt>
      <trkpt lat="44.8985" lon="-0.4184">
        <ele>21.6</ele>
        <time>2020-09-10T11:19:08Z</time>
      </trkpt>
      <trkpt lat="44.8985" lon="-0.41839">
        <ele>21.6</ele>
        <time>2020-09-10T11:19:10Z</time>
      </trkpt>
      <trkpt lat="44.8985" lon="-0.41838">
        <ele>21.6</ele>
        <time>2020-09-10T11:19:11Z</time>
      </trkpt>
      <trkpt lat="44.89849" lon="-0.41838">
        <ele>21.6</ele>
        <time>2020-09-10T11:19:13Z</time>
      </trkpt>
      <trkpt lat="44.89848" lon="-0.41838">
        <ele>21.6</ele>
        <time>2020-09-10T11:19:15Z</time>
      </trkpt>
      <trkpt lat="44.89848" lon="-0.41838">
        <ele>21.6</ele>
        <time>2020-09-10T11:19:17Z</time>
      </trkpt>
      <trkpt lat="44.89848" lon="-0.41838">
        <ele>21.6</ele>
        <time>2020-09-10T11:19:18Z</time>
      </trkpt>
      <trkpt lat="44.89848" lon="-0.41837">
        <ele>21.5</ele>
        <time>2020-09-10T11:19:19Z</time>
      </trkpt>
      <trkpt lat="44.89848" lon="-0.41837">
        <ele>21.5</ele>
        <time>2020-09-10T11:19:21Z</time>
      </trkpt>
      <trkpt lat="44.89847" lon="-0.41836">
        <ele>21.5</ele>
        <time>2020-09-10T11:19:22Z</time>
      </trkpt>
      <trkpt lat="44.89847" lon="-0.41836">
        <ele>21.5</ele>
        <time>2020-09-10T11:19:23Z</time>
      </trkpt>
      <trkpt lat="44.89846" lon="-0.41833">
        <ele>21.5</ele>
        <time>2020-09-10T11:19:25Z</time>
      </trkpt>
      <trkpt lat="44.89846" lon="-0.41832">
        <ele>21.5</ele>
        <time>2020-09-10T11:19:26Z</time>
      </trkpt>
      <trkpt lat="44.89846" lon="-0.41831">
        <ele>21.5</ele>
        <time>2020-09-10T11:19:27Z</time>
      </trkpt>
      <trkpt lat="44.89845" lon="-0.4183">
        <ele>21.4</ele>
        <time>2020-09-10T11:19:28Z</time>
      </trkpt>
      <trkpt lat="44.89846" lon="-0.41828">
        <ele>21.4</ele>
        <time>2020-09-10T11:19:29Z</time>
      </trkpt>
      <trkpt lat="44.89846" lon="-0.41827">
        <ele>21.4</ele>
        <time>2020-09-10T11:19:31Z</time>
      </trkpt>
      <trkpt lat="44.89846" lon="-0.41825">
        <ele>21.4</ele>
        <time>2020-09-10T11:19:32Z</time>
      </trkpt>
      <trkpt lat="44.89847" lon="-0.41824">
        <ele>21.4</ele>
        <time>2020-09-10T11:19:33Z</time>
      </trkpt>
      <trkpt lat="44.89847" lon="-0.41823">
        <ele>21.3</ele>
        <time>2020-09-10T11:19:34Z</time>
      </trkpt>
      <trkpt lat="44.89847" lon="-0.41822">
        <ele>21.3</ele>
        <time>2020-09-10T11:19:35Z</time>
      </trkpt>
      <trkpt lat="44.89848" lon="-0.4182">
        <ele>21.3</ele>
        <time>2020-09-10T11:19:36Z</time>
      </trkpt>
      <trkpt lat="44.89849" lon="-0.41818">
        <ele>21.3</ele>
        <time>2020-09-10T11:19:37Z</time>
      </trkpt>
      <trkpt lat="44.89852" lon="-0.41815">
        <ele>21.2</ele>
        <time>2020-09-10T11:19:39Z</time>
      </trkpt>
      <trkpt lat="44.89853" lon="-0.41814">
        <ele>21.1</ele>
        <time>2020-09-10T11:19:40Z</time>
      </trkpt>
      <trkpt lat="44.89856" lon="-0.41812">
        <ele>21.1</ele>
        <time>2020-09-10T11:19:42Z</time>
      </trkpt>
      <trkpt lat="44.89858" lon="-0.41812">
        <ele>21</ele>
        <time>2020-09-10T11:19:44Z</time>
      </trkpt>
      <trkpt lat="44.89859" lon="-0.41812">
        <ele>20.9</ele>
        <time>2020-09-10T11:19:45Z</time>
      </trkpt>
      <trkpt lat="44.8986" lon="-0.41811">
        <ele>20.9</ele>
        <time>2020-09-10T11:19:47Z</time>
      </trkpt>
      <trkpt lat="44.89861" lon="-0.41809">
        <ele>20.8</ele>
        <time>2020-09-10T11:19:48Z</time>
      </trkpt>
      <trkpt lat="44.89862" lon="-0.41808">
        <ele>20.8</ele>
        <time>2020-09-10T11:19:49Z</time>
      </trkpt>
      <trkpt lat="44.89862" lon="-0.41807">
        <ele>20.7</ele>
        <time>2020-09-10T11:19:50Z</time>
      </trkpt>
      <trkpt lat="44.89863" lon="-0.41807">
        <ele>20.7</ele>
        <time>2020-09-10T11:19:51Z</time>
      </trkpt>
      <trkpt lat="44.89864" lon="-0.41804">
        <ele>20.6</ele>
        <time>2020-09-10T11:19:52Z</time>
      </trkpt>
      <trkpt lat="44.89864" lon="-0.41804">
        <ele>20.6</ele>
        <time>2020-09-10T11:19:54Z</time>
      </trkpt>
      <trkpt lat="44.89864" lon="-0.41803">
        <ele>20.6</ele>
        <time>2020-09-10T11:19:55Z</time>
      </trkpt>
      <trkpt lat="44.89864" lon="-0.41802">
        <ele>20.5</ele>
        <time>2020-09-10T11:19:56Z</time>
      </trkpt>
      <trkpt lat="44.89865" lon="-0.418">
        <ele>20.5</ele>
        <time>2020-09-10T11:19:57Z</time>
      </trkpt>
      <trkpt lat="44.89865" lon="-0.41799">
        <ele>20.4</ele>
        <time>2020-09-10T11:19:58Z</time>
      </trkpt>
      <trkpt lat="44.89865" lon="-0.41798">
        <ele>20.4</ele>
        <time>2020-09-10T11:19:59Z</time>
      </trkpt>
      <trkpt lat="44.89865" lon="-0.41796">
        <ele>20.3</ele>
        <time>2020-09-10T11:20:01Z</time>
      </trkpt>
      <trkpt lat="44.89865" lon="-0.41794">
        <ele>20.2</ele>
        <time>2020-09-10T11:20:02Z</time>
      </trkpt>
      <trkpt lat="44.89865" lon="-0.41793">
        <ele>20.2</ele>
        <time>2020-09-10T11:20:03Z</time>
      </trkpt>
      <trkpt lat="44.89866" lon="-0.41793">
        <ele>20.2</ele>
        <time>2020-09-10T11:20:04Z</time>
      </trkpt>
      <trkpt lat="44.89866" lon="-0.41792">
        <ele>20.1</ele>
        <time>2020-09-10T11:20:06Z</time>
      </trkpt>
      <trkpt lat="44.89866" lon="-0.4179">
        <ele>20.1</ele>
        <time>2020-09-10T11:20:07Z</time>
      </trkpt>
      <trkpt lat="44.89866" lon="-0.4179">
        <ele>20.1</ele>
        <time>2020-09-10T11:20:08Z</time>
      </trkpt>
      <trkpt lat="44.89865" lon="-0.41788">
        <ele>20</ele>
        <time>2020-09-10T11:20:10Z</time>
      </trkpt>
      <trkpt lat="44.89865" lon="-0.41787">
        <ele>20</ele>
        <time>2020-09-10T11:20:11Z</time>
      </trkpt>
      <trkpt lat="44.89865" lon="-0.41785">
        <ele>19.9</ele>
        <time>2020-09-10T11:20:12Z</time>
      </trkpt>
      <trkpt lat="44.89864" lon="-0.41784">
        <ele>19.8</ele>
        <time>2020-09-10T11:20:13Z</time>
      </trkpt>
      <trkpt lat="44.89864" lon="-0.41784">
        <ele>19.8</ele>
        <time>2020-09-10T11:20:14Z</time>
      </trkpt>
      <trkpt lat="44.89864" lon="-0.41783">
        <ele>19.8</ele>
        <time>2020-09-10T11:20:15Z</time>
      </trkpt>
      <trkpt lat="44.89864" lon="-0.41781">
        <ele>19.7</ele>
        <time>2020-09-10T11:20:17Z</time>
      </trkpt>
      <trkpt lat="44.89864" lon="-0.4178">
        <ele>19.7</ele>
        <time>2020-09-10T11:20:18Z</time>
      </trkpt>
      <trkpt lat="44.89865" lon="-0.41779">
        <ele>19.6</ele>
        <time>2020-09-10T11:20:19Z</time>
      </trkpt>
      <trkpt lat="44.89865" lon="-0.41777">
        <ele>19.5</ele>
        <time>2020-09-10T11:20:20Z</time>
      </trkpt>
      <trkpt lat="44.89865" lon="-0.41775">
        <ele>19.5</ele>
        <time>2020-09-10T11:20:23Z</time>
      </trkpt>
      <trkpt lat="44.89865" lon="-0.41774">
        <ele>19.4</ele>
        <time>2020-09-10T11:20:24Z</time>
      </trkpt>
      <trkpt lat="44.89866" lon="-0.41772">
        <ele>19.4</ele>
        <time>2020-09-10T11:20:25Z</time>
      </trkpt>
      <trkpt lat="44.89866" lon="-0.41771">
        <ele>19.3</ele>
        <time>2020-09-10T11:20:27Z</time>
      </trkpt>
      <trkpt lat="44.89866" lon="-0.41769">
        <ele>19.3</ele>
        <time>2020-09-10T11:20:28Z</time>
      </trkpt>
      <trkpt lat="44.89866" lon="-0.41768">
        <ele>19.2</ele>
        <time>2020-09-10T11:20:29Z</time>
      </trkpt>
      <trkpt lat="44.89867" lon="-0.41767">
        <ele>19.2</ele>
        <time>2020-09-10T11:20:30Z</time>
      </trkpt>
      <trkpt lat="44.89868" lon="-0.41764">
        <ele>19.1</ele>
        <time>2020-09-10T11:20:33Z</time>
      </trkpt>
      <trkpt lat="44.89868" lon="-0.41762">
        <ele>19</ele>
        <time>2020-09-10T11:20:34Z</time>
      </trkpt>
      <trkpt lat="44.89868" lon="-0.4176">
        <ele>18.9</ele>
        <time>2020-09-10T11:20:35Z</time>
      </trkpt>
      <trkpt lat="44.89868" lon="-0.41756">
        <ele>18.8</ele>
        <time>2020-09-10T11:20:37Z</time>
      </trkpt>
      <trkpt lat="44.89868" lon="-0.41754">
        <ele>18.7</ele>
        <time>2020-09-10T11:20:38Z</time>
      </trkpt>
      <trkpt lat="44.89868" lon="-0.41751">
        <ele>18.7</ele>
        <time>2020-09-10T11:20:40Z</time>
      </trkpt>
      <trkpt lat="44.89868" lon="-0.41749">
        <ele>18.6</ele>
        <time>2020-09-10T11:20:41Z</time>
      </trkpt>
      <trkpt lat="44.89868" lon="-0.41748">
        <ele>18.6</ele>
        <time>2020-09-10T11:20:42Z</time>
      </trkpt>
      <trkpt lat="44.89868" lon="-0.41747">
        <ele>18.5</ele>
        <time>2020-09-10T11:20:44Z</time>
      </trkpt>
      <trkpt lat="44.89867" lon="-0.41745">
        <ele>18.5</ele>
        <time>2020-09-10T11:20:45Z</time>
      </trkpt>
      <trkpt lat="44.89867" lon="-0.41744">
        <ele>18.5</ele>
        <time>2020-09-10T11:20:46Z</time>
      </trkpt>
      <trkpt lat="44.89867" lon="-0.41742">
        <ele>18.4</ele>
        <time>2020-09-10T11:20:47Z</time>
      </trkpt>
      <trkpt lat="44.89867" lon="-0.41739">
        <ele>18.3</ele>
        <time>2020-09-10T11:20:48Z</time>
      </trkpt>
      <trkpt lat="44.89867" lon="-0.41735">
        <ele>18.2</ele>
        <time>2020-09-10T11:20:50Z</time>
      </trkpt>
      <trkpt lat="44.89866" lon="-0.41734">
        <ele>18.1</ele>
        <time>2020-09-10T11:20:51Z</time>
      </trkpt>
      <trkpt lat="44.89866" lon="-0.41729">
        <ele>18</ele>
        <time>2020-09-10T11:20:52Z</time>
      </trkpt>
      <trkpt lat="44.89866" lon="-0.41727">
        <ele>17.9</ele>
        <time>2020-09-10T11:20:54Z</time>
      </trkpt>
      <trkpt lat="44.89866" lon="-0.41726">
        <ele>17.9</ele>
        <time>2020-09-10T11:20:55Z</time>
      </trkpt>
      <trkpt lat="44.89866" lon="-0.41724">
        <ele>17.8</ele>
        <time>2020-09-10T11:20:56Z</time>
      </trkpt>
      <trkpt lat="44.89866" lon="-0.41722">
        <ele>17.8</ele>
        <time>2020-09-10T11:20:57Z</time>
      </trkpt>
      <trkpt lat="44.89866" lon="-0.4172">
        <ele>17.7</ele>
        <time>2020-09-10T11:20:59Z</time>
      </trkpt>
      <trkpt lat="44.89866" lon="-0.41719">
        <ele>17.6</ele>
        <time>2020-09-10T11:21:00Z</time>
      </trkpt>
      <trkpt lat="44.89866" lon="-0.41717">
        <ele>17.6</ele>
        <time>2020-09-10T11:21:01Z</time>
      </trkpt>
      <trkpt lat="44.89866" lon="-0.41713">
        <ele>17.4</ele>
        <time>2020-09-10T11:21:03Z</time>
      </trkpt>
      <trkpt lat="44.89866" lon="-0.41711">
        <ele>17.3</ele>
        <time>2020-09-10T11:21:04Z</time>
      </trkpt>
      <trkpt lat="44.89866" lon="-0.41709">
        <ele>17.2</ele>
        <time>2020-09-10T11:21:05Z</time>
      </trkpt>
      <trkpt lat="44.89866" lon="-0.41708">
        <ele>17.1</ele>
        <time>2020-09-10T11:21:06Z</time>
      </trkpt>
      <trkpt lat="44.89867" lon="-0.41705">
        <ele>17</ele>
        <time>2020-09-10T11:21:08Z</time>
      </trkpt>
      <trkpt lat="44.89867" lon="-0.41702">
        <ele>17</ele>
        <time>2020-09-10T11:21:09Z</time>
      </trkpt>
      <trkpt lat="44.89868" lon="-0.417">
        <ele>16.9</ele>
        <time>2020-09-10T11:21:11Z</time>
      </trkpt>
      <trkpt lat="44.89868" lon="-0.41698">
        <ele>16.8</ele>
        <time>2020-09-10T11:21:12Z</time>
      </trkpt>
      <trkpt lat="44.89869" lon="-0.41696">
        <ele>16.8</ele>
        <time>2020-09-10T11:21:13Z</time>
      </trkpt>
      <trkpt lat="44.89869" lon="-0.41694">
        <ele>16.7</ele>
        <time>2020-09-10T11:21:14Z</time>
      </trkpt>
      <trkpt lat="44.8987" lon="-0.41693">
        <ele>16.7</ele>
        <time>2020-09-10T11:21:15Z</time>
      </trkpt>
      <trkpt lat="44.8987" lon="-0.4169">
        <ele>16.6</ele>
        <time>2020-09-10T11:21:17Z</time>
      </trkpt>
      <trkpt lat="44.89871" lon="-0.41688">
        <ele>16.5</ele>
        <time>2020-09-10T11:21:18Z</time>
      </trkpt>
      <trkpt lat="44.89871" lon="-0.41686">
        <ele>16.5</ele>
        <time>2020-09-10T11:21:19Z</time>
      </trkpt>
      <trkpt lat="44.89871" lon="-0.41684">
        <ele>16.5</ele>
        <time>2020-09-10T11:21:21Z</time>
      </trkpt>
      <trkpt lat="44.89872" lon="-0.4168">
        <ele>16.4</ele>
        <time>2020-09-10T11:21:23Z</time>
      </trkpt>
      <trkpt lat="44.89872" lon="-0.41677">
        <ele>16.3</ele>
        <time>2020-09-10T11:21:24Z</time>
      </trkpt>
      <trkpt lat="44.89872" lon="-0.41676">
        <ele>16.3</ele>
        <time>2020-09-10T11:21:25Z</time>
      </trkpt>
      <trkpt lat="44.89872" lon="-0.41675">
        <ele>16.2</ele>
        <time>2020-09-10T11:21:26Z</time>
      </trkpt>
      <trkpt lat="44.89872" lon="-0.41673">
        <ele>16.2</ele>
        <time>2020-09-10T11:21:27Z</time>
      </trkpt>
      <trkpt lat="44.89871" lon="-0.4167">
        <ele>16.1</ele>
        <time>2020-09-10T11:21:28Z</time>
      </trkpt>
      <trkpt lat="44.89871" lon="-0.41668">
        <ele>16.1</ele>
        <time>2020-09-10T11:21:30Z</time>
      </trkpt>
      <trkpt lat="44.89871" lon="-0.41666">
        <ele>16</ele>
        <time>2020-09-10T11:21:31Z</time>
      </trkpt>
      <trkpt lat="44.8987" lon="-0.41662">
        <ele>15.9</ele>
        <time>2020-09-10T11:21:32Z</time>
      </trkpt>
      <trkpt lat="44.8987" lon="-0.4166">
        <ele>15.9</ele>
        <time>2020-09-10T11:21:33Z</time>
      </trkpt>
      <trkpt lat="44.8987" lon="-0.41658">
        <ele>15.8</ele>
        <time>2020-09-10T11:21:35Z</time>
      </trkpt>
      <trkpt lat="44.89869" lon="-0.41656">
        <ele>15.8</ele>
        <time>2020-09-10T11:21:36Z</time>
      </trkpt>
      <trkpt lat="44.89869" lon="-0.41653">
        <ele>15.7</ele>
        <time>2020-09-10T11:21:38Z</time>
      </trkpt>
      <trkpt lat="44.89869" lon="-0.41651">
        <ele>15.7</ele>
        <time>2020-09-10T11:21:39Z</time>
      </trkpt>
      <trkpt lat="44.89868" lon="-0.4165">
        <ele>15.7</ele>
        <time>2020-09-10T11:21:40Z</time>
      </trkpt>
      <trkpt lat="44.89868" lon="-0.41649">
        <ele>15.6</ele>
        <time>2020-09-10T11:21:42Z</time>
      </trkpt>
      <trkpt lat="44.89867" lon="-0.41646">
        <ele>15.5</ele>
        <time>2020-09-10T11:21:43Z</time>
      </trkpt>
      <trkpt lat="44.89866" lon="-0.41644">
        <ele>15.5</ele>
        <time>2020-09-10T11:21:44Z</time>
      </trkpt>
      <trkpt lat="44.89866" lon="-0.41641">
        <ele>15.4</ele>
        <time>2020-09-10T11:21:45Z</time>
      </trkpt>
      <trkpt lat="44.89865" lon="-0.4164">
        <ele>15.4</ele>
        <time>2020-09-10T11:21:47Z</time>
      </trkpt>
      <trkpt lat="44.89864" lon="-0.41638">
        <ele>15.3</ele>
        <time>2020-09-10T11:21:48Z</time>
      </trkpt>
      <trkpt lat="44.89865" lon="-0.41636">
        <ele>15.3</ele>
        <time>2020-09-10T11:21:49Z</time>
      </trkpt>
      <trkpt lat="44.89864" lon="-0.41634">
        <ele>15.2</ele>
        <time>2020-09-10T11:21:50Z</time>
      </trkpt>
      <trkpt lat="44.89864" lon="-0.41632">
        <ele>15.2</ele>
        <time>2020-09-10T11:21:51Z</time>
      </trkpt>
      <trkpt lat="44.89862" lon="-0.41628">
        <ele>15.1</ele>
        <time>2020-09-10T11:21:53Z</time>
      </trkpt>
      <trkpt lat="44.89862" lon="-0.41627">
        <ele>15.1</ele>
        <time>2020-09-10T11:21:54Z</time>
      </trkpt>
      <trkpt lat="44.89861" lon="-0.41626">
        <ele>15.1</ele>
        <time>2020-09-10T11:21:55Z</time>
      </trkpt>
      <trkpt lat="44.89861" lon="-0.41624">
        <ele>15</ele>
        <time>2020-09-10T11:21:56Z</time>
      </trkpt>
      <trkpt lat="44.89859" lon="-0.4162">
        <ele>14.9</ele>
        <time>2020-09-10T11:21:58Z</time>
      </trkpt>
      <trkpt lat="44.89859" lon="-0.41619">
        <ele>14.9</ele>
        <time>2020-09-10T11:22:00Z</time>
      </trkpt>
      <trkpt lat="44.89858" lon="-0.41617">
        <ele>14.8</ele>
        <time>2020-09-10T11:22:02Z</time>
      </trkpt>
      <trkpt lat="44.89858" lon="-0.41616">
        <ele>14.8</ele>
        <time>2020-09-10T11:22:04Z</time>
      </trkpt>
      <trkpt lat="44.89858" lon="-0.41616">
        <ele>14.8</ele>
        <time>2020-09-10T11:22:06Z</time>
      </trkpt>
      <trkpt lat="44.89858" lon="-0.41616">
        <ele>14.8</ele>
        <time>2020-09-10T11:22:07Z</time>
      </trkpt>
      <trkpt lat="44.89858" lon="-0.41615">
        <ele>14.8</ele>
        <time>2020-09-10T11:22:08Z</time>
      </trkpt>
      <trkpt lat="44.89857" lon="-0.41615">
        <ele>14.8</ele>
        <time>2020-09-10T11:22:09Z</time>
      </trkpt>
      <trkpt lat="44.89857" lon="-0.41614">
        <ele>14.8</ele>
        <time>2020-09-10T11:22:10Z</time>
      </trkpt>
      <trkpt lat="44.89857" lon="-0.41613">
        <ele>14.7</ele>
        <time>2020-09-10T11:22:11Z</time>
      </trkpt>
      <trkpt lat="44.89856" lon="-0.41612">
        <ele>14.7</ele>
        <time>2020-09-10T11:22:12Z</time>
      </trkpt>
      <trkpt lat="44.89856" lon="-0.4161">
        <ele>14.7</ele>
        <time>2020-09-10T11:22:14Z</time>
      </trkpt>
      <trkpt lat="44.89855" lon="-0.41609">
        <ele>14.7</ele>
        <time>2020-09-10T11:22:15Z</time>
      </trkpt>
      <trkpt lat="44.89854" lon="-0.41609">
        <ele>14.6</ele>
        <time>2020-09-10T11:22:16Z</time>
      </trkpt>
      <trkpt lat="44.89852" lon="-0.41609">
        <ele>14.6</ele>
        <time>2020-09-10T11:22:18Z</time>
      </trkpt>
      <trkpt lat="44.89852" lon="-0.4161">
        <ele>14.6</ele>
        <time>2020-09-10T11:22:19Z</time>
      </trkpt>
      <trkpt lat="44.89851" lon="-0.4161">
        <ele>14.6</ele>
        <time>2020-09-10T11:22:20Z</time>
      </trkpt>
      <trkpt lat="44.89849" lon="-0.41611">
        <ele>14.5</ele>
        <time>2020-09-10T11:22:21Z</time>
      </trkpt>
      <trkpt lat="44.89848" lon="-0.41611">
        <ele>14.5</ele>
        <time>2020-09-10T11:22:23Z</time>
      </trkpt>
      <trkpt lat="44.89847" lon="-0.4161">
        <ele>14.5</ele>
        <time>2020-09-10T11:22:24Z</time>
      </trkpt>
      <trkpt lat="44.89846" lon="-0.41609">
        <ele>14.5</ele>
        <time>2020-09-10T11:22:25Z</time>
      </trkpt>
      <trkpt lat="44.89846" lon="-0.41607">
        <ele>14.4</ele>
        <time>2020-09-10T11:22:27Z</time>
      </trkpt>
      <trkpt lat="44.89845" lon="-0.41606">
        <ele>14.4</ele>
        <time>2020-09-10T11:22:28Z</time>
      </trkpt>
      <trkpt lat="44.89844" lon="-0.41604">
        <ele>14.4</ele>
        <time>2020-09-10T11:22:29Z</time>
      </trkpt>
      <trkpt lat="44.89844" lon="-0.41603">
        <ele>14.4</ele>
        <time>2020-09-10T11:22:31Z</time>
      </trkpt>
      <trkpt lat="44.89843" lon="-0.41602">
        <ele>14.3</ele>
        <time>2020-09-10T11:22:32Z</time>
      </trkpt>
      <trkpt lat="44.89843" lon="-0.41601">
        <ele>14.3</ele>
        <time>2020-09-10T11:22:33Z</time>
      </trkpt>
      <trkpt lat="44.89843" lon="-0.41598">
        <ele>14.2</ele>
        <time>2020-09-10T11:22:34Z</time>
      </trkpt>
      <trkpt lat="44.89844" lon="-0.41595">
        <ele>14.2</ele>
        <time>2020-09-10T11:22:36Z</time>
      </trkpt>
      <trkpt lat="44.89845" lon="-0.41593">
        <ele>14.1</ele>
        <time>2020-09-10T11:22:38Z</time>
      </trkpt>
      <trkpt lat="44.89846" lon="-0.41591">
        <ele>14.1</ele>
        <time>2020-09-10T11:22:39Z</time>
      </trkpt>
      <trkpt lat="44.89848" lon="-0.41589">
        <ele>14.1</ele>
        <time>2020-09-10T11:22:40Z</time>
      </trkpt>
      <trkpt lat="44.89848" lon="-0.41588">
        <ele>14</ele>
        <time>2020-09-10T11:22:42Z</time>
      </trkpt>
      <trkpt lat="44.89849" lon="-0.41585">
        <ele>13.9</ele>
        <time>2020-09-10T11:22:43Z</time>
      </trkpt>
      <trkpt lat="44.89849" lon="-0.41583">
        <ele>13.9</ele>
        <time>2020-09-10T11:22:45Z</time>
      </trkpt>
      <trkpt lat="44.89849" lon="-0.41581">
        <ele>13.8</ele>
        <time>2020-09-10T11:22:46Z</time>
      </trkpt>
      <trkpt lat="44.8985" lon="-0.4158">
        <ele>13.8</ele>
        <time>2020-09-10T11:22:47Z</time>
      </trkpt>
      <trkpt lat="44.8985" lon="-0.41579">
        <ele>13.8</ele>
        <time>2020-09-10T11:22:49Z</time>
      </trkpt>
      <trkpt lat="44.89851" lon="-0.41579">
        <ele>13.8</ele>
        <time>2020-09-10T11:22:50Z</time>
      </trkpt>
      <trkpt lat="44.89851" lon="-0.41579">
        <ele>13.7</ele>
        <time>2020-09-10T11:22:51Z</time>
      </trkpt>
      <trkpt lat="44.89852" lon="-0.41577">
        <ele>13.7</ele>
        <time>2020-09-10T11:22:52Z</time>
      </trkpt>
      <trkpt lat="44.89852" lon="-0.41574">
        <ele>13.6</ele>
        <time>2020-09-10T11:22:54Z</time>
      </trkpt>
      <trkpt lat="44.89852" lon="-0.41572">
        <ele>13.6</ele>
        <time>2020-09-10T11:22:56Z</time>
      </trkpt>
      <trkpt lat="44.89851" lon="-0.41569">
        <ele>13.5</ele>
        <time>2020-09-10T11:22:57Z</time>
      </trkpt>
      <trkpt lat="44.89851" lon="-0.41565">
        <ele>13.5</ele>
        <time>2020-09-10T11:22:59Z</time>
      </trkpt>
      <trkpt lat="44.8985" lon="-0.41564">
        <ele>13.4</ele>
        <time>2020-09-10T11:23:00Z</time>
      </trkpt>
      <trkpt lat="44.89849" lon="-0.41561">
        <ele>13.4</ele>
        <time>2020-09-10T11:23:01Z</time>
      </trkpt>
      <trkpt lat="44.89848" lon="-0.4156">
        <ele>13.3</ele>
        <time>2020-09-10T11:23:03Z</time>
      </trkpt>
      <trkpt lat="44.89848" lon="-0.41559">
        <ele>13.3</ele>
        <time>2020-09-10T11:23:04Z</time>
      </trkpt>
      <trkpt lat="44.89848" lon="-0.41557">
        <ele>13.3</ele>
        <time>2020-09-10T11:23:05Z</time>
      </trkpt>
      <trkpt lat="44.89847" lon="-0.41556">
        <ele>13.3</ele>
        <time>2020-09-10T11:23:06Z</time>
      </trkpt>
      <trkpt lat="44.89847" lon="-0.41554">
        <ele>13.3</ele>
        <time>2020-09-10T11:23:07Z</time>
      </trkpt>
      <trkpt lat="44.89846" lon="-0.41551">
        <ele>13.2</ele>
        <time>2020-09-10T11:23:09Z</time>
      </trkpt>
      <trkpt lat="44.89845" lon="-0.4155">
        <ele>13.2</ele>
        <time>2020-09-10T11:23:10Z</time>
      </trkpt>
      <trkpt lat="44.89845" lon="-0.41549">
        <ele>13.2</ele>
        <time>2020-09-10T11:23:11Z</time>
      </trkpt>
      <trkpt lat="44.89845" lon="-0.41548">
        <ele>13.2</ele>
        <time>2020-09-10T11:23:12Z</time>
      </trkpt>
      <trkpt lat="44.89844" lon="-0.41545">
        <ele>13.2</ele>
        <time>2020-09-10T11:23:13Z</time>
      </trkpt>
      <trkpt lat="44.89843" lon="-0.41544">
        <ele>13.2</ele>
        <time>2020-09-10T11:23:15Z</time>
      </trkpt>
      <trkpt lat="44.89842" lon="-0.41543">
        <ele>13.2</ele>
        <time>2020-09-10T11:23:16Z</time>
      </trkpt>
      <trkpt lat="44.89839" lon="-0.41543">
        <ele>13.2</ele>
        <time>2020-09-10T11:23:19Z</time>
      </trkpt>
      <trkpt lat="44.89839" lon="-0.41545">
        <ele>13.2</ele>
        <time>2020-09-10T11:23:21Z</time>
      </trkpt>
      <trkpt lat="44.89838" lon="-0.41546">
        <ele>13.2</ele>
        <time>2020-09-10T11:23:22Z</time>
      </trkpt>
      <trkpt lat="44.89837" lon="-0.41547">
        <ele>13.2</ele>
        <time>2020-09-10T11:23:24Z</time>
      </trkpt>
      <trkpt lat="44.89837" lon="-0.41548">
        <ele>13.2</ele>
        <time>2020-09-10T11:23:26Z</time>
      </trkpt>
      <trkpt lat="44.89836" lon="-0.41548">
        <ele>13.3</ele>
        <time>2020-09-10T11:23:27Z</time>
      </trkpt>
      <trkpt lat="44.89837" lon="-0.41549">
        <ele>13.3</ele>
        <time>2020-09-10T11:23:29Z</time>
      </trkpt>
      <trkpt lat="44.89837" lon="-0.41549">
        <ele>13.3</ele>
        <time>2020-09-10T11:23:30Z</time>
      </trkpt>
      <trkpt lat="44.89838" lon="-0.41549">
        <ele>13.3</ele>
        <time>2020-09-10T11:23:32Z</time>
      </trkpt>
      <trkpt lat="44.89838" lon="-0.41549">
        <ele>13.3</ele>
        <time>2020-09-10T11:23:33Z</time>
      </trkpt>
      <trkpt lat="44.89839" lon="-0.4155">
        <ele>13.3</ele>
        <time>2020-09-10T11:23:35Z</time>
      </trkpt>
      <trkpt lat="44.89839" lon="-0.4155">
        <ele>13.3</ele>
        <time>2020-09-10T11:23:36Z</time>
      </trkpt>
      <trkpt lat="44.89838" lon="-0.4155">
        <ele>13.3</ele>
        <time>2020-09-10T11:23:37Z</time>
      </trkpt>
      <trkpt lat="44.89837" lon="-0.4155">
        <ele>13.4</ele>
        <time>2020-09-10T11:23:38Z</time>
      </trkpt>
      <trkpt lat="44.89836" lon="-0.4155">
        <ele>13.4</ele>
        <time>2020-09-10T11:23:39Z</time>
      </trkpt>
      <trkpt lat="44.89835" lon="-0.4155">
        <ele>13.4</ele>
        <time>2020-09-10T11:23:40Z</time>
      </trkpt>
      <trkpt lat="44.89835" lon="-0.41551">
        <ele>13.5</ele>
        <time>2020-09-10T11:23:42Z</time>
      </trkpt>
      <trkpt lat="44.89835" lon="-0.41552">
        <ele>13.5</ele>
        <time>2020-09-10T11:23:44Z</time>
      </trkpt>
      <trkpt lat="44.89836" lon="-0.41553">
        <ele>13.5</ele>
        <time>2020-09-10T11:23:45Z</time>
      </trkpt>
      <trkpt lat="44.89837" lon="-0.41553">
        <ele>13.6</ele>
        <time>2020-09-10T11:23:47Z</time>
      </trkpt>
      <trkpt lat="44.89838" lon="-0.41553">
        <ele>13.6</ele>
        <time>2020-09-10T11:23:49Z</time>
      </trkpt>
      <trkpt lat="44.89838" lon="-0.41554">
        <ele>13.7</ele>
        <time>2020-09-10T11:23:50Z</time>
      </trkpt>
      <trkpt lat="44.89838" lon="-0.41554">
        <ele>13.7</ele>
        <time>2020-09-10T11:23:51Z</time>
      </trkpt>
      <trkpt lat="44.89838" lon="-0.41555">
        <ele>13.7</ele>
        <time>2020-09-10T11:23:52Z</time>
      </trkpt>
      <trkpt lat="44.89836" lon="-0.41556">
        <ele>13.8</ele>
        <time>2020-09-10T11:23:53Z</time>
      </trkpt>
      <trkpt lat="44.89835" lon="-0.41558">
        <ele>13.9</ele>
        <time>2020-09-10T11:23:55Z</time>
      </trkpt>
      <trkpt lat="44.89834" lon="-0.41559">
        <ele>13.9</ele>
        <time>2020-09-10T11:23:56Z</time>
      </trkpt>
      <trkpt lat="44.89834" lon="-0.4156">
        <ele>14</ele>
        <time>2020-09-10T11:23:58Z</time>
      </trkpt>
      <trkpt lat="44.89832" lon="-0.41562">
        <ele>14.2</ele>
        <time>2020-09-10T11:23:59Z</time>
      </trkpt>
      <trkpt lat="44.89832" lon="-0.41563">
        <ele>14.2</ele>
        <time>2020-09-10T11:24:00Z</time>
      </trkpt>
      <trkpt lat="44.89831" lon="-0.41563">
        <ele>14.3</ele>
        <time>2020-09-10T11:24:01Z</time>
      </trkpt>
      <trkpt lat="44.8983" lon="-0.41564">
        <ele>14.4</ele>
        <time>2020-09-10T11:24:03Z</time>
      </trkpt>
      <trkpt lat="44.89828" lon="-0.41566">
        <ele>14.6</ele>
        <time>2020-09-10T11:24:04Z</time>
      </trkpt>
      <trkpt lat="44.89827" lon="-0.41568">
        <ele>14.7</ele>
        <time>2020-09-10T11:24:05Z</time>
      </trkpt>
      <trkpt lat="44.89826" lon="-0.41569">
        <ele>14.8</ele>
        <time>2020-09-10T11:24:06Z</time>
      </trkpt>
      <trkpt lat="44.89825" lon="-0.4157">
        <ele>14.9</ele>
        <time>2020-09-10T11:24:08Z</time>
      </trkpt>
      <trkpt lat="44.89824" lon="-0.41571">
        <ele>15</ele>
        <time>2020-09-10T11:24:09Z</time>
      </trkpt>
      <trkpt lat="44.89824" lon="-0.41572">
        <ele>15.1</ele>
        <time>2020-09-10T11:24:10Z</time>
      </trkpt>
      <trkpt lat="44.89824" lon="-0.41573">
        <ele>15.1</ele>
        <time>2020-09-10T11:24:11Z</time>
      </trkpt>
      <trkpt lat="44.89824" lon="-0.41575">
        <ele>15.2</ele>
        <time>2020-09-10T11:24:12Z</time>
      </trkpt>
      <trkpt lat="44.89823" lon="-0.41575">
        <ele>15.3</ele>
        <time>2020-09-10T11:24:13Z</time>
      </trkpt>
      <trkpt lat="44.89821" lon="-0.41577">
        <ele>15.5</ele>
        <time>2020-09-10T11:24:15Z</time>
      </trkpt>
      <trkpt lat="44.8982" lon="-0.41577">
        <ele>15.5</ele>
        <time>2020-09-10T11:24:16Z</time>
      </trkpt>
      <trkpt lat="44.89819" lon="-0.41577">
        <ele>15.6</ele>
        <time>2020-09-10T11:24:17Z</time>
      </trkpt>
      <trkpt lat="44.89817" lon="-0.41576">
        <ele>15.8</ele>
        <time>2020-09-10T11:24:19Z</time>
      </trkpt>
      <trkpt lat="44.89816" lon="-0.41575">
        <ele>15.9</ele>
        <time>2020-09-10T11:24:20Z</time>
      </trkpt>
      <trkpt lat="44.89816" lon="-0.41573">
        <ele>16</ele>
        <time>2020-09-10T11:24:21Z</time>
      </trkpt>
      <trkpt lat="44.89816" lon="-0.41572">
        <ele>16</ele>
        <time>2020-09-10T11:24:22Z</time>
      </trkpt>
      <trkpt lat="44.89815" lon="-0.41571">
        <ele>16.1</ele>
        <time>2020-09-10T11:24:24Z</time>
      </trkpt>
      <trkpt lat="44.89814" lon="-0.4157">
        <ele>16.2</ele>
        <time>2020-09-10T11:24:25Z</time>
      </trkpt>
      <trkpt lat="44.89814" lon="-0.41569">
        <ele>16.3</ele>
        <time>2020-09-10T11:24:26Z</time>
      </trkpt>
      <trkpt lat="44.89812" lon="-0.41565">
        <ele>16.5</ele>
        <time>2020-09-10T11:24:28Z</time>
      </trkpt>
      <trkpt lat="44.89812" lon="-0.41564">
        <ele>16.6</ele>
        <time>2020-09-10T11:24:29Z</time>
      </trkpt>
      <trkpt lat="44.8981" lon="-0.41563">
        <ele>16.7</ele>
        <time>2020-09-10T11:24:31Z</time>
      </trkpt>
      <trkpt lat="44.8981" lon="-0.41563">
        <ele>16.7</ele>
        <time>2020-09-10T11:24:32Z</time>
      </trkpt>
      <trkpt lat="44.8981" lon="-0.41562">
        <ele>16.8</ele>
        <time>2020-09-10T11:24:34Z</time>
      </trkpt>
      <trkpt lat="44.8981" lon="-0.41561">
        <ele>16.8</ele>
        <time>2020-09-10T11:24:35Z</time>
      </trkpt>
      <trkpt lat="44.89811" lon="-0.4156">
        <ele>16.9</ele>
        <time>2020-09-10T11:24:37Z</time>
      </trkpt>
      <trkpt lat="44.89811" lon="-0.41559">
        <ele>17</ele>
        <time>2020-09-10T11:24:38Z</time>
      </trkpt>
      <trkpt lat="44.89811" lon="-0.41558">
        <ele>17.1</ele>
        <time>2020-09-10T11:24:40Z</time>
      </trkpt>
      <trkpt lat="44.8981" lon="-0.41557">
        <ele>17.1</ele>
        <time>2020-09-10T11:24:41Z</time>
      </trkpt>
      <trkpt lat="44.89809" lon="-0.41557">
        <ele>17.2</ele>
        <time>2020-09-10T11:24:42Z</time>
      </trkpt>
      <trkpt lat="44.89809" lon="-0.41556">
        <ele>17.3</ele>
        <time>2020-09-10T11:24:43Z</time>
      </trkpt>
      <trkpt lat="44.89807" lon="-0.41555">
        <ele>17.4</ele>
        <time>2020-09-10T11:24:44Z</time>
      </trkpt>
      <trkpt lat="44.89807" lon="-0.41554">
        <ele>17.4</ele>
        <time>2020-09-10T11:24:46Z</time>
      </trkpt>
      <trkpt lat="44.89806" lon="-0.41553">
        <ele>17.5</ele>
        <time>2020-09-10T11:24:47Z</time>
      </trkpt>
      <trkpt lat="44.89805" lon="-0.41553">
        <ele>17.5</ele>
        <time>2020-09-10T11:24:48Z</time>
      </trkpt>
      <trkpt lat="44.89804" lon="-0.41552">
        <ele>17.6</ele>
        <time>2020-09-10T11:24:49Z</time>
      </trkpt>
      <trkpt lat="44.89803" lon="-0.4155">
        <ele>17.8</ele>
        <time>2020-09-10T11:24:51Z</time>
      </trkpt>
      <trkpt lat="44.89802" lon="-0.41549">
        <ele>17.9</ele>
        <time>2020-09-10T11:24:52Z</time>
      </trkpt>
      <trkpt lat="44.89801" lon="-0.41548">
        <ele>17.9</ele>
        <time>2020-09-10T11:24:53Z</time>
      </trkpt>
      <trkpt lat="44.89799" lon="-0.41546">
        <ele>18.1</ele>
        <time>2020-09-10T11:24:55Z</time>
      </trkpt>
      <trkpt lat="44.89799" lon="-0.41546">
        <ele>18.2</ele>
        <time>2020-09-10T11:24:56Z</time>
      </trkpt>
      <trkpt lat="44.89797" lon="-0.41544">
        <ele>18.3</ele>
        <time>2020-09-10T11:24:57Z</time>
      </trkpt>
      <trkpt lat="44.89797" lon="-0.41543">
        <ele>18.3</ele>
        <time>2020-09-10T11:24:59Z</time>
      </trkpt>
      <trkpt lat="44.89796" lon="-0.41542">
        <ele>18.4</ele>
        <time>2020-09-10T11:25:01Z</time>
      </trkpt>
      <trkpt lat="44.89795" lon="-0.41541">
        <ele>18.5</ele>
        <time>2020-09-10T11:25:02Z</time>
      </trkpt>
      <trkpt lat="44.89794" lon="-0.41541">
        <ele>18.5</ele>
        <time>2020-09-10T11:25:03Z</time>
      </trkpt>
      <trkpt lat="44.89794" lon="-0.4154">
        <ele>18.6</ele>
        <time>2020-09-10T11:25:04Z</time>
      </trkpt>
      <trkpt lat="44.89793" lon="-0.41539">
        <ele>18.7</ele>
        <time>2020-09-10T11:25:05Z</time>
      </trkpt>
      <trkpt lat="44.89792" lon="-0.41538">
        <ele>18.7</ele>
        <time>2020-09-10T11:25:06Z</time>
      </trkpt>
      <trkpt lat="44.89791" lon="-0.41537">
        <ele>18.8</ele>
        <time>2020-09-10T11:25:08Z</time>
      </trkpt>
      <trkpt lat="44.8979" lon="-0.41537">
        <ele>18.9</ele>
        <time>2020-09-10T11:25:09Z</time>
      </trkpt>
      <trkpt lat="44.89789" lon="-0.41536">
        <ele>19</ele>
        <time>2020-09-10T11:25:10Z</time>
      </trkpt>
      <trkpt lat="44.89788" lon="-0.41535">
        <ele>19</ele>
        <time>2020-09-10T11:25:11Z</time>
      </trkpt>
      <trkpt lat="44.89786" lon="-0.41534">
        <ele>19.2</ele>
        <time>2020-09-10T11:25:12Z</time>
      </trkpt>
      <trkpt lat="44.89785" lon="-0.41534">
        <ele>19.3</ele>
        <time>2020-09-10T11:25:14Z</time>
      </trkpt>
      <trkpt lat="44.89784" lon="-0.41533">
        <ele>19.4</ele>
        <time>2020-09-10T11:25:15Z</time>
      </trkpt>
      <trkpt lat="44.89782" lon="-0.41533">
        <ele>19.5</ele>
        <time>2020-09-10T11:25:16Z</time>
      </trkpt>
      <trkpt lat="44.8978" lon="-0.41532">
        <ele>19.6</ele>
        <time>2020-09-10T11:25:17Z</time>
      </trkpt>
      <trkpt lat="44.89778" lon="-0.41532">
        <ele>19.7</ele>
        <time>2020-09-10T11:25:18Z</time>
      </trkpt>
      <trkpt lat="44.89775" lon="-0.4153">
        <ele>20</ele>
        <time>2020-09-10T11:25:20Z</time>
      </trkpt>
      <trkpt lat="44.89773" lon="-0.4153">
        <ele>20.1</ele>
        <time>2020-09-10T11:25:21Z</time>
      </trkpt>
      <trkpt lat="44.89771" lon="-0.41529">
        <ele>20.2</ele>
        <time>2020-09-10T11:25:23Z</time>
      </trkpt>
      <trkpt lat="44.8977" lon="-0.41528">
        <ele>20.3</ele>
        <time>2020-09-10T11:25:24Z</time>
      </trkpt>
      <trkpt lat="44.89769" lon="-0.41527">
        <ele>20.4</ele>
        <time>2020-09-10T11:25:25Z</time>
      </trkpt>
      <trkpt lat="44.89768" lon="-0.41527">
        <ele>20.5</ele>
        <time>2020-09-10T11:25:26Z</time>
      </trkpt>
      <trkpt lat="44.89766" lon="-0.41526">
        <ele>20.6</ele>
        <time>2020-09-10T11:25:28Z</time>
      </trkpt>
      <trkpt lat="44.89764" lon="-0.41525">
        <ele>20.7</ele>
        <time>2020-09-10T11:25:29Z</time>
      </trkpt>
      <trkpt lat="44.89763" lon="-0.41525">
        <ele>20.8</ele>
        <time>2020-09-10T11:25:31Z</time>
      </trkpt>
      <trkpt lat="44.89762" lon="-0.41524">
        <ele>20.9</ele>
        <time>2020-09-10T11:25:32Z</time>
      </trkpt>
      <trkpt lat="44.89761" lon="-0.41524">
        <ele>20.9</ele>
        <time>2020-09-10T11:25:33Z</time>
      </trkpt>
      <trkpt lat="44.8976" lon="-0.41523">
        <ele>21</ele>
        <time>2020-09-10T11:25:34Z</time>
      </trkpt>
      <trkpt lat="44.89759" lon="-0.41523">
        <ele>21.1</ele>
        <time>2020-09-10T11:25:35Z</time>
      </trkpt>
      <trkpt lat="44.89758" lon="-0.41522">
        <ele>21.2</ele>
        <time>2020-09-10T11:25:36Z</time>
      </trkpt>
      <trkpt lat="44.89757" lon="-0.41522">
        <ele>21.2</ele>
        <time>2020-09-10T11:25:37Z</time>
      </trkpt>
      <trkpt lat="44.89756" lon="-0.41521">
        <ele>21.3</ele>
        <time>2020-09-10T11:25:38Z</time>
      </trkpt>
      <trkpt lat="44.89755" lon="-0.4152">
        <ele>21.4</ele>
        <time>2020-09-10T11:25:40Z</time>
      </trkpt>
      <trkpt lat="44.89754" lon="-0.41519">
        <ele>21.4</ele>
        <time>2020-09-10T11:25:41Z</time>
      </trkpt>
      <trkpt lat="44.89754" lon="-0.41517">
        <ele>21.5</ele>
        <time>2020-09-10T11:25:42Z</time>
      </trkpt>
      <trkpt lat="44.89754" lon="-0.41516">
        <ele>21.6</ele>
        <time>2020-09-10T11:25:44Z</time>
      </trkpt>
      <trkpt lat="44.89753" lon="-0.41514">
        <ele>21.7</ele>
        <time>2020-09-10T11:25:45Z</time>
      </trkpt>
      <trkpt lat="44.89753" lon="-0.41511">
        <ele>21.8</ele>
        <time>2020-09-10T11:25:46Z</time>
      </trkpt>
      <trkpt lat="44.89752" lon="-0.41508">
        <ele>22.5</ele>
        <time>2020-09-10T11:25:47Z</time>
      </trkpt>
      <trkpt lat="44.89752" lon="-0.41507">
        <ele>22.5</ele>
        <time>2020-09-10T11:25:48Z</time>
      </trkpt>
      <trkpt lat="44.89753" lon="-0.41505">
        <ele>22.5</ele>
        <time>2020-09-10T11:25:49Z</time>
      </trkpt>
      <trkpt lat="44.89753" lon="-0.41504">
        <ele>22.5</ele>
        <time>2020-09-10T11:25:51Z</time>
      </trkpt>
      <trkpt lat="44.89754" lon="-0.41501">
        <ele>22.5</ele>
        <time>2020-09-10T11:25:52Z</time>
      </trkpt>
      <trkpt lat="44.89754" lon="-0.415">
        <ele>22.5</ele>
        <time>2020-09-10T11:25:53Z</time>
      </trkpt>
      <trkpt lat="44.89754" lon="-0.41499">
        <ele>22.5</ele>
        <time>2020-09-10T11:25:54Z</time>
      </trkpt>
      <trkpt lat="44.89755" lon="-0.41497">
        <ele>22.4</ele>
        <time>2020-09-10T11:25:55Z</time>
      </trkpt>
      <trkpt lat="44.89756" lon="-0.41494">
        <ele>22.4</ele>
        <time>2020-09-10T11:25:57Z</time>
      </trkpt>
      <trkpt lat="44.89756" lon="-0.41493">
        <ele>22.4</ele>
        <time>2020-09-10T11:25:58Z</time>
      </trkpt>
      <trkpt lat="44.89756" lon="-0.41492">
        <ele>22.4</ele>
        <time>2020-09-10T11:26:00Z</time>
      </trkpt>
      <trkpt lat="44.89756" lon="-0.41491">
        <ele>22.4</ele>
        <time>2020-09-10T11:26:01Z</time>
      </trkpt>
      <trkpt lat="44.89755" lon="-0.41489">
        <ele>22.3</ele>
        <time>2020-09-10T11:26:02Z</time>
      </trkpt>
      <trkpt lat="44.89755" lon="-0.41488">
        <ele>22.3</ele>
        <time>2020-09-10T11:26:03Z</time>
      </trkpt>
      <trkpt lat="44.89755" lon="-0.41487">
        <ele>22.3</ele>
        <time>2020-09-10T11:26:04Z</time>
      </trkpt>
      <trkpt lat="44.89755" lon="-0.41486">
        <ele>22.3</ele>
        <time>2020-09-10T11:26:05Z</time>
      </trkpt>
      <trkpt lat="44.89755" lon="-0.41485">
        <ele>22.3</ele>
        <time>2020-09-10T11:26:06Z</time>
      </trkpt>
      <trkpt lat="44.89756" lon="-0.41483">
        <ele>22.2</ele>
        <time>2020-09-10T11:26:08Z</time>
      </trkpt>
      <trkpt lat="44.89757" lon="-0.41482">
        <ele>22.2</ele>
        <time>2020-09-10T11:26:09Z</time>
      </trkpt>
      <trkpt lat="44.89757" lon="-0.4148">
        <ele>22.2</ele>
        <time>2020-09-10T11:26:11Z</time>
      </trkpt>
      <trkpt lat="44.89757" lon="-0.41479">
        <ele>22.2</ele>
        <time>2020-09-10T11:26:12Z</time>
      </trkpt>
      <trkpt lat="44.89757" lon="-0.41478">
        <ele>22.2</ele>
        <time>2020-09-10T11:26:13Z</time>
      </trkpt>
      <trkpt lat="44.89757" lon="-0.41476">
        <ele>22.1</ele>
        <time>2020-09-10T11:26:14Z</time>
      </trkpt>
      <trkpt lat="44.89758" lon="-0.41472">
        <ele>22.1</ele>
        <time>2020-09-10T11:26:16Z</time>
      </trkpt>
      <trkpt lat="44.89758" lon="-0.41471">
        <ele>22.1</ele>
        <time>2020-09-10T11:26:17Z</time>
      </trkpt>
      <trkpt lat="44.89759" lon="-0.4147">
        <ele>22.1</ele>
        <time>2020-09-10T11:26:18Z</time>
      </trkpt>
      <trkpt lat="44.8976" lon="-0.41468">
        <ele>22</ele>
        <time>2020-09-10T11:26:19Z</time>
      </trkpt>
      <trkpt lat="44.8976" lon="-0.41466">
        <ele>22</ele>
        <time>2020-09-10T11:26:20Z</time>
      </trkpt>
      <trkpt lat="44.89762" lon="-0.41464">
        <ele>21.9</ele>
        <time>2020-09-10T11:26:22Z</time>
      </trkpt>
      <trkpt lat="44.89762" lon="-0.41463">
        <ele>21.9</ele>
        <time>2020-09-10T11:26:23Z</time>
      </trkpt>
      <trkpt lat="44.89764" lon="-0.41461">
        <ele>21.9</ele>
        <time>2020-09-10T11:26:25Z</time>
      </trkpt>
      <trkpt lat="44.89765" lon="-0.4146">
        <ele>21.8</ele>
        <time>2020-09-10T11:26:26Z</time>
      </trkpt>
      <trkpt lat="44.89767" lon="-0.41458">
        <ele>21.8</ele>
        <time>2020-09-10T11:26:27Z</time>
      </trkpt>
      <trkpt lat="44.89768" lon="-0.41457">
        <ele>21.8</ele>
        <time>2020-09-10T11:26:28Z</time>
      </trkpt>
      <trkpt lat="44.8977" lon="-0.41454">
        <ele>21.7</ele>
        <time>2020-09-10T11:26:30Z</time>
      </trkpt>
      <trkpt lat="44.89772" lon="-0.41451">
        <ele>21.7</ele>
        <time>2020-09-10T11:26:31Z</time>
      </trkpt>
      <trkpt lat="44.89773" lon="-0.41451">
        <ele>21.6</ele>
        <time>2020-09-10T11:26:32Z</time>
      </trkpt>
      <trkpt lat="44.89775" lon="-0.41448">
        <ele>21.6</ele>
        <time>2020-09-10T11:26:33Z</time>
      </trkpt>
      <trkpt lat="44.89776" lon="-0.41446">
        <ele>21.6</ele>
        <time>2020-09-10T11:26:35Z</time>
      </trkpt>
      <trkpt lat="44.89777" lon="-0.41445">
        <ele>21.5</ele>
        <time>2020-09-10T11:26:36Z</time>
      </trkpt>
      <trkpt lat="44.89778" lon="-0.41444">
        <ele>21.5</ele>
        <time>2020-09-10T11:26:37Z</time>
      </trkpt>
      <trkpt lat="44.89779" lon="-0.41443">
        <ele>21.5</ele>
        <time>2020-09-10T11:26:38Z</time>
      </trkpt>
      <trkpt lat="44.8978" lon="-0.41441">
        <ele>21.4</ele>
        <time>2020-09-10T11:26:40Z</time>
      </trkpt>
      <trkpt lat="44.89782" lon="-0.41438">
        <ele>21.4</ele>
        <time>2020-09-10T11:26:41Z</time>
      </trkpt>
      <trkpt lat="44.89783" lon="-0.41436">
        <ele>21.4</ele>
        <time>2020-09-10T11:26:42Z</time>
      </trkpt>
      <trkpt lat="44.89783" lon="-0.41434">
        <ele>21.3</ele>
        <time>2020-09-10T11:26:43Z</time>
      </trkpt>
      <trkpt lat="44.89786" lon="-0.4143">
        <ele>21.3</ele>
        <time>2020-09-10T11:26:45Z</time>
      </trkpt>
      <trkpt lat="44.89786" lon="-0.41428">
        <ele>21.2</ele>
        <time>2020-09-10T11:26:46Z</time>
      </trkpt>
      <trkpt lat="44.89787" lon="-0.41427">
        <ele>21.2</ele>
        <time>2020-09-10T11:26:47Z</time>
      </trkpt>
      <trkpt lat="44.89788" lon="-0.41426">
        <ele>21.2</ele>
        <time>2020-09-10T11:26:48Z</time>
      </trkpt>
      <trkpt lat="44.89788" lon="-0.41423">
        <ele>21.2</ele>
        <time>2020-09-10T11:26:50Z</time>
      </trkpt>
      <trkpt lat="44.8979" lon="-0.4142">
        <ele>21.1</ele>
        <time>2020-09-10T11:26:51Z</time>
      </trkpt>
      <trkpt lat="44.89791" lon="-0.41416">
        <ele>21.1</ele>
        <time>2020-09-10T11:26:52Z</time>
      </trkpt>
      <trkpt lat="44.89792" lon="-0.41414">
        <ele>21</ele>
        <time>2020-09-10T11:26:54Z</time>
      </trkpt>
      <trkpt lat="44.89793" lon="-0.41412">
        <ele>21</ele>
        <time>2020-09-10T11:26:55Z</time>
      </trkpt>
      <trkpt lat="44.89793" lon="-0.4141">
        <ele>21</ele>
        <time>2020-09-10T11:26:56Z</time>
      </trkpt>
      <trkpt lat="44.89794" lon="-0.41407">
        <ele>20.9</ele>
        <time>2020-09-10T11:26:57Z</time>
      </trkpt>
      <trkpt lat="44.89795" lon="-0.41405">
        <ele>20.9</ele>
        <time>2020-09-10T11:26:59Z</time>
      </trkpt>
      <trkpt lat="44.89796" lon="-0.41403">
        <ele>20.9</ele>
        <time>2020-09-10T11:27:00Z</time>
      </trkpt>
      <trkpt lat="44.89796" lon="-0.41401">
        <ele>20.9</ele>
        <time>2020-09-10T11:27:01Z</time>
      </trkpt>
      <trkpt lat="44.89797" lon="-0.414">
        <ele>20.9</ele>
        <time>2020-09-10T11:27:02Z</time>
      </trkpt>
      <trkpt lat="44.89797" lon="-0.41397">
        <ele>20.8</ele>
        <time>2020-09-10T11:27:04Z</time>
      </trkpt>
      <trkpt lat="44.89798" lon="-0.41395">
        <ele>20.8</ele>
        <time>2020-09-10T11:27:05Z</time>
      </trkpt>
      <trkpt lat="44.89799" lon="-0.41392">
        <ele>20.8</ele>
        <time>2020-09-10T11:27:06Z</time>
      </trkpt>
      <trkpt lat="44.89799" lon="-0.4139">
        <ele>20.8</ele>
        <time>2020-09-10T11:27:08Z</time>
      </trkpt>
      <trkpt lat="44.898" lon="-0.41389">
        <ele>20.8</ele>
        <time>2020-09-10T11:27:09Z</time>
      </trkpt>
      <trkpt lat="44.89801" lon="-0.41386">
        <ele>20.7</ele>
        <time>2020-09-10T11:27:10Z</time>
      </trkpt>
      <trkpt lat="44.89802" lon="-0.41382">
        <ele>20.7</ele>
        <time>2020-09-10T11:27:12Z</time>
      </trkpt>
      <trkpt lat="44.89803" lon="-0.41379">
        <ele>20.7</ele>
        <time>2020-09-10T11:27:14Z</time>
      </trkpt>
      <trkpt lat="44.89803" lon="-0.41378">
        <ele>20.7</ele>
        <time>2020-09-10T11:27:15Z</time>
      </trkpt>
      <trkpt lat="44.89804" lon="-0.41377">
        <ele>20.7</ele>
        <time>2020-09-10T11:27:16Z</time>
      </trkpt>
      <trkpt lat="44.89804" lon="-0.41375">
        <ele>20.7</ele>
        <time>2020-09-10T11:27:17Z</time>
      </trkpt>
      <trkpt lat="44.89805" lon="-0.41374">
        <ele>20.7</ele>
        <time>2020-09-10T11:27:18Z</time>
      </trkpt>
      <trkpt lat="44.89806" lon="-0.41371">
        <ele>20.7</ele>
        <time>2020-09-10T11:27:20Z</time>
      </trkpt>
      <trkpt lat="44.89806" lon="-0.4137">
        <ele>20.7</ele>
        <time>2020-09-10T11:27:21Z</time>
      </trkpt>
      <trkpt lat="44.89807" lon="-0.41368">
        <ele>20.7</ele>
        <time>2020-09-10T11:27:22Z</time>
      </trkpt>
      <trkpt lat="44.89808" lon="-0.41366">
        <ele>20.7</ele>
        <time>2020-09-10T11:27:23Z</time>
      </trkpt>
      <trkpt lat="44.89809" lon="-0.41365">
        <ele>20.7</ele>
        <time>2020-09-10T11:27:24Z</time>
      </trkpt>
      <trkpt lat="44.89811" lon="-0.41361">
        <ele>20.7</ele>
        <time>2020-09-10T11:27:26Z</time>
      </trkpt>
      <trkpt lat="44.89812" lon="-0.41359">
        <ele>20.7</ele>
        <time>2020-09-10T11:27:27Z</time>
      </trkpt>
      <trkpt lat="44.89813" lon="-0.41358">
        <ele>20.7</ele>
        <time>2020-09-10T11:27:28Z</time>
      </trkpt>
      <trkpt lat="44.89813" lon="-0.41357">
        <ele>20.7</ele>
        <time>2020-09-10T11:27:29Z</time>
      </trkpt>
      <trkpt lat="44.89814" lon="-0.41355">
        <ele>20.7</ele>
        <time>2020-09-10T11:27:30Z</time>
      </trkpt>
      <trkpt lat="44.89817" lon="-0.41351">
        <ele>20.7</ele>
        <time>2020-09-10T11:27:32Z</time>
      </trkpt>
      <trkpt lat="44.89817" lon="-0.4135">
        <ele>20.7</ele>
        <time>2020-09-10T11:27:33Z</time>
      </trkpt>
      <trkpt lat="44.89818" lon="-0.41347">
        <ele>20.7</ele>
        <time>2020-09-10T11:27:35Z</time>
      </trkpt>
      <trkpt lat="44.8982" lon="-0.41343">
        <ele>20.7</ele>
        <time>2020-09-10T11:27:36Z</time>
      </trkpt>
      <trkpt lat="44.8982" lon="-0.41342">
        <ele>20.6</ele>
        <time>2020-09-10T11:27:37Z</time>
      </trkpt>
      <trkpt lat="44.89821" lon="-0.41341">
        <ele>20.6</ele>
        <time>2020-09-10T11:27:38Z</time>
      </trkpt>
      <trkpt lat="44.89822" lon="-0.41339">
        <ele>20.6</ele>
        <time>2020-09-10T11:27:39Z</time>
      </trkpt>
      <trkpt lat="44.89823" lon="-0.41336">
        <ele>20.6</ele>
        <time>2020-09-10T11:27:41Z</time>
      </trkpt>
      <trkpt lat="44.89824" lon="-0.41335">
        <ele>20.6</ele>
        <time>2020-09-10T11:27:42Z</time>
      </trkpt>
      <trkpt lat="44.89824" lon="-0.41334">
        <ele>20.6</ele>
        <time>2020-09-10T11:27:44Z</time>
      </trkpt>
      <trkpt lat="44.89824" lon="-0.41334">
        <ele>20.6</ele>
        <time>2020-09-10T11:27:45Z</time>
      </trkpt>
      <trkpt lat="44.89825" lon="-0.41332">
        <ele>20.6</ele>
        <time>2020-09-10T11:27:46Z</time>
      </trkpt>
      <trkpt lat="44.89826" lon="-0.4133">
        <ele>20.5</ele>
        <time>2020-09-10T11:27:47Z</time>
      </trkpt>
      <trkpt lat="44.89826" lon="-0.41329">
        <ele>20.5</ele>
        <time>2020-09-10T11:27:48Z</time>
      </trkpt>
      <trkpt lat="44.89827" lon="-0.41328">
        <ele>20.5</ele>
        <time>2020-09-10T11:27:49Z</time>
      </trkpt>
      <trkpt lat="44.89828" lon="-0.41327">
        <ele>20.5</ele>
        <time>2020-09-10T11:27:51Z</time>
      </trkpt>
      <trkpt lat="44.89828" lon="-0.41326">
        <ele>20.5</ele>
        <time>2020-09-10T11:27:52Z</time>
      </trkpt>
      <trkpt lat="44.89829" lon="-0.41324">
        <ele>20.5</ele>
        <time>2020-09-10T11:27:54Z</time>
      </trkpt>
      <trkpt lat="44.8983" lon="-0.41323">
        <ele>20.5</ele>
        <time>2020-09-10T11:27:55Z</time>
      </trkpt>
      <trkpt lat="44.89831" lon="-0.41321">
        <ele>20.5</ele>
        <time>2020-09-10T11:27:57Z</time>
      </trkpt>
      <trkpt lat="44.89832" lon="-0.4132">
        <ele>20.5</ele>
        <time>2020-09-10T11:27:58Z</time>
      </trkpt>
      <trkpt lat="44.89832" lon="-0.41319">
        <ele>20.5</ele>
        <time>2020-09-10T11:27:59Z</time>
      </trkpt>
      <trkpt lat="44.89833" lon="-0.41318">
        <ele>20.4</ele>
        <time>2020-09-10T11:28:00Z</time>
      </trkpt>
      <trkpt lat="44.89834" lon="-0.41316">
        <ele>20.4</ele>
        <time>2020-09-10T11:28:02Z</time>
      </trkpt>
      <trkpt lat="44.89836" lon="-0.41313">
        <ele>20.4</ele>
        <time>2020-09-10T11:28:03Z</time>
      </trkpt>
      <trkpt lat="44.89837" lon="-0.41312">
        <ele>20.4</ele>
        <time>2020-09-10T11:28:04Z</time>
      </trkpt>
      <trkpt lat="44.89838" lon="-0.41311">
        <ele>20.4</ele>
        <time>2020-09-10T11:28:05Z</time>
      </trkpt>
      <trkpt lat="44.89839" lon="-0.41309">
        <ele>20.4</ele>
        <time>2020-09-10T11:28:07Z</time>
      </trkpt>
      <trkpt lat="44.8984" lon="-0.41306">
        <ele>20.4</ele>
        <time>2020-09-10T11:28:08Z</time>
      </trkpt>
      <trkpt lat="44.89841" lon="-0.41305">
        <ele>20.4</ele>
        <time>2020-09-10T11:28:09Z</time>
      </trkpt>
      <trkpt lat="44.89841" lon="-0.41303">
        <ele>20.3</ele>
        <time>2020-09-10T11:28:11Z</time>
      </trkpt>
      <trkpt lat="44.89842" lon="-0.41301">
        <ele>20.3</ele>
        <time>2020-09-10T11:28:12Z</time>
      </trkpt>
      <trkpt lat="44.89844" lon="-0.41297">
        <ele>20.3</ele>
        <time>2020-09-10T11:28:13Z</time>
      </trkpt>
      <trkpt lat="44.89844" lon="-0.41296">
        <ele>20.3</ele>
        <time>2020-09-10T11:28:14Z</time>
      </trkpt>
      <trkpt lat="44.89845" lon="-0.41293">
        <ele>20.3</ele>
        <time>2020-09-10T11:28:15Z</time>
      </trkpt>
      <trkpt lat="44.89846" lon="-0.41291">
        <ele>20.3</ele>
        <time>2020-09-10T11:28:17Z</time>
      </trkpt>
      <trkpt lat="44.89846" lon="-0.41289">
        <ele>20.3</ele>
        <time>2020-09-10T11:28:18Z</time>
      </trkpt>
      <trkpt lat="44.89847" lon="-0.41288">
        <ele>20.3</ele>
        <time>2020-09-10T11:28:19Z</time>
      </trkpt>
      <trkpt lat="44.89847" lon="-0.41287">
        <ele>20.3</ele>
        <time>2020-09-10T11:28:21Z</time>
      </trkpt>
      <trkpt lat="44.89848" lon="-0.41285">
        <ele>20.3</ele>
        <time>2020-09-10T11:28:23Z</time>
      </trkpt>
      <trkpt lat="44.89848" lon="-0.41285">
        <ele>20.3</ele>
        <time>2020-09-10T11:28:24Z</time>
      </trkpt>
      <trkpt lat="44.89849" lon="-0.41284">
        <ele>20.3</ele>
        <time>2020-09-10T11:28:25Z</time>
      </trkpt>
      <trkpt lat="44.8985" lon="-0.41282">
        <ele>20.3</ele>
        <time>2020-09-10T11:28:26Z</time>
      </trkpt>
      <trkpt lat="44.89851" lon="-0.4128">
        <ele>20.3</ele>
        <time>2020-09-10T11:28:27Z</time>
      </trkpt>
      <trkpt lat="44.89852" lon="-0.4128">
        <ele>20.3</ele>
        <time>2020-09-10T11:28:29Z</time>
      </trkpt>
      <trkpt lat="44.89853" lon="-0.41279">
        <ele>20.3</ele>
        <time>2020-09-10T11:28:30Z</time>
      </trkpt>
      <trkpt lat="44.89853" lon="-0.41278">
        <ele>20.4</ele>
        <time>2020-09-10T11:28:31Z</time>
      </trkpt>
      <trkpt lat="44.89854" lon="-0.41277">
        <ele>20.4</ele>
        <time>2020-09-10T11:28:32Z</time>
      </trkpt>
      <trkpt lat="44.89855" lon="-0.41276">
        <ele>20.4</ele>
        <time>2020-09-10T11:28:33Z</time>
      </trkpt>
      <trkpt lat="44.89858" lon="-0.41273">
        <ele>20.4</ele>
        <time>2020-09-10T11:28:35Z</time>
      </trkpt>
      <trkpt lat="44.89859" lon="-0.41271">
        <ele>20.4</ele>
        <time>2020-09-10T11:28:36Z</time>
      </trkpt>
      <trkpt lat="44.89859" lon="-0.4127">
        <ele>20.4</ele>
        <time>2020-09-10T11:28:37Z</time>
      </trkpt>
      <trkpt lat="44.8986" lon="-0.41269">
        <ele>20.4</ele>
        <time>2020-09-10T11:28:38Z</time>
      </trkpt>
      <trkpt lat="44.89861" lon="-0.41267">
        <ele>20.4</ele>
        <time>2020-09-10T11:28:40Z</time>
      </trkpt>
      <trkpt lat="44.89862" lon="-0.41266">
        <ele>20.4</ele>
        <time>2020-09-10T11:28:41Z</time>
      </trkpt>
      <trkpt lat="44.89863" lon="-0.41265">
        <ele>20.4</ele>
        <time>2020-09-10T11:28:42Z</time>
      </trkpt>
      <trkpt lat="44.89864" lon="-0.41264">
        <ele>20.4</ele>
        <time>2020-09-10T11:28:43Z</time>
      </trkpt>
      <trkpt lat="44.89864" lon="-0.41262">
        <ele>20.4</ele>
        <time>2020-09-10T11:28:44Z</time>
      </trkpt>
      <trkpt lat="44.89865" lon="-0.4126">
        <ele>20.4</ele>
        <time>2020-09-10T11:28:46Z</time>
      </trkpt>
      <trkpt lat="44.89866" lon="-0.41257">
        <ele>20.4</ele>
        <time>2020-09-10T11:28:47Z</time>
      </trkpt>
      <trkpt lat="44.89867" lon="-0.41256">
        <ele>20.4</ele>
        <time>2020-09-10T11:28:48Z</time>
      </trkpt>
      <trkpt lat="44.89868" lon="-0.41253">
        <ele>20.4</ele>
        <time>2020-09-10T11:28:50Z</time>
      </trkpt>
      <trkpt lat="44.89869" lon="-0.41252">
        <ele>20.4</ele>
        <time>2020-09-10T11:28:51Z</time>
      </trkpt>
      <trkpt lat="44.8987" lon="-0.4125">
        <ele>20.4</ele>
        <time>2020-09-10T11:28:52Z</time>
      </trkpt>
      <trkpt lat="44.8987" lon="-0.41249">
        <ele>20.3</ele>
        <time>2020-09-10T11:28:53Z</time>
      </trkpt>
      <trkpt lat="44.89871" lon="-0.41248">
        <ele>20.3</ele>
        <time>2020-09-10T11:28:54Z</time>
      </trkpt>
      <trkpt lat="44.89872" lon="-0.41246">
        <ele>20.3</ele>
        <time>2020-09-10T11:28:55Z</time>
      </trkpt>
      <trkpt lat="44.89873" lon="-0.41243">
        <ele>20.3</ele>
        <time>2020-09-10T11:28:57Z</time>
      </trkpt>
      <trkpt lat="44.89874" lon="-0.41241">
        <ele>20.3</ele>
        <time>2020-09-10T11:28:58Z</time>
      </trkpt>
      <trkpt lat="44.89874" lon="-0.4124">
        <ele>20.3</ele>
        <time>2020-09-10T11:28:59Z</time>
      </trkpt>
      <trkpt lat="44.89875" lon="-0.41239">
        <ele>20.3</ele>
        <time>2020-09-10T11:29:00Z</time>
      </trkpt>
      <trkpt lat="44.89875" lon="-0.41237">
        <ele>20.3</ele>
        <time>2020-09-10T11:29:01Z</time>
      </trkpt>
      <trkpt lat="44.89877" lon="-0.41234">
        <ele>20.3</ele>
        <time>2020-09-10T11:29:03Z</time>
      </trkpt>
      <trkpt lat="44.89877" lon="-0.41233">
        <ele>20.3</ele>
        <time>2020-09-10T11:29:05Z</time>
      </trkpt>
      <trkpt lat="44.89877" lon="-0.41231">
        <ele>20.3</ele>
        <time>2020-09-10T11:29:06Z</time>
      </trkpt>
      <trkpt lat="44.89878" lon="-0.4123">
        <ele>20.3</ele>
        <time>2020-09-10T11:29:07Z</time>
      </trkpt>
      <trkpt lat="44.89879" lon="-0.41227">
        <ele>20.3</ele>
        <time>2020-09-10T11:29:09Z</time>
      </trkpt>
      <trkpt lat="44.8988" lon="-0.41226">
        <ele>20.3</ele>
        <time>2020-09-10T11:29:10Z</time>
      </trkpt>
      <trkpt lat="44.8988" lon="-0.41225">
        <ele>20.3</ele>
        <time>2020-09-10T11:29:11Z</time>
      </trkpt>
      <trkpt lat="44.89881" lon="-0.41223">
        <ele>20.3</ele>
        <time>2020-09-10T11:29:12Z</time>
      </trkpt>
      <trkpt lat="44.89881" lon="-0.41222">
        <ele>20.3</ele>
        <time>2020-09-10T11:29:13Z</time>
      </trkpt>
      <trkpt lat="44.89881" lon="-0.41221">
        <ele>20.3</ele>
        <time>2020-09-10T11:29:14Z</time>
      </trkpt>
      <trkpt lat="44.89882" lon="-0.41218">
        <ele>20.2</ele>
        <time>2020-09-10T11:29:16Z</time>
      </trkpt>
      <trkpt lat="44.89884" lon="-0.41213">
        <ele>20.2</ele>
        <time>2020-09-10T11:29:18Z</time>
      </trkpt>
      <trkpt lat="44.89884" lon="-0.41212">
        <ele>20.2</ele>
        <time>2020-09-10T11:29:19Z</time>
      </trkpt>
      <trkpt lat="44.89885" lon="-0.41209">
        <ele>20.2</ele>
        <time>2020-09-10T11:29:20Z</time>
      </trkpt>
      <trkpt lat="44.89886" lon="-0.41208">
        <ele>20.2</ele>
        <time>2020-09-10T11:29:21Z</time>
      </trkpt>
      <trkpt lat="44.89886" lon="-0.41207">
        <ele>20.2</ele>
        <time>2020-09-10T11:29:22Z</time>
      </trkpt>
      <trkpt lat="44.89888" lon="-0.41204">
        <ele>20.1</ele>
        <time>2020-09-10T11:29:24Z</time>
      </trkpt>
      <trkpt lat="44.89888" lon="-0.41203">
        <ele>20.1</ele>
        <time>2020-09-10T11:29:25Z</time>
      </trkpt>
      <trkpt lat="44.89889" lon="-0.41201">
        <ele>20.1</ele>
        <time>2020-09-10T11:29:26Z</time>
      </trkpt>
      <trkpt lat="44.8989" lon="-0.41198">
        <ele>20.1</ele>
        <time>2020-09-10T11:29:28Z</time>
      </trkpt>
      <trkpt lat="44.89892" lon="-0.41196">
        <ele>20.1</ele>
        <time>2020-09-10T11:29:29Z</time>
      </trkpt>
      <trkpt lat="44.89892" lon="-0.41195">
        <ele>20.1</ele>
        <time>2020-09-10T11:29:30Z</time>
      </trkpt>
      <trkpt lat="44.89893" lon="-0.41194">
        <ele>20.1</ele>
        <time>2020-09-10T11:29:31Z</time>
      </trkpt>
      <trkpt lat="44.89894" lon="-0.41193">
        <ele>20.1</ele>
        <time>2020-09-10T11:29:32Z</time>
      </trkpt>
      <trkpt lat="44.89896" lon="-0.41188">
        <ele>20</ele>
        <time>2020-09-10T11:29:34Z</time>
      </trkpt>
      <trkpt lat="44.89896" lon="-0.41187">
        <ele>20</ele>
        <time>2020-09-10T11:29:36Z</time>
      </trkpt>
      <trkpt lat="44.89897" lon="-0.41186">
        <ele>20</ele>
        <time>2020-09-10T11:29:37Z</time>
      </trkpt>
      <trkpt lat="44.89897" lon="-0.41185">
        <ele>20</ele>
        <time>2020-09-10T11:29:38Z</time>
      </trkpt>
      <trkpt lat="44.89898" lon="-0.41182">
        <ele>20</ele>
        <time>2020-09-10T11:29:39Z</time>
      </trkpt>
      <trkpt lat="44.89899" lon="-0.41181">
        <ele>19.9</ele>
        <time>2020-09-10T11:29:41Z</time>
      </trkpt>
      <trkpt lat="44.89899" lon="-0.41179">
        <ele>19.9</ele>
        <time>2020-09-10T11:29:42Z</time>
      </trkpt>
      <trkpt lat="44.899" lon="-0.41178">
        <ele>19.9</ele>
        <time>2020-09-10T11:29:43Z</time>
      </trkpt>
      <trkpt lat="44.899" lon="-0.41176">
        <ele>19.9</ele>
        <time>2020-09-10T11:29:44Z</time>
      </trkpt>
      <trkpt lat="44.89902" lon="-0.41173">
        <ele>19.9</ele>
        <time>2020-09-10T11:29:45Z</time>
      </trkpt>
      <trkpt lat="44.89903" lon="-0.41171">
        <ele>19.8</ele>
        <time>2020-09-10T11:29:46Z</time>
      </trkpt>
      <trkpt lat="44.89903" lon="-0.41169">
        <ele>19.8</ele>
        <time>2020-09-10T11:29:48Z</time>
      </trkpt>
      <trkpt lat="44.89903" lon="-0.41168">
        <ele>19.8</ele>
        <time>2020-09-10T11:29:49Z</time>
      </trkpt>
      <trkpt lat="44.89904" lon="-0.41165">
        <ele>19.8</ele>
        <time>2020-09-10T11:29:51Z</time>
      </trkpt>
      <trkpt lat="44.89905" lon="-0.41164">
        <ele>19.8</ele>
        <time>2020-09-10T11:29:52Z</time>
      </trkpt>
      <trkpt lat="44.89905" lon="-0.41161">
        <ele>19.7</ele>
        <time>2020-09-10T11:29:53Z</time>
      </trkpt>
      <trkpt lat="44.89906" lon="-0.41159">
        <ele>19.7</ele>
        <time>2020-09-10T11:29:55Z</time>
      </trkpt>
      <trkpt lat="44.89907" lon="-0.41157">
        <ele>19.7</ele>
        <time>2020-09-10T11:29:56Z</time>
      </trkpt>
      <trkpt lat="44.89907" lon="-0.41155">
        <ele>19.7</ele>
        <time>2020-09-10T11:29:57Z</time>
      </trkpt>
      <trkpt lat="44.89907" lon="-0.41154">
        <ele>19.6</ele>
        <time>2020-09-10T11:29:58Z</time>
      </trkpt>
      <trkpt lat="44.89907" lon="-0.41154">
        <ele>19.6</ele>
        <time>2020-09-10T11:29:59Z</time>
      </trkpt>
      <trkpt lat="44.89908" lon="-0.41152">
        <ele>19.6</ele>
        <time>2020-09-10T11:30:00Z</time>
      </trkpt>
      <trkpt lat="44.89908" lon="-0.41151">
        <ele>19.6</ele>
        <time>2020-09-10T11:30:01Z</time>
      </trkpt>
      <trkpt lat="44.89909" lon="-0.41149">
        <ele>19.6</ele>
        <time>2020-09-10T11:30:03Z</time>
      </trkpt>
      <trkpt lat="44.89909" lon="-0.41148">
        <ele>19.6</ele>
        <time>2020-09-10T11:30:04Z</time>
      </trkpt>
      <trkpt lat="44.8991" lon="-0.41146">
        <ele>19.5</ele>
        <time>2020-09-10T11:30:05Z</time>
      </trkpt>
      <trkpt lat="44.8991" lon="-0.41145">
        <ele>19.5</ele>
        <time>2020-09-10T11:30:06Z</time>
      </trkpt>
      <trkpt lat="44.89911" lon="-0.41143">
        <ele>19.5</ele>
        <time>2020-09-10T11:30:07Z</time>
      </trkpt>
      <trkpt lat="44.89912" lon="-0.41142">
        <ele>19.5</ele>
        <time>2020-09-10T11:30:09Z</time>
      </trkpt>
      <trkpt lat="44.89912" lon="-0.41141">
        <ele>19.5</ele>
        <time>2020-09-10T11:30:10Z</time>
      </trkpt>
      <trkpt lat="44.89913" lon="-0.41139">
        <ele>19.5</ele>
        <time>2020-09-10T11:30:11Z</time>
      </trkpt>
      <trkpt lat="44.89914" lon="-0.41138">
        <ele>19.4</ele>
        <time>2020-09-10T11:30:13Z</time>
      </trkpt>
      <trkpt lat="44.89914" lon="-0.41137">
        <ele>19.4</ele>
        <time>2020-09-10T11:30:14Z</time>
      </trkpt>
      <trkpt lat="44.89915" lon="-0.41135">
        <ele>19.4</ele>
        <time>2020-09-10T11:30:15Z</time>
      </trkpt>
      <trkpt lat="44.89915" lon="-0.41135">
        <ele>19.4</ele>
        <time>2020-09-10T11:30:17Z</time>
      </trkpt>
      <trkpt lat="44.89916" lon="-0.41134">
        <ele>19.4</ele>
        <time>2020-09-10T11:30:18Z</time>
      </trkpt>
      <trkpt lat="44.89917" lon="-0.4113">
        <ele>19.3</ele>
        <time>2020-09-10T11:30:19Z</time>
      </trkpt>
      <trkpt lat="44.89918" lon="-0.41128">
        <ele>19.3</ele>
        <time>2020-09-10T11:30:22Z</time>
      </trkpt>
      <trkpt lat="44.89919" lon="-0.41126">
        <ele>19.3</ele>
        <time>2020-09-10T11:30:23Z</time>
      </trkpt>
      <trkpt lat="44.8992" lon="-0.41124">
        <ele>19.3</ele>
        <time>2020-09-10T11:30:24Z</time>
      </trkpt>
      <trkpt lat="44.89921" lon="-0.41122">
        <ele>19.3</ele>
        <time>2020-09-10T11:30:25Z</time>
      </trkpt>
      <trkpt lat="44.89922" lon="-0.4112">
        <ele>19.2</ele>
        <time>2020-09-10T11:30:26Z</time>
      </trkpt>
      <trkpt lat="44.89922" lon="-0.41118">
        <ele>19.2</ele>
        <time>2020-09-10T11:30:27Z</time>
      </trkpt>
      <trkpt lat="44.89924" lon="-0.41116">
        <ele>19.2</ele>
        <time>2020-09-10T11:30:28Z</time>
      </trkpt>
      <trkpt lat="44.89924" lon="-0.41115">
        <ele>19.2</ele>
        <time>2020-09-10T11:30:29Z</time>
      </trkpt>
      <trkpt lat="44.89925" lon="-0.41114">
        <ele>19.2</ele>
        <time>2020-09-10T11:30:30Z</time>
      </trkpt>
      <trkpt lat="44.89926" lon="-0.41111">
        <ele>19.1</ele>
        <time>2020-09-10T11:30:31Z</time>
      </trkpt>
      <trkpt lat="44.89926" lon="-0.41109">
        <ele>19.1</ele>
        <time>2020-09-10T11:30:33Z</time>
      </trkpt>
      <trkpt lat="44.89927" lon="-0.41108">
        <ele>19.1</ele>
        <time>2020-09-10T11:30:34Z</time>
      </trkpt>
      <trkpt lat="44.89927" lon="-0.41107">
        <ele>19.1</ele>
        <time>2020-09-10T11:30:35Z</time>
      </trkpt>
      <trkpt lat="44.89928" lon="-0.41105">
        <ele>19</ele>
        <time>2020-09-10T11:30:36Z</time>
      </trkpt>
      <trkpt lat="44.89929" lon="-0.41105">
        <ele>19</ele>
        <time>2020-09-10T11:30:37Z</time>
      </trkpt>
      <trkpt lat="44.8993" lon="-0.41103">
        <ele>19</ele>
        <time>2020-09-10T11:30:39Z</time>
      </trkpt>
      <trkpt lat="44.8993" lon="-0.41102">
        <ele>19</ele>
        <time>2020-09-10T11:30:40Z</time>
      </trkpt>
      <trkpt lat="44.89931" lon="-0.41099">
        <ele>18.9</ele>
        <time>2020-09-10T11:30:42Z</time>
      </trkpt>
      <trkpt lat="44.89933" lon="-0.41098">
        <ele>18.9</ele>
        <time>2020-09-10T11:30:44Z</time>
      </trkpt>
      <trkpt lat="44.89934" lon="-0.41096">
        <ele>18.9</ele>
        <time>2020-09-10T11:30:45Z</time>
      </trkpt>
      <trkpt lat="44.89935" lon="-0.41095">
        <ele>18.9</ele>
        <time>2020-09-10T11:30:46Z</time>
      </trkpt>
      <trkpt lat="44.89935" lon="-0.41094">
        <ele>18.8</ele>
        <time>2020-09-10T11:30:47Z</time>
      </trkpt>
      <trkpt lat="44.89936" lon="-0.41093">
        <ele>18.8</ele>
        <time>2020-09-10T11:30:48Z</time>
      </trkpt>
      <trkpt lat="44.89937" lon="-0.41091">
        <ele>18.8</ele>
        <time>2020-09-10T11:30:49Z</time>
      </trkpt>
      <trkpt lat="44.89938" lon="-0.4109">
        <ele>18.7</ele>
        <time>2020-09-10T11:30:51Z</time>
      </trkpt>
      <trkpt lat="44.8994" lon="-0.41087">
        <ele>18.7</ele>
        <time>2020-09-10T11:30:52Z</time>
      </trkpt>
      <trkpt lat="44.89941" lon="-0.41086">
        <ele>18.6</ele>
        <time>2020-09-10T11:30:53Z</time>
      </trkpt>
      <trkpt lat="44.89942" lon="-0.41084">
        <ele>18.6</ele>
        <time>2020-09-10T11:30:54Z</time>
      </trkpt>
      <trkpt lat="44.89943" lon="-0.41083">
        <ele>18.6</ele>
        <time>2020-09-10T11:30:55Z</time>
      </trkpt>
      <trkpt lat="44.89944" lon="-0.41082">
        <ele>18.5</ele>
        <time>2020-09-10T11:30:56Z</time>
      </trkpt>
      <trkpt lat="44.89945" lon="-0.41082">
        <ele>18.5</ele>
        <time>2020-09-10T11:30:57Z</time>
      </trkpt>
      <trkpt lat="44.89946" lon="-0.41081">
        <ele>18.5</ele>
        <time>2020-09-10T11:30:58Z</time>
      </trkpt>
      <trkpt lat="44.89948" lon="-0.4108">
        <ele>18.5</ele>
        <time>2020-09-10T11:31:00Z</time>
      </trkpt>
      <trkpt lat="44.89949" lon="-0.41079">
        <ele>18.4</ele>
        <time>2020-09-10T11:31:01Z</time>
      </trkpt>
      <trkpt lat="44.8995" lon="-0.41077">
        <ele>18.4</ele>
        <time>2020-09-10T11:31:02Z</time>
      </trkpt>
      <trkpt lat="44.89952" lon="-0.41075">
        <ele>18.3</ele>
        <time>2020-09-10T11:31:03Z</time>
      </trkpt>
      <trkpt lat="44.89953" lon="-0.41074">
        <ele>18.3</ele>
        <time>2020-09-10T11:31:05Z</time>
      </trkpt>
      <trkpt lat="44.89954" lon="-0.41071">
        <ele>18.2</ele>
        <time>2020-09-10T11:31:06Z</time>
      </trkpt>
      <trkpt lat="44.89955" lon="-0.4107">
        <ele>18.2</ele>
        <time>2020-09-10T11:31:07Z</time>
      </trkpt>
      <trkpt lat="44.89956" lon="-0.41068">
        <ele>18.2</ele>
        <time>2020-09-10T11:31:08Z</time>
      </trkpt>
      <trkpt lat="44.89956" lon="-0.41067">
        <ele>18.1</ele>
        <time>2020-09-10T11:31:09Z</time>
      </trkpt>
      <trkpt lat="44.89957" lon="-0.41066">
        <ele>18.1</ele>
        <time>2020-09-10T11:31:10Z</time>
      </trkpt>
      <trkpt lat="44.89958" lon="-0.41063">
        <ele>18.1</ele>
        <time>2020-09-10T11:31:12Z</time>
      </trkpt>
      <trkpt lat="44.89959" lon="-0.41059">
        <ele>18</ele>
        <time>2020-09-10T11:31:13Z</time>
      </trkpt>
      <trkpt lat="44.89959" lon="-0.41058">
        <ele>18</ele>
        <time>2020-09-10T11:31:14Z</time>
      </trkpt>
      <trkpt lat="44.8996" lon="-0.41056">
        <ele>17.9</ele>
        <time>2020-09-10T11:31:15Z</time>
      </trkpt>
      <trkpt lat="44.8996" lon="-0.41053">
        <ele>17.9</ele>
        <time>2020-09-10T11:31:17Z</time>
      </trkpt>
      <trkpt lat="44.8996" lon="-0.41049">
        <ele>17.8</ele>
        <time>2020-09-10T11:31:18Z</time>
      </trkpt>
      <trkpt lat="44.8996" lon="-0.41047">
        <ele>17.7</ele>
        <time>2020-09-10T11:31:19Z</time>
      </trkpt>
      <trkpt lat="44.8996" lon="-0.41045">
        <ele>17.7</ele>
        <time>2020-09-10T11:31:21Z</time>
      </trkpt>
      <trkpt lat="44.89959" lon="-0.41043">
        <ele>17.6</ele>
        <time>2020-09-10T11:31:22Z</time>
      </trkpt>
      <trkpt lat="44.89959" lon="-0.41041">
        <ele>17.6</ele>
        <time>2020-09-10T11:31:23Z</time>
      </trkpt>
      <trkpt lat="44.89958" lon="-0.4104">
        <ele>17.5</ele>
        <time>2020-09-10T11:31:24Z</time>
      </trkpt>
      <trkpt lat="44.89956" lon="-0.41038">
        <ele>17.5</ele>
        <time>2020-09-10T11:31:26Z</time>
      </trkpt>
      <trkpt lat="44.89956" lon="-0.41036">
        <ele>17.4</ele>
        <time>2020-09-10T11:31:27Z</time>
      </trkpt>
      <trkpt lat="44.89955" lon="-0.41033">
        <ele>17.3</ele>
        <time>2020-09-10T11:31:28Z</time>
      </trkpt>
      <trkpt lat="44.89954" lon="-0.41032">
        <ele>17.3</ele>
        <time>2020-09-10T11:31:29Z</time>
      </trkpt>
      <trkpt lat="44.89953" lon="-0.4103">
        <ele>17.2</ele>
        <time>2020-09-10T11:31:30Z</time>
      </trkpt>
      <trkpt lat="44.89952" lon="-0.41029">
        <ele>17.2</ele>
        <time>2020-09-10T11:31:31Z</time>
      </trkpt>
      <trkpt lat="44.89952" lon="-0.41028">
        <ele>17.2</ele>
        <time>2020-09-10T11:31:32Z</time>
      </trkpt>
      <trkpt lat="44.89951" lon="-0.41026">
        <ele>17.1</ele>
        <time>2020-09-10T11:31:34Z</time>
      </trkpt>
      <trkpt lat="44.89951" lon="-0.41026">
        <ele>17.1</ele>
        <time>2020-09-10T11:31:35Z</time>
      </trkpt>
      <trkpt lat="44.8995" lon="-0.41027">
        <ele>17.1</ele>
        <time>2020-09-10T11:31:37Z</time>
      </trkpt>
      <trkpt lat="44.89949" lon="-0.41026">
        <ele>17.1</ele>
        <time>2020-09-10T11:31:38Z</time>
      </trkpt>
      <trkpt lat="44.89949" lon="-0.41024">
        <ele>17</ele>
        <time>2020-09-10T11:31:39Z</time>
      </trkpt>
      <trkpt lat="44.89948" lon="-0.41024">
        <ele>17</ele>
        <time>2020-09-10T11:31:40Z</time>
      </trkpt>
      <trkpt lat="44.89948" lon="-0.41022">
        <ele>16.9</ele>
        <time>2020-09-10T11:31:41Z</time>
      </trkpt>
      <trkpt lat="44.89947" lon="-0.4102">
        <ele>16.9</ele>
        <time>2020-09-10T11:31:43Z</time>
      </trkpt>
      <trkpt lat="44.89946" lon="-0.4102">
        <ele>16.9</ele>
        <time>2020-09-10T11:31:44Z</time>
      </trkpt>
      <trkpt lat="44.89945" lon="-0.41019">
        <ele>16.8</ele>
        <time>2020-09-10T11:31:45Z</time>
      </trkpt>
      <trkpt lat="44.89944" lon="-0.41016">
        <ele>16.8</ele>
        <time>2020-09-10T11:31:46Z</time>
      </trkpt>
      <trkpt lat="44.89944" lon="-0.41015">
        <ele>16.7</ele>
        <time>2020-09-10T11:31:48Z</time>
      </trkpt>
      <trkpt lat="44.89943" lon="-0.41012">
        <ele>16.7</ele>
        <time>2020-09-10T11:31:49Z</time>
      </trkpt>
      <trkpt lat="44.89942" lon="-0.41011">
        <ele>16.6</ele>
        <time>2020-09-10T11:31:50Z</time>
      </trkpt>
      <trkpt lat="44.89941" lon="-0.41009">
        <ele>16.5</ele>
        <time>2020-09-10T11:31:51Z</time>
      </trkpt>
      <trkpt lat="44.8994" lon="-0.41008">
        <ele>16.5</ele>
        <time>2020-09-10T11:31:52Z</time>
      </trkpt>
      <trkpt lat="44.8994" lon="-0.41007">
        <ele>16.5</ele>
        <time>2020-09-10T11:31:53Z</time>
      </trkpt>
      <trkpt lat="44.89939" lon="-0.41006">
        <ele>16.4</ele>
        <time>2020-09-10T11:31:55Z</time>
      </trkpt>
      <trkpt lat="44.89937" lon="-0.41004">
        <ele>16.3</ele>
        <time>2020-09-10T11:31:56Z</time>
      </trkpt>
      <trkpt lat="44.89937" lon="-0.41003">
        <ele>16.3</ele>
        <time>2020-09-10T11:31:57Z</time>
      </trkpt>
      <trkpt lat="44.89936" lon="-0.41002">
        <ele>16.2</ele>
        <time>2020-09-10T11:31:58Z</time>
      </trkpt>
      <trkpt lat="44.89935" lon="-0.41">
        <ele>16.2</ele>
        <time>2020-09-10T11:31:59Z</time>
      </trkpt>
      <trkpt lat="44.89934" lon="-0.40999">
        <ele>16.1</ele>
        <time>2020-09-10T11:32:00Z</time>
      </trkpt>
      <trkpt lat="44.89933" lon="-0.40997">
        <ele>16</ele>
        <time>2020-09-10T11:32:02Z</time>
      </trkpt>
      <trkpt lat="44.89931" lon="-0.40994">
        <ele>15.9</ele>
        <time>2020-09-10T11:32:03Z</time>
      </trkpt>
      <trkpt lat="44.89931" lon="-0.40993">
        <ele>15.9</ele>
        <time>2020-09-10T11:32:04Z</time>
      </trkpt>
      <trkpt lat="44.8993" lon="-0.40992">
        <ele>15.8</ele>
        <time>2020-09-10T11:32:05Z</time>
      </trkpt>
      <trkpt lat="44.89929" lon="-0.4099">
        <ele>15.8</ele>
        <time>2020-09-10T11:32:06Z</time>
      </trkpt>
      <trkpt lat="44.89929" lon="-0.4099">
        <ele>15.7</ele>
        <time>2020-09-10T11:32:07Z</time>
      </trkpt>
      <trkpt lat="44.89927" lon="-0.40988">
        <ele>15.6</ele>
        <time>2020-09-10T11:32:08Z</time>
      </trkpt>
      <trkpt lat="44.89927" lon="-0.40987">
        <ele>15.6</ele>
        <time>2020-09-10T11:32:10Z</time>
      </trkpt>
      <trkpt lat="44.89926" lon="-0.40986">
        <ele>15.6</ele>
        <time>2020-09-10T11:32:11Z</time>
      </trkpt>
      <trkpt lat="44.89926" lon="-0.40986">
        <ele>15.5</ele>
        <time>2020-09-10T11:32:12Z</time>
      </trkpt>
      <trkpt lat="44.89924" lon="-0.40983">
        <ele>15.4</ele>
        <time>2020-09-10T11:32:13Z</time>
      </trkpt>
      <trkpt lat="44.89924" lon="-0.40982">
        <ele>15.4</ele>
        <time>2020-09-10T11:32:14Z</time>
      </trkpt>
      <trkpt lat="44.89924" lon="-0.40982">
        <ele>15.4</ele>
        <time>2020-09-10T11:32:16Z</time>
      </trkpt>
      <trkpt lat="44.89923" lon="-0.4098">
        <ele>15.3</ele>
        <time>2020-09-10T11:32:17Z</time>
      </trkpt>
      <trkpt lat="44.89922" lon="-0.40977">
        <ele>15.2</ele>
        <time>2020-09-10T11:32:19Z</time>
      </trkpt>
      <trkpt lat="44.89921" lon="-0.40976">
        <ele>15.1</ele>
        <time>2020-09-10T11:32:20Z</time>
      </trkpt>
      <trkpt lat="44.8992" lon="-0.40975">
        <ele>15.1</ele>
        <time>2020-09-10T11:32:21Z</time>
      </trkpt>
      <trkpt lat="44.8992" lon="-0.40974">
        <ele>15.1</ele>
        <time>2020-09-10T11:32:22Z</time>
      </trkpt>
      <trkpt lat="44.89919" lon="-0.40973">
        <ele>15</ele>
        <time>2020-09-10T11:32:23Z</time>
      </trkpt>
      <trkpt lat="44.89919" lon="-0.40971">
        <ele>15</ele>
        <time>2020-09-10T11:32:25Z</time>
      </trkpt>
      <trkpt lat="44.89918" lon="-0.4097">
        <ele>14.9</ele>
        <time>2020-09-10T11:32:26Z</time>
      </trkpt>
      <trkpt lat="44.89918" lon="-0.40968">
        <ele>14.9</ele>
        <time>2020-09-10T11:32:27Z</time>
      </trkpt>
      <trkpt lat="44.89917" lon="-0.40966">
        <ele>14.8</ele>
        <time>2020-09-10T11:32:28Z</time>
      </trkpt>
      <trkpt lat="44.89916" lon="-0.40964">
        <ele>14.7</ele>
        <time>2020-09-10T11:32:29Z</time>
      </trkpt>
      <trkpt lat="44.89915" lon="-0.40963">
        <ele>14.6</ele>
        <time>2020-09-10T11:32:31Z</time>
      </trkpt>
      <trkpt lat="44.89915" lon="-0.40961">
        <ele>14.6</ele>
        <time>2020-09-10T11:32:32Z</time>
      </trkpt>
      <trkpt lat="44.89914" lon="-0.40958">
        <ele>14.5</ele>
        <time>2020-09-10T11:32:33Z</time>
      </trkpt>
      <trkpt lat="44.89913" lon="-0.40956">
        <ele>14.4</ele>
        <time>2020-09-10T11:32:35Z</time>
      </trkpt>
      <trkpt lat="44.89912" lon="-0.40953">
        <ele>14.3</ele>
        <time>2020-09-10T11:32:37Z</time>
      </trkpt>
      <trkpt lat="44.89911" lon="-0.40951">
        <ele>14.2</ele>
        <time>2020-09-10T11:32:38Z</time>
      </trkpt>
      <trkpt lat="44.89911" lon="-0.4095">
        <ele>14.2</ele>
        <time>2020-09-10T11:32:39Z</time>
      </trkpt>
      <trkpt lat="44.89911" lon="-0.40949">
        <ele>14.1</ele>
        <time>2020-09-10T11:32:40Z</time>
      </trkpt>
      <trkpt lat="44.8991" lon="-0.40947">
        <ele>14.1</ele>
        <time>2020-09-10T11:32:41Z</time>
      </trkpt>
      <trkpt lat="44.8991" lon="-0.40946">
        <ele>14</ele>
        <time>2020-09-10T11:32:42Z</time>
      </trkpt>
      <trkpt lat="44.89908" lon="-0.40942">
        <ele>13.9</ele>
        <time>2020-09-10T11:32:43Z</time>
      </trkpt>
      <trkpt lat="44.89908" lon="-0.4094">
        <ele>13.8</ele>
        <time>2020-09-10T11:32:44Z</time>
      </trkpt>
      <trkpt lat="44.89907" lon="-0.40938">
        <ele>13.8</ele>
        <time>2020-09-10T11:32:46Z</time>
      </trkpt>
      <trkpt lat="44.89906" lon="-0.40937">
        <ele>13.7</ele>
        <time>2020-09-10T11:32:47Z</time>
      </trkpt>
      <trkpt lat="44.89906" lon="-0.40935">
        <ele>13.7</ele>
        <time>2020-09-10T11:32:48Z</time>
      </trkpt>
      <trkpt lat="44.89905" lon="-0.40934">
        <ele>13.6</ele>
        <time>2020-09-10T11:32:49Z</time>
      </trkpt>
      <trkpt lat="44.89904" lon="-0.40931">
        <ele>13.5</ele>
        <time>2020-09-10T11:32:51Z</time>
      </trkpt>
      <trkpt lat="44.89903" lon="-0.4093">
        <ele>13.5</ele>
        <time>2020-09-10T11:32:52Z</time>
      </trkpt>
      <trkpt lat="44.89903" lon="-0.40928">
        <ele>13.4</ele>
        <time>2020-09-10T11:32:53Z</time>
      </trkpt>
      <trkpt lat="44.89902" lon="-0.40927">
        <ele>13.4</ele>
        <time>2020-09-10T11:32:54Z</time>
      </trkpt>
      <trkpt lat="44.89902" lon="-0.40926">
        <ele>13.3</ele>
        <time>2020-09-10T11:32:55Z</time>
      </trkpt>
      <trkpt lat="44.89901" lon="-0.40925">
        <ele>13.3</ele>
        <time>2020-09-10T11:32:56Z</time>
      </trkpt>
      <trkpt lat="44.899" lon="-0.40923">
        <ele>13.2</ele>
        <time>2020-09-10T11:32:57Z</time>
      </trkpt>
      <trkpt lat="44.89899" lon="-0.40921">
        <ele>13.1</ele>
        <time>2020-09-10T11:32:59Z</time>
      </trkpt>
      <trkpt lat="44.89899" lon="-0.4092">
        <ele>13.1</ele>
        <time>2020-09-10T11:33:00Z</time>
      </trkpt>
      <trkpt lat="44.89898" lon="-0.40918">
        <ele>13</ele>
        <time>2020-09-10T11:33:01Z</time>
      </trkpt>
      <trkpt lat="44.89896" lon="-0.40914">
        <ele>12.9</ele>
        <time>2020-09-10T11:33:03Z</time>
      </trkpt>
      <trkpt lat="44.89896" lon="-0.40912">
        <ele>12.8</ele>
        <time>2020-09-10T11:33:04Z</time>
      </trkpt>
      <trkpt lat="44.89895" lon="-0.40911">
        <ele>12.7</ele>
        <time>2020-09-10T11:33:05Z</time>
      </trkpt>
      <trkpt lat="44.89895" lon="-0.4091">
        <ele>12.7</ele>
        <time>2020-09-10T11:33:06Z</time>
      </trkpt>
      <trkpt lat="44.89895" lon="-0.40909">
        <ele>12.7</ele>
        <time>2020-09-10T11:33:07Z</time>
      </trkpt>
      <trkpt lat="44.89893" lon="-0.40905">
        <ele>12.5</ele>
        <time>2020-09-10T11:33:08Z</time>
      </trkpt>
      <trkpt lat="44.89892" lon="-0.40903">
        <ele>12.4</ele>
        <time>2020-09-10T11:33:10Z</time>
      </trkpt>
      <trkpt lat="44.89891" lon="-0.40902">
        <ele>12.4</ele>
        <time>2020-09-10T11:33:11Z</time>
      </trkpt>
      <trkpt lat="44.89891" lon="-0.409">
        <ele>12.3</ele>
        <time>2020-09-10T11:33:12Z</time>
      </trkpt>
      <trkpt lat="44.8989" lon="-0.40899">
        <ele>12.3</ele>
        <time>2020-09-10T11:33:13Z</time>
      </trkpt>
      <trkpt lat="44.89889" lon="-0.40898">
        <ele>12.2</ele>
        <time>2020-09-10T11:33:15Z</time>
      </trkpt>
      <trkpt lat="44.89888" lon="-0.40896">
        <ele>12.2</ele>
        <time>2020-09-10T11:33:16Z</time>
      </trkpt>
      <trkpt lat="44.89888" lon="-0.40895">
        <ele>12.1</ele>
        <time>2020-09-10T11:33:17Z</time>
      </trkpt>
      <trkpt lat="44.89887" lon="-0.40893">
        <ele>12.1</ele>
        <time>2020-09-10T11:33:18Z</time>
      </trkpt>
      <trkpt lat="44.89886" lon="-0.40892">
        <ele>12</ele>
        <time>2020-09-10T11:33:19Z</time>
      </trkpt>
      <trkpt lat="44.89886" lon="-0.40891">
        <ele>12</ele>
        <time>2020-09-10T11:33:20Z</time>
      </trkpt>
      <trkpt lat="44.89885" lon="-0.4089">
        <ele>12</ele>
        <time>2020-09-10T11:33:22Z</time>
      </trkpt>
      <trkpt lat="44.89884" lon="-0.40888">
        <ele>11.9</ele>
        <time>2020-09-10T11:33:23Z</time>
      </trkpt>
      <trkpt lat="44.89883" lon="-0.40887">
        <ele>11.9</ele>
        <time>2020-09-10T11:33:24Z</time>
      </trkpt>
      <trkpt lat="44.89883" lon="-0.40886">
        <ele>11.8</ele>
        <time>2020-09-10T11:33:25Z</time>
      </trkpt>
      <trkpt lat="44.89882" lon="-0.40884">
        <ele>11.8</ele>
        <time>2020-09-10T11:33:27Z</time>
      </trkpt>
      <trkpt lat="44.89881" lon="-0.40882">
        <ele>11.7</ele>
        <time>2020-09-10T11:33:28Z</time>
      </trkpt>
      <trkpt lat="44.89879" lon="-0.4088">
        <ele>11.6</ele>
        <time>2020-09-10T11:33:29Z</time>
      </trkpt>
      <trkpt lat="44.89878" lon="-0.40879">
        <ele>11.6</ele>
        <time>2020-09-10T11:33:30Z</time>
      </trkpt>
      <trkpt lat="44.89877" lon="-0.40877">
        <ele>11.5</ele>
        <time>2020-09-10T11:33:31Z</time>
      </trkpt>
      <trkpt lat="44.89876" lon="-0.40875">
        <ele>11.5</ele>
        <time>2020-09-10T11:33:32Z</time>
      </trkpt>
      <trkpt lat="44.89874" lon="-0.40872">
        <ele>11.4</ele>
        <time>2020-09-10T11:33:34Z</time>
      </trkpt>
      <trkpt lat="44.89873" lon="-0.40869">
        <ele>11.3</ele>
        <time>2020-09-10T11:33:35Z</time>
      </trkpt>
      <trkpt lat="44.89873" lon="-0.40868">
        <ele>11.3</ele>
        <time>2020-09-10T11:33:36Z</time>
      </trkpt>
      <trkpt lat="44.89872" lon="-0.40867">
        <ele>11.2</ele>
        <time>2020-09-10T11:33:37Z</time>
      </trkpt>
      <trkpt lat="44.89871" lon="-0.40864">
        <ele>11.2</ele>
        <time>2020-09-10T11:33:38Z</time>
      </trkpt>
      <trkpt lat="44.8987" lon="-0.40862">
        <ele>11.1</ele>
        <time>2020-09-10T11:33:40Z</time>
      </trkpt>
      <trkpt lat="44.89869" lon="-0.4086">
        <ele>11.1</ele>
        <time>2020-09-10T11:33:41Z</time>
      </trkpt>
      <trkpt lat="44.89868" lon="-0.40858">
        <ele>11</ele>
        <time>2020-09-10T11:33:42Z</time>
      </trkpt>
      <trkpt lat="44.89866" lon="-0.40854">
        <ele>10.9</ele>
        <time>2020-09-10T11:33:43Z</time>
      </trkpt>
      <trkpt lat="44.89866" lon="-0.40853">
        <ele>10.9</ele>
        <time>2020-09-10T11:33:44Z</time>
      </trkpt>
      <trkpt lat="44.89865" lon="-0.4085">
        <ele>10.9</ele>
        <time>2020-09-10T11:33:46Z</time>
      </trkpt>
      <trkpt lat="44.89864" lon="-0.40848">
        <ele>10.8</ele>
        <time>2020-09-10T11:33:47Z</time>
      </trkpt>
      <trkpt lat="44.89863" lon="-0.40845">
        <ele>10.8</ele>
        <time>2020-09-10T11:33:48Z</time>
      </trkpt>
      <trkpt lat="44.89862" lon="-0.40843">
        <ele>10.7</ele>
        <time>2020-09-10T11:33:50Z</time>
      </trkpt>
      <trkpt lat="44.89862" lon="-0.40841">
        <ele>10.7</ele>
        <time>2020-09-10T11:33:51Z</time>
      </trkpt>
      <trkpt lat="44.89861" lon="-0.40839">
        <ele>10.7</ele>
        <time>2020-09-10T11:33:52Z</time>
      </trkpt>
      <trkpt lat="44.89861" lon="-0.40838">
        <ele>10.7</ele>
        <time>2020-09-10T11:33:53Z</time>
      </trkpt>
      <trkpt lat="44.8986" lon="-0.40836">
        <ele>10.6</ele>
        <time>2020-09-10T11:33:54Z</time>
      </trkpt>
      <trkpt lat="44.8986" lon="-0.40834">
        <ele>10.6</ele>
        <time>2020-09-10T11:33:55Z</time>
      </trkpt>
      <trkpt lat="44.89859" lon="-0.40833">
        <ele>10.6</ele>
        <time>2020-09-10T11:33:56Z</time>
      </trkpt>
      <trkpt lat="44.89859" lon="-0.40832">
        <ele>10.6</ele>
        <time>2020-09-10T11:33:58Z</time>
      </trkpt>
      <trkpt lat="44.89858" lon="-0.4083">
        <ele>10.6</ele>
        <time>2020-09-10T11:33:59Z</time>
      </trkpt>
      <trkpt lat="44.89858" lon="-0.4083">
        <ele>10.6</ele>
        <time>2020-09-10T11:34:00Z</time>
      </trkpt>
      <trkpt lat="44.89858" lon="-0.40829">
        <ele>10.6</ele>
        <time>2020-09-10T11:34:01Z</time>
      </trkpt>
      <trkpt lat="44.89857" lon="-0.40829">
        <ele>10.6</ele>
        <time>2020-09-10T11:34:03Z</time>
      </trkpt>
      <trkpt lat="44.89857" lon="-0.40829">
        <ele>10.6</ele>
        <time>2020-09-10T11:34:04Z</time>
      </trkpt>
      <trkpt lat="44.89856" lon="-0.40828">
        <ele>10.6</ele>
        <time>2020-09-10T11:34:06Z</time>
      </trkpt>
      <trkpt lat="44.89857" lon="-0.40828">
        <ele>10.6</ele>
        <time>2020-09-10T11:34:07Z</time>
      </trkpt>
      <trkpt lat="44.89857" lon="-0.40826">
        <ele>10.6</ele>
        <time>2020-09-10T11:34:09Z</time>
      </trkpt>
      <trkpt lat="44.89857" lon="-0.40825">
        <ele>10.6</ele>
        <time>2020-09-10T11:34:10Z</time>
      </trkpt>
      <trkpt lat="44.89857" lon="-0.40824">
        <ele>10.6</ele>
        <time>2020-09-10T11:34:11Z</time>
      </trkpt>
      <trkpt lat="44.89857" lon="-0.40824">
        <ele>10.5</ele>
        <time>2020-09-10T11:34:12Z</time>
      </trkpt>
      <trkpt lat="44.89858" lon="-0.40822">
        <ele>10.5</ele>
        <time>2020-09-10T11:34:14Z</time>
      </trkpt>
      <trkpt lat="44.89858" lon="-0.40821">
        <ele>10.5</ele>
        <time>2020-09-10T11:34:15Z</time>
      </trkpt>
      <trkpt lat="44.89858" lon="-0.40819">
        <ele>10.5</ele>
        <time>2020-09-10T11:34:16Z</time>
      </trkpt>
      <trkpt lat="44.8986" lon="-0.40818">
        <ele>10.5</ele>
        <time>2020-09-10T11:34:19Z</time>
      </trkpt>
      <trkpt lat="44.8986" lon="-0.40817">
        <ele>10.5</ele>
        <time>2020-09-10T11:34:21Z</time>
      </trkpt>
      <trkpt lat="44.89861" lon="-0.40817">
        <ele>10.5</ele>
        <time>2020-09-10T11:34:22Z</time>
      </trkpt>
      <trkpt lat="44.89861" lon="-0.40816">
        <ele>10.5</ele>
        <time>2020-09-10T11:34:24Z</time>
      </trkpt>
      <trkpt lat="44.89861" lon="-0.40815">
        <ele>10.5</ele>
        <time>2020-09-10T11:34:25Z</time>
      </trkpt>
      <trkpt lat="44.89861" lon="-0.40814">
        <ele>10.5</ele>
        <time>2020-09-10T11:34:26Z</time>
      </trkpt>
      <trkpt lat="44.8986" lon="-0.40811">
        <ele>10.5</ele>
        <time>2020-09-10T11:34:27Z</time>
      </trkpt>
      <trkpt lat="44.8986" lon="-0.4081">
        <ele>10.5</ele>
        <time>2020-09-10T11:34:28Z</time>
      </trkpt>
      <trkpt lat="44.8986" lon="-0.40808">
        <ele>10.5</ele>
        <time>2020-09-10T11:34:29Z</time>
      </trkpt>
      <trkpt lat="44.8986" lon="-0.40807">
        <ele>10.5</ele>
        <time>2020-09-10T11:34:30Z</time>
      </trkpt>
      <trkpt lat="44.8986" lon="-0.40805">
        <ele>10.5</ele>
        <time>2020-09-10T11:34:31Z</time>
      </trkpt>
      <trkpt lat="44.8986" lon="-0.40803">
        <ele>10.5</ele>
        <time>2020-09-10T11:34:33Z</time>
      </trkpt>
      <trkpt lat="44.8986" lon="-0.408">
        <ele>10.5</ele>
        <time>2020-09-10T11:34:34Z</time>
      </trkpt>
      <trkpt lat="44.8986" lon="-0.40798">
        <ele>10.5</ele>
        <time>2020-09-10T11:34:35Z</time>
      </trkpt>
      <trkpt lat="44.89859" lon="-0.40795">
        <ele>10.5</ele>
        <time>2020-09-10T11:34:36Z</time>
      </trkpt>
      <trkpt lat="44.89859" lon="-0.40794">
        <ele>10.5</ele>
        <time>2020-09-10T11:34:37Z</time>
      </trkpt>
      <trkpt lat="44.89859" lon="-0.40793">
        <ele>10.5</ele>
        <time>2020-09-10T11:34:38Z</time>
      </trkpt>
      <trkpt lat="44.89859" lon="-0.40791">
        <ele>10.5</ele>
        <time>2020-09-10T11:34:39Z</time>
      </trkpt>
      <trkpt lat="44.89858" lon="-0.40789">
        <ele>10.5</ele>
        <time>2020-09-10T11:34:41Z</time>
      </trkpt>
      <trkpt lat="44.89858" lon="-0.40788">
        <ele>10.5</ele>
        <time>2020-09-10T11:34:42Z</time>
      </trkpt>
      <trkpt lat="44.89857" lon="-0.40784">
        <ele>10.5</ele>
        <time>2020-09-10T11:34:43Z</time>
      </trkpt>
      <trkpt lat="44.89857" lon="-0.40783">
        <ele>10.5</ele>
        <time>2020-09-10T11:34:44Z</time>
      </trkpt>
      <trkpt lat="44.89856" lon="-0.4078">
        <ele>10.5</ele>
        <time>2020-09-10T11:34:46Z</time>
      </trkpt>
      <trkpt lat="44.89855" lon="-0.40779">
        <ele>10.6</ele>
        <time>2020-09-10T11:34:47Z</time>
      </trkpt>
      <trkpt lat="44.89854" lon="-0.40776">
        <ele>10.6</ele>
        <time>2020-09-10T11:34:48Z</time>
      </trkpt>
      <trkpt lat="44.89853" lon="-0.40774">
        <ele>10.6</ele>
        <time>2020-09-10T11:34:49Z</time>
      </trkpt>
      <trkpt lat="44.89852" lon="-0.40773">
        <ele>10.6</ele>
        <time>2020-09-10T11:34:51Z</time>
      </trkpt>
      <trkpt lat="44.89852" lon="-0.40772">
        <ele>10.6</ele>
        <time>2020-09-10T11:34:52Z</time>
      </trkpt>
      <trkpt lat="44.89851" lon="-0.40771">
        <ele>10.6</ele>
        <time>2020-09-10T11:34:53Z</time>
      </trkpt>
      <trkpt lat="44.89848" lon="-0.40767">
        <ele>10.7</ele>
        <time>2020-09-10T11:34:54Z</time>
      </trkpt>
      <trkpt lat="44.89847" lon="-0.40766">
        <ele>10.7</ele>
        <time>2020-09-10T11:34:56Z</time>
      </trkpt>
      <trkpt lat="44.89846" lon="-0.40765">
        <ele>10.7</ele>
        <time>2020-09-10T11:34:57Z</time>
      </trkpt>
      <trkpt lat="44.89845" lon="-0.40765">
        <ele>10.7</ele>
        <time>2020-09-10T11:34:58Z</time>
      </trkpt>
      <trkpt lat="44.89844" lon="-0.40764">
        <ele>10.7</ele>
        <time>2020-09-10T11:34:59Z</time>
      </trkpt>
      <trkpt lat="44.89843" lon="-0.40763">
        <ele>10.8</ele>
        <time>2020-09-10T11:35:00Z</time>
      </trkpt>
      <trkpt lat="44.89841" lon="-0.40762">
        <ele>10.8</ele>
        <time>2020-09-10T11:35:01Z</time>
      </trkpt>
      <trkpt lat="44.89839" lon="-0.4076">
        <ele>10.9</ele>
        <time>2020-09-10T11:35:02Z</time>
      </trkpt>
      <trkpt lat="44.89837" lon="-0.40758">
        <ele>10.9</ele>
        <time>2020-09-10T11:35:04Z</time>
      </trkpt>
      <trkpt lat="44.89835" lon="-0.40755">
        <ele>11</ele>
        <time>2020-09-10T11:35:05Z</time>
      </trkpt>
      <trkpt lat="44.89834" lon="-0.40754">
        <ele>11.1</ele>
        <time>2020-09-10T11:35:06Z</time>
      </trkpt>
      <trkpt lat="44.89832" lon="-0.40753">
        <ele>11.1</ele>
        <time>2020-09-10T11:35:07Z</time>
      </trkpt>
      <trkpt lat="44.8983" lon="-0.40752">
        <ele>11.2</ele>
        <time>2020-09-10T11:35:08Z</time>
      </trkpt>
      <trkpt lat="44.89829" lon="-0.40751">
        <ele>11.2</ele>
        <time>2020-09-10T11:35:09Z</time>
      </trkpt>
      <trkpt lat="44.89828" lon="-0.4075">
        <ele>11.3</ele>
        <time>2020-09-10T11:35:10Z</time>
      </trkpt>
      <trkpt lat="44.89825" lon="-0.40747">
        <ele>11.4</ele>
        <time>2020-09-10T11:35:12Z</time>
      </trkpt>
      <trkpt lat="44.89825" lon="-0.40747">
        <ele>11.4</ele>
        <time>2020-09-10T11:35:13Z</time>
      </trkpt>
      <trkpt lat="44.89823" lon="-0.40746">
        <ele>11.5</ele>
        <time>2020-09-10T11:35:14Z</time>
      </trkpt>
      <trkpt lat="44.89821" lon="-0.40744">
        <ele>11.6</ele>
        <time>2020-09-10T11:35:16Z</time>
      </trkpt>
      <trkpt lat="44.8982" lon="-0.40742">
        <ele>11.7</ele>
        <time>2020-09-10T11:35:17Z</time>
      </trkpt>
      <trkpt lat="44.89818" lon="-0.4074">
        <ele>11.8</ele>
        <time>2020-09-10T11:35:19Z</time>
      </trkpt>
      <trkpt lat="44.89817" lon="-0.40739">
        <ele>11.8</ele>
        <time>2020-09-10T11:35:20Z</time>
      </trkpt>
      <trkpt lat="44.89816" lon="-0.40738">
        <ele>11.9</ele>
        <time>2020-09-10T11:35:21Z</time>
      </trkpt>
      <trkpt lat="44.89815" lon="-0.40737">
        <ele>11.9</ele>
        <time>2020-09-10T11:35:22Z</time>
      </trkpt>
      <trkpt lat="44.89814" lon="-0.40734">
        <ele>12</ele>
        <time>2020-09-10T11:35:23Z</time>
      </trkpt>
      <trkpt lat="44.89814" lon="-0.40733">
        <ele>12.1</ele>
        <time>2020-09-10T11:35:25Z</time>
      </trkpt>
      <trkpt lat="44.89813" lon="-0.40732">
        <ele>12.1</ele>
        <time>2020-09-10T11:35:26Z</time>
      </trkpt>
      <trkpt lat="44.89813" lon="-0.40731">
        <ele>12.1</ele>
        <time>2020-09-10T11:35:27Z</time>
      </trkpt>
      <trkpt lat="44.89812" lon="-0.4073">
        <ele>12.2</ele>
        <time>2020-09-10T11:35:29Z</time>
      </trkpt>
      <trkpt lat="44.89812" lon="-0.40728">
        <ele>12.2</ele>
        <time>2020-09-10T11:35:30Z</time>
      </trkpt>
      <trkpt lat="44.89811" lon="-0.40727">
        <ele>12.3</ele>
        <time>2020-09-10T11:35:31Z</time>
      </trkpt>
      <trkpt lat="44.89811" lon="-0.40724">
        <ele>12.4</ele>
        <time>2020-09-10T11:35:32Z</time>
      </trkpt>
      <trkpt lat="44.89811" lon="-0.40723">
        <ele>12.4</ele>
        <time>2020-09-10T11:35:33Z</time>
      </trkpt>
      <trkpt lat="44.8981" lon="-0.40721">
        <ele>12.5</ele>
        <time>2020-09-10T11:35:34Z</time>
      </trkpt>
      <trkpt lat="44.8981" lon="-0.4072">
        <ele>12.5</ele>
        <time>2020-09-10T11:35:35Z</time>
      </trkpt>
      <trkpt lat="44.8981" lon="-0.40718">
        <ele>12.6</ele>
        <time>2020-09-10T11:35:36Z</time>
      </trkpt>
      <trkpt lat="44.89809" lon="-0.40716">
        <ele>12.6</ele>
        <time>2020-09-10T11:35:38Z</time>
      </trkpt>
      <trkpt lat="44.89809" lon="-0.40715">
        <ele>12.7</ele>
        <time>2020-09-10T11:35:39Z</time>
      </trkpt>
      <trkpt lat="44.89809" lon="-0.40713">
        <ele>12.7</ele>
        <time>2020-09-10T11:35:40Z</time>
      </trkpt>
      <trkpt lat="44.89809" lon="-0.40711">
        <ele>12.8</ele>
        <time>2020-09-10T11:35:41Z</time>
      </trkpt>
      <trkpt lat="44.89809" lon="-0.40708">
        <ele>12.9</ele>
        <time>2020-09-10T11:35:42Z</time>
      </trkpt>
      <trkpt lat="44.89809" lon="-0.40707">
        <ele>12.9</ele>
        <time>2020-09-10T11:35:43Z</time>
      </trkpt>
      <trkpt lat="44.89809" lon="-0.40706">
        <ele>12.9</ele>
        <time>2020-09-10T11:35:44Z</time>
      </trkpt>
      <trkpt lat="44.89809" lon="-0.40702">
        <ele>13</ele>
        <time>2020-09-10T11:35:45Z</time>
      </trkpt>
      <trkpt lat="44.8981" lon="-0.40701">
        <ele>13.1</ele>
        <time>2020-09-10T11:35:47Z</time>
      </trkpt>
      <trkpt lat="44.8981" lon="-0.40699">
        <ele>13.1</ele>
        <time>2020-09-10T11:35:48Z</time>
      </trkpt>
      <trkpt lat="44.8981" lon="-0.40698">
        <ele>13.2</ele>
        <time>2020-09-10T11:35:49Z</time>
      </trkpt>
      <trkpt lat="44.8981" lon="-0.40696">
        <ele>13.2</ele>
        <time>2020-09-10T11:35:50Z</time>
      </trkpt>
      <trkpt lat="44.89811" lon="-0.40694">
        <ele>13.3</ele>
        <time>2020-09-10T11:35:51Z</time>
      </trkpt>
      <trkpt lat="44.89811" lon="-0.40692">
        <ele>13.3</ele>
        <time>2020-09-10T11:35:52Z</time>
      </trkpt>
      <trkpt lat="44.89812" lon="-0.4069">
        <ele>13.4</ele>
        <time>2020-09-10T11:35:53Z</time>
      </trkpt>
      <trkpt lat="44.89812" lon="-0.40689">
        <ele>13.4</ele>
        <time>2020-09-10T11:35:54Z</time>
      </trkpt>
      <trkpt lat="44.89813" lon="-0.40687">
        <ele>13.5</ele>
        <time>2020-09-10T11:35:55Z</time>
      </trkpt>
      <trkpt lat="44.89814" lon="-0.40684">
        <ele>13.6</ele>
        <time>2020-09-10T11:35:57Z</time>
      </trkpt>
      <trkpt lat="44.89815" lon="-0.40682">
        <ele>13.6</ele>
        <time>2020-09-10T11:35:58Z</time>
      </trkpt>
      <trkpt lat="44.89815" lon="-0.40681">
        <ele>13.6</ele>
        <time>2020-09-10T11:35:59Z</time>
      </trkpt>
      <trkpt lat="44.89816" lon="-0.40679">
        <ele>13.7</ele>
        <time>2020-09-10T11:36:00Z</time>
      </trkpt>
      <trkpt lat="44.89818" lon="-0.40676">
        <ele>13.8</ele>
        <time>2020-09-10T11:36:01Z</time>
      </trkpt>
      <trkpt lat="44.89819" lon="-0.40675">
        <ele>13.8</ele>
        <time>2020-09-10T11:36:02Z</time>
      </trkpt>
      <trkpt lat="44.8982" lon="-0.40672">
        <ele>13.9</ele>
        <time>2020-09-10T11:36:03Z</time>
      </trkpt>
      <trkpt lat="44.89821" lon="-0.40672">
        <ele>13.9</ele>
        <time>2020-09-10T11:36:04Z</time>
      </trkpt>
      <trkpt lat="44.89821" lon="-0.40671">
        <ele>13.9</ele>
        <time>2020-09-10T11:36:05Z</time>
      </trkpt>
      <trkpt lat="44.89824" lon="-0.40667">
        <ele>14</ele>
        <time>2020-09-10T11:36:07Z</time>
      </trkpt>
      <trkpt lat="44.89825" lon="-0.40665">
        <ele>14.1</ele>
        <time>2020-09-10T11:36:08Z</time>
      </trkpt>
      <trkpt lat="44.89826" lon="-0.40664">
        <ele>14.1</ele>
        <time>2020-09-10T11:36:09Z</time>
      </trkpt>
      <trkpt lat="44.89829" lon="-0.40661">
        <ele>14.2</ele>
        <time>2020-09-10T11:36:11Z</time>
      </trkpt>
      <trkpt lat="44.8983" lon="-0.4066">
        <ele>14.2</ele>
        <time>2020-09-10T11:36:12Z</time>
      </trkpt>
      <trkpt lat="44.89831" lon="-0.40658">
        <ele>14.3</ele>
        <time>2020-09-10T11:36:14Z</time>
      </trkpt>
      <trkpt lat="44.89833" lon="-0.40657">
        <ele>14.3</ele>
        <time>2020-09-10T11:36:16Z</time>
      </trkpt>
      <trkpt lat="44.89835" lon="-0.40654">
        <ele>14.4</ele>
        <time>2020-09-10T11:36:17Z</time>
      </trkpt>
      <trkpt lat="44.89836" lon="-0.40653">
        <ele>14.4</ele>
        <time>2020-09-10T11:36:18Z</time>
      </trkpt>
      <trkpt lat="44.89837" lon="-0.40652">
        <ele>14.5</ele>
        <time>2020-09-10T11:36:20Z</time>
      </trkpt>
      <trkpt lat="44.89838" lon="-0.40651">
        <ele>14.5</ele>
        <time>2020-09-10T11:36:21Z</time>
      </trkpt>
      <trkpt lat="44.8984" lon="-0.40649">
        <ele>14.5</ele>
        <time>2020-09-10T11:36:22Z</time>
      </trkpt>
      <trkpt lat="44.89841" lon="-0.40648">
        <ele>14.5</ele>
        <time>2020-09-10T11:36:23Z</time>
      </trkpt>
      <trkpt lat="44.89842" lon="-0.40646">
        <ele>14.6</ele>
        <time>2020-09-10T11:36:24Z</time>
      </trkpt>
      <trkpt lat="44.89843" lon="-0.40645">
        <ele>14.6</ele>
        <time>2020-09-10T11:36:25Z</time>
      </trkpt>
      <trkpt lat="44.89844" lon="-0.40643">
        <ele>14.6</ele>
        <time>2020-09-10T11:36:26Z</time>
      </trkpt>
      <trkpt lat="44.89846" lon="-0.40642">
        <ele>14.6</ele>
        <time>2020-09-10T11:36:27Z</time>
      </trkpt>
      <trkpt lat="44.89847" lon="-0.40641">
        <ele>14.7</ele>
        <time>2020-09-10T11:36:29Z</time>
      </trkpt>
      <trkpt lat="44.89848" lon="-0.40639">
        <ele>14.7</ele>
        <time>2020-09-10T11:36:30Z</time>
      </trkpt>
      <trkpt lat="44.8985" lon="-0.40638">
        <ele>14.7</ele>
        <time>2020-09-10T11:36:31Z</time>
      </trkpt>
      <trkpt lat="44.89851" lon="-0.40636">
        <ele>14.7</ele>
        <time>2020-09-10T11:36:32Z</time>
      </trkpt>
      <trkpt lat="44.89852" lon="-0.40635">
        <ele>14.7</ele>
        <time>2020-09-10T11:36:34Z</time>
      </trkpt>
      <trkpt lat="44.89853" lon="-0.40634">
        <ele>14.7</ele>
        <time>2020-09-10T11:36:35Z</time>
      </trkpt>
      <trkpt lat="44.89854" lon="-0.40633">
        <ele>14.7</ele>
        <time>2020-09-10T11:36:36Z</time>
      </trkpt>
      <trkpt lat="44.89855" lon="-0.40631">
        <ele>14.7</ele>
        <time>2020-09-10T11:36:37Z</time>
      </trkpt>
      <trkpt lat="44.89856" lon="-0.4063">
        <ele>14.7</ele>
        <time>2020-09-10T11:36:38Z</time>
      </trkpt>
      <trkpt lat="44.89857" lon="-0.4063">
        <ele>14.7</ele>
        <time>2020-09-10T11:36:39Z</time>
      </trkpt>
      <trkpt lat="44.89858" lon="-0.40628">
        <ele>14.8</ele>
        <time>2020-09-10T11:36:40Z</time>
      </trkpt>
      <trkpt lat="44.8986" lon="-0.40626">
        <ele>14.8</ele>
        <time>2020-09-10T11:36:42Z</time>
      </trkpt>
      <trkpt lat="44.89861" lon="-0.40626">
        <ele>14.8</ele>
        <time>2020-09-10T11:36:43Z</time>
      </trkpt>
      <trkpt lat="44.89863" lon="-0.40623">
        <ele>14.8</ele>
        <time>2020-09-10T11:36:45Z</time>
      </trkpt>
      <trkpt lat="44.89864" lon="-0.40621">
        <ele>14.8</ele>
        <time>2020-09-10T11:36:46Z</time>
      </trkpt>
      <trkpt lat="44.89864" lon="-0.4062">
        <ele>14.8</ele>
        <time>2020-09-10T11:36:47Z</time>
      </trkpt>
      <trkpt lat="44.89865" lon="-0.40619">
        <ele>14.8</ele>
        <time>2020-09-10T11:36:49Z</time>
      </trkpt>
      <trkpt lat="44.89866" lon="-0.40618">
        <ele>14.8</ele>
        <time>2020-09-10T11:36:50Z</time>
      </trkpt>
      <trkpt lat="44.89867" lon="-0.40616">
        <ele>14.8</ele>
        <time>2020-09-10T11:36:51Z</time>
      </trkpt>
      <trkpt lat="44.89869" lon="-0.40614">
        <ele>14.8</ele>
        <time>2020-09-10T11:36:52Z</time>
      </trkpt>
      <trkpt lat="44.89869" lon="-0.40613">
        <ele>14.8</ele>
        <time>2020-09-10T11:36:53Z</time>
      </trkpt>
      <trkpt lat="44.89871" lon="-0.4061">
        <ele>14.7</ele>
        <time>2020-09-10T11:36:55Z</time>
      </trkpt>
      <trkpt lat="44.89872" lon="-0.40609">
        <ele>14.7</ele>
        <time>2020-09-10T11:36:56Z</time>
      </trkpt>
      <trkpt lat="44.89873" lon="-0.40606">
        <ele>14.7</ele>
        <time>2020-09-10T11:36:57Z</time>
      </trkpt>
      <trkpt lat="44.89873" lon="-0.40605">
        <ele>14.7</ele>
        <time>2020-09-10T11:36:59Z</time>
      </trkpt>
      <trkpt lat="44.89873" lon="-0.40603">
        <ele>14.7</ele>
        <time>2020-09-10T11:37:00Z</time>
      </trkpt>
      <trkpt lat="44.89875" lon="-0.40598">
        <ele>14.7</ele>
        <time>2020-09-10T11:37:02Z</time>
      </trkpt>
      <trkpt lat="44.89876" lon="-0.40597">
        <ele>14.7</ele>
        <time>2020-09-10T11:37:03Z</time>
      </trkpt>
      <trkpt lat="44.89876" lon="-0.40596">
        <ele>14.7</ele>
        <time>2020-09-10T11:37:04Z</time>
      </trkpt>
      <trkpt lat="44.89878" lon="-0.40594">
        <ele>14.7</ele>
        <time>2020-09-10T11:37:06Z</time>
      </trkpt>
      <trkpt lat="44.89879" lon="-0.40592">
        <ele>14.7</ele>
        <time>2020-09-10T11:37:07Z</time>
      </trkpt>
      <trkpt lat="44.8988" lon="-0.4059">
        <ele>14.7</ele>
        <time>2020-09-10T11:37:09Z</time>
      </trkpt>
      <trkpt lat="44.89881" lon="-0.40589">
        <ele>14.7</ele>
        <time>2020-09-10T11:37:10Z</time>
      </trkpt>
      <trkpt lat="44.89881" lon="-0.40588">
        <ele>14.7</ele>
        <time>2020-09-10T11:37:11Z</time>
      </trkpt>
      <trkpt lat="44.89882" lon="-0.40587">
        <ele>14.7</ele>
        <time>2020-09-10T11:37:13Z</time>
      </trkpt>
      <trkpt lat="44.89883" lon="-0.40586">
        <ele>14.7</ele>
        <time>2020-09-10T11:37:14Z</time>
      </trkpt>
      <trkpt lat="44.89884" lon="-0.40585">
        <ele>14.7</ele>
        <time>2020-09-10T11:37:15Z</time>
      </trkpt>
      <trkpt lat="44.89885" lon="-0.40584">
        <ele>14.7</ele>
        <time>2020-09-10T11:37:16Z</time>
      </trkpt>
      <trkpt lat="44.89885" lon="-0.40583">
        <ele>14.7</ele>
        <time>2020-09-10T11:37:17Z</time>
      </trkpt>
      <trkpt lat="44.89887" lon="-0.40581">
        <ele>14.7</ele>
        <time>2020-09-10T11:37:18Z</time>
      </trkpt>
      <trkpt lat="44.89887" lon="-0.4058">
        <ele>14.7</ele>
        <time>2020-09-10T11:37:19Z</time>
      </trkpt>
      <trkpt lat="44.89888" lon="-0.40579">
        <ele>14.7</ele>
        <time>2020-09-10T11:37:20Z</time>
      </trkpt>
      <trkpt lat="44.8989" lon="-0.40576">
        <ele>14.7</ele>
        <time>2020-09-10T11:37:22Z</time>
      </trkpt>
      <trkpt lat="44.8989" lon="-0.40576">
        <ele>14.7</ele>
        <time>2020-09-10T11:37:23Z</time>
      </trkpt>
      <trkpt lat="44.89891" lon="-0.40575">
        <ele>14.7</ele>
        <time>2020-09-10T11:37:24Z</time>
      </trkpt>
      <trkpt lat="44.89892" lon="-0.40573">
        <ele>14.7</ele>
        <time>2020-09-10T11:37:25Z</time>
      </trkpt>
      <trkpt lat="44.89894" lon="-0.40572">
        <ele>14.7</ele>
        <time>2020-09-10T11:37:27Z</time>
      </trkpt>
      <trkpt lat="44.89895" lon="-0.40571">
        <ele>14.7</ele>
        <time>2020-09-10T11:37:28Z</time>
      </trkpt>
      <trkpt lat="44.89896" lon="-0.40569">
        <ele>14.7</ele>
        <time>2020-09-10T11:37:29Z</time>
      </trkpt>
      <trkpt lat="44.89897" lon="-0.40568">
        <ele>14.7</ele>
        <time>2020-09-10T11:37:30Z</time>
      </trkpt>
      <trkpt lat="44.89898" lon="-0.40567">
        <ele>14.7</ele>
        <time>2020-09-10T11:37:31Z</time>
      </trkpt>
      <trkpt lat="44.89899" lon="-0.40565">
        <ele>14.7</ele>
        <time>2020-09-10T11:37:33Z</time>
      </trkpt>
      <trkpt lat="44.899" lon="-0.40563">
        <ele>14.7</ele>
        <time>2020-09-10T11:37:34Z</time>
      </trkpt>
      <trkpt lat="44.89901" lon="-0.40562">
        <ele>14.7</ele>
        <time>2020-09-10T11:37:35Z</time>
      </trkpt>
      <trkpt lat="44.89901" lon="-0.40561">
        <ele>14.7</ele>
        <time>2020-09-10T11:37:36Z</time>
      </trkpt>
      <trkpt lat="44.89902" lon="-0.4056">
        <ele>14.7</ele>
        <time>2020-09-10T11:37:38Z</time>
      </trkpt>
      <trkpt lat="44.89904" lon="-0.40558">
        <ele>14.7</ele>
        <time>2020-09-10T11:37:39Z</time>
      </trkpt>
      <trkpt lat="44.89904" lon="-0.40557">
        <ele>14.7</ele>
        <time>2020-09-10T11:37:40Z</time>
      </trkpt>
      <trkpt lat="44.89905" lon="-0.40554">
        <ele>14.7</ele>
        <time>2020-09-10T11:37:42Z</time>
      </trkpt>
      <trkpt lat="44.89906" lon="-0.40554">
        <ele>14.7</ele>
        <time>2020-09-10T11:37:44Z</time>
      </trkpt>
      <trkpt lat="44.89906" lon="-0.40553">
        <ele>14.7</ele>
        <time>2020-09-10T11:37:45Z</time>
      </trkpt>
      <trkpt lat="44.89907" lon="-0.40551">
        <ele>14.7</ele>
        <time>2020-09-10T11:37:46Z</time>
      </trkpt>
      <trkpt lat="44.89909" lon="-0.40548">
        <ele>14.7</ele>
        <time>2020-09-10T11:37:47Z</time>
      </trkpt>
      <trkpt lat="44.89909" lon="-0.40547">
        <ele>14.7</ele>
        <time>2020-09-10T11:37:49Z</time>
      </trkpt>
      <trkpt lat="44.8991" lon="-0.40546">
        <ele>14.8</ele>
        <time>2020-09-10T11:37:50Z</time>
      </trkpt>
      <trkpt lat="44.89911" lon="-0.40544">
        <ele>14.8</ele>
        <time>2020-09-10T11:37:51Z</time>
      </trkpt>
      <trkpt lat="44.89911" lon="-0.40543">
        <ele>14.8</ele>
        <time>2020-09-10T11:37:52Z</time>
      </trkpt>
      <trkpt lat="44.89912" lon="-0.40542">
        <ele>14.8</ele>
        <time>2020-09-10T11:37:53Z</time>
      </trkpt>
      <trkpt lat="44.89914" lon="-0.40539">
        <ele>14.8</ele>
        <time>2020-09-10T11:37:55Z</time>
      </trkpt>
      <trkpt lat="44.89914" lon="-0.40537">
        <ele>14.8</ele>
        <time>2020-09-10T11:37:56Z</time>
      </trkpt>
      <trkpt lat="44.89915" lon="-0.40534">
        <ele>14.9</ele>
        <time>2020-09-10T11:37:58Z</time>
      </trkpt>
      <trkpt lat="44.89916" lon="-0.40532">
        <ele>14.9</ele>
        <time>2020-09-10T11:37:59Z</time>
      </trkpt>
      <trkpt lat="44.89917" lon="-0.4053">
        <ele>15</ele>
        <time>2020-09-10T11:38:00Z</time>
      </trkpt>
      <trkpt lat="44.89919" lon="-0.40525">
        <ele>15</ele>
        <time>2020-09-10T11:38:02Z</time>
      </trkpt>
      <trkpt lat="44.8992" lon="-0.40524">
        <ele>15.1</ele>
        <time>2020-09-10T11:38:03Z</time>
      </trkpt>
      <trkpt lat="44.8992" lon="-0.40523">
        <ele>15.1</ele>
        <time>2020-09-10T11:38:05Z</time>
      </trkpt>
      <trkpt lat="44.89921" lon="-0.40522">
        <ele>15.1</ele>
        <time>2020-09-10T11:38:06Z</time>
      </trkpt>
      <trkpt lat="44.89923" lon="-0.40518">
        <ele>15.2</ele>
        <time>2020-09-10T11:38:08Z</time>
      </trkpt>
      <trkpt lat="44.89923" lon="-0.40517">
        <ele>15.3</ele>
        <time>2020-09-10T11:38:09Z</time>
      </trkpt>
      <trkpt lat="44.89925" lon="-0.40514">
        <ele>15.3</ele>
        <time>2020-09-10T11:38:11Z</time>
      </trkpt>
      <trkpt lat="44.89926" lon="-0.4051">
        <ele>15.5</ele>
        <time>2020-09-10T11:38:12Z</time>
      </trkpt>
      <trkpt lat="44.89927" lon="-0.40508">
        <ele>15.5</ele>
        <time>2020-09-10T11:38:14Z</time>
      </trkpt>
      <trkpt lat="44.89928" lon="-0.40507">
        <ele>15.6</ele>
        <time>2020-09-10T11:38:15Z</time>
      </trkpt>
      <trkpt lat="44.89929" lon="-0.40504">
        <ele>15.7</ele>
        <time>2020-09-10T11:38:17Z</time>
      </trkpt>
      <trkpt lat="44.89931" lon="-0.40502">
        <ele>15.8</ele>
        <time>2020-09-10T11:38:18Z</time>
      </trkpt>
      <trkpt lat="44.89932" lon="-0.40501">
        <ele>15.9</ele>
        <time>2020-09-10T11:38:20Z</time>
      </trkpt>
      <trkpt lat="44.89932" lon="-0.405">
        <ele>16</ele>
        <time>2020-09-10T11:38:21Z</time>
      </trkpt>
      <trkpt lat="44.89934" lon="-0.40498">
        <ele>16.1</ele>
        <time>2020-09-10T11:38:22Z</time>
      </trkpt>
      <trkpt lat="44.89935" lon="-0.40497">
        <ele>16.2</ele>
        <time>2020-09-10T11:38:23Z</time>
      </trkpt>
      <trkpt lat="44.89936" lon="-0.40495">
        <ele>16.3</ele>
        <time>2020-09-10T11:38:25Z</time>
      </trkpt>
      <trkpt lat="44.89937" lon="-0.40494">
        <ele>16.4</ele>
        <time>2020-09-10T11:38:26Z</time>
      </trkpt>
      <trkpt lat="44.89939" lon="-0.40492">
        <ele>16.5</ele>
        <time>2020-09-10T11:38:27Z</time>
      </trkpt>
      <trkpt lat="44.8994" lon="-0.40491">
        <ele>16.6</ele>
        <time>2020-09-10T11:38:28Z</time>
      </trkpt>
      <trkpt lat="44.89942" lon="-0.4049">
        <ele>16.7</ele>
        <time>2020-09-10T11:38:29Z</time>
      </trkpt>
      <trkpt lat="44.89943" lon="-0.40489">
        <ele>16.8</ele>
        <time>2020-09-10T11:38:30Z</time>
      </trkpt>
      <trkpt lat="44.89945" lon="-0.40488">
        <ele>16.9</ele>
        <time>2020-09-10T11:38:31Z</time>
      </trkpt>
      <trkpt lat="44.89946" lon="-0.40487">
        <ele>17</ele>
        <time>2020-09-10T11:38:32Z</time>
      </trkpt>
      <trkpt lat="44.89947" lon="-0.40487">
        <ele>17.1</ele>
        <time>2020-09-10T11:38:33Z</time>
      </trkpt>
      <trkpt lat="44.89948" lon="-0.40487">
        <ele>17.1</ele>
        <time>2020-09-10T11:38:34Z</time>
      </trkpt>
      <trkpt lat="44.8995" lon="-0.40486">
        <ele>17.2</ele>
        <time>2020-09-10T11:38:36Z</time>
      </trkpt>
      <trkpt lat="44.8995" lon="-0.40485">
        <ele>17.3</ele>
        <time>2020-09-10T11:38:37Z</time>
      </trkpt>
      <trkpt lat="44.89951" lon="-0.40485">
        <ele>17.4</ele>
        <time>2020-09-10T11:38:38Z</time>
      </trkpt>
      <trkpt lat="44.89952" lon="-0.40484">
        <ele>17.4</ele>
        <time>2020-09-10T11:38:39Z</time>
      </trkpt>
      <trkpt lat="44.89953" lon="-0.40483">
        <ele>17.5</ele>
        <time>2020-09-10T11:38:40Z</time>
      </trkpt>
      <trkpt lat="44.89954" lon="-0.40482">
        <ele>17.6</ele>
        <time>2020-09-10T11:38:42Z</time>
      </trkpt>
      <trkpt lat="44.89955" lon="-0.40481">
        <ele>17.7</ele>
        <time>2020-09-10T11:38:43Z</time>
      </trkpt>
      <trkpt lat="44.89956" lon="-0.4048">
        <ele>17.8</ele>
        <time>2020-09-10T11:38:44Z</time>
      </trkpt>
      <trkpt lat="44.89958" lon="-0.40479">
        <ele>17.8</ele>
        <time>2020-09-10T11:38:46Z</time>
      </trkpt>
      <trkpt lat="44.8996" lon="-0.40476">
        <ele>18.1</ele>
        <time>2020-09-10T11:38:47Z</time>
      </trkpt>
      <trkpt lat="44.89962" lon="-0.40475">
        <ele>18.2</ele>
        <time>2020-09-10T11:38:48Z</time>
      </trkpt>
      <trkpt lat="44.89962" lon="-0.40474">
        <ele>18.2</ele>
        <time>2020-09-10T11:38:49Z</time>
      </trkpt>
      <trkpt lat="44.89963" lon="-0.40473">
        <ele>18.3</ele>
        <time>2020-09-10T11:38:50Z</time>
      </trkpt>
      <trkpt lat="44.89964" lon="-0.40473">
        <ele>18.4</ele>
        <time>2020-09-10T11:38:51Z</time>
      </trkpt>
      <trkpt lat="44.89966" lon="-0.40472">
        <ele>18.5</ele>
        <time>2020-09-10T11:38:52Z</time>
      </trkpt>
      <trkpt lat="44.89967" lon="-0.40471">
        <ele>18.6</ele>
        <time>2020-09-10T11:38:53Z</time>
      </trkpt>
      <trkpt lat="44.8997" lon="-0.4047">
        <ele>18.8</ele>
        <time>2020-09-10T11:38:54Z</time>
      </trkpt>
      <trkpt lat="44.89971" lon="-0.40469">
        <ele>18.9</ele>
        <time>2020-09-10T11:38:56Z</time>
      </trkpt>
      <trkpt lat="44.89972" lon="-0.40469">
        <ele>19</ele>
        <time>2020-09-10T11:38:57Z</time>
      </trkpt>
      <trkpt lat="44.89973" lon="-0.40468">
        <ele>19.1</ele>
        <time>2020-09-10T11:38:58Z</time>
      </trkpt>
      <trkpt lat="44.89974" lon="-0.40468">
        <ele>19.2</ele>
        <time>2020-09-10T11:38:59Z</time>
      </trkpt>
      <trkpt lat="44.89975" lon="-0.40467">
        <ele>19.3</ele>
        <time>2020-09-10T11:39:00Z</time>
      </trkpt>
      <trkpt lat="44.89976" lon="-0.40467">
        <ele>19.3</ele>
        <time>2020-09-10T11:39:01Z</time>
      </trkpt>
      <trkpt lat="44.89978" lon="-0.40466">
        <ele>19.4</ele>
        <time>2020-09-10T11:39:03Z</time>
      </trkpt>
      <trkpt lat="44.8998" lon="-0.40465">
        <ele>19.6</ele>
        <time>2020-09-10T11:39:04Z</time>
      </trkpt>
      <trkpt lat="44.8998" lon="-0.40465">
        <ele>19.7</ele>
        <time>2020-09-10T11:39:05Z</time>
      </trkpt>
      <trkpt lat="44.89981" lon="-0.40464">
        <ele>19.7</ele>
        <time>2020-09-10T11:39:06Z</time>
      </trkpt>
      <trkpt lat="44.89982" lon="-0.40464">
        <ele>19.8</ele>
        <time>2020-09-10T11:39:07Z</time>
      </trkpt>
      <trkpt lat="44.89983" lon="-0.40464">
        <ele>19.9</ele>
        <time>2020-09-10T11:39:08Z</time>
      </trkpt>
      <trkpt lat="44.89984" lon="-0.40463">
        <ele>20</ele>
        <time>2020-09-10T11:39:09Z</time>
      </trkpt>
      <trkpt lat="44.89985" lon="-0.40462">
        <ele>20.1</ele>
        <time>2020-09-10T11:39:11Z</time>
      </trkpt>
      <trkpt lat="44.89987" lon="-0.40461">
        <ele>20.2</ele>
        <time>2020-09-10T11:39:12Z</time>
      </trkpt>
      <trkpt lat="44.89988" lon="-0.4046">
        <ele>20.3</ele>
        <time>2020-09-10T11:39:13Z</time>
      </trkpt>
      <trkpt lat="44.89989" lon="-0.40459">
        <ele>20.4</ele>
        <time>2020-09-10T11:39:14Z</time>
      </trkpt>
      <trkpt lat="44.89992" lon="-0.40457">
        <ele>20.7</ele>
        <time>2020-09-10T11:39:16Z</time>
      </trkpt>
      <trkpt lat="44.89993" lon="-0.40457">
        <ele>20.7</ele>
        <time>2020-09-10T11:39:17Z</time>
      </trkpt>
      <trkpt lat="44.89994" lon="-0.40456">
        <ele>20.8</ele>
        <time>2020-09-10T11:39:18Z</time>
      </trkpt>
      <trkpt lat="44.89996" lon="-0.40454">
        <ele>21</ele>
        <time>2020-09-10T11:39:20Z</time>
      </trkpt>
      <trkpt lat="44.89997" lon="-0.40453">
        <ele>21.1</ele>
        <time>2020-09-10T11:39:22Z</time>
      </trkpt>
      <trkpt lat="44.89999" lon="-0.40452">
        <ele>21.2</ele>
        <time>2020-09-10T11:39:23Z</time>
      </trkpt>
      <trkpt lat="44.90001" lon="-0.40451">
        <ele>21.4</ele>
        <time>2020-09-10T11:39:25Z</time>
      </trkpt>
      <trkpt lat="44.90002" lon="-0.40449">
        <ele>21.5</ele>
        <time>2020-09-10T11:39:27Z</time>
      </trkpt>
      <trkpt lat="44.90003" lon="-0.40449">
        <ele>21.5</ele>
        <time>2020-09-10T11:39:28Z</time>
      </trkpt>
      <trkpt lat="44.90005" lon="-0.40446">
        <ele>21.7</ele>
        <time>2020-09-10T11:39:30Z</time>
      </trkpt>
      <trkpt lat="44.90006" lon="-0.40445">
        <ele>21.8</ele>
        <time>2020-09-10T11:39:31Z</time>
      </trkpt>
      <trkpt lat="44.90007" lon="-0.40443">
        <ele>21.9</ele>
        <time>2020-09-10T11:39:32Z</time>
      </trkpt>
      <trkpt lat="44.90008" lon="-0.40441">
        <ele>22</ele>
        <time>2020-09-10T11:39:33Z</time>
      </trkpt>
      <trkpt lat="44.90009" lon="-0.40439">
        <ele>22.1</ele>
        <time>2020-09-10T11:39:35Z</time>
      </trkpt>
      <trkpt lat="44.90009" lon="-0.40438">
        <ele>22.1</ele>
        <time>2020-09-10T11:39:37Z</time>
      </trkpt>
      <trkpt lat="44.9001" lon="-0.40436">
        <ele>22.2</ele>
        <time>2020-09-10T11:39:38Z</time>
      </trkpt>
      <trkpt lat="44.90011" lon="-0.40435">
        <ele>22.3</ele>
        <time>2020-09-10T11:39:39Z</time>
      </trkpt>
      <trkpt lat="44.90011" lon="-0.40434">
        <ele>22.3</ele>
        <time>2020-09-10T11:39:40Z</time>
      </trkpt>
      <trkpt lat="44.90012" lon="-0.40433">
        <ele>22.4</ele>
        <time>2020-09-10T11:39:41Z</time>
      </trkpt>
      <trkpt lat="44.90012" lon="-0.40432">
        <ele>22.4</ele>
        <time>2020-09-10T11:39:43Z</time>
      </trkpt>
      <trkpt lat="44.90013" lon="-0.40429">
        <ele>22.5</ele>
        <time>2020-09-10T11:39:45Z</time>
      </trkpt>
      <trkpt lat="44.90014" lon="-0.40429">
        <ele>22.6</ele>
        <time>2020-09-10T11:39:47Z</time>
      </trkpt>
      <trkpt lat="44.90014" lon="-0.40428">
        <ele>22.6</ele>
        <time>2020-09-10T11:39:48Z</time>
      </trkpt>
      <trkpt lat="44.90015" lon="-0.40426">
        <ele>22.7</ele>
        <time>2020-09-10T11:39:49Z</time>
      </trkpt>
      <trkpt lat="44.90015" lon="-0.40426">
        <ele>22.7</ele>
        <time>2020-09-10T11:39:50Z</time>
      </trkpt>
      <trkpt lat="44.90015" lon="-0.40424">
        <ele>22.8</ele>
        <time>2020-09-10T11:39:51Z</time>
      </trkpt>
      <trkpt lat="44.90016" lon="-0.40423">
        <ele>22.8</ele>
        <time>2020-09-10T11:39:52Z</time>
      </trkpt>
      <trkpt lat="44.90016" lon="-0.40423">
        <ele>22.9</ele>
        <time>2020-09-10T11:39:53Z</time>
      </trkpt>
      <trkpt lat="44.90017" lon="-0.40421">
        <ele>22.9</ele>
        <time>2020-09-10T11:39:55Z</time>
      </trkpt>
      <trkpt lat="44.90017" lon="-0.4042">
        <ele>23</ele>
        <time>2020-09-10T11:39:56Z</time>
      </trkpt>
      <trkpt lat="44.90019" lon="-0.40418">
        <ele>23.1</ele>
        <time>2020-09-10T11:39:57Z</time>
      </trkpt>
      <trkpt lat="44.9002" lon="-0.40416">
        <ele>23.2</ele>
        <time>2020-09-10T11:39:58Z</time>
      </trkpt>
      <trkpt lat="44.90021" lon="-0.40415">
        <ele>23.3</ele>
        <time>2020-09-10T11:39:59Z</time>
      </trkpt>
      <trkpt lat="44.90022" lon="-0.40413">
        <ele>23.4</ele>
        <time>2020-09-10T11:40:00Z</time>
      </trkpt>
      <trkpt lat="44.90022" lon="-0.40412">
        <ele>23.4</ele>
        <time>2020-09-10T11:40:01Z</time>
      </trkpt>
      <trkpt lat="44.90023" lon="-0.40411">
        <ele>23.5</ele>
        <time>2020-09-10T11:40:02Z</time>
      </trkpt>
      <trkpt lat="44.90024" lon="-0.4041">
        <ele>23.5</ele>
        <time>2020-09-10T11:40:03Z</time>
      </trkpt>
      <trkpt lat="44.90026" lon="-0.40407">
        <ele>23.7</ele>
        <time>2020-09-10T11:40:05Z</time>
      </trkpt>
      <trkpt lat="44.90026" lon="-0.40407">
        <ele>23.7</ele>
        <time>2020-09-10T11:40:06Z</time>
      </trkpt>
      <trkpt lat="44.90027" lon="-0.40406">
        <ele>23.8</ele>
        <time>2020-09-10T11:40:08Z</time>
      </trkpt>
      <trkpt lat="44.90029" lon="-0.40404">
        <ele>23.9</ele>
        <time>2020-09-10T11:40:09Z</time>
      </trkpt>
      <trkpt lat="44.9003" lon="-0.40403">
        <ele>24</ele>
        <time>2020-09-10T11:40:11Z</time>
      </trkpt>
      <trkpt lat="44.90031" lon="-0.40402">
        <ele>24.1</ele>
        <time>2020-09-10T11:40:12Z</time>
      </trkpt>
      <trkpt lat="44.90032" lon="-0.40401">
        <ele>24.2</ele>
        <time>2020-09-10T11:40:13Z</time>
      </trkpt>
      <trkpt lat="44.90034" lon="-0.40399">
        <ele>24.3</ele>
        <time>2020-09-10T11:40:14Z</time>
      </trkpt>
      <trkpt lat="44.90035" lon="-0.40398">
        <ele>24.4</ele>
        <time>2020-09-10T11:40:16Z</time>
      </trkpt>
      <trkpt lat="44.90036" lon="-0.40397">
        <ele>24.4</ele>
        <time>2020-09-10T11:40:17Z</time>
      </trkpt>
      <trkpt lat="44.90037" lon="-0.40396">
        <ele>24.5</ele>
        <time>2020-09-10T11:40:18Z</time>
      </trkpt>
      <trkpt lat="44.90039" lon="-0.40394">
        <ele>24.6</ele>
        <time>2020-09-10T11:40:19Z</time>
      </trkpt>
      <trkpt lat="44.9004" lon="-0.40394">
        <ele>24.7</ele>
        <time>2020-09-10T11:40:20Z</time>
      </trkpt>
      <trkpt lat="44.90042" lon="-0.40392">
        <ele>24.8</ele>
        <time>2020-09-10T11:40:21Z</time>
      </trkpt>
      <trkpt lat="44.90043" lon="-0.40391">
        <ele>24.8</ele>
        <time>2020-09-10T11:40:23Z</time>
      </trkpt>
      <trkpt lat="44.90045" lon="-0.4039">
        <ele>24.9</ele>
        <time>2020-09-10T11:40:24Z</time>
      </trkpt>
      <trkpt lat="44.90046" lon="-0.4039">
        <ele>25</ele>
        <time>2020-09-10T11:40:25Z</time>
      </trkpt>
      <trkpt lat="44.90047" lon="-0.40389">
        <ele>25</ele>
        <time>2020-09-10T11:40:27Z</time>
      </trkpt>
      <trkpt lat="44.90048" lon="-0.40388">
        <ele>25.1</ele>
        <time>2020-09-10T11:40:28Z</time>
      </trkpt>
      <trkpt lat="44.9005" lon="-0.40386">
        <ele>25.2</ele>
        <time>2020-09-10T11:40:29Z</time>
      </trkpt>
      <trkpt lat="44.90051" lon="-0.40385">
        <ele>25.2</ele>
        <time>2020-09-10T11:40:31Z</time>
      </trkpt>
      <trkpt lat="44.90051" lon="-0.40384">
        <ele>25.3</ele>
        <time>2020-09-10T11:40:32Z</time>
      </trkpt>
      <trkpt lat="44.90052" lon="-0.40383">
        <ele>25.3</ele>
        <time>2020-09-10T11:40:33Z</time>
      </trkpt>
      <trkpt lat="44.90053" lon="-0.40382">
        <ele>25.3</ele>
        <time>2020-09-10T11:40:34Z</time>
      </trkpt>
      <trkpt lat="44.90054" lon="-0.40381">
        <ele>25.4</ele>
        <time>2020-09-10T11:40:36Z</time>
      </trkpt>
      <trkpt lat="44.90054" lon="-0.4038">
        <ele>25.4</ele>
        <time>2020-09-10T11:40:37Z</time>
      </trkpt>
      <trkpt lat="44.90055" lon="-0.40379">
        <ele>25.4</ele>
        <time>2020-09-10T11:40:39Z</time>
      </trkpt>
      <trkpt lat="44.90056" lon="-0.40378">
        <ele>25.4</ele>
        <time>2020-09-10T11:40:40Z</time>
      </trkpt>
      <trkpt lat="44.90057" lon="-0.40377">
        <ele>25.4</ele>
        <time>2020-09-10T11:40:41Z</time>
      </trkpt>
      <trkpt lat="44.90057" lon="-0.40376">
        <ele>25.4</ele>
        <time>2020-09-10T11:40:43Z</time>
      </trkpt>
      <trkpt lat="44.90058" lon="-0.40375">
        <ele>25.4</ele>
        <time>2020-09-10T11:40:44Z</time>
      </trkpt>
      <trkpt lat="44.90059" lon="-0.40374">
        <ele>25.4</ele>
        <time>2020-09-10T11:40:45Z</time>
      </trkpt>
      <trkpt lat="44.90059" lon="-0.40373">
        <ele>25.4</ele>
        <time>2020-09-10T11:40:46Z</time>
      </trkpt>
      <trkpt lat="44.9006" lon="-0.40372">
        <ele>25.4</ele>
        <time>2020-09-10T11:40:47Z</time>
      </trkpt>
      <trkpt lat="44.90061" lon="-0.40371">
        <ele>25.4</ele>
        <time>2020-09-10T11:40:48Z</time>
      </trkpt>
      <trkpt lat="44.90062" lon="-0.40369">
        <ele>25.4</ele>
        <time>2020-09-10T11:40:50Z</time>
      </trkpt>
      <trkpt lat="44.90062" lon="-0.40368">
        <ele>25.4</ele>
        <time>2020-09-10T11:40:51Z</time>
      </trkpt>
      <trkpt lat="44.90063" lon="-0.40366">
        <ele>25.4</ele>
        <time>2020-09-10T11:40:52Z</time>
      </trkpt>
      <trkpt lat="44.90064" lon="-0.40365">
        <ele>25.4</ele>
        <time>2020-09-10T11:40:54Z</time>
      </trkpt>
      <trkpt lat="44.90065" lon="-0.40363">
        <ele>25.4</ele>
        <time>2020-09-10T11:40:55Z</time>
      </trkpt>
      <trkpt lat="44.90065" lon="-0.40361">
        <ele>25.4</ele>
        <time>2020-09-10T11:40:56Z</time>
      </trkpt>
      <trkpt lat="44.90066" lon="-0.40358">
        <ele>25.4</ele>
        <time>2020-09-10T11:40:57Z</time>
      </trkpt>
      <trkpt lat="44.90066" lon="-0.40357">
        <ele>25.4</ele>
        <time>2020-09-10T11:40:58Z</time>
      </trkpt>
      <trkpt lat="44.90067" lon="-0.40356">
        <ele>25.5</ele>
        <time>2020-09-10T11:40:59Z</time>
      </trkpt>
      <trkpt lat="44.90068" lon="-0.40353">
        <ele>25.5</ele>
        <time>2020-09-10T11:41:00Z</time>
      </trkpt>
      <trkpt lat="44.90069" lon="-0.40352">
        <ele>25.5</ele>
        <time>2020-09-10T11:41:01Z</time>
      </trkpt>
      <trkpt lat="44.90069" lon="-0.40351">
        <ele>25.5</ele>
        <time>2020-09-10T11:41:02Z</time>
      </trkpt>
      <trkpt lat="44.9007" lon="-0.4035">
        <ele>25.5</ele>
        <time>2020-09-10T11:41:03Z</time>
      </trkpt>
      <trkpt lat="44.90071" lon="-0.40348">
        <ele>25.5</ele>
        <time>2020-09-10T11:41:04Z</time>
      </trkpt>
      <trkpt lat="44.90071" lon="-0.40347">
        <ele>25.5</ele>
        <time>2020-09-10T11:41:06Z</time>
      </trkpt>
      <trkpt lat="44.90072" lon="-0.40346">
        <ele>25.5</ele>
        <time>2020-09-10T11:41:07Z</time>
      </trkpt>
      <trkpt lat="44.90073" lon="-0.40345">
        <ele>25.5</ele>
        <time>2020-09-10T11:41:08Z</time>
      </trkpt>
      <trkpt lat="44.90075" lon="-0.40342">
        <ele>25.6</ele>
        <time>2020-09-10T11:41:09Z</time>
      </trkpt>
      <trkpt lat="44.90076" lon="-0.40341">
        <ele>25.6</ele>
        <time>2020-09-10T11:41:10Z</time>
      </trkpt>
      <trkpt lat="44.90077" lon="-0.4034">
        <ele>25.6</ele>
        <time>2020-09-10T11:41:11Z</time>
      </trkpt>
      <trkpt lat="44.90078" lon="-0.40339">
        <ele>25.6</ele>
        <time>2020-09-10T11:41:12Z</time>
      </trkpt>
      <trkpt lat="44.90079" lon="-0.40338">
        <ele>25.6</ele>
        <time>2020-09-10T11:41:13Z</time>
      </trkpt>
      <trkpt lat="44.90081" lon="-0.40336">
        <ele>25.7</ele>
        <time>2020-09-10T11:41:14Z</time>
      </trkpt>
      <trkpt lat="44.90082" lon="-0.40335">
        <ele>25.7</ele>
        <time>2020-09-10T11:41:15Z</time>
      </trkpt>
      <trkpt lat="44.90083" lon="-0.40334">
        <ele>25.7</ele>
        <time>2020-09-10T11:41:16Z</time>
      </trkpt>
      <trkpt lat="44.90084" lon="-0.40333">
        <ele>25.7</ele>
        <time>2020-09-10T11:41:18Z</time>
      </trkpt>
      <trkpt lat="44.90085" lon="-0.40333">
        <ele>25.7</ele>
        <time>2020-09-10T11:41:19Z</time>
      </trkpt>
      <trkpt lat="44.90087" lon="-0.40331">
        <ele>25.8</ele>
        <time>2020-09-10T11:41:20Z</time>
      </trkpt>
      <trkpt lat="44.90088" lon="-0.40331">
        <ele>25.8</ele>
        <time>2020-09-10T11:41:21Z</time>
      </trkpt>
      <trkpt lat="44.90089" lon="-0.4033">
        <ele>25.8</ele>
        <time>2020-09-10T11:41:22Z</time>
      </trkpt>
      <trkpt lat="44.9009" lon="-0.4033">
        <ele>25.8</ele>
        <time>2020-09-10T11:41:23Z</time>
      </trkpt>
      <trkpt lat="44.90092" lon="-0.40329">
        <ele>25.9</ele>
        <time>2020-09-10T11:41:24Z</time>
      </trkpt>
      <trkpt lat="44.90094" lon="-0.40329">
        <ele>25.9</ele>
        <time>2020-09-10T11:41:26Z</time>
      </trkpt>
      <trkpt lat="44.90095" lon="-0.40328">
        <ele>25.9</ele>
        <time>2020-09-10T11:41:28Z</time>
      </trkpt>
      <trkpt lat="44.90097" lon="-0.40327">
        <ele>26</ele>
        <time>2020-09-10T11:41:30Z</time>
      </trkpt>
      <trkpt lat="44.90099" lon="-0.40327">
        <ele>26</ele>
        <time>2020-09-10T11:41:31Z</time>
      </trkpt>
      <trkpt lat="44.901" lon="-0.40326">
        <ele>26</ele>
        <time>2020-09-10T11:41:32Z</time>
      </trkpt>
      <trkpt lat="44.90101" lon="-0.40326">
        <ele>26</ele>
        <time>2020-09-10T11:41:33Z</time>
      </trkpt>
      <trkpt lat="44.90103" lon="-0.40325">
        <ele>26.1</ele>
        <time>2020-09-10T11:41:34Z</time>
      </trkpt>
      <trkpt lat="44.90104" lon="-0.40324">
        <ele>26.1</ele>
        <time>2020-09-10T11:41:35Z</time>
      </trkpt>
      <trkpt lat="44.90106" lon="-0.40324">
        <ele>26.1</ele>
        <time>2020-09-10T11:41:37Z</time>
      </trkpt>
      <trkpt lat="44.90107" lon="-0.40323">
        <ele>26.2</ele>
        <time>2020-09-10T11:41:38Z</time>
      </trkpt>
      <trkpt lat="44.9011" lon="-0.40322">
        <ele>26.2</ele>
        <time>2020-09-10T11:41:40Z</time>
      </trkpt>
      <trkpt lat="44.90111" lon="-0.40322">
        <ele>26.2</ele>
        <time>2020-09-10T11:41:41Z</time>
      </trkpt>
      <trkpt lat="44.90113" lon="-0.40321">
        <ele>26.3</ele>
        <time>2020-09-10T11:41:42Z</time>
      </trkpt>
      <trkpt lat="44.90114" lon="-0.40321">
        <ele>26.3</ele>
        <time>2020-09-10T11:41:43Z</time>
      </trkpt>
      <trkpt lat="44.90115" lon="-0.4032">
        <ele>26.3</ele>
        <time>2020-09-10T11:41:44Z</time>
      </trkpt>
      <trkpt lat="44.90117" lon="-0.40319">
        <ele>26.4</ele>
        <time>2020-09-10T11:41:45Z</time>
      </trkpt>
      <trkpt lat="44.90117" lon="-0.40319">
        <ele>26.4</ele>
        <time>2020-09-10T11:41:46Z</time>
      </trkpt>
      <trkpt lat="44.90119" lon="-0.40319">
        <ele>26.4</ele>
        <time>2020-09-10T11:41:47Z</time>
      </trkpt>
      <trkpt lat="44.9012" lon="-0.40319">
        <ele>26.4</ele>
        <time>2020-09-10T11:41:49Z</time>
      </trkpt>
      <trkpt lat="44.90121" lon="-0.40319">
        <ele>26.4</ele>
        <time>2020-09-10T11:41:50Z</time>
      </trkpt>
      <trkpt lat="44.90124" lon="-0.40318">
        <ele>26.4</ele>
        <time>2020-09-10T11:41:52Z</time>
      </trkpt>
      <trkpt lat="44.90125" lon="-0.40318">
        <ele>26.5</ele>
        <time>2020-09-10T11:41:53Z</time>
      </trkpt>
      <trkpt lat="44.90127" lon="-0.40318">
        <ele>26.5</ele>
        <time>2020-09-10T11:41:54Z</time>
      </trkpt>
      <trkpt lat="44.90128" lon="-0.40318">
        <ele>26.5</ele>
        <time>2020-09-10T11:41:55Z</time>
      </trkpt>
      <trkpt lat="44.90129" lon="-0.40318">
        <ele>26.5</ele>
        <time>2020-09-10T11:41:56Z</time>
      </trkpt>
      <trkpt lat="44.90131" lon="-0.40318">
        <ele>26.6</ele>
        <time>2020-09-10T11:41:57Z</time>
      </trkpt>
      <trkpt lat="44.90133" lon="-0.40318">
        <ele>26.6</ele>
        <time>2020-09-10T11:41:58Z</time>
      </trkpt>
      <trkpt lat="44.90134" lon="-0.40318">
        <ele>26.6</ele>
        <time>2020-09-10T11:41:59Z</time>
      </trkpt>
      <trkpt lat="44.90136" lon="-0.40317">
        <ele>26.7</ele>
        <time>2020-09-10T11:42:00Z</time>
      </trkpt>
      <trkpt lat="44.90138" lon="-0.40316">
        <ele>26.7</ele>
        <time>2020-09-10T11:42:02Z</time>
      </trkpt>
      <trkpt lat="44.90138" lon="-0.40315">
        <ele>26.8</ele>
        <time>2020-09-10T11:42:03Z</time>
      </trkpt>
      <trkpt lat="44.90139" lon="-0.40314">
        <ele>26.8</ele>
        <time>2020-09-10T11:42:05Z</time>
      </trkpt>
      <trkpt lat="44.9014" lon="-0.40313">
        <ele>26.8</ele>
        <time>2020-09-10T11:42:06Z</time>
      </trkpt>
      <trkpt lat="44.90141" lon="-0.40313">
        <ele>26.8</ele>
        <time>2020-09-10T11:42:07Z</time>
      </trkpt>
      <trkpt lat="44.90142" lon="-0.40312">
        <ele>26.9</ele>
        <time>2020-09-10T11:42:08Z</time>
      </trkpt>
      <trkpt lat="44.90143" lon="-0.40312">
        <ele>26.9</ele>
        <time>2020-09-10T11:42:09Z</time>
      </trkpt>
      <trkpt lat="44.90145" lon="-0.40311">
        <ele>27</ele>
        <time>2020-09-10T11:42:11Z</time>
      </trkpt>
      <trkpt lat="44.90146" lon="-0.40311">
        <ele>27</ele>
        <time>2020-09-10T11:42:12Z</time>
      </trkpt>
      <trkpt lat="44.90147" lon="-0.4031">
        <ele>27</ele>
        <time>2020-09-10T11:42:13Z</time>
      </trkpt>
      <trkpt lat="44.90149" lon="-0.4031">
        <ele>27.1</ele>
        <time>2020-09-10T11:42:15Z</time>
      </trkpt>
      <trkpt lat="44.90151" lon="-0.40309">
        <ele>27.1</ele>
        <time>2020-09-10T11:42:17Z</time>
      </trkpt>
      <trkpt lat="44.90152" lon="-0.40309">
        <ele>27.2</ele>
        <time>2020-09-10T11:42:18Z</time>
      </trkpt>
      <trkpt lat="44.90154" lon="-0.40309">
        <ele>27.2</ele>
        <time>2020-09-10T11:42:19Z</time>
      </trkpt>
      <trkpt lat="44.90155" lon="-0.40309">
        <ele>27.3</ele>
        <time>2020-09-10T11:42:20Z</time>
      </trkpt>
      <trkpt lat="44.90156" lon="-0.40309">
        <ele>27.3</ele>
        <time>2020-09-10T11:42:21Z</time>
      </trkpt>
      <trkpt lat="44.90158" lon="-0.40309">
        <ele>27.3</ele>
        <time>2020-09-10T11:42:23Z</time>
      </trkpt>
      <trkpt lat="44.90159" lon="-0.40309">
        <ele>27.4</ele>
        <time>2020-09-10T11:42:24Z</time>
      </trkpt>
      <trkpt lat="44.9016" lon="-0.40309">
        <ele>27.4</ele>
        <time>2020-09-10T11:42:25Z</time>
      </trkpt>
      <trkpt lat="44.9016" lon="-0.4031">
        <ele>27.4</ele>
        <time>2020-09-10T11:42:26Z</time>
      </trkpt>
      <trkpt lat="44.9016" lon="-0.4031">
        <ele>27.4</ele>
        <time>2020-09-10T11:42:28Z</time>
      </trkpt>
      <trkpt lat="44.9016" lon="-0.40309">
        <ele>27.4</ele>
        <time>2020-09-10T11:42:30Z</time>
      </trkpt>
      <trkpt lat="44.9016" lon="-0.40308">
        <ele>27.5</ele>
        <time>2020-09-10T11:42:32Z</time>
      </trkpt>
      <trkpt lat="44.9016" lon="-0.40307">
        <ele>27.5</ele>
        <time>2020-09-10T11:42:33Z</time>
      </trkpt>
      <trkpt lat="44.90161" lon="-0.40306">
        <ele>27.5</ele>
        <time>2020-09-10T11:42:34Z</time>
      </trkpt>
      <trkpt lat="44.90161" lon="-0.40306">
        <ele>27.5</ele>
        <time>2020-09-10T11:42:35Z</time>
      </trkpt>
      <trkpt lat="44.90161" lon="-0.40307">
        <ele>27.5</ele>
        <time>2020-09-10T11:42:36Z</time>
      </trkpt>
      <trkpt lat="44.90161" lon="-0.40308">
        <ele>27.6</ele>
        <time>2020-09-10T11:42:37Z</time>
      </trkpt>
      <trkpt lat="44.90161" lon="-0.40309">
        <ele>27.6</ele>
        <time>2020-09-10T11:42:38Z</time>
      </trkpt>
      <trkpt lat="44.90161" lon="-0.40309">
        <ele>27.6</ele>
        <time>2020-09-10T11:42:40Z</time>
      </trkpt>
      <trkpt lat="44.90161" lon="-0.40308">
        <ele>27.6</ele>
        <time>2020-09-10T11:42:41Z</time>
      </trkpt>
      <trkpt lat="44.90162" lon="-0.40308">
        <ele>27.6</ele>
        <time>2020-09-10T11:42:42Z</time>
      </trkpt>
      <trkpt lat="44.90162" lon="-0.40307">
        <ele>27.6</ele>
        <time>2020-09-10T11:42:43Z</time>
      </trkpt>
      <trkpt lat="44.90163" lon="-0.40306">
        <ele>27.7</ele>
        <time>2020-09-10T11:42:44Z</time>
      </trkpt>
      <trkpt lat="44.90165" lon="-0.40305">
        <ele>27.7</ele>
        <time>2020-09-10T11:42:46Z</time>
      </trkpt>
      <trkpt lat="44.90167" lon="-0.40305">
        <ele>27.8</ele>
        <time>2020-09-10T11:42:47Z</time>
      </trkpt>
      <trkpt lat="44.90168" lon="-0.40304">
        <ele>27.8</ele>
        <time>2020-09-10T11:42:48Z</time>
      </trkpt>
      <trkpt lat="44.90171" lon="-0.40304">
        <ele>27.9</ele>
        <time>2020-09-10T11:42:50Z</time>
      </trkpt>
      <trkpt lat="44.90172" lon="-0.40304">
        <ele>27.9</ele>
        <time>2020-09-10T11:42:51Z</time>
      </trkpt>
      <trkpt lat="44.90176" lon="-0.40305">
        <ele>28</ele>
        <time>2020-09-10T11:42:53Z</time>
      </trkpt>
      <trkpt lat="44.90177" lon="-0.40306">
        <ele>28</ele>
        <time>2020-09-10T11:42:54Z</time>
      </trkpt>
      <trkpt lat="44.90178" lon="-0.40306">
        <ele>28.1</ele>
        <time>2020-09-10T11:42:55Z</time>
      </trkpt>
      <trkpt lat="44.9018" lon="-0.40307">
        <ele>28.1</ele>
        <time>2020-09-10T11:42:56Z</time>
      </trkpt>
      <trkpt lat="44.90182" lon="-0.40308">
        <ele>28.1</ele>
        <time>2020-09-10T11:42:57Z</time>
      </trkpt>
      <trkpt lat="44.90183" lon="-0.40308">
        <ele>28.2</ele>
        <time>2020-09-10T11:42:58Z</time>
      </trkpt>
      <trkpt lat="44.90184" lon="-0.40308">
        <ele>28.2</ele>
        <time>2020-09-10T11:42:59Z</time>
      </trkpt>
      <trkpt lat="44.90185" lon="-0.40308">
        <ele>28.2</ele>
        <time>2020-09-10T11:43:00Z</time>
      </trkpt>
      <trkpt lat="44.90187" lon="-0.40307">
        <ele>28.2</ele>
        <time>2020-09-10T11:43:02Z</time>
      </trkpt>
      <trkpt lat="44.90191" lon="-0.40306">
        <ele>28.3</ele>
        <time>2020-09-10T11:43:04Z</time>
      </trkpt>
      <trkpt lat="44.90192" lon="-0.40306">
        <ele>28.3</ele>
        <time>2020-09-10T11:43:05Z</time>
      </trkpt>
      <trkpt lat="44.90195" lon="-0.40305">
        <ele>28.3</ele>
        <time>2020-09-10T11:43:06Z</time>
      </trkpt>
      <trkpt lat="44.90196" lon="-0.40305">
        <ele>28.4</ele>
        <time>2020-09-10T11:43:07Z</time>
      </trkpt>
      <trkpt lat="44.90199" lon="-0.40304">
        <ele>28.4</ele>
        <time>2020-09-10T11:43:08Z</time>
      </trkpt>
      <trkpt lat="44.902" lon="-0.40304">
        <ele>28.4</ele>
        <time>2020-09-10T11:43:09Z</time>
      </trkpt>
      <trkpt lat="44.90202" lon="-0.40304">
        <ele>28.5</ele>
        <time>2020-09-10T11:43:10Z</time>
      </trkpt>
      <trkpt lat="44.90204" lon="-0.40303">
        <ele>28.5</ele>
        <time>2020-09-10T11:43:12Z</time>
      </trkpt>
      <trkpt lat="44.90206" lon="-0.40303">
        <ele>28.5</ele>
        <time>2020-09-10T11:43:14Z</time>
      </trkpt>
      <trkpt lat="44.90208" lon="-0.40303">
        <ele>28.6</ele>
        <time>2020-09-10T11:43:15Z</time>
      </trkpt>
      <trkpt lat="44.90211" lon="-0.40302">
        <ele>28.6</ele>
        <time>2020-09-10T11:43:17Z</time>
      </trkpt>
      <trkpt lat="44.90212" lon="-0.40303">
        <ele>28.6</ele>
        <time>2020-09-10T11:43:18Z</time>
      </trkpt>
      <trkpt lat="44.90215" lon="-0.40302">
        <ele>28.7</ele>
        <time>2020-09-10T11:43:20Z</time>
      </trkpt>
      <trkpt lat="44.90216" lon="-0.40301">
        <ele>28.7</ele>
        <time>2020-09-10T11:43:21Z</time>
      </trkpt>
      <trkpt lat="44.90217" lon="-0.40301">
        <ele>28.7</ele>
        <time>2020-09-10T11:43:22Z</time>
      </trkpt>
      <trkpt lat="44.90218" lon="-0.403">
        <ele>28.8</ele>
        <time>2020-09-10T11:43:23Z</time>
      </trkpt>
      <trkpt lat="44.90219" lon="-0.403">
        <ele>28.8</ele>
        <time>2020-09-10T11:43:24Z</time>
      </trkpt>
      <trkpt lat="44.9022" lon="-0.40298">
        <ele>28.8</ele>
        <time>2020-09-10T11:43:26Z</time>
      </trkpt>
      <trkpt lat="44.90222" lon="-0.40297">
        <ele>28.8</ele>
        <time>2020-09-10T11:43:27Z</time>
      </trkpt>
      <trkpt lat="44.90223" lon="-0.40296">
        <ele>28.8</ele>
        <time>2020-09-10T11:43:28Z</time>
      </trkpt>
      <trkpt lat="44.90224" lon="-0.40295">
        <ele>28.9</ele>
        <time>2020-09-10T11:43:29Z</time>
      </trkpt>
      <trkpt lat="44.90227" lon="-0.40294">
        <ele>28.9</ele>
        <time>2020-09-10T11:43:31Z</time>
      </trkpt>
      <trkpt lat="44.90228" lon="-0.40294">
        <ele>28.9</ele>
        <time>2020-09-10T11:43:32Z</time>
      </trkpt>
      <trkpt lat="44.90229" lon="-0.40293">
        <ele>28.9</ele>
        <time>2020-09-10T11:43:34Z</time>
      </trkpt>
      <trkpt lat="44.9023" lon="-0.40293">
        <ele>29</ele>
        <time>2020-09-10T11:43:35Z</time>
      </trkpt>
      <trkpt lat="44.90232" lon="-0.40292">
        <ele>29</ele>
        <time>2020-09-10T11:43:36Z</time>
      </trkpt>
      <trkpt lat="44.90233" lon="-0.40291">
        <ele>29</ele>
        <time>2020-09-10T11:43:37Z</time>
      </trkpt>
      <trkpt lat="44.90236" lon="-0.40289">
        <ele>29.1</ele>
        <time>2020-09-10T11:43:39Z</time>
      </trkpt>
      <trkpt lat="44.90238" lon="-0.40288">
        <ele>29.1</ele>
        <time>2020-09-10T11:43:41Z</time>
      </trkpt>
      <trkpt lat="44.90239" lon="-0.40287">
        <ele>29.1</ele>
        <time>2020-09-10T11:43:42Z</time>
      </trkpt>
      <trkpt lat="44.90242" lon="-0.40285">
        <ele>29.1</ele>
        <time>2020-09-10T11:43:44Z</time>
      </trkpt>
      <trkpt lat="44.90243" lon="-0.40285">
        <ele>29.1</ele>
        <time>2020-09-10T11:43:45Z</time>
      </trkpt>
      <trkpt lat="44.90244" lon="-0.40284">
        <ele>29.1</ele>
        <time>2020-09-10T11:43:47Z</time>
      </trkpt>
      <trkpt lat="44.90246" lon="-0.40283">
        <ele>29.1</ele>
        <time>2020-09-10T11:43:48Z</time>
      </trkpt>
      <trkpt lat="44.90248" lon="-0.40282">
        <ele>29.2</ele>
        <time>2020-09-10T11:43:49Z</time>
      </trkpt>
      <trkpt lat="44.90249" lon="-0.40282">
        <ele>29.2</ele>
        <time>2020-09-10T11:43:50Z</time>
      </trkpt>
      <trkpt lat="44.90251" lon="-0.40281">
        <ele>29.2</ele>
        <time>2020-09-10T11:43:51Z</time>
      </trkpt>
      <trkpt lat="44.90252" lon="-0.40281">
        <ele>29.2</ele>
        <time>2020-09-10T11:43:52Z</time>
      </trkpt>
      <trkpt lat="44.90253" lon="-0.40281">
        <ele>29.2</ele>
        <time>2020-09-10T11:43:53Z</time>
      </trkpt>
      <trkpt lat="44.90256" lon="-0.4028">
        <ele>29.3</ele>
        <time>2020-09-10T11:43:55Z</time>
      </trkpt>
      <trkpt lat="44.90257" lon="-0.40279">
        <ele>29.3</ele>
        <time>2020-09-10T11:43:56Z</time>
      </trkpt>
      <trkpt lat="44.90258" lon="-0.40278">
        <ele>29.3</ele>
        <time>2020-09-10T11:43:58Z</time>
      </trkpt>
      <trkpt lat="44.90259" lon="-0.40278">
        <ele>29.3</ele>
        <time>2020-09-10T11:43:59Z</time>
      </trkpt>
      <trkpt lat="44.9026" lon="-0.40277">
        <ele>29.3</ele>
        <time>2020-09-10T11:44:00Z</time>
      </trkpt>
      <trkpt lat="44.9026" lon="-0.40276">
        <ele>29.4</ele>
        <time>2020-09-10T11:44:01Z</time>
      </trkpt>
      <trkpt lat="44.9026" lon="-0.40276">
        <ele>29.4</ele>
        <time>2020-09-10T11:44:02Z</time>
      </trkpt>
      <trkpt lat="44.90261" lon="-0.40275">
        <ele>29.4</ele>
        <time>2020-09-10T11:44:03Z</time>
      </trkpt>
      <trkpt lat="44.90262" lon="-0.40274">
        <ele>29.4</ele>
        <time>2020-09-10T11:44:04Z</time>
      </trkpt>
      <trkpt lat="44.90263" lon="-0.40273">
        <ele>29.4</ele>
        <time>2020-09-10T11:44:05Z</time>
      </trkpt>
      <trkpt lat="44.90264" lon="-0.40272">
        <ele>29.4</ele>
        <time>2020-09-10T11:44:06Z</time>
      </trkpt>
      <trkpt lat="44.90265" lon="-0.40271">
        <ele>29.5</ele>
        <time>2020-09-10T11:44:07Z</time>
      </trkpt>
      <trkpt lat="44.90267" lon="-0.4027">
        <ele>29.5</ele>
        <time>2020-09-10T11:44:09Z</time>
      </trkpt>
      <trkpt lat="44.90268" lon="-0.4027">
        <ele>29.5</ele>
        <time>2020-09-10T11:44:10Z</time>
      </trkpt>
      <trkpt lat="44.90269" lon="-0.40268">
        <ele>29.5</ele>
        <time>2020-09-10T11:44:12Z</time>
      </trkpt>
      <trkpt lat="44.9027" lon="-0.40268">
        <ele>29.5</ele>
        <time>2020-09-10T11:44:13Z</time>
      </trkpt>
      <trkpt lat="44.90272" lon="-0.40267">
        <ele>29.6</ele>
        <time>2020-09-10T11:44:14Z</time>
      </trkpt>
      <trkpt lat="44.90273" lon="-0.40266">
        <ele>29.6</ele>
        <time>2020-09-10T11:44:15Z</time>
      </trkpt>
      <trkpt lat="44.90275" lon="-0.40265">
        <ele>29.6</ele>
        <time>2020-09-10T11:44:16Z</time>
      </trkpt>
      <trkpt lat="44.90276" lon="-0.40264">
        <ele>29.6</ele>
        <time>2020-09-10T11:44:17Z</time>
      </trkpt>
      <trkpt lat="44.90277" lon="-0.40263">
        <ele>29.7</ele>
        <time>2020-09-10T11:44:18Z</time>
      </trkpt>
      <trkpt lat="44.90279" lon="-0.40263">
        <ele>29.7</ele>
        <time>2020-09-10T11:44:19Z</time>
      </trkpt>
      <trkpt lat="44.9028" lon="-0.40262">
        <ele>29.7</ele>
        <time>2020-09-10T11:44:20Z</time>
      </trkpt>
      <trkpt lat="44.90282" lon="-0.40261">
        <ele>29.7</ele>
        <time>2020-09-10T11:44:22Z</time>
      </trkpt>
      <trkpt lat="44.90284" lon="-0.4026">
        <ele>29.8</ele>
        <time>2020-09-10T11:44:24Z</time>
      </trkpt>
      <trkpt lat="44.90285" lon="-0.4026">
        <ele>29.8</ele>
        <time>2020-09-10T11:44:26Z</time>
      </trkpt>
      <trkpt lat="44.90286" lon="-0.4026">
        <ele>29.8</ele>
        <time>2020-09-10T11:44:27Z</time>
      </trkpt>
      <trkpt lat="44.90287" lon="-0.40259">
        <ele>29.8</ele>
        <time>2020-09-10T11:44:28Z</time>
      </trkpt>
      <trkpt lat="44.90288" lon="-0.40258">
        <ele>29.8</ele>
        <time>2020-09-10T11:44:29Z</time>
      </trkpt>
      <trkpt lat="44.90289" lon="-0.40257">
        <ele>29.8</ele>
        <time>2020-09-10T11:44:30Z</time>
      </trkpt>
      <trkpt lat="44.9029" lon="-0.40257">
        <ele>29.8</ele>
        <time>2020-09-10T11:44:31Z</time>
      </trkpt>
      <trkpt lat="44.90291" lon="-0.40257">
        <ele>29.8</ele>
        <time>2020-09-10T11:44:32Z</time>
      </trkpt>
      <trkpt lat="44.90292" lon="-0.40257">
        <ele>29.8</ele>
        <time>2020-09-10T11:44:34Z</time>
      </trkpt>
      <trkpt lat="44.90293" lon="-0.40257">
        <ele>29.9</ele>
        <time>2020-09-10T11:44:35Z</time>
      </trkpt>
      <trkpt lat="44.90294" lon="-0.40257">
        <ele>29.9</ele>
        <time>2020-09-10T11:44:36Z</time>
      </trkpt>
      <trkpt lat="44.90294" lon="-0.40257">
        <ele>29.9</ele>
        <time>2020-09-10T11:44:37Z</time>
      </trkpt>
      <trkpt lat="44.90295" lon="-0.40257">
        <ele>29.9</ele>
        <time>2020-09-10T11:44:38Z</time>
      </trkpt>
      <trkpt lat="44.90296" lon="-0.40256">
        <ele>29.9</ele>
        <time>2020-09-10T11:44:39Z</time>
      </trkpt>
      <trkpt lat="44.90297" lon="-0.40256">
        <ele>29.9</ele>
        <time>2020-09-10T11:44:40Z</time>
      </trkpt>
      <trkpt lat="44.90298" lon="-0.40256">
        <ele>29.9</ele>
        <time>2020-09-10T11:44:42Z</time>
      </trkpt>
      <trkpt lat="44.90299" lon="-0.40255">
        <ele>29.9</ele>
        <time>2020-09-10T11:44:43Z</time>
      </trkpt>
      <trkpt lat="44.903" lon="-0.40255">
        <ele>29.9</ele>
        <time>2020-09-10T11:44:44Z</time>
      </trkpt>
      <trkpt lat="44.90301" lon="-0.40255">
        <ele>29.9</ele>
        <time>2020-09-10T11:44:45Z</time>
      </trkpt>
      <trkpt lat="44.90302" lon="-0.40255">
        <ele>29.9</ele>
        <time>2020-09-10T11:44:46Z</time>
      </trkpt>
      <trkpt lat="44.90303" lon="-0.40257">
        <ele>29.9</ele>
        <time>2020-09-10T11:44:47Z</time>
      </trkpt>
      <trkpt lat="44.90305" lon="-0.40257">
        <ele>29.9</ele>
        <time>2020-09-10T11:44:48Z</time>
      </trkpt>
      <trkpt lat="44.90306" lon="-0.40257">
        <ele>29.9</ele>
        <time>2020-09-10T11:44:49Z</time>
      </trkpt>
      <trkpt lat="44.90307" lon="-0.40257">
        <ele>29.9</ele>
        <time>2020-09-10T11:44:50Z</time>
      </trkpt>
      <trkpt lat="44.90309" lon="-0.40256">
        <ele>29.9</ele>
        <time>2020-09-10T11:44:52Z</time>
      </trkpt>
      <trkpt lat="44.90311" lon="-0.40256">
        <ele>29.9</ele>
        <time>2020-09-10T11:44:53Z</time>
      </trkpt>
      <trkpt lat="44.90312" lon="-0.40256">
        <ele>29.9</ele>
        <time>2020-09-10T11:44:54Z</time>
      </trkpt>
      <trkpt lat="44.90314" lon="-0.40256">
        <ele>29.9</ele>
        <time>2020-09-10T11:44:55Z</time>
      </trkpt>
      <trkpt lat="44.90316" lon="-0.40255">
        <ele>29.9</ele>
        <time>2020-09-10T11:44:56Z</time>
      </trkpt>
      <trkpt lat="44.90317" lon="-0.40255">
        <ele>29.9</ele>
        <time>2020-09-10T11:44:57Z</time>
      </trkpt>
      <trkpt lat="44.90319" lon="-0.40255">
        <ele>29.9</ele>
        <time>2020-09-10T11:44:58Z</time>
      </trkpt>
      <trkpt lat="44.9032" lon="-0.40255">
        <ele>29.9</ele>
        <time>2020-09-10T11:44:59Z</time>
      </trkpt>
      <trkpt lat="44.90322" lon="-0.40255">
        <ele>29.9</ele>
        <time>2020-09-10T11:45:00Z</time>
      </trkpt>
      <trkpt lat="44.90324" lon="-0.40255">
        <ele>29.9</ele>
        <time>2020-09-10T11:45:02Z</time>
      </trkpt>
      <trkpt lat="44.90325" lon="-0.40255">
        <ele>29.9</ele>
        <time>2020-09-10T11:45:03Z</time>
      </trkpt>
      <trkpt lat="44.90326" lon="-0.40255">
        <ele>29.9</ele>
        <time>2020-09-10T11:45:04Z</time>
      </trkpt>
      <trkpt lat="44.90327" lon="-0.40256">
        <ele>29.9</ele>
        <time>2020-09-10T11:45:06Z</time>
      </trkpt>
      <trkpt lat="44.90329" lon="-0.40257">
        <ele>29.9</ele>
        <time>2020-09-10T11:45:07Z</time>
      </trkpt>
      <trkpt lat="44.90331" lon="-0.40258">
        <ele>29.9</ele>
        <time>2020-09-10T11:45:09Z</time>
      </trkpt>
      <trkpt lat="44.90332" lon="-0.40258">
        <ele>29.9</ele>
        <time>2020-09-10T11:45:10Z</time>
      </trkpt>
      <trkpt lat="44.90333" lon="-0.40257">
        <ele>29.9</ele>
        <time>2020-09-10T11:45:11Z</time>
      </trkpt>
      <trkpt lat="44.90334" lon="-0.40257">
        <ele>29.9</ele>
        <time>2020-09-10T11:45:12Z</time>
      </trkpt>
      <trkpt lat="44.90335" lon="-0.40256">
        <ele>29.9</ele>
        <time>2020-09-10T11:45:14Z</time>
      </trkpt>
      <trkpt lat="44.90336" lon="-0.40255">
        <ele>29.9</ele>
        <time>2020-09-10T11:45:15Z</time>
      </trkpt>
      <trkpt lat="44.90337" lon="-0.40254">
        <ele>29.9</ele>
        <time>2020-09-10T11:45:16Z</time>
      </trkpt>
      <trkpt lat="44.90338" lon="-0.40252">
        <ele>29.9</ele>
        <time>2020-09-10T11:45:17Z</time>
      </trkpt>
      <trkpt lat="44.90339" lon="-0.40251">
        <ele>29.9</ele>
        <time>2020-09-10T11:45:19Z</time>
      </trkpt>
      <trkpt lat="44.9034" lon="-0.4025">
        <ele>29.9</ele>
        <time>2020-09-10T11:45:20Z</time>
      </trkpt>
      <trkpt lat="44.90341" lon="-0.40249">
        <ele>29.9</ele>
        <time>2020-09-10T11:45:21Z</time>
      </trkpt>
      <trkpt lat="44.90341" lon="-0.40248">
        <ele>29.9</ele>
        <time>2020-09-10T11:45:22Z</time>
      </trkpt>
      <trkpt lat="44.90342" lon="-0.40246">
        <ele>29.9</ele>
        <time>2020-09-10T11:45:24Z</time>
      </trkpt>
      <trkpt lat="44.90343" lon="-0.40245">
        <ele>29.8</ele>
        <time>2020-09-10T11:45:25Z</time>
      </trkpt>
      <trkpt lat="44.90344" lon="-0.40244">
        <ele>29.8</ele>
        <time>2020-09-10T11:45:26Z</time>
      </trkpt>
      <trkpt lat="44.90345" lon="-0.40242">
        <ele>29.8</ele>
        <time>2020-09-10T11:45:27Z</time>
      </trkpt>
      <trkpt lat="44.90346" lon="-0.4024">
        <ele>29.8</ele>
        <time>2020-09-10T11:45:28Z</time>
      </trkpt>
      <trkpt lat="44.90346" lon="-0.40239">
        <ele>29.8</ele>
        <time>2020-09-10T11:45:29Z</time>
      </trkpt>
      <trkpt lat="44.90351" lon="-0.40235">
        <ele>29.8</ele>
        <time>2020-09-10T11:45:31Z</time>
      </trkpt>
      <trkpt lat="44.90352" lon="-0.40234">
        <ele>29.8</ele>
        <time>2020-09-10T11:45:32Z</time>
      </trkpt>
      <trkpt lat="44.90353" lon="-0.40232">
        <ele>29.8</ele>
        <time>2020-09-10T11:45:33Z</time>
      </trkpt>
      <trkpt lat="44.90355" lon="-0.40229">
        <ele>29.8</ele>
        <time>2020-09-10T11:45:34Z</time>
      </trkpt>
      <trkpt lat="44.90358" lon="-0.40227">
        <ele>29.8</ele>
        <time>2020-09-10T11:45:36Z</time>
      </trkpt>
      <trkpt lat="44.90359" lon="-0.40226">
        <ele>29.8</ele>
        <time>2020-09-10T11:45:37Z</time>
      </trkpt>
      <trkpt lat="44.9036" lon="-0.40225">
        <ele>29.8</ele>
        <time>2020-09-10T11:45:38Z</time>
      </trkpt>
      <trkpt lat="44.90361" lon="-0.40223">
        <ele>29.8</ele>
        <time>2020-09-10T11:45:40Z</time>
      </trkpt>
      <trkpt lat="44.90362" lon="-0.40222">
        <ele>29.8</ele>
        <time>2020-09-10T11:45:41Z</time>
      </trkpt>
      <trkpt lat="44.90364" lon="-0.40221">
        <ele>29.8</ele>
        <time>2020-09-10T11:45:42Z</time>
      </trkpt>
      <trkpt lat="44.90365" lon="-0.4022">
        <ele>29.8</ele>
        <time>2020-09-10T11:45:43Z</time>
      </trkpt>
      <trkpt lat="44.90367" lon="-0.40219">
        <ele>29.8</ele>
        <time>2020-09-10T11:45:44Z</time>
      </trkpt>
      <trkpt lat="44.90368" lon="-0.40218">
        <ele>29.8</ele>
        <time>2020-09-10T11:45:45Z</time>
      </trkpt>
      <trkpt lat="44.90369" lon="-0.40216">
        <ele>29.8</ele>
        <time>2020-09-10T11:45:46Z</time>
      </trkpt>
      <trkpt lat="44.90371" lon="-0.40215">
        <ele>29.8</ele>
        <time>2020-09-10T11:45:47Z</time>
      </trkpt>
      <trkpt lat="44.90371" lon="-0.40214">
        <ele>29.8</ele>
        <time>2020-09-10T11:45:48Z</time>
      </trkpt>
      <trkpt lat="44.90372" lon="-0.40213">
        <ele>29.8</ele>
        <time>2020-09-10T11:45:49Z</time>
      </trkpt>
      <trkpt lat="44.90373" lon="-0.40211">
        <ele>29.8</ele>
        <time>2020-09-10T11:45:51Z</time>
      </trkpt>
      <trkpt lat="44.90375" lon="-0.40209">
        <ele>29.8</ele>
        <time>2020-09-10T11:45:53Z</time>
      </trkpt>
      <trkpt lat="44.90376" lon="-0.40208">
        <ele>29.8</ele>
        <time>2020-09-10T11:45:54Z</time>
      </trkpt>
      <trkpt lat="44.90377" lon="-0.40207">
        <ele>29.8</ele>
        <time>2020-09-10T11:45:55Z</time>
      </trkpt>
      <trkpt lat="44.90378" lon="-0.40206">
        <ele>29.8</ele>
        <time>2020-09-10T11:45:56Z</time>
      </trkpt>
      <trkpt lat="44.9038" lon="-0.40205">
        <ele>29.8</ele>
        <time>2020-09-10T11:45:57Z</time>
      </trkpt>
      <trkpt lat="44.90381" lon="-0.40204">
        <ele>29.8</ele>
        <time>2020-09-10T11:45:58Z</time>
      </trkpt>
      <trkpt lat="44.90383" lon="-0.40203">
        <ele>29.8</ele>
        <time>2020-09-10T11:45:59Z</time>
      </trkpt>
      <trkpt lat="44.90384" lon="-0.40201">
        <ele>29.7</ele>
        <time>2020-09-10T11:46:00Z</time>
      </trkpt>
      <trkpt lat="44.90385" lon="-0.402">
        <ele>29.7</ele>
        <time>2020-09-10T11:46:02Z</time>
      </trkpt>
      <trkpt lat="44.90386" lon="-0.40199">
        <ele>29.7</ele>
        <time>2020-09-10T11:46:03Z</time>
      </trkpt>
      <trkpt lat="44.90388" lon="-0.40197">
        <ele>29.7</ele>
        <time>2020-09-10T11:46:05Z</time>
      </trkpt>
      <trkpt lat="44.90388" lon="-0.40197">
        <ele>29.7</ele>
        <time>2020-09-10T11:46:06Z</time>
      </trkpt>
      <trkpt lat="44.9039" lon="-0.40195">
        <ele>29.7</ele>
        <time>2020-09-10T11:46:08Z</time>
      </trkpt>
      <trkpt lat="44.90391" lon="-0.40194">
        <ele>29.7</ele>
        <time>2020-09-10T11:46:10Z</time>
      </trkpt>
      <trkpt lat="44.90392" lon="-0.40193">
        <ele>29.7</ele>
        <time>2020-09-10T11:46:11Z</time>
      </trkpt>
      <trkpt lat="44.90392" lon="-0.40193">
        <ele>29.7</ele>
        <time>2020-09-10T11:46:12Z</time>
      </trkpt>
      <trkpt lat="44.90393" lon="-0.40192">
        <ele>29.7</ele>
        <time>2020-09-10T11:46:14Z</time>
      </trkpt>
      <trkpt lat="44.90393" lon="-0.40191">
        <ele>29.7</ele>
        <time>2020-09-10T11:46:15Z</time>
      </trkpt>
      <trkpt lat="44.90394" lon="-0.4019">
        <ele>29.7</ele>
        <time>2020-09-10T11:46:16Z</time>
      </trkpt>
      <trkpt lat="44.90396" lon="-0.40189">
        <ele>29.6</ele>
        <time>2020-09-10T11:46:17Z</time>
      </trkpt>
      <trkpt lat="44.90397" lon="-0.40188">
        <ele>29.6</ele>
        <time>2020-09-10T11:46:18Z</time>
      </trkpt>
      <trkpt lat="44.90398" lon="-0.40186">
        <ele>29.6</ele>
        <time>2020-09-10T11:46:19Z</time>
      </trkpt>
      <trkpt lat="44.90399" lon="-0.40185">
        <ele>29.6</ele>
        <time>2020-09-10T11:46:20Z</time>
      </trkpt>
      <trkpt lat="44.904" lon="-0.40183">
        <ele>29.6</ele>
        <time>2020-09-10T11:46:22Z</time>
      </trkpt>
      <trkpt lat="44.90401" lon="-0.40181">
        <ele>29.6</ele>
        <time>2020-09-10T11:46:23Z</time>
      </trkpt>
      <trkpt lat="44.90402" lon="-0.4018">
        <ele>29.6</ele>
        <time>2020-09-10T11:46:24Z</time>
      </trkpt>
      <trkpt lat="44.90403" lon="-0.40177">
        <ele>29.6</ele>
        <time>2020-09-10T11:46:25Z</time>
      </trkpt>
      <trkpt lat="44.90404" lon="-0.40175">
        <ele>29.6</ele>
        <time>2020-09-10T11:46:26Z</time>
      </trkpt>
      <trkpt lat="44.90405" lon="-0.40173">
        <ele>29.6</ele>
        <time>2020-09-10T11:46:28Z</time>
      </trkpt>
      <trkpt lat="44.90405" lon="-0.40172">
        <ele>29.6</ele>
        <time>2020-09-10T11:46:29Z</time>
      </trkpt>
      <trkpt lat="44.90406" lon="-0.4017">
        <ele>29.6</ele>
        <time>2020-09-10T11:46:31Z</time>
      </trkpt>
      <trkpt lat="44.90406" lon="-0.40168">
        <ele>29.6</ele>
        <time>2020-09-10T11:46:32Z</time>
      </trkpt>
      <trkpt lat="44.90408" lon="-0.40165">
        <ele>29.6</ele>
        <time>2020-09-10T11:46:33Z</time>
      </trkpt>
      <trkpt lat="44.90409" lon="-0.40164">
        <ele>29.6</ele>
        <time>2020-09-10T11:46:34Z</time>
      </trkpt>
      <trkpt lat="44.90409" lon="-0.40162">
        <ele>29.6</ele>
        <time>2020-09-10T11:46:35Z</time>
      </trkpt>
      <trkpt lat="44.9041" lon="-0.40161">
        <ele>29.6</ele>
        <time>2020-09-10T11:46:36Z</time>
      </trkpt>
      <trkpt lat="44.90411" lon="-0.40159">
        <ele>29.6</ele>
        <time>2020-09-10T11:46:38Z</time>
      </trkpt>
      <trkpt lat="44.90412" lon="-0.40158">
        <ele>29.6</ele>
        <time>2020-09-10T11:46:39Z</time>
      </trkpt>
      <trkpt lat="44.90413" lon="-0.40157">
        <ele>29.5</ele>
        <time>2020-09-10T11:46:40Z</time>
      </trkpt>
      <trkpt lat="44.90415" lon="-0.40156">
        <ele>29.5</ele>
        <time>2020-09-10T11:46:42Z</time>
      </trkpt>
      <trkpt lat="44.90417" lon="-0.40155">
        <ele>29.5</ele>
        <time>2020-09-10T11:46:43Z</time>
      </trkpt>
      <trkpt lat="44.90418" lon="-0.40154">
        <ele>29.5</ele>
        <time>2020-09-10T11:46:44Z</time>
      </trkpt>
      <trkpt lat="44.9042" lon="-0.40153">
        <ele>29.5</ele>
        <time>2020-09-10T11:46:45Z</time>
      </trkpt>
      <trkpt lat="44.90421" lon="-0.40152">
        <ele>29.5</ele>
        <time>2020-09-10T11:46:46Z</time>
      </trkpt>
      <trkpt lat="44.90423" lon="-0.4015">
        <ele>29.5</ele>
        <time>2020-09-10T11:46:48Z</time>
      </trkpt>
      <trkpt lat="44.90424" lon="-0.40149">
        <ele>29.5</ele>
        <time>2020-09-10T11:46:49Z</time>
      </trkpt>
      <trkpt lat="44.90426" lon="-0.40148">
        <ele>29.5</ele>
        <time>2020-09-10T11:46:50Z</time>
      </trkpt>
      <trkpt lat="44.90427" lon="-0.40147">
        <ele>29.4</ele>
        <time>2020-09-10T11:46:51Z</time>
      </trkpt>
      <trkpt lat="44.90427" lon="-0.40146">
        <ele>29.4</ele>
        <time>2020-09-10T11:46:53Z</time>
      </trkpt>
      <trkpt lat="44.90429" lon="-0.40144">
        <ele>29.4</ele>
        <time>2020-09-10T11:46:54Z</time>
      </trkpt>
      <trkpt lat="44.9043" lon="-0.40144">
        <ele>29.4</ele>
        <time>2020-09-10T11:46:55Z</time>
      </trkpt>
      <trkpt lat="44.90431" lon="-0.40143">
        <ele>29.4</ele>
        <time>2020-09-10T11:46:56Z</time>
      </trkpt>
      <trkpt lat="44.90432" lon="-0.40142">
        <ele>29.4</ele>
        <time>2020-09-10T11:46:57Z</time>
      </trkpt>
      <trkpt lat="44.90433" lon="-0.40142">
        <ele>29.4</ele>
        <time>2020-09-10T11:46:58Z</time>
      </trkpt>
      <trkpt lat="44.90434" lon="-0.40142">
        <ele>29.4</ele>
        <time>2020-09-10T11:46:59Z</time>
      </trkpt>
      <trkpt lat="44.90436" lon="-0.40141">
        <ele>29.4</ele>
        <time>2020-09-10T11:47:01Z</time>
      </trkpt>
      <trkpt lat="44.90437" lon="-0.4014">
        <ele>29.4</ele>
        <time>2020-09-10T11:47:02Z</time>
      </trkpt>
      <trkpt lat="44.90439" lon="-0.4014">
        <ele>29.3</ele>
        <time>2020-09-10T11:47:03Z</time>
      </trkpt>
      <trkpt lat="44.9044" lon="-0.40139">
        <ele>29.3</ele>
        <time>2020-09-10T11:47:05Z</time>
      </trkpt>
      <trkpt lat="44.90442" lon="-0.40139">
        <ele>29.3</ele>
        <time>2020-09-10T11:47:06Z</time>
      </trkpt>
      <trkpt lat="44.90444" lon="-0.40138">
        <ele>29.3</ele>
        <time>2020-09-10T11:47:07Z</time>
      </trkpt>
      <trkpt lat="44.90444" lon="-0.40138">
        <ele>29.3</ele>
        <time>2020-09-10T11:47:08Z</time>
      </trkpt>
      <trkpt lat="44.90445" lon="-0.40138">
        <ele>29.3</ele>
        <time>2020-09-10T11:47:09Z</time>
      </trkpt>
      <trkpt lat="44.90446" lon="-0.40138">
        <ele>29.3</ele>
        <time>2020-09-10T11:47:11Z</time>
      </trkpt>
      <trkpt lat="44.90447" lon="-0.40138">
        <ele>29.3</ele>
        <time>2020-09-10T11:47:12Z</time>
      </trkpt>
      <trkpt lat="44.90448" lon="-0.40138">
        <ele>29.3</ele>
        <time>2020-09-10T11:47:13Z</time>
      </trkpt>
      <trkpt lat="44.9045" lon="-0.40138">
        <ele>29.2</ele>
        <time>2020-09-10T11:47:14Z</time>
      </trkpt>
      <trkpt lat="44.9045" lon="-0.40137">
        <ele>29.2</ele>
        <time>2020-09-10T11:47:15Z</time>
      </trkpt>
      <trkpt lat="44.90452" lon="-0.40136">
        <ele>29.2</ele>
        <time>2020-09-10T11:47:17Z</time>
      </trkpt>
      <trkpt lat="44.90453" lon="-0.40134">
        <ele>29.2</ele>
        <time>2020-09-10T11:47:18Z</time>
      </trkpt>
      <trkpt lat="44.90453" lon="-0.40132">
        <ele>29.2</ele>
        <time>2020-09-10T11:47:20Z</time>
      </trkpt>
      <trkpt lat="44.90454" lon="-0.40129">
        <ele>29.2</ele>
        <time>2020-09-10T11:47:22Z</time>
      </trkpt>
      <trkpt lat="44.90454" lon="-0.40128">
        <ele>29.2</ele>
        <time>2020-09-10T11:47:23Z</time>
      </trkpt>
      <trkpt lat="44.90454" lon="-0.40126">
        <ele>29.3</ele>
        <time>2020-09-10T11:47:24Z</time>
      </trkpt>
      <trkpt lat="44.90454" lon="-0.40123">
        <ele>29.3</ele>
        <time>2020-09-10T11:47:25Z</time>
      </trkpt>
      <trkpt lat="44.90454" lon="-0.40122">
        <ele>29.3</ele>
        <time>2020-09-10T11:47:27Z</time>
      </trkpt>
      <trkpt lat="44.90453" lon="-0.40121">
        <ele>29.3</ele>
        <time>2020-09-10T11:47:28Z</time>
      </trkpt>
      <trkpt lat="44.90452" lon="-0.4012">
        <ele>29.4</ele>
        <time>2020-09-10T11:47:29Z</time>
      </trkpt>
      <trkpt lat="44.90451" lon="-0.40118">
        <ele>29.4</ele>
        <time>2020-09-10T11:47:30Z</time>
      </trkpt>
      <trkpt lat="44.9045" lon="-0.40117">
        <ele>29.4</ele>
        <time>2020-09-10T11:47:31Z</time>
      </trkpt>
      <trkpt lat="44.90449" lon="-0.40116">
        <ele>29.5</ele>
        <time>2020-09-10T11:47:32Z</time>
      </trkpt>
      <trkpt lat="44.90448" lon="-0.40116">
        <ele>29.5</ele>
        <time>2020-09-10T11:47:33Z</time>
      </trkpt>
      <trkpt lat="44.90446" lon="-0.40115">
        <ele>29.5</ele>
        <time>2020-09-10T11:47:34Z</time>
      </trkpt>
      <trkpt lat="44.90445" lon="-0.40113">
        <ele>29.5</ele>
        <time>2020-09-10T11:47:35Z</time>
      </trkpt>
      <trkpt lat="44.90444" lon="-0.40112">
        <ele>29.5</ele>
        <time>2020-09-10T11:47:36Z</time>
      </trkpt>
      <trkpt lat="44.90441" lon="-0.4011">
        <ele>29.6</ele>
        <time>2020-09-10T11:47:38Z</time>
      </trkpt>
      <trkpt lat="44.9044" lon="-0.40109">
        <ele>29.6</ele>
        <time>2020-09-10T11:47:39Z</time>
      </trkpt>
      <trkpt lat="44.90438" lon="-0.40106">
        <ele>29.7</ele>
        <time>2020-09-10T11:47:41Z</time>
      </trkpt>
      <trkpt lat="44.90437" lon="-0.40106">
        <ele>29.7</ele>
        <time>2020-09-10T11:47:42Z</time>
      </trkpt>
      <trkpt lat="44.90436" lon="-0.40104">
        <ele>29.8</ele>
        <time>2020-09-10T11:47:43Z</time>
      </trkpt>
      <trkpt lat="44.90435" lon="-0.40103">
        <ele>29.8</ele>
        <time>2020-09-10T11:47:44Z</time>
      </trkpt>
      <trkpt lat="44.90434" lon="-0.40102">
        <ele>29.8</ele>
        <time>2020-09-10T11:47:45Z</time>
      </trkpt>
      <trkpt lat="44.90433" lon="-0.40101">
        <ele>29.8</ele>
        <time>2020-09-10T11:47:46Z</time>
      </trkpt>
      <trkpt lat="44.90432" lon="-0.401">
        <ele>29.8</ele>
        <time>2020-09-10T11:47:47Z</time>
      </trkpt>
      <trkpt lat="44.90431" lon="-0.40099">
        <ele>29.8</ele>
        <time>2020-09-10T11:47:49Z</time>
      </trkpt>
      <trkpt lat="44.9043" lon="-0.40096">
        <ele>29.9</ele>
        <time>2020-09-10T11:47:50Z</time>
      </trkpt>
      <trkpt lat="44.90429" lon="-0.40094">
        <ele>29.9</ele>
        <time>2020-09-10T11:47:52Z</time>
      </trkpt>
      <trkpt lat="44.90428" lon="-0.40093">
        <ele>29.9</ele>
        <time>2020-09-10T11:47:53Z</time>
      </trkpt>
      <trkpt lat="44.90427" lon="-0.40091">
        <ele>29.9</ele>
        <time>2020-09-10T11:47:54Z</time>
      </trkpt>
      <trkpt lat="44.90427" lon="-0.4009">
        <ele>29.9</ele>
        <time>2020-09-10T11:47:55Z</time>
      </trkpt>
      <trkpt lat="44.90426" lon="-0.40089">
        <ele>29.9</ele>
        <time>2020-09-10T11:47:56Z</time>
      </trkpt>
      <trkpt lat="44.90425" lon="-0.40087">
        <ele>29.9</ele>
        <time>2020-09-10T11:47:57Z</time>
      </trkpt>
      <trkpt lat="44.90425" lon="-0.40086">
        <ele>30</ele>
        <time>2020-09-10T11:47:58Z</time>
      </trkpt>
      <trkpt lat="44.90424" lon="-0.40085">
        <ele>30</ele>
        <time>2020-09-10T11:47:59Z</time>
      </trkpt>
      <trkpt lat="44.90424" lon="-0.40084">
        <ele>30</ele>
        <time>2020-09-10T11:48:00Z</time>
      </trkpt>
      <trkpt lat="44.90422" lon="-0.40081">
        <ele>30</ele>
        <time>2020-09-10T11:48:02Z</time>
      </trkpt>
      <trkpt lat="44.90421" lon="-0.40079">
        <ele>30</ele>
        <time>2020-09-10T11:48:03Z</time>
      </trkpt>
      <trkpt lat="44.90421" lon="-0.40078">
        <ele>30</ele>
        <time>2020-09-10T11:48:04Z</time>
      </trkpt>
      <trkpt lat="44.9042" lon="-0.40075">
        <ele>30</ele>
        <time>2020-09-10T11:48:06Z</time>
      </trkpt>
      <trkpt lat="44.90419" lon="-0.40073">
        <ele>30</ele>
        <time>2020-09-10T11:48:07Z</time>
      </trkpt>
      <trkpt lat="44.90419" lon="-0.40072">
        <ele>30.1</ele>
        <time>2020-09-10T11:48:08Z</time>
      </trkpt>
      <trkpt lat="44.90418" lon="-0.40069">
        <ele>30.1</ele>
        <time>2020-09-10T11:48:10Z</time>
      </trkpt>
      <trkpt lat="44.90417" lon="-0.40068">
        <ele>30.1</ele>
        <time>2020-09-10T11:48:11Z</time>
      </trkpt>
      <trkpt lat="44.90417" lon="-0.40067">
        <ele>30.1</ele>
        <time>2020-09-10T11:48:12Z</time>
      </trkpt>
      <trkpt lat="44.90416" lon="-0.40066">
        <ele>30.1</ele>
        <time>2020-09-10T11:48:13Z</time>
      </trkpt>
      <trkpt lat="44.90416" lon="-0.40065">
        <ele>30.1</ele>
        <time>2020-09-10T11:48:14Z</time>
      </trkpt>
      <trkpt lat="44.90415" lon="-0.40063">
        <ele>30.1</ele>
        <time>2020-09-10T11:48:16Z</time>
      </trkpt>
      <trkpt lat="44.90414" lon="-0.40062">
        <ele>30.1</ele>
        <time>2020-09-10T11:48:17Z</time>
      </trkpt>
      <trkpt lat="44.90413" lon="-0.4006">
        <ele>30.1</ele>
        <time>2020-09-10T11:48:19Z</time>
      </trkpt>
      <trkpt lat="44.90411" lon="-0.40058">
        <ele>30.1</ele>
        <time>2020-09-10T11:48:20Z</time>
      </trkpt>
      <trkpt lat="44.9041" lon="-0.40057">
        <ele>30.1</ele>
        <time>2020-09-10T11:48:21Z</time>
      </trkpt>
      <trkpt lat="44.9041" lon="-0.40056">
        <ele>30.1</ele>
        <time>2020-09-10T11:48:22Z</time>
      </trkpt>
      <trkpt lat="44.90409" lon="-0.40055">
        <ele>30.1</ele>
        <time>2020-09-10T11:48:23Z</time>
      </trkpt>
      <trkpt lat="44.90408" lon="-0.40053">
        <ele>30.1</ele>
        <time>2020-09-10T11:48:24Z</time>
      </trkpt>
      <trkpt lat="44.90406" lon="-0.4005">
        <ele>30.1</ele>
        <time>2020-09-10T11:48:25Z</time>
      </trkpt>
      <trkpt lat="44.90405" lon="-0.40048">
        <ele>30.1</ele>
        <time>2020-09-10T11:48:27Z</time>
      </trkpt>
      <trkpt lat="44.90404" lon="-0.40045">
        <ele>30.1</ele>
        <time>2020-09-10T11:48:28Z</time>
      </trkpt>
      <trkpt lat="44.90403" lon="-0.40043">
        <ele>30.1</ele>
        <time>2020-09-10T11:48:30Z</time>
      </trkpt>
      <trkpt lat="44.90402" lon="-0.40042">
        <ele>30.1</ele>
        <time>2020-09-10T11:48:31Z</time>
      </trkpt>
      <trkpt lat="44.90402" lon="-0.40041">
        <ele>30.1</ele>
        <time>2020-09-10T11:48:32Z</time>
      </trkpt>
      <trkpt lat="44.90401" lon="-0.40039">
        <ele>30.1</ele>
        <time>2020-09-10T11:48:33Z</time>
      </trkpt>
      <trkpt lat="44.904" lon="-0.40038">
        <ele>30.1</ele>
        <time>2020-09-10T11:48:34Z</time>
      </trkpt>
      <trkpt lat="44.90399" lon="-0.40036">
        <ele>30.1</ele>
        <time>2020-09-10T11:48:35Z</time>
      </trkpt>
      <trkpt lat="44.90398" lon="-0.40034">
        <ele>30.2</ele>
        <time>2020-09-10T11:48:37Z</time>
      </trkpt>
      <trkpt lat="44.90397" lon="-0.40032">
        <ele>30.1</ele>
        <time>2020-09-10T11:48:38Z</time>
      </trkpt>
      <trkpt lat="44.90397" lon="-0.40031">
        <ele>30.1</ele>
        <time>2020-09-10T11:48:39Z</time>
      </trkpt>
      <trkpt lat="44.90396" lon="-0.40028">
        <ele>30.1</ele>
        <time>2020-09-10T11:48:40Z</time>
      </trkpt>
      <trkpt lat="44.90396" lon="-0.40027">
        <ele>30.1</ele>
        <time>2020-09-10T11:48:41Z</time>
      </trkpt>
      <trkpt lat="44.90396" lon="-0.40025">
        <ele>30.1</ele>
        <time>2020-09-10T11:48:42Z</time>
      </trkpt>
      <trkpt lat="44.90396" lon="-0.40023">
        <ele>30.1</ele>
        <time>2020-09-10T11:48:43Z</time>
      </trkpt>
      <trkpt lat="44.90396" lon="-0.40021">
        <ele>30.1</ele>
        <time>2020-09-10T11:48:44Z</time>
      </trkpt>
      <trkpt lat="44.90395" lon="-0.4002">
        <ele>30.1</ele>
        <time>2020-09-10T11:48:45Z</time>
      </trkpt>
      <trkpt lat="44.90395" lon="-0.40018">
        <ele>30.1</ele>
        <time>2020-09-10T11:48:46Z</time>
      </trkpt>
      <trkpt lat="44.90394" lon="-0.40016">
        <ele>30.1</ele>
        <time>2020-09-10T11:48:48Z</time>
      </trkpt>
      <trkpt lat="44.90393" lon="-0.40013">
        <ele>30.1</ele>
        <time>2020-09-10T11:48:50Z</time>
      </trkpt>
      <trkpt lat="44.90393" lon="-0.40011">
        <ele>30.1</ele>
        <time>2020-09-10T11:48:52Z</time>
      </trkpt>
      <trkpt lat="44.90392" lon="-0.40009">
        <ele>30.1</ele>
        <time>2020-09-10T11:48:53Z</time>
      </trkpt>
      <trkpt lat="44.90391" lon="-0.40008">
        <ele>30.1</ele>
        <time>2020-09-10T11:48:54Z</time>
      </trkpt>
      <trkpt lat="44.90391" lon="-0.40007">
        <ele>30.1</ele>
        <time>2020-09-10T11:48:56Z</time>
      </trkpt>
      <trkpt lat="44.9039" lon="-0.40004">
        <ele>30.1</ele>
        <time>2020-09-10T11:48:57Z</time>
      </trkpt>
      <trkpt lat="44.9039" lon="-0.40002">
        <ele>30.1</ele>
        <time>2020-09-10T11:48:58Z</time>
      </trkpt>
      <trkpt lat="44.9039" lon="-0.4">
        <ele>30.1</ele>
        <time>2020-09-10T11:48:59Z</time>
      </trkpt>
      <trkpt lat="44.9039" lon="-0.39999">
        <ele>30.1</ele>
        <time>2020-09-10T11:49:00Z</time>
      </trkpt>
      <trkpt lat="44.90391" lon="-0.39997">
        <ele>30.1</ele>
        <time>2020-09-10T11:49:02Z</time>
      </trkpt>
      <trkpt lat="44.90391" lon="-0.39997">
        <ele>30.1</ele>
        <time>2020-09-10T11:49:03Z</time>
      </trkpt>
      <trkpt lat="44.90392" lon="-0.39996">
        <ele>30</ele>
        <time>2020-09-10T11:49:04Z</time>
      </trkpt>
      <trkpt lat="44.90392" lon="-0.39997">
        <ele>30</ele>
        <time>2020-09-10T11:49:06Z</time>
      </trkpt>
      <trkpt lat="44.90393" lon="-0.39996">
        <ele>30</ele>
        <time>2020-09-10T11:49:07Z</time>
      </trkpt>
      <trkpt lat="44.90394" lon="-0.39994">
        <ele>30</ele>
        <time>2020-09-10T11:49:08Z</time>
      </trkpt>
      <trkpt lat="44.90396" lon="-0.39992">
        <ele>30</ele>
        <time>2020-09-10T11:49:09Z</time>
      </trkpt>
      <trkpt lat="44.90396" lon="-0.39991">
        <ele>30</ele>
        <time>2020-09-10T11:49:11Z</time>
      </trkpt>
      <trkpt lat="44.90397" lon="-0.3999">
        <ele>30</ele>
        <time>2020-09-10T11:49:12Z</time>
      </trkpt>
      <trkpt lat="44.90398" lon="-0.3999">
        <ele>30</ele>
        <time>2020-09-10T11:49:13Z</time>
      </trkpt>
      <trkpt lat="44.90399" lon="-0.39989">
        <ele>30</ele>
        <time>2020-09-10T11:49:14Z</time>
      </trkpt>
      <trkpt lat="44.904" lon="-0.39988">
        <ele>30</ele>
        <time>2020-09-10T11:49:15Z</time>
      </trkpt>
      <trkpt lat="44.90403" lon="-0.39987">
        <ele>30</ele>
        <time>2020-09-10T11:49:16Z</time>
      </trkpt>
      <trkpt lat="44.90403" lon="-0.39987">
        <ele>30</ele>
        <time>2020-09-10T11:49:18Z</time>
      </trkpt>
      <trkpt lat="44.90404" lon="-0.39987">
        <ele>29.9</ele>
        <time>2020-09-10T11:49:19Z</time>
      </trkpt>
      <trkpt lat="44.90406" lon="-0.39986">
        <ele>29.9</ele>
        <time>2020-09-10T11:49:21Z</time>
      </trkpt>
      <trkpt lat="44.90407" lon="-0.39985">
        <ele>29.9</ele>
        <time>2020-09-10T11:49:22Z</time>
      </trkpt>
      <trkpt lat="44.90408" lon="-0.39985">
        <ele>29.9</ele>
        <time>2020-09-10T11:49:23Z</time>
      </trkpt>
      <trkpt lat="44.90409" lon="-0.39984">
        <ele>29.9</ele>
        <time>2020-09-10T11:49:25Z</time>
      </trkpt>
      <trkpt lat="44.9041" lon="-0.39984">
        <ele>29.9</ele>
        <time>2020-09-10T11:49:27Z</time>
      </trkpt>
      <trkpt lat="44.90409" lon="-0.39984">
        <ele>29.9</ele>
        <time>2020-09-10T11:49:28Z</time>
      </trkpt>
      <trkpt lat="44.90409" lon="-0.39985">
        <ele>29.9</ele>
        <time>2020-09-10T11:49:30Z</time>
      </trkpt>
      <trkpt lat="44.90409" lon="-0.39986">
        <ele>29.9</ele>
        <time>2020-09-10T11:49:32Z</time>
      </trkpt>
      <trkpt lat="44.90409" lon="-0.39986">
        <ele>29.9</ele>
        <time>2020-09-10T11:49:33Z</time>
      </trkpt>
      <trkpt lat="44.90409" lon="-0.39986">
        <ele>29.9</ele>
        <time>2020-09-10T11:49:35Z</time>
      </trkpt>
      <trkpt lat="44.90409" lon="-0.39986">
        <ele>29.9</ele>
        <time>2020-09-10T11:49:37Z</time>
      </trkpt>
      <trkpt lat="44.9041" lon="-0.39986">
        <ele>29.9</ele>
        <time>2020-09-10T11:49:38Z</time>
      </trkpt>
      <trkpt lat="44.90411" lon="-0.39986">
        <ele>29.9</ele>
        <time>2020-09-10T11:49:40Z</time>
      </trkpt>
      <trkpt lat="44.90413" lon="-0.39986">
        <ele>29.8</ele>
        <time>2020-09-10T11:49:42Z</time>
      </trkpt>
      <trkpt lat="44.90415" lon="-0.39988">
        <ele>29.8</ele>
        <time>2020-09-10T11:49:44Z</time>
      </trkpt>
      <trkpt lat="44.90416" lon="-0.39988">
        <ele>29.8</ele>
        <time>2020-09-10T11:49:46Z</time>
      </trkpt>
      <trkpt lat="44.90417" lon="-0.3999">
        <ele>29.8</ele>
        <time>2020-09-10T11:49:47Z</time>
      </trkpt>
      <trkpt lat="44.90418" lon="-0.3999">
        <ele>29.8</ele>
        <time>2020-09-10T11:49:48Z</time>
      </trkpt>
      <trkpt lat="44.90419" lon="-0.39991">
        <ele>29.8</ele>
        <time>2020-09-10T11:49:49Z</time>
      </trkpt>
      <trkpt lat="44.90421" lon="-0.39991">
        <ele>29.8</ele>
        <time>2020-09-10T11:49:50Z</time>
      </trkpt>
      <trkpt lat="44.90421" lon="-0.39991">
        <ele>29.8</ele>
        <time>2020-09-10T11:49:51Z</time>
      </trkpt>
      <trkpt lat="44.90422" lon="-0.39991">
        <ele>29.7</ele>
        <time>2020-09-10T11:49:52Z</time>
      </trkpt>
      <trkpt lat="44.90425" lon="-0.39988">
        <ele>29.6</ele>
        <time>2020-09-10T11:49:54Z</time>
      </trkpt>
      <trkpt lat="44.90426" lon="-0.39986">
        <ele>29.6</ele>
        <time>2020-09-10T11:49:55Z</time>
      </trkpt>
      <trkpt lat="44.90427" lon="-0.39986">
        <ele>29.6</ele>
        <time>2020-09-10T11:49:57Z</time>
      </trkpt>
      <trkpt lat="44.90427" lon="-0.39986">
        <ele>29.6</ele>
        <time>2020-09-10T11:49:58Z</time>
      </trkpt>
      <trkpt lat="44.90428" lon="-0.39986">
        <ele>29.6</ele>
        <time>2020-09-10T11:49:59Z</time>
      </trkpt>
      <trkpt lat="44.90429" lon="-0.39987">
        <ele>29.6</ele>
        <time>2020-09-10T11:50:00Z</time>
      </trkpt>
      <trkpt lat="44.9043" lon="-0.39988">
        <ele>29.6</ele>
        <time>2020-09-10T11:50:01Z</time>
      </trkpt>
      <trkpt lat="44.9043" lon="-0.39989">
        <ele>29.6</ele>
        <time>2020-09-10T11:50:02Z</time>
      </trkpt>
      <trkpt lat="44.90431" lon="-0.39989">
        <ele>29.6</ele>
        <time>2020-09-10T11:50:03Z</time>
      </trkpt>
      <trkpt lat="44.90432" lon="-0.39991">
        <ele>29.5</ele>
        <time>2020-09-10T11:50:05Z</time>
      </trkpt>
      <trkpt lat="44.90434" lon="-0.39992">
        <ele>29.5</ele>
        <time>2020-09-10T11:50:06Z</time>
      </trkpt>
      <trkpt lat="44.90435" lon="-0.39992">
        <ele>29.5</ele>
        <time>2020-09-10T11:50:07Z</time>
      </trkpt>
      <trkpt lat="44.90435" lon="-0.39993">
        <ele>29.5</ele>
        <time>2020-09-10T11:50:08Z</time>
      </trkpt>
      <trkpt lat="44.90436" lon="-0.39996">
        <ele>29.5</ele>
        <time>2020-09-10T11:50:10Z</time>
      </trkpt>
      <trkpt lat="44.90436" lon="-0.39999">
        <ele>29.5</ele>
        <time>2020-09-10T11:50:12Z</time>
      </trkpt>
      <trkpt lat="44.90436" lon="-0.4">
        <ele>29.5</ele>
        <time>2020-09-10T11:50:14Z</time>
      </trkpt>
      <trkpt lat="44.90435" lon="-0.4">
        <ele>29.5</ele>
        <time>2020-09-10T11:50:15Z</time>
      </trkpt>
      <trkpt lat="44.90435" lon="-0.4">
        <ele>29.5</ele>
        <time>2020-09-10T11:50:16Z</time>
      </trkpt>
      <trkpt lat="44.90434" lon="-0.39999">
        <ele>29.5</ele>
        <time>2020-09-10T11:50:18Z</time>
      </trkpt>
      <trkpt lat="44.90433" lon="-0.39999">
        <ele>29.6</ele>
        <time>2020-09-10T11:50:20Z</time>
      </trkpt>
      <trkpt lat="44.90433" lon="-0.4">
        <ele>29.6</ele>
        <time>2020-09-10T11:50:21Z</time>
      </trkpt>
      <trkpt lat="44.90433" lon="-0.40003">
        <ele>29.6</ele>
        <time>2020-09-10T11:50:22Z</time>
      </trkpt>
      <trkpt lat="44.90433" lon="-0.40004">
        <ele>29.6</ele>
        <time>2020-09-10T11:50:23Z</time>
      </trkpt>
      <trkpt lat="44.90433" lon="-0.40006">
        <ele>29.6</ele>
        <time>2020-09-10T11:50:24Z</time>
      </trkpt>
      <trkpt lat="44.90434" lon="-0.40009">
        <ele>29.6</ele>
        <time>2020-09-10T11:50:26Z</time>
      </trkpt>
      <trkpt lat="44.90435" lon="-0.40012">
        <ele>29.6</ele>
        <time>2020-09-10T11:50:27Z</time>
      </trkpt>
      <trkpt lat="44.90436" lon="-0.40012">
        <ele>29.6</ele>
        <time>2020-09-10T11:50:28Z</time>
      </trkpt>
      <trkpt lat="44.90438" lon="-0.40015">
        <ele>29.6</ele>
        <time>2020-09-10T11:50:30Z</time>
      </trkpt>
      <trkpt lat="44.9044" lon="-0.40015">
        <ele>29.5</ele>
        <time>2020-09-10T11:50:32Z</time>
      </trkpt>
      <trkpt lat="44.90442" lon="-0.40016">
        <ele>29.5</ele>
        <time>2020-09-10T11:50:33Z</time>
      </trkpt>
      <trkpt lat="44.90444" lon="-0.40017">
        <ele>29.4</ele>
        <time>2020-09-10T11:50:34Z</time>
      </trkpt>
      <trkpt lat="44.90446" lon="-0.40018">
        <ele>29.4</ele>
        <time>2020-09-10T11:50:35Z</time>
      </trkpt>
      <trkpt lat="44.90446" lon="-0.40019">
        <ele>29.5</ele>
        <time>2020-09-10T11:50:36Z</time>
      </trkpt>
      <trkpt lat="44.90447" lon="-0.4002">
        <ele>29.4</ele>
        <time>2020-09-10T11:50:37Z</time>
      </trkpt>
      <trkpt lat="44.90448" lon="-0.40022">
        <ele>29.4</ele>
        <time>2020-09-10T11:50:38Z</time>
      </trkpt>
      <trkpt lat="44.90448" lon="-0.40023">
        <ele>29.4</ele>
        <time>2020-09-10T11:50:40Z</time>
      </trkpt>
      <trkpt lat="44.90448" lon="-0.40025">
        <ele>29.4</ele>
        <time>2020-09-10T11:50:41Z</time>
      </trkpt>
      <trkpt lat="44.9045" lon="-0.40027">
        <ele>29.4</ele>
        <time>2020-09-10T11:50:42Z</time>
      </trkpt>
      <trkpt lat="44.90451" lon="-0.40029">
        <ele>29.4</ele>
        <time>2020-09-10T11:50:44Z</time>
      </trkpt>
      <trkpt lat="44.90451" lon="-0.4003">
        <ele>29.4</ele>
        <time>2020-09-10T11:50:45Z</time>
      </trkpt>
      <trkpt lat="44.90452" lon="-0.40031">
        <ele>29.4</ele>
        <time>2020-09-10T11:50:46Z</time>
      </trkpt>
      <trkpt lat="44.90453" lon="-0.40032">
        <ele>29.4</ele>
        <time>2020-09-10T11:50:47Z</time>
      </trkpt>
      <trkpt lat="44.90454" lon="-0.40033">
        <ele>29.4</ele>
        <time>2020-09-10T11:50:48Z</time>
      </trkpt>
      <trkpt lat="44.90455" lon="-0.40034">
        <ele>29.4</ele>
        <time>2020-09-10T11:50:49Z</time>
      </trkpt>
      <trkpt lat="44.90457" lon="-0.40035">
        <ele>29.3</ele>
        <time>2020-09-10T11:50:51Z</time>
      </trkpt>
      <trkpt lat="44.90458" lon="-0.40035">
        <ele>29.3</ele>
        <time>2020-09-10T11:50:52Z</time>
      </trkpt>
      <trkpt lat="44.90459" lon="-0.40036">
        <ele>29.3</ele>
        <time>2020-09-10T11:50:53Z</time>
      </trkpt>
      <trkpt lat="44.9046" lon="-0.40036">
        <ele>29.3</ele>
        <time>2020-09-10T11:50:54Z</time>
      </trkpt>
      <trkpt lat="44.90462" lon="-0.40035">
        <ele>29.2</ele>
        <time>2020-09-10T11:50:55Z</time>
      </trkpt>
      <trkpt lat="44.90463" lon="-0.40035">
        <ele>29.2</ele>
        <time>2020-09-10T11:50:56Z</time>
      </trkpt>
      <trkpt lat="44.90464" lon="-0.40035">
        <ele>29.2</ele>
        <time>2020-09-10T11:50:57Z</time>
      </trkpt>
      <trkpt lat="44.90466" lon="-0.40033">
        <ele>29.2</ele>
        <time>2020-09-10T11:50:59Z</time>
      </trkpt>
      <trkpt lat="44.90467" lon="-0.40032">
        <ele>29.2</ele>
        <time>2020-09-10T11:51:00Z</time>
      </trkpt>
      <trkpt lat="44.90468" lon="-0.40031">
        <ele>29.1</ele>
        <time>2020-09-10T11:51:02Z</time>
      </trkpt>
      <trkpt lat="44.90469" lon="-0.40031">
        <ele>29.1</ele>
        <time>2020-09-10T11:51:03Z</time>
      </trkpt>
      <trkpt lat="44.9047" lon="-0.4003">
        <ele>29.1</ele>
        <time>2020-09-10T11:51:04Z</time>
      </trkpt>
      <trkpt lat="44.90471" lon="-0.40029">
        <ele>29.1</ele>
        <time>2020-09-10T11:51:05Z</time>
      </trkpt>
      <trkpt lat="44.90472" lon="-0.40028">
        <ele>29.1</ele>
        <time>2020-09-10T11:51:06Z</time>
      </trkpt>
      <trkpt lat="44.90473" lon="-0.40027">
        <ele>29.1</ele>
        <time>2020-09-10T11:51:07Z</time>
      </trkpt>
      <trkpt lat="44.90474" lon="-0.40027">
        <ele>29</ele>
        <time>2020-09-10T11:51:08Z</time>
      </trkpt>
      <trkpt lat="44.90477" lon="-0.40024">
        <ele>29</ele>
        <time>2020-09-10T11:51:10Z</time>
      </trkpt>
      <trkpt lat="44.90478" lon="-0.40023">
        <ele>29</ele>
        <time>2020-09-10T11:51:12Z</time>
      </trkpt>
      <trkpt lat="44.9048" lon="-0.40022">
        <ele>28.9</ele>
        <time>2020-09-10T11:51:13Z</time>
      </trkpt>
      <trkpt lat="44.90481" lon="-0.40021">
        <ele>28.9</ele>
        <time>2020-09-10T11:51:15Z</time>
      </trkpt>
      <trkpt lat="44.90483" lon="-0.4002">
        <ele>28.9</ele>
        <time>2020-09-10T11:51:16Z</time>
      </trkpt>
      <trkpt lat="44.90484" lon="-0.40019">
        <ele>28.9</ele>
        <time>2020-09-10T11:51:17Z</time>
      </trkpt>
      <trkpt lat="44.90485" lon="-0.40019">
        <ele>28.9</ele>
        <time>2020-09-10T11:51:18Z</time>
      </trkpt>
      <trkpt lat="44.90486" lon="-0.40018">
        <ele>28.8</ele>
        <time>2020-09-10T11:51:19Z</time>
      </trkpt>
      <trkpt lat="44.90487" lon="-0.40017">
        <ele>28.8</ele>
        <time>2020-09-10T11:51:20Z</time>
      </trkpt>
      <trkpt lat="44.90489" lon="-0.40016">
        <ele>28.8</ele>
        <time>2020-09-10T11:51:22Z</time>
      </trkpt>
      <trkpt lat="44.90491" lon="-0.40014">
        <ele>28.8</ele>
        <time>2020-09-10T11:51:23Z</time>
      </trkpt>
      <trkpt lat="44.90492" lon="-0.40014">
        <ele>28.8</ele>
        <time>2020-09-10T11:51:24Z</time>
      </trkpt>
      <trkpt lat="44.90493" lon="-0.40013">
        <ele>28.8</ele>
        <time>2020-09-10T11:51:25Z</time>
      </trkpt>
      <trkpt lat="44.90494" lon="-0.40013">
        <ele>28.8</ele>
        <time>2020-09-10T11:51:27Z</time>
      </trkpt>
      <trkpt lat="44.90496" lon="-0.40012">
        <ele>28.8</ele>
        <time>2020-09-10T11:51:28Z</time>
      </trkpt>
      <trkpt lat="44.90498" lon="-0.40012">
        <ele>28.8</ele>
        <time>2020-09-10T11:51:29Z</time>
      </trkpt>
      <trkpt lat="44.90499" lon="-0.40011">
        <ele>28.8</ele>
        <time>2020-09-10T11:51:30Z</time>
      </trkpt>
      <trkpt lat="44.905" lon="-0.40011">
        <ele>28.8</ele>
        <time>2020-09-10T11:51:31Z</time>
      </trkpt>
      <trkpt lat="44.90501" lon="-0.40011">
        <ele>28.8</ele>
        <time>2020-09-10T11:51:32Z</time>
      </trkpt>
      <trkpt lat="44.90502" lon="-0.4001">
        <ele>28.8</ele>
        <time>2020-09-10T11:51:33Z</time>
      </trkpt>
      <trkpt lat="44.90503" lon="-0.4001">
        <ele>28.8</ele>
        <time>2020-09-10T11:51:34Z</time>
      </trkpt>
      <trkpt lat="44.90504" lon="-0.40009">
        <ele>28.8</ele>
        <time>2020-09-10T11:51:35Z</time>
      </trkpt>
      <trkpt lat="44.90505" lon="-0.40009">
        <ele>28.8</ele>
        <time>2020-09-10T11:51:36Z</time>
      </trkpt>
      <trkpt lat="44.90507" lon="-0.40008">
        <ele>28.8</ele>
        <time>2020-09-10T11:51:38Z</time>
      </trkpt>
      <trkpt lat="44.90509" lon="-0.40007">
        <ele>28.8</ele>
        <time>2020-09-10T11:51:40Z</time>
      </trkpt>
      <trkpt lat="44.9051" lon="-0.40006">
        <ele>28.8</ele>
        <time>2020-09-10T11:51:42Z</time>
      </trkpt>
      <trkpt lat="44.90511" lon="-0.40006">
        <ele>28.8</ele>
        <time>2020-09-10T11:51:43Z</time>
      </trkpt>
      <trkpt lat="44.90512" lon="-0.40005">
        <ele>28.8</ele>
        <time>2020-09-10T11:51:44Z</time>
      </trkpt>
      <trkpt lat="44.90514" lon="-0.40004">
        <ele>28.8</ele>
        <time>2020-09-10T11:51:45Z</time>
      </trkpt>
      <trkpt lat="44.90515" lon="-0.40003">
        <ele>28.8</ele>
        <time>2020-09-10T11:51:46Z</time>
      </trkpt>
      <trkpt lat="44.90517" lon="-0.40002">
        <ele>28.8</ele>
        <time>2020-09-10T11:51:47Z</time>
      </trkpt>
      <trkpt lat="44.90518" lon="-0.40001">
        <ele>28.8</ele>
        <time>2020-09-10T11:51:49Z</time>
      </trkpt>
      <trkpt lat="44.90519" lon="-0.4">
        <ele>28.8</ele>
        <time>2020-09-10T11:51:50Z</time>
      </trkpt>
      <trkpt lat="44.90521" lon="-0.39999">
        <ele>28.8</ele>
        <time>2020-09-10T11:51:52Z</time>
      </trkpt>
      <trkpt lat="44.90522" lon="-0.39999">
        <ele>28.8</ele>
        <time>2020-09-10T11:51:53Z</time>
      </trkpt>
      <trkpt lat="44.90523" lon="-0.39998">
        <ele>28.9</ele>
        <time>2020-09-10T11:51:54Z</time>
      </trkpt>
      <trkpt lat="44.90525" lon="-0.39997">
        <ele>28.8</ele>
        <time>2020-09-10T11:51:56Z</time>
      </trkpt>
      <trkpt lat="44.90526" lon="-0.39996">
        <ele>28.9</ele>
        <time>2020-09-10T11:51:57Z</time>
      </trkpt>
      <trkpt lat="44.90528" lon="-0.39995">
        <ele>28.9</ele>
        <time>2020-09-10T11:51:59Z</time>
      </trkpt>
      <trkpt lat="44.90529" lon="-0.39994">
        <ele>28.9</ele>
        <time>2020-09-10T11:52:00Z</time>
      </trkpt>
      <trkpt lat="44.9053" lon="-0.39994">
        <ele>28.9</ele>
        <time>2020-09-10T11:52:01Z</time>
      </trkpt>
      <trkpt lat="44.90531" lon="-0.39993">
        <ele>28.9</ele>
        <time>2020-09-10T11:52:02Z</time>
      </trkpt>
      <trkpt lat="44.90532" lon="-0.39991">
        <ele>28.9</ele>
        <time>2020-09-10T11:52:04Z</time>
      </trkpt>
      <trkpt lat="44.90534" lon="-0.3999">
        <ele>28.9</ele>
        <time>2020-09-10T11:52:05Z</time>
      </trkpt>
      <trkpt lat="44.90534" lon="-0.39989">
        <ele>28.9</ele>
        <time>2020-09-10T11:52:06Z</time>
      </trkpt>
      <trkpt lat="44.90535" lon="-0.39988">
        <ele>28.9</ele>
        <time>2020-09-10T11:52:07Z</time>
      </trkpt>
      <trkpt lat="44.90536" lon="-0.39987">
        <ele>28.9</ele>
        <time>2020-09-10T11:52:08Z</time>
      </trkpt>
      <trkpt lat="44.90537" lon="-0.39987">
        <ele>28.9</ele>
        <time>2020-09-10T11:52:09Z</time>
      </trkpt>
      <trkpt lat="44.90539" lon="-0.39986">
        <ele>28.9</ele>
        <time>2020-09-10T11:52:10Z</time>
      </trkpt>
      <trkpt lat="44.9054" lon="-0.39985">
        <ele>28.9</ele>
        <time>2020-09-10T11:52:12Z</time>
      </trkpt>
      <trkpt lat="44.90541" lon="-0.39984">
        <ele>28.9</ele>
        <time>2020-09-10T11:52:13Z</time>
      </trkpt>
      <trkpt lat="44.90543" lon="-0.39983">
        <ele>28.9</ele>
        <time>2020-09-10T11:52:15Z</time>
      </trkpt>
      <trkpt lat="44.90544" lon="-0.39982">
        <ele>28.9</ele>
        <time>2020-09-10T11:52:17Z</time>
      </trkpt>
      <trkpt lat="44.90545" lon="-0.39982">
        <ele>28.9</ele>
        <time>2020-09-10T11:52:18Z</time>
      </trkpt>
      <trkpt lat="44.90546" lon="-0.39981">
        <ele>28.9</ele>
        <time>2020-09-10T11:52:19Z</time>
      </trkpt>
      <trkpt lat="44.90548" lon="-0.3998">
        <ele>28.9</ele>
        <time>2020-09-10T11:52:21Z</time>
      </trkpt>
      <trkpt lat="44.90548" lon="-0.39979">
        <ele>28.9</ele>
        <time>2020-09-10T11:52:22Z</time>
      </trkpt>
      <trkpt lat="44.9055" lon="-0.39977">
        <ele>29</ele>
        <time>2020-09-10T11:52:24Z</time>
      </trkpt>
      <trkpt lat="44.90551" lon="-0.39976">
        <ele>29</ele>
        <time>2020-09-10T11:52:25Z</time>
      </trkpt>
      <trkpt lat="44.90552" lon="-0.39975">
        <ele>28.9</ele>
        <time>2020-09-10T11:52:26Z</time>
      </trkpt>
      <trkpt lat="44.90553" lon="-0.39973">
        <ele>29</ele>
        <time>2020-09-10T11:52:27Z</time>
      </trkpt>
      <trkpt lat="44.90554" lon="-0.39972">
        <ele>29</ele>
        <time>2020-09-10T11:52:28Z</time>
      </trkpt>
      <trkpt lat="44.90555" lon="-0.39971">
        <ele>28.9</ele>
        <time>2020-09-10T11:52:29Z</time>
      </trkpt>
      <trkpt lat="44.90557" lon="-0.39969">
        <ele>29</ele>
        <time>2020-09-10T11:52:31Z</time>
      </trkpt>
      <trkpt lat="44.90558" lon="-0.39968">
        <ele>29</ele>
        <time>2020-09-10T11:52:32Z</time>
      </trkpt>
      <trkpt lat="44.90559" lon="-0.39967">
        <ele>29</ele>
        <time>2020-09-10T11:52:33Z</time>
      </trkpt>
      <trkpt lat="44.90561" lon="-0.39964">
        <ele>29</ele>
        <time>2020-09-10T11:52:35Z</time>
      </trkpt>
      <trkpt lat="44.90562" lon="-0.39964">
        <ele>29.1</ele>
        <time>2020-09-10T11:52:36Z</time>
      </trkpt>
      <trkpt lat="44.90563" lon="-0.39962">
        <ele>29</ele>
        <time>2020-09-10T11:52:37Z</time>
      </trkpt>
      <trkpt lat="44.90565" lon="-0.3996">
        <ele>29</ele>
        <time>2020-09-10T11:52:38Z</time>
      </trkpt>
      <trkpt lat="44.90566" lon="-0.39959">
        <ele>29.1</ele>
        <time>2020-09-10T11:52:39Z</time>
      </trkpt>
      <trkpt lat="44.90567" lon="-0.39958">
        <ele>29</ele>
        <time>2020-09-10T11:52:40Z</time>
      </trkpt>
      <trkpt lat="44.90568" lon="-0.39957">
        <ele>29.1</ele>
        <time>2020-09-10T11:52:41Z</time>
      </trkpt>
      <trkpt lat="44.9057" lon="-0.39955">
        <ele>29.1</ele>
        <time>2020-09-10T11:52:42Z</time>
      </trkpt>
      <trkpt lat="44.9057" lon="-0.39954">
        <ele>29</ele>
        <time>2020-09-10T11:52:43Z</time>
      </trkpt>
      <trkpt lat="44.90573" lon="-0.39952">
        <ele>29.1</ele>
        <time>2020-09-10T11:52:45Z</time>
      </trkpt>
      <trkpt lat="44.90574" lon="-0.39951">
        <ele>29.2</ele>
        <time>2020-09-10T11:52:47Z</time>
      </trkpt>
      <trkpt lat="44.90575" lon="-0.39951">
        <ele>29.2</ele>
        <time>2020-09-10T11:52:48Z</time>
      </trkpt>
      <trkpt lat="44.90576" lon="-0.3995">
        <ele>29.1</ele>
        <time>2020-09-10T11:52:49Z</time>
      </trkpt>
      <trkpt lat="44.90577" lon="-0.39949">
        <ele>29.2</ele>
        <time>2020-09-10T11:52:50Z</time>
      </trkpt>
      <trkpt lat="44.90578" lon="-0.39948">
        <ele>29.2</ele>
        <time>2020-09-10T11:52:51Z</time>
      </trkpt>
      <trkpt lat="44.90579" lon="-0.39947">
        <ele>29.2</ele>
        <time>2020-09-10T11:52:52Z</time>
      </trkpt>
      <trkpt lat="44.90579" lon="-0.39947">
        <ele>29.2</ele>
        <time>2020-09-10T11:52:53Z</time>
      </trkpt>
      <trkpt lat="44.9058" lon="-0.39946">
        <ele>29.2</ele>
        <time>2020-09-10T11:52:54Z</time>
      </trkpt>
      <trkpt lat="44.90581" lon="-0.39945">
        <ele>29.2</ele>
        <time>2020-09-10T11:52:55Z</time>
      </trkpt>
      <trkpt lat="44.90583" lon="-0.39943">
        <ele>29.2</ele>
        <time>2020-09-10T11:52:57Z</time>
      </trkpt>
      <trkpt lat="44.90584" lon="-0.39943">
        <ele>29.3</ele>
        <time>2020-09-10T11:52:58Z</time>
      </trkpt>
      <trkpt lat="44.90585" lon="-0.39941">
        <ele>29.3</ele>
        <time>2020-09-10T11:52:59Z</time>
      </trkpt>
      <trkpt lat="44.90586" lon="-0.3994">
        <ele>29.3</ele>
        <time>2020-09-10T11:53:00Z</time>
      </trkpt>
      <trkpt lat="44.90587" lon="-0.3994">
        <ele>29.4</ele>
        <time>2020-09-10T11:53:01Z</time>
      </trkpt>
      <trkpt lat="44.90587" lon="-0.39939">
        <ele>29.4</ele>
        <time>2020-09-10T11:53:02Z</time>
      </trkpt>
      <trkpt lat="44.90588" lon="-0.39938">
        <ele>29.4</ele>
        <time>2020-09-10T11:53:03Z</time>
      </trkpt>
      <trkpt lat="44.90588" lon="-0.39937">
        <ele>29.3</ele>
        <time>2020-09-10T11:53:05Z</time>
      </trkpt>
      <trkpt lat="44.90588" lon="-0.39935">
        <ele>29.3</ele>
        <time>2020-09-10T11:53:06Z</time>
      </trkpt>
      <trkpt lat="44.90587" lon="-0.39932">
        <ele>29.3</ele>
        <time>2020-09-10T11:53:07Z</time>
      </trkpt>
      <trkpt lat="44.90586" lon="-0.39931">
        <ele>29.3</ele>
        <time>2020-09-10T11:53:08Z</time>
      </trkpt>
      <trkpt lat="44.90586" lon="-0.3993">
        <ele>29.2</ele>
        <time>2020-09-10T11:53:09Z</time>
      </trkpt>
      <trkpt lat="44.90585" lon="-0.39928">
        <ele>29.1</ele>
        <time>2020-09-10T11:53:10Z</time>
      </trkpt>
      <trkpt lat="44.90583" lon="-0.39927">
        <ele>29</ele>
        <time>2020-09-10T11:53:11Z</time>
      </trkpt>
      <trkpt lat="44.90582" lon="-0.39925">
        <ele>29</ele>
        <time>2020-09-10T11:53:12Z</time>
      </trkpt>
      <trkpt lat="44.90581" lon="-0.39922">
        <ele>29</ele>
        <time>2020-09-10T11:53:14Z</time>
      </trkpt>
      <trkpt lat="44.90581" lon="-0.39921">
        <ele>29</ele>
        <time>2020-09-10T11:53:15Z</time>
      </trkpt>
      <trkpt lat="44.9058" lon="-0.39921">
        <ele>29</ele>
        <time>2020-09-10T11:53:16Z</time>
      </trkpt>
      <trkpt lat="44.9058" lon="-0.39919">
        <ele>28.9</ele>
        <time>2020-09-10T11:53:18Z</time>
      </trkpt>
      <trkpt lat="44.9058" lon="-0.39918">
        <ele>28.9</ele>
        <time>2020-09-10T11:53:19Z</time>
      </trkpt>
      <trkpt lat="44.90579" lon="-0.39916">
        <ele>28.9</ele>
        <time>2020-09-10T11:53:20Z</time>
      </trkpt>
      <trkpt lat="44.90579" lon="-0.39915">
        <ele>28.8</ele>
        <time>2020-09-10T11:53:21Z</time>
      </trkpt>
      <trkpt lat="44.90579" lon="-0.39913">
        <ele>28.8</ele>
        <time>2020-09-10T11:53:22Z</time>
      </trkpt>
      <trkpt lat="44.90579" lon="-0.3991">
        <ele>28.8</ele>
        <time>2020-09-10T11:53:24Z</time>
      </trkpt>
      <trkpt lat="44.90579" lon="-0.39909">
        <ele>28.8</ele>
        <time>2020-09-10T11:53:25Z</time>
      </trkpt>
      <trkpt lat="44.90578" lon="-0.39908">
        <ele>28.8</ele>
        <time>2020-09-10T11:53:26Z</time>
      </trkpt>
      <trkpt lat="44.90578" lon="-0.39907">
        <ele>28.8</ele>
        <time>2020-09-10T11:53:27Z</time>
      </trkpt>
      <trkpt lat="44.90578" lon="-0.39905">
        <ele>28.8</ele>
        <time>2020-09-10T11:53:29Z</time>
      </trkpt>
      <trkpt lat="44.90577" lon="-0.39902">
        <ele>28.7</ele>
        <time>2020-09-10T11:53:30Z</time>
      </trkpt>
      <trkpt lat="44.90576" lon="-0.399">
        <ele>28.7</ele>
        <time>2020-09-10T11:53:31Z</time>
      </trkpt>
      <trkpt lat="44.90574" lon="-0.39898">
        <ele>28.6</ele>
        <time>2020-09-10T11:53:32Z</time>
      </trkpt>
      <trkpt lat="44.90574" lon="-0.39896">
        <ele>28.6</ele>
        <time>2020-09-10T11:53:33Z</time>
      </trkpt>
      <trkpt lat="44.90573" lon="-0.39895">
        <ele>28.6</ele>
        <time>2020-09-10T11:53:34Z</time>
      </trkpt>
      <trkpt lat="44.90572" lon="-0.39892">
        <ele>28.6</ele>
        <time>2020-09-10T11:53:36Z</time>
      </trkpt>
      <trkpt lat="44.90571" lon="-0.39891">
        <ele>28.6</ele>
        <time>2020-09-10T11:53:37Z</time>
      </trkpt>
      <trkpt lat="44.9057" lon="-0.39889">
        <ele>28.5</ele>
        <time>2020-09-10T11:53:38Z</time>
      </trkpt>
      <trkpt lat="44.9057" lon="-0.39887">
        <ele>28.5</ele>
        <time>2020-09-10T11:53:39Z</time>
      </trkpt>
      <trkpt lat="44.90569" lon="-0.39882">
        <ele>28.5</ele>
        <time>2020-09-10T11:53:40Z</time>
      </trkpt>
      <trkpt lat="44.90568" lon="-0.39881">
        <ele>28.5</ele>
        <time>2020-09-10T11:53:41Z</time>
      </trkpt>
      <trkpt lat="44.90567" lon="-0.39877">
        <ele>28.5</ele>
        <time>2020-09-10T11:53:43Z</time>
      </trkpt>
      <trkpt lat="44.90567" lon="-0.39876">
        <ele>28.5</ele>
        <time>2020-09-10T11:53:44Z</time>
      </trkpt>
      <trkpt lat="44.90566" lon="-0.39872">
        <ele>28.5</ele>
        <time>2020-09-10T11:53:45Z</time>
      </trkpt>
      <trkpt lat="44.90566" lon="-0.39871">
        <ele>28.5</ele>
        <time>2020-09-10T11:53:46Z</time>
      </trkpt>
      <trkpt lat="44.90566" lon="-0.39868">
        <ele>28.5</ele>
        <time>2020-09-10T11:53:47Z</time>
      </trkpt>
      <trkpt lat="44.90566" lon="-0.39866">
        <ele>28.5</ele>
        <time>2020-09-10T11:53:49Z</time>
      </trkpt>
      <trkpt lat="44.90566" lon="-0.39863">
        <ele>28.5</ele>
        <time>2020-09-10T11:53:50Z</time>
      </trkpt>
      <trkpt lat="44.90566" lon="-0.39861">
        <ele>28.5</ele>
        <time>2020-09-10T11:53:51Z</time>
      </trkpt>
      <trkpt lat="44.90566" lon="-0.39859">
        <ele>28.5</ele>
        <time>2020-09-10T11:53:52Z</time>
      </trkpt>
      <trkpt lat="44.90566" lon="-0.39857">
        <ele>28.5</ele>
        <time>2020-09-10T11:53:53Z</time>
      </trkpt>
      <trkpt lat="44.90566" lon="-0.39855">
        <ele>28.5</ele>
        <time>2020-09-10T11:53:54Z</time>
      </trkpt>
      <trkpt lat="44.90567" lon="-0.39854">
        <ele>28.5</ele>
        <time>2020-09-10T11:53:55Z</time>
      </trkpt>
      <trkpt lat="44.90568" lon="-0.39853">
        <ele>28.5</ele>
        <time>2020-09-10T11:53:56Z</time>
      </trkpt>
      <trkpt lat="44.90571" lon="-0.39852">
        <ele>28.5</ele>
        <time>2020-09-10T11:53:58Z</time>
      </trkpt>
      <trkpt lat="44.90572" lon="-0.39852">
        <ele>28.5</ele>
        <time>2020-09-10T11:53:59Z</time>
      </trkpt>
      <trkpt lat="44.90574" lon="-0.39851">
        <ele>28.5</ele>
        <time>2020-09-10T11:54:00Z</time>
      </trkpt>
      <trkpt lat="44.90575" lon="-0.39851">
        <ele>28.6</ele>
        <time>2020-09-10T11:54:01Z</time>
      </trkpt>
      <trkpt lat="44.90576" lon="-0.3985">
        <ele>28.6</ele>
        <time>2020-09-10T11:54:02Z</time>
      </trkpt>
      <trkpt lat="44.9058" lon="-0.39848">
        <ele>28.6</ele>
        <time>2020-09-10T11:54:04Z</time>
      </trkpt>
      <trkpt lat="44.90582" lon="-0.39848">
        <ele>28.6</ele>
        <time>2020-09-10T11:54:05Z</time>
      </trkpt>
      <trkpt lat="44.90583" lon="-0.39848">
        <ele>28.7</ele>
        <time>2020-09-10T11:54:07Z</time>
      </trkpt>
      <trkpt lat="44.90585" lon="-0.39848">
        <ele>28.7</ele>
        <time>2020-09-10T11:54:08Z</time>
      </trkpt>
      <trkpt lat="44.90586" lon="-0.39847">
        <ele>28.7</ele>
        <time>2020-09-10T11:54:09Z</time>
      </trkpt>
      <trkpt lat="44.90587" lon="-0.39846">
        <ele>28.8</ele>
        <time>2020-09-10T11:54:10Z</time>
      </trkpt>
      <trkpt lat="44.90589" lon="-0.39845">
        <ele>28.8</ele>
        <time>2020-09-10T11:54:11Z</time>
      </trkpt>
      <trkpt lat="44.9059" lon="-0.39844">
        <ele>28.8</ele>
        <time>2020-09-10T11:54:12Z</time>
      </trkpt>
      <trkpt lat="44.90591" lon="-0.39843">
        <ele>28.8</ele>
        <time>2020-09-10T11:54:13Z</time>
      </trkpt>
      <trkpt lat="44.90591" lon="-0.39843">
        <ele>28.8</ele>
        <time>2020-09-10T11:54:15Z</time>
      </trkpt>
      <trkpt lat="44.90593" lon="-0.39842">
        <ele>28.9</ele>
        <time>2020-09-10T11:54:16Z</time>
      </trkpt>
      <trkpt lat="44.90594" lon="-0.39841">
        <ele>28.9</ele>
        <time>2020-09-10T11:54:17Z</time>
      </trkpt>
      <trkpt lat="44.90595" lon="-0.3984">
        <ele>28.9</ele>
        <time>2020-09-10T11:54:18Z</time>
      </trkpt>
      <trkpt lat="44.90596" lon="-0.39839">
        <ele>29</ele>
        <time>2020-09-10T11:54:19Z</time>
      </trkpt>
      <trkpt lat="44.90597" lon="-0.39839">
        <ele>29</ele>
        <time>2020-09-10T11:54:20Z</time>
      </trkpt>
      <trkpt lat="44.90598" lon="-0.39838">
        <ele>29</ele>
        <time>2020-09-10T11:54:21Z</time>
      </trkpt>
      <trkpt lat="44.90599" lon="-0.39837">
        <ele>29</ele>
        <time>2020-09-10T11:54:22Z</time>
      </trkpt>
      <trkpt lat="44.90601" lon="-0.39836">
        <ele>29</ele>
        <time>2020-09-10T11:54:24Z</time>
      </trkpt>
      <trkpt lat="44.90602" lon="-0.39836">
        <ele>29.1</ele>
        <time>2020-09-10T11:54:25Z</time>
      </trkpt>
      <trkpt lat="44.90604" lon="-0.39835">
        <ele>29.1</ele>
        <time>2020-09-10T11:54:26Z</time>
      </trkpt>
      <trkpt lat="44.90606" lon="-0.39833">
        <ele>29.2</ele>
        <time>2020-09-10T11:54:28Z</time>
      </trkpt>
      <trkpt lat="44.90607" lon="-0.39833">
        <ele>29.2</ele>
        <time>2020-09-10T11:54:29Z</time>
      </trkpt>
      <trkpt lat="44.90608" lon="-0.39832">
        <ele>29.2</ele>
        <time>2020-09-10T11:54:30Z</time>
      </trkpt>
      <trkpt lat="44.90612" lon="-0.3983">
        <ele>29.3</ele>
        <time>2020-09-10T11:54:32Z</time>
      </trkpt>
      <trkpt lat="44.90614" lon="-0.39828">
        <ele>29.4</ele>
        <time>2020-09-10T11:54:33Z</time>
      </trkpt>
      <trkpt lat="44.90615" lon="-0.39828">
        <ele>29.4</ele>
        <time>2020-09-10T11:54:34Z</time>
      </trkpt>
      <trkpt lat="44.90618" lon="-0.39826">
        <ele>29.5</ele>
        <time>2020-09-10T11:54:36Z</time>
      </trkpt>
      <trkpt lat="44.90618" lon="-0.39825">
        <ele>29.4</ele>
        <time>2020-09-10T11:54:37Z</time>
      </trkpt>
      <trkpt lat="44.9062" lon="-0.39824">
        <ele>29.5</ele>
        <time>2020-09-10T11:54:39Z</time>
      </trkpt>
      <trkpt lat="44.90621" lon="-0.39824">
        <ele>29.5</ele>
        <time>2020-09-10T11:54:40Z</time>
      </trkpt>
      <trkpt lat="44.90622" lon="-0.39823">
        <ele>29.5</ele>
        <time>2020-09-10T11:54:41Z</time>
      </trkpt>
      <trkpt lat="44.90623" lon="-0.39823">
        <ele>29.6</ele>
        <time>2020-09-10T11:54:42Z</time>
      </trkpt>
      <trkpt lat="44.90623" lon="-0.39822">
        <ele>29.6</ele>
        <time>2020-09-10T11:54:43Z</time>
      </trkpt>
      <trkpt lat="44.90625" lon="-0.39821">
        <ele>29.6</ele>
        <time>2020-09-10T11:54:45Z</time>
      </trkpt>
      <trkpt lat="44.90626" lon="-0.3982">
        <ele>29.6</ele>
        <time>2020-09-10T11:54:46Z</time>
      </trkpt>
      <trkpt lat="44.90627" lon="-0.39819">
        <ele>29.6</ele>
        <time>2020-09-10T11:54:47Z</time>
      </trkpt>
      <trkpt lat="44.90628" lon="-0.39818">
        <ele>29.6</ele>
        <time>2020-09-10T11:54:49Z</time>
      </trkpt>
      <trkpt lat="44.90629" lon="-0.39816">
        <ele>29.6</ele>
        <time>2020-09-10T11:54:50Z</time>
      </trkpt>
      <trkpt lat="44.9063" lon="-0.39814">
        <ele>29.6</ele>
        <time>2020-09-10T11:54:51Z</time>
      </trkpt>
      <trkpt lat="44.90632" lon="-0.39813">
        <ele>29.6</ele>
        <time>2020-09-10T11:54:53Z</time>
      </trkpt>
      <trkpt lat="44.90633" lon="-0.39811">
        <ele>29.7</ele>
        <time>2020-09-10T11:54:54Z</time>
      </trkpt>
      <trkpt lat="44.90634" lon="-0.39809">
        <ele>29.7</ele>
        <time>2020-09-10T11:54:56Z</time>
      </trkpt>
      <trkpt lat="44.90634" lon="-0.39808">
        <ele>29.6</ele>
        <time>2020-09-10T11:54:57Z</time>
      </trkpt>
      <trkpt lat="44.90635" lon="-0.39807">
        <ele>29.6</ele>
        <time>2020-09-10T11:54:58Z</time>
      </trkpt>
      <trkpt lat="44.90635" lon="-0.39805">
        <ele>29.6</ele>
        <time>2020-09-10T11:55:00Z</time>
      </trkpt>
      <trkpt lat="44.90634" lon="-0.39804">
        <ele>29.6</ele>
        <time>2020-09-10T11:55:01Z</time>
      </trkpt>
      <trkpt lat="44.90634" lon="-0.39803">
        <ele>29.6</ele>
        <time>2020-09-10T11:55:02Z</time>
      </trkpt>
      <trkpt lat="44.90633" lon="-0.39802">
        <ele>29.6</ele>
        <time>2020-09-10T11:55:03Z</time>
      </trkpt>
      <trkpt lat="44.90631" lon="-0.39801">
        <ele>29.6</ele>
        <time>2020-09-10T11:55:04Z</time>
      </trkpt>
      <trkpt lat="44.9063" lon="-0.39799">
        <ele>29.5</ele>
        <time>2020-09-10T11:55:06Z</time>
      </trkpt>
      <trkpt lat="44.90629" lon="-0.39798">
        <ele>29.5</ele>
        <time>2020-09-10T11:55:07Z</time>
      </trkpt>
      <trkpt lat="44.90627" lon="-0.39796">
        <ele>29.5</ele>
        <time>2020-09-10T11:55:09Z</time>
      </trkpt>
      <trkpt lat="44.90625" lon="-0.39794">
        <ele>29.4</ele>
        <time>2020-09-10T11:55:10Z</time>
      </trkpt>
      <trkpt lat="44.90625" lon="-0.39793">
        <ele>29.4</ele>
        <time>2020-09-10T11:55:12Z</time>
      </trkpt>
      <trkpt lat="44.90624" lon="-0.39792">
        <ele>29.4</ele>
        <time>2020-09-10T11:55:13Z</time>
      </trkpt>
      <trkpt lat="44.90623" lon="-0.3979">
        <ele>29.4</ele>
        <time>2020-09-10T11:55:15Z</time>
      </trkpt>
      <trkpt lat="44.90622" lon="-0.39789">
        <ele>29.4</ele>
        <time>2020-09-10T11:55:16Z</time>
      </trkpt>
      <trkpt lat="44.90621" lon="-0.39786">
        <ele>29.3</ele>
        <time>2020-09-10T11:55:17Z</time>
      </trkpt>
      <trkpt lat="44.9062" lon="-0.39785">
        <ele>29.3</ele>
        <time>2020-09-10T11:55:18Z</time>
      </trkpt>
      <trkpt lat="44.9062" lon="-0.39784">
        <ele>29.3</ele>
        <time>2020-09-10T11:55:19Z</time>
      </trkpt>
      <trkpt lat="44.90619" lon="-0.39783">
        <ele>29.3</ele>
        <time>2020-09-10T11:55:20Z</time>
      </trkpt>
      <trkpt lat="44.90619" lon="-0.39781">
        <ele>29.3</ele>
        <time>2020-09-10T11:55:22Z</time>
      </trkpt>
      <trkpt lat="44.90618" lon="-0.3978">
        <ele>29.3</ele>
        <time>2020-09-10T11:55:23Z</time>
      </trkpt>
      <trkpt lat="44.90617" lon="-0.39778">
        <ele>29.3</ele>
        <time>2020-09-10T11:55:24Z</time>
      </trkpt>
      <trkpt lat="44.90616" lon="-0.39777">
        <ele>29.2</ele>
        <time>2020-09-10T11:55:25Z</time>
      </trkpt>
      <trkpt lat="44.90616" lon="-0.39775">
        <ele>29.2</ele>
        <time>2020-09-10T11:55:26Z</time>
      </trkpt>
      <trkpt lat="44.90615" lon="-0.39774">
        <ele>29.2</ele>
        <time>2020-09-10T11:55:27Z</time>
      </trkpt>
      <trkpt lat="44.90615" lon="-0.39773">
        <ele>29.2</ele>
        <time>2020-09-10T11:55:28Z</time>
      </trkpt>
      <trkpt lat="44.90614" lon="-0.39771">
        <ele>29.2</ele>
        <time>2020-09-10T11:55:29Z</time>
      </trkpt>
      <trkpt lat="44.90613" lon="-0.3977">
        <ele>29.2</ele>
        <time>2020-09-10T11:55:30Z</time>
      </trkpt>
      <trkpt lat="44.90613" lon="-0.39769">
        <ele>29.2</ele>
        <time>2020-09-10T11:55:32Z</time>
      </trkpt>
      <trkpt lat="44.90612" lon="-0.39767">
        <ele>29.2</ele>
        <time>2020-09-10T11:55:33Z</time>
      </trkpt>
      <trkpt lat="44.90611" lon="-0.39764">
        <ele>29.2</ele>
        <time>2020-09-10T11:55:35Z</time>
      </trkpt>
      <trkpt lat="44.9061" lon="-0.39763">
        <ele>29.2</ele>
        <time>2020-09-10T11:55:36Z</time>
      </trkpt>
      <trkpt lat="44.90609" lon="-0.39761">
        <ele>29.2</ele>
        <time>2020-09-10T11:55:37Z</time>
      </trkpt>
      <trkpt lat="44.90608" lon="-0.39758">
        <ele>29.2</ele>
        <time>2020-09-10T11:55:38Z</time>
      </trkpt>
      <trkpt lat="44.90607" lon="-0.39757">
        <ele>29.2</ele>
        <time>2020-09-10T11:55:39Z</time>
      </trkpt>
      <trkpt lat="44.90607" lon="-0.39755">
        <ele>29.2</ele>
        <time>2020-09-10T11:55:40Z</time>
      </trkpt>
      <trkpt lat="44.90606" lon="-0.39752">
        <ele>29.2</ele>
        <time>2020-09-10T11:55:42Z</time>
      </trkpt>
      <trkpt lat="44.90605" lon="-0.3975">
        <ele>29.2</ele>
        <time>2020-09-10T11:55:43Z</time>
      </trkpt>
      <trkpt lat="44.90604" lon="-0.39747">
        <ele>29.1</ele>
        <time>2020-09-10T11:55:45Z</time>
      </trkpt>
      <trkpt lat="44.90604" lon="-0.39746">
        <ele>29.1</ele>
        <time>2020-09-10T11:55:46Z</time>
      </trkpt>
      <trkpt lat="44.90604" lon="-0.39744">
        <ele>29.1</ele>
        <time>2020-09-10T11:55:47Z</time>
      </trkpt>
      <trkpt lat="44.90603" lon="-0.39743">
        <ele>29.1</ele>
        <time>2020-09-10T11:55:48Z</time>
      </trkpt>
      <trkpt lat="44.90602" lon="-0.3974">
        <ele>29.1</ele>
        <time>2020-09-10T11:55:50Z</time>
      </trkpt>
      <trkpt lat="44.90602" lon="-0.39738">
        <ele>29.1</ele>
        <time>2020-09-10T11:55:51Z</time>
      </trkpt>
      <trkpt lat="44.90602" lon="-0.39737">
        <ele>29.1</ele>
        <time>2020-09-10T11:55:52Z</time>
      </trkpt>
      <trkpt lat="44.90601" lon="-0.39736">
        <ele>29.1</ele>
        <time>2020-09-10T11:55:53Z</time>
      </trkpt>
      <trkpt lat="44.906" lon="-0.39733">
        <ele>29.1</ele>
        <time>2020-09-10T11:55:55Z</time>
      </trkpt>
      <trkpt lat="44.906" lon="-0.39733">
        <ele>29.1</ele>
        <time>2020-09-10T11:55:56Z</time>
      </trkpt>
      <trkpt lat="44.906" lon="-0.39732">
        <ele>29.1</ele>
        <time>2020-09-10T11:55:57Z</time>
      </trkpt>
      <trkpt lat="44.90599" lon="-0.39728">
        <ele>29.1</ele>
        <time>2020-09-10T11:56:00Z</time>
      </trkpt>
      <trkpt lat="44.90598" lon="-0.39727">
        <ele>29.1</ele>
        <time>2020-09-10T11:56:01Z</time>
      </trkpt>
      <trkpt lat="44.90598" lon="-0.39725">
        <ele>29.1</ele>
        <time>2020-09-10T11:56:02Z</time>
      </trkpt>
      <trkpt lat="44.90598" lon="-0.39724">
        <ele>29.1</ele>
        <time>2020-09-10T11:56:03Z</time>
      </trkpt>
      <trkpt lat="44.90597" lon="-0.39721">
        <ele>29.1</ele>
        <time>2020-09-10T11:56:05Z</time>
      </trkpt>
      <trkpt lat="44.90597" lon="-0.3972">
        <ele>29.1</ele>
        <time>2020-09-10T11:56:06Z</time>
      </trkpt>
      <trkpt lat="44.90596" lon="-0.39719">
        <ele>29.1</ele>
        <time>2020-09-10T11:56:07Z</time>
      </trkpt>
      <trkpt lat="44.90596" lon="-0.39718">
        <ele>29.1</ele>
        <time>2020-09-10T11:56:08Z</time>
      </trkpt>
      <trkpt lat="44.90595" lon="-0.39715">
        <ele>29.1</ele>
        <time>2020-09-10T11:56:10Z</time>
      </trkpt>
      <trkpt lat="44.90595" lon="-0.39713">
        <ele>29.1</ele>
        <time>2020-09-10T11:56:11Z</time>
      </trkpt>
      <trkpt lat="44.90596" lon="-0.39711">
        <ele>29.1</ele>
        <time>2020-09-10T11:56:12Z</time>
      </trkpt>
      <trkpt lat="44.90599" lon="-0.39706">
        <ele>29.1</ele>
        <time>2020-09-10T11:56:15Z</time>
      </trkpt>
      <trkpt lat="44.90599" lon="-0.39705">
        <ele>29</ele>
        <time>2020-09-10T11:56:17Z</time>
      </trkpt>
      <trkpt lat="44.906" lon="-0.39704">
        <ele>29</ele>
        <time>2020-09-10T11:56:18Z</time>
      </trkpt>
      <trkpt lat="44.90601" lon="-0.39703">
        <ele>29</ele>
        <time>2020-09-10T11:56:19Z</time>
      </trkpt>
      <trkpt lat="44.90602" lon="-0.39701">
        <ele>29</ele>
        <time>2020-09-10T11:56:20Z</time>
      </trkpt>
      <trkpt lat="44.90603" lon="-0.39701">
        <ele>29</ele>
        <time>2020-09-10T11:56:21Z</time>
      </trkpt>
      <trkpt lat="44.90604" lon="-0.397">
        <ele>29</ele>
        <time>2020-09-10T11:56:23Z</time>
      </trkpt>
      <trkpt lat="44.90606" lon="-0.39698">
        <ele>29</ele>
        <time>2020-09-10T11:56:25Z</time>
      </trkpt>
      <trkpt lat="44.90607" lon="-0.39698">
        <ele>29</ele>
        <time>2020-09-10T11:56:27Z</time>
      </trkpt>
      <trkpt lat="44.90609" lon="-0.39697">
        <ele>29</ele>
        <time>2020-09-10T11:56:28Z</time>
      </trkpt>
      <trkpt lat="44.9061" lon="-0.39696">
        <ele>29</ele>
        <time>2020-09-10T11:56:29Z</time>
      </trkpt>
      <trkpt lat="44.90612" lon="-0.39695">
        <ele>28.9</ele>
        <time>2020-09-10T11:56:30Z</time>
      </trkpt>
      <trkpt lat="44.90613" lon="-0.39695">
        <ele>28.9</ele>
        <time>2020-09-10T11:56:31Z</time>
      </trkpt>
      <trkpt lat="44.90615" lon="-0.39694">
        <ele>28.9</ele>
        <time>2020-09-10T11:56:32Z</time>
      </trkpt>
      <trkpt lat="44.90616" lon="-0.39694">
        <ele>28.9</ele>
        <time>2020-09-10T11:56:33Z</time>
      </trkpt>
      <trkpt lat="44.9062" lon="-0.39692">
        <ele>28.9</ele>
        <time>2020-09-10T11:56:35Z</time>
      </trkpt>
      <trkpt lat="44.90623" lon="-0.3969">
        <ele>28.8</ele>
        <time>2020-09-10T11:56:36Z</time>
      </trkpt>
      <trkpt lat="44.90624" lon="-0.39689">
        <ele>28.8</ele>
        <time>2020-09-10T11:56:38Z</time>
      </trkpt>
      <trkpt lat="44.90626" lon="-0.39688">
        <ele>28.8</ele>
        <time>2020-09-10T11:56:39Z</time>
      </trkpt>
      <trkpt lat="44.90627" lon="-0.39686">
        <ele>28.8</ele>
        <time>2020-09-10T11:56:40Z</time>
      </trkpt>
      <trkpt lat="44.90629" lon="-0.39685">
        <ele>28.8</ele>
        <time>2020-09-10T11:56:41Z</time>
      </trkpt>
      <trkpt lat="44.9063" lon="-0.39684">
        <ele>28.7</ele>
        <time>2020-09-10T11:56:42Z</time>
      </trkpt>
      <trkpt lat="44.90632" lon="-0.39683">
        <ele>28.7</ele>
        <time>2020-09-10T11:56:43Z</time>
      </trkpt>
      <trkpt lat="44.90633" lon="-0.39682">
        <ele>28.7</ele>
        <time>2020-09-10T11:56:44Z</time>
      </trkpt>
      <trkpt lat="44.90634" lon="-0.3968">
        <ele>28.7</ele>
        <time>2020-09-10T11:56:46Z</time>
      </trkpt>
      <trkpt lat="44.90635" lon="-0.39679">
        <ele>28.6</ele>
        <time>2020-09-10T11:56:47Z</time>
      </trkpt>
      <trkpt lat="44.90636" lon="-0.39679">
        <ele>28.6</ele>
        <time>2020-09-10T11:56:48Z</time>
      </trkpt>
      <trkpt lat="44.90637" lon="-0.39678">
        <ele>28.6</ele>
        <time>2020-09-10T11:56:50Z</time>
      </trkpt>
      <trkpt lat="44.90638" lon="-0.39678">
        <ele>28.6</ele>
        <time>2020-09-10T11:56:51Z</time>
      </trkpt>
      <trkpt lat="44.9064" lon="-0.39677">
        <ele>28.6</ele>
        <time>2020-09-10T11:56:52Z</time>
      </trkpt>
      <trkpt lat="44.90641" lon="-0.39676">
        <ele>28.6</ele>
        <time>2020-09-10T11:56:53Z</time>
      </trkpt>
      <trkpt lat="44.90642" lon="-0.39675">
        <ele>28.5</ele>
        <time>2020-09-10T11:56:55Z</time>
      </trkpt>
      <trkpt lat="44.90643" lon="-0.39675">
        <ele>28.5</ele>
        <time>2020-09-10T11:56:56Z</time>
      </trkpt>
      <trkpt lat="44.90644" lon="-0.39674">
        <ele>28.5</ele>
        <time>2020-09-10T11:56:57Z</time>
      </trkpt>
      <trkpt lat="44.90645" lon="-0.39673">
        <ele>28.5</ele>
        <time>2020-09-10T11:56:59Z</time>
      </trkpt>
      <trkpt lat="44.90648" lon="-0.39673">
        <ele>28.5</ele>
        <time>2020-09-10T11:57:00Z</time>
      </trkpt>
      <trkpt lat="44.90649" lon="-0.39672">
        <ele>28.5</ele>
        <time>2020-09-10T11:57:01Z</time>
      </trkpt>
      <trkpt lat="44.90651" lon="-0.39671">
        <ele>28.5</ele>
        <time>2020-09-10T11:57:02Z</time>
      </trkpt>
      <trkpt lat="44.90653" lon="-0.39671">
        <ele>28.4</ele>
        <time>2020-09-10T11:57:04Z</time>
      </trkpt>
      <trkpt lat="44.90653" lon="-0.3967">
        <ele>28.4</ele>
        <time>2020-09-10T11:57:06Z</time>
      </trkpt>
      <trkpt lat="44.90654" lon="-0.3967">
        <ele>28.4</ele>
        <time>2020-09-10T11:57:07Z</time>
      </trkpt>
      <trkpt lat="44.90654" lon="-0.39671">
        <ele>28.4</ele>
        <time>2020-09-10T11:57:09Z</time>
      </trkpt>
      <trkpt lat="44.90654" lon="-0.3967">
        <ele>28.4</ele>
        <time>2020-09-10T11:57:10Z</time>
      </trkpt>
      <trkpt lat="44.90655" lon="-0.3967">
        <ele>28.4</ele>
        <time>2020-09-10T11:57:11Z</time>
      </trkpt>
      <trkpt lat="44.90658" lon="-0.39668">
        <ele>28.4</ele>
        <time>2020-09-10T11:57:13Z</time>
      </trkpt>
      <trkpt lat="44.9066" lon="-0.39668">
        <ele>28.3</ele>
        <time>2020-09-10T11:57:15Z</time>
      </trkpt>
      <trkpt lat="44.9066" lon="-0.39667">
        <ele>28.3</ele>
        <time>2020-09-10T11:57:16Z</time>
      </trkpt>
      <trkpt lat="44.9066" lon="-0.39667">
        <ele>28.3</ele>
        <time>2020-09-10T11:57:17Z</time>
      </trkpt>
      <trkpt lat="44.9066" lon="-0.39667">
        <ele>28.3</ele>
        <time>2020-09-10T11:57:19Z</time>
      </trkpt>
      <trkpt lat="44.90661" lon="-0.39667">
        <ele>28.3</ele>
        <time>2020-09-10T11:57:20Z</time>
      </trkpt>
      <trkpt lat="44.90661" lon="-0.39666">
        <ele>28.3</ele>
        <time>2020-09-10T11:57:21Z</time>
      </trkpt>
      <trkpt lat="44.90663" lon="-0.39665">
        <ele>28.2</ele>
        <time>2020-09-10T11:57:22Z</time>
      </trkpt>
      <trkpt lat="44.90664" lon="-0.39664">
        <ele>28.2</ele>
        <time>2020-09-10T11:57:24Z</time>
      </trkpt>
      <trkpt lat="44.90664" lon="-0.39663">
        <ele>28.2</ele>
        <time>2020-09-10T11:57:25Z</time>
      </trkpt>
      <trkpt lat="44.90665" lon="-0.39663">
        <ele>28.2</ele>
        <time>2020-09-10T11:57:26Z</time>
      </trkpt>
      <trkpt lat="44.90666" lon="-0.39662">
        <ele>28.2</ele>
        <time>2020-09-10T11:57:27Z</time>
      </trkpt>
      <trkpt lat="44.90666" lon="-0.39661">
        <ele>28.2</ele>
        <time>2020-09-10T11:57:28Z</time>
      </trkpt>
      <trkpt lat="44.90667" lon="-0.3966">
        <ele>28.2</ele>
        <time>2020-09-10T11:57:29Z</time>
      </trkpt>
      <trkpt lat="44.90666" lon="-0.3966">
        <ele>28.2</ele>
        <time>2020-09-10T11:57:31Z</time>
      </trkpt>
      <trkpt lat="44.90665" lon="-0.39659">
        <ele>28.2</ele>
        <time>2020-09-10T11:57:32Z</time>
      </trkpt>
      <trkpt lat="44.90664" lon="-0.39658">
        <ele>28.2</ele>
        <time>2020-09-10T11:57:33Z</time>
      </trkpt>
      <trkpt lat="44.90663" lon="-0.39657">
        <ele>28.2</ele>
        <time>2020-09-10T11:57:34Z</time>
      </trkpt>
      <trkpt lat="44.90662" lon="-0.39656">
        <ele>28.2</ele>
        <time>2020-09-10T11:57:35Z</time>
      </trkpt>
      <trkpt lat="44.90662" lon="-0.39655">
        <ele>28.2</ele>
        <time>2020-09-10T11:57:36Z</time>
      </trkpt>
      <trkpt lat="44.90662" lon="-0.39652">
        <ele>28.2</ele>
        <time>2020-09-10T11:57:37Z</time>
      </trkpt>
      <trkpt lat="44.90662" lon="-0.3965">
        <ele>28.2</ele>
        <time>2020-09-10T11:57:38Z</time>
      </trkpt>
      <trkpt lat="44.90661" lon="-0.39649">
        <ele>28.2</ele>
        <time>2020-09-10T11:57:40Z</time>
      </trkpt>
      <trkpt lat="44.90661" lon="-0.39648">
        <ele>28.2</ele>
        <time>2020-09-10T11:57:41Z</time>
      </trkpt>
      <trkpt lat="44.90661" lon="-0.39646">
        <ele>28.2</ele>
        <time>2020-09-10T11:57:42Z</time>
      </trkpt>
      <trkpt lat="44.90661" lon="-0.39645">
        <ele>28.1</ele>
        <time>2020-09-10T11:57:43Z</time>
      </trkpt>
      <trkpt lat="44.90661" lon="-0.39644">
        <ele>28.1</ele>
        <time>2020-09-10T11:57:44Z</time>
      </trkpt>
      <trkpt lat="44.90661" lon="-0.39643">
        <ele>28.1</ele>
        <time>2020-09-10T11:57:45Z</time>
      </trkpt>
      <trkpt lat="44.9066" lon="-0.39642">
        <ele>28.1</ele>
        <time>2020-09-10T11:57:46Z</time>
      </trkpt>
      <trkpt lat="44.9066" lon="-0.3964">
        <ele>28.1</ele>
        <time>2020-09-10T11:57:47Z</time>
      </trkpt>
      <trkpt lat="44.90659" lon="-0.39637">
        <ele>28.1</ele>
        <time>2020-09-10T11:57:48Z</time>
      </trkpt>
      <trkpt lat="44.90659" lon="-0.39636">
        <ele>28.1</ele>
        <time>2020-09-10T11:57:50Z</time>
      </trkpt>
      <trkpt lat="44.90658" lon="-0.39635">
        <ele>28.1</ele>
        <time>2020-09-10T11:57:51Z</time>
      </trkpt>
      <trkpt lat="44.90658" lon="-0.39634">
        <ele>28.1</ele>
        <time>2020-09-10T11:57:52Z</time>
      </trkpt>
      <trkpt lat="44.90657" lon="-0.39632">
        <ele>28.1</ele>
        <time>2020-09-10T11:57:53Z</time>
      </trkpt>
      <trkpt lat="44.90657" lon="-0.39631">
        <ele>28.1</ele>
        <time>2020-09-10T11:57:54Z</time>
      </trkpt>
      <trkpt lat="44.90657" lon="-0.3963">
        <ele>28.1</ele>
        <time>2020-09-10T11:57:55Z</time>
      </trkpt>
      <trkpt lat="44.90656" lon="-0.39628">
        <ele>28.1</ele>
        <time>2020-09-10T11:57:56Z</time>
      </trkpt>
      <trkpt lat="44.90655" lon="-0.39626">
        <ele>28.1</ele>
        <time>2020-09-10T11:57:58Z</time>
      </trkpt>
      <trkpt lat="44.90654" lon="-0.39622">
        <ele>28.1</ele>
        <time>2020-09-10T11:57:59Z</time>
      </trkpt>
      <trkpt lat="44.90654" lon="-0.39621">
        <ele>28.1</ele>
        <time>2020-09-10T11:58:00Z</time>
      </trkpt>
      <trkpt lat="44.90653" lon="-0.39618">
        <ele>28.1</ele>
        <time>2020-09-10T11:58:01Z</time>
      </trkpt>
      <trkpt lat="44.90653" lon="-0.39617">
        <ele>28.2</ele>
        <time>2020-09-10T11:58:02Z</time>
      </trkpt>
      <trkpt lat="44.90651" lon="-0.39614">
        <ele>28.2</ele>
        <time>2020-09-10T11:58:03Z</time>
      </trkpt>
      <trkpt lat="44.90651" lon="-0.39612">
        <ele>28.2</ele>
        <time>2020-09-10T11:58:05Z</time>
      </trkpt>
      <trkpt lat="44.9065" lon="-0.39611">
        <ele>28.2</ele>
        <time>2020-09-10T11:58:06Z</time>
      </trkpt>
      <trkpt lat="44.90649" lon="-0.39608">
        <ele>28.2</ele>
        <time>2020-09-10T11:58:07Z</time>
      </trkpt>
      <trkpt lat="44.90649" lon="-0.39606">
        <ele>28.2</ele>
        <time>2020-09-10T11:58:09Z</time>
      </trkpt>
      <trkpt lat="44.90648" lon="-0.39605">
        <ele>28.2</ele>
        <time>2020-09-10T11:58:10Z</time>
      </trkpt>
      <trkpt lat="44.90648" lon="-0.39603">
        <ele>28.2</ele>
        <time>2020-09-10T11:58:11Z</time>
      </trkpt>
      <trkpt lat="44.90647" lon="-0.39602">
        <ele>28.2</ele>
        <time>2020-09-10T11:58:12Z</time>
      </trkpt>
      <trkpt lat="44.90646" lon="-0.39598">
        <ele>28.2</ele>
        <time>2020-09-10T11:58:14Z</time>
      </trkpt>
      <trkpt lat="44.90646" lon="-0.39597">
        <ele>28.2</ele>
        <time>2020-09-10T11:58:16Z</time>
      </trkpt>
      <trkpt lat="44.90644" lon="-0.39594">
        <ele>28.2</ele>
        <time>2020-09-10T11:58:18Z</time>
      </trkpt>
      <trkpt lat="44.90643" lon="-0.39591">
        <ele>28.3</ele>
        <time>2020-09-10T11:58:20Z</time>
      </trkpt>
      <trkpt lat="44.90642" lon="-0.3959">
        <ele>28.3</ele>
        <time>2020-09-10T11:58:21Z</time>
      </trkpt>
      <trkpt lat="44.90642" lon="-0.39589">
        <ele>28.3</ele>
        <time>2020-09-10T11:58:22Z</time>
      </trkpt>
      <trkpt lat="44.9064" lon="-0.39586">
        <ele>28.3</ele>
        <time>2020-09-10T11:58:24Z</time>
      </trkpt>
      <trkpt lat="44.9064" lon="-0.39585">
        <ele>28.3</ele>
        <time>2020-09-10T11:58:25Z</time>
      </trkpt>
      <trkpt lat="44.9064" lon="-0.39583">
        <ele>28.3</ele>
        <time>2020-09-10T11:58:26Z</time>
      </trkpt>
      <trkpt lat="44.90639" lon="-0.39582">
        <ele>28.3</ele>
        <time>2020-09-10T11:58:27Z</time>
      </trkpt>
      <trkpt lat="44.90639" lon="-0.3958">
        <ele>28.3</ele>
        <time>2020-09-10T11:58:28Z</time>
      </trkpt>
      <trkpt lat="44.90638" lon="-0.39578">
        <ele>28.4</ele>
        <time>2020-09-10T11:58:30Z</time>
      </trkpt>
      <trkpt lat="44.90637" lon="-0.39577">
        <ele>28.3</ele>
        <time>2020-09-10T11:58:31Z</time>
      </trkpt>
      <trkpt lat="44.90637" lon="-0.39575">
        <ele>28.3</ele>
        <time>2020-09-10T11:58:32Z</time>
      </trkpt>
      <trkpt lat="44.90637" lon="-0.39573">
        <ele>28.3</ele>
        <time>2020-09-10T11:58:33Z</time>
      </trkpt>
      <trkpt lat="44.90636" lon="-0.39569">
        <ele>28.3</ele>
        <time>2020-09-10T11:58:35Z</time>
      </trkpt>
      <trkpt lat="44.90636" lon="-0.39567">
        <ele>28.3</ele>
        <time>2020-09-10T11:58:36Z</time>
      </trkpt>
      <trkpt lat="44.90636" lon="-0.39566">
        <ele>28.3</ele>
        <time>2020-09-10T11:58:37Z</time>
      </trkpt>
      <trkpt lat="44.90636" lon="-0.39564">
        <ele>28.3</ele>
        <time>2020-09-10T11:58:38Z</time>
      </trkpt>
      <trkpt lat="44.90635" lon="-0.39562">
        <ele>28.3</ele>
        <time>2020-09-10T11:58:39Z</time>
      </trkpt>
      <trkpt lat="44.90635" lon="-0.3956">
        <ele>28.3</ele>
        <time>2020-09-10T11:58:41Z</time>
      </trkpt>
      <trkpt lat="44.90635" lon="-0.39558">
        <ele>28.4</ele>
        <time>2020-09-10T11:58:42Z</time>
      </trkpt>
      <trkpt lat="44.90634" lon="-0.39556">
        <ele>28.4</ele>
        <time>2020-09-10T11:58:43Z</time>
      </trkpt>
      <trkpt lat="44.90633" lon="-0.39552">
        <ele>28.3</ele>
        <time>2020-09-10T11:58:44Z</time>
      </trkpt>
      <trkpt lat="44.90632" lon="-0.39551">
        <ele>28.3</ele>
        <time>2020-09-10T11:58:45Z</time>
      </trkpt>
      <trkpt lat="44.90632" lon="-0.39549">
        <ele>28.4</ele>
        <time>2020-09-10T11:58:46Z</time>
      </trkpt>
      <trkpt lat="44.90631" lon="-0.39547">
        <ele>28.4</ele>
        <time>2020-09-10T11:58:47Z</time>
      </trkpt>
      <trkpt lat="44.9063" lon="-0.39546">
        <ele>28.3</ele>
        <time>2020-09-10T11:58:49Z</time>
      </trkpt>
      <trkpt lat="44.90629" lon="-0.39545">
        <ele>28.3</ele>
        <time>2020-09-10T11:58:50Z</time>
      </trkpt>
      <trkpt lat="44.90628" lon="-0.39543">
        <ele>28.4</ele>
        <time>2020-09-10T11:58:51Z</time>
      </trkpt>
      <trkpt lat="44.90628" lon="-0.39541">
        <ele>28.3</ele>
        <time>2020-09-10T11:58:52Z</time>
      </trkpt>
      <trkpt lat="44.90627" lon="-0.3954">
        <ele>28.3</ele>
        <time>2020-09-10T11:58:53Z</time>
      </trkpt>
      <trkpt lat="44.90627" lon="-0.39539">
        <ele>28.3</ele>
        <time>2020-09-10T11:58:54Z</time>
      </trkpt>
      <trkpt lat="44.90626" lon="-0.39538">
        <ele>28.3</ele>
        <time>2020-09-10T11:58:56Z</time>
      </trkpt>
      <trkpt lat="44.90625" lon="-0.39536">
        <ele>28.3</ele>
        <time>2020-09-10T11:58:57Z</time>
      </trkpt>
      <trkpt lat="44.90625" lon="-0.39534">
        <ele>28.3</ele>
        <time>2020-09-10T11:58:58Z</time>
      </trkpt>
      <trkpt lat="44.90625" lon="-0.39533">
        <ele>28.3</ele>
        <time>2020-09-10T11:58:59Z</time>
      </trkpt>
      <trkpt lat="44.90624" lon="-0.3953">
        <ele>28.3</ele>
        <time>2020-09-10T11:59:01Z</time>
      </trkpt>
      <trkpt lat="44.90624" lon="-0.39529">
        <ele>28.3</ele>
        <time>2020-09-10T11:59:02Z</time>
      </trkpt>
      <trkpt lat="44.90625" lon="-0.39526">
        <ele>28.3</ele>
        <time>2020-09-10T11:59:03Z</time>
      </trkpt>
      <trkpt lat="44.90627" lon="-0.39525">
        <ele>28.3</ele>
        <time>2020-09-10T11:59:04Z</time>
      </trkpt>
      <trkpt lat="44.90628" lon="-0.39525">
        <ele>28.3</ele>
        <time>2020-09-10T11:59:06Z</time>
      </trkpt>
      <trkpt lat="44.90629" lon="-0.39524">
        <ele>28.3</ele>
        <time>2020-09-10T11:59:07Z</time>
      </trkpt>
      <trkpt lat="44.90632" lon="-0.39522">
        <ele>28.2</ele>
        <time>2020-09-10T11:59:09Z</time>
      </trkpt>
      <trkpt lat="44.90633" lon="-0.39522">
        <ele>28.2</ele>
        <time>2020-09-10T11:59:10Z</time>
      </trkpt>
      <trkpt lat="44.90634" lon="-0.39521">
        <ele>28.2</ele>
        <time>2020-09-10T11:59:11Z</time>
      </trkpt>
      <trkpt lat="44.90635" lon="-0.39521">
        <ele>28.2</ele>
        <time>2020-09-10T11:59:12Z</time>
      </trkpt>
      <trkpt lat="44.90637" lon="-0.3952">
        <ele>28.2</ele>
        <time>2020-09-10T11:59:14Z</time>
      </trkpt>
      <trkpt lat="44.90639" lon="-0.3952">
        <ele>28.2</ele>
        <time>2020-09-10T11:59:15Z</time>
      </trkpt>
      <trkpt lat="44.9064" lon="-0.3952">
        <ele>28.2</ele>
        <time>2020-09-10T11:59:16Z</time>
      </trkpt>
      <trkpt lat="44.90641" lon="-0.39519">
        <ele>28.2</ele>
        <time>2020-09-10T11:59:17Z</time>
      </trkpt>
      <trkpt lat="44.90642" lon="-0.39518">
        <ele>28.2</ele>
        <time>2020-09-10T11:59:18Z</time>
      </trkpt>
      <trkpt lat="44.90643" lon="-0.39517">
        <ele>28.2</ele>
        <time>2020-09-10T11:59:19Z</time>
      </trkpt>
      <trkpt lat="44.90645" lon="-0.39517">
        <ele>28.2</ele>
        <time>2020-09-10T11:59:20Z</time>
      </trkpt>
      <trkpt lat="44.90647" lon="-0.39515">
        <ele>28.2</ele>
        <time>2020-09-10T11:59:22Z</time>
      </trkpt>
      <trkpt lat="44.90649" lon="-0.39513">
        <ele>28.2</ele>
        <time>2020-09-10T11:59:24Z</time>
      </trkpt>
      <trkpt lat="44.90651" lon="-0.39512">
        <ele>28.1</ele>
        <time>2020-09-10T11:59:25Z</time>
      </trkpt>
      <trkpt lat="44.90652" lon="-0.39512">
        <ele>28.2</ele>
        <time>2020-09-10T11:59:27Z</time>
      </trkpt>
      <trkpt lat="44.90653" lon="-0.39511">
        <ele>28.1</ele>
        <time>2020-09-10T11:59:28Z</time>
      </trkpt>
      <trkpt lat="44.90655" lon="-0.3951">
        <ele>28.1</ele>
        <time>2020-09-10T11:59:29Z</time>
      </trkpt>
      <trkpt lat="44.90656" lon="-0.39509">
        <ele>28.1</ele>
        <time>2020-09-10T11:59:31Z</time>
      </trkpt>
      <trkpt lat="44.90657" lon="-0.39508">
        <ele>28.1</ele>
        <time>2020-09-10T11:59:32Z</time>
      </trkpt>
      <trkpt lat="44.90658" lon="-0.39508">
        <ele>28.1</ele>
        <time>2020-09-10T11:59:33Z</time>
      </trkpt>
      <trkpt lat="44.9066" lon="-0.39506">
        <ele>28.1</ele>
        <time>2020-09-10T11:59:34Z</time>
      </trkpt>
      <trkpt lat="44.9066" lon="-0.39506">
        <ele>28.1</ele>
        <time>2020-09-10T11:59:36Z</time>
      </trkpt>
      <trkpt lat="44.90661" lon="-0.39505">
        <ele>28.1</ele>
        <time>2020-09-10T11:59:37Z</time>
      </trkpt>
      <trkpt lat="44.90663" lon="-0.39504">
        <ele>28.1</ele>
        <time>2020-09-10T11:59:38Z</time>
      </trkpt>
      <trkpt lat="44.90664" lon="-0.39503">
        <ele>28.1</ele>
        <time>2020-09-10T11:59:39Z</time>
      </trkpt>
      <trkpt lat="44.90665" lon="-0.39503">
        <ele>28.1</ele>
        <time>2020-09-10T11:59:41Z</time>
      </trkpt>
      <trkpt lat="44.90666" lon="-0.39503">
        <ele>28.1</ele>
        <time>2020-09-10T11:59:42Z</time>
      </trkpt>
      <trkpt lat="44.90668" lon="-0.39502">
        <ele>28.1</ele>
        <time>2020-09-10T11:59:43Z</time>
      </trkpt>
      <trkpt lat="44.9067" lon="-0.39501">
        <ele>28.1</ele>
        <time>2020-09-10T11:59:44Z</time>
      </trkpt>
      <trkpt lat="44.90671" lon="-0.395">
        <ele>28.1</ele>
        <time>2020-09-10T11:59:45Z</time>
      </trkpt>
      <trkpt lat="44.90673" lon="-0.39499">
        <ele>28.1</ele>
        <time>2020-09-10T11:59:46Z</time>
      </trkpt>
      <trkpt lat="44.90674" lon="-0.39498">
        <ele>28.1</ele>
        <time>2020-09-10T11:59:47Z</time>
      </trkpt>
      <trkpt lat="44.90675" lon="-0.39498">
        <ele>28.1</ele>
        <time>2020-09-10T11:59:48Z</time>
      </trkpt>
      <trkpt lat="44.90677" lon="-0.39497">
        <ele>28.1</ele>
        <time>2020-09-10T11:59:49Z</time>
      </trkpt>
      <trkpt lat="44.90678" lon="-0.39496">
        <ele>28.1</ele>
        <time>2020-09-10T11:59:50Z</time>
      </trkpt>
      <trkpt lat="44.90679" lon="-0.39496">
        <ele>28.1</ele>
        <time>2020-09-10T11:59:51Z</time>
      </trkpt>
      <trkpt lat="44.9068" lon="-0.39495">
        <ele>28.2</ele>
        <time>2020-09-10T11:59:52Z</time>
      </trkpt>
      <trkpt lat="44.90682" lon="-0.39493">
        <ele>28.2</ele>
        <time>2020-09-10T11:59:54Z</time>
      </trkpt>
      <trkpt lat="44.90685" lon="-0.39492">
        <ele>28.2</ele>
        <time>2020-09-10T11:59:56Z</time>
      </trkpt>
      <trkpt lat="44.90686" lon="-0.39491">
        <ele>28.2</ele>
        <time>2020-09-10T11:59:58Z</time>
      </trkpt>
      <trkpt lat="44.90688" lon="-0.3949">
        <ele>28.2</ele>
        <time>2020-09-10T11:59:59Z</time>
      </trkpt>
      <trkpt lat="44.90689" lon="-0.39489">
        <ele>28.2</ele>
        <time>2020-09-10T12:00:00Z</time>
      </trkpt>
      <trkpt lat="44.90689" lon="-0.39489">
        <ele>28.2</ele>
        <time>2020-09-10T12:00:01Z</time>
      </trkpt>
      <trkpt lat="44.9069" lon="-0.39489">
        <ele>28.2</ele>
        <time>2020-09-10T12:00:02Z</time>
      </trkpt>
      <trkpt lat="44.90693" lon="-0.39487">
        <ele>28.2</ele>
        <time>2020-09-10T12:00:03Z</time>
      </trkpt>
      <trkpt lat="44.90694" lon="-0.39487">
        <ele>28.2</ele>
        <time>2020-09-10T12:00:04Z</time>
      </trkpt>
      <trkpt lat="44.90695" lon="-0.39486">
        <ele>28.2</ele>
        <time>2020-09-10T12:00:05Z</time>
      </trkpt>
      <trkpt lat="44.90697" lon="-0.39485">
        <ele>28.2</ele>
        <time>2020-09-10T12:00:07Z</time>
      </trkpt>
      <trkpt lat="44.90698" lon="-0.39484">
        <ele>28.2</ele>
        <time>2020-09-10T12:00:08Z</time>
      </trkpt>
      <trkpt lat="44.907" lon="-0.39484">
        <ele>28.2</ele>
        <time>2020-09-10T12:00:09Z</time>
      </trkpt>
      <trkpt lat="44.90701" lon="-0.39484">
        <ele>28.2</ele>
        <time>2020-09-10T12:00:11Z</time>
      </trkpt>
      <trkpt lat="44.90703" lon="-0.39483">
        <ele>28.2</ele>
        <time>2020-09-10T12:00:12Z</time>
      </trkpt>
      <trkpt lat="44.90705" lon="-0.39482">
        <ele>28.2</ele>
        <time>2020-09-10T12:00:13Z</time>
      </trkpt>
      <trkpt lat="44.90706" lon="-0.39482">
        <ele>28.2</ele>
        <time>2020-09-10T12:00:14Z</time>
      </trkpt>
      <trkpt lat="44.90709" lon="-0.3948">
        <ele>28.2</ele>
        <time>2020-09-10T12:00:16Z</time>
      </trkpt>
      <trkpt lat="44.90709" lon="-0.3948">
        <ele>28.2</ele>
        <time>2020-09-10T12:00:17Z</time>
      </trkpt>
      <trkpt lat="44.90711" lon="-0.39478">
        <ele>28.2</ele>
        <time>2020-09-10T12:00:18Z</time>
      </trkpt>
      <trkpt lat="44.90712" lon="-0.39478">
        <ele>28.3</ele>
        <time>2020-09-10T12:00:19Z</time>
      </trkpt>
      <trkpt lat="44.90713" lon="-0.39477">
        <ele>28.3</ele>
        <time>2020-09-10T12:00:21Z</time>
      </trkpt>
      <trkpt lat="44.90715" lon="-0.39476">
        <ele>28.3</ele>
        <time>2020-09-10T12:00:22Z</time>
      </trkpt>
      <trkpt lat="44.90716" lon="-0.39476">
        <ele>28.3</ele>
        <time>2020-09-10T12:00:23Z</time>
      </trkpt>
      <trkpt lat="44.90718" lon="-0.39474">
        <ele>28.3</ele>
        <time>2020-09-10T12:00:24Z</time>
      </trkpt>
      <trkpt lat="44.90719" lon="-0.39473">
        <ele>28.3</ele>
        <time>2020-09-10T12:00:25Z</time>
      </trkpt>
      <trkpt lat="44.9072" lon="-0.39472">
        <ele>28.3</ele>
        <time>2020-09-10T12:00:26Z</time>
      </trkpt>
      <trkpt lat="44.90722" lon="-0.39471">
        <ele>28.3</ele>
        <time>2020-09-10T12:00:27Z</time>
      </trkpt>
      <trkpt lat="44.90723" lon="-0.39471">
        <ele>28.3</ele>
        <time>2020-09-10T12:00:28Z</time>
      </trkpt>
      <trkpt lat="44.90724" lon="-0.3947">
        <ele>28.3</ele>
        <time>2020-09-10T12:00:29Z</time>
      </trkpt>
      <trkpt lat="44.90726" lon="-0.39469">
        <ele>28.3</ele>
        <time>2020-09-10T12:00:31Z</time>
      </trkpt>
      <trkpt lat="44.90726" lon="-0.39469">
        <ele>28.3</ele>
        <time>2020-09-10T12:00:32Z</time>
      </trkpt>
      <trkpt lat="44.90727" lon="-0.39468">
        <ele>28.3</ele>
        <time>2020-09-10T12:00:33Z</time>
      </trkpt>
      <trkpt lat="44.90728" lon="-0.39467">
        <ele>28.3</ele>
        <time>2020-09-10T12:00:34Z</time>
      </trkpt>
      <trkpt lat="44.9073" lon="-0.39465">
        <ele>28.3</ele>
        <time>2020-09-10T12:00:35Z</time>
      </trkpt>
      <trkpt lat="44.9073" lon="-0.39465">
        <ele>28.4</ele>
        <time>2020-09-10T12:00:36Z</time>
      </trkpt>
      <trkpt lat="44.90729" lon="-0.39463">
        <ele>28.4</ele>
        <time>2020-09-10T12:00:37Z</time>
      </trkpt>
      <trkpt lat="44.90728" lon="-0.39461">
        <ele>28.4</ele>
        <time>2020-09-10T12:00:39Z</time>
      </trkpt>
      <trkpt lat="44.90729" lon="-0.39458">
        <ele>28.4</ele>
        <time>2020-09-10T12:00:41Z</time>
      </trkpt>
      <trkpt lat="44.90729" lon="-0.39457">
        <ele>28.4</ele>
        <time>2020-09-10T12:00:42Z</time>
      </trkpt>
      <trkpt lat="44.90731" lon="-0.39455">
        <ele>28.5</ele>
        <time>2020-09-10T12:00:43Z</time>
      </trkpt>
      <trkpt lat="44.90731" lon="-0.39454">
        <ele>28.5</ele>
        <time>2020-09-10T12:00:44Z</time>
      </trkpt>
      <trkpt lat="44.90732" lon="-0.39454">
        <ele>28.5</ele>
        <time>2020-09-10T12:00:45Z</time>
      </trkpt>
      <trkpt lat="44.90733" lon="-0.39453">
        <ele>28.5</ele>
        <time>2020-09-10T12:00:47Z</time>
      </trkpt>
      <trkpt lat="44.90734" lon="-0.39452">
        <ele>28.5</ele>
        <time>2020-09-10T12:00:48Z</time>
      </trkpt>
      <trkpt lat="44.90735" lon="-0.39452">
        <ele>28.5</ele>
        <time>2020-09-10T12:00:49Z</time>
      </trkpt>
      <trkpt lat="44.90736" lon="-0.39451">
        <ele>28.5</ele>
        <time>2020-09-10T12:00:51Z</time>
      </trkpt>
      <trkpt lat="44.90737" lon="-0.3945">
        <ele>28.5</ele>
        <time>2020-09-10T12:00:52Z</time>
      </trkpt>
      <trkpt lat="44.90739" lon="-0.3945">
        <ele>28.5</ele>
        <time>2020-09-10T12:00:53Z</time>
      </trkpt>
      <trkpt lat="44.9074" lon="-0.3945">
        <ele>28.5</ele>
        <time>2020-09-10T12:00:54Z</time>
      </trkpt>
      <trkpt lat="44.90741" lon="-0.39449">
        <ele>28.5</ele>
        <time>2020-09-10T12:00:56Z</time>
      </trkpt>
      <trkpt lat="44.90742" lon="-0.39448">
        <ele>28.4</ele>
        <time>2020-09-10T12:00:57Z</time>
      </trkpt>
      <trkpt lat="44.90742" lon="-0.39446">
        <ele>28.5</ele>
        <time>2020-09-10T12:00:58Z</time>
      </trkpt>
      <trkpt lat="44.90741" lon="-0.39444">
        <ele>28.5</ele>
        <time>2020-09-10T12:00:59Z</time>
      </trkpt>
      <trkpt lat="44.9074" lon="-0.39442">
        <ele>28.5</ele>
        <time>2020-09-10T12:01:01Z</time>
      </trkpt>
      <trkpt lat="44.9074" lon="-0.39441">
        <ele>28.5</ele>
        <time>2020-09-10T12:01:02Z</time>
      </trkpt>
      <trkpt lat="44.90739" lon="-0.39439">
        <ele>28.5</ele>
        <time>2020-09-10T12:01:03Z</time>
      </trkpt>
      <trkpt lat="44.90738" lon="-0.39437">
        <ele>28.5</ele>
        <time>2020-09-10T12:01:04Z</time>
      </trkpt>
      <trkpt lat="44.90737" lon="-0.39434">
        <ele>28.6</ele>
        <time>2020-09-10T12:01:05Z</time>
      </trkpt>
      <trkpt lat="44.90736" lon="-0.39433">
        <ele>28.6</ele>
        <time>2020-09-10T12:01:07Z</time>
      </trkpt>
      <trkpt lat="44.90735" lon="-0.39431">
        <ele>28.6</ele>
        <time>2020-09-10T12:01:08Z</time>
      </trkpt>
      <trkpt lat="44.90734" lon="-0.39429">
        <ele>28.6</ele>
        <time>2020-09-10T12:01:09Z</time>
      </trkpt>
      <trkpt lat="44.90733" lon="-0.39427">
        <ele>28.6</ele>
        <time>2020-09-10T12:01:10Z</time>
      </trkpt>
      <trkpt lat="44.90733" lon="-0.39426">
        <ele>28.6</ele>
        <time>2020-09-10T12:01:11Z</time>
      </trkpt>
      <trkpt lat="44.90733" lon="-0.39424">
        <ele>28.6</ele>
        <time>2020-09-10T12:01:12Z</time>
      </trkpt>
      <trkpt lat="44.90732" lon="-0.39423">
        <ele>28.6</ele>
        <time>2020-09-10T12:01:13Z</time>
      </trkpt>
      <trkpt lat="44.90731" lon="-0.39422">
        <ele>28.6</ele>
        <time>2020-09-10T12:01:14Z</time>
      </trkpt>
      <trkpt lat="44.9073" lon="-0.39419">
        <ele>28.7</ele>
        <time>2020-09-10T12:01:16Z</time>
      </trkpt>
      <trkpt lat="44.90729" lon="-0.39417">
        <ele>28.7</ele>
        <time>2020-09-10T12:01:17Z</time>
      </trkpt>
      <trkpt lat="44.90728" lon="-0.39415">
        <ele>28.7</ele>
        <time>2020-09-10T12:01:18Z</time>
      </trkpt>
      <trkpt lat="44.90728" lon="-0.39413">
        <ele>28.7</ele>
        <time>2020-09-10T12:01:19Z</time>
      </trkpt>
      <trkpt lat="44.90727" lon="-0.39412">
        <ele>28.7</ele>
        <time>2020-09-10T12:01:20Z</time>
      </trkpt>
      <trkpt lat="44.90727" lon="-0.3941">
        <ele>28.7</ele>
        <time>2020-09-10T12:01:21Z</time>
      </trkpt>
      <trkpt lat="44.90727" lon="-0.39409">
        <ele>28.7</ele>
        <time>2020-09-10T12:01:22Z</time>
      </trkpt>
      <trkpt lat="44.90726" lon="-0.39406">
        <ele>28.7</ele>
        <time>2020-09-10T12:01:24Z</time>
      </trkpt>
      <trkpt lat="44.90726" lon="-0.39405">
        <ele>28.7</ele>
        <time>2020-09-10T12:01:25Z</time>
      </trkpt>
      <trkpt lat="44.90725" lon="-0.39404">
        <ele>28.7</ele>
        <time>2020-09-10T12:01:26Z</time>
      </trkpt>
      <trkpt lat="44.90725" lon="-0.39403">
        <ele>28.7</ele>
        <time>2020-09-10T12:01:27Z</time>
      </trkpt>
      <trkpt lat="44.90725" lon="-0.394">
        <ele>28.7</ele>
        <time>2020-09-10T12:01:29Z</time>
      </trkpt>
      <trkpt lat="44.90724" lon="-0.39397">
        <ele>28.7</ele>
        <time>2020-09-10T12:01:30Z</time>
      </trkpt>
      <trkpt lat="44.90724" lon="-0.39396">
        <ele>28.7</ele>
        <time>2020-09-10T12:01:31Z</time>
      </trkpt>
      <trkpt lat="44.90723" lon="-0.39395">
        <ele>28.7</ele>
        <time>2020-09-10T12:01:32Z</time>
      </trkpt>
      <trkpt lat="44.90723" lon="-0.39394">
        <ele>28.7</ele>
        <time>2020-09-10T12:01:34Z</time>
      </trkpt>
      <trkpt lat="44.90723" lon="-0.39392">
        <ele>28.7</ele>
        <time>2020-09-10T12:01:35Z</time>
      </trkpt>
      <trkpt lat="44.90722" lon="-0.39389">
        <ele>28.7</ele>
        <time>2020-09-10T12:01:36Z</time>
      </trkpt>
      <trkpt lat="44.90722" lon="-0.39388">
        <ele>28.7</ele>
        <time>2020-09-10T12:01:37Z</time>
      </trkpt>
      <trkpt lat="44.90721" lon="-0.39385">
        <ele>28.7</ele>
        <time>2020-09-10T12:01:38Z</time>
      </trkpt>
      <trkpt lat="44.9072" lon="-0.39383">
        <ele>28.7</ele>
        <time>2020-09-10T12:01:40Z</time>
      </trkpt>
      <trkpt lat="44.9072" lon="-0.39382">
        <ele>28.7</ele>
        <time>2020-09-10T12:01:41Z</time>
      </trkpt>
      <trkpt lat="44.90719" lon="-0.3938">
        <ele>28.7</ele>
        <time>2020-09-10T12:01:42Z</time>
      </trkpt>
      <trkpt lat="44.90718" lon="-0.39376">
        <ele>28.7</ele>
        <time>2020-09-10T12:01:44Z</time>
      </trkpt>
      <trkpt lat="44.90717" lon="-0.39374">
        <ele>28.7</ele>
        <time>2020-09-10T12:01:46Z</time>
      </trkpt>
      <trkpt lat="44.90716" lon="-0.39372">
        <ele>28.7</ele>
        <time>2020-09-10T12:01:47Z</time>
      </trkpt>
      <trkpt lat="44.90716" lon="-0.39371">
        <ele>28.7</ele>
        <time>2020-09-10T12:01:48Z</time>
      </trkpt>
      <trkpt lat="44.90716" lon="-0.3937">
        <ele>28.7</ele>
        <time>2020-09-10T12:01:49Z</time>
      </trkpt>
      <trkpt lat="44.90715" lon="-0.39369">
        <ele>28.7</ele>
        <time>2020-09-10T12:01:50Z</time>
      </trkpt>
      <trkpt lat="44.90715" lon="-0.39368">
        <ele>28.7</ele>
        <time>2020-09-10T12:01:51Z</time>
      </trkpt>
      <trkpt lat="44.90714" lon="-0.39365">
        <ele>28.7</ele>
        <time>2020-09-10T12:01:52Z</time>
      </trkpt>
      <trkpt lat="44.90714" lon="-0.39364">
        <ele>28.7</ele>
        <time>2020-09-10T12:01:54Z</time>
      </trkpt>
      <trkpt lat="44.90713" lon="-0.39363">
        <ele>28.7</ele>
        <time>2020-09-10T12:01:55Z</time>
      </trkpt>
      <trkpt lat="44.90713" lon="-0.3936">
        <ele>28.6</ele>
        <time>2020-09-10T12:01:56Z</time>
      </trkpt>
      <trkpt lat="44.90712" lon="-0.39359">
        <ele>28.6</ele>
        <time>2020-09-10T12:01:57Z</time>
      </trkpt>
      <trkpt lat="44.90712" lon="-0.39358">
        <ele>28.6</ele>
        <time>2020-09-10T12:01:58Z</time>
      </trkpt>
      <trkpt lat="44.90712" lon="-0.39356">
        <ele>28.6</ele>
        <time>2020-09-10T12:01:59Z</time>
      </trkpt>
      <trkpt lat="44.90712" lon="-0.39355">
        <ele>28.6</ele>
        <time>2020-09-10T12:02:00Z</time>
      </trkpt>
      <trkpt lat="44.90712" lon="-0.39352">
        <ele>28.6</ele>
        <time>2020-09-10T12:02:02Z</time>
      </trkpt>
      <trkpt lat="44.90712" lon="-0.3935">
        <ele>28.6</ele>
        <time>2020-09-10T12:02:03Z</time>
      </trkpt>
      <trkpt lat="44.90712" lon="-0.39349">
        <ele>28.6</ele>
        <time>2020-09-10T12:02:04Z</time>
      </trkpt>
      <trkpt lat="44.90712" lon="-0.39347">
        <ele>28.6</ele>
        <time>2020-09-10T12:02:05Z</time>
      </trkpt>
      <trkpt lat="44.90712" lon="-0.39345">
        <ele>28.6</ele>
        <time>2020-09-10T12:02:06Z</time>
      </trkpt>
      <trkpt lat="44.90713" lon="-0.39344">
        <ele>28.6</ele>
        <time>2020-09-10T12:02:07Z</time>
      </trkpt>
      <trkpt lat="44.90714" lon="-0.39343">
        <ele>28.6</ele>
        <time>2020-09-10T12:02:08Z</time>
      </trkpt>
      <trkpt lat="44.90715" lon="-0.39342">
        <ele>28.6</ele>
        <time>2020-09-10T12:02:10Z</time>
      </trkpt>
      <trkpt lat="44.90716" lon="-0.39341">
        <ele>28.6</ele>
        <time>2020-09-10T12:02:11Z</time>
      </trkpt>
      <trkpt lat="44.90719" lon="-0.39341">
        <ele>28.5</ele>
        <time>2020-09-10T12:02:12Z</time>
      </trkpt>
      <trkpt lat="44.9072" lon="-0.3934">
        <ele>28.5</ele>
        <time>2020-09-10T12:02:13Z</time>
      </trkpt>
      <trkpt lat="44.9072" lon="-0.3934">
        <ele>28.5</ele>
        <time>2020-09-10T12:02:14Z</time>
      </trkpt>
      <trkpt lat="44.90723" lon="-0.39338">
        <ele>28.5</ele>
        <time>2020-09-10T12:02:15Z</time>
      </trkpt>
      <trkpt lat="44.90724" lon="-0.39337">
        <ele>28.5</ele>
        <time>2020-09-10T12:02:16Z</time>
      </trkpt>
      <trkpt lat="44.90726" lon="-0.39336">
        <ele>28.5</ele>
        <time>2020-09-10T12:02:18Z</time>
      </trkpt>
      <trkpt lat="44.90727" lon="-0.39335">
        <ele>28.5</ele>
        <time>2020-09-10T12:02:19Z</time>
      </trkpt>
      <trkpt lat="44.90729" lon="-0.39332">
        <ele>28.5</ele>
        <time>2020-09-10T12:02:20Z</time>
      </trkpt>
      <trkpt lat="44.90731" lon="-0.39331">
        <ele>28.5</ele>
        <time>2020-09-10T12:02:21Z</time>
      </trkpt>
      <trkpt lat="44.90732" lon="-0.3933">
        <ele>28.4</ele>
        <time>2020-09-10T12:02:22Z</time>
      </trkpt>
      <trkpt lat="44.90733" lon="-0.3933">
        <ele>28.4</ele>
        <time>2020-09-10T12:02:23Z</time>
      </trkpt>
      <trkpt lat="44.90734" lon="-0.39329">
        <ele>28.4</ele>
        <time>2020-09-10T12:02:24Z</time>
      </trkpt>
      <trkpt lat="44.90736" lon="-0.39328">
        <ele>28.4</ele>
        <time>2020-09-10T12:02:26Z</time>
      </trkpt>
      <trkpt lat="44.90737" lon="-0.39327">
        <ele>28.4</ele>
        <time>2020-09-10T12:02:28Z</time>
      </trkpt>
      <trkpt lat="44.90738" lon="-0.39327">
        <ele>28.4</ele>
        <time>2020-09-10T12:02:29Z</time>
      </trkpt>
      <trkpt lat="44.90739" lon="-0.39325">
        <ele>28.4</ele>
        <time>2020-09-10T12:02:30Z</time>
      </trkpt>
      <trkpt lat="44.90741" lon="-0.39322">
        <ele>28.4</ele>
        <time>2020-09-10T12:02:32Z</time>
      </trkpt>
      <trkpt lat="44.90742" lon="-0.39321">
        <ele>28.4</ele>
        <time>2020-09-10T12:02:33Z</time>
      </trkpt>
      <trkpt lat="44.90742" lon="-0.3932">
        <ele>28.4</ele>
        <time>2020-09-10T12:02:34Z</time>
      </trkpt>
      <trkpt lat="44.90744" lon="-0.39319">
        <ele>28.4</ele>
        <time>2020-09-10T12:02:36Z</time>
      </trkpt>
      <trkpt lat="44.90745" lon="-0.39317">
        <ele>28.4</ele>
        <time>2020-09-10T12:02:37Z</time>
      </trkpt>
      <trkpt lat="44.90746" lon="-0.39316">
        <ele>28.4</ele>
        <time>2020-09-10T12:02:38Z</time>
      </trkpt>
      <trkpt lat="44.90748" lon="-0.39315">
        <ele>28.4</ele>
        <time>2020-09-10T12:02:39Z</time>
      </trkpt>
      <trkpt lat="44.90749" lon="-0.39313">
        <ele>28.3</ele>
        <time>2020-09-10T12:02:41Z</time>
      </trkpt>
      <trkpt lat="44.9075" lon="-0.39312">
        <ele>28.3</ele>
        <time>2020-09-10T12:02:42Z</time>
      </trkpt>
      <trkpt lat="44.90752" lon="-0.3931">
        <ele>28.3</ele>
        <time>2020-09-10T12:02:43Z</time>
      </trkpt>
      <trkpt lat="44.90753" lon="-0.39309">
        <ele>28.3</ele>
        <time>2020-09-10T12:02:44Z</time>
      </trkpt>
      <trkpt lat="44.90754" lon="-0.39308">
        <ele>28.3</ele>
        <time>2020-09-10T12:02:46Z</time>
      </trkpt>
      <trkpt lat="44.90756" lon="-0.39306">
        <ele>28.3</ele>
        <time>2020-09-10T12:02:47Z</time>
      </trkpt>
      <trkpt lat="44.90757" lon="-0.39305">
        <ele>28.2</ele>
        <time>2020-09-10T12:02:48Z</time>
      </trkpt>
      <trkpt lat="44.90758" lon="-0.39304">
        <ele>28.2</ele>
        <time>2020-09-10T12:02:49Z</time>
      </trkpt>
      <trkpt lat="44.90759" lon="-0.39303">
        <ele>28.2</ele>
        <time>2020-09-10T12:02:51Z</time>
      </trkpt>
      <trkpt lat="44.9076" lon="-0.39303">
        <ele>28.2</ele>
        <time>2020-09-10T12:02:52Z</time>
      </trkpt>
      <trkpt lat="44.90761" lon="-0.39302">
        <ele>28.2</ele>
        <time>2020-09-10T12:02:53Z</time>
      </trkpt>
      <trkpt lat="44.90762" lon="-0.39301">
        <ele>28.1</ele>
        <time>2020-09-10T12:02:55Z</time>
      </trkpt>
      <trkpt lat="44.90763" lon="-0.393">
        <ele>28.1</ele>
        <time>2020-09-10T12:02:56Z</time>
      </trkpt>
      <trkpt lat="44.90765" lon="-0.39298">
        <ele>28.1</ele>
        <time>2020-09-10T12:02:58Z</time>
      </trkpt>
      <trkpt lat="44.90766" lon="-0.39297">
        <ele>28.1</ele>
        <time>2020-09-10T12:02:59Z</time>
      </trkpt>
      <trkpt lat="44.90767" lon="-0.39297">
        <ele>28.1</ele>
        <time>2020-09-10T12:03:00Z</time>
      </trkpt>
      <trkpt lat="44.90768" lon="-0.39296">
        <ele>28</ele>
        <time>2020-09-10T12:03:01Z</time>
      </trkpt>
      <trkpt lat="44.90769" lon="-0.39295">
        <ele>28</ele>
        <time>2020-09-10T12:03:02Z</time>
      </trkpt>
      <trkpt lat="44.9077" lon="-0.39293">
        <ele>28</ele>
        <time>2020-09-10T12:03:04Z</time>
      </trkpt>
      <trkpt lat="44.90771" lon="-0.39292">
        <ele>28</ele>
        <time>2020-09-10T12:03:05Z</time>
      </trkpt>
      <trkpt lat="44.90772" lon="-0.39291">
        <ele>27.9</ele>
        <time>2020-09-10T12:03:06Z</time>
      </trkpt>
      <trkpt lat="44.90774" lon="-0.3929">
        <ele>27.9</ele>
        <time>2020-09-10T12:03:07Z</time>
      </trkpt>
      <trkpt lat="44.90775" lon="-0.3929">
        <ele>27.9</ele>
        <time>2020-09-10T12:03:08Z</time>
      </trkpt>
      <trkpt lat="44.90777" lon="-0.3929">
        <ele>27.9</ele>
        <time>2020-09-10T12:03:09Z</time>
      </trkpt>
      <trkpt lat="44.90779" lon="-0.39289">
        <ele>27.9</ele>
        <time>2020-09-10T12:03:11Z</time>
      </trkpt>
      <trkpt lat="44.9078" lon="-0.39289">
        <ele>27.9</ele>
        <time>2020-09-10T12:03:12Z</time>
      </trkpt>
      <trkpt lat="44.90781" lon="-0.3929">
        <ele>27.8</ele>
        <time>2020-09-10T12:03:13Z</time>
      </trkpt>
      <trkpt lat="44.90782" lon="-0.3929">
        <ele>27.8</ele>
        <time>2020-09-10T12:03:14Z</time>
      </trkpt>
      <trkpt lat="44.90784" lon="-0.39289">
        <ele>27.8</ele>
        <time>2020-09-10T12:03:15Z</time>
      </trkpt>
      <trkpt lat="44.90785" lon="-0.39289">
        <ele>27.8</ele>
        <time>2020-09-10T12:03:16Z</time>
      </trkpt>
      <trkpt lat="44.90787" lon="-0.39288">
        <ele>27.8</ele>
        <time>2020-09-10T12:03:18Z</time>
      </trkpt>
      <trkpt lat="44.90789" lon="-0.39287">
        <ele>27.8</ele>
        <time>2020-09-10T12:03:19Z</time>
      </trkpt>
      <trkpt lat="44.9079" lon="-0.39287">
        <ele>27.8</ele>
        <time>2020-09-10T12:03:20Z</time>
      </trkpt>
      <trkpt lat="44.90791" lon="-0.39287">
        <ele>27.7</ele>
        <time>2020-09-10T12:03:21Z</time>
      </trkpt>
      <trkpt lat="44.90792" lon="-0.39285">
        <ele>27.7</ele>
        <time>2020-09-10T12:03:22Z</time>
      </trkpt>
      <trkpt lat="44.90793" lon="-0.39285">
        <ele>27.7</ele>
        <time>2020-09-10T12:03:24Z</time>
      </trkpt>
      <trkpt lat="44.90794" lon="-0.39284">
        <ele>27.7</ele>
        <time>2020-09-10T12:03:25Z</time>
      </trkpt>
      <trkpt lat="44.90795" lon="-0.39283">
        <ele>27.7</ele>
        <time>2020-09-10T12:03:26Z</time>
      </trkpt>
      <trkpt lat="44.90797" lon="-0.39282">
        <ele>27.7</ele>
        <time>2020-09-10T12:03:27Z</time>
      </trkpt>
      <trkpt lat="44.90798" lon="-0.39281">
        <ele>27.6</ele>
        <time>2020-09-10T12:03:28Z</time>
      </trkpt>
      <trkpt lat="44.908" lon="-0.3928">
        <ele>27.6</ele>
        <time>2020-09-10T12:03:29Z</time>
      </trkpt>
      <trkpt lat="44.90802" lon="-0.39279">
        <ele>27.6</ele>
        <time>2020-09-10T12:03:31Z</time>
      </trkpt>
      <trkpt lat="44.90802" lon="-0.39278">
        <ele>27.6</ele>
        <time>2020-09-10T12:03:32Z</time>
      </trkpt>
      <trkpt lat="44.90804" lon="-0.39277">
        <ele>27.6</ele>
        <time>2020-09-10T12:03:33Z</time>
      </trkpt>
      <trkpt lat="44.90805" lon="-0.39276">
        <ele>27.6</ele>
        <time>2020-09-10T12:03:34Z</time>
      </trkpt>
      <trkpt lat="44.90805" lon="-0.39275">
        <ele>27.5</ele>
        <time>2020-09-10T12:03:35Z</time>
      </trkpt>
      <trkpt lat="44.90807" lon="-0.39274">
        <ele>27.5</ele>
        <time>2020-09-10T12:03:37Z</time>
      </trkpt>
      <trkpt lat="44.90808" lon="-0.39273">
        <ele>27.5</ele>
        <time>2020-09-10T12:03:38Z</time>
      </trkpt>
      <trkpt lat="44.90809" lon="-0.3927">
        <ele>27.5</ele>
        <time>2020-09-10T12:03:39Z</time>
      </trkpt>
      <trkpt lat="44.9081" lon="-0.3927">
        <ele>27.5</ele>
        <time>2020-09-10T12:03:40Z</time>
      </trkpt>
      <trkpt lat="44.90812" lon="-0.39268">
        <ele>27.4</ele>
        <time>2020-09-10T12:03:42Z</time>
      </trkpt>
      <trkpt lat="44.90814" lon="-0.39266">
        <ele>27.4</ele>
        <time>2020-09-10T12:03:44Z</time>
      </trkpt>
      <trkpt lat="44.90815" lon="-0.39265">
        <ele>27.4</ele>
        <time>2020-09-10T12:03:45Z</time>
      </trkpt>
      <trkpt lat="44.90816" lon="-0.39264">
        <ele>27.4</ele>
        <time>2020-09-10T12:03:46Z</time>
      </trkpt>
      <trkpt lat="44.90817" lon="-0.39263">
        <ele>27.3</ele>
        <time>2020-09-10T12:03:48Z</time>
      </trkpt>
      <trkpt lat="44.90818" lon="-0.39261">
        <ele>27.3</ele>
        <time>2020-09-10T12:03:49Z</time>
      </trkpt>
      <trkpt lat="44.90819" lon="-0.3926">
        <ele>27.3</ele>
        <time>2020-09-10T12:03:50Z</time>
      </trkpt>
      <trkpt lat="44.90821" lon="-0.39257">
        <ele>27.2</ele>
        <time>2020-09-10T12:03:52Z</time>
      </trkpt>
      <trkpt lat="44.90822" lon="-0.39256">
        <ele>27.2</ele>
        <time>2020-09-10T12:03:53Z</time>
      </trkpt>
      <trkpt lat="44.90823" lon="-0.39254">
        <ele>27.2</ele>
        <time>2020-09-10T12:03:54Z</time>
      </trkpt>
      <trkpt lat="44.90825" lon="-0.39252">
        <ele>27.1</ele>
        <time>2020-09-10T12:03:56Z</time>
      </trkpt>
      <trkpt lat="44.90826" lon="-0.39251">
        <ele>27.1</ele>
        <time>2020-09-10T12:03:57Z</time>
      </trkpt>
      <trkpt lat="44.90827" lon="-0.39249">
        <ele>27</ele>
        <time>2020-09-10T12:03:58Z</time>
      </trkpt>
      <trkpt lat="44.90828" lon="-0.39247">
        <ele>27</ele>
        <time>2020-09-10T12:03:59Z</time>
      </trkpt>
      <trkpt lat="44.90829" lon="-0.39246">
        <ele>27</ele>
        <time>2020-09-10T12:04:01Z</time>
      </trkpt>
      <trkpt lat="44.9083" lon="-0.39245">
        <ele>26.9</ele>
        <time>2020-09-10T12:04:02Z</time>
      </trkpt>
      <trkpt lat="44.90831" lon="-0.39244">
        <ele>26.9</ele>
        <time>2020-09-10T12:04:03Z</time>
      </trkpt>
      <trkpt lat="44.90832" lon="-0.39243">
        <ele>26.9</ele>
        <time>2020-09-10T12:04:04Z</time>
      </trkpt>
      <trkpt lat="44.90834" lon="-0.39241">
        <ele>26.8</ele>
        <time>2020-09-10T12:04:05Z</time>
      </trkpt>
      <trkpt lat="44.90835" lon="-0.3924">
        <ele>26.8</ele>
        <time>2020-09-10T12:04:07Z</time>
      </trkpt>
      <trkpt lat="44.90836" lon="-0.39239">
        <ele>26.8</ele>
        <time>2020-09-10T12:04:08Z</time>
      </trkpt>
      <trkpt lat="44.90836" lon="-0.39239">
        <ele>26.7</ele>
        <time>2020-09-10T12:04:09Z</time>
      </trkpt>
      <trkpt lat="44.90837" lon="-0.39238">
        <ele>26.7</ele>
        <time>2020-09-10T12:04:10Z</time>
      </trkpt>
      <trkpt lat="44.90839" lon="-0.39237">
        <ele>26.7</ele>
        <time>2020-09-10T12:04:11Z</time>
      </trkpt>
      <trkpt lat="44.9084" lon="-0.39236">
        <ele>26.6</ele>
        <time>2020-09-10T12:04:12Z</time>
      </trkpt>
      <trkpt lat="44.90841" lon="-0.39234">
        <ele>26.6</ele>
        <time>2020-09-10T12:04:13Z</time>
      </trkpt>
      <trkpt lat="44.90843" lon="-0.39233">
        <ele>26.6</ele>
        <time>2020-09-10T12:04:15Z</time>
      </trkpt>
      <trkpt lat="44.90844" lon="-0.39232">
        <ele>26.5</ele>
        <time>2020-09-10T12:04:16Z</time>
      </trkpt>
      <trkpt lat="44.90845" lon="-0.3923">
        <ele>26.5</ele>
        <time>2020-09-10T12:04:18Z</time>
      </trkpt>
      <trkpt lat="44.90846" lon="-0.39229">
        <ele>26.5</ele>
        <time>2020-09-10T12:04:19Z</time>
      </trkpt>
      <trkpt lat="44.90848" lon="-0.39228">
        <ele>26.4</ele>
        <time>2020-09-10T12:04:20Z</time>
      </trkpt>
      <trkpt lat="44.90849" lon="-0.39227">
        <ele>26.4</ele>
        <time>2020-09-10T12:04:22Z</time>
      </trkpt>
      <trkpt lat="44.90851" lon="-0.39226">
        <ele>26.4</ele>
        <time>2020-09-10T12:04:23Z</time>
      </trkpt>
      <trkpt lat="44.90852" lon="-0.39225">
        <ele>26.3</ele>
        <time>2020-09-10T12:04:24Z</time>
      </trkpt>
      <trkpt lat="44.90853" lon="-0.39223">
        <ele>26.3</ele>
        <time>2020-09-10T12:04:25Z</time>
      </trkpt>
      <trkpt lat="44.90855" lon="-0.39221">
        <ele>26.3</ele>
        <time>2020-09-10T12:04:27Z</time>
      </trkpt>
      <trkpt lat="44.90856" lon="-0.3922">
        <ele>26.2</ele>
        <time>2020-09-10T12:04:28Z</time>
      </trkpt>
      <trkpt lat="44.90857" lon="-0.39219">
        <ele>26.2</ele>
        <time>2020-09-10T12:04:29Z</time>
      </trkpt>
      <trkpt lat="44.90858" lon="-0.39218">
        <ele>26.2</ele>
        <time>2020-09-10T12:04:30Z</time>
      </trkpt>
      <trkpt lat="44.90859" lon="-0.39217">
        <ele>26.1</ele>
        <time>2020-09-10T12:04:31Z</time>
      </trkpt>
      <trkpt lat="44.90861" lon="-0.39216">
        <ele>26.1</ele>
        <time>2020-09-10T12:04:33Z</time>
      </trkpt>
      <trkpt lat="44.90862" lon="-0.39217">
        <ele>26</ele>
        <time>2020-09-10T12:04:34Z</time>
      </trkpt>
      <trkpt lat="44.90864" lon="-0.39216">
        <ele>26</ele>
        <time>2020-09-10T12:04:35Z</time>
      </trkpt>
      <trkpt lat="44.90865" lon="-0.39215">
        <ele>26</ele>
        <time>2020-09-10T12:04:37Z</time>
      </trkpt>
      <trkpt lat="44.90865" lon="-0.39215">
        <ele>25.9</ele>
        <time>2020-09-10T12:04:38Z</time>
      </trkpt>
      <trkpt lat="44.90867" lon="-0.39214">
        <ele>25.9</ele>
        <time>2020-09-10T12:04:39Z</time>
      </trkpt>
      <trkpt lat="44.90868" lon="-0.39215">
        <ele>25.9</ele>
        <time>2020-09-10T12:04:40Z</time>
      </trkpt>
      <trkpt lat="44.9087" lon="-0.39213">
        <ele>25.8</ele>
        <time>2020-09-10T12:04:42Z</time>
      </trkpt>
      <trkpt lat="44.90871" lon="-0.39212">
        <ele>25.8</ele>
        <time>2020-09-10T12:04:43Z</time>
      </trkpt>
      <trkpt lat="44.90873" lon="-0.39211">
        <ele>25.7</ele>
        <time>2020-09-10T12:04:44Z</time>
      </trkpt>
      <trkpt lat="44.90875" lon="-0.3921">
        <ele>25.7</ele>
        <time>2020-09-10T12:04:46Z</time>
      </trkpt>
      <trkpt lat="44.90876" lon="-0.39209">
        <ele>25.7</ele>
        <time>2020-09-10T12:04:47Z</time>
      </trkpt>
      <trkpt lat="44.90877" lon="-0.39209">
        <ele>25.6</ele>
        <time>2020-09-10T12:04:48Z</time>
      </trkpt>
      <trkpt lat="44.90878" lon="-0.39208">
        <ele>25.6</ele>
        <time>2020-09-10T12:04:49Z</time>
      </trkpt>
      <trkpt lat="44.90879" lon="-0.39207">
        <ele>25.6</ele>
        <time>2020-09-10T12:04:51Z</time>
      </trkpt>
      <trkpt lat="44.9088" lon="-0.39206">
        <ele>25.6</ele>
        <time>2020-09-10T12:04:52Z</time>
      </trkpt>
      <trkpt lat="44.90881" lon="-0.39206">
        <ele>25.6</ele>
        <time>2020-09-10T12:04:53Z</time>
      </trkpt>
      <trkpt lat="44.90883" lon="-0.39206">
        <ele>25.5</ele>
        <time>2020-09-10T12:04:55Z</time>
      </trkpt>
      <trkpt lat="44.90884" lon="-0.39205">
        <ele>25.5</ele>
        <time>2020-09-10T12:04:56Z</time>
      </trkpt>
      <trkpt lat="44.90886" lon="-0.39204">
        <ele>25.5</ele>
        <time>2020-09-10T12:04:58Z</time>
      </trkpt>
      <trkpt lat="44.90887" lon="-0.39204">
        <ele>25.5</ele>
        <time>2020-09-10T12:04:59Z</time>
      </trkpt>
      <trkpt lat="44.90888" lon="-0.39204">
        <ele>25.4</ele>
        <time>2020-09-10T12:05:00Z</time>
      </trkpt>
      <trkpt lat="44.9089" lon="-0.39203">
        <ele>25.4</ele>
        <time>2020-09-10T12:05:01Z</time>
      </trkpt>
      <trkpt lat="44.90891" lon="-0.39202">
        <ele>25.4</ele>
        <time>2020-09-10T12:05:03Z</time>
      </trkpt>
      <trkpt lat="44.90894" lon="-0.39201">
        <ele>25.3</ele>
        <time>2020-09-10T12:05:04Z</time>
      </trkpt>
      <trkpt lat="44.90895" lon="-0.392">
        <ele>25.3</ele>
        <time>2020-09-10T12:05:05Z</time>
      </trkpt>
      <trkpt lat="44.90896" lon="-0.39199">
        <ele>25.3</ele>
        <time>2020-09-10T12:05:06Z</time>
      </trkpt>
      <trkpt lat="44.90898" lon="-0.39199">
        <ele>25.3</ele>
        <time>2020-09-10T12:05:07Z</time>
      </trkpt>
      <trkpt lat="44.90899" lon="-0.39198">
        <ele>25.2</ele>
        <time>2020-09-10T12:05:08Z</time>
      </trkpt>
      <trkpt lat="44.909" lon="-0.39197">
        <ele>25.2</ele>
        <time>2020-09-10T12:05:09Z</time>
      </trkpt>
      <trkpt lat="44.90901" lon="-0.39196">
        <ele>25.2</ele>
        <time>2020-09-10T12:05:11Z</time>
      </trkpt>
      <trkpt lat="44.90902" lon="-0.39195">
        <ele>25.1</ele>
        <time>2020-09-10T12:05:12Z</time>
      </trkpt>
      <trkpt lat="44.90903" lon="-0.39194">
        <ele>25.1</ele>
        <time>2020-09-10T12:05:13Z</time>
      </trkpt>
      <trkpt lat="44.90904" lon="-0.39194">
        <ele>25.1</ele>
        <time>2020-09-10T12:05:14Z</time>
      </trkpt>
      <trkpt lat="44.90907" lon="-0.39192">
        <ele>25</ele>
        <time>2020-09-10T12:05:16Z</time>
      </trkpt>
      <trkpt lat="44.90907" lon="-0.39191">
        <ele>24.6</ele>
        <time>2020-09-10T12:05:17Z</time>
      </trkpt>
      <trkpt lat="44.90908" lon="-0.3919">
        <ele>24.5</ele>
        <time>2020-09-10T12:05:18Z</time>
      </trkpt>
      <trkpt lat="44.90909" lon="-0.39188">
        <ele>24.5</ele>
        <time>2020-09-10T12:05:19Z</time>
      </trkpt>
      <trkpt lat="44.9091" lon="-0.39187">
        <ele>24.4</ele>
        <time>2020-09-10T12:05:20Z</time>
      </trkpt>
      <trkpt lat="44.9091" lon="-0.39186">
        <ele>24.3</ele>
        <time>2020-09-10T12:05:21Z</time>
      </trkpt>
      <trkpt lat="44.9091" lon="-0.39185">
        <ele>24.3</ele>
        <time>2020-09-10T12:05:22Z</time>
      </trkpt>
      <trkpt lat="44.9091" lon="-0.39184">
        <ele>24.3</ele>
        <time>2020-09-10T12:05:23Z</time>
      </trkpt>
      <trkpt lat="44.9091" lon="-0.39182">
        <ele>24.2</ele>
        <time>2020-09-10T12:05:24Z</time>
      </trkpt>
      <trkpt lat="44.9091" lon="-0.39181">
        <ele>24.2</ele>
        <time>2020-09-10T12:05:25Z</time>
      </trkpt>
      <trkpt lat="44.90909" lon="-0.39178">
        <ele>24</ele>
        <time>2020-09-10T12:05:27Z</time>
      </trkpt>
      <trkpt lat="44.90909" lon="-0.39176">
        <ele>24</ele>
        <time>2020-09-10T12:05:29Z</time>
      </trkpt>
      <trkpt lat="44.90908" lon="-0.39174">
        <ele>23.9</ele>
        <time>2020-09-10T12:05:30Z</time>
      </trkpt>
      <trkpt lat="44.90907" lon="-0.39173">
        <ele>23.8</ele>
        <time>2020-09-10T12:05:32Z</time>
      </trkpt>
      <trkpt lat="44.90906" lon="-0.39171">
        <ele>23.8</ele>
        <time>2020-09-10T12:05:33Z</time>
      </trkpt>
      <trkpt lat="44.90905" lon="-0.39171">
        <ele>23.7</ele>
        <time>2020-09-10T12:05:34Z</time>
      </trkpt>
      <trkpt lat="44.90904" lon="-0.3917">
        <ele>23.7</ele>
        <time>2020-09-10T12:05:35Z</time>
      </trkpt>
      <trkpt lat="44.90903" lon="-0.39167">
        <ele>23.6</ele>
        <time>2020-09-10T12:05:37Z</time>
      </trkpt>
      <trkpt lat="44.90902" lon="-0.39165">
        <ele>23.5</ele>
        <time>2020-09-10T12:05:38Z</time>
      </trkpt>
      <trkpt lat="44.90901" lon="-0.39164">
        <ele>23.5</ele>
        <time>2020-09-10T12:05:39Z</time>
      </trkpt>
      <trkpt lat="44.909" lon="-0.39161">
        <ele>23.3</ele>
        <time>2020-09-10T12:05:41Z</time>
      </trkpt>
      <trkpt lat="44.90899" lon="-0.39159">
        <ele>23.3</ele>
        <time>2020-09-10T12:05:42Z</time>
      </trkpt>
      <trkpt lat="44.90898" lon="-0.39158">
        <ele>23.2</ele>
        <time>2020-09-10T12:05:43Z</time>
      </trkpt>
      <trkpt lat="44.90897" lon="-0.39156">
        <ele>23.2</ele>
        <time>2020-09-10T12:05:44Z</time>
      </trkpt>
      <trkpt lat="44.90896" lon="-0.39155">
        <ele>23.1</ele>
        <time>2020-09-10T12:05:45Z</time>
      </trkpt>
      <trkpt lat="44.90896" lon="-0.39153">
        <ele>23.1</ele>
        <time>2020-09-10T12:05:46Z</time>
      </trkpt>
      <trkpt lat="44.90894" lon="-0.39151">
        <ele>23</ele>
        <time>2020-09-10T12:05:48Z</time>
      </trkpt>
      <trkpt lat="44.90893" lon="-0.39149">
        <ele>22.9</ele>
        <time>2020-09-10T12:05:49Z</time>
      </trkpt>
      <trkpt lat="44.90892" lon="-0.39146">
        <ele>22.8</ele>
        <time>2020-09-10T12:05:51Z</time>
      </trkpt>
      <trkpt lat="44.90891" lon="-0.39144">
        <ele>22.7</ele>
        <time>2020-09-10T12:05:52Z</time>
      </trkpt>
      <trkpt lat="44.9089" lon="-0.39143">
        <ele>22.7</ele>
        <time>2020-09-10T12:05:53Z</time>
      </trkpt>
      <trkpt lat="44.9089" lon="-0.39141">
        <ele>22.6</ele>
        <time>2020-09-10T12:05:54Z</time>
      </trkpt>
      <trkpt lat="44.90889" lon="-0.3914">
        <ele>22.6</ele>
        <time>2020-09-10T12:05:55Z</time>
      </trkpt>
      <trkpt lat="44.90889" lon="-0.39138">
        <ele>22.5</ele>
        <time>2020-09-10T12:05:57Z</time>
      </trkpt>
      <trkpt lat="44.9089" lon="-0.39138">
        <ele>22.5</ele>
        <time>2020-09-10T12:05:58Z</time>
      </trkpt>
      <trkpt lat="44.9089" lon="-0.39137">
        <ele>22.4</ele>
        <time>2020-09-10T12:05:59Z</time>
      </trkpt>
      <trkpt lat="44.90889" lon="-0.39136">
        <ele>22.3</ele>
        <time>2020-09-10T12:06:00Z</time>
      </trkpt>
      <trkpt lat="44.90889" lon="-0.39134">
        <ele>22.3</ele>
        <time>2020-09-10T12:06:02Z</time>
      </trkpt>
      <trkpt lat="44.90889" lon="-0.39131">
        <ele>22.2</ele>
        <time>2020-09-10T12:06:03Z</time>
      </trkpt>
      <trkpt lat="44.9089" lon="-0.39129">
        <ele>22.1</ele>
        <time>2020-09-10T12:06:04Z</time>
      </trkpt>
      <trkpt lat="44.90891" lon="-0.39127">
        <ele>21.9</ele>
        <time>2020-09-10T12:06:06Z</time>
      </trkpt>
      <trkpt lat="44.90893" lon="-0.39127">
        <ele>21.8</ele>
        <time>2020-09-10T12:06:07Z</time>
      </trkpt>
      <trkpt lat="44.90895" lon="-0.39125">
        <ele>21.8</ele>
        <time>2020-09-10T12:06:08Z</time>
      </trkpt>
      <trkpt lat="44.90899" lon="-0.39124">
        <ele>21.7</ele>
        <time>2020-09-10T12:06:10Z</time>
      </trkpt>
      <trkpt lat="44.909" lon="-0.39125">
        <ele>21.7</ele>
        <time>2020-09-10T12:06:11Z</time>
      </trkpt>
      <trkpt lat="44.90902" lon="-0.39125">
        <ele>21.7</ele>
        <time>2020-09-10T12:06:12Z</time>
      </trkpt>
      <trkpt lat="44.90903" lon="-0.39124">
        <ele>21.6</ele>
        <time>2020-09-10T12:06:13Z</time>
      </trkpt>
      <trkpt lat="44.90905" lon="-0.39124">
        <ele>21.6</ele>
        <time>2020-09-10T12:06:14Z</time>
      </trkpt>
      <trkpt lat="44.90906" lon="-0.39123">
        <ele>21.5</ele>
        <time>2020-09-10T12:06:15Z</time>
      </trkpt>
      <trkpt lat="44.90908" lon="-0.39123">
        <ele>21.5</ele>
        <time>2020-09-10T12:06:17Z</time>
      </trkpt>
      <trkpt lat="44.90909" lon="-0.39122">
        <ele>21.5</ele>
        <time>2020-09-10T12:06:18Z</time>
      </trkpt>
      <trkpt lat="44.9091" lon="-0.39121">
        <ele>21.4</ele>
        <time>2020-09-10T12:06:19Z</time>
      </trkpt>
      <trkpt lat="44.90911" lon="-0.3912">
        <ele>21.4</ele>
        <time>2020-09-10T12:06:21Z</time>
      </trkpt>
      <trkpt lat="44.90913" lon="-0.39118">
        <ele>21.3</ele>
        <time>2020-09-10T12:06:22Z</time>
      </trkpt>
      <trkpt lat="44.90914" lon="-0.39117">
        <ele>21.3</ele>
        <time>2020-09-10T12:06:23Z</time>
      </trkpt>
      <trkpt lat="44.90915" lon="-0.39116">
        <ele>21.2</ele>
        <time>2020-09-10T12:06:24Z</time>
      </trkpt>
      <trkpt lat="44.90916" lon="-0.39114">
        <ele>21.2</ele>
        <time>2020-09-10T12:06:26Z</time>
      </trkpt>
      <trkpt lat="44.90917" lon="-0.39113">
        <ele>21.2</ele>
        <time>2020-09-10T12:06:27Z</time>
      </trkpt>
      <trkpt lat="44.90919" lon="-0.39113">
        <ele>21.1</ele>
        <time>2020-09-10T12:06:29Z</time>
      </trkpt>
      <trkpt lat="44.9092" lon="-0.39113">
        <ele>21.1</ele>
        <time>2020-09-10T12:06:30Z</time>
      </trkpt>
      <trkpt lat="44.90921" lon="-0.39112">
        <ele>21</ele>
        <time>2020-09-10T12:06:31Z</time>
      </trkpt>
      <trkpt lat="44.90923" lon="-0.39111">
        <ele>21</ele>
        <time>2020-09-10T12:06:32Z</time>
      </trkpt>
      <trkpt lat="44.90925" lon="-0.3911">
        <ele>20.9</ele>
        <time>2020-09-10T12:06:34Z</time>
      </trkpt>
      <trkpt lat="44.90927" lon="-0.39109">
        <ele>20.8</ele>
        <time>2020-09-10T12:06:36Z</time>
      </trkpt>
      <trkpt lat="44.90929" lon="-0.39108">
        <ele>20.8</ele>
        <time>2020-09-10T12:06:37Z</time>
      </trkpt>
      <trkpt lat="44.90931" lon="-0.39106">
        <ele>20.7</ele>
        <time>2020-09-10T12:06:39Z</time>
      </trkpt>
      <trkpt lat="44.90933" lon="-0.39105">
        <ele>20.6</ele>
        <time>2020-09-10T12:06:40Z</time>
      </trkpt>
      <trkpt lat="44.90934" lon="-0.39103">
        <ele>20.6</ele>
        <time>2020-09-10T12:06:41Z</time>
      </trkpt>
      <trkpt lat="44.90935" lon="-0.39102">
        <ele>20.5</ele>
        <time>2020-09-10T12:06:42Z</time>
      </trkpt>
      <trkpt lat="44.90936" lon="-0.39101">
        <ele>20.5</ele>
        <time>2020-09-10T12:06:43Z</time>
      </trkpt>
      <trkpt lat="44.90937" lon="-0.39101">
        <ele>20.5</ele>
        <time>2020-09-10T12:06:44Z</time>
      </trkpt>
      <trkpt lat="44.90939" lon="-0.39099">
        <ele>20.4</ele>
        <time>2020-09-10T12:06:46Z</time>
      </trkpt>
      <trkpt lat="44.9094" lon="-0.39098">
        <ele>20.4</ele>
        <time>2020-09-10T12:06:47Z</time>
      </trkpt>
      <trkpt lat="44.90941" lon="-0.39098">
        <ele>20.4</ele>
        <time>2020-09-10T12:06:48Z</time>
      </trkpt>
      <trkpt lat="44.90942" lon="-0.39097">
        <ele>20.3</ele>
        <time>2020-09-10T12:06:50Z</time>
      </trkpt>
      <trkpt lat="44.90944" lon="-0.39096">
        <ele>20.3</ele>
        <time>2020-09-10T12:06:51Z</time>
      </trkpt>
      <trkpt lat="44.90945" lon="-0.39095">
        <ele>20.2</ele>
        <time>2020-09-10T12:06:52Z</time>
      </trkpt>
      <trkpt lat="44.90948" lon="-0.39095">
        <ele>20.2</ele>
        <time>2020-09-10T12:06:53Z</time>
      </trkpt>
      <trkpt lat="44.9095" lon="-0.39094">
        <ele>20.1</ele>
        <time>2020-09-10T12:06:55Z</time>
      </trkpt>
      <trkpt lat="44.90952" lon="-0.39094">
        <ele>20.1</ele>
        <time>2020-09-10T12:06:56Z</time>
      </trkpt>
      <trkpt lat="44.90953" lon="-0.39093">
        <ele>20.1</ele>
        <time>2020-09-10T12:06:57Z</time>
      </trkpt>
      <trkpt lat="44.90955" lon="-0.39093">
        <ele>20</ele>
        <time>2020-09-10T12:06:58Z</time>
      </trkpt>
      <trkpt lat="44.90956" lon="-0.39093">
        <ele>20</ele>
        <time>2020-09-10T12:06:59Z</time>
      </trkpt>
      <trkpt lat="44.90957" lon="-0.39094">
        <ele>20</ele>
        <time>2020-09-10T12:07:01Z</time>
      </trkpt>
      <trkpt lat="44.90958" lon="-0.39093">
        <ele>20</ele>
        <time>2020-09-10T12:07:02Z</time>
      </trkpt>
      <trkpt lat="44.90959" lon="-0.39093">
        <ele>19.9</ele>
        <time>2020-09-10T12:07:03Z</time>
      </trkpt>
      <trkpt lat="44.90961" lon="-0.39092">
        <ele>19.9</ele>
        <time>2020-09-10T12:07:05Z</time>
      </trkpt>
      <trkpt lat="44.90963" lon="-0.39093">
        <ele>19.9</ele>
        <time>2020-09-10T12:07:06Z</time>
      </trkpt>
      <trkpt lat="44.90964" lon="-0.39093">
        <ele>19.9</ele>
        <time>2020-09-10T12:07:07Z</time>
      </trkpt>
      <trkpt lat="44.90966" lon="-0.39092">
        <ele>19.8</ele>
        <time>2020-09-10T12:07:08Z</time>
      </trkpt>
      <trkpt lat="44.90967" lon="-0.39091">
        <ele>19.8</ele>
        <time>2020-09-10T12:07:09Z</time>
      </trkpt>
      <trkpt lat="44.90967" lon="-0.39091">
        <ele>19.8</ele>
        <time>2020-09-10T12:07:10Z</time>
      </trkpt>
      <trkpt lat="44.90967" lon="-0.39092">
        <ele>19.8</ele>
        <time>2020-09-10T12:07:11Z</time>
      </trkpt>
      <trkpt lat="44.90968" lon="-0.39092">
        <ele>19.8</ele>
        <time>2020-09-10T12:07:12Z</time>
      </trkpt>
      <trkpt lat="44.90969" lon="-0.39091">
        <ele>19.8</ele>
        <time>2020-09-10T12:07:14Z</time>
      </trkpt>
      <trkpt lat="44.90971" lon="-0.39091">
        <ele>19.8</ele>
        <time>2020-09-10T12:07:15Z</time>
      </trkpt>
      <trkpt lat="44.90971" lon="-0.39092">
        <ele>19.8</ele>
        <time>2020-09-10T12:07:17Z</time>
      </trkpt>
      <trkpt lat="44.90973" lon="-0.39092">
        <ele>19.7</ele>
        <time>2020-09-10T12:07:18Z</time>
      </trkpt>
      <trkpt lat="44.90974" lon="-0.39091">
        <ele>19.7</ele>
        <time>2020-09-10T12:07:19Z</time>
      </trkpt>
      <trkpt lat="44.90976" lon="-0.39091">
        <ele>19.7</ele>
        <time>2020-09-10T12:07:20Z</time>
      </trkpt>
      <trkpt lat="44.90977" lon="-0.39091">
        <ele>19.7</ele>
        <time>2020-09-10T12:07:21Z</time>
      </trkpt>
      <trkpt lat="44.9098" lon="-0.3909">
        <ele>19.7</ele>
        <time>2020-09-10T12:07:23Z</time>
      </trkpt>
      <trkpt lat="44.90981" lon="-0.39089">
        <ele>19.7</ele>
        <time>2020-09-10T12:07:24Z</time>
      </trkpt>
      <trkpt lat="44.90984" lon="-0.39089">
        <ele>19.7</ele>
        <time>2020-09-10T12:07:25Z</time>
      </trkpt>
      <trkpt lat="44.90985" lon="-0.39088">
        <ele>19.7</ele>
        <time>2020-09-10T12:07:26Z</time>
      </trkpt>
      <trkpt lat="44.90986" lon="-0.39088">
        <ele>19.6</ele>
        <time>2020-09-10T12:07:28Z</time>
      </trkpt>
      <trkpt lat="44.90988" lon="-0.39088">
        <ele>19.6</ele>
        <time>2020-09-10T12:07:29Z</time>
      </trkpt>
      <trkpt lat="44.90989" lon="-0.39088">
        <ele>19.6</ele>
        <time>2020-09-10T12:07:30Z</time>
      </trkpt>
      <trkpt lat="44.90992" lon="-0.39087">
        <ele>19.6</ele>
        <time>2020-09-10T12:07:31Z</time>
      </trkpt>
      <trkpt lat="44.90993" lon="-0.39086">
        <ele>19.6</ele>
        <time>2020-09-10T12:07:32Z</time>
      </trkpt>
      <trkpt lat="44.90994" lon="-0.39087">
        <ele>19.5</ele>
        <time>2020-09-10T12:07:33Z</time>
      </trkpt>
      <trkpt lat="44.90996" lon="-0.39089">
        <ele>19.5</ele>
        <time>2020-09-10T12:07:35Z</time>
      </trkpt>
      <trkpt lat="44.90997" lon="-0.39091">
        <ele>19.5</ele>
        <time>2020-09-10T12:07:36Z</time>
      </trkpt>
      <trkpt lat="44.90999" lon="-0.39092">
        <ele>19.5</ele>
        <time>2020-09-10T12:07:37Z</time>
      </trkpt>
      <trkpt lat="44.91" lon="-0.39094">
        <ele>19.5</ele>
        <time>2020-09-10T12:07:38Z</time>
      </trkpt>
      <trkpt lat="44.91001" lon="-0.39095">
        <ele>19.5</ele>
        <time>2020-09-10T12:07:39Z</time>
      </trkpt>
      <trkpt lat="44.91002" lon="-0.39096">
        <ele>19.5</ele>
        <time>2020-09-10T12:07:41Z</time>
      </trkpt>
      <trkpt lat="44.91003" lon="-0.39097">
        <ele>19.5</ele>
        <time>2020-09-10T12:07:42Z</time>
      </trkpt>
      <trkpt lat="44.91003" lon="-0.39098">
        <ele>19.5</ele>
        <time>2020-09-10T12:07:43Z</time>
      </trkpt>
      <trkpt lat="44.91004" lon="-0.39098">
        <ele>19.5</ele>
        <time>2020-09-10T12:07:44Z</time>
      </trkpt>
      <trkpt lat="44.91004" lon="-0.39099">
        <ele>19.5</ele>
        <time>2020-09-10T12:07:45Z</time>
      </trkpt>
      <trkpt lat="44.91005" lon="-0.391">
        <ele>19.5</ele>
        <time>2020-09-10T12:07:46Z</time>
      </trkpt>
      <trkpt lat="44.91006" lon="-0.39101">
        <ele>19.5</ele>
        <time>2020-09-10T12:07:48Z</time>
      </trkpt>
      <trkpt lat="44.91007" lon="-0.39103">
        <ele>19.5</ele>
        <time>2020-09-10T12:07:50Z</time>
      </trkpt>
      <trkpt lat="44.91009" lon="-0.39104">
        <ele>19.6</ele>
        <time>2020-09-10T12:07:52Z</time>
      </trkpt>
      <trkpt lat="44.9101" lon="-0.39105">
        <ele>19.6</ele>
        <time>2020-09-10T12:07:53Z</time>
      </trkpt>
      <trkpt lat="44.91011" lon="-0.39106">
        <ele>19.6</ele>
        <time>2020-09-10T12:07:54Z</time>
      </trkpt>
      <trkpt lat="44.91012" lon="-0.39107">
        <ele>19.6</ele>
        <time>2020-09-10T12:07:55Z</time>
      </trkpt>
      <trkpt lat="44.91013" lon="-0.39108">
        <ele>19.6</ele>
        <time>2020-09-10T12:07:56Z</time>
      </trkpt>
      <trkpt lat="44.91014" lon="-0.39109">
        <ele>19.6</ele>
        <time>2020-09-10T12:07:57Z</time>
      </trkpt>
      <trkpt lat="44.91015" lon="-0.3911">
        <ele>19.6</ele>
        <time>2020-09-10T12:07:59Z</time>
      </trkpt>
      <trkpt lat="44.91016" lon="-0.39111">
        <ele>19.6</ele>
        <time>2020-09-10T12:08:00Z</time>
      </trkpt>
      <trkpt lat="44.91016" lon="-0.39112">
        <ele>19.6</ele>
        <time>2020-09-10T12:08:01Z</time>
      </trkpt>
      <trkpt lat="44.91017" lon="-0.39113">
        <ele>19.6</ele>
        <time>2020-09-10T12:08:02Z</time>
      </trkpt>
      <trkpt lat="44.91018" lon="-0.39114">
        <ele>19.6</ele>
        <time>2020-09-10T12:08:03Z</time>
      </trkpt>
      <trkpt lat="44.91018" lon="-0.39114">
        <ele>19.6</ele>
        <time>2020-09-10T12:08:04Z</time>
      </trkpt>
      <trkpt lat="44.91018" lon="-0.39116">
        <ele>19.6</ele>
        <time>2020-09-10T12:08:06Z</time>
      </trkpt>
      <trkpt lat="44.91019" lon="-0.39117">
        <ele>19.6</ele>
        <time>2020-09-10T12:08:07Z</time>
      </trkpt>
      <trkpt lat="44.91019" lon="-0.39118">
        <ele>19.6</ele>
        <time>2020-09-10T12:08:08Z</time>
      </trkpt>
      <trkpt lat="44.91018" lon="-0.39121">
        <ele>19.6</ele>
        <time>2020-09-10T12:08:10Z</time>
      </trkpt>
      <trkpt lat="44.91018" lon="-0.39122">
        <ele>19.6</ele>
        <time>2020-09-10T12:08:11Z</time>
      </trkpt>
      <trkpt lat="44.91017" lon="-0.39126">
        <ele>19.6</ele>
        <time>2020-09-10T12:08:12Z</time>
      </trkpt>
      <trkpt lat="44.91018" lon="-0.39128">
        <ele>19.6</ele>
        <time>2020-09-10T12:08:14Z</time>
      </trkpt>
      <trkpt lat="44.91018" lon="-0.39129">
        <ele>19.6</ele>
        <time>2020-09-10T12:08:15Z</time>
      </trkpt>
      <trkpt lat="44.91018" lon="-0.39131">
        <ele>19.6</ele>
        <time>2020-09-10T12:08:16Z</time>
      </trkpt>
      <trkpt lat="44.91019" lon="-0.39133">
        <ele>19.6</ele>
        <time>2020-09-10T12:08:17Z</time>
      </trkpt>
      <trkpt lat="44.9102" lon="-0.39134">
        <ele>19.6</ele>
        <time>2020-09-10T12:08:18Z</time>
      </trkpt>
      <trkpt lat="44.91022" lon="-0.39133">
        <ele>19.6</ele>
        <time>2020-09-10T12:08:20Z</time>
      </trkpt>
      <trkpt lat="44.91024" lon="-0.39133">
        <ele>19.6</ele>
        <time>2020-09-10T12:08:21Z</time>
      </trkpt>
      <trkpt lat="44.91025" lon="-0.39132">
        <ele>19.6</ele>
        <time>2020-09-10T12:08:22Z</time>
      </trkpt>
      <trkpt lat="44.91026" lon="-0.39129">
        <ele>19.6</ele>
        <time>2020-09-10T12:08:24Z</time>
      </trkpt>
      <trkpt lat="44.91026" lon="-0.39127">
        <ele>19.6</ele>
        <time>2020-09-10T12:08:25Z</time>
      </trkpt>
      <trkpt lat="44.91027" lon="-0.39126">
        <ele>19.6</ele>
        <time>2020-09-10T12:08:26Z</time>
      </trkpt>
      <trkpt lat="44.91028" lon="-0.39123">
        <ele>19.6</ele>
        <time>2020-09-10T12:08:27Z</time>
      </trkpt>
      <trkpt lat="44.91029" lon="-0.39121">
        <ele>19.6</ele>
        <time>2020-09-10T12:08:29Z</time>
      </trkpt>
      <trkpt lat="44.9103" lon="-0.39119">
        <ele>19.6</ele>
        <time>2020-09-10T12:08:30Z</time>
      </trkpt>
      <trkpt lat="44.91031" lon="-0.39117">
        <ele>19.6</ele>
        <time>2020-09-10T12:08:31Z</time>
      </trkpt>
      <trkpt lat="44.91031" lon="-0.39116">
        <ele>19.6</ele>
        <time>2020-09-10T12:08:32Z</time>
      </trkpt>
      <trkpt lat="44.91031" lon="-0.39113">
        <ele>19.6</ele>
        <time>2020-09-10T12:08:34Z</time>
      </trkpt>
      <trkpt lat="44.9103" lon="-0.39112">
        <ele>19.6</ele>
        <time>2020-09-10T12:08:36Z</time>
      </trkpt>
      <trkpt lat="44.9103" lon="-0.39112">
        <ele>19.6</ele>
        <time>2020-09-10T12:08:37Z</time>
      </trkpt>
      <trkpt lat="44.91029" lon="-0.39112">
        <ele>19.6</ele>
        <time>2020-09-10T12:08:38Z</time>
      </trkpt>
      <trkpt lat="44.91029" lon="-0.39112">
        <ele>19.6</ele>
        <time>2020-09-10T12:08:39Z</time>
      </trkpt>
      <trkpt lat="44.91029" lon="-0.39112">
        <ele>19.6</ele>
        <time>2020-09-10T12:08:41Z</time>
      </trkpt>
      <trkpt lat="44.91029" lon="-0.39112">
        <ele>19.6</ele>
        <time>2020-09-10T12:08:42Z</time>
      </trkpt>
      <trkpt lat="44.91028" lon="-0.39112">
        <ele>19.6</ele>
        <time>2020-09-10T12:08:43Z</time>
      </trkpt>
      <trkpt lat="44.91028" lon="-0.39112">
        <ele>19.6</ele>
        <time>2020-09-10T12:08:44Z</time>
      </trkpt>
      <trkpt lat="44.91028" lon="-0.39113">
        <ele>19.6</ele>
        <time>2020-09-10T12:08:46Z</time>
      </trkpt>
      <trkpt lat="44.91028" lon="-0.39113">
        <ele>19.6</ele>
        <time>2020-09-10T12:08:48Z</time>
      </trkpt>
      <trkpt lat="44.91027" lon="-0.39113">
        <ele>19.6</ele>
        <time>2020-09-10T12:08:50Z</time>
      </trkpt>
      <trkpt lat="44.91027" lon="-0.39113">
        <ele>19.6</ele>
        <time>2020-09-10T12:08:51Z</time>
      </trkpt>
      <trkpt lat="44.91027" lon="-0.39113">
        <ele>19.6</ele>
        <time>2020-09-10T12:08:53Z</time>
      </trkpt>
      <trkpt lat="44.91027" lon="-0.39113">
        <ele>19.6</ele>
        <time>2020-09-10T12:08:55Z</time>
      </trkpt>
      <trkpt lat="44.91026" lon="-0.39116">
        <ele>19.6</ele>
        <time>2020-09-10T12:08:57Z</time>
      </trkpt>
      <trkpt lat="44.91025" lon="-0.39119">
        <ele>19.6</ele>
        <time>2020-09-10T12:08:59Z</time>
      </trkpt>
      <trkpt lat="44.91024" lon="-0.39121">
        <ele>19.6</ele>
        <time>2020-09-10T12:09:01Z</time>
      </trkpt>
      <trkpt lat="44.91024" lon="-0.39121">
        <ele>19.6</ele>
        <time>2020-09-10T12:09:02Z</time>
      </trkpt>
      <trkpt lat="44.91024" lon="-0.39121">
        <ele>19.6</ele>
        <time>2020-09-10T12:09:04Z</time>
      </trkpt>
      <trkpt lat="44.91024" lon="-0.39121">
        <ele>19.6</ele>
        <time>2020-09-10T12:09:05Z</time>
      </trkpt>
      <trkpt lat="44.91024" lon="-0.39121">
        <ele>19.6</ele>
        <time>2020-09-10T12:09:07Z</time>
      </trkpt>
      <trkpt lat="44.91024" lon="-0.39121">
        <ele>19.6</ele>
        <time>2020-09-10T12:09:08Z</time>
      </trkpt>
      <trkpt lat="44.91023" lon="-0.39123">
        <ele>19.6</ele>
        <time>2020-09-10T12:09:10Z</time>
      </trkpt>
      <trkpt lat="44.91023" lon="-0.39122">
        <ele>19.6</ele>
        <time>2020-09-10T12:09:11Z</time>
      </trkpt>
      <trkpt lat="44.91022" lon="-0.39121">
        <ele>19.6</ele>
        <time>2020-09-10T12:09:12Z</time>
      </trkpt>
      <trkpt lat="44.91022" lon="-0.39119">
        <ele>19.6</ele>
        <time>2020-09-10T12:09:13Z</time>
      </trkpt>
      <trkpt lat="44.91022" lon="-0.39122">
        <ele>19.5</ele>
        <time>2020-09-10T12:09:15Z</time>
      </trkpt>
      <trkpt lat="44.91022" lon="-0.39122">
        <ele>19.5</ele>
        <time>2020-09-10T12:09:16Z</time>
      </trkpt>
      <trkpt lat="44.91022" lon="-0.39123">
        <ele>19.5</ele>
        <time>2020-09-10T12:09:17Z</time>
      </trkpt>
      <trkpt lat="44.91022" lon="-0.39124">
        <ele>19.5</ele>
        <time>2020-09-10T12:09:19Z</time>
      </trkpt>
      <trkpt lat="44.91022" lon="-0.39125">
        <ele>19.5</ele>
        <time>2020-09-10T12:09:20Z</time>
      </trkpt>
      <trkpt lat="44.91023" lon="-0.39125">
        <ele>19.5</ele>
        <time>2020-09-10T12:09:21Z</time>
      </trkpt>
      <trkpt lat="44.91023" lon="-0.39126">
        <ele>19.5</ele>
        <time>2020-09-10T12:09:22Z</time>
      </trkpt>
      <trkpt lat="44.91022" lon="-0.39126">
        <ele>19.5</ele>
        <time>2020-09-10T12:09:24Z</time>
      </trkpt>
      <trkpt lat="44.9102" lon="-0.39126">
        <ele>19.5</ele>
        <time>2020-09-10T12:09:25Z</time>
      </trkpt>
      <trkpt lat="44.91019" lon="-0.39127">
        <ele>19.5</ele>
        <time>2020-09-10T12:09:26Z</time>
      </trkpt>
      <trkpt lat="44.91019" lon="-0.39128">
        <ele>19.5</ele>
        <time>2020-09-10T12:09:27Z</time>
      </trkpt>
      <trkpt lat="44.91018" lon="-0.3913">
        <ele>19.5</ele>
        <time>2020-09-10T12:09:29Z</time>
      </trkpt>
      <trkpt lat="44.9102" lon="-0.39132">
        <ele>19.5</ele>
        <time>2020-09-10T12:09:31Z</time>
      </trkpt>
      <trkpt lat="44.91019" lon="-0.39132">
        <ele>19.5</ele>
        <time>2020-09-10T12:09:32Z</time>
      </trkpt>
      <trkpt lat="44.91019" lon="-0.39133">
        <ele>19.5</ele>
        <time>2020-09-10T12:09:33Z</time>
      </trkpt>
      <trkpt lat="44.91019" lon="-0.39134">
        <ele>19.5</ele>
        <time>2020-09-10T12:09:35Z</time>
      </trkpt>
      <trkpt lat="44.91019" lon="-0.39134">
        <ele>19.5</ele>
        <time>2020-09-10T12:09:36Z</time>
      </trkpt>
      <trkpt lat="44.91018" lon="-0.39135">
        <ele>19.5</ele>
        <time>2020-09-10T12:09:38Z</time>
      </trkpt>
      <trkpt lat="44.91018" lon="-0.39135">
        <ele>19.5</ele>
        <time>2020-09-10T12:09:39Z</time>
      </trkpt>
      <trkpt lat="44.91017" lon="-0.39135">
        <ele>19.5</ele>
        <time>2020-09-10T12:09:41Z</time>
      </trkpt>
      <trkpt lat="44.91017" lon="-0.39135">
        <ele>19.5</ele>
        <time>2020-09-10T12:09:43Z</time>
      </trkpt>
      <trkpt lat="44.91017" lon="-0.39135">
        <ele>19.5</ele>
        <time>2020-09-10T12:09:45Z</time>
      </trkpt>
      <trkpt lat="44.91017" lon="-0.39136">
        <ele>19.5</ele>
        <time>2020-09-10T12:09:47Z</time>
      </trkpt>
      <trkpt lat="44.91017" lon="-0.39136">
        <ele>19.5</ele>
        <time>2020-09-10T12:09:48Z</time>
      </trkpt>
      <trkpt lat="44.91018" lon="-0.39136">
        <ele>19.5</ele>
        <time>2020-09-10T12:09:50Z</time>
      </trkpt>
      <trkpt lat="44.91018" lon="-0.39136">
        <ele>19.5</ele>
        <time>2020-09-10T12:09:51Z</time>
      </trkpt>
      <trkpt lat="44.91018" lon="-0.39136">
        <ele>19.5</ele>
        <time>2020-09-10T12:09:53Z</time>
      </trkpt>
      <trkpt lat="44.91018" lon="-0.39136">
        <ele>19.5</ele>
        <time>2020-09-10T12:09:54Z</time>
      </trkpt>
      <trkpt lat="44.91018" lon="-0.39136">
        <ele>19.5</ele>
        <time>2020-09-10T12:09:56Z</time>
      </trkpt>
      <trkpt lat="44.91018" lon="-0.39136">
        <ele>19.5</ele>
        <time>2020-09-10T12:09:57Z</time>
      </trkpt>
      <trkpt lat="44.91018" lon="-0.39136">
        <ele>19.5</ele>
        <time>2020-09-10T12:09:59Z</time>
      </trkpt>
      <trkpt lat="44.91018" lon="-0.39136">
        <ele>19.5</ele>
        <time>2020-09-10T12:10:00Z</time>
      </trkpt>
      <trkpt lat="44.91018" lon="-0.39136">
        <ele>19.5</ele>
        <time>2020-09-10T12:10:02Z</time>
      </trkpt>
      <trkpt lat="44.91018" lon="-0.39136">
        <ele>19.5</ele>
        <time>2020-09-10T12:10:04Z</time>
      </trkpt>
      <trkpt lat="44.91018" lon="-0.39136">
        <ele>19.5</ele>
        <time>2020-09-10T12:10:05Z</time>
      </trkpt>
      <trkpt lat="44.91018" lon="-0.39136">
        <ele>19.5</ele>
        <time>2020-09-10T12:10:07Z</time>
      </trkpt>
      <trkpt lat="44.91018" lon="-0.39136">
        <ele>19.5</ele>
        <time>2020-09-10T12:10:08Z</time>
      </trkpt>
      <trkpt lat="44.91018" lon="-0.39136">
        <ele>19.5</ele>
        <time>2020-09-10T12:10:10Z</time>
      </trkpt>
      <trkpt lat="44.91018" lon="-0.39136">
        <ele>19.5</ele>
        <time>2020-09-10T12:10:11Z</time>
      </trkpt>
      <trkpt lat="44.91018" lon="-0.39136">
        <ele>19.5</ele>
        <time>2020-09-10T12:10:13Z</time>
      </trkpt>
      <trkpt lat="44.91018" lon="-0.39136">
        <ele>19.5</ele>
        <time>2020-09-10T12:10:14Z</time>
      </trkpt>
      <trkpt lat="44.91018" lon="-0.39136">
        <ele>19.5</ele>
        <time>2020-09-10T12:10:16Z</time>
      </trkpt>
      <trkpt lat="44.91018" lon="-0.39136">
        <ele>19.5</ele>
        <time>2020-09-10T12:10:18Z</time>
      </trkpt>
      <trkpt lat="44.91018" lon="-0.39136">
        <ele>19.5</ele>
        <time>2020-09-10T12:10:19Z</time>
      </trkpt>
      <trkpt lat="44.91018" lon="-0.39136">
        <ele>19.5</ele>
        <time>2020-09-10T12:10:21Z</time>
      </trkpt>
      <trkpt lat="44.91018" lon="-0.39136">
        <ele>19.5</ele>
        <time>2020-09-10T12:10:22Z</time>
      </trkpt>
      <trkpt lat="44.91018" lon="-0.39136">
        <ele>19.5</ele>
        <time>2020-09-10T12:10:24Z</time>
      </trkpt>
      <trkpt lat="44.91018" lon="-0.39136">
        <ele>19.5</ele>
        <time>2020-09-10T12:10:26Z</time>
      </trkpt>
      <trkpt lat="44.91018" lon="-0.39136">
        <ele>19.5</ele>
        <time>2020-09-10T12:10:27Z</time>
      </trkpt>
      <trkpt lat="44.91018" lon="-0.39136">
        <ele>19.5</ele>
        <time>2020-09-10T12:10:29Z</time>
      </trkpt>
      <trkpt lat="44.91018" lon="-0.39136">
        <ele>19.5</ele>
        <time>2020-09-10T12:10:31Z</time>
      </trkpt>
      <trkpt lat="44.91018" lon="-0.39136">
        <ele>19.5</ele>
        <time>2020-09-10T12:10:33Z</time>
      </trkpt>
      <trkpt lat="44.91018" lon="-0.39136">
        <ele>19.5</ele>
        <time>2020-09-10T12:10:35Z</time>
      </trkpt>
      <trkpt lat="44.91018" lon="-0.39136">
        <ele>19.5</ele>
        <time>2020-09-10T12:10:36Z</time>
      </trkpt>
      <trkpt lat="44.91018" lon="-0.39136">
        <ele>19.5</ele>
        <time>2020-09-10T12:10:38Z</time>
      </trkpt>
      <trkpt lat="44.91018" lon="-0.39136">
        <ele>19.5</ele>
        <time>2020-09-10T12:10:40Z</time>
      </trkpt>
      <trkpt lat="44.91018" lon="-0.39136">
        <ele>19.5</ele>
        <time>2020-09-10T12:10:41Z</time>
      </trkpt>
      <trkpt lat="44.91018" lon="-0.39136">
        <ele>19.5</ele>
        <time>2020-09-10T12:10:42Z</time>
      </trkpt>
      <trkpt lat="44.91018" lon="-0.39136">
        <ele>19.5</ele>
        <time>2020-09-10T12:10:44Z</time>
      </trkpt>
      <trkpt lat="44.91018" lon="-0.39136">
        <ele>19.5</ele>
        <time>2020-09-10T12:10:45Z</time>
      </trkpt>
      <trkpt lat="44.91018" lon="-0.39136">
        <ele>19.5</ele>
        <time>2020-09-10T12:10:47Z</time>
      </trkpt>
      <trkpt lat="44.91018" lon="-0.39136">
        <ele>19.5</ele>
        <time>2020-09-10T12:10:49Z</time>
      </trkpt>
      <trkpt lat="44.91018" lon="-0.39136">
        <ele>19.5</ele>
        <time>2020-09-10T12:10:50Z</time>
      </trkpt>
      <trkpt lat="44.91018" lon="-0.39136">
        <ele>19.5</ele>
        <time>2020-09-10T12:10:52Z</time>
      </trkpt>
      <trkpt lat="44.91018" lon="-0.39136">
        <ele>19.5</ele>
        <time>2020-09-10T12:10:54Z</time>
      </trkpt>
      <trkpt lat="44.91018" lon="-0.39136">
        <ele>19.5</ele>
        <time>2020-09-10T12:10:56Z</time>
      </trkpt>
      <trkpt lat="44.91018" lon="-0.39136">
        <ele>19.5</ele>
        <time>2020-09-10T12:10:57Z</time>
      </trkpt>
      <trkpt lat="44.91018" lon="-0.39136">
        <ele>19.5</ele>
        <time>2020-09-10T12:10:59Z</time>
      </trkpt>
      <trkpt lat="44.91018" lon="-0.39136">
        <ele>19.5</ele>
        <time>2020-09-10T12:11:00Z</time>
      </trkpt>
      <trkpt lat="44.91018" lon="-0.39136">
        <ele>19.5</ele>
        <time>2020-09-10T12:11:02Z</time>
      </trkpt>
      <trkpt lat="44.91018" lon="-0.39136">
        <ele>19.5</ele>
        <time>2020-09-10T12:11:04Z</time>
      </trkpt>
      <trkpt lat="44.91018" lon="-0.39136">
        <ele>19.5</ele>
        <time>2020-09-10T12:11:05Z</time>
      </trkpt>
      <trkpt lat="44.91018" lon="-0.39136">
        <ele>19.5</ele>
        <time>2020-09-10T12:11:06Z</time>
      </trkpt>
      <trkpt lat="44.91018" lon="-0.39136">
        <ele>19.5</ele>
        <time>2020-09-10T12:11:08Z</time>
      </trkpt>
      <trkpt lat="44.91018" lon="-0.39136">
        <ele>19.5</ele>
        <time>2020-09-10T12:11:09Z</time>
      </trkpt>
      <trkpt lat="44.91018" lon="-0.39136">
        <ele>19.5</ele>
        <time>2020-09-10T12:11:11Z</time>
      </trkpt>
      <trkpt lat="44.91018" lon="-0.39136">
        <ele>19.5</ele>
        <time>2020-09-10T12:11:13Z</time>
      </trkpt>
      <trkpt lat="44.91018" lon="-0.39136">
        <ele>19.5</ele>
        <time>2020-09-10T12:11:15Z</time>
      </trkpt>
      <trkpt lat="44.91018" lon="-0.39136">
        <ele>19.5</ele>
        <time>2020-09-10T12:11:16Z</time>
      </trkpt>
      <trkpt lat="44.91018" lon="-0.39136">
        <ele>19.5</ele>
        <time>2020-09-10T12:11:17Z</time>
      </trkpt>
      <trkpt lat="44.91018" lon="-0.39136">
        <ele>19.5</ele>
        <time>2020-09-10T12:11:19Z</time>
      </trkpt>
      <trkpt lat="44.91018" lon="-0.39136">
        <ele>19.5</ele>
        <time>2020-09-10T12:11:20Z</time>
      </trkpt>
      <trkpt lat="44.91018" lon="-0.39136">
        <ele>19.5</ele>
        <time>2020-09-10T12:11:22Z</time>
      </trkpt>
      <trkpt lat="44.91018" lon="-0.39136">
        <ele>19.5</ele>
        <time>2020-09-10T12:11:23Z</time>
      </trkpt>
      <trkpt lat="44.91018" lon="-0.39136">
        <ele>19.5</ele>
        <time>2020-09-10T12:11:24Z</time>
      </trkpt>
      <trkpt lat="44.91018" lon="-0.39136">
        <ele>19.5</ele>
        <time>2020-09-10T12:11:26Z</time>
      </trkpt>
      <trkpt lat="44.91018" lon="-0.39136">
        <ele>19.5</ele>
        <time>2020-09-10T12:11:27Z</time>
      </trkpt>
      <trkpt lat="44.91018" lon="-0.39136">
        <ele>19.5</ele>
        <time>2020-09-10T12:11:28Z</time>
      </trkpt>
      <trkpt lat="44.91018" lon="-0.39136">
        <ele>19.5</ele>
        <time>2020-09-10T12:11:30Z</time>
      </trkpt>
      <trkpt lat="44.91018" lon="-0.39136">
        <ele>19.5</ele>
        <time>2020-09-10T12:11:32Z</time>
      </trkpt>
      <trkpt lat="44.91018" lon="-0.39136">
        <ele>19.5</ele>
        <time>2020-09-10T12:11:33Z</time>
      </trkpt>
      <trkpt lat="44.91018" lon="-0.39136">
        <ele>19.5</ele>
        <time>2020-09-10T12:11:35Z</time>
      </trkpt>
      <trkpt lat="44.91018" lon="-0.39136">
        <ele>19.5</ele>
        <time>2020-09-10T12:11:37Z</time>
      </trkpt>
      <trkpt lat="44.91018" lon="-0.39136">
        <ele>19.5</ele>
        <time>2020-09-10T12:11:38Z</time>
      </trkpt>
      <trkpt lat="44.91018" lon="-0.39137">
        <ele>19.5</ele>
        <time>2020-09-10T12:11:40Z</time>
      </trkpt>
      <trkpt lat="44.91018" lon="-0.39137">
        <ele>19.5</ele>
        <time>2020-09-10T12:11:42Z</time>
      </trkpt>
    </trkseg>
  </trk>
</gpx>